<?xml version='1.0' encoding='UTF-8'?><gpx version="1.1" creator="JPX - https://github.com/jenetics/jpx" xmlns="http://www.topografix.com/GPX/1/1"><trk><trkseg><trkpt lat="40.0085721" lon="9.2269329"><ele>904.0</ele><time>2026-04-23T06:38:50.714Z</time></trkpt><trkpt lat="40.0085258" lon="9.2269886"><ele>904.0000000000001</ele><time>2026-04-23T06:38:53.734Z</time></trkpt><trkpt lat="40.0084666" lon="9.2270724"><ele>904.0000000000001</ele><time>2026-04-23T06:38:55.733Z</time></trkpt><trkpt lat="40.0084042" lon="9.2271508"><ele>904.0</ele><time>2026-04-23T06:38:58.719Z</time></trkpt><trkpt lat="40.0085104" lon="9.2270352"><ele>904.0</ele><time>2026-04-23T06:39:00.616Z</time></trkpt><trkpt lat="40.0086803" lon="9.2269603"><ele>903.9999999999999</ele><time>2026-04-23T06:39:13.623Z</time></trkpt><trkpt lat="40.0087169" lon="9.226891"><ele>904.0</ele><time>2026-04-23T06:39:16.626Z</time></trkpt><trkpt lat="40.0086728" lon="9.2269907"><ele>904.0</ele><time>2026-04-23T06:39:23.646Z</time></trkpt><trkpt lat="40.0085757" lon="9.2269272"><ele>904.0</ele><time>2026-04-23T06:39:51.651Z</time></trkpt><trkpt lat="40.0085685" lon="9.2270616"><ele>903.9999999999999</ele><time>2026-04-23T06:40:21.655Z</time></trkpt><trkpt lat="40.0086397" lon="9.2271124"><ele>904.0</ele><time>2026-04-23T06:41:00.643Z</time></trkpt><trkpt lat="40.0087271" lon="9.2271502"><ele>904.0</ele><time>2026-04-23T06:41:02.631Z</time></trkpt><trkpt lat="40.0088157" lon="9.2271888"><ele>904.0000000000001</ele><time>2026-04-23T06:41:04.623Z</time></trkpt><trkpt lat="40.0089293" lon="9.22721"><ele>904.0000000000001</ele><time>2026-04-23T06:41:07.624Z</time></trkpt><trkpt lat="40.0090036" lon="9.2272107"><ele>904.0</ele><time>2026-04-23T06:41:08.63Z</time></trkpt><trkpt lat="40.0091093" lon="9.2272577"><ele>904.0</ele><time>2026-04-23T06:41:10.64Z</time></trkpt><trkpt lat="40.0092152" lon="9.2272715"><ele>906.3333333333333</ele><time>2026-04-23T06:41:12.641Z</time></trkpt><trkpt lat="40.0093161" lon="9.2272942"><ele>908.6666666666666</ele><time>2026-04-23T06:41:14.64Z</time></trkpt><trkpt lat="40.0093802" lon="9.2273867"><ele>911.0</ele><time>2026-04-23T06:41:16.638Z</time></trkpt><trkpt lat="40.0093087" lon="9.2273885"><ele>913.3333333333333</ele><time>2026-04-23T06:41:22.632Z</time></trkpt><trkpt lat="40.009242" lon="9.2273789"><ele>915.6666666666666</ele><time>2026-04-23T06:41:23.631Z</time></trkpt><trkpt lat="40.009169" lon="9.2273709"><ele>918.0</ele><time>2026-04-23T06:41:24.638Z</time></trkpt><trkpt lat="40.0090869" lon="9.2273778"><ele>911.5</ele><time>2026-04-23T06:41:25.636Z</time></trkpt><trkpt lat="40.0089954" lon="9.2274025"><ele>905.0</ele><time>2026-04-23T06:41:26.637Z</time></trkpt><trkpt lat="40.0089158" lon="9.2274107"><ele>898.5</ele><time>2026-04-23T06:41:27.637Z</time></trkpt><trkpt lat="40.0088404" lon="9.2274147"><ele>892.0</ele><time>2026-04-23T06:41:28.634Z</time></trkpt><trkpt lat="40.0087532" lon="9.2274049"><ele>885.5</ele><time>2026-04-23T06:41:29.635Z</time></trkpt><trkpt lat="40.0086664" lon="9.2273775"><ele>879.0</ele><time>2026-04-23T06:41:30.638Z</time></trkpt><trkpt lat="40.0085726" lon="9.2273476"><ele>879.0</ele><time>2026-04-23T06:41:31.632Z</time></trkpt><trkpt lat="40.0084866" lon="9.2273189"><ele>879.0000000000001</ele><time>2026-04-23T06:41:32.629Z</time></trkpt><trkpt lat="40.0084212" lon="9.2272899"><ele>879.0000000000001</ele><time>2026-04-23T06:41:33.638Z</time></trkpt><trkpt lat="40.0082984" lon="9.2272357"><ele>879.0</ele><time>2026-04-23T06:41:35.655Z</time></trkpt><trkpt lat="40.0081862" lon="9.2271951"><ele>879.0</ele><time>2026-04-23T06:41:37.644Z</time></trkpt><trkpt lat="40.0080825" lon="9.2271191"><ele>878.8333333333334</ele><time>2026-04-23T06:41:39.651Z</time></trkpt><trkpt lat="40.0080147" lon="9.2270891"><ele>878.6666666666667</ele><time>2026-04-23T06:41:40.642Z</time></trkpt><trkpt lat="40.0079512" lon="9.227084"><ele>878.5</ele><time>2026-04-23T06:41:41.65Z</time></trkpt><trkpt lat="40.0078414" lon="9.2270441"><ele>878.3333333333334</ele><time>2026-04-23T06:41:43.641Z</time></trkpt><trkpt lat="40.007767" lon="9.2269605"><ele>878.1666666666667</ele><time>2026-04-23T06:41:44.642Z</time></trkpt><trkpt lat="40.0077038" lon="9.2268697"><ele>878.0</ele><time>2026-04-23T06:41:45.643Z</time></trkpt><trkpt lat="40.0076554" lon="9.2267497"><ele>878.0</ele><time>2026-04-23T06:41:46.645Z</time></trkpt><trkpt lat="40.007629" lon="9.2266183"><ele>878.0</ele><time>2026-04-23T06:41:47.642Z</time></trkpt><trkpt lat="40.0076217" lon="9.2264736"><ele>878.0</ele><time>2026-04-23T06:41:48.651Z</time></trkpt><trkpt lat="40.0076007" lon="9.2263408"><ele>878.0</ele><time>2026-04-23T06:41:49.638Z</time></trkpt><trkpt lat="40.0075789" lon="9.2262135"><ele>878.0</ele><time>2026-04-23T06:41:50.638Z</time></trkpt><trkpt lat="40.0075605" lon="9.2260912"><ele>878.5000000000001</ele><time>2026-04-23T06:41:51.637Z</time></trkpt><trkpt lat="40.0075392" lon="9.2259767"><ele>879.0</ele><time>2026-04-23T06:41:52.644Z</time></trkpt><trkpt lat="40.0075006" lon="9.2258734"><ele>879.5</ele><time>2026-04-23T06:41:53.641Z</time></trkpt><trkpt lat="40.0074487" lon="9.2257861"><ele>880.0</ele><time>2026-04-23T06:41:54.642Z</time></trkpt><trkpt lat="40.007392" lon="9.2257053"><ele>880.5000000000001</ele><time>2026-04-23T06:41:55.642Z</time></trkpt><trkpt lat="40.0073277" lon="9.2256219"><ele>881.0</ele><time>2026-04-23T06:41:56.639Z</time></trkpt><trkpt lat="40.0072797" lon="9.2255173"><ele>875.8</ele><time>2026-04-23T06:41:57.652Z</time></trkpt><trkpt lat="40.0072441" lon="9.2254009"><ele>870.5999999999999</ele><time>2026-04-23T06:41:58.636Z</time></trkpt><trkpt lat="40.0072292" lon="9.2252779"><ele>865.4</ele><time>2026-04-23T06:41:59.639Z</time></trkpt><trkpt lat="40.0072301" lon="9.2251507"><ele>860.2</ele><time>2026-04-23T06:42:00.636Z</time></trkpt><trkpt lat="40.0072308" lon="9.225038"><ele>855.0</ele><time>2026-04-23T06:42:01.641Z</time></trkpt><trkpt lat="40.0072316" lon="9.2249308"><ele>855.0</ele><time>2026-04-23T06:42:02.641Z</time></trkpt><trkpt lat="40.007233" lon="9.2248228"><ele>855.0</ele><time>2026-04-23T06:42:03.639Z</time></trkpt><trkpt lat="40.0072092" lon="9.2247222"><ele>855.0</ele><time>2026-04-23T06:42:04.638Z</time></trkpt><trkpt lat="40.0071707" lon="9.2246363"><ele>855.0</ele><time>2026-04-23T06:42:05.649Z</time></trkpt><trkpt lat="40.0071081" lon="9.2245682"><ele>855.0</ele><time>2026-04-23T06:42:06.641Z</time></trkpt><trkpt lat="40.0070343" lon="9.2245189"><ele>855.0</ele><time>2026-04-23T06:42:07.644Z</time></trkpt><trkpt lat="40.0069574" lon="9.2244868"><ele>855.0</ele><time>2026-04-23T06:42:08.646Z</time></trkpt><trkpt lat="40.0068654" lon="9.2244788"><ele>855.0</ele><time>2026-04-23T06:42:09.649Z</time></trkpt><trkpt lat="40.0067722" lon="9.224455"><ele>855.0</ele><time>2026-04-23T06:42:10.652Z</time></trkpt><trkpt lat="40.0066766" lon="9.2243919"><ele>855.0</ele><time>2026-04-23T06:42:11.646Z</time></trkpt><trkpt lat="40.0065988" lon="9.2243106"><ele>855.0</ele><time>2026-04-23T06:42:12.649Z</time></trkpt><trkpt lat="40.0065335" lon="9.2242253"><ele>855.0</ele><time>2026-04-23T06:42:13.649Z</time></trkpt><trkpt lat="40.0064714" lon="9.2241415"><ele>855.0</ele><time>2026-04-23T06:42:14.643Z</time></trkpt><trkpt lat="40.0064032" lon="9.2240561"><ele>855.0</ele><time>2026-04-23T06:42:15.65Z</time></trkpt><trkpt lat="40.0063231" lon="9.2239718"><ele>855.0</ele><time>2026-04-23T06:42:16.642Z</time></trkpt><trkpt lat="40.0062553" lon="9.2238962"><ele>855.0</ele><time>2026-04-23T06:42:17.644Z</time></trkpt><trkpt lat="40.0061905" lon="9.2238042"><ele>855.1666666666666</ele><time>2026-04-23T06:42:18.642Z</time></trkpt><trkpt lat="40.006144" lon="9.2236952"><ele>855.3333333333333</ele><time>2026-04-23T06:42:19.649Z</time></trkpt><trkpt lat="40.0061126" lon="9.2235842"><ele>855.5</ele><time>2026-04-23T06:42:20.648Z</time></trkpt><trkpt lat="40.0061073" lon="9.2234753"><ele>855.6666666666666</ele><time>2026-04-23T06:42:21.649Z</time></trkpt><trkpt lat="40.0061427" lon="9.2233754"><ele>855.8333333333333</ele><time>2026-04-23T06:42:22.642Z</time></trkpt><trkpt lat="40.006189" lon="9.2232891"><ele>856.0</ele><time>2026-04-23T06:42:23.641Z</time></trkpt><trkpt lat="40.0062507" lon="9.223201"><ele>854.9999999999999</ele><time>2026-04-23T06:42:24.644Z</time></trkpt><trkpt lat="40.0063023" lon="9.2231193"><ele>854.0</ele><time>2026-04-23T06:42:25.644Z</time></trkpt><trkpt lat="40.0063436" lon="9.2230328"><ele>853.0</ele><time>2026-04-23T06:42:26.638Z</time></trkpt><trkpt lat="40.0063729" lon="9.2229329"><ele>852.0</ele><time>2026-04-23T06:42:27.641Z</time></trkpt><trkpt lat="40.0063875" lon="9.2228334"><ele>850.9999999999999</ele><time>2026-04-23T06:42:28.649Z</time></trkpt><trkpt lat="40.0063806" lon="9.222737"><ele>850.0</ele><time>2026-04-23T06:42:29.642Z</time></trkpt><trkpt lat="40.0063682" lon="9.2226487"><ele>850.0</ele><time>2026-04-23T06:42:30.646Z</time></trkpt><trkpt lat="40.0063413" lon="9.2225692"><ele>850.0</ele><time>2026-04-23T06:42:31.647Z</time></trkpt><trkpt lat="40.0062899" lon="9.2224181"><ele>850.0</ele><time>2026-04-23T06:42:33.651Z</time></trkpt><trkpt lat="40.006241" lon="9.2222859"><ele>850.0</ele><time>2026-04-23T06:42:35.639Z</time></trkpt><trkpt lat="40.0061884" lon="9.2222058"><ele>850.0</ele><time>2026-04-23T06:42:37.651Z</time></trkpt><trkpt lat="40.006139" lon="9.2221397"><ele>851.3333333333333</ele><time>2026-04-23T06:42:39.656Z</time></trkpt><trkpt lat="40.0061036" lon="9.2220444"><ele>852.6666666666666</ele><time>2026-04-23T06:42:41.654Z</time></trkpt><trkpt lat="40.0060493" lon="9.2219203"><ele>854.0</ele><time>2026-04-23T06:42:44.653Z</time></trkpt><trkpt lat="40.0060136" lon="9.221843"><ele>855.3333333333333</ele><time>2026-04-23T06:42:45.646Z</time></trkpt><trkpt lat="40.0059688" lon="9.2217486"><ele>856.6666666666666</ele><time>2026-04-23T06:42:46.644Z</time></trkpt><trkpt lat="40.0059209" lon="9.2216659"><ele>858.0</ele><time>2026-04-23T06:42:47.646Z</time></trkpt><trkpt lat="40.0058745" lon="9.2215901"><ele>856.5714285714286</ele><time>2026-04-23T06:42:48.65Z</time></trkpt><trkpt lat="40.0058223" lon="9.2215185"><ele>855.1428571428571</ele><time>2026-04-23T06:42:49.655Z</time></trkpt><trkpt lat="40.0057748" lon="9.2214597"><ele>853.7142857142858</ele><time>2026-04-23T06:42:50.653Z</time></trkpt><trkpt lat="40.0057231" lon="9.2213988"><ele>852.2857142857142</ele><time>2026-04-23T06:42:51.652Z</time></trkpt><trkpt lat="40.0056764" lon="9.2213269"><ele>850.8571428571428</ele><time>2026-04-23T06:42:52.651Z</time></trkpt><trkpt lat="40.005618" lon="9.221261"><ele>849.4285714285714</ele><time>2026-04-23T06:42:53.649Z</time></trkpt><trkpt lat="40.0055571" lon="9.2211898"><ele>848.0</ele><time>2026-04-23T06:42:54.648Z</time></trkpt><trkpt lat="40.0055013" lon="9.2211379"><ele>848.0000000000001</ele><time>2026-04-23T06:42:55.644Z</time></trkpt><trkpt lat="40.0053866" lon="9.2210611"><ele>848.0</ele><time>2026-04-23T06:42:57.651Z</time></trkpt><trkpt lat="40.0053303" lon="9.2210108"><ele>848.0</ele><time>2026-04-23T06:42:58.644Z</time></trkpt><trkpt lat="40.0052752" lon="9.2209507"><ele>848.0</ele><time>2026-04-23T06:42:59.646Z</time></trkpt><trkpt lat="40.0052158" lon="9.220886"><ele>848.0000000000001</ele><time>2026-04-23T06:43:00.649Z</time></trkpt><trkpt lat="40.0051541" lon="9.2208193"><ele>848.0</ele><time>2026-04-23T06:43:01.65Z</time></trkpt><trkpt lat="40.0051015" lon="9.2207562"><ele>848.0</ele><time>2026-04-23T06:43:02.645Z</time></trkpt><trkpt lat="40.0050661" lon="9.220687"><ele>848.0</ele><time>2026-04-23T06:43:03.649Z</time></trkpt><trkpt lat="40.0050256" lon="9.2206084"><ele>848.0</ele><time>2026-04-23T06:43:04.644Z</time></trkpt><trkpt lat="40.0049856" lon="9.2205262"><ele>848.0</ele><time>2026-04-23T06:43:05.649Z</time></trkpt><trkpt lat="40.004944" lon="9.2204522"><ele>848.0</ele><time>2026-04-23T06:43:06.648Z</time></trkpt><trkpt lat="40.0048992" lon="9.2203752"><ele>848.0</ele><time>2026-04-23T06:43:07.646Z</time></trkpt><trkpt lat="40.0048522" lon="9.2203012"><ele>848.0</ele><time>2026-04-23T06:43:08.642Z</time></trkpt><trkpt lat="40.0048071" lon="9.2202234"><ele>847.5714285714286</ele><time>2026-04-23T06:43:09.645Z</time></trkpt><trkpt lat="40.0047692" lon="9.22015"><ele>847.1428571428571</ele><time>2026-04-23T06:43:10.646Z</time></trkpt><trkpt lat="40.0047287" lon="9.2200821"><ele>846.7142857142857</ele><time>2026-04-23T06:43:11.647Z</time></trkpt><trkpt lat="40.0046763" lon="9.2200193"><ele>846.2857142857142</ele><time>2026-04-23T06:43:12.647Z</time></trkpt><trkpt lat="40.0046299" lon="9.2199518"><ele>845.8571428571429</ele><time>2026-04-23T06:43:13.645Z</time></trkpt><trkpt lat="40.0045775" lon="9.2198965"><ele>845.4285714285713</ele><time>2026-04-23T06:43:14.649Z</time></trkpt><trkpt lat="40.0045211" lon="9.2198437"><ele>845.0</ele><time>2026-04-23T06:43:15.651Z</time></trkpt><trkpt lat="40.0044566" lon="9.2198054"><ele>844.6</ele><time>2026-04-23T06:43:16.649Z</time></trkpt><trkpt lat="40.0043842" lon="9.2197982"><ele>844.2</ele><time>2026-04-23T06:43:17.65Z</time></trkpt><trkpt lat="40.0043145" lon="9.2197966"><ele>843.8</ele><time>2026-04-23T06:43:18.645Z</time></trkpt><trkpt lat="40.0042002" lon="9.2198134"><ele>843.4</ele><time>2026-04-23T06:43:20.643Z</time></trkpt><trkpt lat="40.0040821" lon="9.2198269"><ele>843.0</ele><time>2026-04-23T06:43:22.645Z</time></trkpt><trkpt lat="40.0039713" lon="9.2198477"><ele>843.0</ele><time>2026-04-23T06:43:24.648Z</time></trkpt><trkpt lat="40.0038655" lon="9.2198722"><ele>843.0</ele><time>2026-04-23T06:43:26.643Z</time></trkpt><trkpt lat="40.003759" lon="9.2198929"><ele>843.0</ele><time>2026-04-23T06:43:28.647Z</time></trkpt><trkpt lat="40.0036605" lon="9.219925"><ele>843.0</ele><time>2026-04-23T06:43:30.644Z</time></trkpt><trkpt lat="40.0035635" lon="9.2199432"><ele>843.0</ele><time>2026-04-23T06:43:32.644Z</time></trkpt><trkpt lat="40.0034643" lon="9.2199541"><ele>843.0</ele><time>2026-04-23T06:43:34.648Z</time></trkpt><trkpt lat="40.0034014" lon="9.2200076"><ele>843.0</ele><time>2026-04-23T06:43:36.65Z</time></trkpt><trkpt lat="40.0034047" lon="9.2201003"><ele>843.0</ele><time>2026-04-23T06:43:38.642Z</time></trkpt><trkpt lat="40.0035035" lon="9.2201393"><ele>843.0</ele><time>2026-04-23T06:43:41.639Z</time></trkpt><trkpt lat="40.0036185" lon="9.2201368"><ele>843.0</ele><time>2026-04-23T06:43:43.647Z</time></trkpt><trkpt lat="40.0037096" lon="9.2201809"><ele>843.0</ele><time>2026-04-23T06:43:44.639Z</time></trkpt><trkpt lat="40.0037777" lon="9.2202151"><ele>843.0</ele><time>2026-04-23T06:43:45.638Z</time></trkpt><trkpt lat="40.0038347" lon="9.2202558"><ele>843.0</ele><time>2026-04-23T06:43:46.646Z</time></trkpt><trkpt lat="40.003895" lon="9.2203373"><ele>843.0</ele><time>2026-04-23T06:43:47.647Z</time></trkpt><trkpt lat="40.0039681" lon="9.2204365"><ele>843.0</ele><time>2026-04-23T06:43:49.658Z</time></trkpt><trkpt lat="40.0040298" lon="9.2204987"><ele>843.0</ele><time>2026-04-23T06:43:51.648Z</time></trkpt><trkpt lat="40.0040823" lon="9.2205683"><ele>843.0</ele><time>2026-04-23T06:43:53.654Z</time></trkpt><trkpt lat="40.0041354" lon="9.220635"><ele>843.0</ele><time>2026-04-23T06:43:56.647Z</time></trkpt><trkpt lat="40.0040557" lon="9.2207322"><ele>843.0</ele><time>2026-04-23T06:43:59.65Z</time></trkpt><trkpt lat="40.0039645" lon="9.2207668"><ele>843.0</ele><time>2026-04-23T06:44:01.658Z</time></trkpt><trkpt lat="40.0038621" lon="9.2207825"><ele>843.0</ele><time>2026-04-23T06:44:03.648Z</time></trkpt><trkpt lat="40.0037998" lon="9.2208052"><ele>843.0</ele><time>2026-04-23T06:44:04.652Z</time></trkpt><trkpt lat="40.0037205" lon="9.2208309"><ele>837.8</ele><time>2026-04-23T06:44:05.649Z</time></trkpt><trkpt lat="40.0036452" lon="9.220849"><ele>832.5999999999999</ele><time>2026-04-23T06:44:06.648Z</time></trkpt><trkpt lat="40.0035536" lon="9.220838"><ele>827.4000000000001</ele><time>2026-04-23T06:44:08.648Z</time></trkpt><trkpt lat="40.0034507" lon="9.2207975"><ele>822.2</ele><time>2026-04-23T06:44:10.643Z</time></trkpt><trkpt lat="40.0033535" lon="9.2208297"><ele>817.0</ele><time>2026-04-23T06:44:12.646Z</time></trkpt><trkpt lat="40.0032486" lon="9.2209115"><ele>814.0</ele><time>2026-04-23T06:44:14.641Z</time></trkpt><trkpt lat="40.0031846" lon="9.2209645"><ele>811.0</ele><time>2026-04-23T06:44:15.648Z</time></trkpt><trkpt lat="40.0030633" lon="9.2210269"><ele>808.0</ele><time>2026-04-23T06:44:17.648Z</time></trkpt><trkpt lat="40.0029563" lon="9.2209837"><ele>805.0</ele><time>2026-04-23T06:44:19.647Z</time></trkpt><trkpt lat="40.0028925" lon="9.2209261"><ele>802.0</ele><time>2026-04-23T06:44:21.653Z</time></trkpt><trkpt lat="40.0028273" lon="9.2209862"><ele>802.0</ele><time>2026-04-23T06:44:25.653Z</time></trkpt><trkpt lat="40.0028707" lon="9.2210973"><ele>802.0</ele><time>2026-04-23T06:44:29.645Z</time></trkpt><trkpt lat="40.0029269" lon="9.2211914"><ele>802.0</ele><time>2026-04-23T06:44:31.648Z</time></trkpt><trkpt lat="40.00299" lon="9.2212904"><ele>802.0</ele><time>2026-04-23T06:44:33.65Z</time></trkpt><trkpt lat="40.0030506" lon="9.2213916"><ele>802.0</ele><time>2026-04-23T06:44:35.643Z</time></trkpt><trkpt lat="40.0030849" lon="9.2214905"><ele>801.9999999999999</ele><time>2026-04-23T06:44:37.644Z</time></trkpt><trkpt lat="40.0029984" lon="9.221483"><ele>802.0</ele><time>2026-04-23T06:44:41.647Z</time></trkpt><trkpt lat="40.0029272" lon="9.2213944"><ele>802.0</ele><time>2026-04-23T06:44:43.648Z</time></trkpt><trkpt lat="40.0028545" lon="9.2213634"><ele>802.0</ele><time>2026-04-23T06:44:45.642Z</time></trkpt><trkpt lat="40.0027695" lon="9.221349"><ele>801.9999999999999</ele><time>2026-04-23T06:44:47.641Z</time></trkpt><trkpt lat="40.0026881" lon="9.221328"><ele>802.0</ele><time>2026-04-23T06:44:49.651Z</time></trkpt><trkpt lat="40.002606" lon="9.2213657"><ele>802.0</ele><time>2026-04-23T06:44:51.647Z</time></trkpt><trkpt lat="40.0025163" lon="9.2213753"><ele>802.0</ele><time>2026-04-23T06:44:53.65Z</time></trkpt><trkpt lat="40.0024186" lon="9.2214052"><ele>802.0</ele><time>2026-04-23T06:44:55.646Z</time></trkpt><trkpt lat="40.0023107" lon="9.2214426"><ele>802.0</ele><time>2026-04-23T06:44:57.648Z</time></trkpt><trkpt lat="40.0022065" lon="9.2214406"><ele>802.0</ele><time>2026-04-23T06:44:59.645Z</time></trkpt><trkpt lat="40.0021442" lon="9.2214251"><ele>798.7142857142858</ele><time>2026-04-23T06:45:00.647Z</time></trkpt><trkpt lat="40.0020785" lon="9.2213986"><ele>795.4285714285714</ele><time>2026-04-23T06:45:01.647Z</time></trkpt><trkpt lat="40.0020021" lon="9.2213683"><ele>792.1428571428571</ele><time>2026-04-23T06:45:02.641Z</time></trkpt><trkpt lat="40.0019287" lon="9.2213468"><ele>788.8571428571429</ele><time>2026-04-23T06:45:03.654Z</time></trkpt><trkpt lat="40.0018583" lon="9.2213308"><ele>785.5714285714286</ele><time>2026-04-23T06:45:04.642Z</time></trkpt><trkpt lat="40.0017924" lon="9.2213109"><ele>782.2857142857143</ele><time>2026-04-23T06:45:05.648Z</time></trkpt><trkpt lat="40.00173" lon="9.2212853"><ele>779.0</ele><time>2026-04-23T06:45:06.645Z</time></trkpt><trkpt lat="40.0016217" lon="9.2211941"><ele>773.5000000000001</ele><time>2026-04-23T06:45:08.646Z</time></trkpt><trkpt lat="40.001564" lon="9.2211545"><ele>768.0</ele><time>2026-04-23T06:45:09.641Z</time></trkpt><trkpt lat="40.0015115" lon="9.2211032"><ele>762.5</ele><time>2026-04-23T06:45:10.65Z</time></trkpt><trkpt lat="40.00143" lon="9.2210136"><ele>757.0</ele><time>2026-04-23T06:45:12.651Z</time></trkpt><trkpt lat="40.0013725" lon="9.2209722"><ele>751.5</ele><time>2026-04-23T06:45:13.648Z</time></trkpt><trkpt lat="40.0012598" lon="9.2208937"><ele>746.0</ele><time>2026-04-23T06:45:15.647Z</time></trkpt><trkpt lat="40.0011979" lon="9.2208659"><ele>746.0</ele><time>2026-04-23T06:45:16.651Z</time></trkpt><trkpt lat="40.0011427" lon="9.220822"><ele>746.0</ele><time>2026-04-23T06:45:17.643Z</time></trkpt><trkpt lat="40.001088" lon="9.2207752"><ele>746.0</ele><time>2026-04-23T06:45:18.654Z</time></trkpt><trkpt lat="40.0009894" lon="9.220679"><ele>746.0</ele><time>2026-04-23T06:45:20.648Z</time></trkpt><trkpt lat="40.0008844" lon="9.2206066"><ele>746.0</ele><time>2026-04-23T06:45:22.671Z</time></trkpt><trkpt lat="40.0007654" lon="9.2205455"><ele>747.1428571428571</ele><time>2026-04-23T06:45:24.645Z</time></trkpt><trkpt lat="40.0006974" lon="9.2205164"><ele>748.2857142857143</ele><time>2026-04-23T06:45:25.666Z</time></trkpt><trkpt lat="40.0006335" lon="9.2204922"><ele>749.4285714285713</ele><time>2026-04-23T06:45:26.642Z</time></trkpt><trkpt lat="40.0005635" lon="9.2204778"><ele>750.5714285714286</ele><time>2026-04-23T06:45:27.65Z</time></trkpt><trkpt lat="40.0004927" lon="9.2204741"><ele>751.7142857142857</ele><time>2026-04-23T06:45:28.645Z</time></trkpt><trkpt lat="40.000416" lon="9.2204731"><ele>752.8571428571428</ele><time>2026-04-23T06:45:29.646Z</time></trkpt><trkpt lat="40.0003382" lon="9.2204662"><ele>754.0</ele><time>2026-04-23T06:45:30.652Z</time></trkpt><trkpt lat="40.00026" lon="9.2204673"><ele>754.0</ele><time>2026-04-23T06:45:31.647Z</time></trkpt><trkpt lat="40.0001757" lon="9.2204681"><ele>754.0</ele><time>2026-04-23T06:45:32.654Z</time></trkpt><trkpt lat="40.0000875" lon="9.2204571"><ele>754.0</ele><time>2026-04-23T06:45:33.643Z</time></trkpt><trkpt lat="40.0000046" lon="9.2204508"><ele>754.0</ele><time>2026-04-23T06:45:34.647Z</time></trkpt><trkpt lat="39.9999379" lon="9.2204408"><ele>754.0</ele><time>2026-04-23T06:45:35.648Z</time></trkpt><trkpt lat="39.9998752" lon="9.220431"><ele>754.0</ele><time>2026-04-23T06:45:36.642Z</time></trkpt><trkpt lat="39.9998171" lon="9.2203945"><ele>754.0</ele><time>2026-04-23T06:45:37.647Z</time></trkpt><trkpt lat="39.9997422" lon="9.2202703"><ele>754.0</ele><time>2026-04-23T06:45:39.645Z</time></trkpt><trkpt lat="39.9996997" lon="9.220206"><ele>754.0</ele><time>2026-04-23T06:45:40.651Z</time></trkpt><trkpt lat="39.9996199" lon="9.2201393"><ele>754.0</ele><time>2026-04-23T06:45:42.643Z</time></trkpt><trkpt lat="39.9995127" lon="9.2201529"><ele>754.0</ele><time>2026-04-23T06:45:44.64Z</time></trkpt><trkpt lat="39.9993938" lon="9.2201728"><ele>754.0</ele><time>2026-04-23T06:45:46.64Z</time></trkpt><trkpt lat="39.9993206" lon="9.2201626"><ele>754.0</ele><time>2026-04-23T06:45:47.642Z</time></trkpt><trkpt lat="39.9992433" lon="9.2201409"><ele>754.0</ele><time>2026-04-23T06:45:48.653Z</time></trkpt><trkpt lat="39.9991634" lon="9.2201123"><ele>754.0</ele><time>2026-04-23T06:45:49.654Z</time></trkpt><trkpt lat="39.9990816" lon="9.2200956"><ele>754.0</ele><time>2026-04-23T06:45:50.646Z</time></trkpt><trkpt lat="39.9990056" lon="9.220083"><ele>754.0</ele><time>2026-04-23T06:45:51.651Z</time></trkpt><trkpt lat="39.9989292" lon="9.2200685"><ele>749.2</ele><time>2026-04-23T06:45:52.649Z</time></trkpt><trkpt lat="39.9988599" lon="9.2200539"><ele>744.4000000000001</ele><time>2026-04-23T06:45:53.646Z</time></trkpt><trkpt lat="39.9987378" lon="9.2200311"><ele>739.6</ele><time>2026-04-23T06:45:55.644Z</time></trkpt><trkpt lat="39.9986069" lon="9.2200285"><ele>734.8</ele><time>2026-04-23T06:45:57.647Z</time></trkpt><trkpt lat="39.9985392" lon="9.2200236"><ele>730.0</ele><time>2026-04-23T06:45:58.651Z</time></trkpt><trkpt lat="39.9984719" lon="9.2200051"><ele>730.0</ele><time>2026-04-23T06:45:59.648Z</time></trkpt><trkpt lat="39.9983534" lon="9.219971"><ele>730.0</ele><time>2026-04-23T06:46:01.652Z</time></trkpt><trkpt lat="39.9982395" lon="9.2199486"><ele>730.0</ele><time>2026-04-23T06:46:03.653Z</time></trkpt><trkpt lat="39.9981315" lon="9.219952"><ele>730.0</ele><time>2026-04-23T06:46:05.643Z</time></trkpt><trkpt lat="39.998018" lon="9.2200043"><ele>727.5714285714287</ele><time>2026-04-23T06:46:07.647Z</time></trkpt><trkpt lat="39.9979568" lon="9.220037"><ele>725.1428571428571</ele><time>2026-04-23T06:46:08.649Z</time></trkpt><trkpt lat="39.9978915" lon="9.2200611"><ele>722.7142857142858</ele><time>2026-04-23T06:46:09.654Z</time></trkpt><trkpt lat="39.9978273" lon="9.2200647"><ele>720.2857142857143</ele><time>2026-04-23T06:46:10.647Z</time></trkpt><trkpt lat="39.9977595" lon="9.2200587"><ele>717.8571428571429</ele><time>2026-04-23T06:46:11.647Z</time></trkpt><trkpt lat="39.9976909" lon="9.2200509"><ele>715.4285714285714</ele><time>2026-04-23T06:46:12.647Z</time></trkpt><trkpt lat="39.9976125" lon="9.220046"><ele>713.0</ele><time>2026-04-23T06:46:13.65Z</time></trkpt><trkpt lat="39.9975408" lon="9.2200505"><ele>710.6666666666666</ele><time>2026-04-23T06:46:14.645Z</time></trkpt><trkpt lat="39.9974695" lon="9.2200627"><ele>708.3333333333333</ele><time>2026-04-23T06:46:15.638Z</time></trkpt><trkpt lat="39.9974032" lon="9.2200774"><ele>706.0</ele><time>2026-04-23T06:46:16.637Z</time></trkpt><trkpt lat="39.9973369" lon="9.2200889"><ele>703.6666666666666</ele><time>2026-04-23T06:46:17.641Z</time></trkpt><trkpt lat="39.9972163" lon="9.220082"><ele>701.3333333333334</ele><time>2026-04-23T06:46:19.641Z</time></trkpt><trkpt lat="39.9971519" lon="9.2200538"><ele>699.0</ele><time>2026-04-23T06:46:20.639Z</time></trkpt><trkpt lat="39.997083" lon="9.22001"><ele>699.0</ele><time>2026-04-23T06:46:21.625Z</time></trkpt><trkpt lat="39.9970249" lon="9.2199418"><ele>699.0</ele><time>2026-04-23T06:46:22.62Z</time></trkpt><trkpt lat="39.9969739" lon="9.2198592"><ele>699.0</ele><time>2026-04-23T06:46:23.635Z</time></trkpt><trkpt lat="39.9969328" lon="9.2197513"><ele>699.0</ele><time>2026-04-23T06:46:24.638Z</time></trkpt><trkpt lat="39.9968894" lon="9.2196488"><ele>699.0</ele><time>2026-04-23T06:46:25.639Z</time></trkpt><trkpt lat="39.9968544" lon="9.2195482"><ele>699.0</ele><time>2026-04-23T06:46:26.641Z</time></trkpt><trkpt lat="39.996815" lon="9.219439"><ele>698.5</ele><time>2026-04-23T06:46:27.651Z</time></trkpt><trkpt lat="39.9967786" lon="9.2193514"><ele>698.0</ele><time>2026-04-23T06:46:28.646Z</time></trkpt><trkpt lat="39.996738" lon="9.2192646"><ele>697.5</ele><time>2026-04-23T06:46:29.646Z</time></trkpt><trkpt lat="39.9966884" lon="9.2191681"><ele>697.0</ele><time>2026-04-23T06:46:30.645Z</time></trkpt><trkpt lat="39.9966524" lon="9.2190688"><ele>696.5</ele><time>2026-04-23T06:46:31.649Z</time></trkpt><trkpt lat="39.9966096" lon="9.2189626"><ele>696.0</ele><time>2026-04-23T06:46:32.643Z</time></trkpt><trkpt lat="39.9965707" lon="9.21886"><ele>696.0</ele><time>2026-04-23T06:46:33.638Z</time></trkpt><trkpt lat="39.9965269" lon="9.2187704"><ele>696.0</ele><time>2026-04-23T06:46:34.635Z</time></trkpt><trkpt lat="39.9964601" lon="9.2186826"><ele>696.0</ele><time>2026-04-23T06:46:36.639Z</time></trkpt><trkpt lat="39.9963447" lon="9.2186651"><ele>696.0</ele><time>2026-04-23T06:46:38.654Z</time></trkpt><trkpt lat="39.9962172" lon="9.2187012"><ele>696.0</ele><time>2026-04-23T06:46:40.63Z</time></trkpt><trkpt lat="39.9961343" lon="9.218726"><ele>696.0</ele><time>2026-04-23T06:46:41.63Z</time></trkpt><trkpt lat="39.9960404" lon="9.2187435"><ele>696.0</ele><time>2026-04-23T06:46:42.631Z</time></trkpt><trkpt lat="39.9959515" lon="9.2187272"><ele>696.0</ele><time>2026-04-23T06:46:43.63Z</time></trkpt><trkpt lat="39.9958666" lon="9.218682"><ele>696.0</ele><time>2026-04-23T06:46:44.633Z</time></trkpt><trkpt lat="39.9957851" lon="9.2186205"><ele>696.0</ele><time>2026-04-23T06:46:45.627Z</time></trkpt><trkpt lat="39.9957003" lon="9.2185611"><ele>699.0</ele><time>2026-04-23T06:46:46.634Z</time></trkpt><trkpt lat="39.9956308" lon="9.2185091"><ele>702.0</ele><time>2026-04-23T06:46:47.626Z</time></trkpt><trkpt lat="39.9955558" lon="9.218462"><ele>705.0</ele><time>2026-04-23T06:46:48.635Z</time></trkpt><trkpt lat="39.9954695" lon="9.2184298"><ele>708.0</ele><time>2026-04-23T06:46:49.627Z</time></trkpt><trkpt lat="39.9953757" lon="9.2184111"><ele>711.0</ele><time>2026-04-23T06:46:50.632Z</time></trkpt><trkpt lat="39.9952709" lon="9.2184087"><ele>711.0</ele><time>2026-04-23T06:46:51.629Z</time></trkpt><trkpt lat="39.9951735" lon="9.2184077"><ele>711.0</ele><time>2026-04-23T06:46:52.633Z</time></trkpt><trkpt lat="39.9950573" lon="9.2184041"><ele>711.0</ele><time>2026-04-23T06:46:53.624Z</time></trkpt><trkpt lat="39.9949405" lon="9.2183878"><ele>711.0</ele><time>2026-04-23T06:46:54.624Z</time></trkpt><trkpt lat="39.994819" lon="9.2183652"><ele>709.5999999999999</ele><time>2026-04-23T06:46:55.63Z</time></trkpt><trkpt lat="39.9947055" lon="9.2183258"><ele>708.2</ele><time>2026-04-23T06:46:56.633Z</time></trkpt><trkpt lat="39.9946002" lon="9.2182722"><ele>706.8</ele><time>2026-04-23T06:46:57.632Z</time></trkpt><trkpt lat="39.994503" lon="9.2182092"><ele>705.4000000000001</ele><time>2026-04-23T06:46:58.625Z</time></trkpt><trkpt lat="39.9944126" lon="9.2181276"><ele>704.0</ele><time>2026-04-23T06:46:59.632Z</time></trkpt><trkpt lat="39.9943307" lon="9.2180504"><ele>704.0</ele><time>2026-04-23T06:47:00.634Z</time></trkpt><trkpt lat="39.9942561" lon="9.2179712"><ele>704.0</ele><time>2026-04-23T06:47:01.635Z</time></trkpt><trkpt lat="39.9941834" lon="9.2179371"><ele>704.0</ele><time>2026-04-23T06:47:02.63Z</time></trkpt><trkpt lat="39.9940996" lon="9.2179178"><ele>704.0</ele><time>2026-04-23T06:47:03.633Z</time></trkpt><trkpt lat="39.9940102" lon="9.2179215"><ele>704.0</ele><time>2026-04-23T06:47:04.637Z</time></trkpt><trkpt lat="39.993924" lon="9.2179352"><ele>704.0</ele><time>2026-04-23T06:47:05.626Z</time></trkpt><trkpt lat="39.9938373" lon="9.2179755"><ele>706.0</ele><time>2026-04-23T06:47:06.632Z</time></trkpt><trkpt lat="39.9937576" lon="9.2180244"><ele>708.0</ele><time>2026-04-23T06:47:07.624Z</time></trkpt><trkpt lat="39.9936777" lon="9.2180886"><ele>710.0</ele><time>2026-04-23T06:47:08.625Z</time></trkpt><trkpt lat="39.9935904" lon="9.2181256"><ele>712.0</ele><time>2026-04-23T06:47:09.627Z</time></trkpt><trkpt lat="39.9935021" lon="9.2181471"><ele>714.0</ele><time>2026-04-23T06:47:10.63Z</time></trkpt><trkpt lat="39.9934253" lon="9.2181437"><ele>716.0</ele><time>2026-04-23T06:47:11.625Z</time></trkpt><trkpt lat="39.993343" lon="9.2181039"><ele>718.6666666666666</ele><time>2026-04-23T06:47:12.628Z</time></trkpt><trkpt lat="39.9932716" lon="9.2180407"><ele>721.3333333333333</ele><time>2026-04-23T06:47:13.627Z</time></trkpt><trkpt lat="39.9932141" lon="9.2179712"><ele>724.0</ele><time>2026-04-23T06:47:14.631Z</time></trkpt><trkpt lat="39.9931489" lon="9.2178863"><ele>726.6666666666666</ele><time>2026-04-23T06:47:15.628Z</time></trkpt><trkpt lat="39.9930949" lon="9.2178126"><ele>729.3333333333334</ele><time>2026-04-23T06:47:16.634Z</time></trkpt><trkpt lat="39.993017" lon="9.2177546"><ele>732.0</ele><time>2026-04-23T06:47:17.634Z</time></trkpt><trkpt lat="39.992935" lon="9.2177017"><ele>732.0</ele><time>2026-04-23T06:47:18.637Z</time></trkpt><trkpt lat="39.9928592" lon="9.2176617"><ele>732.0</ele><time>2026-04-23T06:47:19.632Z</time></trkpt><trkpt lat="39.9927752" lon="9.2176436"><ele>732.0</ele><time>2026-04-23T06:47:20.632Z</time></trkpt><trkpt lat="39.9926929" lon="9.2176194"><ele>732.0</ele><time>2026-04-23T06:47:21.637Z</time></trkpt><trkpt lat="39.9925848" lon="9.2175908"><ele>732.0</ele><time>2026-04-23T06:47:22.634Z</time></trkpt><trkpt lat="39.9924926" lon="9.2175521"><ele>730.6</ele><time>2026-04-23T06:47:23.631Z</time></trkpt><trkpt lat="39.9923978" lon="9.2175046"><ele>729.2</ele><time>2026-04-23T06:47:24.633Z</time></trkpt><trkpt lat="39.9923129" lon="9.2174433"><ele>727.8</ele><time>2026-04-23T06:47:25.636Z</time></trkpt><trkpt lat="39.992224" lon="9.2173797"><ele>726.4</ele><time>2026-04-23T06:47:26.635Z</time></trkpt><trkpt lat="39.9921495" lon="9.2173241"><ele>725.0</ele><time>2026-04-23T06:47:27.64Z</time></trkpt><trkpt lat="39.992076" lon="9.2172655"><ele>725.0</ele><time>2026-04-23T06:47:28.633Z</time></trkpt><trkpt lat="39.9920105" lon="9.2172016"><ele>725.0</ele><time>2026-04-23T06:47:29.633Z</time></trkpt><trkpt lat="39.9919614" lon="9.2171269"><ele>725.0</ele><time>2026-04-23T06:47:30.632Z</time></trkpt><trkpt lat="39.9919205" lon="9.2170432"><ele>725.0</ele><time>2026-04-23T06:47:31.638Z</time></trkpt><trkpt lat="39.9918689" lon="9.2169725"><ele>725.0</ele><time>2026-04-23T06:47:32.633Z</time></trkpt><trkpt lat="39.9917817" lon="9.2168723"><ele>725.0</ele><time>2026-04-23T06:47:34.64Z</time></trkpt><trkpt lat="39.9917218" lon="9.216847"><ele>727.3333333333333</ele><time>2026-04-23T06:47:35.636Z</time></trkpt><trkpt lat="39.9916219" lon="9.2168876"><ele>729.6666666666666</ele><time>2026-04-23T06:47:37.634Z</time></trkpt><trkpt lat="39.9915724" lon="9.2169546"><ele>732.0</ele><time>2026-04-23T06:47:38.638Z</time></trkpt><trkpt lat="39.9915161" lon="9.2170522"><ele>734.3333333333334</ele><time>2026-04-23T06:47:39.638Z</time></trkpt><trkpt lat="39.9914773" lon="9.2171479"><ele>736.6666666666667</ele><time>2026-04-23T06:47:40.656Z</time></trkpt><trkpt lat="39.991445" lon="9.2172542"><ele>739.0</ele><time>2026-04-23T06:47:41.661Z</time></trkpt><trkpt lat="39.9914064" lon="9.2173593"><ele>741.8333333333334</ele><time>2026-04-23T06:47:42.662Z</time></trkpt><trkpt lat="39.9913614" lon="9.217462"><ele>744.6666666666667</ele><time>2026-04-23T06:47:43.658Z</time></trkpt><trkpt lat="39.9913082" lon="9.21755"><ele>747.5</ele><time>2026-04-23T06:47:44.657Z</time></trkpt><trkpt lat="39.9912487" lon="9.2176057"><ele>750.3333333333334</ele><time>2026-04-23T06:47:45.653Z</time></trkpt><trkpt lat="39.991178" lon="9.217647"><ele>753.1666666666666</ele><time>2026-04-23T06:47:46.629Z</time></trkpt><trkpt lat="39.9911205" lon="9.217698"><ele>756.0</ele><time>2026-04-23T06:47:47.629Z</time></trkpt><trkpt lat="39.9910438" lon="9.2177904"><ele>756.0</ele><time>2026-04-23T06:47:49.632Z</time></trkpt><trkpt lat="39.9910176" lon="9.2178802"><ele>756.0</ele><time>2026-04-23T06:47:51.656Z</time></trkpt><trkpt lat="39.991018" lon="9.217985"><ele>756.0</ele><time>2026-04-23T06:47:53.658Z</time></trkpt><trkpt lat="39.9909624" lon="9.2180557"><ele>756.0</ele><time>2026-04-23T06:48:14.636Z</time></trkpt><trkpt lat="39.9908694" lon="9.2180363"><ele>756.0</ele><time>2026-04-23T06:48:17.633Z</time></trkpt><trkpt lat="39.9907825" lon="9.2180154"><ele>756.0</ele><time>2026-04-23T06:48:18.635Z</time></trkpt><trkpt lat="39.9906956" lon="9.2179912"><ele>753.6666666666666</ele><time>2026-04-23T06:48:19.632Z</time></trkpt><trkpt lat="39.990618" lon="9.2179527"><ele>751.3333333333334</ele><time>2026-04-23T06:48:20.635Z</time></trkpt><trkpt lat="39.9905633" lon="9.2178935"><ele>749.0</ele><time>2026-04-23T06:48:21.631Z</time></trkpt><trkpt lat="39.9905338" lon="9.2178192"><ele>746.6666666666667</ele><time>2026-04-23T06:48:22.635Z</time></trkpt><trkpt lat="39.9905293" lon="9.2176645"><ele>744.3333333333334</ele><time>2026-04-23T06:48:24.632Z</time></trkpt><trkpt lat="39.9905367" lon="9.2175801"><ele>742.0</ele><time>2026-04-23T06:48:25.632Z</time></trkpt><trkpt lat="39.9905532" lon="9.2174353"><ele>741.0</ele><time>2026-04-23T06:48:27.64Z</time></trkpt><trkpt lat="39.9905576" lon="9.2172968"><ele>740.0</ele><time>2026-04-23T06:48:29.642Z</time></trkpt><trkpt lat="39.9905483" lon="9.2171381"><ele>739.0</ele><time>2026-04-23T06:48:31.638Z</time></trkpt><trkpt lat="39.9905178" lon="9.2169891"><ele>738.0</ele><time>2026-04-23T06:48:33.638Z</time></trkpt><trkpt lat="39.9905075" lon="9.2169063"><ele>737.0</ele><time>2026-04-23T06:48:34.633Z</time></trkpt><trkpt lat="39.9905103" lon="9.2168155"><ele>737.0000000000001</ele><time>2026-04-23T06:48:35.633Z</time></trkpt><trkpt lat="39.9905117" lon="9.2167257"><ele>737.0</ele><time>2026-04-23T06:48:36.645Z</time></trkpt><trkpt lat="39.9905118" lon="9.2166327"><ele>737.0</ele><time>2026-04-23T06:48:37.63Z</time></trkpt><trkpt lat="39.9905109" lon="9.2165322"><ele>737.0</ele><time>2026-04-23T06:48:38.637Z</time></trkpt><trkpt lat="39.9905172" lon="9.2164283"><ele>737.0</ele><time>2026-04-23T06:48:39.633Z</time></trkpt><trkpt lat="39.9905255" lon="9.2163316"><ele>737.0000000000001</ele><time>2026-04-23T06:48:40.633Z</time></trkpt><trkpt lat="39.9905378" lon="9.2162385"><ele>737.0</ele><time>2026-04-23T06:48:41.632Z</time></trkpt><trkpt lat="39.9905557" lon="9.2161531"><ele>737.8333333333333</ele><time>2026-04-23T06:48:42.63Z</time></trkpt><trkpt lat="39.9905898" lon="9.2160018"><ele>738.6666666666666</ele><time>2026-04-23T06:48:44.64Z</time></trkpt><trkpt lat="39.9905885" lon="9.2158817"><ele>739.5</ele><time>2026-04-23T06:48:46.649Z</time></trkpt><trkpt lat="39.990589" lon="9.2157831"><ele>740.3333333333334</ele><time>2026-04-23T06:48:47.635Z</time></trkpt><trkpt lat="39.990595" lon="9.215686"><ele>741.1666666666667</ele><time>2026-04-23T06:48:48.637Z</time></trkpt><trkpt lat="39.9906053" lon="9.2155992"><ele>742.0</ele><time>2026-04-23T06:48:49.637Z</time></trkpt><trkpt lat="39.9906159" lon="9.2154537"><ele>742.2</ele><time>2026-04-23T06:48:51.632Z</time></trkpt><trkpt lat="39.9906356" lon="9.2152886"><ele>742.4000000000001</ele><time>2026-04-23T06:48:53.635Z</time></trkpt><trkpt lat="39.9906173" lon="9.2151885"><ele>742.5999999999999</ele><time>2026-04-23T06:48:54.637Z</time></trkpt><trkpt lat="39.9906058" lon="9.2150572"><ele>742.8</ele><time>2026-04-23T06:48:55.636Z</time></trkpt><trkpt lat="39.9905931" lon="9.2149163"><ele>743.0</ele><time>2026-04-23T06:48:56.647Z</time></trkpt><trkpt lat="39.9905913" lon="9.2147944"><ele>742.1666666666666</ele><time>2026-04-23T06:48:57.637Z</time></trkpt><trkpt lat="39.990589" lon="9.2146791"><ele>741.3333333333333</ele><time>2026-04-23T06:48:58.63Z</time></trkpt><trkpt lat="39.9905923" lon="9.2145823"><ele>740.5</ele><time>2026-04-23T06:48:59.629Z</time></trkpt><trkpt lat="39.9905891" lon="9.2144913"><ele>739.6666666666666</ele><time>2026-04-23T06:49:00.64Z</time></trkpt><trkpt lat="39.9905682" lon="9.2143944"><ele>738.8333333333334</ele><time>2026-04-23T06:49:01.639Z</time></trkpt><trkpt lat="39.9905471" lon="9.2142864"><ele>738.0</ele><time>2026-04-23T06:49:02.634Z</time></trkpt><trkpt lat="39.9905097" lon="9.2141711"><ele>738.0</ele><time>2026-04-23T06:49:03.638Z</time></trkpt><trkpt lat="39.9904661" lon="9.2140565"><ele>738.0</ele><time>2026-04-23T06:49:04.637Z</time></trkpt><trkpt lat="39.990425" lon="9.2139392"><ele>738.0</ele><time>2026-04-23T06:49:05.638Z</time></trkpt><trkpt lat="39.990401" lon="9.2138192"><ele>738.0</ele><time>2026-04-23T06:49:06.641Z</time></trkpt><trkpt lat="39.9903904" lon="9.2137081"><ele>738.0</ele><time>2026-04-23T06:49:07.633Z</time></trkpt><trkpt lat="39.9903801" lon="9.2135974"><ele>737.7142857142857</ele><time>2026-04-23T06:49:08.628Z</time></trkpt><trkpt lat="39.9903772" lon="9.213496"><ele>737.4285714285713</ele><time>2026-04-23T06:49:09.632Z</time></trkpt><trkpt lat="39.9903819" lon="9.2134117"><ele>737.1428571428571</ele><time>2026-04-23T06:49:10.634Z</time></trkpt><trkpt lat="39.9903821" lon="9.2133169"><ele>736.8571428571429</ele><time>2026-04-23T06:49:11.632Z</time></trkpt><trkpt lat="39.9903726" lon="9.2132244"><ele>736.5714285714286</ele><time>2026-04-23T06:49:12.641Z</time></trkpt><trkpt lat="39.9903391" lon="9.2131337"><ele>736.2857142857143</ele><time>2026-04-23T06:49:13.632Z</time></trkpt><trkpt lat="39.9903042" lon="9.2130407"><ele>736.0</ele><time>2026-04-23T06:49:14.638Z</time></trkpt><trkpt lat="39.9902679" lon="9.2129473"><ele>734.8333333333334</ele><time>2026-04-23T06:49:15.634Z</time></trkpt><trkpt lat="39.9902213" lon="9.2128564"><ele>733.6666666666667</ele><time>2026-04-23T06:49:16.629Z</time></trkpt><trkpt lat="39.9901848" lon="9.2127572"><ele>732.5</ele><time>2026-04-23T06:49:17.643Z</time></trkpt><trkpt lat="39.9901495" lon="9.2126499"><ele>731.3333333333334</ele><time>2026-04-23T06:49:18.634Z</time></trkpt><trkpt lat="39.9901133" lon="9.2125435"><ele>730.1666666666666</ele><time>2026-04-23T06:49:19.635Z</time></trkpt><trkpt lat="39.9900712" lon="9.212456"><ele>729.0</ele><time>2026-04-23T06:49:20.634Z</time></trkpt><trkpt lat="39.9900245" lon="9.2123459"><ele>736.0</ele><time>2026-04-23T06:49:21.633Z</time></trkpt><trkpt lat="39.9899766" lon="9.2122392"><ele>743.0</ele><time>2026-04-23T06:49:22.642Z</time></trkpt><trkpt lat="39.9899346" lon="9.2121462"><ele>750.0</ele><time>2026-04-23T06:49:23.638Z</time></trkpt><trkpt lat="39.9898976" lon="9.2120534"><ele>757.0</ele><time>2026-04-23T06:49:24.641Z</time></trkpt><trkpt lat="39.9898544" lon="9.2119557"><ele>764.0</ele><time>2026-04-23T06:49:25.635Z</time></trkpt><trkpt lat="39.9898228" lon="9.2118695"><ele>771.0</ele><time>2026-04-23T06:49:26.65Z</time></trkpt><trkpt lat="39.9898017" lon="9.2117721"><ele>771.0</ele><time>2026-04-23T06:49:27.663Z</time></trkpt><trkpt lat="39.9897856" lon="9.2116656"><ele>771.0</ele><time>2026-04-23T06:49:28.655Z</time></trkpt><trkpt lat="39.9897718" lon="9.2115362"><ele>771.0</ele><time>2026-04-23T06:49:29.648Z</time></trkpt><trkpt lat="39.9897669" lon="9.2113936"><ele>771.0</ele><time>2026-04-23T06:49:30.649Z</time></trkpt><trkpt lat="39.9897615" lon="9.2112625"><ele>771.0</ele><time>2026-04-23T06:49:31.654Z</time></trkpt><trkpt lat="39.9897645" lon="9.211137"><ele>772.1999999999999</ele><time>2026-04-23T06:49:32.645Z</time></trkpt><trkpt lat="39.9897715" lon="9.2110136"><ele>773.4</ele><time>2026-04-23T06:49:33.646Z</time></trkpt><trkpt lat="39.9897866" lon="9.2108906"><ele>774.6</ele><time>2026-04-23T06:49:34.644Z</time></trkpt><trkpt lat="39.9898008" lon="9.2107724"><ele>775.8</ele><time>2026-04-23T06:49:35.651Z</time></trkpt><trkpt lat="39.9898204" lon="9.2106603"><ele>777.0</ele><time>2026-04-23T06:49:36.648Z</time></trkpt><trkpt lat="39.989831" lon="9.2105499"><ele>777.3333333333334</ele><time>2026-04-23T06:49:37.658Z</time></trkpt><trkpt lat="39.9898484" lon="9.2104314"><ele>777.6666666666667</ele><time>2026-04-23T06:49:38.651Z</time></trkpt><trkpt lat="39.9898693" lon="9.2103234"><ele>778.0</ele><time>2026-04-23T06:49:39.644Z</time></trkpt><trkpt lat="39.9898797" lon="9.2102091"><ele>778.3333333333334</ele><time>2026-04-23T06:49:40.648Z</time></trkpt><trkpt lat="39.9898921" lon="9.2100988"><ele>778.6666666666667</ele><time>2026-04-23T06:49:41.645Z</time></trkpt><trkpt lat="39.9899016" lon="9.2099881"><ele>779.0</ele><time>2026-04-23T06:49:42.647Z</time></trkpt><trkpt lat="39.9899122" lon="9.2098325"><ele>777.8000000000001</ele><time>2026-04-23T06:49:43.648Z</time></trkpt><trkpt lat="39.9899108" lon="9.2096836"><ele>776.6</ele><time>2026-04-23T06:49:44.647Z</time></trkpt><trkpt lat="39.9898963" lon="9.2095554"><ele>775.4</ele><time>2026-04-23T06:49:45.655Z</time></trkpt><trkpt lat="39.9898645" lon="9.2094482"><ele>774.2</ele><time>2026-04-23T06:49:46.646Z</time></trkpt><trkpt lat="39.9898369" lon="9.2093572"><ele>773.0</ele><time>2026-04-23T06:49:47.658Z</time></trkpt><trkpt lat="39.9898013" lon="9.209265"><ele>773.0000000000001</ele><time>2026-04-23T06:49:48.652Z</time></trkpt><trkpt lat="39.9897559" lon="9.2091645"><ele>773.0</ele><time>2026-04-23T06:49:49.645Z</time></trkpt><trkpt lat="39.9897133" lon="9.2090838"><ele>773.0</ele><time>2026-04-23T06:49:50.646Z</time></trkpt><trkpt lat="39.9896446" lon="9.2090116"><ele>773.0</ele><time>2026-04-23T06:49:51.647Z</time></trkpt><trkpt lat="39.9895598" lon="9.2089542"><ele>773.0000000000001</ele><time>2026-04-23T06:49:52.644Z</time></trkpt><trkpt lat="39.9894786" lon="9.208889"><ele>773.0</ele><time>2026-04-23T06:49:53.642Z</time></trkpt><trkpt lat="39.9894022" lon="9.2088022"><ele>769.8</ele><time>2026-04-23T06:49:54.645Z</time></trkpt><trkpt lat="39.989327" lon="9.2087173"><ele>766.5999999999999</ele><time>2026-04-23T06:49:55.646Z</time></trkpt><trkpt lat="39.9892654" lon="9.2086305"><ele>763.4000000000001</ele><time>2026-04-23T06:49:56.643Z</time></trkpt><trkpt lat="39.9892048" lon="9.2085465"><ele>760.2</ele><time>2026-04-23T06:49:57.658Z</time></trkpt><trkpt lat="39.9891534" lon="9.2084798"><ele>757.0</ele><time>2026-04-23T06:49:58.642Z</time></trkpt><trkpt lat="39.9890753" lon="9.2083781"><ele>763.4000000000001</ele><time>2026-04-23T06:50:00.646Z</time></trkpt><trkpt lat="39.9889961" lon="9.2082869"><ele>769.8000000000001</ele><time>2026-04-23T06:50:02.647Z</time></trkpt><trkpt lat="39.9889392" lon="9.208197"><ele>776.2</ele><time>2026-04-23T06:50:04.641Z</time></trkpt><trkpt lat="39.9888959" lon="9.2081035"><ele>782.6</ele><time>2026-04-23T06:50:06.64Z</time></trkpt><trkpt lat="39.9888888" lon="9.2079519"><ele>789.0</ele><time>2026-04-23T06:50:08.645Z</time></trkpt><trkpt lat="39.9889038" lon="9.2078658"><ele>789.1666666666666</ele><time>2026-04-23T06:50:09.647Z</time></trkpt><trkpt lat="39.988922" lon="9.2077663"><ele>789.3333333333333</ele><time>2026-04-23T06:50:10.649Z</time></trkpt><trkpt lat="39.9889213" lon="9.2076412"><ele>789.5</ele><time>2026-04-23T06:50:11.651Z</time></trkpt><trkpt lat="39.9889297" lon="9.2075175"><ele>789.6666666666666</ele><time>2026-04-23T06:50:12.65Z</time></trkpt><trkpt lat="39.9889679" lon="9.2074129"><ele>789.8333333333333</ele><time>2026-04-23T06:50:13.648Z</time></trkpt><trkpt lat="39.9890089" lon="9.207307"><ele>790.0</ele><time>2026-04-23T06:50:14.646Z</time></trkpt><trkpt lat="39.9890399" lon="9.2072011"><ele>790.1666666666666</ele><time>2026-04-23T06:50:15.648Z</time></trkpt><trkpt lat="39.989072" lon="9.2071023"><ele>790.3333333333333</ele><time>2026-04-23T06:50:16.638Z</time></trkpt><trkpt lat="39.9891039" lon="9.2069988"><ele>790.5</ele><time>2026-04-23T06:50:17.654Z</time></trkpt><trkpt lat="39.9891194" lon="9.2068941"><ele>790.6666666666667</ele><time>2026-04-23T06:50:18.646Z</time></trkpt><trkpt lat="39.9891553" lon="9.206792"><ele>790.8333333333334</ele><time>2026-04-23T06:50:19.647Z</time></trkpt><trkpt lat="39.9891972" lon="9.2066958"><ele>791.0</ele><time>2026-04-23T06:50:20.65Z</time></trkpt><trkpt lat="39.9892219" lon="9.206579"><ele>789.5999999999999</ele><time>2026-04-23T06:50:21.651Z</time></trkpt><trkpt lat="39.9892376" lon="9.2064517"><ele>788.2</ele><time>2026-04-23T06:50:22.647Z</time></trkpt><trkpt lat="39.9892173" lon="9.2063304"><ele>786.8</ele><time>2026-04-23T06:50:23.649Z</time></trkpt><trkpt lat="39.9891896" lon="9.2062134"><ele>785.4000000000001</ele><time>2026-04-23T06:50:24.643Z</time></trkpt><trkpt lat="39.9891558" lon="9.2061011"><ele>784.0</ele><time>2026-04-23T06:50:25.651Z</time></trkpt><trkpt lat="39.9891234" lon="9.2059895"><ele>784.0</ele><time>2026-04-23T06:50:26.644Z</time></trkpt><trkpt lat="39.9890793" lon="9.2058872"><ele>784.0</ele><time>2026-04-23T06:50:27.664Z</time></trkpt><trkpt lat="39.9890377" lon="9.2057896"><ele>784.0</ele><time>2026-04-23T06:50:28.644Z</time></trkpt><trkpt lat="39.9889609" lon="9.2055902"><ele>784.0</ele><time>2026-04-23T06:50:30.644Z</time></trkpt><trkpt lat="39.9889341" lon="9.2054935"><ele>784.0</ele><time>2026-04-23T06:50:31.645Z</time></trkpt><trkpt lat="39.9889148" lon="9.2054085"><ele>782.8000000000001</ele><time>2026-04-23T06:50:32.644Z</time></trkpt><trkpt lat="39.9888653" lon="9.2052905"><ele>781.6</ele><time>2026-04-23T06:50:34.67Z</time></trkpt><trkpt lat="39.9888014" lon="9.2052115"><ele>780.4</ele><time>2026-04-23T06:50:36.648Z</time></trkpt><trkpt lat="39.9887324" lon="9.2051183"><ele>779.2</ele><time>2026-04-23T06:50:38.642Z</time></trkpt><trkpt lat="39.9886845" lon="9.2050102"><ele>778.0</ele><time>2026-04-23T06:50:40.641Z</time></trkpt><trkpt lat="39.9886622" lon="9.2049107"><ele>780.9999999999999</ele><time>2026-04-23T06:50:42.643Z</time></trkpt><trkpt lat="39.98869" lon="9.2047739"><ele>784.0</ele><time>2026-04-23T06:50:44.64Z</time></trkpt><trkpt lat="39.9887326" lon="9.2046861"><ele>787.0</ele><time>2026-04-23T06:50:45.652Z</time></trkpt><trkpt lat="39.9887909" lon="9.204604"><ele>790.0</ele><time>2026-04-23T06:50:46.645Z</time></trkpt><trkpt lat="39.9888461" lon="9.2045342"><ele>792.9999999999999</ele><time>2026-04-23T06:50:47.643Z</time></trkpt><trkpt lat="39.9889084" lon="9.2044798"><ele>796.0</ele><time>2026-04-23T06:50:48.642Z</time></trkpt><trkpt lat="39.9889882" lon="9.2044183"><ele>795.9999999999999</ele><time>2026-04-23T06:50:49.641Z</time></trkpt><trkpt lat="39.9890528" lon="9.204354"><ele>796.0</ele><time>2026-04-23T06:50:50.65Z</time></trkpt><trkpt lat="39.9891108" lon="9.2042911"><ele>796.0</ele><time>2026-04-23T06:50:51.644Z</time></trkpt><trkpt lat="39.9891737" lon="9.2042128"><ele>796.0</ele><time>2026-04-23T06:50:52.65Z</time></trkpt><trkpt lat="39.9892383" lon="9.2041471"><ele>795.9999999999999</ele><time>2026-04-23T06:50:53.646Z</time></trkpt><trkpt lat="39.9893149" lon="9.2040848"><ele>796.0</ele><time>2026-04-23T06:50:54.651Z</time></trkpt><trkpt lat="39.9893767" lon="9.2040446"><ele>793.4999999999999</ele><time>2026-04-23T06:50:55.64Z</time></trkpt><trkpt lat="39.9894474" lon="9.2040044"><ele>791.0</ele><time>2026-04-23T06:50:56.644Z</time></trkpt><trkpt lat="39.9895179" lon="9.2039576"><ele>788.5</ele><time>2026-04-23T06:50:57.643Z</time></trkpt><trkpt lat="39.9895737" lon="9.2038955"><ele>786.0</ele><time>2026-04-23T06:50:58.642Z</time></trkpt><trkpt lat="39.9896131" lon="9.2038158"><ele>783.4999999999999</ele><time>2026-04-23T06:50:59.638Z</time></trkpt><trkpt lat="39.9896581" lon="9.2037268"><ele>781.0</ele><time>2026-04-23T06:51:00.637Z</time></trkpt><trkpt lat="39.9896984" lon="9.2036319"><ele>780.9999999999999</ele><time>2026-04-23T06:51:01.646Z</time></trkpt><trkpt lat="39.9897314" lon="9.2035323"><ele>781.0</ele><time>2026-04-23T06:51:02.643Z</time></trkpt><trkpt lat="39.9897548" lon="9.2034447"><ele>781.0</ele><time>2026-04-23T06:51:03.64Z</time></trkpt><trkpt lat="39.9897719" lon="9.2033399"><ele>781.0</ele><time>2026-04-23T06:51:04.646Z</time></trkpt><trkpt lat="39.9897798" lon="9.2032413"><ele>780.9999999999999</ele><time>2026-04-23T06:51:05.645Z</time></trkpt><trkpt lat="39.989787" lon="9.2031531"><ele>781.0</ele><time>2026-04-23T06:51:06.651Z</time></trkpt><trkpt lat="39.9897871" lon="9.2030431"><ele>779.4999999999999</ele><time>2026-04-23T06:51:07.655Z</time></trkpt><trkpt lat="39.9897926" lon="9.2029181"><ele>778.0</ele><time>2026-04-23T06:51:08.646Z</time></trkpt><trkpt lat="39.9897783" lon="9.2027994"><ele>776.5</ele><time>2026-04-23T06:51:09.649Z</time></trkpt><trkpt lat="39.9897509" lon="9.2027169"><ele>775.0</ele><time>2026-04-23T06:51:10.645Z</time></trkpt><trkpt lat="39.9897173" lon="9.2026348"><ele>773.4999999999999</ele><time>2026-04-23T06:51:11.673Z</time></trkpt><trkpt lat="39.9896872" lon="9.202561"><ele>772.0</ele><time>2026-04-23T06:51:12.644Z</time></trkpt><trkpt lat="39.9896368" lon="9.2024972"><ele>771.9999999999999</ele><time>2026-04-23T06:51:13.647Z</time></trkpt><trkpt lat="39.9895775" lon="9.2024306"><ele>772.0</ele><time>2026-04-23T06:51:14.638Z</time></trkpt><trkpt lat="39.9895105" lon="9.2023579"><ele>772.0</ele><time>2026-04-23T06:51:15.646Z</time></trkpt><trkpt lat="39.9894578" lon="9.202286"><ele>772.0</ele><time>2026-04-23T06:51:16.644Z</time></trkpt><trkpt lat="39.9893895" lon="9.2022227"><ele>771.9999999999999</ele><time>2026-04-23T06:51:17.642Z</time></trkpt><trkpt lat="39.9893329" lon="9.2021647"><ele>772.0</ele><time>2026-04-23T06:51:18.646Z</time></trkpt><trkpt lat="39.9892754" lon="9.2021087"><ele>769.3333333333333</ele><time>2026-04-23T06:51:19.645Z</time></trkpt><trkpt lat="39.98923" lon="9.2020499"><ele>766.6666666666666</ele><time>2026-04-23T06:51:20.643Z</time></trkpt><trkpt lat="39.9891832" lon="9.2019499"><ele>764.0</ele><time>2026-04-23T06:51:22.642Z</time></trkpt><trkpt lat="39.9891818" lon="9.2018523"><ele>761.3333333333333</ele><time>2026-04-23T06:51:24.648Z</time></trkpt><trkpt lat="39.989234" lon="9.2017275"><ele>758.6666666666666</ele><time>2026-04-23T06:51:26.644Z</time></trkpt><trkpt lat="39.9892601" lon="9.2016352"><ele>756.0</ele><time>2026-04-23T06:51:27.649Z</time></trkpt><trkpt lat="39.9892772" lon="9.2015378"><ele>754.8333333333334</ele><time>2026-04-23T06:51:28.641Z</time></trkpt><trkpt lat="39.9892897" lon="9.2014415"><ele>753.6666666666666</ele><time>2026-04-23T06:51:29.646Z</time></trkpt><trkpt lat="39.989293" lon="9.201343"><ele>752.5</ele><time>2026-04-23T06:51:30.642Z</time></trkpt><trkpt lat="39.98929" lon="9.2012364"><ele>751.3333333333333</ele><time>2026-04-23T06:51:31.644Z</time></trkpt><trkpt lat="39.9892925" lon="9.201133"><ele>750.1666666666666</ele><time>2026-04-23T06:51:32.649Z</time></trkpt><trkpt lat="39.9892945" lon="9.2010355"><ele>749.0</ele><time>2026-04-23T06:51:33.652Z</time></trkpt><trkpt lat="39.9893066" lon="9.2009498"><ele>749.0</ele><time>2026-04-23T06:51:34.653Z</time></trkpt><trkpt lat="39.9893219" lon="9.2008086"><ele>749.0</ele><time>2026-04-23T06:51:36.656Z</time></trkpt><trkpt lat="39.9892817" lon="9.2006633"><ele>749.0</ele><time>2026-04-23T06:51:38.66Z</time></trkpt><trkpt lat="39.9892353" lon="9.200578"><ele>749.0</ele><time>2026-04-23T06:51:39.65Z</time></trkpt><trkpt lat="39.9891803" lon="9.2004812"><ele>749.0</ele><time>2026-04-23T06:51:40.647Z</time></trkpt><trkpt lat="39.989123" lon="9.2003854"><ele>751.6666666666666</ele><time>2026-04-23T06:51:41.653Z</time></trkpt><trkpt lat="39.9890704" lon="9.2002867"><ele>754.3333333333333</ele><time>2026-04-23T06:51:42.653Z</time></trkpt><trkpt lat="39.9890276" lon="9.2001923"><ele>757.0</ele><time>2026-04-23T06:51:43.651Z</time></trkpt><trkpt lat="39.9889859" lon="9.2000911"><ele>759.6666666666666</ele><time>2026-04-23T06:51:44.645Z</time></trkpt><trkpt lat="39.9889528" lon="9.1999949"><ele>762.3333333333334</ele><time>2026-04-23T06:51:45.653Z</time></trkpt><trkpt lat="39.9889235" lon="9.1999048"><ele>765.0</ele><time>2026-04-23T06:51:46.65Z</time></trkpt><trkpt lat="39.9889021" lon="9.1998216"><ele>765.0</ele><time>2026-04-23T06:51:47.657Z</time></trkpt><trkpt lat="39.9888843" lon="9.1996669"><ele>765.0</ele><time>2026-04-23T06:51:49.651Z</time></trkpt><trkpt lat="39.9888701" lon="9.1995128"><ele>765.0</ele><time>2026-04-23T06:51:51.649Z</time></trkpt><trkpt lat="39.9888518" lon="9.1994037"><ele>765.0</ele><time>2026-04-23T06:51:53.648Z</time></trkpt><trkpt lat="39.9887967" lon="9.1993076"><ele>765.0</ele><time>2026-04-23T06:51:55.647Z</time></trkpt><trkpt lat="39.9886907" lon="9.1992009"><ele>765.0</ele><time>2026-04-23T06:51:57.646Z</time></trkpt><trkpt lat="39.9886456" lon="9.199139"><ele>765.0</ele><time>2026-04-23T06:51:58.648Z</time></trkpt><trkpt lat="39.988572" lon="9.199015"><ele>765.0</ele><time>2026-04-23T06:52:00.647Z</time></trkpt><trkpt lat="39.9885101" lon="9.19888"><ele>765.0</ele><time>2026-04-23T06:52:02.641Z</time></trkpt><trkpt lat="39.9884704" lon="9.1987653"><ele>765.0</ele><time>2026-04-23T06:52:04.652Z</time></trkpt><trkpt lat="39.9884387" lon="9.1986567"><ele>765.4</ele><time>2026-04-23T06:52:06.648Z</time></trkpt><trkpt lat="39.9884433" lon="9.1985318"><ele>765.8</ele><time>2026-04-23T06:52:08.649Z</time></trkpt><trkpt lat="39.9884884" lon="9.1984055"><ele>766.2</ele><time>2026-04-23T06:52:10.652Z</time></trkpt><trkpt lat="39.9885657" lon="9.1982705"><ele>766.6</ele><time>2026-04-23T06:52:12.65Z</time></trkpt><trkpt lat="39.9886075" lon="9.1981934"><ele>767.0</ele><time>2026-04-23T06:52:13.642Z</time></trkpt><trkpt lat="39.9886452" lon="9.1981082"><ele>768.8333333333333</ele><time>2026-04-23T06:52:14.647Z</time></trkpt><trkpt lat="39.9886811" lon="9.1980191"><ele>770.6666666666666</ele><time>2026-04-23T06:52:15.644Z</time></trkpt><trkpt lat="39.9887137" lon="9.1979172"><ele>772.5</ele><time>2026-04-23T06:52:16.642Z</time></trkpt><trkpt lat="39.9887473" lon="9.1978171"><ele>774.3333333333333</ele><time>2026-04-23T06:52:17.655Z</time></trkpt><trkpt lat="39.9887752" lon="9.1977178"><ele>776.1666666666666</ele><time>2026-04-23T06:52:18.652Z</time></trkpt><trkpt lat="39.9888069" lon="9.1976176"><ele>778.0</ele><time>2026-04-23T06:52:19.655Z</time></trkpt><trkpt lat="39.9888358" lon="9.1975218"><ele>777.9999999999999</ele><time>2026-04-23T06:52:20.647Z</time></trkpt><trkpt lat="39.9888676" lon="9.1974378"><ele>778.0</ele><time>2026-04-23T06:52:21.653Z</time></trkpt><trkpt lat="39.9888994" lon="9.197354"><ele>778.0</ele><time>2026-04-23T06:52:22.645Z</time></trkpt><trkpt lat="39.988929" lon="9.1972736"><ele>778.0</ele><time>2026-04-23T06:52:23.646Z</time></trkpt><trkpt lat="39.9889601" lon="9.1971931"><ele>777.9999999999999</ele><time>2026-04-23T06:52:24.652Z</time></trkpt><trkpt lat="39.9890074" lon="9.1970518"><ele>778.0</ele><time>2026-04-23T06:52:26.646Z</time></trkpt><trkpt lat="39.9890522" lon="9.1969366"><ele>776.5999999999999</ele><time>2026-04-23T06:52:28.642Z</time></trkpt><trkpt lat="39.9890583" lon="9.1968083"><ele>775.1999999999999</ele><time>2026-04-23T06:52:30.646Z</time></trkpt><trkpt lat="39.9889973" lon="9.1966627"><ele>773.8</ele><time>2026-04-23T06:52:32.652Z</time></trkpt><trkpt lat="39.988962" lon="9.1965911"><ele>772.4</ele><time>2026-04-23T06:52:33.653Z</time></trkpt><trkpt lat="39.9888831" lon="9.1964867"><ele>771.0</ele><time>2026-04-23T06:52:35.651Z</time></trkpt><trkpt lat="39.9888266" lon="9.1964457"><ele>771.0</ele><time>2026-04-23T06:52:36.643Z</time></trkpt><trkpt lat="39.9887621" lon="9.1964126"><ele>771.0</ele><time>2026-04-23T06:52:37.674Z</time></trkpt><trkpt lat="39.9886949" lon="9.1963826"><ele>771.0</ele><time>2026-04-23T06:52:38.664Z</time></trkpt><trkpt lat="39.9886296" lon="9.1963516"><ele>771.0</ele><time>2026-04-23T06:52:39.663Z</time></trkpt><trkpt lat="39.9885616" lon="9.1963262"><ele>771.0</ele><time>2026-04-23T06:52:40.643Z</time></trkpt><trkpt lat="39.9884891" lon="9.1963039"><ele>771.0</ele><time>2026-04-23T06:52:41.647Z</time></trkpt><trkpt lat="39.9884156" lon="9.1962813"><ele>771.0</ele><time>2026-04-23T06:52:42.648Z</time></trkpt><trkpt lat="39.9883456" lon="9.196251"><ele>772.3333333333334</ele><time>2026-04-23T06:52:43.644Z</time></trkpt><trkpt lat="39.9882777" lon="9.1962215"><ele>773.6666666666667</ele><time>2026-04-23T06:52:44.653Z</time></trkpt><trkpt lat="39.988214" lon="9.1961903"><ele>775.0</ele><time>2026-04-23T06:52:45.666Z</time></trkpt><trkpt lat="39.9881174" lon="9.1961576"><ele>776.3333333333334</ele><time>2026-04-23T06:52:47.643Z</time></trkpt><trkpt lat="39.9880284" lon="9.1961633"><ele>777.6666666666667</ele><time>2026-04-23T06:52:49.644Z</time></trkpt><trkpt lat="39.9879252" lon="9.1961921"><ele>779.0</ele><time>2026-04-23T06:52:51.641Z</time></trkpt><trkpt lat="39.9878629" lon="9.1962154"><ele>779.0000000000001</ele><time>2026-04-23T06:52:52.645Z</time></trkpt><trkpt lat="39.9878006" lon="9.1962424"><ele>779.0</ele><time>2026-04-23T06:52:53.638Z</time></trkpt><trkpt lat="39.9877344" lon="9.1962725"><ele>779.0</ele><time>2026-04-23T06:52:54.666Z</time></trkpt><trkpt lat="39.987669" lon="9.196295"><ele>779.0</ele><time>2026-04-23T06:52:55.638Z</time></trkpt><trkpt lat="39.9876044" lon="9.1963138"><ele>779.0</ele><time>2026-04-23T06:52:56.667Z</time></trkpt><trkpt lat="39.9875423" lon="9.1963367"><ele>779.0000000000001</ele><time>2026-04-23T06:52:57.642Z</time></trkpt><trkpt lat="39.987483" lon="9.196373"><ele>779.0</ele><time>2026-04-23T06:52:58.634Z</time></trkpt><trkpt lat="39.9874275" lon="9.1964154"><ele>780.25</ele><time>2026-04-23T06:52:59.636Z</time></trkpt><trkpt lat="39.987322" lon="9.1964949"><ele>781.5</ele><time>2026-04-23T06:53:01.664Z</time></trkpt><trkpt lat="39.9872004" lon="9.1965211"><ele>782.75</ele><time>2026-04-23T06:53:03.639Z</time></trkpt><trkpt lat="39.9870946" lon="9.1965032"><ele>784.0</ele><time>2026-04-23T06:53:05.641Z</time></trkpt><trkpt lat="39.9869754" lon="9.1964193"><ele>784.0</ele><time>2026-04-23T06:53:17.644Z</time></trkpt><trkpt lat="39.9868647" lon="9.196375"><ele>784.0</ele><time>2026-04-23T06:53:19.643Z</time></trkpt><trkpt lat="39.9867391" lon="9.1963481"><ele>784.0</ele><time>2026-04-23T06:53:21.637Z</time></trkpt><trkpt lat="39.9866719" lon="9.1963581"><ele>784.0</ele><time>2026-04-23T06:53:22.64Z</time></trkpt><trkpt lat="39.9865978" lon="9.196358"><ele>784.0</ele><time>2026-04-23T06:53:23.645Z</time></trkpt><trkpt lat="39.9865308" lon="9.1963511"><ele>786.2</ele><time>2026-04-23T06:53:24.637Z</time></trkpt><trkpt lat="39.9864116" lon="9.1963059"><ele>788.4000000000001</ele><time>2026-04-23T06:53:26.636Z</time></trkpt><trkpt lat="39.9863468" lon="9.1962737"><ele>790.6</ele><time>2026-04-23T06:53:27.641Z</time></trkpt><trkpt lat="39.9862442" lon="9.1962275"><ele>792.8</ele><time>2026-04-23T06:53:29.64Z</time></trkpt><trkpt lat="39.9861597" lon="9.1961532"><ele>795.0</ele><time>2026-04-23T06:53:31.643Z</time></trkpt><trkpt lat="39.9860834" lon="9.1960483"><ele>795.0</ele><time>2026-04-23T06:53:33.644Z</time></trkpt><trkpt lat="39.9860412" lon="9.1959307"><ele>795.0</ele><time>2026-04-23T06:53:35.647Z</time></trkpt><trkpt lat="39.9860106" lon="9.1958494"><ele>795.0</ele><time>2026-04-23T06:53:36.643Z</time></trkpt><trkpt lat="39.9859726" lon="9.195761"><ele>795.0</ele><time>2026-04-23T06:53:37.639Z</time></trkpt><trkpt lat="39.9859323" lon="9.1956715"><ele>795.0</ele><time>2026-04-23T06:53:38.649Z</time></trkpt><trkpt lat="39.9858843" lon="9.1955794"><ele>795.0</ele><time>2026-04-23T06:53:39.647Z</time></trkpt><trkpt lat="39.9858411" lon="9.1954995"><ele>796.2857142857143</ele><time>2026-04-23T06:53:40.649Z</time></trkpt><trkpt lat="39.9857981" lon="9.1954304"><ele>797.5714285714287</ele><time>2026-04-23T06:53:41.641Z</time></trkpt><trkpt lat="39.9857551" lon="9.1953531"><ele>798.8571428571429</ele><time>2026-04-23T06:53:42.641Z</time></trkpt><trkpt lat="39.9857196" lon="9.1952679"><ele>800.1428571428571</ele><time>2026-04-23T06:53:43.632Z</time></trkpt><trkpt lat="39.9856864" lon="9.195186"><ele>801.4285714285714</ele><time>2026-04-23T06:53:44.645Z</time></trkpt><trkpt lat="39.9856474" lon="9.1951005"><ele>802.7142857142857</ele><time>2026-04-23T06:53:45.632Z</time></trkpt><trkpt lat="39.98561" lon="9.1950171"><ele>804.0</ele><time>2026-04-23T06:53:46.636Z</time></trkpt><trkpt lat="39.9855629" lon="9.1949405"><ele>804.0</ele><time>2026-04-23T06:53:47.646Z</time></trkpt><trkpt lat="39.985519" lon="9.194865"><ele>804.0</ele><time>2026-04-23T06:53:48.634Z</time></trkpt><trkpt lat="39.9854783" lon="9.194792"><ele>804.0</ele><time>2026-04-23T06:53:49.645Z</time></trkpt><trkpt lat="39.9854367" lon="9.1947169"><ele>804.0</ele><time>2026-04-23T06:53:50.641Z</time></trkpt><trkpt lat="39.9853962" lon="9.1946499"><ele>804.0</ele><time>2026-04-23T06:53:51.643Z</time></trkpt><trkpt lat="39.9853483" lon="9.19459"><ele>804.0</ele><time>2026-04-23T06:53:52.638Z</time></trkpt><trkpt lat="39.9852818" lon="9.1944809"><ele>805.8000000000001</ele><time>2026-04-23T06:53:54.644Z</time></trkpt><trkpt lat="39.985201" lon="9.1944017"><ele>807.6</ele><time>2026-04-23T06:53:56.632Z</time></trkpt><trkpt lat="39.9851394" lon="9.1943838"><ele>809.4</ele><time>2026-04-23T06:53:57.664Z</time></trkpt><trkpt lat="39.9850274" lon="9.1943637"><ele>811.2</ele><time>2026-04-23T06:53:59.638Z</time></trkpt><trkpt lat="39.9849229" lon="9.1943246"><ele>813.0</ele><time>2026-04-23T06:54:01.633Z</time></trkpt><trkpt lat="39.9848257" lon="9.1942853"><ele>813.0</ele><time>2026-04-23T06:54:03.636Z</time></trkpt><trkpt lat="39.9847375" lon="9.1942676"><ele>813.0</ele><time>2026-04-23T06:54:05.637Z</time></trkpt><trkpt lat="39.9846642" lon="9.1942701"><ele>813.0</ele><time>2026-04-23T06:54:07.657Z</time></trkpt><trkpt lat="39.9845727" lon="9.1943019"><ele>813.0</ele><time>2026-04-23T06:54:09.633Z</time></trkpt><trkpt lat="39.984462" lon="9.1943189"><ele>813.0</ele><time>2026-04-23T06:54:11.636Z</time></trkpt><trkpt lat="39.9843727" lon="9.1943363"><ele>813.0</ele><time>2026-04-23T06:54:13.635Z</time></trkpt><trkpt lat="39.9842713" lon="9.1942701"><ele>813.0</ele><time>2026-04-23T06:55:15.646Z</time></trkpt><trkpt lat="39.9843312" lon="9.1942372"><ele>813.0</ele><time>2026-04-23T06:55:45.65Z</time></trkpt><trkpt lat="39.984419" lon="9.1942194"><ele>813.0</ele><time>2026-04-23T06:55:47.675Z</time></trkpt><trkpt lat="39.9845436" lon="9.1942035"><ele>813.0</ele><time>2026-04-23T06:55:49.687Z</time></trkpt><trkpt lat="39.9846258" lon="9.1941945"><ele>813.0</ele><time>2026-04-23T06:55:50.667Z</time></trkpt><trkpt lat="39.984737" lon="9.1941792"><ele>813.0</ele><time>2026-04-23T06:55:52.66Z</time></trkpt><trkpt lat="39.9848327" lon="9.1942059"><ele>813.0</ele><time>2026-04-23T06:55:54.667Z</time></trkpt><trkpt lat="39.98493" lon="9.1942786"><ele>813.0</ele><time>2026-04-23T06:55:56.646Z</time></trkpt><trkpt lat="39.9850003" lon="9.1943118"><ele>813.0</ele><time>2026-04-23T06:55:58.678Z</time></trkpt><trkpt lat="39.9850782" lon="9.194343"><ele>810.1428571428572</ele><time>2026-04-23T06:56:00.669Z</time></trkpt><trkpt lat="39.9851572" lon="9.194369"><ele>807.2857142857142</ele><time>2026-04-23T06:56:02.678Z</time></trkpt><trkpt lat="39.9852328" lon="9.1943789"><ele>804.4285714285714</ele><time>2026-04-23T06:56:04.671Z</time></trkpt><trkpt lat="39.9852999" lon="9.1943745"><ele>801.5714285714287</ele><time>2026-04-23T06:56:07.67Z</time></trkpt><trkpt lat="39.9853282" lon="9.1942969"><ele>798.7142857142858</ele><time>2026-04-23T06:56:12.648Z</time></trkpt><trkpt lat="39.9852533" lon="9.1943027"><ele>795.8571428571429</ele><time>2026-04-23T07:02:51.664Z</time></trkpt><trkpt lat="39.9851924" lon="9.194255"><ele>793.0</ele><time>2026-04-23T07:02:53.67Z</time></trkpt><trkpt lat="39.9851163" lon="9.1941987"><ele>793.0000000000001</ele><time>2026-04-23T07:02:55.668Z</time></trkpt><trkpt lat="39.9850237" lon="9.1941763"><ele>793.0</ele><time>2026-04-23T07:02:57.665Z</time></trkpt><trkpt lat="39.9849624" lon="9.1941488"><ele>793.0</ele><time>2026-04-23T07:02:59.681Z</time></trkpt><trkpt lat="39.9850234" lon="9.1940661"><ele>793.0</ele><time>2026-04-23T07:03:54.693Z</time></trkpt><trkpt lat="39.9850843" lon="9.1940303"><ele>793.0</ele><time>2026-04-23T07:03:56.701Z</time></trkpt><trkpt lat="39.9851236" lon="9.1939582"><ele>793.0000000000001</ele><time>2026-04-23T07:04:00.672Z</time></trkpt><trkpt lat="39.9850868" lon="9.1938898"><ele>793.0</ele><time>2026-04-23T07:04:04.672Z</time></trkpt><trkpt lat="39.9850135" lon="9.1938245"><ele>791.2857142857143</ele><time>2026-04-23T07:04:07.671Z</time></trkpt><trkpt lat="39.9849529" lon="9.1937803"><ele>789.5714285714286</ele><time>2026-04-23T07:04:09.681Z</time></trkpt><trkpt lat="39.9848929" lon="9.1937437"><ele>787.8571428571429</ele><time>2026-04-23T07:04:11.674Z</time></trkpt><trkpt lat="39.9848294" lon="9.1937025"><ele>786.1428571428571</ele><time>2026-04-23T07:04:13.669Z</time></trkpt><trkpt lat="39.9847719" lon="9.1936276"><ele>784.4285714285714</ele><time>2026-04-23T07:04:16.684Z</time></trkpt><trkpt lat="39.9847168" lon="9.1935646"><ele>782.7142857142858</ele><time>2026-04-23T07:04:19.677Z</time></trkpt><trkpt lat="39.9846587" lon="9.1935137"><ele>781.0</ele><time>2026-04-23T07:04:22.688Z</time></trkpt><trkpt lat="39.9845999" lon="9.1934536"><ele>780.9999999999999</ele><time>2026-04-23T07:04:24.681Z</time></trkpt><trkpt lat="39.9845178" lon="9.1933928"><ele>781.0</ele><time>2026-04-23T07:04:26.678Z</time></trkpt><trkpt lat="39.9844678" lon="9.1933322"><ele>781.0</ele><time>2026-04-23T07:04:28.67Z</time></trkpt><trkpt lat="39.984418" lon="9.1932816"><ele>781.0</ele><time>2026-04-23T07:04:30.672Z</time></trkpt><trkpt lat="39.9843673" lon="9.1932253"><ele>780.9999999999999</ele><time>2026-04-23T07:04:32.672Z</time></trkpt><trkpt lat="39.9843097" lon="9.19316"><ele>781.0</ele><time>2026-04-23T07:04:34.666Z</time></trkpt><trkpt lat="39.9842478" lon="9.1930787"><ele>778.1666666666666</ele><time>2026-04-23T07:04:36.674Z</time></trkpt><trkpt lat="39.9841948" lon="9.192989"><ele>775.3333333333333</ele><time>2026-04-23T07:04:38.67Z</time></trkpt><trkpt lat="39.9841595" lon="9.1928847"><ele>772.5</ele><time>2026-04-23T07:04:40.663Z</time></trkpt><trkpt lat="39.9841076" lon="9.1927934"><ele>769.6666666666666</ele><time>2026-04-23T07:04:42.662Z</time></trkpt><trkpt lat="39.9840407" lon="9.1927385"><ele>766.8333333333333</ele><time>2026-04-23T07:04:44.675Z</time></trkpt><trkpt lat="39.9839734" lon="9.192697"><ele>764.0</ele><time>2026-04-23T07:04:46.686Z</time></trkpt><trkpt lat="39.9838936" lon="9.1926398"><ele>764.0</ele><time>2026-04-23T07:04:49.671Z</time></trkpt><trkpt lat="39.983823" lon="9.1925914"><ele>764.0</ele><time>2026-04-23T07:04:51.673Z</time></trkpt><trkpt lat="39.9837368" lon="9.1925429"><ele>764.0</ele><time>2026-04-23T07:04:53.669Z</time></trkpt><trkpt lat="39.983647" lon="9.1924842"><ele>764.0</ele><time>2026-04-23T07:04:55.658Z</time></trkpt><trkpt lat="39.98357" lon="9.1924334"><ele>764.0</ele><time>2026-04-23T07:04:57.669Z</time></trkpt><trkpt lat="39.9835025" lon="9.1923667"><ele>764.0</ele><time>2026-04-23T07:04:59.665Z</time></trkpt><trkpt lat="39.9834556" lon="9.1922974"><ele>762.6666666666666</ele><time>2026-04-23T07:05:01.659Z</time></trkpt><trkpt lat="39.9834071" lon="9.1922255"><ele>761.3333333333333</ele><time>2026-04-23T07:05:03.664Z</time></trkpt><trkpt lat="39.9833384" lon="9.1921587"><ele>760.0</ele><time>2026-04-23T07:05:06.68Z</time></trkpt><trkpt lat="39.9833056" lon="9.1920773"><ele>758.6666666666666</ele><time>2026-04-23T07:05:09.669Z</time></trkpt><trkpt lat="39.9832655" lon="9.192009"><ele>757.3333333333334</ele><time>2026-04-23T07:05:11.671Z</time></trkpt><trkpt lat="39.9832064" lon="9.1919306"><ele>756.0</ele><time>2026-04-23T07:05:14.675Z</time></trkpt><trkpt lat="39.9831205" lon="9.1918941"><ele>756.0</ele><time>2026-04-23T07:05:18.674Z</time></trkpt><trkpt lat="39.9830387" lon="9.1919228"><ele>756.0</ele><time>2026-04-23T07:05:21.671Z</time></trkpt><trkpt lat="39.9829818" lon="9.1918524"><ele>756.0</ele><time>2026-04-23T07:05:26.681Z</time></trkpt><trkpt lat="39.9829965" lon="9.1917697"><ele>756.0</ele><time>2026-04-23T07:05:29.676Z</time></trkpt><trkpt lat="39.9829211" lon="9.191723"><ele>756.0</ele><time>2026-04-23T07:05:33.672Z</time></trkpt><trkpt lat="39.982837" lon="9.1917411"><ele>756.0</ele><time>2026-04-23T07:05:36.683Z</time></trkpt><trkpt lat="39.9827496" lon="9.191739"><ele>756.0</ele><time>2026-04-23T07:05:39.67Z</time></trkpt><trkpt lat="39.982713" lon="9.1916588"><ele>756.0</ele><time>2026-04-23T07:06:37.662Z</time></trkpt><trkpt lat="39.9827355" lon="9.1915674"><ele>756.0</ele><time>2026-04-23T07:06:56.664Z</time></trkpt><trkpt lat="39.982787" lon="9.1914883"><ele>756.0</ele><time>2026-04-23T07:06:58.665Z</time></trkpt><trkpt lat="39.9828694" lon="9.1913719"><ele>756.0</ele><time>2026-04-23T07:07:00.691Z</time></trkpt><trkpt lat="39.9829426" lon="9.1912813"><ele>756.0</ele><time>2026-04-23T07:07:02.67Z</time></trkpt><trkpt lat="39.9829977" lon="9.1912116"><ele>751.6666666666666</ele><time>2026-04-23T07:07:04.668Z</time></trkpt><trkpt lat="39.9830466" lon="9.1911045"><ele>747.3333333333334</ele><time>2026-04-23T07:07:06.666Z</time></trkpt><trkpt lat="39.9830865" lon="9.1910191"><ele>743.0</ele><time>2026-04-23T07:07:08.671Z</time></trkpt><trkpt lat="39.9831306" lon="9.1909515"><ele>738.6666666666667</ele><time>2026-04-23T07:07:10.666Z</time></trkpt><trkpt lat="39.983188" lon="9.1909098"><ele>734.3333333333334</ele><time>2026-04-23T07:07:12.667Z</time></trkpt><trkpt lat="39.9832693" lon="9.19087"><ele>730.0</ele><time>2026-04-23T07:07:15.693Z</time></trkpt><trkpt lat="39.9833416" lon="9.1908446"><ele>727.5</ele><time>2026-04-23T07:07:19.695Z</time></trkpt><trkpt lat="39.9834157" lon="9.1908025"><ele>725.0</ele><time>2026-04-23T07:07:22.694Z</time></trkpt><trkpt lat="39.9835011" lon="9.1907856"><ele>722.5</ele><time>2026-04-23T07:07:25.7Z</time></trkpt><trkpt lat="39.983561" lon="9.1907577"><ele>720.0</ele><time>2026-04-23T07:07:27.69Z</time></trkpt><trkpt lat="39.9836373" lon="9.1907358"><ele>717.5</ele><time>2026-04-23T07:07:29.686Z</time></trkpt><trkpt lat="39.9837144" lon="9.1907309"><ele>715.0</ele><time>2026-04-23T07:07:31.692Z</time></trkpt><trkpt lat="39.9837802" lon="9.1907525"><ele>715.0</ele><time>2026-04-23T07:07:33.687Z</time></trkpt><trkpt lat="39.983849" lon="9.190773"><ele>715.0</ele><time>2026-04-23T07:07:35.683Z</time></trkpt><trkpt lat="39.9839293" lon="9.1908189"><ele>715.0</ele><time>2026-04-23T07:07:37.692Z</time></trkpt><trkpt lat="39.983979" lon="9.1908855"><ele>715.0</ele><time>2026-04-23T07:07:39.686Z</time></trkpt><trkpt lat="39.9840218" lon="9.1909551"><ele>715.0</ele><time>2026-04-23T07:07:41.682Z</time></trkpt><trkpt lat="39.9840634" lon="9.1910422"><ele>715.0</ele><time>2026-04-23T07:07:43.683Z</time></trkpt><trkpt lat="39.9841177" lon="9.1911186"><ele>715.0</ele><time>2026-04-23T07:07:45.677Z</time></trkpt><trkpt lat="39.9841777" lon="9.1911826"><ele>715.0</ele><time>2026-04-23T07:07:47.683Z</time></trkpt><trkpt lat="39.9842356" lon="9.1912306"><ele>715.0</ele><time>2026-04-23T07:07:49.675Z</time></trkpt><trkpt lat="39.984321" lon="9.1912854"><ele>715.0</ele><time>2026-04-23T07:07:51.672Z</time></trkpt><trkpt lat="39.9844338" lon="9.1913097"><ele>715.0</ele><time>2026-04-23T07:07:53.68Z</time></trkpt><trkpt lat="39.9845188" lon="9.1912979"><ele>715.0</ele><time>2026-04-23T07:07:55.678Z</time></trkpt><trkpt lat="39.9845851" lon="9.1913082"><ele>710.8333333333334</ele><time>2026-04-23T07:07:57.682Z</time></trkpt><trkpt lat="39.9846724" lon="9.1913272"><ele>706.6666666666667</ele><time>2026-04-23T07:08:00.683Z</time></trkpt><trkpt lat="39.9847459" lon="9.1913182"><ele>702.5</ele><time>2026-04-23T07:08:04.638Z</time></trkpt><trkpt lat="39.984816" lon="9.1912637"><ele>698.3333333333334</ele><time>2026-04-23T07:08:06.685Z</time></trkpt><trkpt lat="39.9848768" lon="9.1912338"><ele>694.1666666666666</ele><time>2026-04-23T07:08:09.688Z</time></trkpt><trkpt lat="39.984936" lon="9.1911965"><ele>690.0</ele><time>2026-04-23T07:08:12.663Z</time></trkpt><trkpt lat="39.9849376" lon="9.1910859"><ele>690.0</ele><time>2026-04-23T07:08:16.666Z</time></trkpt><trkpt lat="39.984917" lon="9.1910026"><ele>690.0</ele><time>2026-04-23T07:08:18.669Z</time></trkpt><trkpt lat="39.9848708" lon="9.1909311"><ele>690.0</ele><time>2026-04-23T07:08:20.676Z</time></trkpt><trkpt lat="39.9847932" lon="9.1909078"><ele>690.0</ele><time>2026-04-23T07:08:22.666Z</time></trkpt><trkpt lat="39.9847253" lon="9.1908728"><ele>690.0</ele><time>2026-04-23T07:08:24.662Z</time></trkpt><trkpt lat="39.9846373" lon="9.1908128"><ele>690.0</ele><time>2026-04-23T07:08:26.653Z</time></trkpt><trkpt lat="39.9845798" lon="9.1907446"><ele>686.2857142857143</ele><time>2026-04-23T07:08:28.655Z</time></trkpt><trkpt lat="39.9845654" lon="9.1906422"><ele>682.5714285714286</ele><time>2026-04-23T07:08:30.659Z</time></trkpt><trkpt lat="39.9845475" lon="9.1905325"><ele>678.8571428571429</ele><time>2026-04-23T07:08:32.655Z</time></trkpt><trkpt lat="39.9845372" lon="9.1904423"><ele>675.1428571428571</ele><time>2026-04-23T07:08:34.652Z</time></trkpt><trkpt lat="39.984525" lon="9.1903463"><ele>671.4285714285714</ele><time>2026-04-23T07:08:36.651Z</time></trkpt><trkpt lat="39.9845212" lon="9.1902528"><ele>667.7142857142857</ele><time>2026-04-23T07:08:38.657Z</time></trkpt><trkpt lat="39.9845418" lon="9.1901697"><ele>664.0</ele><time>2026-04-23T07:08:40.657Z</time></trkpt><trkpt lat="39.9845398" lon="9.1900667"><ele>664.0</ele><time>2026-04-23T07:08:42.662Z</time></trkpt><trkpt lat="39.9845508" lon="9.1899551"><ele>664.0</ele><time>2026-04-23T07:08:44.658Z</time></trkpt><trkpt lat="39.9845497" lon="9.1898262"><ele>664.0</ele><time>2026-04-23T07:08:46.653Z</time></trkpt><trkpt lat="39.9845261" lon="9.1897001"><ele>664.0</ele><time>2026-04-23T07:08:48.653Z</time></trkpt><trkpt lat="39.9845253" lon="9.1895845"><ele>664.0</ele><time>2026-04-23T07:08:50.653Z</time></trkpt><trkpt lat="39.9845262" lon="9.1894933"><ele>664.0</ele><time>2026-04-23T07:08:52.658Z</time></trkpt><trkpt lat="39.9845192" lon="9.1893931"><ele>661.8333333333334</ele><time>2026-04-23T07:08:54.661Z</time></trkpt><trkpt lat="39.9845152" lon="9.189299"><ele>659.6666666666667</ele><time>2026-04-23T07:08:56.682Z</time></trkpt><trkpt lat="39.9845347" lon="9.1891907"><ele>657.5</ele><time>2026-04-23T07:08:58.659Z</time></trkpt><trkpt lat="39.9845444" lon="9.1890826"><ele>655.3333333333334</ele><time>2026-04-23T07:09:00.667Z</time></trkpt><trkpt lat="39.9845317" lon="9.188995"><ele>653.1666666666666</ele><time>2026-04-23T07:09:02.662Z</time></trkpt><trkpt lat="39.9845211" lon="9.1888896"><ele>651.0</ele><time>2026-04-23T07:09:05.662Z</time></trkpt><trkpt lat="39.9844546" lon="9.1887701"><ele>649.8333333333334</ele><time>2026-04-23T07:13:02.668Z</time></trkpt><trkpt lat="39.9843802" lon="9.1887213"><ele>648.6666666666666</ele><time>2026-04-23T07:13:04.669Z</time></trkpt><trkpt lat="39.9842962" lon="9.1886692"><ele>647.5</ele><time>2026-04-23T07:13:06.658Z</time></trkpt><trkpt lat="39.9842218" lon="9.1886303"><ele>646.3333333333333</ele><time>2026-04-23T07:13:08.668Z</time></trkpt><trkpt lat="39.9841556" lon="9.1886069"><ele>645.1666666666666</ele><time>2026-04-23T07:13:10.666Z</time></trkpt><trkpt lat="39.9840857" lon="9.1885998"><ele>644.0</ele><time>2026-04-23T07:13:12.655Z</time></trkpt><trkpt lat="39.98401" lon="9.1886033"><ele>644.0</ele><time>2026-04-23T07:13:14.66Z</time></trkpt><trkpt lat="39.9839294" lon="9.1885921"><ele>644.0</ele><time>2026-04-23T07:13:16.661Z</time></trkpt><trkpt lat="39.9838531" lon="9.1885411"><ele>644.0</ele><time>2026-04-23T07:13:18.659Z</time></trkpt><trkpt lat="39.9837863" lon="9.1884617"><ele>644.0</ele><time>2026-04-23T07:13:20.667Z</time></trkpt><trkpt lat="39.9837222" lon="9.1883866"><ele>644.0</ele><time>2026-04-23T07:13:22.668Z</time></trkpt><trkpt lat="39.9836417" lon="9.1883175"><ele>644.0</ele><time>2026-04-23T07:13:24.671Z</time></trkpt><trkpt lat="39.9835484" lon="9.1882528"><ele>644.0</ele><time>2026-04-23T07:13:26.666Z</time></trkpt><trkpt lat="39.9834492" lon="9.188221"><ele>644.0</ele><time>2026-04-23T07:13:28.661Z</time></trkpt><trkpt lat="39.9833783" lon="9.188238"><ele>644.0</ele><time>2026-04-23T07:13:30.664Z</time></trkpt><trkpt lat="39.9832962" lon="9.1882245"><ele>644.0</ele><time>2026-04-23T07:13:32.658Z</time></trkpt><trkpt lat="39.9832218" lon="9.1881981"><ele>644.0</ele><time>2026-04-23T07:13:34.665Z</time></trkpt><trkpt lat="39.9831341" lon="9.1881854"><ele>644.0</ele><time>2026-04-23T07:13:36.663Z</time></trkpt><trkpt lat="39.9830556" lon="9.1881826"><ele>644.0</ele><time>2026-04-23T07:13:38.665Z</time></trkpt><trkpt lat="39.9829607" lon="9.1881931"><ele>644.0</ele><time>2026-04-23T07:13:40.662Z</time></trkpt><trkpt lat="39.9828421" lon="9.1881925"><ele>644.0</ele><time>2026-04-23T07:13:42.661Z</time></trkpt><trkpt lat="39.9827423" lon="9.1882017"><ele>644.0</ele><time>2026-04-23T07:13:44.664Z</time></trkpt><trkpt lat="39.982669" lon="9.1881907"><ele>644.0</ele><time>2026-04-23T07:13:45.669Z</time></trkpt><trkpt lat="39.9825599" lon="9.188169"><ele>641.8000000000001</ele><time>2026-04-23T07:13:47.666Z</time></trkpt><trkpt lat="39.9824683" lon="9.1881699"><ele>639.6</ele><time>2026-04-23T07:13:49.676Z</time></trkpt><trkpt lat="39.982377" lon="9.1881772"><ele>637.4</ele><time>2026-04-23T07:13:51.674Z</time></trkpt><trkpt lat="39.9822829" lon="9.1881532"><ele>635.2</ele><time>2026-04-23T07:13:53.669Z</time></trkpt><trkpt lat="39.9822116" lon="9.1880906"><ele>633.0</ele><time>2026-04-23T07:13:55.669Z</time></trkpt><trkpt lat="39.9821451" lon="9.1879971"><ele>630.0</ele><time>2026-04-23T07:13:57.666Z</time></trkpt><trkpt lat="39.9821271" lon="9.1878897"><ele>627.0</ele><time>2026-04-23T07:13:59.67Z</time></trkpt><trkpt lat="39.9821128" lon="9.1877985"><ele>624.0</ele><time>2026-04-23T07:14:33.665Z</time></trkpt><trkpt lat="39.9821084" lon="9.1877122"><ele>621.0</ele><time>2026-04-23T07:15:06.656Z</time></trkpt><trkpt lat="39.9821368" lon="9.1876271"><ele>618.0</ele><time>2026-04-23T07:16:11.605Z</time></trkpt><trkpt lat="39.9820745" lon="9.1875255"><ele>615.0</ele><time>2026-04-23T07:16:12.667Z</time></trkpt><trkpt lat="39.9820884" lon="9.1873877"><ele>612.0</ele><time>2026-04-23T07:16:14.65Z</time></trkpt><trkpt lat="39.9820977" lon="9.187237"><ele>609.0</ele><time>2026-04-23T07:16:16.649Z</time></trkpt><trkpt lat="39.9820833" lon="9.1871283"><ele>606.0</ele><time>2026-04-23T07:16:18.664Z</time></trkpt><trkpt lat="39.9820323" lon="9.1870683"><ele>603.0</ele><time>2026-04-23T07:16:20.648Z</time></trkpt><trkpt lat="39.9819646" lon="9.1870228"><ele>600.0</ele><time>2026-04-23T07:16:22.654Z</time></trkpt><trkpt lat="39.9818805" lon="9.187009"><ele>597.0</ele><time>2026-04-23T07:16:33.658Z</time></trkpt><trkpt lat="39.9817914" lon="9.1870078"><ele>596.5</ele><time>2026-04-23T07:16:35.665Z</time></trkpt><trkpt lat="39.9816647" lon="9.1870145"><ele>596.0</ele><time>2026-04-23T07:16:37.657Z</time></trkpt><trkpt lat="39.9816019" lon="9.1870414"><ele>595.5</ele><time>2026-04-23T07:16:38.662Z</time></trkpt><trkpt lat="39.9815342" lon="9.1870582"><ele>595.0</ele><time>2026-04-23T07:16:39.66Z</time></trkpt><trkpt lat="39.981467" lon="9.1870593"><ele>594.5</ele><time>2026-04-23T07:16:40.656Z</time></trkpt><trkpt lat="39.9814" lon="9.1870538"><ele>594.0</ele><time>2026-04-23T07:16:41.649Z</time></trkpt><trkpt lat="39.9813357" lon="9.187032"><ele>594.0</ele><time>2026-04-23T07:16:42.653Z</time></trkpt><trkpt lat="39.9812772" lon="9.1869836"><ele>594.0</ele><time>2026-04-23T07:16:43.665Z</time></trkpt><trkpt lat="39.9812143" lon="9.1869274"><ele>594.0</ele><time>2026-04-23T07:16:44.662Z</time></trkpt><trkpt lat="39.981156" lon="9.186873"><ele>594.0</ele><time>2026-04-23T07:16:45.662Z</time></trkpt><trkpt lat="39.9811017" lon="9.1868107"><ele>594.0</ele><time>2026-04-23T07:16:46.658Z</time></trkpt><trkpt lat="39.9810107" lon="9.1867016"><ele>594.0</ele><time>2026-04-23T07:16:48.661Z</time></trkpt><trkpt lat="39.980971" lon="9.1866311"><ele>594.0</ele><time>2026-04-23T07:16:49.665Z</time></trkpt><trkpt lat="39.9809357" lon="9.1865545"><ele>594.0</ele><time>2026-04-23T07:16:50.663Z</time></trkpt><trkpt lat="39.9808399" lon="9.1864549"><ele>594.0</ele><time>2026-04-23T07:16:52.663Z</time></trkpt><trkpt lat="39.9807571" lon="9.1863824"><ele>594.0</ele><time>2026-04-23T07:16:54.66Z</time></trkpt><trkpt lat="39.9806882" lon="9.1862802"><ele>594.0</ele><time>2026-04-23T07:16:56.663Z</time></trkpt><trkpt lat="39.9806535" lon="9.1862107"><ele>589.6</ele><time>2026-04-23T07:16:58.667Z</time></trkpt><trkpt lat="39.9805708" lon="9.1861571"><ele>585.2</ele><time>2026-04-23T07:17:00.667Z</time></trkpt><trkpt lat="39.9804627" lon="9.1861406"><ele>580.8000000000001</ele><time>2026-04-23T07:17:02.662Z</time></trkpt><trkpt lat="39.9803517" lon="9.186177"><ele>576.4</ele><time>2026-04-23T07:17:04.658Z</time></trkpt><trkpt lat="39.9802839" lon="9.1861926"><ele>572.0</ele><time>2026-04-23T07:17:05.659Z</time></trkpt><trkpt lat="39.9802125" lon="9.1861662"><ele>572.0</ele><time>2026-04-23T07:17:08.669Z</time></trkpt><trkpt lat="39.9801501" lon="9.1861135"><ele>572.0</ele><time>2026-04-23T07:17:10.669Z</time></trkpt><trkpt lat="39.9800657" lon="9.186069"><ele>572.0</ele><time>2026-04-23T07:17:12.665Z</time></trkpt><trkpt lat="39.9799802" lon="9.1860254"><ele>572.0</ele><time>2026-04-23T07:17:14.665Z</time></trkpt><trkpt lat="39.9799226" lon="9.1859712"><ele>572.0</ele><time>2026-04-23T07:17:18.668Z</time></trkpt><trkpt lat="39.9798468" lon="9.1860019"><ele>572.0</ele><time>2026-04-23T07:17:20.677Z</time></trkpt><trkpt lat="39.9797122" lon="9.1861126"><ele>570.6</ele><time>2026-04-23T07:17:22.665Z</time></trkpt><trkpt lat="39.9796363" lon="9.1862023"><ele>569.2</ele><time>2026-04-23T07:17:23.655Z</time></trkpt><trkpt lat="39.9795594" lon="9.1863045"><ele>567.8</ele><time>2026-04-23T07:17:24.686Z</time></trkpt><trkpt lat="39.9794771" lon="9.1864062"><ele>566.4</ele><time>2026-04-23T07:17:25.672Z</time></trkpt><trkpt lat="39.9793873" lon="9.1864991"><ele>565.0</ele><time>2026-04-23T07:17:26.674Z</time></trkpt><trkpt lat="39.9792909" lon="9.1865864"><ele>565.6</ele><time>2026-04-23T07:17:27.682Z</time></trkpt><trkpt lat="39.97921" lon="9.186673"><ele>566.2</ele><time>2026-04-23T07:17:28.657Z</time></trkpt><trkpt lat="39.9791251" lon="9.1867596"><ele>566.8</ele><time>2026-04-23T07:17:29.652Z</time></trkpt><trkpt lat="39.9790458" lon="9.1868607"><ele>567.4</ele><time>2026-04-23T07:17:30.668Z</time></trkpt><trkpt lat="39.9789853" lon="9.1869724"><ele>568.0</ele><time>2026-04-23T07:17:31.659Z</time></trkpt><trkpt lat="39.9789404" lon="9.1871044"><ele>568.0</ele><time>2026-04-23T07:17:32.68Z</time></trkpt><trkpt lat="39.9789008" lon="9.1872473"><ele>568.0</ele><time>2026-04-23T07:17:33.68Z</time></trkpt><trkpt lat="39.9788521" lon="9.1873844"><ele>568.0</ele><time>2026-04-23T07:17:34.676Z</time></trkpt><trkpt lat="39.9788271" lon="9.1875475"><ele>568.0</ele><time>2026-04-23T07:17:35.681Z</time></trkpt><trkpt lat="39.9788225" lon="9.1877274"><ele>570.75</ele><time>2026-04-23T07:17:36.664Z</time></trkpt><trkpt lat="39.978819" lon="9.1878912"><ele>573.5</ele><time>2026-04-23T07:17:37.669Z</time></trkpt><trkpt lat="39.9788279" lon="9.1880508"><ele>576.25</ele><time>2026-04-23T07:17:38.64Z</time></trkpt><trkpt lat="39.9788471" lon="9.1882048"><ele>579.0</ele><time>2026-04-23T07:17:39.666Z</time></trkpt><trkpt lat="39.9788597" lon="9.1883501"><ele>581.4</ele><time>2026-04-23T07:17:40.682Z</time></trkpt><trkpt lat="39.9788691" lon="9.188463"><ele>583.8</ele><time>2026-04-23T07:17:41.675Z</time></trkpt><trkpt lat="39.9788678" lon="9.1886083"><ele>586.2</ele><time>2026-04-23T07:17:42.668Z</time></trkpt><trkpt lat="39.9788323" lon="9.1887247"><ele>588.6</ele><time>2026-04-23T07:17:43.674Z</time></trkpt><trkpt lat="39.9787789" lon="9.1888202"><ele>591.0</ele><time>2026-04-23T07:17:44.672Z</time></trkpt><trkpt lat="39.9787038" lon="9.1888743"><ele>591.0</ele><time>2026-04-23T07:17:45.673Z</time></trkpt><trkpt lat="39.9786107" lon="9.1889044"><ele>591.0</ele><time>2026-04-23T07:17:46.674Z</time></trkpt><trkpt lat="39.9785174" lon="9.188869"><ele>591.0</ele><time>2026-04-23T07:17:47.649Z</time></trkpt><trkpt lat="39.9784131" lon="9.1887995"><ele>591.0</ele><time>2026-04-23T07:17:48.655Z</time></trkpt><trkpt lat="39.9783058" lon="9.1887434"><ele>591.0</ele><time>2026-04-23T07:17:49.653Z</time></trkpt><trkpt lat="39.9781943" lon="9.1886951"><ele>586.25</ele><time>2026-04-23T07:17:50.663Z</time></trkpt><trkpt lat="39.978078" lon="9.1886246"><ele>581.5</ele><time>2026-04-23T07:17:51.664Z</time></trkpt><trkpt lat="39.9779651" lon="9.1885331"><ele>576.75</ele><time>2026-04-23T07:17:52.657Z</time></trkpt><trkpt lat="39.9778754" lon="9.18841"><ele>572.0</ele><time>2026-04-23T07:17:53.66Z</time></trkpt><trkpt lat="39.9778078" lon="9.1882751"><ele>570.5</ele><time>2026-04-23T07:17:54.653Z</time></trkpt><trkpt lat="39.9777493" lon="9.1881391"><ele>569.0</ele><time>2026-04-23T07:17:55.658Z</time></trkpt><trkpt lat="39.9776938" lon="9.1879913"><ele>567.5</ele><time>2026-04-23T07:17:56.646Z</time></trkpt><trkpt lat="39.977669" lon="9.187822"><ele>566.0</ele><time>2026-04-23T07:17:57.652Z</time></trkpt><trkpt lat="39.9776612" lon="9.1876338"><ele>566.0</ele><time>2026-04-23T07:17:58.643Z</time></trkpt><trkpt lat="39.9776745" lon="9.1874458"><ele>566.0</ele><time>2026-04-23T07:17:59.643Z</time></trkpt><trkpt lat="39.9777103" lon="9.1872696"><ele>566.0</ele><time>2026-04-23T07:18:00.657Z</time></trkpt><trkpt lat="39.9777562" lon="9.1871214"><ele>566.0</ele><time>2026-04-23T07:18:01.648Z</time></trkpt><trkpt lat="39.977789" lon="9.1869887"><ele>565.6666666666666</ele><time>2026-04-23T07:18:02.65Z</time></trkpt><trkpt lat="39.9778268" lon="9.1868629"><ele>565.3333333333333</ele><time>2026-04-23T07:18:03.658Z</time></trkpt><trkpt lat="39.9778282" lon="9.1867522"><ele>565.0</ele><time>2026-04-23T07:18:04.653Z</time></trkpt><trkpt lat="39.9778236" lon="9.1866697"><ele>564.6666666666666</ele><time>2026-04-23T07:18:05.677Z</time></trkpt><trkpt lat="39.9777844" lon="9.186592"><ele>564.3333333333334</ele><time>2026-04-23T07:18:06.664Z</time></trkpt><trkpt lat="39.9777475" lon="9.1864921"><ele>564.0</ele><time>2026-04-23T07:18:07.654Z</time></trkpt><trkpt lat="39.9776893" lon="9.186444"><ele>563.75</ele><time>2026-04-23T07:18:08.651Z</time></trkpt><trkpt lat="39.977622" lon="9.1864461"><ele>563.5</ele><time>2026-04-23T07:18:09.678Z</time></trkpt><trkpt lat="39.9775037" lon="9.1865234"><ele>563.25</ele><time>2026-04-23T07:18:10.664Z</time></trkpt><trkpt lat="39.9773732" lon="9.1865455"><ele>563.0</ele><time>2026-04-23T07:18:11.658Z</time></trkpt><trkpt lat="39.977187" lon="9.1866323"><ele>567.0</ele><time>2026-04-23T07:18:12.653Z</time></trkpt><trkpt lat="39.9770185" lon="9.1866784"><ele>571.0</ele><time>2026-04-23T07:18:13.656Z</time></trkpt><trkpt lat="39.9768577" lon="9.1866755"><ele>575.0</ele><time>2026-04-23T07:18:14.662Z</time></trkpt><trkpt lat="39.9767089" lon="9.186655"><ele>576.75</ele><time>2026-04-23T07:18:15.662Z</time></trkpt><trkpt lat="39.9765638" lon="9.186638"><ele>578.5</ele><time>2026-04-23T07:18:16.652Z</time></trkpt><trkpt lat="39.9764267" lon="9.1866457"><ele>580.25</ele><time>2026-04-23T07:18:17.652Z</time></trkpt><trkpt lat="39.9762872" lon="9.1866697"><ele>582.0</ele><time>2026-04-23T07:18:18.659Z</time></trkpt><trkpt lat="39.9761566" lon="9.186696"><ele>582.0</ele><time>2026-04-23T07:18:19.657Z</time></trkpt><trkpt lat="39.9760178" lon="9.1867031"><ele>582.0</ele><time>2026-04-23T07:18:20.674Z</time></trkpt><trkpt lat="39.9758726" lon="9.186696"><ele>582.0</ele><time>2026-04-23T07:18:21.684Z</time></trkpt><trkpt lat="39.9757316" lon="9.1866808"><ele>582.0</ele><time>2026-04-23T07:18:22.655Z</time></trkpt><trkpt lat="39.9755938" lon="9.1866338"><ele>583.0</ele><time>2026-04-23T07:18:23.659Z</time></trkpt><trkpt lat="39.9754612" lon="9.1865715"><ele>584.0</ele><time>2026-04-23T07:18:24.668Z</time></trkpt><trkpt lat="39.9753404" lon="9.1865129"><ele>585.0</ele><time>2026-04-23T07:18:25.658Z</time></trkpt><trkpt lat="39.9752157" lon="9.1864561"><ele>586.0</ele><time>2026-04-23T07:18:26.662Z</time></trkpt><trkpt lat="39.9750812" lon="9.1864299"><ele>582.5</ele><time>2026-04-23T07:18:27.655Z</time></trkpt><trkpt lat="39.9749447" lon="9.1864174"><ele>579.0</ele><time>2026-04-23T07:18:28.653Z</time></trkpt><trkpt lat="39.9748087" lon="9.1864049"><ele>575.5</ele><time>2026-04-23T07:18:29.656Z</time></trkpt><trkpt lat="39.9746756" lon="9.186391"><ele>572.0</ele><time>2026-04-23T07:18:30.667Z</time></trkpt><trkpt lat="39.9745473" lon="9.186403"><ele>572.0</ele><time>2026-04-23T07:18:31.646Z</time></trkpt><trkpt lat="39.9744203" lon="9.1864412"><ele>572.0</ele><time>2026-04-23T07:18:32.655Z</time></trkpt><trkpt lat="39.9743018" lon="9.1865015"><ele>572.0</ele><time>2026-04-23T07:18:33.655Z</time></trkpt><trkpt lat="39.9741826" lon="9.1865792"><ele>572.0</ele><time>2026-04-23T07:18:34.651Z</time></trkpt><trkpt lat="39.9740676" lon="9.1866505"><ele>576.5</ele><time>2026-04-23T07:18:35.642Z</time></trkpt><trkpt lat="39.9739533" lon="9.1866968"><ele>581.0</ele><time>2026-04-23T07:18:36.649Z</time></trkpt><trkpt lat="39.9738585" lon="9.1867638"><ele>585.5</ele><time>2026-04-23T07:18:37.654Z</time></trkpt><trkpt lat="39.9737676" lon="9.1868415"><ele>590.0</ele><time>2026-04-23T07:18:38.651Z</time></trkpt><trkpt lat="39.9736683" lon="9.1869337"><ele>590.0</ele><time>2026-04-23T07:18:39.652Z</time></trkpt><trkpt lat="39.9736009" lon="9.1870566"><ele>590.0</ele><time>2026-04-23T07:18:40.669Z</time></trkpt><trkpt lat="39.973559" lon="9.1871837"><ele>590.0</ele><time>2026-04-23T07:18:41.678Z</time></trkpt><trkpt lat="39.9735159" lon="9.1872631"><ele>590.0</ele><time>2026-04-23T07:18:42.676Z</time></trkpt><trkpt lat="39.9734698" lon="9.1873318"><ele>590.0</ele><time>2026-04-23T07:18:43.67Z</time></trkpt><trkpt lat="39.9734222" lon="9.1874007"><ele>590.0</ele><time>2026-04-23T07:18:44.677Z</time></trkpt><trkpt lat="39.9733032" lon="9.1873741"><ele>589.2</ele><time>2026-04-23T07:18:46.661Z</time></trkpt><trkpt lat="39.9732127" lon="9.1872894"><ele>588.4</ele><time>2026-04-23T07:18:47.652Z</time></trkpt><trkpt lat="39.9731121" lon="9.1872157"><ele>587.6</ele><time>2026-04-23T07:18:48.655Z</time></trkpt><trkpt lat="39.9730125" lon="9.1871717"><ele>586.8</ele><time>2026-04-23T07:18:49.656Z</time></trkpt><trkpt lat="39.9729007" lon="9.1871304"><ele>586.0</ele><time>2026-04-23T07:18:50.662Z</time></trkpt><trkpt lat="39.9727694" lon="9.1871593"><ele>586.0</ele><time>2026-04-23T07:18:51.658Z</time></trkpt><trkpt lat="39.9726366" lon="9.1872034"><ele>586.0</ele><time>2026-04-23T07:18:52.657Z</time></trkpt><trkpt lat="39.9725064" lon="9.1873051"><ele>586.0</ele><time>2026-04-23T07:18:53.657Z</time></trkpt><trkpt lat="39.9723668" lon="9.1873969"><ele>586.0</ele><time>2026-04-23T07:18:54.656Z</time></trkpt><trkpt lat="39.9721841" lon="9.1875645"><ele>592.0</ele><time>2026-04-23T07:18:55.66Z</time></trkpt><trkpt lat="39.9720242" lon="9.1877183"><ele>598.0</ele><time>2026-04-23T07:18:56.657Z</time></trkpt><trkpt lat="39.9718909" lon="9.1878058"><ele>604.0</ele><time>2026-04-23T07:18:57.655Z</time></trkpt><trkpt lat="39.9717944" lon="9.1878568"><ele>604.0</ele><time>2026-04-23T07:18:58.655Z</time></trkpt><trkpt lat="39.9717212" lon="9.1879679"><ele>604.0</ele><time>2026-04-23T07:18:59.652Z</time></trkpt><trkpt lat="39.9716208" lon="9.1880815"><ele>604.0</ele><time>2026-04-23T07:19:00.66Z</time></trkpt><trkpt lat="39.9715544" lon="9.1882352"><ele>604.0</ele><time>2026-04-23T07:19:01.646Z</time></trkpt><trkpt lat="39.9714792" lon="9.1883708"><ele>604.5</ele><time>2026-04-23T07:19:02.647Z</time></trkpt><trkpt lat="39.9714711" lon="9.1885582"><ele>605.0</ele><time>2026-04-23T07:19:03.651Z</time></trkpt><trkpt lat="39.971432" lon="9.1887391"><ele>605.5</ele><time>2026-04-23T07:19:04.678Z</time></trkpt><trkpt lat="39.9714411" lon="9.1889269"><ele>606.0</ele><time>2026-04-23T07:19:05.67Z</time></trkpt><trkpt lat="39.9714645" lon="9.1891077"><ele>608.75</ele><time>2026-04-23T07:19:06.677Z</time></trkpt><trkpt lat="39.9714403" lon="9.189243"><ele>611.5</ele><time>2026-04-23T07:19:07.667Z</time></trkpt><trkpt lat="39.9714216" lon="9.1893729"><ele>614.25</ele><time>2026-04-23T07:19:08.672Z</time></trkpt><trkpt lat="39.9713554" lon="9.1894569"><ele>617.0</ele><time>2026-04-23T07:19:10.678Z</time></trkpt><trkpt lat="39.9712004" lon="9.1894005"><ele>617.0</ele><time>2026-04-23T07:19:12.678Z</time></trkpt><trkpt lat="39.9711471" lon="9.1893049"><ele>617.0</ele><time>2026-04-23T07:19:13.652Z</time></trkpt><trkpt lat="39.9710779" lon="9.1891695"><ele>617.0</ele><time>2026-04-23T07:19:14.648Z</time></trkpt><trkpt lat="39.9710047" lon="9.1890286"><ele>617.0</ele><time>2026-04-23T07:19:15.65Z</time></trkpt><trkpt lat="39.970925" lon="9.1888995"><ele>612.25</ele><time>2026-04-23T07:19:16.651Z</time></trkpt><trkpt lat="39.9708237" lon="9.1887876"><ele>607.5</ele><time>2026-04-23T07:19:17.653Z</time></trkpt><trkpt lat="39.9707089" lon="9.1887056"><ele>602.75</ele><time>2026-04-23T07:19:18.651Z</time></trkpt><trkpt lat="39.970607" lon="9.1886585"><ele>598.0</ele><time>2026-04-23T07:19:19.648Z</time></trkpt><trkpt lat="39.9705031" lon="9.1886562"><ele>598.0</ele><time>2026-04-23T07:19:20.66Z</time></trkpt><trkpt lat="39.9703934" lon="9.188679"><ele>598.0</ele><time>2026-04-23T07:19:21.652Z</time></trkpt><trkpt lat="39.970238" lon="9.1887849"><ele>598.0</ele><time>2026-04-23T07:19:22.654Z</time></trkpt><trkpt lat="39.9700914" lon="9.1889146"><ele>597.0</ele><time>2026-04-23T07:19:23.674Z</time></trkpt><trkpt lat="39.9699647" lon="9.1889906"><ele>596.0</ele><time>2026-04-23T07:19:24.67Z</time></trkpt><trkpt lat="39.9698036" lon="9.1890735"><ele>595.0</ele><time>2026-04-23T07:19:25.673Z</time></trkpt><trkpt lat="39.9696508" lon="9.1890943"><ele>600.6666666666667</ele><time>2026-04-23T07:19:26.649Z</time></trkpt><trkpt lat="39.9694887" lon="9.1891394"><ele>606.3333333333334</ele><time>2026-04-23T07:19:27.652Z</time></trkpt><trkpt lat="39.9693375" lon="9.1891647"><ele>612.0</ele><time>2026-04-23T07:19:28.654Z</time></trkpt><trkpt lat="39.9691932" lon="9.1891668"><ele>612.3333333333334</ele><time>2026-04-23T07:19:29.652Z</time></trkpt><trkpt lat="39.969091" lon="9.1892064"><ele>612.6666666666667</ele><time>2026-04-23T07:19:30.656Z</time></trkpt><trkpt lat="39.9689367" lon="9.1892569"><ele>613.0</ele><time>2026-04-23T07:19:31.652Z</time></trkpt><trkpt lat="39.9687729" lon="9.1894378"><ele>613.0</ele><time>2026-04-23T07:19:32.652Z</time></trkpt><trkpt lat="39.9686963" lon="9.1896157"><ele>613.0</ele><time>2026-04-23T07:19:33.657Z</time></trkpt><trkpt lat="39.9686224" lon="9.18977"><ele>613.0</ele><time>2026-04-23T07:19:34.655Z</time></trkpt><trkpt lat="39.9685226" lon="9.1899151"><ele>613.0</ele><time>2026-04-23T07:19:35.654Z</time></trkpt><trkpt lat="39.9684169" lon="9.190069"><ele>613.5</ele><time>2026-04-23T07:19:36.649Z</time></trkpt><trkpt lat="39.9683555" lon="9.1902233"><ele>614.0</ele><time>2026-04-23T07:19:37.653Z</time></trkpt><trkpt lat="39.9682912" lon="9.1903519"><ele>614.5</ele><time>2026-04-23T07:19:38.649Z</time></trkpt><trkpt lat="39.9682319" lon="9.1904738"><ele>615.0</ele><time>2026-04-23T07:19:39.671Z</time></trkpt><trkpt lat="39.9681588" lon="9.1905559"><ele>615.0</ele><time>2026-04-23T07:19:40.688Z</time></trkpt><trkpt lat="39.9680942" lon="9.1906142"><ele>615.0</ele><time>2026-04-23T07:19:41.675Z</time></trkpt><trkpt lat="39.9680185" lon="9.1906701"><ele>615.0</ele><time>2026-04-23T07:19:42.676Z</time></trkpt><trkpt lat="39.9679316" lon="9.1906229"><ele>615.0</ele><time>2026-04-23T07:19:43.675Z</time></trkpt><trkpt lat="39.9678185" lon="9.1905218"><ele>615.0</ele><time>2026-04-23T07:19:44.675Z</time></trkpt><trkpt lat="39.9677545" lon="9.1904503"><ele>615.0</ele><time>2026-04-23T07:19:45.669Z</time></trkpt><trkpt lat="39.9676821" lon="9.1903717"><ele>615.0</ele><time>2026-04-23T07:19:46.648Z</time></trkpt><trkpt lat="39.9675939" lon="9.1902683"><ele>615.0</ele><time>2026-04-23T07:19:47.652Z</time></trkpt><trkpt lat="39.9675006" lon="9.1901574"><ele>615.0</ele><time>2026-04-23T07:19:48.654Z</time></trkpt><trkpt lat="39.9674057" lon="9.1900785"><ele>614.6</ele><time>2026-04-23T07:19:49.653Z</time></trkpt><trkpt lat="39.9673081" lon="9.190003"><ele>614.2</ele><time>2026-04-23T07:19:50.653Z</time></trkpt><trkpt lat="39.9672009" lon="9.1899559"><ele>613.8</ele><time>2026-04-23T07:19:51.663Z</time></trkpt><trkpt lat="39.9670964" lon="9.1899331"><ele>613.4</ele><time>2026-04-23T07:19:52.652Z</time></trkpt><trkpt lat="39.9670184" lon="9.1898945"><ele>613.0</ele><time>2026-04-23T07:19:53.653Z</time></trkpt><trkpt lat="39.9669515" lon="9.1898371"><ele>613.0</ele><time>2026-04-23T07:19:54.659Z</time></trkpt><trkpt lat="39.9668619" lon="9.1897832"><ele>613.0</ele><time>2026-04-23T07:19:55.658Z</time></trkpt><trkpt lat="39.9667762" lon="9.1897239"><ele>613.0</ele><time>2026-04-23T07:19:56.666Z</time></trkpt><trkpt lat="39.96668" lon="9.1896525"><ele>613.0</ele><time>2026-04-23T07:19:57.661Z</time></trkpt><trkpt lat="39.9665842" lon="9.1895939"><ele>613.0</ele><time>2026-04-23T07:19:58.66Z</time></trkpt><trkpt lat="39.9664819" lon="9.1895561"><ele>616.0</ele><time>2026-04-23T07:19:59.661Z</time></trkpt><trkpt lat="39.9663457" lon="9.1895488"><ele>619.0</ele><time>2026-04-23T07:20:00.652Z</time></trkpt><trkpt lat="39.9662246" lon="9.1895417"><ele>622.0</ele><time>2026-04-23T07:20:01.666Z</time></trkpt><trkpt lat="39.9661243" lon="9.1895511"><ele>625.0</ele><time>2026-04-23T07:20:02.655Z</time></trkpt><trkpt lat="39.9660557" lon="9.1895412"><ele>628.0</ele><time>2026-04-23T07:20:03.66Z</time></trkpt><trkpt lat="39.9659906" lon="9.1895279"><ele>628.0</ele><time>2026-04-23T07:20:04.655Z</time></trkpt><trkpt lat="39.9658754" lon="9.1894423"><ele>628.0</ele><time>2026-04-23T07:20:06.657Z</time></trkpt><trkpt lat="39.9658528" lon="9.1893656"><ele>628.0</ele><time>2026-04-23T07:20:07.658Z</time></trkpt><trkpt lat="39.9658676" lon="9.1892779"><ele>628.0</ele><time>2026-04-23T07:20:08.658Z</time></trkpt><trkpt lat="39.965925" lon="9.1892087"><ele>628.0</ele><time>2026-04-23T07:20:09.649Z</time></trkpt><trkpt lat="39.9659821" lon="9.1891448"><ele>628.0</ele><time>2026-04-23T07:20:10.641Z</time></trkpt><trkpt lat="39.9660753" lon="9.1891011"><ele>628.0</ele><time>2026-04-23T07:20:11.66Z</time></trkpt><trkpt lat="39.9661776" lon="9.1890424"><ele>628.0</ele><time>2026-04-23T07:20:12.641Z</time></trkpt><trkpt lat="39.9662847" lon="9.1890166"><ele>628.0</ele><time>2026-04-23T07:20:13.645Z</time></trkpt><trkpt lat="39.9664195" lon="9.1889756"><ele>628.0</ele><time>2026-04-23T07:20:14.642Z</time></trkpt><trkpt lat="39.9665359" lon="9.1889364"><ele>627.25</ele><time>2026-04-23T07:20:15.646Z</time></trkpt><trkpt lat="39.9666634" lon="9.1888841"><ele>626.5</ele><time>2026-04-23T07:20:16.646Z</time></trkpt><trkpt lat="39.966792" lon="9.1887791"><ele>625.75</ele><time>2026-04-23T07:20:17.649Z</time></trkpt><trkpt lat="39.9668878" lon="9.1886653"><ele>625.0</ele><time>2026-04-23T07:20:18.652Z</time></trkpt><trkpt lat="39.9669562" lon="9.1884794"><ele>625.0</ele><time>2026-04-23T07:20:19.654Z</time></trkpt><trkpt lat="39.9670097" lon="9.1882882"><ele>625.0</ele><time>2026-04-23T07:20:20.652Z</time></trkpt><trkpt lat="39.9670884" lon="9.1881624"><ele>625.0</ele><time>2026-04-23T07:20:21.667Z</time></trkpt><trkpt lat="39.9671911" lon="9.1880936"><ele>625.0</ele><time>2026-04-23T07:20:22.653Z</time></trkpt><trkpt lat="39.9672787" lon="9.1880654"><ele>623.0</ele><time>2026-04-23T07:20:23.65Z</time></trkpt><trkpt lat="39.9673496" lon="9.1880041"><ele>621.0</ele><time>2026-04-23T07:20:24.654Z</time></trkpt><trkpt lat="39.9674264" lon="9.187922"><ele>619.0</ele><time>2026-04-23T07:20:25.655Z</time></trkpt><trkpt lat="39.9674808" lon="9.187853"><ele>617.0</ele><time>2026-04-23T07:20:26.66Z</time></trkpt><trkpt lat="39.9675627" lon="9.1877515"><ele>615.0</ele><time>2026-04-23T07:20:27.658Z</time></trkpt><trkpt lat="39.9676034" lon="9.1876607"><ele>615.0</ele><time>2026-04-23T07:20:28.657Z</time></trkpt><trkpt lat="39.9676428" lon="9.1875581"><ele>615.0</ele><time>2026-04-23T07:20:29.653Z</time></trkpt><trkpt lat="39.9676796" lon="9.1874528"><ele>615.0</ele><time>2026-04-23T07:20:30.65Z</time></trkpt><trkpt lat="39.9677215" lon="9.1873346"><ele>615.0</ele><time>2026-04-23T07:20:31.664Z</time></trkpt><trkpt lat="39.9677586" lon="9.1872155"><ele>615.0</ele><time>2026-04-23T07:20:32.65Z</time></trkpt><trkpt lat="39.9677817" lon="9.1870992"><ele>615.6666666666666</ele><time>2026-04-23T07:20:33.647Z</time></trkpt><trkpt lat="39.9677944" lon="9.1869836"><ele>616.3333333333334</ele><time>2026-04-23T07:20:34.653Z</time></trkpt><trkpt lat="39.9677942" lon="9.1868763"><ele>617.0</ele><time>2026-04-23T07:20:35.649Z</time></trkpt><trkpt lat="39.9677782" lon="9.1867824"><ele>617.6666666666667</ele><time>2026-04-23T07:20:36.649Z</time></trkpt><trkpt lat="39.96774" lon="9.1867106"><ele>618.3333333333334</ele><time>2026-04-23T07:20:37.679Z</time></trkpt><trkpt lat="39.9676681" lon="9.1866537"><ele>619.0</ele><time>2026-04-23T07:20:38.657Z</time></trkpt><trkpt lat="39.9675771" lon="9.1866376"><ele>622.4</ele><time>2026-04-23T07:20:39.657Z</time></trkpt><trkpt lat="39.9674823" lon="9.1866725"><ele>625.8</ele><time>2026-04-23T07:20:40.667Z</time></trkpt><trkpt lat="39.9673939" lon="9.186709"><ele>629.2</ele><time>2026-04-23T07:20:41.669Z</time></trkpt><trkpt lat="39.9673005" lon="9.1867412"><ele>632.6</ele><time>2026-04-23T07:20:42.68Z</time></trkpt><trkpt lat="39.9672135" lon="9.1867863"><ele>636.0</ele><time>2026-04-23T07:20:43.656Z</time></trkpt><trkpt lat="39.9671182" lon="9.1868086"><ele>636.0</ele><time>2026-04-23T07:20:44.677Z</time></trkpt><trkpt lat="39.9670237" lon="9.1868137"><ele>636.0</ele><time>2026-04-23T07:20:45.649Z</time></trkpt><trkpt lat="39.9669482" lon="9.1867813"><ele>636.0</ele><time>2026-04-23T07:20:46.657Z</time></trkpt><trkpt lat="39.9669304" lon="9.1866963"><ele>636.0</ele><time>2026-04-23T07:20:47.656Z</time></trkpt><trkpt lat="39.9669369" lon="9.1865952"><ele>636.0</ele><time>2026-04-23T07:20:48.65Z</time></trkpt><trkpt lat="39.9669453" lon="9.1864606"><ele>636.0</ele><time>2026-04-23T07:20:49.647Z</time></trkpt><trkpt lat="39.9669323" lon="9.1863412"><ele>635.0</ele><time>2026-04-23T07:20:50.644Z</time></trkpt><trkpt lat="39.966889" lon="9.1862042"><ele>634.0</ele><time>2026-04-23T07:20:51.65Z</time></trkpt><trkpt lat="39.9668483" lon="9.1860621"><ele>633.0</ele><time>2026-04-23T07:20:52.654Z</time></trkpt><trkpt lat="39.9667825" lon="9.1859441"><ele>632.0</ele><time>2026-04-23T07:20:53.651Z</time></trkpt><trkpt lat="39.9667296" lon="9.18585"><ele>631.0</ele><time>2026-04-23T07:20:54.651Z</time></trkpt><trkpt lat="39.9666662" lon="9.1857668"><ele>633.8</ele><time>2026-04-23T07:20:55.651Z</time></trkpt><trkpt lat="39.9666012" lon="9.1856714"><ele>636.6</ele><time>2026-04-23T07:20:56.644Z</time></trkpt><trkpt lat="39.9665558" lon="9.18555"><ele>639.4</ele><time>2026-04-23T07:20:57.65Z</time></trkpt><trkpt lat="39.966521" lon="9.1854174"><ele>642.2</ele><time>2026-04-23T07:20:58.661Z</time></trkpt><trkpt lat="39.966477" lon="9.1853023"><ele>645.0</ele><time>2026-04-23T07:20:59.656Z</time></trkpt><trkpt lat="39.9663936" lon="9.1851613"><ele>645.0</ele><time>2026-04-23T07:21:00.66Z</time></trkpt><trkpt lat="39.9663195" lon="9.1850255"><ele>645.0</ele><time>2026-04-23T07:21:01.681Z</time></trkpt><trkpt lat="39.9662472" lon="9.1848883"><ele>645.0</ele><time>2026-04-23T07:21:02.665Z</time></trkpt><trkpt lat="39.9661707" lon="9.1847565"><ele>645.0</ele><time>2026-04-23T07:21:03.67Z</time></trkpt><trkpt lat="39.9661066" lon="9.1846418"><ele>645.0</ele><time>2026-04-23T07:21:04.666Z</time></trkpt><trkpt lat="39.9660187" lon="9.1845262"><ele>645.0</ele><time>2026-04-23T07:21:05.667Z</time></trkpt><trkpt lat="39.965929" lon="9.1844403"><ele>645.0</ele><time>2026-04-23T07:21:06.665Z</time></trkpt><trkpt lat="39.9658161" lon="9.184368"><ele>645.0</ele><time>2026-04-23T07:21:07.67Z</time></trkpt><trkpt lat="39.9657117" lon="9.1843115"><ele>645.0</ele><time>2026-04-23T07:21:08.667Z</time></trkpt><trkpt lat="39.9656154" lon="9.1842585"><ele>645.0</ele><time>2026-04-23T07:21:09.666Z</time></trkpt><trkpt lat="39.9655179" lon="9.1842264"><ele>645.0</ele><time>2026-04-23T07:21:10.661Z</time></trkpt><trkpt lat="39.9654168" lon="9.1842056"><ele>645.0</ele><time>2026-04-23T07:21:11.653Z</time></trkpt><trkpt lat="39.9653257" lon="9.1841909"><ele>645.0</ele><time>2026-04-23T07:21:12.65Z</time></trkpt><trkpt lat="39.9652086" lon="9.1842344"><ele>645.0</ele><time>2026-04-23T07:21:13.654Z</time></trkpt><trkpt lat="39.9650946" lon="9.1842805"><ele>645.0</ele><time>2026-04-23T07:21:14.644Z</time></trkpt><trkpt lat="39.9649746" lon="9.1843164"><ele>645.0</ele><time>2026-04-23T07:21:15.67Z</time></trkpt><trkpt lat="39.9648506" lon="9.1843222"><ele>645.0</ele><time>2026-04-23T07:21:16.676Z</time></trkpt><trkpt lat="39.9647515" lon="9.1843207"><ele>646.2</ele><time>2026-04-23T07:21:17.648Z</time></trkpt><trkpt lat="39.9646461" lon="9.1842926"><ele>647.4</ele><time>2026-04-23T07:21:18.649Z</time></trkpt><trkpt lat="39.9645626" lon="9.1842739"><ele>648.5999999999999</ele><time>2026-04-23T07:21:19.658Z</time></trkpt><trkpt lat="39.9644767" lon="9.1842772"><ele>649.8</ele><time>2026-04-23T07:21:20.653Z</time></trkpt><trkpt lat="39.9643847" lon="9.1843214"><ele>651.0</ele><time>2026-04-23T07:21:21.655Z</time></trkpt><trkpt lat="39.964292" lon="9.1843685"><ele>651.1666666666666</ele><time>2026-04-23T07:21:22.683Z</time></trkpt><trkpt lat="39.9641894" lon="9.1844126"><ele>651.3333333333334</ele><time>2026-04-23T07:21:23.679Z</time></trkpt><trkpt lat="39.9641091" lon="9.1844246"><ele>651.5</ele><time>2026-04-23T07:21:24.65Z</time></trkpt><trkpt lat="39.9640268" lon="9.1843915"><ele>651.6666666666667</ele><time>2026-04-23T07:21:25.656Z</time></trkpt><trkpt lat="39.963971" lon="9.1843488"><ele>651.8333333333334</ele><time>2026-04-23T07:21:26.657Z</time></trkpt><trkpt lat="39.9639081" lon="9.1843229"><ele>652.0</ele><time>2026-04-23T07:21:27.657Z</time></trkpt><trkpt lat="39.9637819" lon="9.1843254"><ele>652.0</ele><time>2026-04-23T07:21:29.664Z</time></trkpt><trkpt lat="39.9637088" lon="9.184333"><ele>652.0</ele><time>2026-04-23T07:21:30.661Z</time></trkpt><trkpt lat="39.9636332" lon="9.1843444"><ele>652.0</ele><time>2026-04-23T07:21:31.656Z</time></trkpt><trkpt lat="39.9635564" lon="9.1843624"><ele>652.0</ele><time>2026-04-23T07:21:32.659Z</time></trkpt><trkpt lat="39.9634755" lon="9.1843765"><ele>652.0</ele><time>2026-04-23T07:21:33.657Z</time></trkpt><trkpt lat="39.9633928" lon="9.1843825"><ele>652.0</ele><time>2026-04-23T07:21:34.66Z</time></trkpt><trkpt lat="39.9633033" lon="9.1843993"><ele>651.6</ele><time>2026-04-23T07:21:35.66Z</time></trkpt><trkpt lat="39.9632192" lon="9.1844309"><ele>651.2</ele><time>2026-04-23T07:21:36.655Z</time></trkpt><trkpt lat="39.9631296" lon="9.1844769"><ele>650.8</ele><time>2026-04-23T07:21:37.659Z</time></trkpt><trkpt lat="39.963043" lon="9.184566"><ele>650.4</ele><time>2026-04-23T07:21:38.657Z</time></trkpt><trkpt lat="39.9629566" lon="9.1846717"><ele>650.0</ele><time>2026-04-23T07:21:39.659Z</time></trkpt><trkpt lat="39.9628757" lon="9.1847913"><ele>654.0</ele><time>2026-04-23T07:21:40.675Z</time></trkpt><trkpt lat="39.9627817" lon="9.1848758"><ele>658.0</ele><time>2026-04-23T07:21:41.68Z</time></trkpt><trkpt lat="39.9626822" lon="9.1849574"><ele>662.0</ele><time>2026-04-23T07:21:42.685Z</time></trkpt><trkpt lat="39.96258" lon="9.1850242"><ele>666.0</ele><time>2026-04-23T07:21:43.685Z</time></trkpt><trkpt lat="39.9624637" lon="9.1850659"><ele>666.0</ele><time>2026-04-23T07:21:44.684Z</time></trkpt><trkpt lat="39.9623354" lon="9.1850836"><ele>666.0</ele><time>2026-04-23T07:21:45.652Z</time></trkpt><trkpt lat="39.962228" lon="9.1850827"><ele>666.0</ele><time>2026-04-23T07:21:46.658Z</time></trkpt><trkpt lat="39.9621175" lon="9.1850726"><ele>666.0</ele><time>2026-04-23T07:21:47.663Z</time></trkpt><trkpt lat="39.9620139" lon="9.1850628"><ele>666.0</ele><time>2026-04-23T07:21:48.66Z</time></trkpt><trkpt lat="39.961913" lon="9.1850535"><ele>666.0</ele><time>2026-04-23T07:21:49.659Z</time></trkpt><trkpt lat="39.9618085" lon="9.18504"><ele>666.0</ele><time>2026-04-23T07:21:50.652Z</time></trkpt><trkpt lat="39.961729" lon="9.1850231"><ele>666.0</ele><time>2026-04-23T07:21:51.652Z</time></trkpt><trkpt lat="39.9616561" lon="9.1849962"><ele>666.0</ele><time>2026-04-23T07:21:52.659Z</time></trkpt><trkpt lat="39.9615885" lon="9.184967"><ele>666.0</ele><time>2026-04-23T07:21:53.659Z</time></trkpt><trkpt lat="39.961516" lon="9.1849125"><ele>666.1666666666666</ele><time>2026-04-23T07:21:54.658Z</time></trkpt><trkpt lat="39.9614435" lon="9.1848607"><ele>666.3333333333334</ele><time>2026-04-23T07:21:55.655Z</time></trkpt><trkpt lat="39.9613747" lon="9.1847893"><ele>666.5</ele><time>2026-04-23T07:21:56.662Z</time></trkpt><trkpt lat="39.9613022" lon="9.1847392"><ele>666.6666666666667</ele><time>2026-04-23T07:21:57.665Z</time></trkpt><trkpt lat="39.9612282" lon="9.1846813"><ele>666.8333333333334</ele><time>2026-04-23T07:21:58.662Z</time></trkpt><trkpt lat="39.9611395" lon="9.1846443"><ele>667.0</ele><time>2026-04-23T07:21:59.661Z</time></trkpt><trkpt lat="39.9610569" lon="9.1846072"><ele>666.2857142857143</ele><time>2026-04-23T07:22:00.662Z</time></trkpt><trkpt lat="39.9609874" lon="9.1845661"><ele>665.5714285714286</ele><time>2026-04-23T07:22:01.657Z</time></trkpt><trkpt lat="39.9609101" lon="9.1845132"><ele>664.8571428571429</ele><time>2026-04-23T07:22:02.658Z</time></trkpt><trkpt lat="39.960846" lon="9.1844735"><ele>664.1428571428571</ele><time>2026-04-23T07:22:03.657Z</time></trkpt><trkpt lat="39.9607759" lon="9.1844316"><ele>663.4285714285714</ele><time>2026-04-23T07:22:04.656Z</time></trkpt><trkpt lat="39.9607145" lon="9.1844107"><ele>662.7142857142858</ele><time>2026-04-23T07:22:05.658Z</time></trkpt><trkpt lat="39.960647" lon="9.1843946"><ele>662.0</ele><time>2026-04-23T07:22:06.651Z</time></trkpt><trkpt lat="39.9605737" lon="9.184387"><ele>662.0</ele><time>2026-04-23T07:22:07.652Z</time></trkpt><trkpt lat="39.9604963" lon="9.1843603"><ele>662.0</ele><time>2026-04-23T07:22:08.653Z</time></trkpt><trkpt lat="39.9604187" lon="9.1843495"><ele>662.0</ele><time>2026-04-23T07:22:09.65Z</time></trkpt><trkpt lat="39.960348" lon="9.1843436"><ele>662.0</ele><time>2026-04-23T07:22:10.655Z</time></trkpt><trkpt lat="39.9602837" lon="9.1843328"><ele>662.0</ele><time>2026-04-23T07:22:11.651Z</time></trkpt><trkpt lat="39.9601763" lon="9.1842596"><ele>662.0</ele><time>2026-04-23T07:22:13.653Z</time></trkpt><trkpt lat="39.9601236" lon="9.1841823"><ele>661.8333333333333</ele><time>2026-04-23T07:22:14.65Z</time></trkpt><trkpt lat="39.96003" lon="9.1840726"><ele>661.6666666666666</ele><time>2026-04-23T07:22:16.649Z</time></trkpt><trkpt lat="39.9599794" lon="9.1840032"><ele>661.5</ele><time>2026-04-23T07:22:17.645Z</time></trkpt><trkpt lat="39.9599439" lon="9.1839132"><ele>661.3333333333334</ele><time>2026-04-23T07:22:18.648Z</time></trkpt><trkpt lat="39.9598823" lon="9.1838514"><ele>661.1666666666667</ele><time>2026-04-23T07:22:19.645Z</time></trkpt><trkpt lat="39.9598224" lon="9.1837721"><ele>661.0</ele><time>2026-04-23T07:22:20.644Z</time></trkpt><trkpt lat="39.9597677" lon="9.1836993"><ele>661.0</ele><time>2026-04-23T07:22:21.655Z</time></trkpt><trkpt lat="39.9597032" lon="9.1836457"><ele>661.0</ele><time>2026-04-23T07:22:22.653Z</time></trkpt><trkpt lat="39.9596396" lon="9.1835884"><ele>661.0</ele><time>2026-04-23T07:22:23.648Z</time></trkpt><trkpt lat="39.9595465" lon="9.183524"><ele>661.0</ele><time>2026-04-23T07:22:24.653Z</time></trkpt><trkpt lat="39.959448" lon="9.1834319"><ele>661.0</ele><time>2026-04-23T07:22:25.656Z</time></trkpt><trkpt lat="39.9593351" lon="9.1833649"><ele>661.0</ele><time>2026-04-23T07:22:26.658Z</time></trkpt><trkpt lat="39.9592139" lon="9.1832901"><ele>661.0</ele><time>2026-04-23T07:22:27.655Z</time></trkpt><trkpt lat="39.9590867" lon="9.1832362"><ele>661.0</ele><time>2026-04-23T07:22:28.657Z</time></trkpt><trkpt lat="39.958954" lon="9.1832355"><ele>661.0</ele><time>2026-04-23T07:22:29.652Z</time></trkpt><trkpt lat="39.9588172" lon="9.183244"><ele>664.5</ele><time>2026-04-23T07:22:30.651Z</time></trkpt><trkpt lat="39.9586836" lon="9.1832387"><ele>668.0</ele><time>2026-04-23T07:22:31.652Z</time></trkpt><trkpt lat="39.9585442" lon="9.1832512"><ele>671.5</ele><time>2026-04-23T07:22:32.653Z</time></trkpt><trkpt lat="39.9584009" lon="9.1832469"><ele>675.0</ele><time>2026-04-23T07:22:33.645Z</time></trkpt><trkpt lat="39.958265" lon="9.1832153"><ele>674.5</ele><time>2026-04-23T07:22:34.636Z</time></trkpt><trkpt lat="39.9581205" lon="9.1832072"><ele>674.0</ele><time>2026-04-23T07:22:35.647Z</time></trkpt><trkpt lat="39.9579883" lon="9.1831712"><ele>673.5</ele><time>2026-04-23T07:22:36.645Z</time></trkpt><trkpt lat="39.9578754" lon="9.1831012"><ele>673.0</ele><time>2026-04-23T07:22:37.647Z</time></trkpt><trkpt lat="39.9578083" lon="9.1829789"><ele>673.0</ele><time>2026-04-23T07:22:38.649Z</time></trkpt><trkpt lat="39.9577333" lon="9.1828755"><ele>673.0</ele><time>2026-04-23T07:22:39.657Z</time></trkpt><trkpt lat="39.9576668" lon="9.1827754"><ele>673.0</ele><time>2026-04-23T07:22:40.659Z</time></trkpt><trkpt lat="39.9575931" lon="9.1826709"><ele>673.0</ele><time>2026-04-23T07:22:41.659Z</time></trkpt><trkpt lat="39.9575429" lon="9.1825422"><ele>673.0</ele><time>2026-04-23T07:22:42.658Z</time></trkpt><trkpt lat="39.9575158" lon="9.18242"><ele>675.8</ele><time>2026-04-23T07:22:43.663Z</time></trkpt><trkpt lat="39.9575076" lon="9.1822654"><ele>678.5999999999999</ele><time>2026-04-23T07:22:44.671Z</time></trkpt><trkpt lat="39.9574984" lon="9.1821106"><ele>681.4000000000001</ele><time>2026-04-23T07:22:45.671Z</time></trkpt><trkpt lat="39.9574732" lon="9.1819909"><ele>684.2</ele><time>2026-04-23T07:22:46.667Z</time></trkpt><trkpt lat="39.9574297" lon="9.1818915"><ele>687.0</ele><time>2026-04-23T07:22:47.658Z</time></trkpt><trkpt lat="39.9573723" lon="9.1818079"><ele>687.0</ele><time>2026-04-23T07:22:48.666Z</time></trkpt><trkpt lat="39.9573084" lon="9.1817666"><ele>687.0</ele><time>2026-04-23T07:22:49.66Z</time></trkpt><trkpt lat="39.9572263" lon="9.1817602"><ele>687.0</ele><time>2026-04-23T07:22:50.662Z</time></trkpt><trkpt lat="39.9571426" lon="9.1817927"><ele>687.0</ele><time>2026-04-23T07:22:51.669Z</time></trkpt><trkpt lat="39.9570465" lon="9.1818621"><ele>687.0</ele><time>2026-04-23T07:22:52.664Z</time></trkpt><trkpt lat="39.9569374" lon="9.1819475"><ele>687.0</ele><time>2026-04-23T07:22:53.657Z</time></trkpt><trkpt lat="39.9568323" lon="9.1820478"><ele>687.0</ele><time>2026-04-23T07:22:54.655Z</time></trkpt><trkpt lat="39.9567253" lon="9.1821541"><ele>687.0</ele><time>2026-04-23T07:22:55.685Z</time></trkpt><trkpt lat="39.9566207" lon="9.1822762"><ele>687.0</ele><time>2026-04-23T07:22:56.654Z</time></trkpt><trkpt lat="39.9565242" lon="9.1823953"><ele>690.0</ele><time>2026-04-23T07:22:57.658Z</time></trkpt><trkpt lat="39.9564453" lon="9.182499"><ele>693.0</ele><time>2026-04-23T07:22:58.65Z</time></trkpt><trkpt lat="39.956366" lon="9.1826095"><ele>696.0</ele><time>2026-04-23T07:22:59.656Z</time></trkpt><trkpt lat="39.9563103" lon="9.182746"><ele>699.0</ele><time>2026-04-23T07:23:00.659Z</time></trkpt><trkpt lat="39.9563218" lon="9.182898"><ele>699.0</ele><time>2026-04-23T07:23:01.68Z</time></trkpt><trkpt lat="39.9563708" lon="9.1830585"><ele>699.0</ele><time>2026-04-23T07:23:02.675Z</time></trkpt><trkpt lat="39.9564274" lon="9.1832438"><ele>699.0</ele><time>2026-04-23T07:23:03.682Z</time></trkpt><trkpt lat="39.9564642" lon="9.1834313"><ele>699.0</ele><time>2026-04-23T07:23:04.677Z</time></trkpt><trkpt lat="39.956472" lon="9.1836134"><ele>701.0</ele><time>2026-04-23T07:23:05.672Z</time></trkpt><trkpt lat="39.95645" lon="9.1837601"><ele>703.0</ele><time>2026-04-23T07:23:06.676Z</time></trkpt><trkpt lat="39.9563937" lon="9.1839237"><ele>705.0</ele><time>2026-04-23T07:23:07.671Z</time></trkpt><trkpt lat="39.9562851" lon="9.1840339"><ele>707.0</ele><time>2026-04-23T07:23:08.681Z</time></trkpt><trkpt lat="39.9561911" lon="9.184132"><ele>710.0</ele><time>2026-04-23T07:23:09.681Z</time></trkpt><trkpt lat="39.9561224" lon="9.1842284"><ele>713.0</ele><time>2026-04-23T07:23:10.651Z</time></trkpt><trkpt lat="39.9560433" lon="9.1843573"><ele>716.0</ele><time>2026-04-23T07:23:11.659Z</time></trkpt><trkpt lat="39.955938" lon="9.1844778"><ele>719.0</ele><time>2026-04-23T07:23:12.659Z</time></trkpt><trkpt lat="39.9559162" lon="9.1846386"><ele>719.0</ele><time>2026-04-23T07:23:13.682Z</time></trkpt><trkpt lat="39.9558741" lon="9.184799"><ele>719.0</ele><time>2026-04-23T07:23:14.679Z</time></trkpt><trkpt lat="39.9558851" lon="9.1849608"><ele>719.0</ele><time>2026-04-23T07:23:15.678Z</time></trkpt><trkpt lat="39.9559293" lon="9.185131"><ele>719.0</ele><time>2026-04-23T07:23:16.685Z</time></trkpt><trkpt lat="39.9559574" lon="9.1853192"><ele>722.5</ele><time>2026-04-23T07:23:17.674Z</time></trkpt><trkpt lat="39.9559905" lon="9.1855245"><ele>726.0</ele><time>2026-04-23T07:23:18.687Z</time></trkpt><trkpt lat="39.9560487" lon="9.1857086"><ele>729.5</ele><time>2026-04-23T07:23:19.675Z</time></trkpt><trkpt lat="39.9561033" lon="9.1858577"><ele>733.0</ele><time>2026-04-23T07:23:20.676Z</time></trkpt><trkpt lat="39.9561552" lon="9.1859955"><ele>734.75</ele><time>2026-04-23T07:23:21.682Z</time></trkpt><trkpt lat="39.9561366" lon="9.1861514"><ele>736.5</ele><time>2026-04-23T07:23:22.672Z</time></trkpt><trkpt lat="39.9561087" lon="9.186328"><ele>738.25</ele><time>2026-04-23T07:23:23.67Z</time></trkpt><trkpt lat="39.9560743" lon="9.1865239"><ele>740.0</ele><time>2026-04-23T07:23:24.67Z</time></trkpt><trkpt lat="39.9560661" lon="9.1867273"><ele>740.5</ele><time>2026-04-23T07:23:25.67Z</time></trkpt><trkpt lat="39.9560474" lon="9.1869302"><ele>741.0</ele><time>2026-04-23T07:23:26.676Z</time></trkpt><trkpt lat="39.9560383" lon="9.1871209"><ele>741.5</ele><time>2026-04-23T07:23:27.677Z</time></trkpt><trkpt lat="39.9560352" lon="9.1872924"><ele>742.0</ele><time>2026-04-23T07:23:28.677Z</time></trkpt><trkpt lat="39.956056" lon="9.1874537"><ele>742.6666666666667</ele><time>2026-04-23T07:23:29.679Z</time></trkpt><trkpt lat="39.956125" lon="9.1876338"><ele>743.3333333333334</ele><time>2026-04-23T07:23:30.682Z</time></trkpt><trkpt lat="39.9561637" lon="9.1878138"><ele>744.0</ele><time>2026-04-23T07:23:31.683Z</time></trkpt><trkpt lat="39.9561971" lon="9.1880355"><ele>744.0</ele><time>2026-04-23T07:23:32.685Z</time></trkpt><trkpt lat="39.956235" lon="9.1882459"><ele>744.0</ele><time>2026-04-23T07:23:33.679Z</time></trkpt><trkpt lat="39.9562716" lon="9.1884541"><ele>744.0</ele><time>2026-04-23T07:23:34.682Z</time></trkpt><trkpt lat="39.9562904" lon="9.1886698"><ele>744.0</ele><time>2026-04-23T07:23:35.681Z</time></trkpt><trkpt lat="39.9563051" lon="9.1889035"><ele>744.0</ele><time>2026-04-23T07:23:36.676Z</time></trkpt><trkpt lat="39.9563176" lon="9.1891222"><ele>744.0</ele><time>2026-04-23T07:23:37.687Z</time></trkpt><trkpt lat="39.956345" lon="9.189343"><ele>744.0</ele><time>2026-04-23T07:23:38.678Z</time></trkpt><trkpt lat="39.95636" lon="9.1895716"><ele>744.0</ele><time>2026-04-23T07:23:39.686Z</time></trkpt><trkpt lat="39.9563888" lon="9.1897719"><ele>744.0</ele><time>2026-04-23T07:23:40.674Z</time></trkpt><trkpt lat="39.9564263" lon="9.1899797"><ele>744.0</ele><time>2026-04-23T07:23:41.678Z</time></trkpt><trkpt lat="39.9564613" lon="9.1901366"><ele>744.0</ele><time>2026-04-23T07:23:42.679Z</time></trkpt><trkpt lat="39.9565205" lon="9.1902856"><ele>744.0</ele><time>2026-04-23T07:23:43.679Z</time></trkpt><trkpt lat="39.9565613" lon="9.1904209"><ele>744.0</ele><time>2026-04-23T07:23:44.671Z</time></trkpt><trkpt lat="39.9566098" lon="9.1905407"><ele>744.0</ele><time>2026-04-23T07:23:45.672Z</time></trkpt><trkpt lat="39.9566409" lon="9.190643"><ele>744.0</ele><time>2026-04-23T07:23:46.644Z</time></trkpt><trkpt lat="39.9566669" lon="9.1907676"><ele>744.0</ele><time>2026-04-23T07:23:47.65Z</time></trkpt><trkpt lat="39.9567171" lon="9.1908477"><ele>744.0</ele><time>2026-04-23T07:23:48.64Z</time></trkpt><trkpt lat="39.9567499" lon="9.1909263"><ele>744.0</ele><time>2026-04-23T07:23:49.665Z</time></trkpt><trkpt lat="39.9567471" lon="9.1910542"><ele>744.0</ele><time>2026-04-23T07:23:50.673Z</time></trkpt><trkpt lat="39.9567194" lon="9.1912022"><ele>742.75</ele><time>2026-04-23T07:23:51.674Z</time></trkpt><trkpt lat="39.9567003" lon="9.1913637"><ele>741.5</ele><time>2026-04-23T07:23:52.675Z</time></trkpt><trkpt lat="39.9566905" lon="9.1915148"><ele>740.25</ele><time>2026-04-23T07:23:53.664Z</time></trkpt><trkpt lat="39.9567176" lon="9.1916446"><ele>739.0</ele><time>2026-04-23T07:23:54.647Z</time></trkpt><trkpt lat="39.956787" lon="9.1917475"><ele>744.5</ele><time>2026-04-23T07:23:55.648Z</time></trkpt><trkpt lat="39.9568813" lon="9.1918364"><ele>750.0</ele><time>2026-04-23T07:23:56.643Z</time></trkpt><trkpt lat="39.9569977" lon="9.1919137"><ele>755.5</ele><time>2026-04-23T07:23:57.641Z</time></trkpt><trkpt lat="39.9571117" lon="9.191998"><ele>761.0</ele><time>2026-04-23T07:23:58.642Z</time></trkpt><trkpt lat="39.9572081" lon="9.1921038"><ele>761.0</ele><time>2026-04-23T07:23:59.639Z</time></trkpt><trkpt lat="39.9572873" lon="9.1922616"><ele>761.0</ele><time>2026-04-23T07:24:00.665Z</time></trkpt><trkpt lat="39.9573592" lon="9.1924351"><ele>761.0</ele><time>2026-04-23T07:24:01.664Z</time></trkpt><trkpt lat="39.9574176" lon="9.192623"><ele>759.25</ele><time>2026-04-23T07:24:02.665Z</time></trkpt><trkpt lat="39.9574296" lon="9.1927936"><ele>757.5</ele><time>2026-04-23T07:24:03.67Z</time></trkpt><trkpt lat="39.9574512" lon="9.1929457"><ele>755.75</ele><time>2026-04-23T07:24:04.669Z</time></trkpt><trkpt lat="39.9575106" lon="9.1931052"><ele>754.0</ele><time>2026-04-23T07:24:05.673Z</time></trkpt><trkpt lat="39.9575976" lon="9.1932665"><ele>758.75</ele><time>2026-04-23T07:24:06.666Z</time></trkpt><trkpt lat="39.957703" lon="9.1933921"><ele>763.5</ele><time>2026-04-23T07:24:07.672Z</time></trkpt><trkpt lat="39.9578153" lon="9.1935031"><ele>768.25</ele><time>2026-04-23T07:24:08.643Z</time></trkpt><trkpt lat="39.9579584" lon="9.1935721"><ele>773.0</ele><time>2026-04-23T07:24:09.647Z</time></trkpt><trkpt lat="39.958105" lon="9.1936443"><ele>773.0</ele><time>2026-04-23T07:24:10.669Z</time></trkpt><trkpt lat="39.9582594" lon="9.1937862"><ele>773.0</ele><time>2026-04-23T07:24:11.649Z</time></trkpt><trkpt lat="39.9583731" lon="9.1939202"><ele>773.0</ele><time>2026-04-23T07:24:12.646Z</time></trkpt><trkpt lat="39.9584574" lon="9.1940341"><ele>776.0</ele><time>2026-04-23T07:24:13.649Z</time></trkpt><trkpt lat="39.9585891" lon="9.1941446"><ele>779.0</ele><time>2026-04-23T07:24:14.652Z</time></trkpt><trkpt lat="39.9587161" lon="9.194272"><ele>782.0</ele><time>2026-04-23T07:24:15.668Z</time></trkpt><trkpt lat="39.9587941" lon="9.1944213"><ele>782.0</ele><time>2026-04-23T07:24:16.671Z</time></trkpt><trkpt lat="39.9588901" lon="9.1945243"><ele>782.0</ele><time>2026-04-23T07:24:17.672Z</time></trkpt><trkpt lat="39.9589876" lon="9.1946201"><ele>782.0</ele><time>2026-04-23T07:24:18.666Z</time></trkpt><trkpt lat="39.9590851" lon="9.1947971"><ele>782.0</ele><time>2026-04-23T07:24:19.665Z</time></trkpt><trkpt lat="39.9591434" lon="9.1949434"><ele>784.0</ele><time>2026-04-23T07:24:20.671Z</time></trkpt><trkpt lat="39.9591968" lon="9.1951066"><ele>786.0</ele><time>2026-04-23T07:24:21.678Z</time></trkpt><trkpt lat="39.9592692" lon="9.1952548"><ele>788.0</ele><time>2026-04-23T07:24:22.67Z</time></trkpt><trkpt lat="39.9593345" lon="9.1953879"><ele>790.0</ele><time>2026-04-23T07:24:23.674Z</time></trkpt><trkpt lat="39.959414" lon="9.1955049"><ele>790.0</ele><time>2026-04-23T07:24:24.663Z</time></trkpt><trkpt lat="39.9594945" lon="9.1956192"><ele>790.0</ele><time>2026-04-23T07:24:25.654Z</time></trkpt><trkpt lat="39.9595766" lon="9.1957282"><ele>790.0</ele><time>2026-04-23T07:24:26.652Z</time></trkpt><trkpt lat="39.959657" lon="9.1958335"><ele>790.0</ele><time>2026-04-23T07:24:27.677Z</time></trkpt><trkpt lat="39.9596743" lon="9.1959679"><ele>789.0</ele><time>2026-04-23T07:24:28.676Z</time></trkpt><trkpt lat="39.9596605" lon="9.1961283"><ele>788.0</ele><time>2026-04-23T07:24:29.675Z</time></trkpt><trkpt lat="39.9596416" lon="9.1962712"><ele>787.0</ele><time>2026-04-23T07:24:30.675Z</time></trkpt><trkpt lat="39.959603" lon="9.1964079"><ele>786.0</ele><time>2026-04-23T07:24:31.674Z</time></trkpt><trkpt lat="39.9595637" lon="9.196542"><ele>788.4</ele><time>2026-04-23T07:24:32.676Z</time></trkpt><trkpt lat="39.9594991" lon="9.1966665"><ele>790.8</ele><time>2026-04-23T07:24:33.673Z</time></trkpt><trkpt lat="39.9594364" lon="9.1967927"><ele>793.1999999999999</ele><time>2026-04-23T07:24:34.687Z</time></trkpt><trkpt lat="39.9593845" lon="9.1969018"><ele>795.5999999999999</ele><time>2026-04-23T07:24:35.681Z</time></trkpt><trkpt lat="39.9593209" lon="9.1969987"><ele>798.0</ele><time>2026-04-23T07:24:36.681Z</time></trkpt><trkpt lat="39.9592701" lon="9.1970893"><ele>798.0</ele><time>2026-04-23T07:24:37.685Z</time></trkpt><trkpt lat="39.9592334" lon="9.1971612"><ele>798.0</ele><time>2026-04-23T07:24:38.682Z</time></trkpt><trkpt lat="39.9591847" lon="9.1972163"><ele>798.0</ele><time>2026-04-23T07:24:39.687Z</time></trkpt><trkpt lat="39.9591052" lon="9.1973441"><ele>798.0</ele><time>2026-04-23T07:24:41.679Z</time></trkpt><trkpt lat="39.959052" lon="9.1974149"><ele>798.0</ele><time>2026-04-23T07:24:42.685Z</time></trkpt><trkpt lat="39.9589719" lon="9.1975146"><ele>798.0</ele><time>2026-04-23T07:24:44.679Z</time></trkpt><trkpt lat="39.9588625" lon="9.197566"><ele>796.0</ele><time>2026-04-23T07:24:46.678Z</time></trkpt><trkpt lat="39.9587888" lon="9.1975635"><ele>794.0</ele><time>2026-04-23T07:24:47.658Z</time></trkpt><trkpt lat="39.9587078" lon="9.197535"><ele>792.0</ele><time>2026-04-23T07:24:48.648Z</time></trkpt><trkpt lat="39.9586237" lon="9.1974744"><ele>790.0</ele><time>2026-04-23T07:24:49.656Z</time></trkpt><trkpt lat="39.9585525" lon="9.1973811"><ele>788.0</ele><time>2026-04-23T07:24:50.655Z</time></trkpt><trkpt lat="39.9584796" lon="9.197296"><ele>786.8333333333334</ele><time>2026-04-23T07:24:51.662Z</time></trkpt><trkpt lat="39.9584085" lon="9.1972098"><ele>785.6666666666667</ele><time>2026-04-23T07:24:52.661Z</time></trkpt><trkpt lat="39.9583453" lon="9.1971229"><ele>784.5</ele><time>2026-04-23T07:24:53.657Z</time></trkpt><trkpt lat="39.9582831" lon="9.1970557"><ele>783.3333333333333</ele><time>2026-04-23T07:24:54.657Z</time></trkpt><trkpt lat="39.9582105" lon="9.1969834"><ele>782.1666666666666</ele><time>2026-04-23T07:24:55.661Z</time></trkpt><trkpt lat="39.9581479" lon="9.1969244"><ele>781.0</ele><time>2026-04-23T07:24:56.662Z</time></trkpt><trkpt lat="39.9580843" lon="9.1968576"><ele>780.9999999999999</ele><time>2026-04-23T07:24:57.653Z</time></trkpt><trkpt lat="39.9580339" lon="9.1967866"><ele>781.0</ele><time>2026-04-23T07:24:58.654Z</time></trkpt><trkpt lat="39.9579847" lon="9.1967163"><ele>781.0</ele><time>2026-04-23T07:24:59.657Z</time></trkpt><trkpt lat="39.9579231" lon="9.1966375"><ele>781.0</ele><time>2026-04-23T07:25:00.657Z</time></trkpt><trkpt lat="39.9578672" lon="9.1965717"><ele>780.9999999999999</ele><time>2026-04-23T07:25:01.649Z</time></trkpt><trkpt lat="39.9578014" lon="9.196512"><ele>781.0</ele><time>2026-04-23T07:25:02.654Z</time></trkpt><trkpt lat="39.9577408" lon="9.1964645"><ele>779.8</ele><time>2026-04-23T07:25:03.654Z</time></trkpt><trkpt lat="39.9576308" lon="9.1964265"><ele>778.5999999999999</ele><time>2026-04-23T07:25:05.639Z</time></trkpt><trkpt lat="39.9575633" lon="9.1964178"><ele>777.4</ele><time>2026-04-23T07:25:06.654Z</time></trkpt><trkpt lat="39.957423" lon="9.1964189"><ele>776.2</ele><time>2026-04-23T07:25:08.643Z</time></trkpt><trkpt lat="39.9573408" lon="9.1964367"><ele>775.0</ele><time>2026-04-23T07:25:09.651Z</time></trkpt><trkpt lat="39.9572382" lon="9.1964457"><ele>774.9999999999999</ele><time>2026-04-23T07:25:10.647Z</time></trkpt><trkpt lat="39.9571461" lon="9.1964322"><ele>775.0</ele><time>2026-04-23T07:25:11.641Z</time></trkpt><trkpt lat="39.9570718" lon="9.1964303"><ele>775.0</ele><time>2026-04-23T07:25:12.645Z</time></trkpt><trkpt lat="39.9570052" lon="9.1964498"><ele>775.0</ele><time>2026-04-23T07:25:13.646Z</time></trkpt><trkpt lat="39.9569363" lon="9.1964283"><ele>774.9999999999999</ele><time>2026-04-23T07:25:14.65Z</time></trkpt><trkpt lat="39.9568587" lon="9.1964281"><ele>775.0</ele><time>2026-04-23T07:25:15.656Z</time></trkpt><trkpt lat="39.9567663" lon="9.196401"><ele>775.9999999999999</ele><time>2026-04-23T07:25:17.648Z</time></trkpt><trkpt lat="39.9566697" lon="9.1964102"><ele>777.0</ele><time>2026-04-23T07:25:19.645Z</time></trkpt><trkpt lat="39.956585" lon="9.1964257"><ele>778.0</ele><time>2026-04-23T07:25:21.644Z</time></trkpt><trkpt lat="39.9565191" lon="9.196453"><ele>779.0</ele><time>2026-04-23T07:25:23.639Z</time></trkpt><trkpt lat="39.9564245" lon="9.1965173"><ele>779.9999999999999</ele><time>2026-04-23T07:25:54.641Z</time></trkpt><trkpt lat="39.9563635" lon="9.1965463"><ele>781.0</ele><time>2026-04-23T07:25:55.641Z</time></trkpt><trkpt lat="39.9562651" lon="9.1965823"><ele>784.8</ele><time>2026-04-23T07:25:56.643Z</time></trkpt><trkpt lat="39.9561539" lon="9.1966207"><ele>788.5999999999999</ele><time>2026-04-23T07:25:57.643Z</time></trkpt><trkpt lat="39.9560737" lon="9.1967073"><ele>792.4</ele><time>2026-04-23T07:25:58.639Z</time></trkpt><trkpt lat="39.9559941" lon="9.1967165"><ele>796.2</ele><time>2026-04-23T07:25:59.644Z</time></trkpt><trkpt lat="39.9559175" lon="9.1967347"><ele>800.0</ele><time>2026-04-23T07:26:00.646Z</time></trkpt><trkpt lat="39.9558592" lon="9.1967912"><ele>800.0</ele><time>2026-04-23T07:26:01.654Z</time></trkpt><trkpt lat="39.9557566" lon="9.1968855"><ele>800.0</ele><time>2026-04-23T07:26:03.656Z</time></trkpt><trkpt lat="39.9556651" lon="9.1969386"><ele>800.0</ele><time>2026-04-23T07:26:05.68Z</time></trkpt><trkpt lat="39.9555739" lon="9.1969827"><ele>800.0</ele><time>2026-04-23T07:26:07.651Z</time></trkpt><trkpt lat="39.9554926" lon="9.1970233"><ele>800.0</ele><time>2026-04-23T07:26:09.656Z</time></trkpt><trkpt lat="39.955417" lon="9.1970683"><ele>800.0</ele><time>2026-04-23T07:26:11.653Z</time></trkpt><trkpt lat="39.9553203" lon="9.197122"><ele>800.0</ele><time>2026-04-23T07:26:13.676Z</time></trkpt><trkpt lat="39.9552114" lon="9.1971845"><ele>800.0</ele><time>2026-04-23T07:26:15.672Z</time></trkpt><trkpt lat="39.9551539" lon="9.1972489"><ele>800.0</ele><time>2026-04-23T07:26:16.674Z</time></trkpt><trkpt lat="39.9550945" lon="9.1973147"><ele>800.0</ele><time>2026-04-23T07:26:17.671Z</time></trkpt><trkpt lat="39.9550461" lon="9.1973936"><ele>802.0000000000001</ele><time>2026-04-23T07:26:18.673Z</time></trkpt><trkpt lat="39.9549904" lon="9.1974388"><ele>804.0</ele><time>2026-04-23T07:26:19.672Z</time></trkpt><trkpt lat="39.9548993" lon="9.1975493"><ele>806.0</ele><time>2026-04-23T07:26:21.667Z</time></trkpt><trkpt lat="39.9548527" lon="9.1976103"><ele>808.0</ele><time>2026-04-23T07:26:22.669Z</time></trkpt><trkpt lat="39.9548082" lon="9.197765"><ele>810.0000000000001</ele><time>2026-04-23T07:26:24.676Z</time></trkpt><trkpt lat="39.9547764" lon="9.1978415"><ele>812.0</ele><time>2026-04-23T07:26:25.675Z</time></trkpt><trkpt lat="39.9547422" lon="9.1979353"><ele>812.0000000000001</ele><time>2026-04-23T07:26:26.673Z</time></trkpt><trkpt lat="39.9547055" lon="9.1980432"><ele>812.0</ele><time>2026-04-23T07:26:27.669Z</time></trkpt><trkpt lat="39.9546673" lon="9.1981366"><ele>812.0</ele><time>2026-04-23T07:26:28.669Z</time></trkpt><trkpt lat="39.9546292" lon="9.1982299"><ele>812.0</ele><time>2026-04-23T07:26:29.673Z</time></trkpt><trkpt lat="39.9545817" lon="9.198308"><ele>812.0000000000001</ele><time>2026-04-23T07:26:30.673Z</time></trkpt><trkpt lat="39.9545288" lon="9.1983835"><ele>812.0</ele><time>2026-04-23T07:26:31.676Z</time></trkpt><trkpt lat="39.9544927" lon="9.1984575"><ele>812.25</ele><time>2026-04-23T07:26:32.673Z</time></trkpt><trkpt lat="39.9544207" lon="9.1985846"><ele>812.5</ele><time>2026-04-23T07:26:34.669Z</time></trkpt><trkpt lat="39.9543476" lon="9.198686"><ele>812.75</ele><time>2026-04-23T07:26:36.676Z</time></trkpt><trkpt lat="39.9542039" lon="9.1986651"><ele>813.0</ele><time>2026-04-23T07:26:38.671Z</time></trkpt><trkpt lat="39.9541255" lon="9.1984859"><ele>813.0</ele><time>2026-04-23T07:26:40.653Z</time></trkpt><trkpt lat="39.9541083" lon="9.1983464"><ele>813.0</ele><time>2026-04-23T07:26:41.657Z</time></trkpt><trkpt lat="39.9540613" lon="9.1982136"><ele>813.0</ele><time>2026-04-23T07:26:42.658Z</time></trkpt><trkpt lat="39.9540086" lon="9.1981058"><ele>813.0</ele><time>2026-04-23T07:26:43.664Z</time></trkpt><trkpt lat="39.9539547" lon="9.1980183"><ele>813.0</ele><time>2026-04-23T07:26:44.652Z</time></trkpt><trkpt lat="39.9538697" lon="9.1979338"><ele>810.25</ele><time>2026-04-23T07:26:45.66Z</time></trkpt><trkpt lat="39.953781" lon="9.1978455"><ele>807.5</ele><time>2026-04-23T07:26:46.655Z</time></trkpt><trkpt lat="39.9536814" lon="9.1977467"><ele>804.75</ele><time>2026-04-23T07:26:47.657Z</time></trkpt><trkpt lat="39.9535867" lon="9.1976495"><ele>802.0</ele><time>2026-04-23T07:26:48.657Z</time></trkpt><trkpt lat="39.9534923" lon="9.1975541"><ele>802.0</ele><time>2026-04-23T07:26:49.656Z</time></trkpt><trkpt lat="39.9534077" lon="9.1974497"><ele>802.0</ele><time>2026-04-23T07:26:50.663Z</time></trkpt><trkpt lat="39.953323" lon="9.197362"><ele>802.0</ele><time>2026-04-23T07:26:51.663Z</time></trkpt><trkpt lat="39.9532505" lon="9.1972862"><ele>802.0</ele><time>2026-04-23T07:26:52.661Z</time></trkpt><trkpt lat="39.953167" lon="9.1972185"><ele>802.0</ele><time>2026-04-23T07:26:53.658Z</time></trkpt><trkpt lat="39.9530756" lon="9.1971671"><ele>802.3333333333333</ele><time>2026-04-23T07:26:54.662Z</time></trkpt><trkpt lat="39.9529882" lon="9.1971009"><ele>802.6666666666666</ele><time>2026-04-23T07:26:55.656Z</time></trkpt><trkpt lat="39.9529213" lon="9.1970261"><ele>803.0</ele><time>2026-04-23T07:26:56.656Z</time></trkpt><trkpt lat="39.9528784" lon="9.196949"><ele>803.3333333333333</ele><time>2026-04-23T07:26:57.657Z</time></trkpt><trkpt lat="39.9528619" lon="9.1968267"><ele>803.6666666666666</ele><time>2026-04-23T07:26:58.642Z</time></trkpt><trkpt lat="39.9528651" lon="9.1967101"><ele>804.0</ele><time>2026-04-23T07:26:59.654Z</time></trkpt><trkpt lat="39.9528816" lon="9.1965768"><ele>803.4000000000001</ele><time>2026-04-23T07:27:00.643Z</time></trkpt><trkpt lat="39.9528926" lon="9.1964246"><ele>802.8</ele><time>2026-04-23T07:27:01.653Z</time></trkpt><trkpt lat="39.9528947" lon="9.1962845"><ele>802.2</ele><time>2026-04-23T07:27:02.654Z</time></trkpt><trkpt lat="39.9528664" lon="9.1961587"><ele>801.5999999999999</ele><time>2026-04-23T07:27:03.657Z</time></trkpt><trkpt lat="39.9528215" lon="9.1960172"><ele>801.0</ele><time>2026-04-23T07:27:04.655Z</time></trkpt><trkpt lat="39.9527977" lon="9.1958693"><ele>801.0</ele><time>2026-04-23T07:27:05.655Z</time></trkpt><trkpt lat="39.9528064" lon="9.1957222"><ele>801.0</ele><time>2026-04-23T07:27:06.657Z</time></trkpt><trkpt lat="39.9528358" lon="9.1955895"><ele>801.0</ele><time>2026-04-23T07:27:07.657Z</time></trkpt><trkpt lat="39.9528635" lon="9.1954634"><ele>801.0</ele><time>2026-04-23T07:27:08.646Z</time></trkpt><trkpt lat="39.9528603" lon="9.1953554"><ele>801.0</ele><time>2026-04-23T07:27:09.652Z</time></trkpt><trkpt lat="39.9528326" lon="9.195253"><ele>800.25</ele><time>2026-04-23T07:27:10.656Z</time></trkpt><trkpt lat="39.9527842" lon="9.1951614"><ele>799.5</ele><time>2026-04-23T07:27:11.657Z</time></trkpt><trkpt lat="39.9526925" lon="9.195071"><ele>798.75</ele><time>2026-04-23T07:27:12.654Z</time></trkpt><trkpt lat="39.9525835" lon="9.1949999"><ele>798.0</ele><time>2026-04-23T07:27:13.658Z</time></trkpt><trkpt lat="39.9524673" lon="9.1949264"><ele>801.0</ele><time>2026-04-23T07:27:14.661Z</time></trkpt><trkpt lat="39.9523631" lon="9.1948422"><ele>804.0</ele><time>2026-04-23T07:27:15.661Z</time></trkpt><trkpt lat="39.9522757" lon="9.1947479"><ele>807.0</ele><time>2026-04-23T07:27:16.65Z</time></trkpt><trkpt lat="39.9522009" lon="9.1946431"><ele>810.0</ele><time>2026-04-23T07:27:17.649Z</time></trkpt><trkpt lat="39.9521754" lon="9.1945185"><ele>813.0</ele><time>2026-04-23T07:27:18.657Z</time></trkpt><trkpt lat="39.9521853" lon="9.194363"><ele>813.0</ele><time>2026-04-23T07:27:19.651Z</time></trkpt><trkpt lat="39.9521993" lon="9.1942038"><ele>813.0</ele><time>2026-04-23T07:27:20.643Z</time></trkpt><trkpt lat="39.9522104" lon="9.1940231"><ele>813.0</ele><time>2026-04-23T07:27:21.653Z</time></trkpt><trkpt lat="39.9522001" lon="9.1938414"><ele>813.0</ele><time>2026-04-23T07:27:22.65Z</time></trkpt><trkpt lat="39.9521705" lon="9.1936647"><ele>812.75</ele><time>2026-04-23T07:27:23.653Z</time></trkpt><trkpt lat="39.9521669" lon="9.1934809"><ele>812.5</ele><time>2026-04-23T07:27:24.659Z</time></trkpt><trkpt lat="39.9521652" lon="9.1933032"><ele>812.25</ele><time>2026-04-23T07:27:25.663Z</time></trkpt><trkpt lat="39.9521514" lon="9.193136"><ele>812.0</ele><time>2026-04-23T07:27:26.656Z</time></trkpt><trkpt lat="39.9521507" lon="9.1929867"><ele>811.4000000000001</ele><time>2026-04-23T07:27:27.654Z</time></trkpt><trkpt lat="39.9521277" lon="9.1928565"><ele>810.8000000000001</ele><time>2026-04-23T07:27:28.653Z</time></trkpt><trkpt lat="39.9520712" lon="9.1927324"><ele>810.2</ele><time>2026-04-23T07:27:29.658Z</time></trkpt><trkpt lat="39.9519889" lon="9.1926237"><ele>809.6</ele><time>2026-04-23T07:27:30.657Z</time></trkpt><trkpt lat="39.951914" lon="9.1925164"><ele>809.0</ele><time>2026-04-23T07:27:31.653Z</time></trkpt><trkpt lat="39.9518552" lon="9.1924101"><ele>807.0</ele><time>2026-04-23T07:27:32.653Z</time></trkpt><trkpt lat="39.9517936" lon="9.1922948"><ele>805.0</ele><time>2026-04-23T07:27:33.657Z</time></trkpt><trkpt lat="39.9517379" lon="9.1921672"><ele>803.0</ele><time>2026-04-23T07:27:34.662Z</time></trkpt><trkpt lat="39.951688" lon="9.1920538"><ele>801.0</ele><time>2026-04-23T07:27:35.658Z</time></trkpt><trkpt lat="39.9516229" lon="9.191941"><ele>799.0</ele><time>2026-04-23T07:27:36.656Z</time></trkpt><trkpt lat="39.9515267" lon="9.1918176"><ele>803.5</ele><time>2026-04-23T07:27:37.655Z</time></trkpt><trkpt lat="39.9514384" lon="9.1917156"><ele>808.0</ele><time>2026-04-23T07:27:38.654Z</time></trkpt><trkpt lat="39.9513437" lon="9.1916268"><ele>812.5</ele><time>2026-04-23T07:27:39.653Z</time></trkpt><trkpt lat="39.9512407" lon="9.191511"><ele>817.0</ele><time>2026-04-23T07:27:40.653Z</time></trkpt><trkpt lat="39.9511494" lon="9.1913988"><ele>817.0</ele><time>2026-04-23T07:27:41.654Z</time></trkpt><trkpt lat="39.9510359" lon="9.1912874"><ele>817.0</ele><time>2026-04-23T07:27:42.654Z</time></trkpt><trkpt lat="39.9509324" lon="9.1911791"><ele>817.0</ele><time>2026-04-23T07:27:43.652Z</time></trkpt><trkpt lat="39.9508264" lon="9.1910649"><ele>817.0</ele><time>2026-04-23T07:27:44.653Z</time></trkpt><trkpt lat="39.9507231" lon="9.1909534"><ele>817.25</ele><time>2026-04-23T07:27:45.651Z</time></trkpt><trkpt lat="39.950616" lon="9.1908376"><ele>817.5</ele><time>2026-04-23T07:27:46.653Z</time></trkpt><trkpt lat="39.9505425" lon="9.1907202"><ele>817.75</ele><time>2026-04-23T07:27:47.646Z</time></trkpt><trkpt lat="39.9504697" lon="9.1905898"><ele>818.0</ele><time>2026-04-23T07:27:48.651Z</time></trkpt><trkpt lat="39.9504007" lon="9.1904542"><ele>818.0</ele><time>2026-04-23T07:27:49.648Z</time></trkpt><trkpt lat="39.9503232" lon="9.1903582"><ele>818.0</ele><time>2026-04-23T07:27:50.67Z</time></trkpt><trkpt lat="39.9502286" lon="9.1902426"><ele>818.0</ele><time>2026-04-23T07:27:51.664Z</time></trkpt><trkpt lat="39.9501012" lon="9.190152"><ele>818.0</ele><time>2026-04-23T07:27:52.659Z</time></trkpt><trkpt lat="39.9499715" lon="9.1900267"><ele>821.6666666666667</ele><time>2026-04-23T07:27:53.652Z</time></trkpt><trkpt lat="39.9498153" lon="9.1898648"><ele>825.3333333333333</ele><time>2026-04-23T07:27:54.657Z</time></trkpt><trkpt lat="39.9497007" lon="9.1896996"><ele>829.0</ele><time>2026-04-23T07:27:55.653Z</time></trkpt><trkpt lat="39.9496059" lon="9.1895361"><ele>829.0</ele><time>2026-04-23T07:27:56.657Z</time></trkpt><trkpt lat="39.9495137" lon="9.1893598"><ele>829.0</ele><time>2026-04-23T07:27:57.666Z</time></trkpt><trkpt lat="39.9494114" lon="9.1891833"><ele>829.0</ele><time>2026-04-23T07:27:58.649Z</time></trkpt><trkpt lat="39.9493543" lon="9.1889767"><ele>827.6666666666666</ele><time>2026-04-23T07:27:59.653Z</time></trkpt><trkpt lat="39.9493167" lon="9.1887704"><ele>826.3333333333333</ele><time>2026-04-23T07:28:00.655Z</time></trkpt><trkpt lat="39.9493129" lon="9.1885744"><ele>825.0</ele><time>2026-04-23T07:28:01.658Z</time></trkpt><trkpt lat="39.949276" lon="9.1883899"><ele>825.0</ele><time>2026-04-23T07:28:02.655Z</time></trkpt><trkpt lat="39.9492108" lon="9.1882235"><ele>825.0</ele><time>2026-04-23T07:28:03.662Z</time></trkpt><trkpt lat="39.9491261" lon="9.1880752"><ele>825.0</ele><time>2026-04-23T07:28:04.655Z</time></trkpt><trkpt lat="39.9490778" lon="9.1879244"><ele>825.0</ele><time>2026-04-23T07:28:05.657Z</time></trkpt><trkpt lat="39.9490376" lon="9.1877804"><ele>826.3333333333333</ele><time>2026-04-23T07:28:06.655Z</time></trkpt><trkpt lat="39.9489136" lon="9.1876146"><ele>827.6666666666666</ele><time>2026-04-23T07:28:07.656Z</time></trkpt><trkpt lat="39.9487225" lon="9.1874447"><ele>829.0</ele><time>2026-04-23T07:28:08.658Z</time></trkpt><trkpt lat="39.9485596" lon="9.187312"><ele>829.0</ele><time>2026-04-23T07:28:09.657Z</time></trkpt><trkpt lat="39.9484383" lon="9.1872155"><ele>829.0</ele><time>2026-04-23T07:28:10.657Z</time></trkpt><trkpt lat="39.9483" lon="9.1871138"><ele>829.0</ele><time>2026-04-23T07:28:11.66Z</time></trkpt><trkpt lat="39.9481749" lon="9.1870225"><ele>829.0</ele><time>2026-04-23T07:28:12.654Z</time></trkpt><trkpt lat="39.948065" lon="9.1869297"><ele>828.75</ele><time>2026-04-23T07:28:13.652Z</time></trkpt><trkpt lat="39.9479183" lon="9.1868434"><ele>828.5</ele><time>2026-04-23T07:28:14.659Z</time></trkpt><trkpt lat="39.9478401" lon="9.1867512"><ele>828.25</ele><time>2026-04-23T07:28:15.663Z</time></trkpt><trkpt lat="39.9477668" lon="9.1866355"><ele>828.0</ele><time>2026-04-23T07:28:16.658Z</time></trkpt><trkpt lat="39.9477222" lon="9.1864917"><ele>828.0</ele><time>2026-04-23T07:28:17.655Z</time></trkpt><trkpt lat="39.9476794" lon="9.1863542"><ele>828.0</ele><time>2026-04-23T07:28:18.657Z</time></trkpt><trkpt lat="39.9476666" lon="9.1862288"><ele>828.0</ele><time>2026-04-23T07:28:19.661Z</time></trkpt><trkpt lat="39.9476364" lon="9.1860767"><ele>828.0</ele><time>2026-04-23T07:28:20.665Z</time></trkpt><trkpt lat="39.9476012" lon="9.1859555"><ele>828.0</ele><time>2026-04-23T07:28:21.657Z</time></trkpt><trkpt lat="39.9475361" lon="9.1858444"><ele>831.0</ele><time>2026-04-23T07:28:22.646Z</time></trkpt><trkpt lat="39.947472" lon="9.1857591"><ele>834.0</ele><time>2026-04-23T07:28:23.648Z</time></trkpt><trkpt lat="39.9473845" lon="9.1857253"><ele>837.0</ele><time>2026-04-23T07:28:24.655Z</time></trkpt><trkpt lat="39.947294" lon="9.1857131"><ele>840.0</ele><time>2026-04-23T07:28:25.656Z</time></trkpt><trkpt lat="39.9471782" lon="9.1857551"><ele>843.0</ele><time>2026-04-23T07:28:26.66Z</time></trkpt><trkpt lat="39.9470376" lon="9.1858425"><ele>843.0</ele><time>2026-04-23T07:28:27.656Z</time></trkpt><trkpt lat="39.9468807" lon="9.1859218"><ele>843.0</ele><time>2026-04-23T07:28:28.678Z</time></trkpt><trkpt lat="39.9467213" lon="9.1859829"><ele>843.0</ele><time>2026-04-23T07:28:29.666Z</time></trkpt><trkpt lat="39.9465802" lon="9.1860349"><ele>844.0</ele><time>2026-04-23T07:28:30.673Z</time></trkpt><trkpt lat="39.9464204" lon="9.185999"><ele>845.0</ele><time>2026-04-23T07:28:31.639Z</time></trkpt><trkpt lat="39.9462721" lon="9.1858677"><ele>846.0</ele><time>2026-04-23T07:28:32.65Z</time></trkpt><trkpt lat="39.9461398" lon="9.185752"><ele>846.0</ele><time>2026-04-23T07:28:33.643Z</time></trkpt><trkpt lat="39.9459936" lon="9.1857399"><ele>846.0</ele><time>2026-04-23T07:28:34.643Z</time></trkpt><trkpt lat="39.945873" lon="9.1857896"><ele>846.0</ele><time>2026-04-23T07:28:35.651Z</time></trkpt><trkpt lat="39.9457177" lon="9.185868"><ele>846.0</ele><time>2026-04-23T07:28:36.673Z</time></trkpt><trkpt lat="39.9455696" lon="9.1858777"><ele>845.5</ele><time>2026-04-23T07:28:37.673Z</time></trkpt><trkpt lat="39.9454591" lon="9.1858871"><ele>845.0</ele><time>2026-04-23T07:28:38.642Z</time></trkpt><trkpt lat="39.945341" lon="9.1858494"><ele>844.5</ele><time>2026-04-23T07:28:39.651Z</time></trkpt><trkpt lat="39.9452678" lon="9.1856573"><ele>844.0</ele><time>2026-04-23T07:28:40.646Z</time></trkpt><trkpt lat="39.945259" lon="9.1854435"><ele>844.0</ele><time>2026-04-23T07:28:41.649Z</time></trkpt><trkpt lat="39.9452122" lon="9.1852689"><ele>844.0</ele><time>2026-04-23T07:28:42.651Z</time></trkpt><trkpt lat="39.9451075" lon="9.1851609"><ele>844.0</ele><time>2026-04-23T07:28:43.651Z</time></trkpt><trkpt lat="39.9449962" lon="9.1850662"><ele>844.0</ele><time>2026-04-23T07:28:44.652Z</time></trkpt><trkpt lat="39.944863" lon="9.1849863"><ele>844.5</ele><time>2026-04-23T07:28:45.652Z</time></trkpt><trkpt lat="39.9447049" lon="9.1849422"><ele>845.0</ele><time>2026-04-23T07:28:46.651Z</time></trkpt><trkpt lat="39.9445928" lon="9.1849079"><ele>845.5</ele><time>2026-04-23T07:28:47.655Z</time></trkpt><trkpt lat="39.94446" lon="9.18485"><ele>846.0</ele><time>2026-04-23T07:28:48.655Z</time></trkpt><trkpt lat="39.9443057" lon="9.1847852"><ele>846.0</ele><time>2026-04-23T07:28:49.672Z</time></trkpt><trkpt lat="39.9442217" lon="9.1847096"><ele>846.0</ele><time>2026-04-23T07:28:50.646Z</time></trkpt><trkpt lat="39.944159" lon="9.184552"><ele>846.0</ele><time>2026-04-23T07:28:51.654Z</time></trkpt><trkpt lat="39.944117" lon="9.1843391"><ele>846.0</ele><time>2026-04-23T07:28:52.649Z</time></trkpt><trkpt lat="39.9440632" lon="9.1841819"><ele>850.3333333333333</ele><time>2026-04-23T07:28:53.652Z</time></trkpt><trkpt lat="39.9440339" lon="9.1840238"><ele>854.6666666666666</ele><time>2026-04-23T07:28:54.656Z</time></trkpt><trkpt lat="39.9440243" lon="9.1837677"><ele>859.0</ele><time>2026-04-23T07:28:55.652Z</time></trkpt><trkpt lat="39.9440184" lon="9.1835978"><ele>859.0</ele><time>2026-04-23T07:28:56.655Z</time></trkpt><trkpt lat="39.9440081" lon="9.1833988"><ele>859.0</ele><time>2026-04-23T07:28:57.656Z</time></trkpt><trkpt lat="39.9440295" lon="9.1832093"><ele>859.0</ele><time>2026-04-23T07:28:58.66Z</time></trkpt><trkpt lat="39.9440779" lon="9.1830007"><ele>857.75</ele><time>2026-04-23T07:28:59.66Z</time></trkpt><trkpt lat="39.944085" lon="9.1828287"><ele>856.5</ele><time>2026-04-23T07:29:00.657Z</time></trkpt><trkpt lat="39.9440565" lon="9.1826575"><ele>855.25</ele><time>2026-04-23T07:29:01.65Z</time></trkpt><trkpt lat="39.9440425" lon="9.1825075"><ele>854.0</ele><time>2026-04-23T07:29:02.647Z</time></trkpt><trkpt lat="39.9439458" lon="9.1823538"><ele>850.3333333333334</ele><time>2026-04-23T07:29:03.654Z</time></trkpt><trkpt lat="39.943851" lon="9.1822564"><ele>846.6666666666667</ele><time>2026-04-23T07:29:04.643Z</time></trkpt><trkpt lat="39.9437046" lon="9.1821325"><ele>843.0</ele><time>2026-04-23T07:29:05.655Z</time></trkpt><trkpt lat="39.9435721" lon="9.1819813"><ele>843.0</ele><time>2026-04-23T07:29:06.652Z</time></trkpt><trkpt lat="39.9434564" lon="9.1817828"><ele>843.0</ele><time>2026-04-23T07:29:07.655Z</time></trkpt><trkpt lat="39.9433632" lon="9.1816521"><ele>843.0</ele><time>2026-04-23T07:29:08.657Z</time></trkpt><trkpt lat="39.9432904" lon="9.1815262"><ele>843.0</ele><time>2026-04-23T07:29:09.66Z</time></trkpt><trkpt lat="39.9431693" lon="9.1813918"><ele>846.0</ele><time>2026-04-23T07:29:10.658Z</time></trkpt><trkpt lat="39.9430586" lon="9.1812667"><ele>849.0</ele><time>2026-04-23T07:29:11.661Z</time></trkpt><trkpt lat="39.9430146" lon="9.1811369"><ele>852.0</ele><time>2026-04-23T07:29:12.653Z</time></trkpt><trkpt lat="39.9429846" lon="9.1809555"><ele>855.0</ele><time>2026-04-23T07:29:13.661Z</time></trkpt><trkpt lat="39.9429619" lon="9.1807327"><ele>853.3333333333333</ele><time>2026-04-23T07:29:14.659Z</time></trkpt><trkpt lat="39.9429093" lon="9.1805242"><ele>851.6666666666666</ele><time>2026-04-23T07:29:15.66Z</time></trkpt><trkpt lat="39.9428637" lon="9.1803134"><ele>850.0</ele><time>2026-04-23T07:29:16.655Z</time></trkpt><trkpt lat="39.9428403" lon="9.1801385"><ele>850.0</ele><time>2026-04-23T07:29:17.656Z</time></trkpt><trkpt lat="39.9428064" lon="9.1799835"><ele>850.0</ele><time>2026-04-23T07:29:18.657Z</time></trkpt><trkpt lat="39.942731" lon="9.1798048"><ele>850.0</ele><time>2026-04-23T07:29:19.663Z</time></trkpt><trkpt lat="39.9426844" lon="9.1796359"><ele>850.0</ele><time>2026-04-23T07:29:20.661Z</time></trkpt><trkpt lat="39.9426387" lon="9.1794896"><ele>850.0</ele><time>2026-04-23T07:29:21.661Z</time></trkpt><trkpt lat="39.9425893" lon="9.1793165"><ele>850.0</ele><time>2026-04-23T07:29:22.664Z</time></trkpt><trkpt lat="39.9425818" lon="9.1791561"><ele>850.0</ele><time>2026-04-23T07:29:23.664Z</time></trkpt><trkpt lat="39.9425968" lon="9.1789833"><ele>850.0</ele><time>2026-04-23T07:29:24.661Z</time></trkpt><trkpt lat="39.9426176" lon="9.1787944"><ele>850.25</ele><time>2026-04-23T07:29:25.667Z</time></trkpt><trkpt lat="39.9426593" lon="9.1786103"><ele>850.5</ele><time>2026-04-23T07:29:26.665Z</time></trkpt><trkpt lat="39.9427072" lon="9.1784337"><ele>850.75</ele><time>2026-04-23T07:29:27.66Z</time></trkpt><trkpt lat="39.9427572" lon="9.1782753"><ele>851.0</ele><time>2026-04-23T07:29:28.658Z</time></trkpt><trkpt lat="39.9428146" lon="9.178147"><ele>851.25</ele><time>2026-04-23T07:29:29.658Z</time></trkpt><trkpt lat="39.9427972" lon="9.1779616"><ele>851.5</ele><time>2026-04-23T07:29:30.658Z</time></trkpt><trkpt lat="39.9427799" lon="9.1777659"><ele>851.75</ele><time>2026-04-23T07:29:31.658Z</time></trkpt><trkpt lat="39.9427379" lon="9.1776065"><ele>852.0</ele><time>2026-04-23T07:29:32.656Z</time></trkpt><trkpt lat="39.9426993" lon="9.1774112"><ele>851.0</ele><time>2026-04-23T07:29:33.656Z</time></trkpt><trkpt lat="39.9426471" lon="9.1772091"><ele>850.0</ele><time>2026-04-23T07:29:34.657Z</time></trkpt><trkpt lat="39.9425674" lon="9.1770187"><ele>849.0</ele><time>2026-04-23T07:29:35.66Z</time></trkpt><trkpt lat="39.9424926" lon="9.1768284"><ele>858.3333333333333</ele><time>2026-04-23T07:29:36.652Z</time></trkpt><trkpt lat="39.9423946" lon="9.1766797"><ele>867.6666666666666</ele><time>2026-04-23T07:29:37.652Z</time></trkpt><trkpt lat="39.9423645" lon="9.1764844"><ele>877.0</ele><time>2026-04-23T07:29:38.657Z</time></trkpt><trkpt lat="39.9423407" lon="9.1762751"><ele>877.0</ele><time>2026-04-23T07:29:39.666Z</time></trkpt><trkpt lat="39.9423235" lon="9.176094"><ele>877.0</ele><time>2026-04-23T07:29:40.665Z</time></trkpt><trkpt lat="39.9422967" lon="9.1759153"><ele>877.0</ele><time>2026-04-23T07:29:41.662Z</time></trkpt><trkpt lat="39.9422441" lon="9.1757365"><ele>877.0</ele><time>2026-04-23T07:29:42.663Z</time></trkpt><trkpt lat="39.94219" lon="9.1755544"><ele>878.25</ele><time>2026-04-23T07:29:43.663Z</time></trkpt><trkpt lat="39.9421603" lon="9.1753652"><ele>879.5</ele><time>2026-04-23T07:29:44.662Z</time></trkpt><trkpt lat="39.9421775" lon="9.1751637"><ele>880.75</ele><time>2026-04-23T07:29:45.659Z</time></trkpt><trkpt lat="39.9422121" lon="9.1749797"><ele>882.0</ele><time>2026-04-23T07:29:46.663Z</time></trkpt><trkpt lat="39.9422491" lon="9.1747996"><ele>886.6666666666667</ele><time>2026-04-23T07:29:47.668Z</time></trkpt><trkpt lat="39.9423249" lon="9.1746346"><ele>891.3333333333334</ele><time>2026-04-23T07:29:48.665Z</time></trkpt><trkpt lat="39.942395" lon="9.174435"><ele>896.0</ele><time>2026-04-23T07:29:49.666Z</time></trkpt><trkpt lat="39.9424512" lon="9.1742701"><ele>896.0</ele><time>2026-04-23T07:29:50.665Z</time></trkpt><trkpt lat="39.9425138" lon="9.1741301"><ele>896.0</ele><time>2026-04-23T07:29:51.656Z</time></trkpt><trkpt lat="39.9425991" lon="9.1740067"><ele>896.0</ele><time>2026-04-23T07:29:52.655Z</time></trkpt><trkpt lat="39.9427036" lon="9.1738923"><ele>896.0</ele><time>2026-04-23T07:29:53.652Z</time></trkpt><trkpt lat="39.942853" lon="9.1737993"><ele>897.75</ele><time>2026-04-23T07:29:54.651Z</time></trkpt><trkpt lat="39.9429782" lon="9.1737114"><ele>899.5</ele><time>2026-04-23T07:29:55.652Z</time></trkpt><trkpt lat="39.9431353" lon="9.1736315"><ele>901.25</ele><time>2026-04-23T07:29:56.654Z</time></trkpt><trkpt lat="39.9432594" lon="9.1735512"><ele>903.0</ele><time>2026-04-23T07:29:57.661Z</time></trkpt><trkpt lat="39.9434068" lon="9.1734639"><ele>898.75</ele><time>2026-04-23T07:29:58.661Z</time></trkpt><trkpt lat="39.9435366" lon="9.1733772"><ele>894.5</ele><time>2026-04-23T07:29:59.659Z</time></trkpt><trkpt lat="39.9436554" lon="9.1732815"><ele>890.25</ele><time>2026-04-23T07:30:00.658Z</time></trkpt><trkpt lat="39.9437567" lon="9.1732008"><ele>886.0</ele><time>2026-04-23T07:30:01.659Z</time></trkpt><trkpt lat="39.943802" lon="9.1730659"><ele>886.0</ele><time>2026-04-23T07:30:02.654Z</time></trkpt><trkpt lat="39.9438546" lon="9.1728996"><ele>886.0</ele><time>2026-04-23T07:30:03.659Z</time></trkpt><trkpt lat="39.9439119" lon="9.1727491"><ele>886.0</ele><time>2026-04-23T07:30:04.665Z</time></trkpt><trkpt lat="39.9438725" lon="9.1725351"><ele>886.0</ele><time>2026-04-23T07:30:05.658Z</time></trkpt><trkpt lat="39.9438351" lon="9.1723346"><ele>883.3333333333333</ele><time>2026-04-23T07:30:06.654Z</time></trkpt><trkpt lat="39.9437118" lon="9.1721331"><ele>880.6666666666667</ele><time>2026-04-23T07:30:07.662Z</time></trkpt><trkpt lat="39.943596" lon="9.1719577"><ele>878.0</ele><time>2026-04-23T07:30:08.659Z</time></trkpt><trkpt lat="39.9435308" lon="9.1717855"><ele>878.0</ele><time>2026-04-23T07:30:09.659Z</time></trkpt><trkpt lat="39.9434305" lon="9.1715893"><ele>878.0</ele><time>2026-04-23T07:30:10.662Z</time></trkpt><trkpt lat="39.9433129" lon="9.1713844"><ele>878.0</ele><time>2026-04-23T07:30:11.665Z</time></trkpt><trkpt lat="39.9432222" lon="9.1712204"><ele>887.0</ele><time>2026-04-23T07:30:12.655Z</time></trkpt><trkpt lat="39.9431141" lon="9.1710298"><ele>896.0</ele><time>2026-04-23T07:30:13.653Z</time></trkpt><trkpt lat="39.9430534" lon="9.1708419"><ele>905.0</ele><time>2026-04-23T07:30:14.652Z</time></trkpt><trkpt lat="39.9429519" lon="9.170648"><ele>906.3333333333334</ele><time>2026-04-23T07:30:15.654Z</time></trkpt><trkpt lat="39.9428695" lon="9.1704606"><ele>907.6666666666667</ele><time>2026-04-23T07:30:16.654Z</time></trkpt><trkpt lat="39.9428062" lon="9.1702859"><ele>909.0</ele><time>2026-04-23T07:30:17.654Z</time></trkpt><trkpt lat="39.9427281" lon="9.1701135"><ele>909.0</ele><time>2026-04-23T07:30:18.655Z</time></trkpt><trkpt lat="39.9426957" lon="9.1699314"><ele>909.0</ele><time>2026-04-23T07:30:19.663Z</time></trkpt><trkpt lat="39.942653" lon="9.1697466"><ele>909.0</ele><time>2026-04-23T07:30:20.657Z</time></trkpt><trkpt lat="39.9426279" lon="9.1695682"><ele>909.0</ele><time>2026-04-23T07:30:21.655Z</time></trkpt><trkpt lat="39.9425856" lon="9.1693918"><ele>910.0</ele><time>2026-04-23T07:30:22.654Z</time></trkpt><trkpt lat="39.9425276" lon="9.1692195"><ele>911.0</ele><time>2026-04-23T07:30:23.654Z</time></trkpt><trkpt lat="39.9424709" lon="9.1690546"><ele>912.0</ele><time>2026-04-23T07:30:24.653Z</time></trkpt><trkpt lat="39.9424372" lon="9.1688641"><ele>913.0</ele><time>2026-04-23T07:30:25.655Z</time></trkpt><trkpt lat="39.9423913" lon="9.1686694"><ele>917.3333333333333</ele><time>2026-04-23T07:30:26.651Z</time></trkpt><trkpt lat="39.9423198" lon="9.1684796"><ele>921.6666666666667</ele><time>2026-04-23T07:30:27.658Z</time></trkpt><trkpt lat="39.9422511" lon="9.1682559"><ele>926.0</ele><time>2026-04-23T07:30:28.653Z</time></trkpt><trkpt lat="39.9422007" lon="9.1680392"><ele>930.0</ele><time>2026-04-23T07:30:29.654Z</time></trkpt><trkpt lat="39.9421502" lon="9.1678523"><ele>934.0</ele><time>2026-04-23T07:30:30.658Z</time></trkpt><trkpt lat="39.9420894" lon="9.1676475"><ele>938.0</ele><time>2026-04-23T07:30:31.656Z</time></trkpt><trkpt lat="39.9420262" lon="9.1674707"><ele>940.5</ele><time>2026-04-23T07:30:32.657Z</time></trkpt><trkpt lat="39.9419503" lon="9.1672854"><ele>943.0</ele><time>2026-04-23T07:30:33.654Z</time></trkpt><trkpt lat="39.9418903" lon="9.1671585"><ele>945.5</ele><time>2026-04-23T07:30:34.646Z</time></trkpt><trkpt lat="39.9418507" lon="9.166991"><ele>948.0</ele><time>2026-04-23T07:30:35.654Z</time></trkpt><trkpt lat="39.9418104" lon="9.1668443"><ele>948.0</ele><time>2026-04-23T07:30:36.648Z</time></trkpt><trkpt lat="39.9417569" lon="9.1667496"><ele>948.0</ele><time>2026-04-23T07:30:37.645Z</time></trkpt><trkpt lat="39.9416483" lon="9.1667096"><ele>948.0</ele><time>2026-04-23T07:30:38.675Z</time></trkpt><trkpt lat="39.9415101" lon="9.1666826"><ele>948.0</ele><time>2026-04-23T07:30:39.669Z</time></trkpt><trkpt lat="39.9413633" lon="9.1666897"><ele>942.0</ele><time>2026-04-23T07:30:40.649Z</time></trkpt><trkpt lat="39.9412237" lon="9.1666998"><ele>936.0</ele><time>2026-04-23T07:30:41.658Z</time></trkpt><trkpt lat="39.9410757" lon="9.1667194"><ele>930.0</ele><time>2026-04-23T07:30:42.656Z</time></trkpt><trkpt lat="39.940908" lon="9.166747"><ele>930.5</ele><time>2026-04-23T07:30:43.654Z</time></trkpt><trkpt lat="39.9407732" lon="9.1668142"><ele>931.0</ele><time>2026-04-23T07:30:44.651Z</time></trkpt><trkpt lat="39.9406597" lon="9.1669141"><ele>931.5</ele><time>2026-04-23T07:30:45.655Z</time></trkpt><trkpt lat="39.9405263" lon="9.1670018"><ele>932.0</ele><time>2026-04-23T07:30:46.662Z</time></trkpt><trkpt lat="39.9404241" lon="9.1671082"><ele>932.0</ele><time>2026-04-23T07:30:47.655Z</time></trkpt><trkpt lat="39.9402875" lon="9.1671955"><ele>932.0</ele><time>2026-04-23T07:30:48.658Z</time></trkpt><trkpt lat="39.9401847" lon="9.1673173"><ele>932.0</ele><time>2026-04-23T07:30:49.658Z</time></trkpt><trkpt lat="39.940104" lon="9.167453"><ele>932.0</ele><time>2026-04-23T07:30:50.683Z</time></trkpt><trkpt lat="39.9400129" lon="9.1675433"><ele>931.5</ele><time>2026-04-23T07:30:51.686Z</time></trkpt><trkpt lat="39.9399179" lon="9.167637"><ele>931.0</ele><time>2026-04-23T07:30:52.681Z</time></trkpt><trkpt lat="39.9397986" lon="9.1676636"><ele>930.5</ele><time>2026-04-23T07:30:53.683Z</time></trkpt><trkpt lat="39.9396767" lon="9.1676542"><ele>930.0</ele><time>2026-04-23T07:30:54.682Z</time></trkpt><trkpt lat="39.9395538" lon="9.1676042"><ele>930.0</ele><time>2026-04-23T07:30:55.678Z</time></trkpt><trkpt lat="39.9394308" lon="9.1675369"><ele>930.0</ele><time>2026-04-23T07:30:56.668Z</time></trkpt><trkpt lat="39.9392926" lon="9.1674159"><ele>930.0</ele><time>2026-04-23T07:30:57.659Z</time></trkpt><trkpt lat="39.9391329" lon="9.1672447"><ele>937.0</ele><time>2026-04-23T07:30:58.656Z</time></trkpt><trkpt lat="39.9389757" lon="9.1671047"><ele>944.0</ele><time>2026-04-23T07:30:59.663Z</time></trkpt><trkpt lat="39.9388222" lon="9.1669726"><ele>951.0</ele><time>2026-04-23T07:31:00.664Z</time></trkpt><trkpt lat="39.9386677" lon="9.1668658"><ele>951.0</ele><time>2026-04-23T07:31:01.657Z</time></trkpt><trkpt lat="39.9384892" lon="9.1667644"><ele>951.0</ele><time>2026-04-23T07:31:02.655Z</time></trkpt><trkpt lat="39.9383255" lon="9.1667156"><ele>951.0</ele><time>2026-04-23T07:31:03.656Z</time></trkpt><trkpt lat="39.938168" lon="9.1666921"><ele>949.0</ele><time>2026-04-23T07:31:04.658Z</time></trkpt><trkpt lat="39.9380138" lon="9.16669"><ele>947.0</ele><time>2026-04-23T07:31:05.658Z</time></trkpt><trkpt lat="39.9378678" lon="9.1666851"><ele>945.0</ele><time>2026-04-23T07:31:06.658Z</time></trkpt><trkpt lat="39.9377399" lon="9.1666472"><ele>943.0</ele><time>2026-04-23T07:31:07.664Z</time></trkpt><trkpt lat="39.9375933" lon="9.1666191"><ele>941.75</ele><time>2026-04-23T07:31:08.662Z</time></trkpt><trkpt lat="39.9374695" lon="9.1665533"><ele>940.5</ele><time>2026-04-23T07:31:09.675Z</time></trkpt><trkpt lat="39.9373774" lon="9.1664707"><ele>939.25</ele><time>2026-04-23T07:31:10.643Z</time></trkpt><trkpt lat="39.9373476" lon="9.1663364"><ele>938.0</ele><time>2026-04-23T07:31:11.637Z</time></trkpt><trkpt lat="39.9373666" lon="9.166181"><ele>942.0</ele><time>2026-04-23T07:31:12.65Z</time></trkpt><trkpt lat="39.9373602" lon="9.1659781"><ele>946.0</ele><time>2026-04-23T07:31:13.648Z</time></trkpt><trkpt lat="39.9373597" lon="9.165778"><ele>950.0</ele><time>2026-04-23T07:31:14.651Z</time></trkpt><trkpt lat="39.9373167" lon="9.1655391"><ele>955.0</ele><time>2026-04-23T07:31:15.638Z</time></trkpt><trkpt lat="39.9372725" lon="9.1653094"><ele>960.0</ele><time>2026-04-23T07:31:16.647Z</time></trkpt><trkpt lat="39.9371671" lon="9.1650733"><ele>965.0</ele><time>2026-04-23T07:31:17.649Z</time></trkpt><trkpt lat="39.937083" lon="9.1648495"><ele>970.3333333333334</ele><time>2026-04-23T07:31:18.654Z</time></trkpt><trkpt lat="39.9370318" lon="9.1646066"><ele>975.6666666666667</ele><time>2026-04-23T07:31:19.646Z</time></trkpt><trkpt lat="39.9369571" lon="9.1643829"><ele>981.0</ele><time>2026-04-23T07:31:20.651Z</time></trkpt><trkpt lat="39.9369078" lon="9.1641469"><ele>982.6666666666667</ele><time>2026-04-23T07:31:21.651Z</time></trkpt><trkpt lat="39.936869" lon="9.1639156"><ele>984.3333333333334</ele><time>2026-04-23T07:31:22.653Z</time></trkpt><trkpt lat="39.9368384" lon="9.1636911"><ele>986.0</ele><time>2026-04-23T07:31:23.649Z</time></trkpt><trkpt lat="39.9368294" lon="9.1634743"><ele>986.0</ele><time>2026-04-23T07:31:24.652Z</time></trkpt><trkpt lat="39.9368247" lon="9.1632464"><ele>986.0</ele><time>2026-04-23T07:31:25.651Z</time></trkpt><trkpt lat="39.9368097" lon="9.1630138"><ele>986.0</ele><time>2026-04-23T07:31:26.648Z</time></trkpt><trkpt lat="39.9368137" lon="9.1627882"><ele>988.3333333333334</ele><time>2026-04-23T07:31:27.651Z</time></trkpt><trkpt lat="39.9368138" lon="9.1625821"><ele>990.6666666666667</ele><time>2026-04-23T07:31:28.646Z</time></trkpt><trkpt lat="39.9368024" lon="9.1623733"><ele>993.0</ele><time>2026-04-23T07:31:29.648Z</time></trkpt><trkpt lat="39.9367422" lon="9.1621917"><ele>988.25</ele><time>2026-04-23T07:31:30.643Z</time></trkpt><trkpt lat="39.9366741" lon="9.1620141"><ele>983.5</ele><time>2026-04-23T07:31:31.655Z</time></trkpt><trkpt lat="39.9365783" lon="9.1618764"><ele>978.75</ele><time>2026-04-23T07:31:32.684Z</time></trkpt><trkpt lat="39.9364589" lon="9.1617743"><ele>974.0</ele><time>2026-04-23T07:31:33.678Z</time></trkpt><trkpt lat="39.9363163" lon="9.1616895"><ele>974.0</ele><time>2026-04-23T07:31:34.649Z</time></trkpt><trkpt lat="39.9361803" lon="9.1615769"><ele>974.0</ele><time>2026-04-23T07:31:35.652Z</time></trkpt><trkpt lat="39.936053" lon="9.1613901"><ele>974.0</ele><time>2026-04-23T07:31:36.652Z</time></trkpt><trkpt lat="39.9359639" lon="9.1611604"><ele>972.0</ele><time>2026-04-23T07:31:37.648Z</time></trkpt><trkpt lat="39.9359038" lon="9.160942"><ele>970.0</ele><time>2026-04-23T07:31:38.654Z</time></trkpt><trkpt lat="39.9358135" lon="9.1607236"><ele>968.0</ele><time>2026-04-23T07:31:39.65Z</time></trkpt><trkpt lat="39.9357523" lon="9.1605724"><ele>974.6666666666667</ele><time>2026-04-23T07:31:40.647Z</time></trkpt><trkpt lat="39.9356478" lon="9.1604422"><ele>981.3333333333333</ele><time>2026-04-23T07:31:41.676Z</time></trkpt><trkpt lat="39.9355268" lon="9.1603115"><ele>988.0</ele><time>2026-04-23T07:31:42.673Z</time></trkpt><trkpt lat="39.9354003" lon="9.1601557"><ele>988.0</ele><time>2026-04-23T07:31:43.656Z</time></trkpt><trkpt lat="39.9352528" lon="9.1600099"><ele>988.0</ele><time>2026-04-23T07:31:44.656Z</time></trkpt><trkpt lat="39.9351487" lon="9.1598288"><ele>988.0</ele><time>2026-04-23T07:31:45.657Z</time></trkpt><trkpt lat="39.9350624" lon="9.1596601"><ele>987.75</ele><time>2026-04-23T07:31:46.651Z</time></trkpt><trkpt lat="39.9349778" lon="9.1594943"><ele>987.5</ele><time>2026-04-23T07:31:47.651Z</time></trkpt><trkpt lat="39.9349031" lon="9.1593387"><ele>987.25</ele><time>2026-04-23T07:31:48.653Z</time></trkpt><trkpt lat="39.9347853" lon="9.1592146"><ele>987.0</ele><time>2026-04-23T07:31:49.672Z</time></trkpt><trkpt lat="39.9346464" lon="9.15913"><ele>987.0</ele><time>2026-04-23T07:31:50.681Z</time></trkpt><trkpt lat="39.9345599" lon="9.1591137"><ele>987.0</ele><time>2026-04-23T07:31:51.654Z</time></trkpt><trkpt lat="39.9343916" lon="9.1591258"><ele>987.0</ele><time>2026-04-23T07:31:52.653Z</time></trkpt><trkpt lat="39.9342401" lon="9.1590693"><ele>987.0</ele><time>2026-04-23T07:31:53.651Z</time></trkpt><trkpt lat="39.9340834" lon="9.1590224"><ele>992.0</ele><time>2026-04-23T07:31:54.657Z</time></trkpt><trkpt lat="39.9339277" lon="9.1589661"><ele>997.0</ele><time>2026-04-23T07:31:55.657Z</time></trkpt><trkpt lat="39.9337876" lon="9.1588643"><ele>1002.0</ele><time>2026-04-23T07:31:56.672Z</time></trkpt><trkpt lat="39.9336743" lon="9.1587342"><ele>1002.0</ele><time>2026-04-23T07:31:57.679Z</time></trkpt><trkpt lat="39.9335584" lon="9.1585522"><ele>1002.0</ele><time>2026-04-23T07:31:58.675Z</time></trkpt><trkpt lat="39.9334528" lon="9.1583702"><ele>1002.0</ele><time>2026-04-23T07:31:59.647Z</time></trkpt><trkpt lat="39.9333568" lon="9.158184"><ele>1000.0</ele><time>2026-04-23T07:32:00.657Z</time></trkpt><trkpt lat="39.9332985" lon="9.1580089"><ele>998.0</ele><time>2026-04-23T07:32:01.653Z</time></trkpt><trkpt lat="39.9331619" lon="9.1578944"><ele>996.0</ele><time>2026-04-23T07:32:02.656Z</time></trkpt><trkpt lat="39.9330576" lon="9.1577449"><ele>996.0</ele><time>2026-04-23T07:32:03.664Z</time></trkpt><trkpt lat="39.9329482" lon="9.1575835"><ele>996.0</ele><time>2026-04-23T07:32:04.687Z</time></trkpt><trkpt lat="39.9328619" lon="9.1574193"><ele>996.0</ele><time>2026-04-23T07:32:05.662Z</time></trkpt><trkpt lat="39.9328031" lon="9.1572377"><ele>992.6666666666667</ele><time>2026-04-23T07:32:06.658Z</time></trkpt><trkpt lat="39.932789" lon="9.1570432"><ele>989.3333333333334</ele><time>2026-04-23T07:32:07.653Z</time></trkpt><trkpt lat="39.932804" lon="9.1568203"><ele>986.0</ele><time>2026-04-23T07:32:08.663Z</time></trkpt><trkpt lat="39.932838" lon="9.1565909"><ele>982.6666666666667</ele><time>2026-04-23T07:32:09.672Z</time></trkpt><trkpt lat="39.9328737" lon="9.1563536"><ele>979.3333333333333</ele><time>2026-04-23T07:32:10.67Z</time></trkpt><trkpt lat="39.9328573" lon="9.1560984"><ele>976.0</ele><time>2026-04-23T07:32:11.662Z</time></trkpt><trkpt lat="39.9328899" lon="9.1558502"><ele>976.0</ele><time>2026-04-23T07:32:12.665Z</time></trkpt><trkpt lat="39.9329022" lon="9.1556299"><ele>976.0</ele><time>2026-04-23T07:32:13.664Z</time></trkpt><trkpt lat="39.9329446" lon="9.1554242"><ele>976.0</ele><time>2026-04-23T07:32:14.663Z</time></trkpt><trkpt lat="39.9330399" lon="9.1552328"><ele>976.0</ele><time>2026-04-23T07:32:15.662Z</time></trkpt><trkpt lat="39.9331132" lon="9.1550398"><ele>976.0</ele><time>2026-04-23T07:32:16.661Z</time></trkpt><trkpt lat="39.9331784" lon="9.154835"><ele>976.0</ele><time>2026-04-23T07:32:17.665Z</time></trkpt><trkpt lat="39.9331688" lon="9.1545798"><ele>976.3333333333333</ele><time>2026-04-23T07:32:18.662Z</time></trkpt><trkpt lat="39.9331973" lon="9.1543683"><ele>976.6666666666667</ele><time>2026-04-23T07:32:19.658Z</time></trkpt><trkpt lat="39.9331887" lon="9.154161"><ele>977.0</ele><time>2026-04-23T07:32:20.658Z</time></trkpt><trkpt lat="39.9331497" lon="9.1539784"><ele>972.6666666666667</ele><time>2026-04-23T07:32:21.663Z</time></trkpt><trkpt lat="39.933091" lon="9.1538135"><ele>968.3333333333333</ele><time>2026-04-23T07:32:22.661Z</time></trkpt><trkpt lat="39.9330089" lon="9.1536071"><ele>964.0</ele><time>2026-04-23T07:32:23.667Z</time></trkpt><trkpt lat="39.9329257" lon="9.1534204"><ele>964.0</ele><time>2026-04-23T07:32:24.669Z</time></trkpt><trkpt lat="39.9329473" lon="9.1532357"><ele>964.0</ele><time>2026-04-23T07:32:25.69Z</time></trkpt><trkpt lat="39.9329499" lon="9.1529827"><ele>964.0</ele><time>2026-04-23T07:32:26.669Z</time></trkpt><trkpt lat="39.9329768" lon="9.152771"><ele>964.0</ele><time>2026-04-23T07:32:27.667Z</time></trkpt><trkpt lat="39.932944" lon="9.1525713"><ele>964.0</ele><time>2026-04-23T07:32:28.67Z</time></trkpt><trkpt lat="39.9329686" lon="9.1523799"><ele>964.0</ele><time>2026-04-23T07:32:29.671Z</time></trkpt><trkpt lat="39.9329669" lon="9.1522197"><ele>964.0</ele><time>2026-04-23T07:32:30.663Z</time></trkpt><trkpt lat="39.932999" lon="9.1520532"><ele>964.0</ele><time>2026-04-23T07:32:31.658Z</time></trkpt><trkpt lat="39.9329851" lon="9.1519086"><ele>964.0</ele><time>2026-04-23T07:32:32.664Z</time></trkpt><trkpt lat="39.9329164" lon="9.1517557"><ele>964.0</ele><time>2026-04-23T07:32:33.69Z</time></trkpt><trkpt lat="39.9328362" lon="9.1516637"><ele>964.0</ele><time>2026-04-23T07:32:34.68Z</time></trkpt><trkpt lat="39.932733" lon="9.151519"><ele>965.3333333333333</ele><time>2026-04-23T07:32:35.652Z</time></trkpt><trkpt lat="39.9325899" lon="9.1514042"><ele>966.6666666666667</ele><time>2026-04-23T07:32:36.663Z</time></trkpt><trkpt lat="39.9324479" lon="9.1512639"><ele>968.0</ele><time>2026-04-23T07:32:37.661Z</time></trkpt><trkpt lat="39.9323135" lon="9.1511316"><ele>968.0</ele><time>2026-04-23T07:32:38.655Z</time></trkpt><trkpt lat="39.9321873" lon="9.1510092"><ele>968.0</ele><time>2026-04-23T07:32:39.656Z</time></trkpt><trkpt lat="39.9320246" lon="9.1509359"><ele>968.0</ele><time>2026-04-23T07:32:40.653Z</time></trkpt><trkpt lat="39.9318608" lon="9.1508924"><ele>972.6666666666667</ele><time>2026-04-23T07:32:41.651Z</time></trkpt><trkpt lat="39.9316919" lon="9.1508313"><ele>977.3333333333333</ele><time>2026-04-23T07:32:42.656Z</time></trkpt><trkpt lat="39.9315216" lon="9.1507952"><ele>982.0</ele><time>2026-04-23T07:32:43.646Z</time></trkpt><trkpt lat="39.9313706" lon="9.1506952"><ele>972.0</ele><time>2026-04-23T07:32:44.672Z</time></trkpt><trkpt lat="39.9312593" lon="9.1505853"><ele>962.0</ele><time>2026-04-23T07:32:45.642Z</time></trkpt><trkpt lat="39.9311384" lon="9.1504224"><ele>952.0</ele><time>2026-04-23T07:32:46.651Z</time></trkpt><trkpt lat="39.9310097" lon="9.150277"><ele>952.0</ele><time>2026-04-23T07:32:47.649Z</time></trkpt><trkpt lat="39.9309136" lon="9.1501292"><ele>952.0</ele><time>2026-04-23T07:32:48.644Z</time></trkpt><trkpt lat="39.9308597" lon="9.1499591"><ele>952.0</ele><time>2026-04-23T07:32:49.672Z</time></trkpt><trkpt lat="39.9308013" lon="9.1497759"><ele>952.0</ele><time>2026-04-23T07:32:50.674Z</time></trkpt><trkpt lat="39.9307827" lon="9.1496047"><ele>956.0</ele><time>2026-04-23T07:32:51.652Z</time></trkpt><trkpt lat="39.9307457" lon="9.1494476"><ele>960.0</ele><time>2026-04-23T07:32:52.649Z</time></trkpt><trkpt lat="39.9307041" lon="9.1493221"><ele>964.0</ele><time>2026-04-23T07:32:53.656Z</time></trkpt><trkpt lat="39.9306902" lon="9.1491951"><ele>968.0</ele><time>2026-04-23T07:32:54.661Z</time></trkpt><trkpt lat="39.9306116" lon="9.1490936"><ele>972.0</ele><time>2026-04-23T07:32:55.682Z</time></trkpt><trkpt lat="39.9304721" lon="9.1490498"><ele>972.0</ele><time>2026-04-23T07:32:56.666Z</time></trkpt><trkpt lat="39.9303368" lon="9.1490727"><ele>972.0</ele><time>2026-04-23T07:32:57.647Z</time></trkpt><trkpt lat="39.9302139" lon="9.1490544"><ele>972.0</ele><time>2026-04-23T07:32:58.656Z</time></trkpt><trkpt lat="39.9300871" lon="9.1490226"><ele>972.0</ele><time>2026-04-23T07:32:59.658Z</time></trkpt><trkpt lat="39.929953" lon="9.1489963"><ele>969.0</ele><time>2026-04-23T07:33:00.645Z</time></trkpt><trkpt lat="39.9297789" lon="9.1488783"><ele>966.0</ele><time>2026-04-23T07:33:01.667Z</time></trkpt><trkpt lat="39.9296833" lon="9.1487135"><ele>963.0</ele><time>2026-04-23T07:33:02.644Z</time></trkpt><trkpt lat="39.9295486" lon="9.1485293"><ele>963.0</ele><time>2026-04-23T07:33:03.652Z</time></trkpt><trkpt lat="39.929423" lon="9.1483763"><ele>963.0</ele><time>2026-04-23T07:33:04.663Z</time></trkpt><trkpt lat="39.9292621" lon="9.1482518"><ele>963.0</ele><time>2026-04-23T07:33:05.65Z</time></trkpt><trkpt lat="39.9291006" lon="9.1481479"><ele>960.3333333333333</ele><time>2026-04-23T07:33:06.657Z</time></trkpt><trkpt lat="39.9289326" lon="9.148058"><ele>957.6666666666666</ele><time>2026-04-23T07:33:07.657Z</time></trkpt><trkpt lat="39.9287709" lon="9.1479818"><ele>955.0</ele><time>2026-04-23T07:33:08.656Z</time></trkpt><trkpt lat="39.9286003" lon="9.1478999"><ele>955.0</ele><time>2026-04-23T07:33:09.662Z</time></trkpt><trkpt lat="39.9284581" lon="9.1478069"><ele>955.0</ele><time>2026-04-23T07:33:10.659Z</time></trkpt><trkpt lat="39.9283137" lon="9.1477138"><ele>955.0</ele><time>2026-04-23T07:33:11.653Z</time></trkpt><trkpt lat="39.928191" lon="9.1476206"><ele>955.5</ele><time>2026-04-23T07:33:12.655Z</time></trkpt><trkpt lat="39.9280414" lon="9.1475277"><ele>956.0</ele><time>2026-04-23T07:33:13.659Z</time></trkpt><trkpt lat="39.9279014" lon="9.1474324"><ele>956.5</ele><time>2026-04-23T07:33:14.666Z</time></trkpt><trkpt lat="39.9277925" lon="9.1473554"><ele>957.0</ele><time>2026-04-23T07:33:15.655Z</time></trkpt><trkpt lat="39.9276862" lon="9.1473131"><ele>957.0</ele><time>2026-04-23T07:33:16.66Z</time></trkpt><trkpt lat="39.9275935" lon="9.1472018"><ele>957.0</ele><time>2026-04-23T07:33:17.653Z</time></trkpt><trkpt lat="39.9275447" lon="9.1470954"><ele>957.0</ele><time>2026-04-23T07:33:18.65Z</time></trkpt><trkpt lat="39.9275084" lon="9.1469809"><ele>957.0</ele><time>2026-04-23T07:33:19.675Z</time></trkpt><trkpt lat="39.9275443" lon="9.1468472"><ele>957.0</ele><time>2026-04-23T07:33:20.654Z</time></trkpt><trkpt lat="39.9276059" lon="9.1466972"><ele>957.0</ele><time>2026-04-23T07:33:21.656Z</time></trkpt><trkpt lat="39.9276686" lon="9.146549"><ele>957.0</ele><time>2026-04-23T07:33:22.66Z</time></trkpt><trkpt lat="39.9277263" lon="9.1463958"><ele>957.0</ele><time>2026-04-23T07:33:23.651Z</time></trkpt><trkpt lat="39.9277759" lon="9.1462273"><ele>957.0</ele><time>2026-04-23T07:33:24.656Z</time></trkpt><trkpt lat="39.9277787" lon="9.146076"><ele>955.0</ele><time>2026-04-23T07:33:25.672Z</time></trkpt><trkpt lat="39.9277471" lon="9.1459176"><ele>953.0</ele><time>2026-04-23T07:33:26.65Z</time></trkpt><trkpt lat="39.9276957" lon="9.1457577"><ele>951.0</ele><time>2026-04-23T07:33:27.661Z</time></trkpt><trkpt lat="39.9275958" lon="9.1455742"><ele>949.0</ele><time>2026-04-23T07:33:28.654Z</time></trkpt><trkpt lat="39.9274795" lon="9.1453935"><ele>952.6666666666666</ele><time>2026-04-23T07:33:29.654Z</time></trkpt><trkpt lat="39.9273095" lon="9.1452089"><ele>956.3333333333333</ele><time>2026-04-23T07:33:30.66Z</time></trkpt><trkpt lat="39.9271679" lon="9.1450254"><ele>960.0</ele><time>2026-04-23T07:33:31.661Z</time></trkpt><trkpt lat="39.9270497" lon="9.1448436"><ele>960.0</ele><time>2026-04-23T07:33:32.666Z</time></trkpt><trkpt lat="39.9269851" lon="9.1446892"><ele>960.0</ele><time>2026-04-23T07:33:33.653Z</time></trkpt><trkpt lat="39.9269164" lon="9.144489"><ele>960.0</ele><time>2026-04-23T07:33:34.659Z</time></trkpt><trkpt lat="39.9269095" lon="9.1442738"><ele>960.0</ele><time>2026-04-23T07:33:35.67Z</time></trkpt><trkpt lat="39.926899" lon="9.1440888"><ele>960.0</ele><time>2026-04-23T07:33:36.659Z</time></trkpt><trkpt lat="39.9268881" lon="9.1438754"><ele>960.0</ele><time>2026-04-23T07:33:37.659Z</time></trkpt><trkpt lat="39.9268765" lon="9.1436799"><ele>958.6666666666667</ele><time>2026-04-23T07:33:38.659Z</time></trkpt><trkpt lat="39.926826" lon="9.1434755"><ele>957.3333333333334</ele><time>2026-04-23T07:33:39.654Z</time></trkpt><trkpt lat="39.9267978" lon="9.1432669"><ele>956.0</ele><time>2026-04-23T07:33:40.664Z</time></trkpt><trkpt lat="39.9267331" lon="9.1430395"><ele>961.25</ele><time>2026-04-23T07:33:41.658Z</time></trkpt><trkpt lat="39.9266981" lon="9.142822"><ele>966.5</ele><time>2026-04-23T07:33:42.659Z</time></trkpt><trkpt lat="39.9266334" lon="9.1426627"><ele>971.75</ele><time>2026-04-23T07:33:43.665Z</time></trkpt><trkpt lat="39.9266092" lon="9.1424961"><ele>977.0</ele><time>2026-04-23T07:33:44.665Z</time></trkpt><trkpt lat="39.9266336" lon="9.1422849"><ele>977.6666666666667</ele><time>2026-04-23T07:33:45.67Z</time></trkpt><trkpt lat="39.9266877" lon="9.1420795"><ele>978.3333333333333</ele><time>2026-04-23T07:33:46.665Z</time></trkpt><trkpt lat="39.926767" lon="9.1418666"><ele>979.0</ele><time>2026-04-23T07:33:47.666Z</time></trkpt><trkpt lat="39.9268094" lon="9.1416491"><ele>970.0</ele><time>2026-04-23T07:33:48.664Z</time></trkpt><trkpt lat="39.926829" lon="9.1414185"><ele>961.0</ele><time>2026-04-23T07:33:49.663Z</time></trkpt><trkpt lat="39.9268759" lon="9.1412165"><ele>952.0</ele><time>2026-04-23T07:33:50.657Z</time></trkpt><trkpt lat="39.9268752" lon="9.1410114"><ele>952.0</ele><time>2026-04-23T07:33:51.65Z</time></trkpt><trkpt lat="39.9268725" lon="9.1408198"><ele>952.0</ele><time>2026-04-23T07:33:52.652Z</time></trkpt><trkpt lat="39.9268748" lon="9.1406729"><ele>952.0</ele><time>2026-04-23T07:33:53.651Z</time></trkpt><trkpt lat="39.926769" lon="9.1405739"><ele>952.0</ele><time>2026-04-23T07:33:54.686Z</time></trkpt><trkpt lat="39.9266707" lon="9.1404984"><ele>962.0</ele><time>2026-04-23T07:33:55.693Z</time></trkpt><trkpt lat="39.9265418" lon="9.1403729"><ele>972.0</ele><time>2026-04-23T07:33:56.656Z</time></trkpt><trkpt lat="39.926378" lon="9.1402628"><ele>982.0</ele><time>2026-04-23T07:33:57.662Z</time></trkpt><trkpt lat="39.9262343" lon="9.1401765"><ele>982.0</ele><time>2026-04-23T07:33:58.654Z</time></trkpt><trkpt lat="39.9261126" lon="9.1400794"><ele>982.0</ele><time>2026-04-23T07:33:59.656Z</time></trkpt><trkpt lat="39.9259908" lon="9.1400337"><ele>982.0</ele><time>2026-04-23T07:34:00.64Z</time></trkpt><trkpt lat="39.9277263" lon="9.1463958"><ele>973.75</ele><time>2026-04-23T07:33:23.651Z</time></trkpt><trkpt lat="39.9277759" lon="9.1462273"><ele>965.5</ele><time>2026-04-23T07:33:24.656Z</time></trkpt><trkpt lat="39.9277787" lon="9.146076"><ele>957.25</ele><time>2026-04-23T07:33:25.672Z</time></trkpt><trkpt lat="39.9277471" lon="9.1459176"><ele>949.0</ele><time>2026-04-23T07:33:26.65Z</time></trkpt><trkpt lat="39.9276957" lon="9.1457577"><ele>945.6666666666666</ele><time>2026-04-23T07:33:27.661Z</time></trkpt><trkpt lat="39.9275958" lon="9.1455742"><ele>942.3333333333333</ele><time>2026-04-23T07:33:28.654Z</time></trkpt><trkpt lat="39.9274795" lon="9.1453935"><ele>939.0</ele><time>2026-04-23T07:33:29.654Z</time></trkpt><trkpt lat="39.9273095" lon="9.1452089"><ele>946.0</ele><time>2026-04-23T07:33:30.66Z</time></trkpt><trkpt lat="39.9271679" lon="9.1450254"><ele>953.0</ele><time>2026-04-23T07:33:31.661Z</time></trkpt><trkpt lat="39.9270497" lon="9.1448436"><ele>960.0</ele><time>2026-04-23T07:33:32.666Z</time></trkpt><trkpt lat="39.9269851" lon="9.1446892"><ele>960.0</ele><time>2026-04-23T07:33:33.653Z</time></trkpt><trkpt lat="39.9269164" lon="9.144489"><ele>960.0</ele><time>2026-04-23T07:33:34.659Z</time></trkpt><trkpt lat="39.9269095" lon="9.1442738"><ele>960.0</ele><time>2026-04-23T07:33:35.67Z</time></trkpt><trkpt lat="39.926899" lon="9.1440888"><ele>958.6666666666667</ele><time>2026-04-23T07:33:36.659Z</time></trkpt><trkpt lat="39.9268881" lon="9.1438754"><ele>957.3333333333334</ele><time>2026-04-23T07:33:37.659Z</time></trkpt><trkpt lat="39.9268765" lon="9.1436799"><ele>956.0</ele><time>2026-04-23T07:33:38.659Z</time></trkpt><trkpt lat="39.926826" lon="9.1434755"><ele>956.0</ele><time>2026-04-23T07:33:39.654Z</time></trkpt><trkpt lat="39.9267978" lon="9.1432669"><ele>956.0</ele><time>2026-04-23T07:33:40.664Z</time></trkpt><trkpt lat="39.9267331" lon="9.1430395"><ele>956.0</ele><time>2026-04-23T07:33:41.658Z</time></trkpt><trkpt lat="39.9266981" lon="9.142822"><ele>961.25</ele><time>2026-04-23T07:33:42.659Z</time></trkpt><trkpt lat="39.9266334" lon="9.1426627"><ele>966.5</ele><time>2026-04-23T07:33:43.665Z</time></trkpt><trkpt lat="39.9266092" lon="9.1424961"><ele>971.75</ele><time>2026-04-23T07:33:44.665Z</time></trkpt><trkpt lat="39.9266336" lon="9.1422849"><ele>977.0</ele><time>2026-04-23T07:33:45.67Z</time></trkpt><trkpt lat="39.9266877" lon="9.1420795"><ele>968.6666666666667</ele><time>2026-04-23T07:33:46.665Z</time></trkpt><trkpt lat="39.926767" lon="9.1418666"><ele>960.3333333333333</ele><time>2026-04-23T07:33:47.666Z</time></trkpt><trkpt lat="39.9268094" lon="9.1416491"><ele>952.0</ele><time>2026-04-23T07:33:48.664Z</time></trkpt><trkpt lat="39.926829" lon="9.1414185"><ele>952.0</ele><time>2026-04-23T07:33:49.663Z</time></trkpt><trkpt lat="39.9268759" lon="9.1412165"><ele>952.0</ele><time>2026-04-23T07:33:50.657Z</time></trkpt><trkpt lat="39.9268752" lon="9.1410114"><ele>952.0</ele><time>2026-04-23T07:33:51.65Z</time></trkpt><trkpt lat="39.9268725" lon="9.1408198"><ele>952.75</ele><time>2026-04-23T07:33:52.652Z</time></trkpt><trkpt lat="39.9268748" lon="9.1406729"><ele>953.5</ele><time>2026-04-23T07:33:53.651Z</time></trkpt><trkpt lat="39.926769" lon="9.1405739"><ele>954.25</ele><time>2026-04-23T07:33:54.686Z</time></trkpt><trkpt lat="39.9266707" lon="9.1404984"><ele>955.0</ele><time>2026-04-23T07:33:55.693Z</time></trkpt><trkpt lat="39.9265418" lon="9.1403729"><ele>964.0</ele><time>2026-04-23T07:33:56.656Z</time></trkpt><trkpt lat="39.926378" lon="9.1402628"><ele>973.0</ele><time>2026-04-23T07:33:57.662Z</time></trkpt><trkpt lat="39.9262343" lon="9.1401765"><ele>982.0</ele><time>2026-04-23T07:33:58.654Z</time></trkpt><trkpt lat="39.9261126" lon="9.1400794"><ele>982.0</ele><time>2026-04-23T07:33:59.656Z</time></trkpt><trkpt lat="39.9259908" lon="9.1400337"><ele>982.0</ele><time>2026-04-23T07:34:00.64Z</time></trkpt><trkpt lat="39.9258735" lon="9.1400009"><ele>982.0</ele><time>2026-04-23T07:34:01.641Z</time></trkpt><trkpt lat="39.9257059" lon="9.1399719"><ele>982.0</ele><time>2026-04-23T07:34:02.637Z</time></trkpt><trkpt lat="39.9255437" lon="9.1400495"><ele>986.5</ele><time>2026-04-23T07:34:03.64Z</time></trkpt><trkpt lat="39.9253185" lon="9.140221"><ele>991.0</ele><time>2026-04-23T07:34:04.631Z</time></trkpt><trkpt lat="39.9251117" lon="9.1403154"><ele>992.3333333333333</ele><time>2026-04-23T07:34:05.639Z</time></trkpt><trkpt lat="39.9249262" lon="9.1404658"><ele>993.6666666666667</ele><time>2026-04-23T07:34:06.652Z</time></trkpt><trkpt lat="39.9247715" lon="9.1405609"><ele>995.0</ele><time>2026-04-23T07:34:07.653Z</time></trkpt><trkpt lat="39.9245617" lon="9.1406708"><ele>992.3333333333334</ele><time>2026-04-23T07:34:08.657Z</time></trkpt><trkpt lat="39.9244022" lon="9.1407474"><ele>989.6666666666667</ele><time>2026-04-23T07:34:09.661Z</time></trkpt><trkpt lat="39.924223" lon="9.1408459"><ele>987.0</ele><time>2026-04-23T07:34:10.663Z</time></trkpt><trkpt lat="39.9240359" lon="9.1408867"><ele>987.0</ele><time>2026-04-23T07:34:11.685Z</time></trkpt><trkpt lat="39.9238845" lon="9.1409548"><ele>987.0</ele><time>2026-04-23T07:34:12.684Z</time></trkpt><trkpt lat="39.9237646" lon="9.140921"><ele>987.0</ele><time>2026-04-23T07:34:13.687Z</time></trkpt><trkpt lat="39.9236219" lon="9.1409149"><ele>987.0</ele><time>2026-04-23T07:34:14.678Z</time></trkpt><trkpt lat="39.9235524" lon="9.1407942"><ele>992.3333333333333</ele><time>2026-04-23T07:34:15.677Z</time></trkpt><trkpt lat="39.9235159" lon="9.1405968"><ele>997.6666666666666</ele><time>2026-04-23T07:34:16.676Z</time></trkpt><trkpt lat="39.9235135" lon="9.1404063"><ele>1003.0</ele><time>2026-04-23T07:34:17.662Z</time></trkpt><trkpt lat="39.9235109" lon="9.1401891"><ele>1003.0</ele><time>2026-04-23T07:34:18.666Z</time></trkpt><trkpt lat="39.9235214" lon="9.1399091"><ele>1003.0</ele><time>2026-04-23T07:34:19.669Z</time></trkpt><trkpt lat="39.9235159" lon="9.1396934"><ele>1003.0</ele><time>2026-04-23T07:34:20.67Z</time></trkpt><trkpt lat="39.923518" lon="9.1395203"><ele>1003.4</ele><time>2026-04-23T07:34:21.664Z</time></trkpt><trkpt lat="39.9235127" lon="9.1393908"><ele>1003.8</ele><time>2026-04-23T07:34:22.662Z</time></trkpt><trkpt lat="39.9234789" lon="9.1392588"><ele>1004.2</ele><time>2026-04-23T07:34:23.69Z</time></trkpt><trkpt lat="39.923423" lon="9.1391502"><ele>1004.6</ele><time>2026-04-23T07:34:24.69Z</time></trkpt><trkpt lat="39.923343" lon="9.1390513"><ele>1005.0</ele><time>2026-04-23T07:34:25.689Z</time></trkpt><trkpt lat="39.9232367" lon="9.1389909"><ele>1005.0</ele><time>2026-04-23T07:34:26.701Z</time></trkpt><trkpt lat="39.9231008" lon="9.1390165"><ele>1005.0</ele><time>2026-04-23T07:34:27.669Z</time></trkpt><trkpt lat="39.9229497" lon="9.1390808"><ele>1005.0</ele><time>2026-04-23T07:34:28.668Z</time></trkpt><trkpt lat="39.9227926" lon="9.1391742"><ele>1005.0</ele><time>2026-04-23T07:34:29.667Z</time></trkpt><trkpt lat="39.9226259" lon="9.1393103"><ele>1005.0</ele><time>2026-04-23T07:34:30.671Z</time></trkpt><trkpt lat="39.9224884" lon="9.1394186"><ele>1005.0</ele><time>2026-04-23T07:34:31.683Z</time></trkpt><trkpt lat="39.9223314" lon="9.1394909"><ele>1005.25</ele><time>2026-04-23T07:34:32.685Z</time></trkpt><trkpt lat="39.922201" lon="9.1394672"><ele>1005.5</ele><time>2026-04-23T07:34:33.677Z</time></trkpt><trkpt lat="39.9221169" lon="9.1393294"><ele>1005.75</ele><time>2026-04-23T07:34:34.686Z</time></trkpt><trkpt lat="39.9220814" lon="9.1391562"><ele>1006.0</ele><time>2026-04-23T07:34:35.655Z</time></trkpt><trkpt lat="39.9220746" lon="9.138984"><ele>1009.3333333333333</ele><time>2026-04-23T07:34:36.669Z</time></trkpt><trkpt lat="39.922066" lon="9.1387992"><ele>1012.6666666666667</ele><time>2026-04-23T07:34:37.666Z</time></trkpt><trkpt lat="39.9220743" lon="9.1386006"><ele>1016.0</ele><time>2026-04-23T07:34:38.668Z</time></trkpt><trkpt lat="39.922124" lon="9.13839"><ele>1017.25</ele><time>2026-04-23T07:34:39.665Z</time></trkpt><trkpt lat="39.9222045" lon="9.1381844"><ele>1018.5</ele><time>2026-04-23T07:34:40.665Z</time></trkpt><trkpt lat="39.9222532" lon="9.1380119"><ele>1019.75</ele><time>2026-04-23T07:34:41.665Z</time></trkpt><trkpt lat="39.922294" lon="9.1378887"><ele>1021.0</ele><time>2026-04-23T07:34:42.66Z</time></trkpt><trkpt lat="39.9223006" lon="9.137773"><ele>1020.9999999999999</ele><time>2026-04-23T07:34:43.659Z</time></trkpt><trkpt lat="39.9222725" lon="9.1376888"><ele>1021.0</ele><time>2026-04-23T07:34:44.654Z</time></trkpt><trkpt lat="39.9222268" lon="9.1376248"><ele>1021.0</ele><time>2026-04-23T07:34:45.665Z</time></trkpt><trkpt lat="39.9221441" lon="9.1375571"><ele>1021.0</ele><time>2026-04-23T07:34:46.696Z</time></trkpt><trkpt lat="39.922049" lon="9.137523"><ele>1020.9999999999999</ele><time>2026-04-23T07:34:47.679Z</time></trkpt><trkpt lat="39.9219722" lon="9.1375284"><ele>1021.0</ele><time>2026-04-23T07:34:48.652Z</time></trkpt><trkpt lat="39.9218723" lon="9.1376079"><ele>1021.0</ele><time>2026-04-23T07:34:49.65Z</time></trkpt><trkpt lat="39.9217648" lon="9.1376925"><ele>1021.0</ele><time>2026-04-23T07:34:50.683Z</time></trkpt><trkpt lat="39.9216399" lon="9.1377742"><ele>1021.0</ele><time>2026-04-23T07:34:51.687Z</time></trkpt><trkpt lat="39.9215165" lon="9.1378465"><ele>1021.0</ele><time>2026-04-23T07:34:52.689Z</time></trkpt><trkpt lat="39.9213921" lon="9.1378808"><ele>1020.5999999999999</ele><time>2026-04-23T07:34:53.68Z</time></trkpt><trkpt lat="39.9212699" lon="9.1379067"><ele>1020.1999999999999</ele><time>2026-04-23T07:34:54.683Z</time></trkpt><trkpt lat="39.9211515" lon="9.1379048"><ele>1019.8000000000001</ele><time>2026-04-23T07:34:55.678Z</time></trkpt><trkpt lat="39.9210427" lon="9.1378883"><ele>1019.4000000000001</ele><time>2026-04-23T07:34:56.673Z</time></trkpt><trkpt lat="39.9209724" lon="9.1378269"><ele>1019.0</ele><time>2026-04-23T07:34:57.667Z</time></trkpt><trkpt lat="39.9209499" lon="9.1377101"><ele>1019.0</ele><time>2026-04-23T07:34:58.668Z</time></trkpt><trkpt lat="39.9209851" lon="9.1374766"><ele>1019.0</ele><time>2026-04-23T07:34:59.663Z</time></trkpt><trkpt lat="39.921016" lon="9.1372398"><ele>1019.0</ele><time>2026-04-23T07:35:00.672Z</time></trkpt><trkpt lat="39.9210265" lon="9.1369692"><ele>1022.6666666666667</ele><time>2026-04-23T07:35:01.666Z</time></trkpt><trkpt lat="39.9209944" lon="9.1367001"><ele>1026.3333333333333</ele><time>2026-04-23T07:35:02.669Z</time></trkpt><trkpt lat="39.9209297" lon="9.1364253"><ele>1030.0</ele><time>2026-04-23T07:35:03.667Z</time></trkpt><trkpt lat="39.9208617" lon="9.1362049"><ele>1030.0</ele><time>2026-04-23T07:35:04.659Z</time></trkpt><trkpt lat="39.9208129" lon="9.1359942"><ele>1030.0</ele><time>2026-04-23T07:35:05.657Z</time></trkpt><trkpt lat="39.9207636" lon="9.1357859"><ele>1030.0</ele><time>2026-04-23T07:35:06.662Z</time></trkpt><trkpt lat="39.92069" lon="9.135608"><ele>1032.25</ele><time>2026-04-23T07:35:07.656Z</time></trkpt><trkpt lat="39.9206175" lon="9.135451"><ele>1034.5</ele><time>2026-04-23T07:35:08.654Z</time></trkpt><trkpt lat="39.9205488" lon="9.1352839"><ele>1036.75</ele><time>2026-04-23T07:35:09.655Z</time></trkpt><trkpt lat="39.9204478" lon="9.1351923"><ele>1039.0</ele><time>2026-04-23T07:35:10.654Z</time></trkpt><trkpt lat="39.9203018" lon="9.1350993"><ele>1039.0</ele><time>2026-04-23T07:35:11.664Z</time></trkpt><trkpt lat="39.9201478" lon="9.1350357"><ele>1039.0</ele><time>2026-04-23T07:35:12.66Z</time></trkpt><trkpt lat="39.9199717" lon="9.1349496"><ele>1039.0</ele><time>2026-04-23T07:35:13.661Z</time></trkpt><trkpt lat="39.9197872" lon="9.134896"><ele>1042.0</ele><time>2026-04-23T07:35:14.658Z</time></trkpt><trkpt lat="39.9196089" lon="9.1348456"><ele>1045.0</ele><time>2026-04-23T07:35:15.655Z</time></trkpt><trkpt lat="39.9194349" lon="9.1347685"><ele>1048.0</ele><time>2026-04-23T07:35:16.669Z</time></trkpt><trkpt lat="39.9192838" lon="9.1347468"><ele>1047.5</ele><time>2026-04-23T07:35:17.664Z</time></trkpt><trkpt lat="39.9191465" lon="9.1346778"><ele>1047.0</ele><time>2026-04-23T07:35:18.662Z</time></trkpt><trkpt lat="39.9190259" lon="9.134645"><ele>1046.5</ele><time>2026-04-23T07:35:19.666Z</time></trkpt><trkpt lat="39.9189164" lon="9.1345925"><ele>1046.0</ele><time>2026-04-23T07:35:20.667Z</time></trkpt><trkpt lat="39.9187784" lon="9.1345036"><ele>1046.0</ele><time>2026-04-23T07:35:21.66Z</time></trkpt><trkpt lat="39.9186331" lon="9.1343965"><ele>1046.0</ele><time>2026-04-23T07:35:22.657Z</time></trkpt><trkpt lat="39.9185249" lon="9.134279"><ele>1046.0</ele><time>2026-04-23T07:35:23.651Z</time></trkpt><trkpt lat="39.9184217" lon="9.1341056"><ele>1042.6666666666667</ele><time>2026-04-23T07:35:24.661Z</time></trkpt><trkpt lat="39.9182986" lon="9.1339255"><ele>1039.3333333333333</ele><time>2026-04-23T07:35:25.66Z</time></trkpt><trkpt lat="39.918262" lon="9.1337789"><ele>1036.0</ele><time>2026-04-23T07:35:26.674Z</time></trkpt><trkpt lat="39.9181645" lon="9.1335752"><ele>1036.0</ele><time>2026-04-23T07:35:27.668Z</time></trkpt><trkpt lat="39.9180902" lon="9.133377"><ele>1036.0</ele><time>2026-04-23T07:35:28.66Z</time></trkpt><trkpt lat="39.9180352" lon="9.1331913"><ele>1036.0</ele><time>2026-04-23T07:35:29.67Z</time></trkpt><trkpt lat="39.9180082" lon="9.1329988"><ele>1035.25</ele><time>2026-04-23T07:35:30.666Z</time></trkpt><trkpt lat="39.9180041" lon="9.1328248"><ele>1034.5</ele><time>2026-04-23T07:35:31.667Z</time></trkpt><trkpt lat="39.9179861" lon="9.132702"><ele>1033.75</ele><time>2026-04-23T07:35:32.657Z</time></trkpt><trkpt lat="39.917907" lon="9.1325732"><ele>1033.0</ele><time>2026-04-23T07:35:33.665Z</time></trkpt><trkpt lat="39.9177867" lon="9.1324933"><ele>1033.0</ele><time>2026-04-23T07:35:34.666Z</time></trkpt><trkpt lat="39.9176909" lon="9.1324395"><ele>1033.0</ele><time>2026-04-23T07:35:35.663Z</time></trkpt><trkpt lat="39.9175838" lon="9.1323921"><ele>1033.0</ele><time>2026-04-23T07:35:36.68Z</time></trkpt><trkpt lat="39.9174576" lon="9.1323346"><ele>1033.0</ele><time>2026-04-23T07:35:37.665Z</time></trkpt><trkpt lat="39.9173207" lon="9.1323029"><ele>1029.3333333333333</ele><time>2026-04-23T07:35:38.671Z</time></trkpt><trkpt lat="39.9171622" lon="9.1322489"><ele>1025.6666666666667</ele><time>2026-04-23T07:35:39.661Z</time></trkpt><trkpt lat="39.917004" lon="9.1322405"><ele>1022.0</ele><time>2026-04-23T07:35:40.661Z</time></trkpt><trkpt lat="39.9168507" lon="9.1322642"><ele>1022.0</ele><time>2026-04-23T07:35:41.665Z</time></trkpt><trkpt lat="39.9167431" lon="9.1323386"><ele>1022.0</ele><time>2026-04-23T07:35:42.664Z</time></trkpt><trkpt lat="39.9166147" lon="9.1324912"><ele>1022.0</ele><time>2026-04-23T07:35:43.66Z</time></trkpt><trkpt lat="39.9165112" lon="9.1326795"><ele>1020.0</ele><time>2026-04-23T07:35:44.657Z</time></trkpt><trkpt lat="39.916435" lon="9.1328539"><ele>1018.0</ele><time>2026-04-23T07:35:45.659Z</time></trkpt><trkpt lat="39.9163543" lon="9.133025"><ele>1016.0</ele><time>2026-04-23T07:35:46.692Z</time></trkpt><trkpt lat="39.916262" lon="9.1331846"><ele>1016.6666666666667</ele><time>2026-04-23T07:35:47.685Z</time></trkpt><trkpt lat="39.9161319" lon="9.1333113"><ele>1017.3333333333333</ele><time>2026-04-23T07:35:48.681Z</time></trkpt><trkpt lat="39.9160156" lon="9.1333884"><ele>1018.0</ele><time>2026-04-23T07:35:49.684Z</time></trkpt><trkpt lat="39.9158679" lon="9.1335081"><ele>1018.0</ele><time>2026-04-23T07:35:50.672Z</time></trkpt><trkpt lat="39.9157318" lon="9.1335775"><ele>1018.0</ele><time>2026-04-23T07:35:51.681Z</time></trkpt><trkpt lat="39.9156062" lon="9.1336178"><ele>1018.0</ele><time>2026-04-23T07:35:52.655Z</time></trkpt><trkpt lat="39.9155216" lon="9.1336721"><ele>1018.0</ele><time>2026-04-23T07:35:53.674Z</time></trkpt><trkpt lat="39.9154354" lon="9.1337498"><ele>1018.0</ele><time>2026-04-23T07:35:54.68Z</time></trkpt><trkpt lat="39.9153944" lon="9.1338906"><ele>1018.0</ele><time>2026-04-23T07:35:55.656Z</time></trkpt><trkpt lat="39.9153666" lon="9.1340521"><ele>1018.0</ele><time>2026-04-23T07:35:56.691Z</time></trkpt><trkpt lat="39.9152958" lon="9.1342029"><ele>1018.0</ele><time>2026-04-23T07:35:57.677Z</time></trkpt><trkpt lat="39.9152216" lon="9.1343096"><ele>1017.75</ele><time>2026-04-23T07:35:58.68Z</time></trkpt><trkpt lat="39.915113" lon="9.1344423"><ele>1017.5</ele><time>2026-04-23T07:35:59.678Z</time></trkpt><trkpt lat="39.9149733" lon="9.1345292"><ele>1017.25</ele><time>2026-04-23T07:36:00.681Z</time></trkpt><trkpt lat="39.9148438" lon="9.1345888"><ele>1017.0</ele><time>2026-04-23T07:36:01.691Z</time></trkpt><trkpt lat="39.9147132" lon="9.1346185"><ele>1017.0</ele><time>2026-04-23T07:36:02.681Z</time></trkpt><trkpt lat="39.9145613" lon="9.1345805"><ele>1017.0</ele><time>2026-04-23T07:36:03.689Z</time></trkpt><trkpt lat="39.9143847" lon="9.1345816"><ele>1017.0</ele><time>2026-04-23T07:36:04.663Z</time></trkpt><trkpt lat="39.9142349" lon="9.1345988"><ele>1019.0</ele><time>2026-04-23T07:36:05.665Z</time></trkpt><trkpt lat="39.9140952" lon="9.1346353"><ele>1021.0</ele><time>2026-04-23T07:36:06.706Z</time></trkpt><trkpt lat="39.91397" lon="9.1346527"><ele>1023.0</ele><time>2026-04-23T07:36:07.682Z</time></trkpt><trkpt lat="39.9137885" lon="9.1346033"><ele>1023.0</ele><time>2026-04-23T07:36:08.678Z</time></trkpt><trkpt lat="39.9136419" lon="9.1345483"><ele>1023.0</ele><time>2026-04-23T07:36:09.66Z</time></trkpt><trkpt lat="39.9135479" lon="9.1345194"><ele>1023.0</ele><time>2026-04-23T07:36:10.654Z</time></trkpt><trkpt lat="39.9133851" lon="9.1345364"><ele>1023.0</ele><time>2026-04-23T07:36:11.657Z</time></trkpt><trkpt lat="39.9132844" lon="9.1345419"><ele>1022.0</ele><time>2026-04-23T07:36:12.685Z</time></trkpt><trkpt lat="39.9131683" lon="9.1346699"><ele>1021.0</ele><time>2026-04-23T07:36:13.679Z</time></trkpt><trkpt lat="39.9131142" lon="9.1348371"><ele>1020.0</ele><time>2026-04-23T07:36:14.651Z</time></trkpt><trkpt lat="39.9131063" lon="9.1350396"><ele>1019.0</ele><time>2026-04-23T07:36:15.675Z</time></trkpt><trkpt lat="39.9130719" lon="9.1351745"><ele>1017.25</ele><time>2026-04-23T07:36:16.687Z</time></trkpt><trkpt lat="39.9130127" lon="9.1352849"><ele>1015.5</ele><time>2026-04-23T07:36:17.68Z</time></trkpt><trkpt lat="39.9129175" lon="9.1353674"><ele>1013.75</ele><time>2026-04-23T07:36:18.687Z</time></trkpt><trkpt lat="39.9128182" lon="9.1354405"><ele>1012.0</ele><time>2026-04-23T07:36:19.687Z</time></trkpt><trkpt lat="39.9126804" lon="9.1354937"><ele>1013.0</ele><time>2026-04-23T07:36:20.671Z</time></trkpt><trkpt lat="39.9125456" lon="9.1355481"><ele>1014.0</ele><time>2026-04-23T07:36:21.676Z</time></trkpt><trkpt lat="39.9123875" lon="9.1355555"><ele>1015.0</ele><time>2026-04-23T07:36:22.694Z</time></trkpt><trkpt lat="39.912242" lon="9.1355622"><ele>1016.0</ele><time>2026-04-23T07:36:23.695Z</time></trkpt><trkpt lat="39.9121309" lon="9.1355375"><ele>1016.0</ele><time>2026-04-23T07:36:24.695Z</time></trkpt><trkpt lat="39.9120267" lon="9.135511"><ele>1016.0</ele><time>2026-04-23T07:36:25.693Z</time></trkpt><trkpt lat="39.9119251" lon="9.1354652"><ele>1016.0</ele><time>2026-04-23T07:36:26.688Z</time></trkpt><trkpt lat="39.9118197" lon="9.1353998"><ele>1016.0</ele><time>2026-04-23T07:36:27.676Z</time></trkpt><trkpt lat="39.9116912" lon="9.1355184"><ele>1016.25</ele><time>2026-04-23T07:36:29.679Z</time></trkpt><trkpt lat="39.9116198" lon="9.1356631"><ele>1016.5</ele><time>2026-04-23T07:36:30.661Z</time></trkpt><trkpt lat="39.9115547" lon="9.1358048"><ele>1016.75</ele><time>2026-04-23T07:36:31.68Z</time></trkpt><trkpt lat="39.9114868" lon="9.1359375"><ele>1017.0</ele><time>2026-04-23T07:36:32.687Z</time></trkpt><trkpt lat="39.911401" lon="9.1360306"><ele>1013.5</ele><time>2026-04-23T07:36:33.697Z</time></trkpt><trkpt lat="39.9112855" lon="9.1360773"><ele>1010.0</ele><time>2026-04-23T07:36:34.691Z</time></trkpt><trkpt lat="39.9111701" lon="9.1360814"><ele>1006.5</ele><time>2026-04-23T07:36:35.7Z</time></trkpt><trkpt lat="39.9110324" lon="9.1360174"><ele>1003.0</ele><time>2026-04-23T07:36:36.682Z</time></trkpt><trkpt lat="39.9108876" lon="9.1359412"><ele>1003.0</ele><time>2026-04-23T07:36:37.677Z</time></trkpt><trkpt lat="39.9107336" lon="9.1358805"><ele>1003.0</ele><time>2026-04-23T07:36:38.672Z</time></trkpt><trkpt lat="39.9105944" lon="9.1358311"><ele>1003.0</ele><time>2026-04-23T07:36:39.675Z</time></trkpt><trkpt lat="39.9104768" lon="9.1358794"><ele>1003.0</ele><time>2026-04-23T07:36:40.693Z</time></trkpt><trkpt lat="39.9103584" lon="9.1359798"><ele>1003.0</ele><time>2026-04-23T07:36:41.672Z</time></trkpt><trkpt lat="39.9102607" lon="9.1361219"><ele>1003.0</ele><time>2026-04-23T07:36:42.687Z</time></trkpt><trkpt lat="39.9101661" lon="9.1362833"><ele>1003.0</ele><time>2026-04-23T07:36:43.691Z</time></trkpt><trkpt lat="39.9100581" lon="9.1364015"><ele>1003.0</ele><time>2026-04-23T07:36:44.688Z</time></trkpt><trkpt lat="39.909935" lon="9.1365101"><ele>999.75</ele><time>2026-04-23T07:36:45.695Z</time></trkpt><trkpt lat="39.9098041" lon="9.1365799"><ele>996.5</ele><time>2026-04-23T07:36:46.707Z</time></trkpt><trkpt lat="39.9096712" lon="9.136613"><ele>993.25</ele><time>2026-04-23T07:36:47.693Z</time></trkpt><trkpt lat="39.909539" lon="9.1366694"><ele>990.0</ele><time>2026-04-23T07:36:48.698Z</time></trkpt><trkpt lat="39.9094196" lon="9.1367667"><ele>990.0</ele><time>2026-04-23T07:36:49.695Z</time></trkpt><trkpt lat="39.9093085" lon="9.1368983"><ele>990.0</ele><time>2026-04-23T07:36:50.669Z</time></trkpt><trkpt lat="39.9092403" lon="9.1370982"><ele>990.0</ele><time>2026-04-23T07:36:51.697Z</time></trkpt><trkpt lat="39.9091683" lon="9.1373158"><ele>987.3333333333333</ele><time>2026-04-23T07:36:52.687Z</time></trkpt><trkpt lat="39.9090718" lon="9.1374924"><ele>984.6666666666666</ele><time>2026-04-23T07:36:53.7Z</time></trkpt><trkpt lat="39.9089416" lon="9.1375869"><ele>982.0</ele><time>2026-04-23T07:36:54.691Z</time></trkpt><trkpt lat="39.9087968" lon="9.1376657"><ele>982.0</ele><time>2026-04-23T07:36:55.694Z</time></trkpt><trkpt lat="39.9086786" lon="9.1377361"><ele>982.0</ele><time>2026-04-23T07:36:56.706Z</time></trkpt><trkpt lat="39.9085529" lon="9.1378265"><ele>982.0</ele><time>2026-04-23T07:36:57.671Z</time></trkpt><trkpt lat="39.908442" lon="9.1379416"><ele>982.0</ele><time>2026-04-23T07:36:58.671Z</time></trkpt><trkpt lat="39.908361" lon="9.1380703"><ele>980.6666666666666</ele><time>2026-04-23T07:36:59.666Z</time></trkpt><trkpt lat="39.9082931" lon="9.138247"><ele>979.3333333333333</ele><time>2026-04-23T07:37:00.662Z</time></trkpt><trkpt lat="39.9082278" lon="9.1384529"><ele>978.0</ele><time>2026-04-23T07:37:01.689Z</time></trkpt><trkpt lat="39.9081664" lon="9.1386416"><ele>978.0</ele><time>2026-04-23T07:37:02.694Z</time></trkpt><trkpt lat="39.9081038" lon="9.1388265"><ele>978.0</ele><time>2026-04-23T07:37:03.697Z</time></trkpt><trkpt lat="39.9080058" lon="9.1390082"><ele>978.0</ele><time>2026-04-23T07:37:04.697Z</time></trkpt><trkpt lat="39.9079329" lon="9.1391957"><ele>973.3333333333333</ele><time>2026-04-23T07:37:05.699Z</time></trkpt><trkpt lat="39.9078522" lon="9.139372"><ele>968.6666666666666</ele><time>2026-04-23T07:37:06.708Z</time></trkpt><trkpt lat="39.9077639" lon="9.1395417"><ele>964.0</ele><time>2026-04-23T07:37:07.698Z</time></trkpt><trkpt lat="39.9076751" lon="9.1397085"><ele>964.0</ele><time>2026-04-23T07:37:08.704Z</time></trkpt><trkpt lat="39.9075784" lon="9.1398369"><ele>964.0</ele><time>2026-04-23T07:37:09.69Z</time></trkpt><trkpt lat="39.9075006" lon="9.1399622"><ele>964.0</ele><time>2026-04-23T07:37:10.688Z</time></trkpt><trkpt lat="39.9073865" lon="9.140018"><ele>964.0</ele><time>2026-04-23T07:37:11.693Z</time></trkpt><trkpt lat="39.9072708" lon="9.1400161"><ele>965.0</ele><time>2026-04-23T07:37:12.682Z</time></trkpt><trkpt lat="39.9071909" lon="9.1399784"><ele>966.0</ele><time>2026-04-23T07:37:13.693Z</time></trkpt><trkpt lat="39.9070898" lon="9.139886"><ele>967.0</ele><time>2026-04-23T07:37:14.682Z</time></trkpt><trkpt lat="39.9070131" lon="9.1397629"><ele>968.0</ele><time>2026-04-23T07:37:15.668Z</time></trkpt><trkpt lat="39.9069438" lon="9.139598"><ele>971.3333333333334</ele><time>2026-04-23T07:37:16.668Z</time></trkpt><trkpt lat="39.9068725" lon="9.1393986"><ele>974.6666666666667</ele><time>2026-04-23T07:37:17.655Z</time></trkpt><trkpt lat="39.906789" lon="9.1391624"><ele>978.0</ele><time>2026-04-23T07:37:18.658Z</time></trkpt><trkpt lat="39.9067171" lon="9.1389511"><ele>978.0</ele><time>2026-04-23T07:37:19.655Z</time></trkpt><trkpt lat="39.9066463" lon="9.138772"><ele>978.0</ele><time>2026-04-23T07:37:20.666Z</time></trkpt><trkpt lat="39.9065349" lon="9.1386074"><ele>978.0</ele><time>2026-04-23T07:37:21.657Z</time></trkpt><trkpt lat="39.9064114" lon="9.1384727"><ele>978.0</ele><time>2026-04-23T07:37:22.659Z</time></trkpt><trkpt lat="39.9062876" lon="9.1383643"><ele>978.0</ele><time>2026-04-23T07:37:23.657Z</time></trkpt><trkpt lat="39.9061344" lon="9.138272"><ele>978.0</ele><time>2026-04-23T07:37:24.66Z</time></trkpt><trkpt lat="39.9059968" lon="9.1382044"><ele>977.0</ele><time>2026-04-23T07:37:25.665Z</time></trkpt><trkpt lat="39.9058537" lon="9.1381498"><ele>976.0</ele><time>2026-04-23T07:37:26.673Z</time></trkpt><trkpt lat="39.9057321" lon="9.138147"><ele>975.0</ele><time>2026-04-23T07:37:27.666Z</time></trkpt><trkpt lat="39.905604" lon="9.1381606"><ele>974.0</ele><time>2026-04-23T07:37:28.672Z</time></trkpt><trkpt lat="39.9054625" lon="9.1381655"><ele>974.0</ele><time>2026-04-23T07:37:29.672Z</time></trkpt><trkpt lat="39.9052996" lon="9.1381757"><ele>974.0</ele><time>2026-04-23T07:37:30.7Z</time></trkpt><trkpt lat="39.9051834" lon="9.1381457"><ele>974.0</ele><time>2026-04-23T07:37:31.688Z</time></trkpt><trkpt lat="39.9050679" lon="9.1380733"><ele>974.0</ele><time>2026-04-23T07:37:32.689Z</time></trkpt><trkpt lat="39.9049823" lon="9.1379772"><ele>968.0</ele><time>2026-04-23T07:37:33.681Z</time></trkpt><trkpt lat="39.904919" lon="9.1377969"><ele>962.0</ele><time>2026-04-23T07:37:34.662Z</time></trkpt><trkpt lat="39.9049288" lon="9.1375994"><ele>956.0</ele><time>2026-04-23T07:37:35.691Z</time></trkpt><trkpt lat="39.9049195" lon="9.1373155"><ele>955.0</ele><time>2026-04-23T07:37:36.692Z</time></trkpt><trkpt lat="39.904962" lon="9.1370918"><ele>954.0</ele><time>2026-04-23T07:37:37.668Z</time></trkpt><trkpt lat="39.9049637" lon="9.1368338"><ele>953.0</ele><time>2026-04-23T07:37:38.673Z</time></trkpt><trkpt lat="39.904964" lon="9.1365964"><ele>950.6666666666667</ele><time>2026-04-23T07:37:39.674Z</time></trkpt><trkpt lat="39.905039" lon="9.1364024"><ele>948.3333333333333</ele><time>2026-04-23T07:37:40.673Z</time></trkpt><trkpt lat="39.9051146" lon="9.1362341"><ele>946.0</ele><time>2026-04-23T07:37:41.68Z</time></trkpt><trkpt lat="39.9052163" lon="9.1361064"><ele>951.25</ele><time>2026-04-23T07:37:42.676Z</time></trkpt><trkpt lat="39.9052827" lon="9.1359781"><ele>956.5</ele><time>2026-04-23T07:37:43.677Z</time></trkpt><trkpt lat="39.9053199" lon="9.1358248"><ele>961.75</ele><time>2026-04-23T07:37:44.666Z</time></trkpt><trkpt lat="39.9053242" lon="9.1356917"><ele>967.0</ele><time>2026-04-23T07:37:45.661Z</time></trkpt><trkpt lat="39.9052891" lon="9.1355495"><ele>967.0</ele><time>2026-04-23T07:37:46.666Z</time></trkpt><trkpt lat="39.9052161" lon="9.1353994"><ele>967.0</ele><time>2026-04-23T07:37:47.668Z</time></trkpt><trkpt lat="39.9051388" lon="9.1352601"><ele>967.0</ele><time>2026-04-23T07:37:48.668Z</time></trkpt><trkpt lat="39.9050263" lon="9.1351231"><ele>967.0</ele><time>2026-04-23T07:37:49.677Z</time></trkpt><trkpt lat="39.9049497" lon="9.1349816"><ele>959.75</ele><time>2026-04-23T07:37:50.67Z</time></trkpt><trkpt lat="39.9049169" lon="9.1348343"><ele>952.5</ele><time>2026-04-23T07:37:51.672Z</time></trkpt><trkpt lat="39.9048864" lon="9.1346716"><ele>945.25</ele><time>2026-04-23T07:37:52.672Z</time></trkpt><trkpt lat="39.904898" lon="9.1344788"><ele>938.0</ele><time>2026-04-23T07:37:53.668Z</time></trkpt><trkpt lat="39.90494" lon="9.1342626"><ele>935.0</ele><time>2026-04-23T07:37:54.667Z</time></trkpt><trkpt lat="39.9049744" lon="9.1340115"><ele>932.0</ele><time>2026-04-23T07:37:55.673Z</time></trkpt><trkpt lat="39.905057" lon="9.1338484"><ele>929.0</ele><time>2026-04-23T07:37:56.668Z</time></trkpt><trkpt lat="39.9051751" lon="9.1337185"><ele>929.0</ele><time>2026-04-23T07:37:57.669Z</time></trkpt><trkpt lat="39.905362" lon="9.1336265"><ele>929.0</ele><time>2026-04-23T07:37:58.671Z</time></trkpt><trkpt lat="39.9055465" lon="9.1335581"><ele>929.0</ele><time>2026-04-23T07:37:59.696Z</time></trkpt><trkpt lat="39.9057303" lon="9.1334938"><ele>929.0</ele><time>2026-04-23T07:38:00.685Z</time></trkpt><trkpt lat="39.9059113" lon="9.1333994"><ele>929.0</ele><time>2026-04-23T07:38:01.687Z</time></trkpt><trkpt lat="39.9060691" lon="9.1333327"><ele>929.0</ele><time>2026-04-23T07:38:02.688Z</time></trkpt><trkpt lat="39.9062321" lon="9.1332612"><ele>925.3333333333334</ele><time>2026-04-23T07:38:03.681Z</time></trkpt><trkpt lat="39.9063842" lon="9.1331705"><ele>921.6666666666667</ele><time>2026-04-23T07:38:04.689Z</time></trkpt><trkpt lat="39.9065295" lon="9.1330691"><ele>918.0</ele><time>2026-04-23T07:38:05.685Z</time></trkpt><trkpt lat="39.9066516" lon="9.1329472"><ele>922.0</ele><time>2026-04-23T07:38:06.66Z</time></trkpt><trkpt lat="39.9067734" lon="9.1328393"><ele>926.0</ele><time>2026-04-23T07:38:07.672Z</time></trkpt><trkpt lat="39.9068989" lon="9.1327054"><ele>930.0</ele><time>2026-04-23T07:38:08.676Z</time></trkpt><trkpt lat="39.9070116" lon="9.1325931"><ele>930.0</ele><time>2026-04-23T07:38:09.692Z</time></trkpt><trkpt lat="39.907132" lon="9.1324542"><ele>930.0</ele><time>2026-04-23T07:38:10.67Z</time></trkpt><trkpt lat="39.907273" lon="9.1323172"><ele>930.0</ele><time>2026-04-23T07:38:11.691Z</time></trkpt><trkpt lat="39.9074127" lon="9.1322449"><ele>925.0</ele><time>2026-04-23T07:38:12.668Z</time></trkpt><trkpt lat="39.907558" lon="9.13221"><ele>920.0</ele><time>2026-04-23T07:38:13.661Z</time></trkpt><trkpt lat="39.9076749" lon="9.1322198"><ele>915.0</ele><time>2026-04-23T07:38:14.656Z</time></trkpt><trkpt lat="39.9078016" lon="9.1322193"><ele>910.0</ele><time>2026-04-23T07:38:15.664Z</time></trkpt><trkpt lat="39.9079208" lon="9.1322939"><ele>910.0</ele><time>2026-04-23T07:38:16.688Z</time></trkpt><trkpt lat="39.9080547" lon="9.1323003"><ele>910.0</ele><time>2026-04-23T07:38:17.657Z</time></trkpt><trkpt lat="39.9081854" lon="9.1322882"><ele>910.0</ele><time>2026-04-23T07:38:18.653Z</time></trkpt><trkpt lat="39.9082893" lon="9.1322879"><ele>910.0</ele><time>2026-04-23T07:38:19.657Z</time></trkpt><trkpt lat="39.9083326" lon="9.13215"><ele>910.0</ele><time>2026-04-23T07:38:20.654Z</time></trkpt><trkpt lat="39.9083739" lon="9.1320133"><ele>910.0</ele><time>2026-04-23T07:38:21.656Z</time></trkpt><trkpt lat="39.9084346" lon="9.1318207"><ele>910.0</ele><time>2026-04-23T07:38:22.656Z</time></trkpt><trkpt lat="39.9085365" lon="9.1316132"><ele>910.0</ele><time>2026-04-23T07:38:23.662Z</time></trkpt><trkpt lat="39.9086397" lon="9.1314798"><ele>910.0</ele><time>2026-04-23T07:38:24.662Z</time></trkpt><trkpt lat="39.9087955" lon="9.1313737"><ele>910.0</ele><time>2026-04-23T07:38:25.661Z</time></trkpt><trkpt lat="39.908934" lon="9.1312742"><ele>910.0</ele><time>2026-04-23T07:38:26.689Z</time></trkpt><trkpt lat="39.9090554" lon="9.1311822"><ele>910.0</ele><time>2026-04-23T07:38:27.687Z</time></trkpt><trkpt lat="39.909151" lon="9.1310254"><ele>910.0</ele><time>2026-04-23T07:38:28.657Z</time></trkpt><trkpt lat="39.9092478" lon="9.1308662"><ele>913.25</ele><time>2026-04-23T07:38:29.656Z</time></trkpt><trkpt lat="39.909281" lon="9.1306772"><ele>916.5</ele><time>2026-04-23T07:38:30.652Z</time></trkpt><trkpt lat="39.9093295" lon="9.1305045"><ele>919.75</ele><time>2026-04-23T07:38:31.654Z</time></trkpt><trkpt lat="39.9093427" lon="9.1303128"><ele>923.0</ele><time>2026-04-23T07:38:32.658Z</time></trkpt><trkpt lat="39.9093622" lon="9.130103"><ele>918.5</ele><time>2026-04-23T07:38:33.649Z</time></trkpt><trkpt lat="39.9093843" lon="9.1298852"><ele>914.0</ele><time>2026-04-23T07:38:34.653Z</time></trkpt><trkpt lat="39.9093518" lon="9.1297292"><ele>909.5</ele><time>2026-04-23T07:38:35.653Z</time></trkpt><trkpt lat="39.9092959" lon="9.1295407"><ele>905.0</ele><time>2026-04-23T07:38:36.661Z</time></trkpt><trkpt lat="39.9092459" lon="9.1294134"><ele>903.0</ele><time>2026-04-23T07:38:37.664Z</time></trkpt><trkpt lat="39.9092031" lon="9.1292803"><ele>901.0</ele><time>2026-04-23T07:38:38.67Z</time></trkpt><trkpt lat="39.9092151" lon="9.1291505"><ele>899.0</ele><time>2026-04-23T07:38:39.689Z</time></trkpt><trkpt lat="39.9092694" lon="9.1290377"><ele>897.0</ele><time>2026-04-23T07:38:40.693Z</time></trkpt><trkpt lat="39.9093739" lon="9.1289727"><ele>895.0</ele><time>2026-04-23T07:38:41.667Z</time></trkpt><trkpt lat="39.9094897" lon="9.1289362"><ele>893.5</ele><time>2026-04-23T07:38:42.668Z</time></trkpt><trkpt lat="39.9095954" lon="9.1288932"><ele>892.0</ele><time>2026-04-23T07:38:43.688Z</time></trkpt><trkpt lat="39.9097062" lon="9.1288949"><ele>890.5</ele><time>2026-04-23T07:38:44.684Z</time></trkpt><trkpt lat="39.9098467" lon="9.1289272"><ele>889.0</ele><time>2026-04-23T07:38:45.684Z</time></trkpt><trkpt lat="39.9099861" lon="9.1289566"><ele>896.75</ele><time>2026-04-23T07:38:46.66Z</time></trkpt><trkpt lat="39.9101122" lon="9.1289863"><ele>904.5</ele><time>2026-04-23T07:38:47.684Z</time></trkpt><trkpt lat="39.9102271" lon="9.1290053"><ele>912.25</ele><time>2026-04-23T07:38:48.652Z</time></trkpt><trkpt lat="39.9103371" lon="9.1290056"><ele>920.0</ele><time>2026-04-23T07:38:49.678Z</time></trkpt><trkpt lat="39.9104479" lon="9.1289899"><ele>920.0</ele><time>2026-04-23T07:38:50.653Z</time></trkpt><trkpt lat="39.9105408" lon="9.1289408"><ele>920.0</ele><time>2026-04-23T07:38:51.647Z</time></trkpt><trkpt lat="39.9105944" lon="9.1288556"><ele>920.0</ele><time>2026-04-23T07:38:52.661Z</time></trkpt><trkpt lat="39.9106129" lon="9.128732"><ele>920.0</ele><time>2026-04-23T07:38:53.655Z</time></trkpt><trkpt lat="39.9106143" lon="9.1285863"><ele>920.0</ele><time>2026-04-23T07:38:54.685Z</time></trkpt><trkpt lat="39.9105683" lon="9.1284297"><ele>920.0</ele><time>2026-04-23T07:38:55.66Z</time></trkpt><trkpt lat="39.9105043" lon="9.128309"><ele>920.0</ele><time>2026-04-23T07:38:56.661Z</time></trkpt><trkpt lat="39.9104235" lon="9.1281812"><ele>920.0</ele><time>2026-04-23T07:38:57.682Z</time></trkpt><trkpt lat="39.9103461" lon="9.1280407"><ele>920.0</ele><time>2026-04-23T07:38:58.657Z</time></trkpt><trkpt lat="39.9102529" lon="9.1278959"><ele>922.3333333333334</ele><time>2026-04-23T07:38:59.678Z</time></trkpt><trkpt lat="39.9101543" lon="9.1277451"><ele>924.6666666666667</ele><time>2026-04-23T07:39:00.666Z</time></trkpt><trkpt lat="39.9100815" lon="9.1275633"><ele>927.0</ele><time>2026-04-23T07:39:01.656Z</time></trkpt><trkpt lat="39.9100441" lon="9.1273629"><ele>920.25</ele><time>2026-04-23T07:39:02.662Z</time></trkpt><trkpt lat="39.9099936" lon="9.1272072"><ele>913.5</ele><time>2026-04-23T07:39:03.66Z</time></trkpt><trkpt lat="39.9098952" lon="9.1271091"><ele>906.75</ele><time>2026-04-23T07:39:04.663Z</time></trkpt><trkpt lat="39.9097569" lon="9.127043"><ele>900.0</ele><time>2026-04-23T07:39:05.65Z</time></trkpt><trkpt lat="39.9096044" lon="9.1269412"><ele>900.0</ele><time>2026-04-23T07:39:06.661Z</time></trkpt><trkpt lat="39.9095093" lon="9.1267858"><ele>900.0</ele><time>2026-04-23T07:39:07.676Z</time></trkpt><trkpt lat="39.90949" lon="9.1266216"><ele>900.0</ele><time>2026-04-23T07:39:08.646Z</time></trkpt><trkpt lat="39.9094469" lon="9.1264603"><ele>900.0</ele><time>2026-04-23T07:39:09.654Z</time></trkpt><trkpt lat="39.9094079" lon="9.1262541"><ele>900.75</ele><time>2026-04-23T07:39:10.656Z</time></trkpt><trkpt lat="39.9093663" lon="9.1260377"><ele>901.5</ele><time>2026-04-23T07:39:11.656Z</time></trkpt><trkpt lat="39.9093605" lon="9.1258473"><ele>902.25</ele><time>2026-04-23T07:39:12.661Z</time></trkpt><trkpt lat="39.9093639" lon="9.1256763"><ele>903.0</ele><time>2026-04-23T07:39:13.662Z</time></trkpt><trkpt lat="39.909389" lon="9.1255015"><ele>900.5</ele><time>2026-04-23T07:39:14.682Z</time></trkpt><trkpt lat="39.9094267" lon="9.1253243"><ele>898.0</ele><time>2026-04-23T07:39:15.679Z</time></trkpt><trkpt lat="39.9095143" lon="9.1251927"><ele>895.5</ele><time>2026-04-23T07:39:16.663Z</time></trkpt><trkpt lat="39.9095807" lon="9.1250467"><ele>893.0</ele><time>2026-04-23T07:39:17.653Z</time></trkpt><trkpt lat="39.9096048" lon="9.1248595"><ele>889.0</ele><time>2026-04-23T07:39:18.656Z</time></trkpt><trkpt lat="39.9096337" lon="9.1246634"><ele>885.0</ele><time>2026-04-23T07:39:19.654Z</time></trkpt><trkpt lat="39.9096715" lon="9.1244755"><ele>881.0</ele><time>2026-04-23T07:39:20.658Z</time></trkpt><trkpt lat="39.9097318" lon="9.1243138"><ele>877.0</ele><time>2026-04-23T07:39:21.665Z</time></trkpt><trkpt lat="39.9098375" lon="9.1241903"><ele>876.6666666666666</ele><time>2026-04-23T07:39:22.659Z</time></trkpt><trkpt lat="39.9099352" lon="9.1240391"><ele>876.3333333333333</ele><time>2026-04-23T07:39:23.656Z</time></trkpt><trkpt lat="39.9100164" lon="9.1238811"><ele>876.0</ele><time>2026-04-23T07:39:24.665Z</time></trkpt><trkpt lat="39.9101004" lon="9.1237145"><ele>876.0</ele><time>2026-04-23T07:39:25.662Z</time></trkpt><trkpt lat="39.9101992" lon="9.1235539"><ele>876.0</ele><time>2026-04-23T07:39:26.66Z</time></trkpt><trkpt lat="39.9103273" lon="9.1234214"><ele>876.0</ele><time>2026-04-23T07:39:27.688Z</time></trkpt><trkpt lat="39.910464" lon="9.1232918"><ele>869.6666666666667</ele><time>2026-04-23T07:39:28.684Z</time></trkpt><trkpt lat="39.9105954" lon="9.1231579"><ele>863.3333333333334</ele><time>2026-04-23T07:39:29.677Z</time></trkpt><trkpt lat="39.9107112" lon="9.1230253"><ele>857.0</ele><time>2026-04-23T07:39:30.68Z</time></trkpt><trkpt lat="39.9108356" lon="9.1228894"><ele>859.6666666666667</ele><time>2026-04-23T07:39:31.649Z</time></trkpt><trkpt lat="39.9109482" lon="9.1227306"><ele>862.3333333333333</ele><time>2026-04-23T07:39:32.654Z</time></trkpt><trkpt lat="39.9110598" lon="9.1225767"><ele>865.0</ele><time>2026-04-23T07:39:33.66Z</time></trkpt><trkpt lat="39.911181" lon="9.1224777"><ele>859.6666666666666</ele><time>2026-04-23T07:39:34.676Z</time></trkpt><trkpt lat="39.9113095" lon="9.1223461"><ele>854.3333333333333</ele><time>2026-04-23T07:39:35.67Z</time></trkpt><trkpt lat="39.9114665" lon="9.1222388"><ele>849.0</ele><time>2026-04-23T07:39:36.652Z</time></trkpt><trkpt lat="39.9116014" lon="9.1221453"><ele>847.5</ele><time>2026-04-23T07:39:37.671Z</time></trkpt><trkpt lat="39.9117582" lon="9.1220933"><ele>846.0</ele><time>2026-04-23T07:39:38.678Z</time></trkpt><trkpt lat="39.9119221" lon="9.1220636"><ele>844.5</ele><time>2026-04-23T07:39:39.645Z</time></trkpt><trkpt lat="39.9120352" lon="9.1220975"><ele>843.0</ele><time>2026-04-23T07:39:40.671Z</time></trkpt><trkpt lat="39.9121778" lon="9.1221587"><ele>843.0</ele><time>2026-04-23T07:39:41.671Z</time></trkpt><trkpt lat="39.9122948" lon="9.1221925"><ele>843.0</ele><time>2026-04-23T07:39:42.677Z</time></trkpt><trkpt lat="39.9123836" lon="9.1222224"><ele>843.0</ele><time>2026-04-23T07:39:43.676Z</time></trkpt><trkpt lat="39.9124546" lon="9.1221882"><ele>843.0</ele><time>2026-04-23T07:39:44.65Z</time></trkpt><trkpt lat="39.9125154" lon="9.1221162"><ele>843.0</ele><time>2026-04-23T07:39:45.649Z</time></trkpt><trkpt lat="39.9125135" lon="9.1220137"><ele>843.0</ele><time>2026-04-23T07:39:46.645Z</time></trkpt><trkpt lat="39.9124984" lon="9.1219182"><ele>843.0</ele><time>2026-04-23T07:39:47.663Z</time></trkpt><trkpt lat="39.912424" lon="9.1218178"><ele>843.0</ele><time>2026-04-23T07:39:48.67Z</time></trkpt><trkpt lat="39.9123317" lon="9.1217408"><ele>843.0</ele><time>2026-04-23T07:39:49.64Z</time></trkpt><trkpt lat="39.9122333" lon="9.1217132"><ele>843.0</ele><time>2026-04-23T07:39:50.644Z</time></trkpt><trkpt lat="39.9121129" lon="9.1216891"><ele>843.0</ele><time>2026-04-23T07:39:51.65Z</time></trkpt><trkpt lat="39.9119831" lon="9.1216962"><ele>843.0</ele><time>2026-04-23T07:39:52.651Z</time></trkpt><trkpt lat="39.911827" lon="9.1217191"><ele>843.0</ele><time>2026-04-23T07:39:53.656Z</time></trkpt><trkpt lat="39.9116232" lon="9.1217756"><ele>843.0</ele><time>2026-04-23T07:39:54.662Z</time></trkpt><trkpt lat="39.9114752" lon="9.1218508"><ele>845.0</ele><time>2026-04-23T07:39:55.656Z</time></trkpt><trkpt lat="39.9113156" lon="9.121951"><ele>847.0</ele><time>2026-04-23T07:39:56.659Z</time></trkpt><trkpt lat="39.9111634" lon="9.122061"><ele>849.0</ele><time>2026-04-23T07:39:57.657Z</time></trkpt><trkpt lat="39.9110121" lon="9.1221987"><ele>846.5</ele><time>2026-04-23T07:39:58.658Z</time></trkpt><trkpt lat="39.9108768" lon="9.1222902"><ele>844.0</ele><time>2026-04-23T07:39:59.672Z</time></trkpt><trkpt lat="39.9107544" lon="9.1223543"><ele>841.5</ele><time>2026-04-23T07:40:00.655Z</time></trkpt><trkpt lat="39.9106083" lon="9.1223807"><ele>839.0</ele><time>2026-04-23T07:40:01.673Z</time></trkpt><trkpt lat="39.9104577" lon="9.1223974"><ele>839.0</ele><time>2026-04-23T07:40:02.668Z</time></trkpt><trkpt lat="39.9102843" lon="9.1223628"><ele>839.0</ele><time>2026-04-23T07:40:03.668Z</time></trkpt><trkpt lat="39.9101694" lon="9.1223258"><ele>839.0</ele><time>2026-04-23T07:40:04.673Z</time></trkpt><trkpt lat="39.9100706" lon="9.1222531"><ele>839.0</ele><time>2026-04-23T07:40:05.672Z</time></trkpt><trkpt lat="39.9100163" lon="9.1221327"><ele>839.2</ele><time>2026-04-23T07:40:06.659Z</time></trkpt><trkpt lat="39.9099893" lon="9.1220292"><ele>839.4000000000001</ele><time>2026-04-23T07:40:07.659Z</time></trkpt><trkpt lat="39.9099382" lon="9.121884"><ele>839.6</ele><time>2026-04-23T07:40:08.649Z</time></trkpt><trkpt lat="39.9098852" lon="9.1217987"><ele>839.8</ele><time>2026-04-23T07:40:09.684Z</time></trkpt><trkpt lat="39.9098082" lon="9.1217474"><ele>840.0</ele><time>2026-04-23T07:40:10.666Z</time></trkpt><trkpt lat="39.9097172" lon="9.1217433"><ele>840.0</ele><time>2026-04-23T07:40:11.673Z</time></trkpt><trkpt lat="39.9096472" lon="9.121763"><ele>840.0</ele><time>2026-04-23T07:40:12.683Z</time></trkpt><trkpt lat="39.9095736" lon="9.1218347"><ele>840.0</ele><time>2026-04-23T07:40:13.665Z</time></trkpt><trkpt lat="39.909515" lon="9.1219754"><ele>840.0</ele><time>2026-04-23T07:40:14.669Z</time></trkpt><trkpt lat="39.9094624" lon="9.1221488"><ele>840.0</ele><time>2026-04-23T07:40:15.68Z</time></trkpt><trkpt lat="39.9094192" lon="9.1223259"><ele>842.0</ele><time>2026-04-23T07:40:16.681Z</time></trkpt><trkpt lat="39.9093936" lon="9.1225143"><ele>844.0</ele><time>2026-04-23T07:40:17.674Z</time></trkpt><trkpt lat="39.9093669" lon="9.1226648"><ele>846.0</ele><time>2026-04-23T07:40:18.678Z</time></trkpt><trkpt lat="39.9093144" lon="9.1228072"><ele>848.0</ele><time>2026-04-23T07:40:19.675Z</time></trkpt><trkpt lat="39.9092578" lon="9.1229277"><ele>845.4</ele><time>2026-04-23T07:40:20.67Z</time></trkpt><trkpt lat="39.9091751" lon="9.1229968"><ele>842.8</ele><time>2026-04-23T07:40:21.671Z</time></trkpt><trkpt lat="39.9090613" lon="9.1229795"><ele>840.2</ele><time>2026-04-23T07:40:22.673Z</time></trkpt><trkpt lat="39.90896" lon="9.1229659"><ele>837.6</ele><time>2026-04-23T07:40:23.649Z</time></trkpt><trkpt lat="39.9088289" lon="9.1229364"><ele>835.0</ele><time>2026-04-23T07:40:24.649Z</time></trkpt><trkpt lat="39.9086939" lon="9.1229257"><ele>835.0</ele><time>2026-04-23T07:40:25.655Z</time></trkpt><trkpt lat="39.9085772" lon="9.1229502"><ele>835.0</ele><time>2026-04-23T07:40:26.678Z</time></trkpt><trkpt lat="39.9084669" lon="9.1230339"><ele>835.0</ele><time>2026-04-23T07:40:27.661Z</time></trkpt><trkpt lat="39.9083884" lon="9.1231495"><ele>835.0</ele><time>2026-04-23T07:40:28.655Z</time></trkpt><trkpt lat="39.9083527" lon="9.1232932"><ele>833.25</ele><time>2026-04-23T07:40:29.653Z</time></trkpt><trkpt lat="39.9083631" lon="9.1234384"><ele>831.5</ele><time>2026-04-23T07:40:30.682Z</time></trkpt><trkpt lat="39.9083839" lon="9.1235826"><ele>829.75</ele><time>2026-04-23T07:40:31.682Z</time></trkpt><trkpt lat="39.9083926" lon="9.1237482"><ele>828.0</ele><time>2026-04-23T07:40:32.681Z</time></trkpt><trkpt lat="39.9083746" lon="9.1238979"><ele>828.0</ele><time>2026-04-23T07:40:33.677Z</time></trkpt><trkpt lat="39.90834" lon="9.1240325"><ele>828.0</ele><time>2026-04-23T07:40:34.685Z</time></trkpt><trkpt lat="39.9082636" lon="9.1241523"><ele>828.0</ele><time>2026-04-23T07:40:35.685Z</time></trkpt><trkpt lat="39.9081533" lon="9.1242516"><ele>828.0</ele><time>2026-04-23T07:40:36.659Z</time></trkpt><trkpt lat="39.9080182" lon="9.1243388"><ele>830.6666666666667</ele><time>2026-04-23T07:40:37.665Z</time></trkpt><trkpt lat="39.9078476" lon="9.1244079"><ele>833.3333333333334</ele><time>2026-04-23T07:40:38.667Z</time></trkpt><trkpt lat="39.9077052" lon="9.1245007"><ele>836.0</ele><time>2026-04-23T07:40:39.66Z</time></trkpt><trkpt lat="39.9075566" lon="9.1246219"><ele>830.6666666666667</ele><time>2026-04-23T07:40:40.685Z</time></trkpt><trkpt lat="39.907395" lon="9.124638"><ele>825.3333333333333</ele><time>2026-04-23T07:40:41.681Z</time></trkpt><trkpt lat="39.9072289" lon="9.1245945"><ele>820.0</ele><time>2026-04-23T07:40:42.682Z</time></trkpt><trkpt lat="39.9070991" lon="9.1245011"><ele>820.0</ele><time>2026-04-23T07:40:43.679Z</time></trkpt><trkpt lat="39.9070023" lon="9.1243967"><ele>820.0</ele><time>2026-04-23T07:40:44.677Z</time></trkpt><trkpt lat="39.9068867" lon="9.1243108"><ele>820.0</ele><time>2026-04-23T07:40:45.679Z</time></trkpt><trkpt lat="39.9068438" lon="9.1240885"><ele>820.0</ele><time>2026-04-23T07:40:46.654Z</time></trkpt><trkpt lat="39.9067978" lon="9.1238996"><ele>818.25</ele><time>2026-04-23T07:40:47.661Z</time></trkpt><trkpt lat="39.9067568" lon="9.1237012"><ele>816.5</ele><time>2026-04-23T07:40:48.667Z</time></trkpt><trkpt lat="39.9067052" lon="9.1235352"><ele>814.75</ele><time>2026-04-23T07:40:49.669Z</time></trkpt><trkpt lat="39.906674" lon="9.1234286"><ele>813.0</ele><time>2026-04-23T07:40:50.665Z</time></trkpt><trkpt lat="39.9066041" lon="9.1232989"><ele>810.0</ele><time>2026-04-23T07:40:51.664Z</time></trkpt><trkpt lat="39.9065075" lon="9.1231953"><ele>807.0</ele><time>2026-04-23T07:40:52.654Z</time></trkpt><trkpt lat="39.9064265" lon="9.123135"><ele>804.0</ele><time>2026-04-23T07:40:53.661Z</time></trkpt><trkpt lat="39.9063441" lon="9.1231128"><ele>801.0</ele><time>2026-04-23T07:40:54.655Z</time></trkpt><trkpt lat="39.906259" lon="9.1231642"><ele>798.0</ele><time>2026-04-23T07:40:55.677Z</time></trkpt><trkpt lat="39.9061518" lon="9.1231881"><ele>800.3333333333333</ele><time>2026-04-23T07:40:56.647Z</time></trkpt><trkpt lat="39.9060628" lon="9.1233082"><ele>802.6666666666666</ele><time>2026-04-23T07:40:57.644Z</time></trkpt><trkpt lat="39.9059589" lon="9.1234875"><ele>805.0</ele><time>2026-04-23T07:40:58.677Z</time></trkpt><trkpt lat="39.9058424" lon="9.1236324"><ele>805.0</ele><time>2026-04-23T07:40:59.67Z</time></trkpt><trkpt lat="39.9056872" lon="9.1237773"><ele>805.0</ele><time>2026-04-23T07:41:00.678Z</time></trkpt><trkpt lat="39.9055364" lon="9.1239212"><ele>805.0</ele><time>2026-04-23T07:41:01.678Z</time></trkpt><trkpt lat="39.9054082" lon="9.1240285"><ele>806.3333333333333</ele><time>2026-04-23T07:41:02.664Z</time></trkpt><trkpt lat="39.90526" lon="9.1241554"><ele>807.6666666666667</ele><time>2026-04-23T07:41:03.66Z</time></trkpt><trkpt lat="39.9051412" lon="9.1242639"><ele>809.0</ele><time>2026-04-23T07:41:04.662Z</time></trkpt><trkpt lat="39.9050286" lon="9.1243971"><ele>809.0</ele><time>2026-04-23T07:41:05.662Z</time></trkpt><trkpt lat="39.9049253" lon="9.1245261"><ele>809.0</ele><time>2026-04-23T07:41:06.667Z</time></trkpt><trkpt lat="39.9048503" lon="9.1246513"><ele>809.0</ele><time>2026-04-23T07:41:07.681Z</time></trkpt><trkpt lat="39.9047618" lon="9.1247182"><ele>809.0</ele><time>2026-04-23T07:41:08.678Z</time></trkpt><trkpt lat="39.9046567" lon="9.1246847"><ele>809.0</ele><time>2026-04-23T07:41:09.68Z</time></trkpt><trkpt lat="39.9045475" lon="9.1246085"><ele>809.0</ele><time>2026-04-23T07:41:10.679Z</time></trkpt><trkpt lat="39.9044493" lon="9.1245281"><ele>809.0</ele><time>2026-04-23T07:41:11.682Z</time></trkpt><trkpt lat="39.904363" lon="9.1243875"><ele>809.0</ele><time>2026-04-23T07:41:12.663Z</time></trkpt><trkpt lat="39.9042785" lon="9.1242306"><ele>807.0</ele><time>2026-04-23T07:41:13.657Z</time></trkpt><trkpt lat="39.9042057" lon="9.1240403"><ele>805.0</ele><time>2026-04-23T07:41:14.658Z</time></trkpt><trkpt lat="39.9041373" lon="9.1238223"><ele>803.0</ele><time>2026-04-23T07:41:15.656Z</time></trkpt><trkpt lat="39.9040909" lon="9.1236301"><ele>803.0</ele><time>2026-04-23T07:41:16.661Z</time></trkpt><trkpt lat="39.9040913" lon="9.1234458"><ele>803.0</ele><time>2026-04-23T07:41:17.667Z</time></trkpt><trkpt lat="39.9040785" lon="9.1232685"><ele>803.0</ele><time>2026-04-23T07:41:18.663Z</time></trkpt><trkpt lat="39.9040409" lon="9.1230786"><ele>803.0</ele><time>2026-04-23T07:41:19.654Z</time></trkpt><trkpt lat="39.9039986" lon="9.1229109"><ele>802.4</ele><time>2026-04-23T07:41:20.654Z</time></trkpt><trkpt lat="39.9039426" lon="9.1227985"><ele>801.8</ele><time>2026-04-23T07:41:21.662Z</time></trkpt><trkpt lat="39.9038389" lon="9.1226966"><ele>801.2</ele><time>2026-04-23T07:41:22.661Z</time></trkpt><trkpt lat="39.9037612" lon="9.1226143"><ele>800.6</ele><time>2026-04-23T07:41:23.664Z</time></trkpt><trkpt lat="39.9037021" lon="9.1225058"><ele>800.0</ele><time>2026-04-23T07:41:24.663Z</time></trkpt><trkpt lat="39.9036469" lon="9.1223739"><ele>799.6</ele><time>2026-04-23T07:41:26.662Z</time></trkpt><trkpt lat="39.9035258" lon="9.1223115"><ele>799.2</ele><time>2026-04-23T07:41:28.654Z</time></trkpt><trkpt lat="39.9034402" lon="9.1222959"><ele>798.8</ele><time>2026-04-23T07:41:29.653Z</time></trkpt><trkpt lat="39.9033538" lon="9.1223005"><ele>798.4</ele><time>2026-04-23T07:41:30.662Z</time></trkpt><trkpt lat="39.9032541" lon="9.122331"><ele>798.0</ele><time>2026-04-23T07:41:31.654Z</time></trkpt><trkpt lat="39.9031251" lon="9.122367"><ele>796.3333333333333</ele><time>2026-04-23T07:41:32.677Z</time></trkpt><trkpt lat="39.9029812" lon="9.1223667"><ele>794.6666666666666</ele><time>2026-04-23T07:41:33.654Z</time></trkpt><trkpt lat="39.9028261" lon="9.1223514"><ele>793.0</ele><time>2026-04-23T07:41:34.654Z</time></trkpt><trkpt lat="39.9026622" lon="9.1222678"><ele>795.3333333333333</ele><time>2026-04-23T07:41:35.648Z</time></trkpt><trkpt lat="39.9024755" lon="9.1221805"><ele>797.6666666666667</ele><time>2026-04-23T07:41:36.649Z</time></trkpt><trkpt lat="39.9023173" lon="9.1220741"><ele>800.0</ele><time>2026-04-23T07:41:37.651Z</time></trkpt><trkpt lat="39.9021165" lon="9.1219061"><ele>800.0</ele><time>2026-04-23T07:41:38.647Z</time></trkpt><trkpt lat="39.9019408" lon="9.1216717"><ele>800.0</ele><time>2026-04-23T07:41:39.656Z</time></trkpt><trkpt lat="39.9017781" lon="9.1214567"><ele>800.0</ele><time>2026-04-23T07:41:40.658Z</time></trkpt><trkpt lat="39.9016218" lon="9.1212271"><ele>800.0</ele><time>2026-04-23T07:41:41.656Z</time></trkpt><trkpt lat="39.9014648" lon="9.1209919"><ele>800.0</ele><time>2026-04-23T07:41:42.662Z</time></trkpt><trkpt lat="39.9012635" lon="9.1207446"><ele>800.0</ele><time>2026-04-23T07:41:43.662Z</time></trkpt><trkpt lat="39.9010798" lon="9.120535"><ele>801.5</ele><time>2026-04-23T07:41:44.669Z</time></trkpt><trkpt lat="39.9008895" lon="9.1203422"><ele>803.0</ele><time>2026-04-23T07:41:45.667Z</time></trkpt><trkpt lat="39.9007204" lon="9.1201635"><ele>803.0</ele><time>2026-04-23T07:41:46.667Z</time></trkpt><trkpt lat="39.900549" lon="9.1199785"><ele>803.0</ele><time>2026-04-23T07:41:47.667Z</time></trkpt><trkpt lat="39.9003949" lon="9.119792"><ele>803.0</ele><time>2026-04-23T07:41:48.666Z</time></trkpt><trkpt lat="39.900221" lon="9.1196132"><ele>803.6666666666667</ele><time>2026-04-23T07:41:49.673Z</time></trkpt><trkpt lat="39.900043" lon="9.1194353"><ele>804.3333333333333</ele><time>2026-04-23T07:41:50.67Z</time></trkpt><trkpt lat="39.8998741" lon="9.1192614"><ele>805.0</ele><time>2026-04-23T07:41:51.672Z</time></trkpt><trkpt lat="39.8997123" lon="9.1190896"><ele>807.6666666666666</ele><time>2026-04-23T07:41:52.679Z</time></trkpt><trkpt lat="39.8995332" lon="9.1189334"><ele>810.3333333333333</ele><time>2026-04-23T07:41:53.676Z</time></trkpt><trkpt lat="39.8993843" lon="9.1188032"><ele>813.0</ele><time>2026-04-23T07:41:54.681Z</time></trkpt><trkpt lat="39.8992228" lon="9.1186887"><ele>813.0</ele><time>2026-04-23T07:41:55.674Z</time></trkpt><trkpt lat="39.8990496" lon="9.1186014"><ele>813.0</ele><time>2026-04-23T07:41:56.661Z</time></trkpt><trkpt lat="39.8988632" lon="9.1185124"><ele>813.0</ele><time>2026-04-23T07:41:57.677Z</time></trkpt><trkpt lat="39.8986807" lon="9.1185054"><ele>813.0</ele><time>2026-04-23T07:41:58.668Z</time></trkpt><trkpt lat="39.8984647" lon="9.118514"><ele>813.0</ele><time>2026-04-23T07:41:59.668Z</time></trkpt><trkpt lat="39.8982355" lon="9.1185148"><ele>813.0</ele><time>2026-04-23T07:42:00.67Z</time></trkpt><trkpt lat="39.8980116" lon="9.1185114"><ele>814.0</ele><time>2026-04-23T07:42:01.667Z</time></trkpt><trkpt lat="39.8977978" lon="9.1184894"><ele>815.0</ele><time>2026-04-23T07:42:02.671Z</time></trkpt><trkpt lat="39.8976146" lon="9.1184732"><ele>816.0</ele><time>2026-04-23T07:42:03.67Z</time></trkpt><trkpt lat="39.8973963" lon="9.1184475"><ele>818.0</ele><time>2026-04-23T07:42:04.67Z</time></trkpt><trkpt lat="39.897184" lon="9.1184369"><ele>820.0</ele><time>2026-04-23T07:42:05.669Z</time></trkpt><trkpt lat="39.8969775" lon="9.1184264"><ele>822.0</ele><time>2026-04-23T07:42:06.671Z</time></trkpt><trkpt lat="39.8967654" lon="9.1184378"><ele>822.6666666666667</ele><time>2026-04-23T07:42:07.67Z</time></trkpt><trkpt lat="39.8965649" lon="9.1184304"><ele>823.3333333333334</ele><time>2026-04-23T07:42:08.674Z</time></trkpt><trkpt lat="39.8963598" lon="9.1184091"><ele>824.0</ele><time>2026-04-23T07:42:09.669Z</time></trkpt><trkpt lat="39.8961598" lon="9.1184039"><ele>824.0</ele><time>2026-04-23T07:42:10.672Z</time></trkpt><trkpt lat="39.895951" lon="9.1183706"><ele>824.0</ele><time>2026-04-23T07:42:11.678Z</time></trkpt><trkpt lat="39.8957455" lon="9.1183343"><ele>824.0</ele><time>2026-04-23T07:42:12.675Z</time></trkpt><trkpt lat="39.8955404" lon="9.118324"><ele>825.0</ele><time>2026-04-23T07:42:13.671Z</time></trkpt><trkpt lat="39.8953126" lon="9.1183216"><ele>826.0</ele><time>2026-04-23T07:42:14.671Z</time></trkpt><trkpt lat="39.8950946" lon="9.118344"><ele>827.0</ele><time>2026-04-23T07:42:15.674Z</time></trkpt><trkpt lat="39.8948654" lon="9.1183754"><ele>828.5</ele><time>2026-04-23T07:42:16.672Z</time></trkpt><trkpt lat="39.8946252" lon="9.118398"><ele>830.0</ele><time>2026-04-23T07:42:17.673Z</time></trkpt><trkpt lat="39.8943814" lon="9.118445"><ele>832.0</ele><time>2026-04-23T07:42:18.666Z</time></trkpt><trkpt lat="39.8941536" lon="9.1184887"><ele>834.0</ele><time>2026-04-23T07:42:19.662Z</time></trkpt><trkpt lat="39.8939254" lon="9.1185219"><ele>834.0</ele><time>2026-04-23T07:42:20.66Z</time></trkpt><trkpt lat="39.8937112" lon="9.118555"><ele>834.0</ele><time>2026-04-23T07:42:21.661Z</time></trkpt><trkpt lat="39.8934995" lon="9.1185907"><ele>834.0</ele><time>2026-04-23T07:42:22.664Z</time></trkpt><trkpt lat="39.8932534" lon="9.1185939"><ele>835.0</ele><time>2026-04-23T07:42:23.664Z</time></trkpt><trkpt lat="39.8930313" lon="9.1186198"><ele>836.0</ele><time>2026-04-23T07:42:24.666Z</time></trkpt><trkpt lat="39.892829" lon="9.1186629"><ele>837.0</ele><time>2026-04-23T07:42:25.666Z</time></trkpt><trkpt lat="39.8926279" lon="9.1186848"><ele>837.3333333333333</ele><time>2026-04-23T07:42:26.672Z</time></trkpt><trkpt lat="39.892422" lon="9.1187025"><ele>837.6666666666666</ele><time>2026-04-23T07:42:27.676Z</time></trkpt><trkpt lat="39.8922189" lon="9.1187335"><ele>838.0</ele><time>2026-04-23T07:42:28.673Z</time></trkpt><trkpt lat="39.8920275" lon="9.1187617"><ele>838.0</ele><time>2026-04-23T07:42:29.671Z</time></trkpt><trkpt lat="39.8918604" lon="9.1187891"><ele>838.0</ele><time>2026-04-23T07:42:30.673Z</time></trkpt><trkpt lat="39.8917136" lon="9.1187975"><ele>838.0</ele><time>2026-04-23T07:42:31.666Z</time></trkpt><trkpt lat="39.891617" lon="9.1188036"><ele>838.0</ele><time>2026-04-23T07:42:32.661Z</time></trkpt><trkpt lat="39.8915094" lon="9.1188311"><ele>838.0</ele><time>2026-04-23T07:42:33.66Z</time></trkpt><trkpt lat="39.8913935" lon="9.1188295"><ele>838.0</ele><time>2026-04-23T07:42:34.661Z</time></trkpt><trkpt lat="39.891296" lon="9.1188407"><ele>838.0</ele><time>2026-04-23T07:42:35.655Z</time></trkpt><trkpt lat="39.8911924" lon="9.1188827"><ele>838.0</ele><time>2026-04-23T07:42:36.659Z</time></trkpt><trkpt lat="39.8911034" lon="9.1189278"><ele>838.0</ele><time>2026-04-23T07:42:37.66Z</time></trkpt><trkpt lat="39.8910311" lon="9.119012"><ele>838.5999999999999</ele><time>2026-04-23T07:42:38.65Z</time></trkpt><trkpt lat="39.8909969" lon="9.1191037"><ele>839.1999999999999</ele><time>2026-04-23T07:42:39.652Z</time></trkpt><trkpt lat="39.8909752" lon="9.1192161"><ele>839.8</ele><time>2026-04-23T07:42:40.651Z</time></trkpt><trkpt lat="39.8909599" lon="9.1193684"><ele>840.4</ele><time>2026-04-23T07:42:41.674Z</time></trkpt><trkpt lat="39.8909398" lon="9.1195263"><ele>841.0</ele><time>2026-04-23T07:42:42.667Z</time></trkpt><trkpt lat="39.8909131" lon="9.1196875"><ele>841.3333333333333</ele><time>2026-04-23T07:42:43.67Z</time></trkpt><trkpt lat="39.8908373" lon="9.1198582"><ele>841.6666666666667</ele><time>2026-04-23T07:42:44.665Z</time></trkpt><trkpt lat="39.8907319" lon="9.1200553"><ele>842.0</ele><time>2026-04-23T07:42:45.667Z</time></trkpt><trkpt lat="39.8906216" lon="9.1202488"><ele>843.6666666666667</ele><time>2026-04-23T07:42:46.648Z</time></trkpt><trkpt lat="39.8904953" lon="9.1204373"><ele>845.3333333333333</ele><time>2026-04-23T07:42:47.658Z</time></trkpt><trkpt lat="39.8903558" lon="9.1206245"><ele>847.0</ele><time>2026-04-23T07:42:48.647Z</time></trkpt><trkpt lat="39.8902394" lon="9.1207714"><ele>848.3333333333333</ele><time>2026-04-23T07:42:49.674Z</time></trkpt><trkpt lat="39.890119" lon="9.1209325"><ele>849.6666666666667</ele><time>2026-04-23T07:42:50.648Z</time></trkpt><trkpt lat="39.8899714" lon="9.1211005"><ele>851.0</ele><time>2026-04-23T07:42:51.65Z</time></trkpt><trkpt lat="39.8898214" lon="9.1212641"><ele>852.3333333333334</ele><time>2026-04-23T07:42:52.667Z</time></trkpt><trkpt lat="39.8896819" lon="9.1214251"><ele>853.6666666666667</ele><time>2026-04-23T07:42:53.674Z</time></trkpt><trkpt lat="39.889525" lon="9.1215786"><ele>855.0</ele><time>2026-04-23T07:42:54.683Z</time></trkpt><trkpt lat="39.8893383" lon="9.1216712"><ele>856.6666666666667</ele><time>2026-04-23T07:42:55.682Z</time></trkpt><trkpt lat="39.8891472" lon="9.121775"><ele>858.3333333333334</ele><time>2026-04-23T07:42:56.682Z</time></trkpt><trkpt lat="39.8889429" lon="9.1218482"><ele>860.0</ele><time>2026-04-23T07:42:57.686Z</time></trkpt><trkpt lat="39.88875" lon="9.1219115"><ele>860.0</ele><time>2026-04-23T07:42:58.696Z</time></trkpt><trkpt lat="39.8885461" lon="9.121987"><ele>860.0</ele><time>2026-04-23T07:42:59.694Z</time></trkpt><trkpt lat="39.8883608" lon="9.1220615"><ele>860.0</ele><time>2026-04-23T07:43:00.678Z</time></trkpt><trkpt lat="39.8881529" lon="9.1221455"><ele>858.6666666666667</ele><time>2026-04-23T07:43:01.679Z</time></trkpt><trkpt lat="39.887956" lon="9.1222045"><ele>857.3333333333333</ele><time>2026-04-23T07:43:02.677Z</time></trkpt><trkpt lat="39.8877393" lon="9.1222676"><ele>856.0</ele><time>2026-04-23T07:43:03.677Z</time></trkpt><trkpt lat="39.887525" lon="9.1223475"><ele>854.5</ele><time>2026-04-23T07:43:04.675Z</time></trkpt><trkpt lat="39.8873236" lon="9.1224227"><ele>853.0</ele><time>2026-04-23T07:43:05.675Z</time></trkpt><trkpt lat="39.887083" lon="9.1225003"><ele>853.0</ele><time>2026-04-23T07:43:06.678Z</time></trkpt><trkpt lat="39.8868805" lon="9.1225722"><ele>853.0</ele><time>2026-04-23T07:43:07.674Z</time></trkpt><trkpt lat="39.8866585" lon="9.1226333"><ele>853.0</ele><time>2026-04-23T07:43:08.68Z</time></trkpt><trkpt lat="39.8864529" lon="9.1227059"><ele>852.0</ele><time>2026-04-23T07:43:09.673Z</time></trkpt><trkpt lat="39.8862606" lon="9.1227918"><ele>851.0</ele><time>2026-04-23T07:43:10.678Z</time></trkpt><trkpt lat="39.8860826" lon="9.1228636"><ele>850.0</ele><time>2026-04-23T07:43:11.678Z</time></trkpt><trkpt lat="39.8858667" lon="9.1229471"><ele>849.0</ele><time>2026-04-23T07:43:12.673Z</time></trkpt><trkpt lat="39.885656" lon="9.1230064"><ele>848.0</ele><time>2026-04-23T07:43:13.674Z</time></trkpt><trkpt lat="39.8854454" lon="9.1230983"><ele>847.0</ele><time>2026-04-23T07:43:14.68Z</time></trkpt><trkpt lat="39.8852248" lon="9.1231822"><ele>845.6666666666666</ele><time>2026-04-23T07:43:15.674Z</time></trkpt><trkpt lat="39.885018" lon="9.1232213"><ele>844.3333333333333</ele><time>2026-04-23T07:43:16.674Z</time></trkpt><trkpt lat="39.8848064" lon="9.123297"><ele>843.0</ele><time>2026-04-23T07:43:17.673Z</time></trkpt><trkpt lat="39.8846016" lon="9.1233641"><ele>842.6666666666667</ele><time>2026-04-23T07:43:18.673Z</time></trkpt><trkpt lat="39.8843956" lon="9.1234358"><ele>842.3333333333334</ele><time>2026-04-23T07:43:19.679Z</time></trkpt><trkpt lat="39.8841806" lon="9.1235115"><ele>842.0</ele><time>2026-04-23T07:43:20.674Z</time></trkpt><trkpt lat="39.8839724" lon="9.1235866"><ele>841.3333333333334</ele><time>2026-04-23T07:43:21.674Z</time></trkpt><trkpt lat="39.8837714" lon="9.1236485"><ele>840.6666666666667</ele><time>2026-04-23T07:43:22.679Z</time></trkpt><trkpt lat="39.8835372" lon="9.1237292"><ele>840.0</ele><time>2026-04-23T07:43:23.677Z</time></trkpt><trkpt lat="39.8833243" lon="9.123801"><ele>840.0</ele><time>2026-04-23T07:43:24.681Z</time></trkpt><trkpt lat="39.8831122" lon="9.1238855"><ele>840.0</ele><time>2026-04-23T07:43:25.678Z</time></trkpt><trkpt lat="39.8828995" lon="9.1239591"><ele>840.0</ele><time>2026-04-23T07:43:26.675Z</time></trkpt><trkpt lat="39.8826855" lon="9.1240158"><ele>839.5</ele><time>2026-04-23T07:43:27.678Z</time></trkpt><trkpt lat="39.8824589" lon="9.1241136"><ele>839.0</ele><time>2026-04-23T07:43:28.671Z</time></trkpt><trkpt lat="39.882241" lon="9.1241835"><ele>839.0</ele><time>2026-04-23T07:43:29.676Z</time></trkpt><trkpt lat="39.8820165" lon="9.1242674"><ele>839.0</ele><time>2026-04-23T07:43:30.668Z</time></trkpt><trkpt lat="39.8817974" lon="9.1243409"><ele>838.3333333333334</ele><time>2026-04-23T07:43:31.668Z</time></trkpt><trkpt lat="39.8815829" lon="9.1244133"><ele>837.6666666666667</ele><time>2026-04-23T07:43:32.67Z</time></trkpt><trkpt lat="39.8813865" lon="9.1244876"><ele>837.0</ele><time>2026-04-23T07:43:33.668Z</time></trkpt><trkpt lat="39.8811734" lon="9.1245437"><ele>837.0</ele><time>2026-04-23T07:43:34.67Z</time></trkpt><trkpt lat="39.8809688" lon="9.1246186"><ele>837.0</ele><time>2026-04-23T07:43:35.672Z</time></trkpt><trkpt lat="39.8807682" lon="9.1247029"><ele>837.0</ele><time>2026-04-23T07:43:36.671Z</time></trkpt><trkpt lat="39.8805524" lon="9.1247818"><ele>836.6666666666667</ele><time>2026-04-23T07:43:37.678Z</time></trkpt><trkpt lat="39.8803445" lon="9.1248453"><ele>836.3333333333334</ele><time>2026-04-23T07:43:38.678Z</time></trkpt><trkpt lat="39.8801491" lon="9.1249233"><ele>836.0</ele><time>2026-04-23T07:43:39.756Z</time></trkpt><trkpt lat="39.879947" lon="9.1250033"><ele>836.0</ele><time>2026-04-23T07:43:40.75Z</time></trkpt><trkpt lat="39.8797423" lon="9.125105"><ele>836.0</ele><time>2026-04-23T07:43:41.744Z</time></trkpt><trkpt lat="39.8795446" lon="9.1252252"><ele>836.0</ele><time>2026-04-23T07:43:42.745Z</time></trkpt><trkpt lat="39.8793484" lon="9.1253773"><ele>835.0</ele><time>2026-04-23T07:43:43.731Z</time></trkpt><trkpt lat="39.8791725" lon="9.1255281"><ele>834.0</ele><time>2026-04-23T07:43:44.739Z</time></trkpt><trkpt lat="39.8789914" lon="9.1256852"><ele>833.0</ele><time>2026-04-23T07:43:45.731Z</time></trkpt><trkpt lat="39.8788019" lon="9.1258544"><ele>833.0</ele><time>2026-04-23T07:43:46.734Z</time></trkpt><trkpt lat="39.8786261" lon="9.1260246"><ele>833.0</ele><time>2026-04-23T07:43:47.771Z</time></trkpt><trkpt lat="39.8784476" lon="9.126194"><ele>833.0</ele><time>2026-04-23T07:43:48.768Z</time></trkpt><trkpt lat="39.8782687" lon="9.1263643"><ele>832.3333333333334</ele><time>2026-04-23T07:43:49.776Z</time></trkpt><trkpt lat="39.8781082" lon="9.1265685"><ele>831.6666666666667</ele><time>2026-04-23T07:43:50.776Z</time></trkpt><trkpt lat="39.8779331" lon="9.1267441"><ele>831.0</ele><time>2026-04-23T07:43:51.771Z</time></trkpt><trkpt lat="39.8777583" lon="9.1269245"><ele>830.0</ele><time>2026-04-23T07:43:52.778Z</time></trkpt><trkpt lat="39.8775807" lon="9.1270989"><ele>829.0</ele><time>2026-04-23T07:43:53.77Z</time></trkpt><trkpt lat="39.8774047" lon="9.1272711"><ele>828.0</ele><time>2026-04-23T07:43:54.774Z</time></trkpt><trkpt lat="39.8772275" lon="9.127441"><ele>828.0</ele><time>2026-04-23T07:43:55.773Z</time></trkpt><trkpt lat="39.8770489" lon="9.1276094"><ele>828.0</ele><time>2026-04-23T07:43:56.772Z</time></trkpt><trkpt lat="39.8768664" lon="9.1277805"><ele>828.0</ele><time>2026-04-23T07:43:57.771Z</time></trkpt><trkpt lat="39.8766848" lon="9.1279514"><ele>826.6666666666667</ele><time>2026-04-23T07:43:58.768Z</time></trkpt><trkpt lat="39.8765039" lon="9.1281174"><ele>825.3333333333334</ele><time>2026-04-23T07:43:59.769Z</time></trkpt><trkpt lat="39.8763241" lon="9.1282859"><ele>824.0</ele><time>2026-04-23T07:44:00.775Z</time></trkpt><trkpt lat="39.8761463" lon="9.1284556"><ele>824.0</ele><time>2026-04-23T07:44:01.769Z</time></trkpt><trkpt lat="39.8759648" lon="9.1286257"><ele>824.0</ele><time>2026-04-23T07:44:02.779Z</time></trkpt><trkpt lat="39.8757845" lon="9.1287961"><ele>824.0</ele><time>2026-04-23T07:44:03.768Z</time></trkpt><trkpt lat="39.8756058" lon="9.1289724"><ele>824.0</ele><time>2026-04-23T07:44:04.773Z</time></trkpt><trkpt lat="39.8754266" lon="9.1291502"><ele>824.0</ele><time>2026-04-23T07:44:05.769Z</time></trkpt><trkpt lat="39.8752473" lon="9.1293245"><ele>824.0</ele><time>2026-04-23T07:44:06.772Z</time></trkpt><trkpt lat="39.8750691" lon="9.1294939"><ele>824.0</ele><time>2026-04-23T07:44:07.771Z</time></trkpt><trkpt lat="39.8748933" lon="9.1296532"><ele>824.0</ele><time>2026-04-23T07:44:08.772Z</time></trkpt><trkpt lat="39.8747183" lon="9.1298123"><ele>824.0</ele><time>2026-04-23T07:44:09.776Z</time></trkpt><trkpt lat="39.8745465" lon="9.1299763"><ele>824.3333333333334</ele><time>2026-04-23T07:44:10.776Z</time></trkpt><trkpt lat="39.8743738" lon="9.1301414"><ele>824.6666666666667</ele><time>2026-04-23T07:44:11.77Z</time></trkpt><trkpt lat="39.8742051" lon="9.1303029"><ele>825.0</ele><time>2026-04-23T07:44:12.775Z</time></trkpt><trkpt lat="39.8740297" lon="9.1304628"><ele>824.6666666666667</ele><time>2026-04-23T07:44:13.775Z</time></trkpt><trkpt lat="39.8738493" lon="9.1306143"><ele>824.3333333333334</ele><time>2026-04-23T07:44:14.779Z</time></trkpt><trkpt lat="39.8736628" lon="9.1307434"><ele>824.0</ele><time>2026-04-23T07:44:15.776Z</time></trkpt><trkpt lat="39.8734747" lon="9.1308517"><ele>823.3333333333334</ele><time>2026-04-23T07:44:16.772Z</time></trkpt><trkpt lat="39.8732663" lon="9.1309251"><ele>822.6666666666667</ele><time>2026-04-23T07:44:17.76Z</time></trkpt><trkpt lat="39.8730503" lon="9.1309657"><ele>822.0</ele><time>2026-04-23T07:44:18.758Z</time></trkpt><trkpt lat="39.8728106" lon="9.1309946"><ele>820.5</ele><time>2026-04-23T07:44:19.765Z</time></trkpt><trkpt lat="39.8725814" lon="9.1310091"><ele>819.0</ele><time>2026-04-23T07:44:20.766Z</time></trkpt><trkpt lat="39.8723434" lon="9.1310024"><ele>819.0</ele><time>2026-04-23T07:44:21.757Z</time></trkpt><trkpt lat="39.8721043" lon="9.1309996"><ele>819.0</ele><time>2026-04-23T07:44:22.759Z</time></trkpt><trkpt lat="39.8718661" lon="9.1310043"><ele>818.0</ele><time>2026-04-23T07:44:23.761Z</time></trkpt><trkpt lat="39.8716235" lon="9.1310083"><ele>817.0</ele><time>2026-04-23T07:44:24.76Z</time></trkpt><trkpt lat="39.8713835" lon="9.1310066"><ele>817.0</ele><time>2026-04-23T07:44:25.759Z</time></trkpt><trkpt lat="39.8711444" lon="9.1310047"><ele>817.0</ele><time>2026-04-23T07:44:26.758Z</time></trkpt><trkpt lat="39.870909" lon="9.1310022"><ele>815.5</ele><time>2026-04-23T07:44:27.765Z</time></trkpt><trkpt lat="39.8706759" lon="9.1310005"><ele>814.0</ele><time>2026-04-23T07:44:28.762Z</time></trkpt><trkpt lat="39.8704445" lon="9.1309989"><ele>814.0</ele><time>2026-04-23T07:44:29.758Z</time></trkpt><trkpt lat="39.8702133" lon="9.1309956"><ele>814.0</ele><time>2026-04-23T07:44:30.76Z</time></trkpt><trkpt lat="39.8699866" lon="9.1309942"><ele>813.6666666666666</ele><time>2026-04-23T07:44:31.756Z</time></trkpt><trkpt lat="39.8697638" lon="9.1309933"><ele>813.3333333333333</ele><time>2026-04-23T07:44:32.757Z</time></trkpt><trkpt lat="39.8695454" lon="9.1309934"><ele>813.0</ele><time>2026-04-23T07:44:33.758Z</time></trkpt><trkpt lat="39.8693351" lon="9.130986"><ele>813.6666666666667</ele><time>2026-04-23T07:44:34.757Z</time></trkpt><trkpt lat="39.8691211" lon="9.1309614"><ele>814.3333333333334</ele><time>2026-04-23T07:44:35.752Z</time></trkpt><trkpt lat="39.8689094" lon="9.1309084"><ele>815.0</ele><time>2026-04-23T07:44:36.774Z</time></trkpt><trkpt lat="39.868699" lon="9.130825"><ele>815.0</ele><time>2026-04-23T07:44:37.732Z</time></trkpt><trkpt lat="39.8684896" lon="9.1307264"><ele>815.0</ele><time>2026-04-23T07:44:38.734Z</time></trkpt><trkpt lat="39.8682957" lon="9.1306117"><ele>815.0</ele><time>2026-04-23T07:44:39.74Z</time></trkpt><trkpt lat="39.8681035" lon="9.130476"><ele>814.0</ele><time>2026-04-23T07:44:40.739Z</time></trkpt><trkpt lat="39.8679198" lon="9.1303314"><ele>813.0</ele><time>2026-04-23T07:44:41.75Z</time></trkpt><trkpt lat="39.8677452" lon="9.1301738"><ele>812.0</ele><time>2026-04-23T07:44:42.747Z</time></trkpt><trkpt lat="39.8675884" lon="9.1299916"><ele>811.3333333333334</ele><time>2026-04-23T07:44:43.739Z</time></trkpt><trkpt lat="39.8674417" lon="9.1297956"><ele>810.6666666666667</ele><time>2026-04-23T07:44:44.736Z</time></trkpt><trkpt lat="39.8673049" lon="9.1295913"><ele>810.0</ele><time>2026-04-23T07:44:45.74Z</time></trkpt><trkpt lat="39.8671692" lon="9.1293785"><ele>810.0</ele><time>2026-04-23T07:44:46.749Z</time></trkpt><trkpt lat="39.867034" lon="9.1291574"><ele>810.0</ele><time>2026-04-23T07:44:47.759Z</time></trkpt><trkpt lat="39.8668999" lon="9.1289317"><ele>810.0</ele><time>2026-04-23T07:44:48.759Z</time></trkpt><trkpt lat="39.8667649" lon="9.1287"><ele>808.5</ele><time>2026-04-23T07:44:49.759Z</time></trkpt><trkpt lat="39.8666294" lon="9.1284663"><ele>807.0</ele><time>2026-04-23T07:44:50.768Z</time></trkpt><trkpt lat="39.8664916" lon="9.1282303"><ele>806.3333333333333</ele><time>2026-04-23T07:44:51.761Z</time></trkpt><trkpt lat="39.8663573" lon="9.1279977"><ele>805.6666666666666</ele><time>2026-04-23T07:44:52.761Z</time></trkpt><trkpt lat="39.8662231" lon="9.1277655"><ele>805.0</ele><time>2026-04-23T07:44:53.76Z</time></trkpt><trkpt lat="39.8660896" lon="9.1275322"><ele>803.3333333333333</ele><time>2026-04-23T07:44:54.761Z</time></trkpt><trkpt lat="39.8659594" lon="9.1273006"><ele>801.6666666666667</ele><time>2026-04-23T07:44:55.76Z</time></trkpt><trkpt lat="39.8658338" lon="9.1270738"><ele>800.0</ele><time>2026-04-23T07:44:56.758Z</time></trkpt><trkpt lat="39.8657083" lon="9.1268485"><ele>799.3333333333334</ele><time>2026-04-23T07:44:57.761Z</time></trkpt><trkpt lat="39.8655839" lon="9.1266251"><ele>798.6666666666667</ele><time>2026-04-23T07:44:58.755Z</time></trkpt><trkpt lat="39.8654554" lon="9.1264007"><ele>798.0</ele><time>2026-04-23T07:44:59.75Z</time></trkpt><trkpt lat="39.8653284" lon="9.1261775"><ele>796.0</ele><time>2026-04-23T07:45:00.755Z</time></trkpt><trkpt lat="39.8652014" lon="9.1259554"><ele>794.0</ele><time>2026-04-23T07:45:01.77Z</time></trkpt><trkpt lat="39.865075" lon="9.1257321"><ele>792.0</ele><time>2026-04-23T07:45:02.754Z</time></trkpt><trkpt lat="39.8649449" lon="9.1255103"><ele>788.6666666666667</ele><time>2026-04-23T07:45:03.756Z</time></trkpt><trkpt lat="39.8648116" lon="9.1252868"><ele>785.3333333333334</ele><time>2026-04-23T07:45:04.752Z</time></trkpt><trkpt lat="39.8646774" lon="9.1250636"><ele>782.0</ele><time>2026-04-23T07:45:05.757Z</time></trkpt><trkpt lat="39.8645439" lon="9.1248438"><ele>780.3333333333334</ele><time>2026-04-23T07:45:06.753Z</time></trkpt><trkpt lat="39.8644125" lon="9.1246256"><ele>778.6666666666667</ele><time>2026-04-23T07:45:07.753Z</time></trkpt><trkpt lat="39.8642819" lon="9.1244054"><ele>777.0</ele><time>2026-04-23T07:45:08.754Z</time></trkpt><trkpt lat="39.8641505" lon="9.1241852"><ele>775.6666666666667</ele><time>2026-04-23T07:45:09.756Z</time></trkpt><trkpt lat="39.8640163" lon="9.1239603"><ele>774.3333333333334</ele><time>2026-04-23T07:45:10.756Z</time></trkpt><trkpt lat="39.8638746" lon="9.1237326"><ele>773.0</ele><time>2026-04-23T07:45:11.757Z</time></trkpt><trkpt lat="39.8637397" lon="9.1235086"><ele>773.0</ele><time>2026-04-23T07:45:12.758Z</time></trkpt><trkpt lat="39.8636083" lon="9.123285"><ele>773.0</ele><time>2026-04-23T07:45:13.758Z</time></trkpt><trkpt lat="39.8634787" lon="9.1230623"><ele>773.0</ele><time>2026-04-23T07:45:14.758Z</time></trkpt><trkpt lat="39.8633484" lon="9.1228406"><ele>772.0</ele><time>2026-04-23T07:45:15.751Z</time></trkpt><trkpt lat="39.8632192" lon="9.1226191"><ele>771.0</ele><time>2026-04-23T07:45:16.761Z</time></trkpt><trkpt lat="39.8630846" lon="9.1223935"><ele>770.0</ele><time>2026-04-23T07:45:17.757Z</time></trkpt><trkpt lat="39.8629471" lon="9.1221726"><ele>769.5</ele><time>2026-04-23T07:45:18.757Z</time></trkpt><trkpt lat="39.8628077" lon="9.1219467"><ele>769.0</ele><time>2026-04-23T07:45:19.759Z</time></trkpt><trkpt lat="39.8626674" lon="9.1217111"><ele>771.0</ele><time>2026-04-23T07:45:20.761Z</time></trkpt><trkpt lat="39.862527" lon="9.1214668"><ele>773.0</ele><time>2026-04-23T07:45:21.759Z</time></trkpt><trkpt lat="39.8623875" lon="9.1212246"><ele>773.0</ele><time>2026-04-23T07:45:22.76Z</time></trkpt><trkpt lat="39.8622493" lon="9.1209839"><ele>773.0</ele><time>2026-04-23T07:45:23.759Z</time></trkpt><trkpt lat="39.8621113" lon="9.12075"><ele>773.3333333333334</ele><time>2026-04-23T07:45:24.76Z</time></trkpt><trkpt lat="39.8619766" lon="9.1205184"><ele>773.6666666666667</ele><time>2026-04-23T07:45:25.762Z</time></trkpt><trkpt lat="39.861839" lon="9.1202882"><ele>774.0</ele><time>2026-04-23T07:45:26.758Z</time></trkpt><trkpt lat="39.8617001" lon="9.1200602"><ele>774.0</ele><time>2026-04-23T07:45:27.761Z</time></trkpt><trkpt lat="39.86156" lon="9.1198308"><ele>774.0</ele><time>2026-04-23T07:45:28.756Z</time></trkpt><trkpt lat="39.8614233" lon="9.1196018"><ele>774.0</ele><time>2026-04-23T07:45:29.752Z</time></trkpt><trkpt lat="39.8612911" lon="9.1193734"><ele>774.0</ele><time>2026-04-23T07:45:30.759Z</time></trkpt><trkpt lat="39.8611627" lon="9.1191498"><ele>774.0</ele><time>2026-04-23T07:45:31.757Z</time></trkpt><trkpt lat="39.8610281" lon="9.118926"><ele>774.0</ele><time>2026-04-23T07:45:32.757Z</time></trkpt><trkpt lat="39.8608928" lon="9.1187025"><ele>773.3333333333333</ele><time>2026-04-23T07:45:33.755Z</time></trkpt><trkpt lat="39.8607556" lon="9.1184776"><ele>772.6666666666666</ele><time>2026-04-23T07:45:34.757Z</time></trkpt><trkpt lat="39.8606259" lon="9.1182511"><ele>772.0</ele><time>2026-04-23T07:45:35.758Z</time></trkpt><trkpt lat="39.860495" lon="9.1180197"><ele>771.0</ele><time>2026-04-23T07:45:36.758Z</time></trkpt><trkpt lat="39.8603593" lon="9.1177879"><ele>770.0</ele><time>2026-04-23T07:45:37.756Z</time></trkpt><trkpt lat="39.8602176" lon="9.117555"><ele>769.5</ele><time>2026-04-23T07:45:38.761Z</time></trkpt><trkpt lat="39.8600768" lon="9.1173227"><ele>769.0</ele><time>2026-04-23T07:45:39.756Z</time></trkpt><trkpt lat="39.8599381" lon="9.117091"><ele>769.0</ele><time>2026-04-23T07:45:40.758Z</time></trkpt><trkpt lat="39.8597994" lon="9.1168579"><ele>769.0</ele><time>2026-04-23T07:45:41.754Z</time></trkpt><trkpt lat="39.8596645" lon="9.1166255"><ele>769.0</ele><time>2026-04-23T07:45:42.755Z</time></trkpt><trkpt lat="39.8595313" lon="9.116396"><ele>769.0</ele><time>2026-04-23T07:45:43.758Z</time></trkpt><trkpt lat="39.8593975" lon="9.1161691"><ele>769.0</ele><time>2026-04-23T07:45:44.759Z</time></trkpt><trkpt lat="39.8592624" lon="9.1159399"><ele>768.3333333333333</ele><time>2026-04-23T07:45:45.759Z</time></trkpt><trkpt lat="39.8591253" lon="9.1157123"><ele>767.6666666666666</ele><time>2026-04-23T07:45:46.761Z</time></trkpt><trkpt lat="39.8589874" lon="9.1154861"><ele>767.0</ele><time>2026-04-23T07:45:47.763Z</time></trkpt><trkpt lat="39.8588513" lon="9.1152641"><ele>767.0</ele><time>2026-04-23T07:45:48.755Z</time></trkpt><trkpt lat="39.8587128" lon="9.1150443"><ele>767.0</ele><time>2026-04-23T07:45:49.754Z</time></trkpt><trkpt lat="39.8585788" lon="9.1148272"><ele>767.0</ele><time>2026-04-23T07:45:50.756Z</time></trkpt><trkpt lat="39.8584477" lon="9.1146096"><ele>768.0</ele><time>2026-04-23T07:45:51.753Z</time></trkpt><trkpt lat="39.8583146" lon="9.1143997"><ele>769.0</ele><time>2026-04-23T07:45:52.76Z</time></trkpt><trkpt lat="39.8581711" lon="9.1141952"><ele>770.0</ele><time>2026-04-23T07:45:53.752Z</time></trkpt><trkpt lat="39.8580144" lon="9.1139978"><ele>770.0</ele><time>2026-04-23T07:45:54.753Z</time></trkpt><trkpt lat="39.8578487" lon="9.1138093"><ele>770.0</ele><time>2026-04-23T07:45:55.753Z</time></trkpt><trkpt lat="39.8576739" lon="9.1136313"><ele>770.0</ele><time>2026-04-23T07:45:56.749Z</time></trkpt><trkpt lat="39.8574921" lon="9.113471"><ele>773.0</ele><time>2026-04-23T07:45:57.751Z</time></trkpt><trkpt lat="39.8573075" lon="9.1133237"><ele>776.0</ele><time>2026-04-23T07:45:58.749Z</time></trkpt><trkpt lat="39.8571235" lon="9.1131917"><ele>779.0</ele><time>2026-04-23T07:45:59.747Z</time></trkpt><trkpt lat="39.8569312" lon="9.1130712"><ele>783.0</ele><time>2026-04-23T07:46:00.751Z</time></trkpt><trkpt lat="39.8567386" lon="9.1129688"><ele>787.0</ele><time>2026-04-23T07:46:01.744Z</time></trkpt><trkpt lat="39.8565451" lon="9.1128782"><ele>791.0</ele><time>2026-04-23T07:46:02.744Z</time></trkpt><trkpt lat="39.8563413" lon="9.1128005"><ele>791.0</ele><time>2026-04-23T07:46:03.746Z</time></trkpt><trkpt lat="39.8561336" lon="9.1127231"><ele>791.0</ele><time>2026-04-23T07:46:04.745Z</time></trkpt><trkpt lat="39.8559256" lon="9.112655"><ele>791.0</ele><time>2026-04-23T07:46:05.746Z</time></trkpt><trkpt lat="39.8557173" lon="9.1125832"><ele>790.3333333333334</ele><time>2026-04-23T07:46:06.747Z</time></trkpt><trkpt lat="39.8555091" lon="9.1125103"><ele>789.6666666666667</ele><time>2026-04-23T07:46:07.748Z</time></trkpt><trkpt lat="39.8553033" lon="9.1124422"><ele>789.0</ele><time>2026-04-23T07:46:08.751Z</time></trkpt><trkpt lat="39.8551008" lon="9.1123753"><ele>789.0</ele><time>2026-04-23T07:46:09.751Z</time></trkpt><trkpt lat="39.8549044" lon="9.1123055"><ele>789.0</ele><time>2026-04-23T07:46:10.751Z</time></trkpt><trkpt lat="39.8547157" lon="9.1122386"><ele>789.0</ele><time>2026-04-23T07:46:11.75Z</time></trkpt><trkpt lat="39.85453" lon="9.1121716"><ele>789.0</ele><time>2026-04-23T07:46:12.75Z</time></trkpt><trkpt lat="39.854351" lon="9.1121008"><ele>789.0</ele><time>2026-04-23T07:46:13.748Z</time></trkpt><trkpt lat="39.854171" lon="9.1120044"><ele>789.0</ele><time>2026-04-23T07:46:14.747Z</time></trkpt><trkpt lat="39.8539922" lon="9.1119034"><ele>787.3333333333333</ele><time>2026-04-23T07:46:15.747Z</time></trkpt><trkpt lat="39.8538146" lon="9.1117788"><ele>785.6666666666666</ele><time>2026-04-23T07:46:16.736Z</time></trkpt><trkpt lat="39.8536387" lon="9.1116353"><ele>784.0</ele><time>2026-04-23T07:46:17.734Z</time></trkpt><trkpt lat="39.8534696" lon="9.1114816"><ele>778.0</ele><time>2026-04-23T07:46:18.733Z</time></trkpt><trkpt lat="39.8533031" lon="9.1113182"><ele>772.0</ele><time>2026-04-23T07:46:19.735Z</time></trkpt><trkpt lat="39.8531425" lon="9.1111407"><ele>766.0</ele><time>2026-04-23T07:46:20.751Z</time></trkpt><trkpt lat="39.8529834" lon="9.1109567"><ele>766.0</ele><time>2026-04-23T07:46:21.756Z</time></trkpt><trkpt lat="39.8528234" lon="9.1107637"><ele>766.0</ele><time>2026-04-23T07:46:22.759Z</time></trkpt><trkpt lat="39.85266" lon="9.1105733"><ele>766.0</ele><time>2026-04-23T07:46:23.762Z</time></trkpt><trkpt lat="39.852494" lon="9.1103823"><ele>764.6666666666667</ele><time>2026-04-23T07:46:24.764Z</time></trkpt><trkpt lat="39.8523273" lon="9.1101885"><ele>763.3333333333334</ele><time>2026-04-23T07:46:25.763Z</time></trkpt><trkpt lat="39.8521663" lon="9.1099951"><ele>762.0</ele><time>2026-04-23T07:46:26.763Z</time></trkpt><trkpt lat="39.8520028" lon="9.1098001"><ele>761.6666666666666</ele><time>2026-04-23T07:46:27.769Z</time></trkpt><trkpt lat="39.8518371" lon="9.1096061"><ele>761.3333333333333</ele><time>2026-04-23T07:46:28.762Z</time></trkpt><trkpt lat="39.8516735" lon="9.1094073"><ele>761.0</ele><time>2026-04-23T07:46:29.763Z</time></trkpt><trkpt lat="39.8515122" lon="9.1092104"><ele>759.3333333333333</ele><time>2026-04-23T07:46:30.764Z</time></trkpt><trkpt lat="39.8513479" lon="9.1090108"><ele>757.6666666666666</ele><time>2026-04-23T07:46:31.763Z</time></trkpt><trkpt lat="39.8511841" lon="9.108816"><ele>756.0</ele><time>2026-04-23T07:46:32.763Z</time></trkpt><trkpt lat="39.8510205" lon="9.1086256"><ele>755.0</ele><time>2026-04-23T07:46:33.764Z</time></trkpt><trkpt lat="39.850857" lon="9.1084371"><ele>754.0</ele><time>2026-04-23T07:46:34.765Z</time></trkpt><trkpt lat="39.8506918" lon="9.1082482"><ele>753.0</ele><time>2026-04-23T07:46:35.757Z</time></trkpt><trkpt lat="39.8505284" lon="9.1080627"><ele>752.0</ele><time>2026-04-23T07:46:36.76Z</time></trkpt><trkpt lat="39.8503729" lon="9.1078859"><ele>751.0</ele><time>2026-04-23T07:46:37.756Z</time></trkpt><trkpt lat="39.8502237" lon="9.107712"><ele>750.0</ele><time>2026-04-23T07:46:38.761Z</time></trkpt><trkpt lat="39.8500829" lon="9.1075417"><ele>748.6666666666666</ele><time>2026-04-23T07:46:39.758Z</time></trkpt><trkpt lat="39.8499414" lon="9.1073615"><ele>747.3333333333333</ele><time>2026-04-23T07:46:40.763Z</time></trkpt><trkpt lat="39.8498069" lon="9.1071624"><ele>746.0</ele><time>2026-04-23T07:46:41.758Z</time></trkpt><trkpt lat="39.8496815" lon="9.1069515"><ele>746.0</ele><time>2026-04-23T07:46:42.759Z</time></trkpt><trkpt lat="39.8495653" lon="9.1067289"><ele>746.0</ele><time>2026-04-23T07:46:43.744Z</time></trkpt><trkpt lat="39.8494542" lon="9.1064912"><ele>746.0</ele><time>2026-04-23T07:46:44.745Z</time></trkpt><trkpt lat="39.8493552" lon="9.1062441"><ele>744.3333333333333</ele><time>2026-04-23T07:46:45.75Z</time></trkpt><trkpt lat="39.849267" lon="9.1059918"><ele>742.6666666666666</ele><time>2026-04-23T07:46:46.752Z</time></trkpt><trkpt lat="39.8491919" lon="9.1057328"><ele>741.0</ele><time>2026-04-23T07:46:47.764Z</time></trkpt><trkpt lat="39.8491282" lon="9.105466"><ele>740.6666666666666</ele><time>2026-04-23T07:46:48.76Z</time></trkpt><trkpt lat="39.8490795" lon="9.1051938"><ele>740.3333333333333</ele><time>2026-04-23T07:46:49.755Z</time></trkpt><trkpt lat="39.8490493" lon="9.1049164"><ele>740.0</ele><time>2026-04-23T07:46:50.76Z</time></trkpt><trkpt lat="39.8490257" lon="9.1046357"><ele>739.3333333333333</ele><time>2026-04-23T07:46:51.755Z</time></trkpt><trkpt lat="39.8490004" lon="9.1043481"><ele>738.6666666666666</ele><time>2026-04-23T07:46:52.752Z</time></trkpt><trkpt lat="39.8489776" lon="9.1040589"><ele>738.0</ele><time>2026-04-23T07:46:53.748Z</time></trkpt><trkpt lat="39.8489549" lon="9.1037681"><ele>737.6666666666666</ele><time>2026-04-23T07:46:54.758Z</time></trkpt><trkpt lat="39.8489405" lon="9.1034799"><ele>737.3333333333333</ele><time>2026-04-23T07:46:55.762Z</time></trkpt><trkpt lat="39.8489281" lon="9.1031944"><ele>737.0</ele><time>2026-04-23T07:46:56.762Z</time></trkpt><trkpt lat="39.8489162" lon="9.1029055"><ele>735.3333333333333</ele><time>2026-04-23T07:46:57.765Z</time></trkpt><trkpt lat="39.8489041" lon="9.1026198"><ele>733.6666666666666</ele><time>2026-04-23T07:46:58.764Z</time></trkpt><trkpt lat="39.8488892" lon="9.1023368"><ele>732.0</ele><time>2026-04-23T07:46:59.762Z</time></trkpt><trkpt lat="39.8488752" lon="9.1020563"><ele>730.6666666666666</ele><time>2026-04-23T07:47:00.766Z</time></trkpt><trkpt lat="39.8488594" lon="9.101775"><ele>729.3333333333333</ele><time>2026-04-23T07:47:01.76Z</time></trkpt><trkpt lat="39.8488453" lon="9.1014923"><ele>728.0</ele><time>2026-04-23T07:47:02.766Z</time></trkpt><trkpt lat="39.8488377" lon="9.1012096"><ele>727.3333333333333</ele><time>2026-04-23T07:47:03.761Z</time></trkpt><trkpt lat="39.8488272" lon="9.1009215"><ele>726.6666666666666</ele><time>2026-04-23T07:47:04.764Z</time></trkpt><trkpt lat="39.8488176" lon="9.1006293"><ele>726.0</ele><time>2026-04-23T07:47:05.764Z</time></trkpt><trkpt lat="39.8488056" lon="9.1003319"><ele>724.5</ele><time>2026-04-23T07:47:06.761Z</time></trkpt><trkpt lat="39.8487939" lon="9.1000387"><ele>723.0</ele><time>2026-04-23T07:47:07.764Z</time></trkpt><trkpt lat="39.84878" lon="9.0997451"><ele>722.0</ele><time>2026-04-23T07:47:08.76Z</time></trkpt><trkpt lat="39.8487658" lon="9.099453"><ele>721.0</ele><time>2026-04-23T07:47:09.763Z</time></trkpt><trkpt lat="39.8487505" lon="9.0991589"><ele>720.0</ele><time>2026-04-23T07:47:10.761Z</time></trkpt><trkpt lat="39.8487342" lon="9.0988629"><ele>719.0</ele><time>2026-04-23T07:47:11.758Z</time></trkpt><trkpt lat="39.8487215" lon="9.0985731"><ele>719.0</ele><time>2026-04-23T07:47:12.763Z</time></trkpt><trkpt lat="39.8487072" lon="9.0982852"><ele>719.0</ele><time>2026-04-23T07:47:13.762Z</time></trkpt><trkpt lat="39.8486887" lon="9.0979949"><ele>719.0</ele><time>2026-04-23T07:47:14.765Z</time></trkpt><trkpt lat="39.8486718" lon="9.0977065"><ele>718.3333333333333</ele><time>2026-04-23T07:47:15.759Z</time></trkpt><trkpt lat="39.8486533" lon="9.0974187"><ele>717.6666666666666</ele><time>2026-04-23T07:47:16.76Z</time></trkpt><trkpt lat="39.8486353" lon="9.0971313"><ele>717.0</ele><time>2026-04-23T07:47:17.766Z</time></trkpt><trkpt lat="39.8486193" lon="9.0968449"><ele>716.6666666666666</ele><time>2026-04-23T07:47:18.763Z</time></trkpt><trkpt lat="39.8486052" lon="9.0965587"><ele>716.3333333333333</ele><time>2026-04-23T07:47:19.76Z</time></trkpt><trkpt lat="39.8485916" lon="9.0962752"><ele>716.0</ele><time>2026-04-23T07:47:20.761Z</time></trkpt><trkpt lat="39.8485758" lon="9.0959862"><ele>715.0</ele><time>2026-04-23T07:47:21.766Z</time></trkpt><trkpt lat="39.8485612" lon="9.095691"><ele>714.0</ele><time>2026-04-23T07:47:22.762Z</time></trkpt><trkpt lat="39.8485487" lon="9.0953925"><ele>714.0</ele><time>2026-04-23T07:47:23.764Z</time></trkpt><trkpt lat="39.8485332" lon="9.0950952"><ele>714.0</ele><time>2026-04-23T07:47:24.766Z</time></trkpt><trkpt lat="39.8485193" lon="9.0948038"><ele>714.0</ele><time>2026-04-23T07:47:25.761Z</time></trkpt><trkpt lat="39.8485043" lon="9.0945121"><ele>714.0</ele><time>2026-04-23T07:47:26.758Z</time></trkpt><trkpt lat="39.8484927" lon="9.0942178"><ele>714.0</ele><time>2026-04-23T07:47:27.76Z</time></trkpt><trkpt lat="39.8484753" lon="9.0939265"><ele>714.0</ele><time>2026-04-23T07:47:28.762Z</time></trkpt><trkpt lat="39.8484566" lon="9.0936364"><ele>714.0</ele><time>2026-04-23T07:47:29.759Z</time></trkpt><trkpt lat="39.8484388" lon="9.093346"><ele>712.6666666666666</ele><time>2026-04-23T07:47:30.759Z</time></trkpt><trkpt lat="39.8484203" lon="9.0930605"><ele>711.3333333333333</ele><time>2026-04-23T07:47:31.756Z</time></trkpt><trkpt lat="39.8484012" lon="9.0927836"><ele>710.0</ele><time>2026-04-23T07:47:32.756Z</time></trkpt><trkpt lat="39.8483876" lon="9.0925058"><ele>709.3333333333333</ele><time>2026-04-23T07:47:33.748Z</time></trkpt><trkpt lat="39.8483848" lon="9.0922195"><ele>708.6666666666666</ele><time>2026-04-23T07:47:34.744Z</time></trkpt><trkpt lat="39.8484061" lon="9.0919311"><ele>708.0</ele><time>2026-04-23T07:47:35.748Z</time></trkpt><trkpt lat="39.8484427" lon="9.0916423"><ele>707.5</ele><time>2026-04-23T07:47:36.752Z</time></trkpt><trkpt lat="39.8484889" lon="9.0913514"><ele>707.0</ele><time>2026-04-23T07:47:37.734Z</time></trkpt><trkpt lat="39.8485404" lon="9.0910612"><ele>707.0</ele><time>2026-04-23T07:47:38.744Z</time></trkpt><trkpt lat="39.8485901" lon="9.0907763"><ele>707.0</ele><time>2026-04-23T07:47:39.735Z</time></trkpt><trkpt lat="39.848638" lon="9.090491"><ele>707.0</ele><time>2026-04-23T07:47:40.737Z</time></trkpt><trkpt lat="39.8486935" lon="9.0902094"><ele>706.3333333333333</ele><time>2026-04-23T07:47:41.752Z</time></trkpt><trkpt lat="39.8487496" lon="9.0899342"><ele>705.6666666666666</ele><time>2026-04-23T07:47:42.753Z</time></trkpt><trkpt lat="39.8488046" lon="9.0896622"><ele>705.0</ele><time>2026-04-23T07:47:43.754Z</time></trkpt><trkpt lat="39.8488605" lon="9.0893922"><ele>705.0</ele><time>2026-04-23T07:47:44.752Z</time></trkpt><trkpt lat="39.8489179" lon="9.0891229"><ele>705.0</ele><time>2026-04-23T07:47:45.746Z</time></trkpt><trkpt lat="39.8489699" lon="9.0888538"><ele>705.0</ele><time>2026-04-23T07:47:46.747Z</time></trkpt><trkpt lat="39.8490107" lon="9.0885799"><ele>705.0</ele><time>2026-04-23T07:47:47.747Z</time></trkpt><trkpt lat="39.8490436" lon="9.0882997"><ele>705.0</ele><time>2026-04-23T07:47:48.748Z</time></trkpt><trkpt lat="39.8490589" lon="9.0880144"><ele>705.0</ele><time>2026-04-23T07:47:49.746Z</time></trkpt><trkpt lat="39.849053" lon="9.0877339"><ele>705.3333333333334</ele><time>2026-04-23T07:47:50.749Z</time></trkpt><trkpt lat="39.8490345" lon="9.0874543"><ele>705.6666666666667</ele><time>2026-04-23T07:47:51.754Z</time></trkpt><trkpt lat="39.8490144" lon="9.0871757"><ele>706.0</ele><time>2026-04-23T07:47:52.748Z</time></trkpt><trkpt lat="39.8490006" lon="9.086912"><ele>706.0</ele><time>2026-04-23T07:47:53.753Z</time></trkpt><trkpt lat="39.8489868" lon="9.0866605"><ele>706.0</ele><time>2026-04-23T07:47:54.75Z</time></trkpt><trkpt lat="39.8489713" lon="9.0864217"><ele>706.0</ele><time>2026-04-23T07:47:55.746Z</time></trkpt><trkpt lat="39.848963" lon="9.0861939"><ele>705.0</ele><time>2026-04-23T07:47:56.742Z</time></trkpt><trkpt lat="39.8489708" lon="9.0859699"><ele>704.0</ele><time>2026-04-23T07:47:57.741Z</time></trkpt><trkpt lat="39.8490053" lon="9.0857533"><ele>703.0</ele><time>2026-04-23T07:47:58.736Z</time></trkpt><trkpt lat="39.8490743" lon="9.0855394"><ele>701.0</ele><time>2026-04-23T07:47:59.728Z</time></trkpt><trkpt lat="39.8491796" lon="9.0853368"><ele>699.0</ele><time>2026-04-23T07:48:00.725Z</time></trkpt><trkpt lat="39.8492999" lon="9.0851378"><ele>697.0</ele><time>2026-04-23T07:48:01.729Z</time></trkpt><trkpt lat="39.8494237" lon="9.0849415"><ele>698.0</ele><time>2026-04-23T07:48:02.721Z</time></trkpt><trkpt lat="39.8495504" lon="9.0847449"><ele>699.0</ele><time>2026-04-23T07:48:03.731Z</time></trkpt><trkpt lat="39.8496752" lon="9.0845447"><ele>700.0</ele><time>2026-04-23T07:48:04.734Z</time></trkpt><trkpt lat="39.849799" lon="9.0843428"><ele>700.0</ele><time>2026-04-23T07:48:05.725Z</time></trkpt><trkpt lat="39.8499116" lon="9.0841344"><ele>700.0</ele><time>2026-04-23T07:48:06.727Z</time></trkpt><trkpt lat="39.8500046" lon="9.0839116"><ele>700.0</ele><time>2026-04-23T07:48:07.733Z</time></trkpt><trkpt lat="39.8500727" lon="9.0836892"><ele>698.3333333333334</ele><time>2026-04-23T07:48:08.73Z</time></trkpt><trkpt lat="39.8501147" lon="9.0834129"><ele>696.6666666666666</ele><time>2026-04-23T07:48:09.721Z</time></trkpt><trkpt lat="39.850135" lon="9.0831342"><ele>695.0</ele><time>2026-04-23T07:48:10.723Z</time></trkpt><trkpt lat="39.8501366" lon="9.082859"><ele>697.3333333333333</ele><time>2026-04-23T07:48:11.73Z</time></trkpt><trkpt lat="39.8501327" lon="9.0825848"><ele>699.6666666666666</ele><time>2026-04-23T07:48:12.736Z</time></trkpt><trkpt lat="39.8501392" lon="9.0823283"><ele>702.0</ele><time>2026-04-23T07:48:13.754Z</time></trkpt><trkpt lat="39.8501428" lon="9.0820661"><ele>702.0</ele><time>2026-04-23T07:48:14.767Z</time></trkpt><trkpt lat="39.850144" lon="9.0818087"><ele>702.0</ele><time>2026-04-23T07:48:15.764Z</time></trkpt><trkpt lat="39.8501495" lon="9.0815557"><ele>702.0</ele><time>2026-04-23T07:48:16.758Z</time></trkpt><trkpt lat="39.8501707" lon="9.0813036"><ele>701.0</ele><time>2026-04-23T07:48:17.766Z</time></trkpt><trkpt lat="39.8502108" lon="9.0810585"><ele>700.0</ele><time>2026-04-23T07:48:18.752Z</time></trkpt><trkpt lat="39.8502828" lon="9.0808079"><ele>699.0</ele><time>2026-04-23T07:48:19.737Z</time></trkpt><trkpt lat="39.8503718" lon="9.0805543"><ele>694.0</ele><time>2026-04-23T07:48:20.746Z</time></trkpt><trkpt lat="39.8504709" lon="9.0802868"><ele>689.0</ele><time>2026-04-23T07:48:21.742Z</time></trkpt><trkpt lat="39.8505688" lon="9.0800167"><ele>686.3333333333333</ele><time>2026-04-23T07:48:22.742Z</time></trkpt><trkpt lat="39.850661" lon="9.079751"><ele>683.6666666666666</ele><time>2026-04-23T07:48:23.75Z</time></trkpt><trkpt lat="39.8507536" lon="9.079486"><ele>681.0</ele><time>2026-04-23T07:48:24.755Z</time></trkpt><trkpt lat="39.8508436" lon="9.0792238"><ele>679.6666666666666</ele><time>2026-04-23T07:48:25.763Z</time></trkpt><trkpt lat="39.8509325" lon="9.0789613"><ele>678.3333333333333</ele><time>2026-04-23T07:48:26.753Z</time></trkpt><trkpt lat="39.8510185" lon="9.0787086"><ele>677.0</ele><time>2026-04-23T07:48:27.769Z</time></trkpt><trkpt lat="39.8511062" lon="9.0784655"><ele>677.0</ele><time>2026-04-23T07:48:28.753Z</time></trkpt><trkpt lat="39.8511934" lon="9.0782234"><ele>677.0</ele><time>2026-04-23T07:48:29.755Z</time></trkpt><trkpt lat="39.8512769" lon="9.0779834"><ele>677.0</ele><time>2026-04-23T07:48:30.751Z</time></trkpt><trkpt lat="39.8513578" lon="9.0777421"><ele>677.0</ele><time>2026-04-23T07:48:31.76Z</time></trkpt><trkpt lat="39.8514381" lon="9.0775019"><ele>677.0</ele><time>2026-04-23T07:48:32.757Z</time></trkpt><trkpt lat="39.8515135" lon="9.0772613"><ele>677.0</ele><time>2026-04-23T07:48:33.754Z</time></trkpt><trkpt lat="39.8515833" lon="9.0770166"><ele>674.3333333333333</ele><time>2026-04-23T07:48:34.751Z</time></trkpt><trkpt lat="39.8516363" lon="9.0767695"><ele>671.6666666666666</ele><time>2026-04-23T07:48:35.756Z</time></trkpt><trkpt lat="39.8516754" lon="9.0765216"><ele>669.0</ele><time>2026-04-23T07:48:36.756Z</time></trkpt><trkpt lat="39.8516738" lon="9.076267"><ele>667.3333333333334</ele><time>2026-04-23T07:48:37.749Z</time></trkpt><trkpt lat="39.8516495" lon="9.0760041"><ele>665.6666666666667</ele><time>2026-04-23T07:48:38.738Z</time></trkpt><trkpt lat="39.8516099" lon="9.0757272"><ele>664.0</ele><time>2026-04-23T07:48:39.738Z</time></trkpt><trkpt lat="39.8515658" lon="9.075448"><ele>662.6666666666667</ele><time>2026-04-23T07:48:40.736Z</time></trkpt><trkpt lat="39.85154" lon="9.0751794"><ele>661.3333333333334</ele><time>2026-04-23T07:48:41.748Z</time></trkpt><trkpt lat="39.8515612" lon="9.0749077"><ele>660.0</ele><time>2026-04-23T07:48:42.76Z</time></trkpt><trkpt lat="39.8515417" lon="9.0746505"><ele>659.6666666666666</ele><time>2026-04-23T07:48:43.748Z</time></trkpt><trkpt lat="39.8515596" lon="9.0744007"><ele>659.3333333333333</ele><time>2026-04-23T07:48:44.757Z</time></trkpt><trkpt lat="39.8515459" lon="9.0741691"><ele>659.0</ele><time>2026-04-23T07:48:45.753Z</time></trkpt><trkpt lat="39.8515627" lon="9.073951"><ele>658.75</ele><time>2026-04-23T07:48:46.754Z</time></trkpt><trkpt lat="39.851569" lon="9.0737499"><ele>658.5</ele><time>2026-04-23T07:48:47.774Z</time></trkpt><trkpt lat="39.8515736" lon="9.0735822"><ele>658.25</ele><time>2026-04-23T07:48:48.76Z</time></trkpt><trkpt lat="39.8515759" lon="9.0734412"><ele>658.0</ele><time>2026-04-23T07:48:49.757Z</time></trkpt><trkpt lat="39.8515769" lon="9.073315"><ele>658.0</ele><time>2026-04-23T07:48:50.767Z</time></trkpt><trkpt lat="39.8515687" lon="9.07321"><ele>658.0</ele><time>2026-04-23T07:48:51.758Z</time></trkpt><trkpt lat="39.8515633" lon="9.0731224"><ele>658.0</ele><time>2026-04-23T07:48:52.76Z</time></trkpt><trkpt lat="39.8515504" lon="9.0729876"><ele>658.0</ele><time>2026-04-23T07:48:54.758Z</time></trkpt><trkpt lat="39.8515506" lon="9.0729023"><ele>658.0</ele><time>2026-04-23T07:49:51.77Z</time></trkpt><trkpt lat="39.851545" lon="9.0728147"><ele>658.0</ele><time>2026-04-23T07:49:52.758Z</time></trkpt><trkpt lat="39.8515397" lon="9.0727161"><ele>658.0</ele><time>2026-04-23T07:49:53.748Z</time></trkpt><trkpt lat="39.8515334" lon="9.0726095"><ele>658.0</ele><time>2026-04-23T07:49:54.743Z</time></trkpt><trkpt lat="39.8515259" lon="9.07249"><ele>658.0</ele><time>2026-04-23T07:49:55.75Z</time></trkpt><trkpt lat="39.8515108" lon="9.0723025"><ele>658.0</ele><time>2026-04-23T07:49:56.757Z</time></trkpt><trkpt lat="39.8514988" lon="9.0721025"><ele>658.3333333333334</ele><time>2026-04-23T07:49:57.747Z</time></trkpt><trkpt lat="39.8514958" lon="9.0719033"><ele>658.6666666666666</ele><time>2026-04-23T07:49:58.765Z</time></trkpt><trkpt lat="39.8514953" lon="9.0717076"><ele>659.0</ele><time>2026-04-23T07:49:59.758Z</time></trkpt><trkpt lat="39.8514984" lon="9.0714976"><ele>657.6666666666666</ele><time>2026-04-23T07:50:00.767Z</time></trkpt><trkpt lat="39.851501" lon="9.0712877"><ele>656.3333333333334</ele><time>2026-04-23T07:50:01.77Z</time></trkpt><trkpt lat="39.8515011" lon="9.0710829"><ele>655.0</ele><time>2026-04-23T07:50:02.76Z</time></trkpt><trkpt lat="39.8515109" lon="9.0708765"><ele>654.0</ele><time>2026-04-23T07:50:03.757Z</time></trkpt><trkpt lat="39.8515414" lon="9.0706745"><ele>653.0</ele><time>2026-04-23T07:50:04.752Z</time></trkpt><trkpt lat="39.8515883" lon="9.070481"><ele>652.0</ele><time>2026-04-23T07:50:05.742Z</time></trkpt><trkpt lat="39.8516451" lon="9.0702925"><ele>652.0</ele><time>2026-04-23T07:50:06.74Z</time></trkpt><trkpt lat="39.8517273" lon="9.0701241"><ele>652.0</ele><time>2026-04-23T07:50:07.747Z</time></trkpt><trkpt lat="39.8518096" lon="9.0699711"><ele>652.0</ele><time>2026-04-23T07:50:08.746Z</time></trkpt><trkpt lat="39.8519147" lon="9.0698524"><ele>652.0</ele><time>2026-04-23T07:50:09.762Z</time></trkpt><trkpt lat="39.8520223" lon="9.0697237"><ele>654.0</ele><time>2026-04-23T07:50:10.754Z</time></trkpt><trkpt lat="39.852142" lon="9.0695949"><ele>656.0</ele><time>2026-04-23T07:50:11.754Z</time></trkpt><trkpt lat="39.8522679" lon="9.0694677"><ele>658.0</ele><time>2026-04-23T07:50:12.737Z</time></trkpt><trkpt lat="39.8524021" lon="9.0693375"><ele>658.0</ele><time>2026-04-23T07:50:13.739Z</time></trkpt><trkpt lat="39.8525386" lon="9.0692022"><ele>658.0</ele><time>2026-04-23T07:50:14.74Z</time></trkpt><trkpt lat="39.8526991" lon="9.0690371"><ele>658.0</ele><time>2026-04-23T07:50:15.746Z</time></trkpt><trkpt lat="39.8527612" lon="9.0686727"><ele>658.3333333333334</ele><time>2026-04-23T07:50:16.75Z</time></trkpt><trkpt lat="39.8528766" lon="9.0684563"><ele>658.6666666666666</ele><time>2026-04-23T07:50:17.742Z</time></trkpt><trkpt lat="39.8530047" lon="9.0682704"><ele>659.0</ele><time>2026-04-23T07:50:18.757Z</time></trkpt><trkpt lat="39.8531309" lon="9.0680964"><ele>660.0</ele><time>2026-04-23T07:50:19.753Z</time></trkpt><trkpt lat="39.8532304" lon="9.0678739"><ele>661.0</ele><time>2026-04-23T07:50:20.756Z</time></trkpt><trkpt lat="39.8533529" lon="9.0676821"><ele>662.0</ele><time>2026-04-23T07:50:21.755Z</time></trkpt><trkpt lat="39.8534815" lon="9.06749"><ele>660.3333333333333</ele><time>2026-04-23T07:50:22.766Z</time></trkpt><trkpt lat="39.8536016" lon="9.0672845"><ele>658.6666666666666</ele><time>2026-04-23T07:50:23.755Z</time></trkpt><trkpt lat="39.8537151" lon="9.0670676"><ele>657.0</ele><time>2026-04-23T07:50:24.741Z</time></trkpt><trkpt lat="39.8538266" lon="9.066837"><ele>656.0</ele><time>2026-04-23T07:50:25.743Z</time></trkpt><trkpt lat="39.8538987" lon="9.0665667"><ele>655.0</ele><time>2026-04-23T07:50:26.735Z</time></trkpt><trkpt lat="39.853981" lon="9.0663075"><ele>654.0</ele><time>2026-04-23T07:50:27.735Z</time></trkpt><trkpt lat="39.8540813" lon="9.0660525"><ele>654.0</ele><time>2026-04-23T07:50:28.748Z</time></trkpt><trkpt lat="39.8541815" lon="9.0658038"><ele>654.0</ele><time>2026-04-23T07:50:29.752Z</time></trkpt><trkpt lat="39.8542824" lon="9.0655521"><ele>654.0</ele><time>2026-04-23T07:50:30.751Z</time></trkpt><trkpt lat="39.854383" lon="9.0653011"><ele>654.0</ele><time>2026-04-23T07:50:31.752Z</time></trkpt><trkpt lat="39.8544842" lon="9.0650462"><ele>654.0</ele><time>2026-04-23T07:50:32.761Z</time></trkpt><trkpt lat="39.8545855" lon="9.0648116"><ele>654.0</ele><time>2026-04-23T07:50:33.752Z</time></trkpt><trkpt lat="39.8546859" lon="9.0645679"><ele>654.0</ele><time>2026-04-23T07:50:34.745Z</time></trkpt><trkpt lat="39.8547868" lon="9.0643202"><ele>654.0</ele><time>2026-04-23T07:50:35.751Z</time></trkpt><trkpt lat="39.8548844" lon="9.0640738"><ele>654.0</ele><time>2026-04-23T07:50:36.753Z</time></trkpt><trkpt lat="39.8549749" lon="9.0638313"><ele>653.3333333333334</ele><time>2026-04-23T07:50:37.751Z</time></trkpt><trkpt lat="39.8550565" lon="9.0635882"><ele>652.6666666666667</ele><time>2026-04-23T07:50:38.751Z</time></trkpt><trkpt lat="39.8551321" lon="9.0633441"><ele>652.0</ele><time>2026-04-23T07:50:39.75Z</time></trkpt><trkpt lat="39.8552088" lon="9.0631"><ele>654.6666666666667</ele><time>2026-04-23T07:50:40.752Z</time></trkpt><trkpt lat="39.8552846" lon="9.0628599"><ele>657.3333333333334</ele><time>2026-04-23T07:50:41.75Z</time></trkpt><trkpt lat="39.8553598" lon="9.0626208"><ele>660.0</ele><time>2026-04-23T07:50:42.763Z</time></trkpt><trkpt lat="39.8554328" lon="9.0623781"><ele>660.3333333333334</ele><time>2026-04-23T07:50:43.752Z</time></trkpt><trkpt lat="39.8555126" lon="9.0621346"><ele>660.6666666666667</ele><time>2026-04-23T07:50:44.756Z</time></trkpt><trkpt lat="39.8555917" lon="9.061893"><ele>661.0</ele><time>2026-04-23T07:50:45.755Z</time></trkpt><trkpt lat="39.8556693" lon="9.0616594"><ele>661.3333333333334</ele><time>2026-04-23T07:50:46.755Z</time></trkpt><trkpt lat="39.8557427" lon="9.061436"><ele>661.6666666666666</ele><time>2026-04-23T07:50:47.753Z</time></trkpt><trkpt lat="39.8558091" lon="9.061224"><ele>662.0</ele><time>2026-04-23T07:50:48.756Z</time></trkpt><trkpt lat="39.8558723" lon="9.0610293"><ele>662.0</ele><time>2026-04-23T07:50:49.754Z</time></trkpt><trkpt lat="39.8558721" lon="9.0607902"><ele>662.0</ele><time>2026-04-23T07:50:50.673Z</time></trkpt><trkpt lat="39.8559958" lon="9.06061"><ele>662.0</ele><time>2026-04-23T07:50:51.667Z</time></trkpt><trkpt lat="39.8561312" lon="9.0604939"><ele>660.0</ele><time>2026-04-23T07:50:52.672Z</time></trkpt><trkpt lat="39.8562638" lon="9.0603955"><ele>658.0</ele><time>2026-04-23T07:50:53.661Z</time></trkpt><trkpt lat="39.8564403" lon="9.0603517"><ele>656.0</ele><time>2026-04-23T07:50:54.659Z</time></trkpt><trkpt lat="39.8565968" lon="9.0602916"><ele>655.3333333333333</ele><time>2026-04-23T07:50:55.665Z</time></trkpt><trkpt lat="39.8567967" lon="9.0602356"><ele>654.6666666666666</ele><time>2026-04-23T07:50:56.666Z</time></trkpt><trkpt lat="39.8569753" lon="9.0601554"><ele>654.0</ele><time>2026-04-23T07:50:57.669Z</time></trkpt><trkpt lat="39.8571692" lon="9.0600844"><ele>654.0</ele><time>2026-04-23T07:50:58.674Z</time></trkpt><trkpt lat="39.8573329" lon="9.0600069"><ele>654.0</ele><time>2026-04-23T07:50:59.674Z</time></trkpt><trkpt lat="39.8574964" lon="9.059932"><ele>654.0</ele><time>2026-04-23T07:51:00.678Z</time></trkpt><trkpt lat="39.8576762" lon="9.059876"><ele>651.3333333333334</ele><time>2026-04-23T07:51:01.668Z</time></trkpt><trkpt lat="39.8578555" lon="9.0598288"><ele>648.6666666666667</ele><time>2026-04-23T07:51:02.668Z</time></trkpt><trkpt lat="39.8580369" lon="9.0598045"><ele>646.0</ele><time>2026-04-23T07:51:03.666Z</time></trkpt><trkpt lat="39.8582135" lon="9.0597571"><ele>646.0</ele><time>2026-04-23T07:51:04.673Z</time></trkpt><trkpt lat="39.8584088" lon="9.0597019"><ele>646.0</ele><time>2026-04-23T07:51:05.668Z</time></trkpt><trkpt lat="39.8585883" lon="9.0596371"><ele>646.0</ele><time>2026-04-23T07:51:06.663Z</time></trkpt><trkpt lat="39.8587324" lon="9.0595444"><ele>647.6666666666667</ele><time>2026-04-23T07:51:07.66Z</time></trkpt><trkpt lat="39.8588916" lon="9.0594534"><ele>649.3333333333334</ele><time>2026-04-23T07:51:08.666Z</time></trkpt><trkpt lat="39.8590353" lon="9.059294"><ele>651.0</ele><time>2026-04-23T07:51:09.656Z</time></trkpt><trkpt lat="39.859194" lon="9.0591187"><ele>653.3333333333334</ele><time>2026-04-23T07:51:10.664Z</time></trkpt><trkpt lat="39.8593507" lon="9.0589324"><ele>655.6666666666667</ele><time>2026-04-23T07:51:11.667Z</time></trkpt><trkpt lat="39.8595032" lon="9.0587643"><ele>658.0</ele><time>2026-04-23T07:51:12.662Z</time></trkpt><trkpt lat="39.8596565" lon="9.0586216"><ele>658.0</ele><time>2026-04-23T07:51:13.66Z</time></trkpt><trkpt lat="39.8598034" lon="9.0584854"><ele>658.0</ele><time>2026-04-23T07:51:14.664Z</time></trkpt><trkpt lat="39.8599424" lon="9.0583343"><ele>658.0</ele><time>2026-04-23T07:51:15.662Z</time></trkpt><trkpt lat="39.860095" lon="9.0581781"><ele>655.3333333333334</ele><time>2026-04-23T07:51:16.663Z</time></trkpt><trkpt lat="39.8602453" lon="9.0580328"><ele>652.6666666666666</ele><time>2026-04-23T07:51:17.664Z</time></trkpt><trkpt lat="39.8603866" lon="9.0578938"><ele>650.0</ele><time>2026-04-23T07:51:18.659Z</time></trkpt><trkpt lat="39.8604962" lon="9.057742"><ele>650.0</ele><time>2026-04-23T07:51:19.665Z</time></trkpt><trkpt lat="39.8606495" lon="9.0576225"><ele>650.0</ele><time>2026-04-23T07:51:20.663Z</time></trkpt><trkpt lat="39.8607873" lon="9.0575425"><ele>650.0</ele><time>2026-04-23T07:51:21.664Z</time></trkpt><trkpt lat="39.8609583" lon="9.0574762"><ele>646.6666666666666</ele><time>2026-04-23T07:51:22.667Z</time></trkpt><trkpt lat="39.8611471" lon="9.0574234"><ele>643.3333333333334</ele><time>2026-04-23T07:51:23.666Z</time></trkpt><trkpt lat="39.8613332" lon="9.0573737"><ele>640.0</ele><time>2026-04-23T07:51:24.674Z</time></trkpt><trkpt lat="39.8614973" lon="9.0573166"><ele>640.0</ele><time>2026-04-23T07:51:25.671Z</time></trkpt><trkpt lat="39.8616665" lon="9.0572608"><ele>640.0</ele><time>2026-04-23T07:51:26.67Z</time></trkpt><trkpt lat="39.8618413" lon="9.0571883"><ele>640.0</ele><time>2026-04-23T07:51:27.668Z</time></trkpt><trkpt lat="39.8619889" lon="9.0570942"><ele>640.0</ele><time>2026-04-23T07:51:28.663Z</time></trkpt><trkpt lat="39.8621124" lon="9.0570138"><ele>640.0</ele><time>2026-04-23T07:51:29.665Z</time></trkpt><trkpt lat="39.8622025" lon="9.0568799"><ele>640.0</ele><time>2026-04-23T07:51:30.668Z</time></trkpt><trkpt lat="39.8622791" lon="9.0567582"><ele>640.0</ele><time>2026-04-23T07:51:31.656Z</time></trkpt><trkpt lat="39.8623044" lon="9.0566009"><ele>640.0</ele><time>2026-04-23T07:51:32.659Z</time></trkpt><trkpt lat="39.8622933" lon="9.0564513"><ele>640.0</ele><time>2026-04-23T07:51:33.66Z</time></trkpt><trkpt lat="39.862266" lon="9.056272"><ele>640.0</ele><time>2026-04-23T07:51:34.66Z</time></trkpt><trkpt lat="39.8622098" lon="9.0561047"><ele>640.0</ele><time>2026-04-23T07:51:35.658Z</time></trkpt><trkpt lat="39.8621002" lon="9.0559585"><ele>640.0</ele><time>2026-04-23T07:51:36.652Z</time></trkpt><trkpt lat="39.8619431" lon="9.0558596"><ele>640.0</ele><time>2026-04-23T07:51:37.657Z</time></trkpt><trkpt lat="39.8617965" lon="9.0557852"><ele>640.0</ele><time>2026-04-23T07:51:38.661Z</time></trkpt><trkpt lat="39.8616865" lon="9.0557328"><ele>640.0</ele><time>2026-04-23T07:51:39.665Z</time></trkpt><trkpt lat="39.8615421" lon="9.0556968"><ele>635.75</ele><time>2026-04-23T07:51:40.665Z</time></trkpt><trkpt lat="39.8613973" lon="9.0556594"><ele>631.5</ele><time>2026-04-23T07:51:41.664Z</time></trkpt><trkpt lat="39.8612517" lon="9.0556251"><ele>627.25</ele><time>2026-04-23T07:51:42.665Z</time></trkpt><trkpt lat="39.8611046" lon="9.0555894"><ele>623.0</ele><time>2026-04-23T07:51:43.661Z</time></trkpt><trkpt lat="39.8609752" lon="9.0555591"><ele>624.0</ele><time>2026-04-23T07:51:44.654Z</time></trkpt><trkpt lat="39.8608905" lon="9.0555311"><ele>625.0</ele><time>2026-04-23T07:51:45.658Z</time></trkpt><trkpt lat="39.8607482" lon="9.055474"><ele>626.0</ele><time>2026-04-23T07:51:46.655Z</time></trkpt><trkpt lat="39.860707" lon="9.0553969"><ele>627.0</ele><time>2026-04-23T07:51:47.654Z</time></trkpt><trkpt lat="39.8606414" lon="9.0553344"><ele>628.0</ele><time>2026-04-23T07:51:48.65Z</time></trkpt><trkpt lat="39.8605643" lon="9.0551676"><ele>628.0</ele><time>2026-04-23T07:51:49.645Z</time></trkpt><trkpt lat="39.8605777" lon="9.0550065"><ele>628.0</ele><time>2026-04-23T07:51:50.649Z</time></trkpt><trkpt lat="39.8605805" lon="9.0548473"><ele>628.0</ele><time>2026-04-23T07:51:51.647Z</time></trkpt><trkpt lat="39.8605847" lon="9.0547037"><ele>628.0</ele><time>2026-04-23T07:51:52.644Z</time></trkpt><trkpt lat="39.8606065" lon="9.0545666"><ele>625.5</ele><time>2026-04-23T07:51:53.641Z</time></trkpt><trkpt lat="39.8606714" lon="9.0544517"><ele>623.0</ele><time>2026-04-23T07:51:54.65Z</time></trkpt><trkpt lat="39.860753" lon="9.0543416"><ele>620.5</ele><time>2026-04-23T07:51:55.659Z</time></trkpt><trkpt lat="39.86089" lon="9.0543199"><ele>618.0</ele><time>2026-04-23T07:51:56.659Z</time></trkpt><trkpt lat="39.8610451" lon="9.0543247"><ele>615.6666666666666</ele><time>2026-04-23T07:51:57.652Z</time></trkpt><trkpt lat="39.8611881" lon="9.0543537"><ele>613.3333333333333</ele><time>2026-04-23T07:51:58.647Z</time></trkpt><trkpt lat="39.861356" lon="9.0543884"><ele>611.0</ele><time>2026-04-23T07:51:59.657Z</time></trkpt><trkpt lat="39.8615274" lon="9.054434"><ele>611.0</ele><time>2026-04-23T07:52:00.657Z</time></trkpt><trkpt lat="39.8617008" lon="9.0544642"><ele>611.0</ele><time>2026-04-23T07:52:01.657Z</time></trkpt><trkpt lat="39.861894" lon="9.0544624"><ele>611.0</ele><time>2026-04-23T07:52:02.656Z</time></trkpt><trkpt lat="39.8620836" lon="9.0544452"><ele>610.3333333333333</ele><time>2026-04-23T07:52:03.662Z</time></trkpt><trkpt lat="39.862259" lon="9.0543875"><ele>609.6666666666666</ele><time>2026-04-23T07:52:04.652Z</time></trkpt><trkpt lat="39.8624527" lon="9.0542801"><ele>609.0</ele><time>2026-04-23T07:52:05.66Z</time></trkpt><trkpt lat="39.8626006" lon="9.054172"><ele>607.5</ele><time>2026-04-23T07:52:06.659Z</time></trkpt><trkpt lat="39.8627197" lon="9.0540716"><ele>606.0</ele><time>2026-04-23T07:52:07.659Z</time></trkpt><trkpt lat="39.8628372" lon="9.0539444"><ele>604.5</ele><time>2026-04-23T07:52:08.658Z</time></trkpt><trkpt lat="39.8629453" lon="9.05386"><ele>603.0</ele><time>2026-04-23T07:52:09.655Z</time></trkpt><trkpt lat="39.8630493" lon="9.0537467"><ele>603.0</ele><time>2026-04-23T07:52:10.661Z</time></trkpt><trkpt lat="39.8631478" lon="9.0536501"><ele>603.0</ele><time>2026-04-23T07:52:11.655Z</time></trkpt><trkpt lat="39.8632156" lon="9.0535863"><ele>603.0</ele><time>2026-04-23T07:52:12.66Z</time></trkpt><trkpt lat="39.8632795" lon="9.0535172"><ele>603.0</ele><time>2026-04-23T07:52:13.664Z</time></trkpt><trkpt lat="39.8633339" lon="9.0534709"><ele>603.0</ele><time>2026-04-23T07:52:14.663Z</time></trkpt><trkpt lat="39.8633913" lon="9.0534135"><ele>603.0</ele><time>2026-04-23T07:52:15.655Z</time></trkpt><trkpt lat="39.8634334" lon="9.0533295"><ele>603.0</ele><time>2026-04-23T07:52:17.657Z</time></trkpt><trkpt lat="39.8633645" lon="9.0532567"><ele>603.0</ele><time>2026-04-23T07:52:21.665Z</time></trkpt><trkpt lat="39.8632324" lon="9.0533005"><ele>603.0</ele><time>2026-04-23T07:52:23.657Z</time></trkpt><trkpt lat="39.8631335" lon="9.0533642"><ele>603.0</ele><time>2026-04-23T07:52:24.688Z</time></trkpt><trkpt lat="39.8630294" lon="9.0534237"><ele>603.0</ele><time>2026-04-23T07:52:25.667Z</time></trkpt><trkpt lat="39.8629088" lon="9.0534693"><ele>603.0</ele><time>2026-04-23T07:52:26.657Z</time></trkpt><trkpt lat="39.8627671" lon="9.0534917"><ele>603.0</ele><time>2026-04-23T07:52:27.659Z</time></trkpt><trkpt lat="39.8625859" lon="9.0534693"><ele>603.0</ele><time>2026-04-23T07:52:28.66Z</time></trkpt><trkpt lat="39.8623848" lon="9.0534959"><ele>600.75</ele><time>2026-04-23T07:52:29.658Z</time></trkpt><trkpt lat="39.8622574" lon="9.0534478"><ele>598.5</ele><time>2026-04-23T07:52:30.664Z</time></trkpt><trkpt lat="39.8621684" lon="9.053346"><ele>596.25</ele><time>2026-04-23T07:52:31.661Z</time></trkpt><trkpt lat="39.8620592" lon="9.0532843"><ele>594.0</ele><time>2026-04-23T07:52:32.654Z</time></trkpt><trkpt lat="39.8619369" lon="9.0532396"><ele>593.8</ele><time>2026-04-23T07:52:33.656Z</time></trkpt><trkpt lat="39.8618477" lon="9.0531478"><ele>593.5999999999999</ele><time>2026-04-23T07:52:34.655Z</time></trkpt><trkpt lat="39.8617984" lon="9.0530273"><ele>593.4</ele><time>2026-04-23T07:52:35.655Z</time></trkpt><trkpt lat="39.8617738" lon="9.0529028"><ele>593.1999999999999</ele><time>2026-04-23T07:52:36.653Z</time></trkpt><trkpt lat="39.8617543" lon="9.0527493"><ele>593.0</ele><time>2026-04-23T07:52:37.649Z</time></trkpt><trkpt lat="39.8617223" lon="9.0525966"><ele>588.25</ele><time>2026-04-23T07:52:38.648Z</time></trkpt><trkpt lat="39.8616904" lon="9.0524378"><ele>583.5</ele><time>2026-04-23T07:52:39.64Z</time></trkpt><trkpt lat="39.8616362" lon="9.0522891"><ele>578.75</ele><time>2026-04-23T07:52:40.655Z</time></trkpt><trkpt lat="39.861561" lon="9.052146"><ele>574.0</ele><time>2026-04-23T07:52:41.649Z</time></trkpt><trkpt lat="39.8614774" lon="9.0520092"><ele>574.0</ele><time>2026-04-23T07:52:42.658Z</time></trkpt><trkpt lat="39.8613851" lon="9.0519138"><ele>574.0</ele><time>2026-04-23T07:52:43.661Z</time></trkpt><trkpt lat="39.8612909" lon="9.0518585"><ele>574.0</ele><time>2026-04-23T07:52:44.651Z</time></trkpt><trkpt lat="39.8611504" lon="9.0518751"><ele>574.0</ele><time>2026-04-23T07:52:45.65Z</time></trkpt><trkpt lat="39.8610081" lon="9.0519151"><ele>573.0</ele><time>2026-04-23T07:52:46.659Z</time></trkpt><trkpt lat="39.8608398" lon="9.0519856"><ele>572.0</ele><time>2026-04-23T07:52:47.654Z</time></trkpt><trkpt lat="39.8606703" lon="9.0520541"><ele>571.0</ele><time>2026-04-23T07:52:48.653Z</time></trkpt><trkpt lat="39.8605161" lon="9.0521244"><ele>571.0</ele><time>2026-04-23T07:52:49.676Z</time></trkpt><trkpt lat="39.8603862" lon="9.0521906"><ele>571.0</ele><time>2026-04-23T07:52:50.653Z</time></trkpt><trkpt lat="39.8602624" lon="9.0522457"><ele>571.0</ele><time>2026-04-23T07:52:51.657Z</time></trkpt><trkpt lat="39.8601426" lon="9.0522732"><ele>571.0</ele><time>2026-04-23T07:52:52.652Z</time></trkpt><trkpt lat="39.8600121" lon="9.0522766"><ele>570.75</ele><time>2026-04-23T07:52:53.647Z</time></trkpt><trkpt lat="39.8598949" lon="9.0522671"><ele>570.5</ele><time>2026-04-23T07:52:54.649Z</time></trkpt><trkpt lat="39.8597824" lon="9.0522233"><ele>570.25</ele><time>2026-04-23T07:52:55.651Z</time></trkpt><trkpt lat="39.859668" lon="9.0522199"><ele>570.0</ele><time>2026-04-23T07:52:56.638Z</time></trkpt><trkpt lat="39.8596177" lon="9.0520823"><ele>570.0</ele><time>2026-04-23T07:52:57.654Z</time></trkpt><trkpt lat="39.8596006" lon="9.0518968"><ele>570.0</ele><time>2026-04-23T07:52:58.656Z</time></trkpt><trkpt lat="39.859609" lon="9.0516743"><ele>570.0</ele><time>2026-04-23T07:52:59.669Z</time></trkpt><trkpt lat="39.8596174" lon="9.0514498"><ele>566.3333333333334</ele><time>2026-04-23T07:53:00.662Z</time></trkpt><trkpt lat="39.8596338" lon="9.0511994"><ele>562.6666666666667</ele><time>2026-04-23T07:53:01.661Z</time></trkpt><trkpt lat="39.8596422" lon="9.0510136"><ele>559.0</ele><time>2026-04-23T07:53:02.659Z</time></trkpt><trkpt lat="39.8596367" lon="9.0508568"><ele>560.5</ele><time>2026-04-23T07:53:03.662Z</time></trkpt><trkpt lat="39.8595919" lon="9.0507262"><ele>562.0</ele><time>2026-04-23T07:53:04.669Z</time></trkpt><trkpt lat="39.8595056" lon="9.0506179"><ele>563.5</ele><time>2026-04-23T07:53:05.654Z</time></trkpt><trkpt lat="39.8593974" lon="9.0504747"><ele>565.0</ele><time>2026-04-23T07:53:06.664Z</time></trkpt><trkpt lat="39.8592782" lon="9.0503126"><ele>565.0</ele><time>2026-04-23T07:53:07.663Z</time></trkpt><trkpt lat="39.8592175" lon="9.050175"><ele>565.0</ele><time>2026-04-23T07:53:08.664Z</time></trkpt><trkpt lat="39.8591606" lon="9.0500357"><ele>565.0</ele><time>2026-04-23T07:53:09.672Z</time></trkpt><trkpt lat="39.8591179" lon="9.0499068"><ele>565.0</ele><time>2026-04-23T07:53:10.665Z</time></trkpt><trkpt lat="39.8590786" lon="9.0498245"><ele>565.0</ele><time>2026-04-23T07:53:11.664Z</time></trkpt><trkpt lat="39.8589825" lon="9.0497573"><ele>563.0</ele><time>2026-04-23T07:53:12.665Z</time></trkpt><trkpt lat="39.8589013" lon="9.0497028"><ele>561.0</ele><time>2026-04-23T07:53:13.662Z</time></trkpt><trkpt lat="39.8588273" lon="9.0496876"><ele>559.0</ele><time>2026-04-23T07:53:14.655Z</time></trkpt><trkpt lat="39.8587576" lon="9.0497349"><ele>557.0</ele><time>2026-04-23T07:53:15.664Z</time></trkpt><trkpt lat="39.8586723" lon="9.0498207"><ele>555.0</ele><time>2026-04-23T07:53:16.657Z</time></trkpt><trkpt lat="39.8585917" lon="9.0499273"><ele>554.25</ele><time>2026-04-23T07:53:17.651Z</time></trkpt><trkpt lat="39.858512" lon="9.0500561"><ele>553.5</ele><time>2026-04-23T07:53:18.652Z</time></trkpt><trkpt lat="39.8584303" lon="9.0502089"><ele>552.75</ele><time>2026-04-23T07:53:19.651Z</time></trkpt><trkpt lat="39.8583377" lon="9.0503866"><ele>552.0</ele><time>2026-04-23T07:53:20.657Z</time></trkpt><trkpt lat="39.8582538" lon="9.050551"><ele>552.0</ele><time>2026-04-23T07:53:21.657Z</time></trkpt><trkpt lat="39.8581601" lon="9.0506949"><ele>552.0</ele><time>2026-04-23T07:53:22.661Z</time></trkpt><trkpt lat="39.8580838" lon="9.0508518"><ele>552.0</ele><time>2026-04-23T07:53:23.654Z</time></trkpt><trkpt lat="39.858034" lon="9.0510238"><ele>552.0</ele><time>2026-04-23T07:53:24.662Z</time></trkpt><trkpt lat="39.8580084" lon="9.0511832"><ele>554.75</ele><time>2026-04-23T07:53:25.662Z</time></trkpt><trkpt lat="39.8579958" lon="9.0513247"><ele>557.5</ele><time>2026-04-23T07:53:26.656Z</time></trkpt><trkpt lat="39.8579972" lon="9.0514792"><ele>560.25</ele><time>2026-04-23T07:53:27.654Z</time></trkpt><trkpt lat="39.8580306" lon="9.0516258"><ele>563.0</ele><time>2026-04-23T07:53:28.657Z</time></trkpt><trkpt lat="39.8580775" lon="9.0517797"><ele>563.4</ele><time>2026-04-23T07:53:29.658Z</time></trkpt><trkpt lat="39.8581392" lon="9.0519187"><ele>563.8</ele><time>2026-04-23T07:53:30.652Z</time></trkpt><trkpt lat="39.8581806" lon="9.0520577"><ele>564.2</ele><time>2026-04-23T07:53:31.658Z</time></trkpt><trkpt lat="39.8582243" lon="9.0521783"><ele>564.6</ele><time>2026-04-23T07:53:32.652Z</time></trkpt><trkpt lat="39.8582482" lon="9.0523004"><ele>565.0</ele><time>2026-04-23T07:53:33.646Z</time></trkpt><trkpt lat="39.8582552" lon="9.0524338"><ele>564.0</ele><time>2026-04-23T07:53:34.644Z</time></trkpt><trkpt lat="39.8582249" lon="9.0525411"><ele>563.0</ele><time>2026-04-23T07:53:35.651Z</time></trkpt><trkpt lat="39.8581847" lon="9.0526335"><ele>562.0</ele><time>2026-04-23T07:53:36.647Z</time></trkpt><trkpt lat="39.8581327" lon="9.0527057"><ele>561.0</ele><time>2026-04-23T07:53:37.646Z</time></trkpt><trkpt lat="39.8580744" lon="9.0527601"><ele>560.0</ele><time>2026-04-23T07:53:38.649Z</time></trkpt><trkpt lat="39.8580202" lon="9.0528058"><ele>559.0</ele><time>2026-04-23T07:53:39.662Z</time></trkpt><trkpt lat="39.8579466" lon="9.0528188"><ele>559.0</ele><time>2026-04-23T07:53:40.653Z</time></trkpt><trkpt lat="39.857859" lon="9.0527913"><ele>559.0</ele><time>2026-04-23T07:53:41.652Z</time></trkpt><trkpt lat="39.857759" lon="9.0527509"><ele>559.0</ele><time>2026-04-23T07:53:42.661Z</time></trkpt><trkpt lat="39.8576424" lon="9.0527128"><ele>559.0</ele><time>2026-04-23T07:53:43.658Z</time></trkpt><trkpt lat="39.8575302" lon="9.0526818"><ele>559.0</ele><time>2026-04-23T07:53:44.66Z</time></trkpt><trkpt lat="39.8574221" lon="9.05264"><ele>557.4</ele><time>2026-04-23T07:53:45.655Z</time></trkpt><trkpt lat="39.8573096" lon="9.0526047"><ele>555.8</ele><time>2026-04-23T07:53:46.654Z</time></trkpt><trkpt lat="39.8572006" lon="9.0525721"><ele>554.2</ele><time>2026-04-23T07:53:47.662Z</time></trkpt><trkpt lat="39.8571031" lon="9.0525476"><ele>552.6</ele><time>2026-04-23T07:53:48.669Z</time></trkpt><trkpt lat="39.8570073" lon="9.0525222"><ele>551.0</ele><time>2026-04-23T07:53:49.665Z</time></trkpt><trkpt lat="39.8569064" lon="9.0524909"><ele>551.0</ele><time>2026-04-23T07:53:50.665Z</time></trkpt><trkpt lat="39.8568081" lon="9.0524677"><ele>551.0</ele><time>2026-04-23T07:53:51.665Z</time></trkpt><trkpt lat="39.8567049" lon="9.0524483"><ele>551.0</ele><time>2026-04-23T07:53:52.664Z</time></trkpt><trkpt lat="39.8566085" lon="9.0524304"><ele>551.0</ele><time>2026-04-23T07:53:53.662Z</time></trkpt><trkpt lat="39.8565336" lon="9.052402"><ele>551.0</ele><time>2026-04-23T07:53:54.657Z</time></trkpt><trkpt lat="39.8564758" lon="9.0523609"><ele>551.0</ele><time>2026-04-23T07:53:55.665Z</time></trkpt><trkpt lat="39.8564963" lon="9.0522641"><ele>549.2</ele><time>2026-04-23T07:54:01.666Z</time></trkpt><trkpt lat="39.8565715" lon="9.0522184"><ele>547.4000000000001</ele><time>2026-04-23T07:54:03.662Z</time></trkpt><trkpt lat="39.8566414" lon="9.052185"><ele>545.6</ele><time>2026-04-23T07:54:04.651Z</time></trkpt><trkpt lat="39.8567168" lon="9.0521378"><ele>543.8000000000001</ele><time>2026-04-23T07:54:05.651Z</time></trkpt><trkpt lat="39.8568139" lon="9.0520715"><ele>542.0</ele><time>2026-04-23T07:54:06.647Z</time></trkpt><trkpt lat="39.856911" lon="9.0519972"><ele>542.0</ele><time>2026-04-23T07:54:07.651Z</time></trkpt><trkpt lat="39.857005" lon="9.051916"><ele>542.0</ele><time>2026-04-23T07:54:08.653Z</time></trkpt><trkpt lat="39.8570966" lon="9.0518387"><ele>542.0</ele><time>2026-04-23T07:54:09.66Z</time></trkpt><trkpt lat="39.8571837" lon="9.051772"><ele>542.0</ele><time>2026-04-23T07:54:10.659Z</time></trkpt><trkpt lat="39.8572623" lon="9.0517347"><ele>542.0</ele><time>2026-04-23T07:54:11.659Z</time></trkpt><trkpt lat="39.8573241" lon="9.0516912"><ele>542.0</ele><time>2026-04-23T07:54:12.653Z</time></trkpt><trkpt lat="39.8573786" lon="9.0516396"><ele>542.0</ele><time>2026-04-23T07:54:13.654Z</time></trkpt><trkpt lat="39.8574489" lon="9.0515052"><ele>542.0</ele><time>2026-04-23T07:54:15.66Z</time></trkpt><trkpt lat="39.8574692" lon="9.0514234"><ele>542.0</ele><time>2026-04-23T07:54:16.657Z</time></trkpt><trkpt lat="39.8574501" lon="9.0513266"><ele>542.0</ele><time>2026-04-23T07:54:17.664Z</time></trkpt><trkpt lat="39.8574006" lon="9.051223"><ele>542.0</ele><time>2026-04-23T07:54:18.658Z</time></trkpt><trkpt lat="39.8573374" lon="9.0511294"><ele>542.0</ele><time>2026-04-23T07:54:19.658Z</time></trkpt><trkpt lat="39.8572466" lon="9.0510407"><ele>542.0</ele><time>2026-04-23T07:54:20.656Z</time></trkpt><trkpt lat="39.8571681" lon="9.0509578"><ele>542.0</ele><time>2026-04-23T07:54:21.657Z</time></trkpt><trkpt lat="39.8570887" lon="9.0508663"><ele>542.0</ele><time>2026-04-23T07:54:22.653Z</time></trkpt><trkpt lat="39.8570153" lon="9.0507864"><ele>542.0</ele><time>2026-04-23T07:54:23.656Z</time></trkpt><trkpt lat="39.8569414" lon="9.0507158"><ele>542.0</ele><time>2026-04-23T07:54:24.655Z</time></trkpt><trkpt lat="39.856869" lon="9.0506718"><ele>542.0</ele><time>2026-04-23T07:54:25.656Z</time></trkpt><trkpt lat="39.8567931" lon="9.0506557"><ele>542.0</ele><time>2026-04-23T07:54:26.654Z</time></trkpt><trkpt lat="39.8567038" lon="9.050631"><ele>542.0</ele><time>2026-04-23T07:54:27.659Z</time></trkpt><trkpt lat="39.8566159" lon="9.0505999"><ele>542.0</ele><time>2026-04-23T07:54:28.658Z</time></trkpt><trkpt lat="39.856554" lon="9.0505562"><ele>542.0</ele><time>2026-04-23T07:54:29.658Z</time></trkpt><trkpt lat="39.856489" lon="9.050506"><ele>538.75</ele><time>2026-04-23T07:54:30.655Z</time></trkpt><trkpt lat="39.8564486" lon="9.050359"><ele>535.5</ele><time>2026-04-23T07:54:32.65Z</time></trkpt><trkpt lat="39.8564744" lon="9.0502492"><ele>532.25</ele><time>2026-04-23T07:54:33.646Z</time></trkpt><trkpt lat="39.8565193" lon="9.0501103"><ele>529.0</ele><time>2026-04-23T07:54:34.643Z</time></trkpt><trkpt lat="39.8565853" lon="9.0499602"><ele>528.0</ele><time>2026-04-23T07:54:35.649Z</time></trkpt><trkpt lat="39.8566637" lon="9.0498102"><ele>527.0</ele><time>2026-04-23T07:54:36.658Z</time></trkpt><trkpt lat="39.8567141" lon="9.0496522"><ele>526.0</ele><time>2026-04-23T07:54:37.655Z</time></trkpt><trkpt lat="39.8567658" lon="9.0495033"><ele>525.0</ele><time>2026-04-23T07:54:38.652Z</time></trkpt><trkpt lat="39.8568069" lon="9.0493631"><ele>525.0</ele><time>2026-04-23T07:54:39.655Z</time></trkpt><trkpt lat="39.8568555" lon="9.0492209"><ele>525.0</ele><time>2026-04-23T07:54:40.653Z</time></trkpt><trkpt lat="39.8569141" lon="9.049087"><ele>525.0</ele><time>2026-04-23T07:54:41.653Z</time></trkpt><trkpt lat="39.8569907" lon="9.0489687"><ele>525.0</ele><time>2026-04-23T07:54:42.646Z</time></trkpt><trkpt lat="39.8570609" lon="9.0488653"><ele>521.8333333333334</ele><time>2026-04-23T07:54:43.652Z</time></trkpt><trkpt lat="39.8571218" lon="9.0487836"><ele>518.6666666666666</ele><time>2026-04-23T07:54:44.646Z</time></trkpt><trkpt lat="39.857189" lon="9.0487434"><ele>515.5</ele><time>2026-04-23T07:54:45.639Z</time></trkpt><trkpt lat="39.8572674" lon="9.0487272"><ele>512.3333333333333</ele><time>2026-04-23T07:54:46.65Z</time></trkpt><trkpt lat="39.8573472" lon="9.0487511"><ele>509.16666666666663</ele><time>2026-04-23T07:54:47.669Z</time></trkpt><trkpt lat="39.8574316" lon="9.0488107"><ele>506.0</ele><time>2026-04-23T07:54:48.67Z</time></trkpt><trkpt lat="39.8575198" lon="9.0488569"><ele>505.99999999999994</ele><time>2026-04-23T07:54:49.669Z</time></trkpt><trkpt lat="39.8576115" lon="9.0488879"><ele>506.0</ele><time>2026-04-23T07:54:50.675Z</time></trkpt><trkpt lat="39.8576964" lon="9.0489211"><ele>506.0</ele><time>2026-04-23T07:54:51.674Z</time></trkpt><trkpt lat="39.8577654" lon="9.0489282"><ele>506.0</ele><time>2026-04-23T07:54:52.684Z</time></trkpt><trkpt lat="39.8578187" lon="9.0488842"><ele>505.99999999999994</ele><time>2026-04-23T07:54:53.658Z</time></trkpt><trkpt lat="39.8578492" lon="9.0488039"><ele>506.0</ele><time>2026-04-23T07:54:54.655Z</time></trkpt><trkpt lat="39.8578659" lon="9.0486846"><ele>510.5</ele><time>2026-04-23T07:54:55.666Z</time></trkpt><trkpt lat="39.8578668" lon="9.0485434"><ele>515.0</ele><time>2026-04-23T07:54:56.653Z</time></trkpt><trkpt lat="39.8578595" lon="9.048377"><ele>519.5</ele><time>2026-04-23T07:54:57.666Z</time></trkpt><trkpt lat="39.8578625" lon="9.0482098"><ele>524.0</ele><time>2026-04-23T07:54:58.666Z</time></trkpt><trkpt lat="39.8578679" lon="9.0480356"><ele>524.0</ele><time>2026-04-23T07:54:59.666Z</time></trkpt><trkpt lat="39.8578848" lon="9.0478625"><ele>524.0</ele><time>2026-04-23T07:55:00.663Z</time></trkpt><trkpt lat="39.8579103" lon="9.0476841"><ele>524.0</ele><time>2026-04-23T07:55:01.679Z</time></trkpt><trkpt lat="39.8579322" lon="9.0475102"><ele>524.0</ele><time>2026-04-23T07:55:02.677Z</time></trkpt><trkpt lat="39.8579507" lon="9.0473424"><ele>520.25</ele><time>2026-04-23T07:55:03.675Z</time></trkpt><trkpt lat="39.8579629" lon="9.0471824"><ele>516.5</ele><time>2026-04-23T07:55:04.679Z</time></trkpt><trkpt lat="39.8579827" lon="9.0470339"><ele>512.75</ele><time>2026-04-23T07:55:05.681Z</time></trkpt><trkpt lat="39.8580186" lon="9.0468797"><ele>509.0</ele><time>2026-04-23T07:55:06.685Z</time></trkpt><trkpt lat="39.8580722" lon="9.0467304"><ele>505.6</ele><time>2026-04-23T07:55:07.69Z</time></trkpt><trkpt lat="39.8581263" lon="9.046602"><ele>502.2</ele><time>2026-04-23T07:55:08.684Z</time></trkpt><trkpt lat="39.8581865" lon="9.046497"><ele>498.80000000000007</ele><time>2026-04-23T07:55:09.678Z</time></trkpt><trkpt lat="39.8582568" lon="9.0464243"><ele>495.40000000000003</ele><time>2026-04-23T07:55:10.685Z</time></trkpt><trkpt lat="39.8583423" lon="9.0463795"><ele>492.0</ele><time>2026-04-23T07:55:11.678Z</time></trkpt><trkpt lat="39.8584436" lon="9.0463668"><ele>488.0</ele><time>2026-04-23T07:55:12.679Z</time></trkpt><trkpt lat="39.8585418" lon="9.0463954"><ele>484.0</ele><time>2026-04-23T07:55:13.676Z</time></trkpt><trkpt lat="39.8586481" lon="9.046443"><ele>480.0</ele><time>2026-04-23T07:55:14.701Z</time></trkpt><trkpt lat="39.8587571" lon="9.046529"><ele>476.0</ele><time>2026-04-23T07:55:15.693Z</time></trkpt><trkpt lat="39.8588795" lon="9.0466037"><ele>483.5</ele><time>2026-04-23T07:55:16.701Z</time></trkpt><trkpt lat="39.8590015" lon="9.0466787"><ele>491.0</ele><time>2026-04-23T07:55:17.694Z</time></trkpt><trkpt lat="39.8591178" lon="9.0467259"><ele>498.5</ele><time>2026-04-23T07:55:18.701Z</time></trkpt><trkpt lat="39.8592326" lon="9.046757"><ele>506.0</ele><time>2026-04-23T07:55:19.697Z</time></trkpt><trkpt lat="39.8593559" lon="9.0467389"><ele>506.25</ele><time>2026-04-23T07:55:20.697Z</time></trkpt><trkpt lat="39.8594859" lon="9.0467074"><ele>506.5</ele><time>2026-04-23T07:55:21.664Z</time></trkpt><trkpt lat="39.8596013" lon="9.0466523"><ele>506.75</ele><time>2026-04-23T07:55:22.684Z</time></trkpt><trkpt lat="39.8596922" lon="9.0465557"><ele>507.0</ele><time>2026-04-23T07:55:23.688Z</time></trkpt><trkpt lat="39.859772" lon="9.0464366"><ele>508.5</ele><time>2026-04-23T07:55:24.677Z</time></trkpt><trkpt lat="39.859869" lon="9.0463093"><ele>510.0</ele><time>2026-04-23T07:55:25.667Z</time></trkpt><trkpt lat="39.8599638" lon="9.0461867"><ele>511.5</ele><time>2026-04-23T07:55:26.663Z</time></trkpt><trkpt lat="39.8600759" lon="9.0460698"><ele>513.0</ele><time>2026-04-23T07:55:27.66Z</time></trkpt><trkpt lat="39.8601823" lon="9.045966"><ele>513.0</ele><time>2026-04-23T07:55:28.666Z</time></trkpt><trkpt lat="39.8602804" lon="9.0458673"><ele>513.0</ele><time>2026-04-23T07:55:29.662Z</time></trkpt><trkpt lat="39.8603672" lon="9.0458147"><ele>513.0</ele><time>2026-04-23T07:55:30.671Z</time></trkpt><trkpt lat="39.860424" lon="9.0457301"><ele>513.0</ele><time>2026-04-23T07:55:31.669Z</time></trkpt><trkpt lat="39.8604734" lon="9.0456246"><ele>513.0</ele><time>2026-04-23T07:55:32.668Z</time></trkpt><trkpt lat="39.8605131" lon="9.0455155"><ele>511.2</ele><time>2026-04-23T07:55:33.674Z</time></trkpt><trkpt lat="39.8605315" lon="9.0453855"><ele>509.4</ele><time>2026-04-23T07:55:34.678Z</time></trkpt><trkpt lat="39.8605458" lon="9.0452357"><ele>507.59999999999997</ele><time>2026-04-23T07:55:35.677Z</time></trkpt><trkpt lat="39.8605834" lon="9.0450964"><ele>505.79999999999995</ele><time>2026-04-23T07:55:36.673Z</time></trkpt><trkpt lat="39.8606454" lon="9.0449792"><ele>504.0</ele><time>2026-04-23T07:55:37.679Z</time></trkpt><trkpt lat="39.8606952" lon="9.0448669"><ele>504.0</ele><time>2026-04-23T07:55:38.681Z</time></trkpt><trkpt lat="39.8607341" lon="9.044762"><ele>504.0</ele><time>2026-04-23T07:55:39.668Z</time></trkpt><trkpt lat="39.8607575" lon="9.0446504"><ele>504.0</ele><time>2026-04-23T07:55:40.671Z</time></trkpt><trkpt lat="39.86076" lon="9.0445243"><ele>504.0</ele><time>2026-04-23T07:55:41.68Z</time></trkpt><trkpt lat="39.8607187" lon="9.0444023"><ele>504.0</ele><time>2026-04-23T07:55:42.673Z</time></trkpt><trkpt lat="39.8606439" lon="9.0442812"><ele>504.0</ele><time>2026-04-23T07:55:43.68Z</time></trkpt><trkpt lat="39.8605753" lon="9.0441599"><ele>504.0</ele><time>2026-04-23T07:55:44.679Z</time></trkpt><trkpt lat="39.8605093" lon="9.0440492"><ele>504.0</ele><time>2026-04-23T07:55:45.681Z</time></trkpt><trkpt lat="39.8604455" lon="9.0439559"><ele>504.0</ele><time>2026-04-23T07:55:46.678Z</time></trkpt><trkpt lat="39.8603601" lon="9.0438695"><ele>504.0</ele><time>2026-04-23T07:55:47.676Z</time></trkpt><trkpt lat="39.860262" lon="9.0437882"><ele>506.2</ele><time>2026-04-23T07:55:48.68Z</time></trkpt><trkpt lat="39.8601736" lon="9.0437176"><ele>508.4</ele><time>2026-04-23T07:55:49.684Z</time></trkpt><trkpt lat="39.8600831" lon="9.0436501"><ele>510.6</ele><time>2026-04-23T07:55:50.685Z</time></trkpt><trkpt lat="39.8600078" lon="9.0435777"><ele>512.8</ele><time>2026-04-23T07:55:51.683Z</time></trkpt><trkpt lat="39.8599485" lon="9.0435061"><ele>515.0</ele><time>2026-04-23T07:55:52.685Z</time></trkpt><trkpt lat="39.8599262" lon="9.0434174"><ele>507.8</ele><time>2026-04-23T07:55:53.679Z</time></trkpt><trkpt lat="39.8599264" lon="9.0432991"><ele>500.6</ele><time>2026-04-23T07:55:54.675Z</time></trkpt><trkpt lat="39.8599337" lon="9.0431761"><ele>493.4</ele><time>2026-04-23T07:55:55.683Z</time></trkpt><trkpt lat="39.8599466" lon="9.0430401"><ele>486.2</ele><time>2026-04-23T07:55:56.667Z</time></trkpt><trkpt lat="39.8599453" lon="9.042899"><ele>479.0</ele><time>2026-04-23T07:55:57.677Z</time></trkpt><trkpt lat="39.8599119" lon="9.0427536"><ele>478.66666666666663</ele><time>2026-04-23T07:55:58.672Z</time></trkpt><trkpt lat="39.8598589" lon="9.0426408"><ele>478.3333333333333</ele><time>2026-04-23T07:55:59.682Z</time></trkpt><trkpt lat="39.8598143" lon="9.0425394"><ele>478.0</ele><time>2026-04-23T07:56:00.681Z</time></trkpt><trkpt lat="39.8597891" lon="9.04244"><ele>477.66666666666663</ele><time>2026-04-23T07:56:01.683Z</time></trkpt><trkpt lat="39.8597895" lon="9.0423423"><ele>477.3333333333333</ele><time>2026-04-23T07:56:02.684Z</time></trkpt><trkpt lat="39.8598198" lon="9.0422399"><ele>477.0</ele><time>2026-04-23T07:56:03.678Z</time></trkpt><trkpt lat="39.8598822" lon="9.0421608"><ele>474.8</ele><time>2026-04-23T07:56:04.683Z</time></trkpt><trkpt lat="39.8599409" lon="9.0420801"><ele>472.6</ele><time>2026-04-23T07:56:05.679Z</time></trkpt><trkpt lat="39.8600316" lon="9.0420209"><ele>470.40000000000003</ele><time>2026-04-23T07:56:06.678Z</time></trkpt><trkpt lat="39.8601182" lon="9.0419591"><ele>468.20000000000005</ele><time>2026-04-23T07:56:07.666Z</time></trkpt><trkpt lat="39.860179" lon="9.0418797"><ele>466.0</ele><time>2026-04-23T07:56:08.663Z</time></trkpt><trkpt lat="39.8602309" lon="9.0417775"><ele>464.4</ele><time>2026-04-23T07:56:09.656Z</time></trkpt><trkpt lat="39.8602581" lon="9.0416696"><ele>462.8</ele><time>2026-04-23T07:56:10.661Z</time></trkpt><trkpt lat="39.8602205" lon="9.0415443"><ele>461.19999999999993</ele><time>2026-04-23T07:56:11.673Z</time></trkpt><trkpt lat="39.8601468" lon="9.0414266"><ele>459.59999999999997</ele><time>2026-04-23T07:56:12.679Z</time></trkpt><trkpt lat="39.8600648" lon="9.0413073"><ele>458.0</ele><time>2026-04-23T07:56:13.683Z</time></trkpt><trkpt lat="39.8599958" lon="9.0411948"><ele>458.0</ele><time>2026-04-23T07:56:14.69Z</time></trkpt><trkpt lat="39.8599474" lon="9.041084"><ele>457.99999999999994</ele><time>2026-04-23T07:56:15.678Z</time></trkpt><trkpt lat="39.859929" lon="9.0409749"><ele>457.99999999999994</ele><time>2026-04-23T07:56:16.682Z</time></trkpt><trkpt lat="39.8599455" lon="9.0408482"><ele>458.0</ele><time>2026-04-23T07:56:17.682Z</time></trkpt><trkpt lat="39.8599849" lon="9.0407302"><ele>458.0</ele><time>2026-04-23T07:56:18.68Z</time></trkpt><trkpt lat="39.8600433" lon="9.0406303"><ele>455.59999999999997</ele><time>2026-04-23T07:56:19.675Z</time></trkpt><trkpt lat="39.860112" lon="9.0405554"><ele>453.19999999999993</ele><time>2026-04-23T07:56:20.686Z</time></trkpt><trkpt lat="39.8601972" lon="9.0404927"><ele>450.8</ele><time>2026-04-23T07:56:21.672Z</time></trkpt><trkpt lat="39.8602826" lon="9.0404517"><ele>448.4</ele><time>2026-04-23T07:56:22.669Z</time></trkpt><trkpt lat="39.8603778" lon="9.0404023"><ele>446.0</ele><time>2026-04-23T07:56:23.674Z</time></trkpt><trkpt lat="39.8604555" lon="9.0403545"><ele>450.3333333333333</ele><time>2026-04-23T07:56:24.66Z</time></trkpt><trkpt lat="39.8605194" lon="9.040297"><ele>454.66666666666663</ele><time>2026-04-23T07:56:25.686Z</time></trkpt><trkpt lat="39.8605632" lon="9.0402306"><ele>459.0</ele><time>2026-04-23T07:56:26.663Z</time></trkpt><trkpt lat="39.8605815" lon="9.0401412"><ele>463.33333333333337</ele><time>2026-04-23T07:56:27.664Z</time></trkpt><trkpt lat="39.8605774" lon="9.0400396"><ele>467.6666666666667</ele><time>2026-04-23T07:56:28.658Z</time></trkpt><trkpt lat="39.8605299" lon="9.0399291"><ele>472.0</ele><time>2026-04-23T07:56:29.67Z</time></trkpt><trkpt lat="39.8604713" lon="9.0398123"><ele>473.25</ele><time>2026-04-23T07:56:30.669Z</time></trkpt><trkpt lat="39.8604089" lon="9.0396928"><ele>474.5</ele><time>2026-04-23T07:56:31.668Z</time></trkpt><trkpt lat="39.8603266" lon="9.0395521"><ele>475.75</ele><time>2026-04-23T07:56:32.671Z</time></trkpt><trkpt lat="39.860256" lon="9.0393995"><ele>477.0</ele><time>2026-04-23T07:56:33.668Z</time></trkpt><trkpt lat="39.8601937" lon="9.0392467"><ele>476.5</ele><time>2026-04-23T07:56:34.683Z</time></trkpt><trkpt lat="39.8601406" lon="9.0390827"><ele>476.0</ele><time>2026-04-23T07:56:35.688Z</time></trkpt><trkpt lat="39.8600876" lon="9.0389342"><ele>475.5</ele><time>2026-04-23T07:56:36.68Z</time></trkpt><trkpt lat="39.8600492" lon="9.0388019"><ele>475.0</ele><time>2026-04-23T07:56:37.686Z</time></trkpt><trkpt lat="39.8600128" lon="9.03869"><ele>471.6666666666667</ele><time>2026-04-23T07:56:38.681Z</time></trkpt><trkpt lat="39.8599733" lon="9.038589"><ele>468.33333333333337</ele><time>2026-04-23T07:56:39.688Z</time></trkpt><trkpt lat="39.8599264" lon="9.0384949"><ele>465.0</ele><time>2026-04-23T07:56:40.687Z</time></trkpt><trkpt lat="39.8598537" lon="9.0384468"><ele>461.66666666666663</ele><time>2026-04-23T07:56:41.68Z</time></trkpt><trkpt lat="39.8597653" lon="9.0383991"><ele>458.3333333333333</ele><time>2026-04-23T07:56:42.686Z</time></trkpt><trkpt lat="39.8596797" lon="9.0383902"><ele>455.0</ele><time>2026-04-23T07:56:43.679Z</time></trkpt><trkpt lat="39.8596" lon="9.038372"><ele>454.99999999999994</ele><time>2026-04-23T07:56:44.672Z</time></trkpt><trkpt lat="39.8595195" lon="9.038365"><ele>455.0</ele><time>2026-04-23T07:56:45.67Z</time></trkpt><trkpt lat="39.8594399" lon="9.0383527"><ele>455.0</ele><time>2026-04-23T07:56:46.667Z</time></trkpt><trkpt lat="39.8593906" lon="9.0382846"><ele>455.0</ele><time>2026-04-23T07:56:47.668Z</time></trkpt><trkpt lat="39.8593517" lon="9.0381747"><ele>454.99999999999994</ele><time>2026-04-23T07:56:48.665Z</time></trkpt><trkpt lat="39.8593246" lon="9.0380515"><ele>455.0</ele><time>2026-04-23T07:56:49.665Z</time></trkpt><trkpt lat="39.8593031" lon="9.0379216"><ele>455.5</ele><time>2026-04-23T07:56:50.674Z</time></trkpt><trkpt lat="39.8593017" lon="9.0377777"><ele>456.0</ele><time>2026-04-23T07:56:51.667Z</time></trkpt><trkpt lat="39.8593229" lon="9.0376269"><ele>456.5</ele><time>2026-04-23T07:56:52.671Z</time></trkpt><trkpt lat="39.8593663" lon="9.0374632"><ele>457.0</ele><time>2026-04-23T07:56:53.663Z</time></trkpt><trkpt lat="39.8594218" lon="9.0373217"><ele>455.40000000000003</ele><time>2026-04-23T07:56:54.664Z</time></trkpt><trkpt lat="39.8594812" lon="9.0371998"><ele>453.80000000000007</ele><time>2026-04-23T07:56:55.672Z</time></trkpt><trkpt lat="39.8595486" lon="9.0370847"><ele>452.2</ele><time>2026-04-23T07:56:56.665Z</time></trkpt><trkpt lat="39.8596033" lon="9.0369607"><ele>450.6</ele><time>2026-04-23T07:56:57.675Z</time></trkpt><trkpt lat="39.8596341" lon="9.0368315"><ele>449.0</ele><time>2026-04-23T07:56:58.653Z</time></trkpt><trkpt lat="39.8596473" lon="9.0367227"><ele>448.49999999999994</ele><time>2026-04-23T07:56:59.657Z</time></trkpt><trkpt lat="39.8596356" lon="9.0366228"><ele>448.0</ele><time>2026-04-23T07:57:00.662Z</time></trkpt><trkpt lat="39.8595929" lon="9.0365315"><ele>447.5</ele><time>2026-04-23T07:57:01.663Z</time></trkpt><trkpt lat="39.8595292" lon="9.0364607"><ele>447.0</ele><time>2026-04-23T07:57:02.666Z</time></trkpt><trkpt lat="39.8594502" lon="9.0364044"><ele>446.49999999999994</ele><time>2026-04-23T07:57:03.673Z</time></trkpt><trkpt lat="39.8593733" lon="9.0363571"><ele>446.0</ele><time>2026-04-23T07:57:04.673Z</time></trkpt><trkpt lat="39.8592971" lon="9.0362868"><ele>441.99999999999994</ele><time>2026-04-23T07:57:05.67Z</time></trkpt><trkpt lat="39.8592385" lon="9.0362014"><ele>438.0</ele><time>2026-04-23T07:57:06.673Z</time></trkpt><trkpt lat="39.8592123" lon="9.0361021"><ele>434.0</ele><time>2026-04-23T07:57:07.677Z</time></trkpt><trkpt lat="39.8591991" lon="9.035982"><ele>430.0</ele><time>2026-04-23T07:57:08.684Z</time></trkpt><trkpt lat="39.8591918" lon="9.03586"><ele>425.99999999999994</ele><time>2026-04-23T07:57:09.684Z</time></trkpt><trkpt lat="39.8591888" lon="9.0357572"><ele>422.0</ele><time>2026-04-23T07:57:10.689Z</time></trkpt><trkpt lat="39.8592076" lon="9.0356394"><ele>420.0</ele><time>2026-04-23T07:57:11.682Z</time></trkpt><trkpt lat="39.85925" lon="9.0355341"><ele>418.0</ele><time>2026-04-23T07:57:12.682Z</time></trkpt><trkpt lat="39.8593133" lon="9.0354411"><ele>416.0</ele><time>2026-04-23T07:57:13.684Z</time></trkpt><trkpt lat="39.8593999" lon="9.035372"><ele>414.0</ele><time>2026-04-23T07:57:14.674Z</time></trkpt><trkpt lat="39.8595034" lon="9.0353095"><ele>412.0</ele><time>2026-04-23T07:57:15.668Z</time></trkpt><trkpt lat="39.8596149" lon="9.0352488"><ele>413.6</ele><time>2026-04-23T07:57:16.663Z</time></trkpt><trkpt lat="39.8597144" lon="9.0351724"><ele>415.20000000000005</ele><time>2026-04-23T07:57:17.691Z</time></trkpt><trkpt lat="39.8597829" lon="9.0350671"><ele>416.8</ele><time>2026-04-23T07:57:18.673Z</time></trkpt><trkpt lat="39.8598268" lon="9.034941"><ele>418.4</ele><time>2026-04-23T07:57:19.667Z</time></trkpt><trkpt lat="39.8598585" lon="9.0348168"><ele>420.0</ele><time>2026-04-23T07:57:20.663Z</time></trkpt><trkpt lat="39.8598696" lon="9.0346878"><ele>420.0</ele><time>2026-04-23T07:57:21.669Z</time></trkpt><trkpt lat="39.8598493" lon="9.0345614"><ele>420.0</ele><time>2026-04-23T07:57:22.661Z</time></trkpt><trkpt lat="39.8598111" lon="9.0344438"><ele>420.0</ele><time>2026-04-23T07:57:23.667Z</time></trkpt><trkpt lat="39.8597716" lon="9.0343415"><ele>420.0</ele><time>2026-04-23T07:57:24.683Z</time></trkpt><trkpt lat="39.8597623" lon="9.0342386"><ele>420.0</ele><time>2026-04-23T07:57:25.68Z</time></trkpt><trkpt lat="39.8597693" lon="9.0341343"><ele>420.0</ele><time>2026-04-23T07:57:26.682Z</time></trkpt><trkpt lat="39.8597913" lon="9.0340236"><ele>419.2</ele><time>2026-04-23T07:57:27.677Z</time></trkpt><trkpt lat="39.8598287" lon="9.0339207"><ele>418.4</ele><time>2026-04-23T07:57:28.679Z</time></trkpt><trkpt lat="39.8599004" lon="9.033828"><ele>417.6</ele><time>2026-04-23T07:57:29.667Z</time></trkpt><trkpt lat="39.8599884" lon="9.0337494"><ele>416.8</ele><time>2026-04-23T07:57:30.671Z</time></trkpt><trkpt lat="39.8600896" lon="9.0336774"><ele>416.0</ele><time>2026-04-23T07:57:31.663Z</time></trkpt><trkpt lat="39.8601897" lon="9.0336115"><ele>416.0</ele><time>2026-04-23T07:57:32.669Z</time></trkpt><trkpt lat="39.8602914" lon="9.0335549"><ele>416.0</ele><time>2026-04-23T07:57:33.673Z</time></trkpt><trkpt lat="39.8603854" lon="9.0335117"><ele>416.0</ele><time>2026-04-23T07:57:34.671Z</time></trkpt><trkpt lat="39.8604873" lon="9.0334764"><ele>416.0</ele><time>2026-04-23T07:57:35.667Z</time></trkpt><trkpt lat="39.8605879" lon="9.0334539"><ele>416.0</ele><time>2026-04-23T07:57:36.67Z</time></trkpt><trkpt lat="39.8606812" lon="9.0334329"><ele>416.0</ele><time>2026-04-23T07:57:37.691Z</time></trkpt><trkpt lat="39.8607883" lon="9.0333735"><ele>416.0</ele><time>2026-04-23T07:57:38.698Z</time></trkpt><trkpt lat="39.860879" lon="9.0333024"><ele>416.0</ele><time>2026-04-23T07:57:39.668Z</time></trkpt><trkpt lat="39.8609446" lon="9.0332204"><ele>416.0</ele><time>2026-04-23T07:57:40.676Z</time></trkpt><trkpt lat="39.8609852" lon="9.0331219"><ele>416.0</ele><time>2026-04-23T07:57:41.665Z</time></trkpt><trkpt lat="39.8610017" lon="9.0330048"><ele>415.0</ele><time>2026-04-23T07:57:42.654Z</time></trkpt><trkpt lat="39.8609912" lon="9.0328815"><ele>414.0</ele><time>2026-04-23T07:57:43.665Z</time></trkpt><trkpt lat="39.8609324" lon="9.0327465"><ele>413.0</ele><time>2026-04-23T07:57:44.674Z</time></trkpt><trkpt lat="39.860876" lon="9.0326126"><ele>412.0</ele><time>2026-04-23T07:57:45.673Z</time></trkpt><trkpt lat="39.8608234" lon="9.0324769"><ele>411.0</ele><time>2026-04-23T07:57:46.682Z</time></trkpt><trkpt lat="39.8607914" lon="9.0323449"><ele>409.6</ele><time>2026-04-23T07:57:47.689Z</time></trkpt><trkpt lat="39.8607793" lon="9.0322038"><ele>408.20000000000005</ele><time>2026-04-23T07:57:48.68Z</time></trkpt><trkpt lat="39.8607837" lon="9.0320598"><ele>406.79999999999995</ele><time>2026-04-23T07:57:49.677Z</time></trkpt><trkpt lat="39.860783" lon="9.0319237"><ele>405.4</ele><time>2026-04-23T07:57:50.672Z</time></trkpt><trkpt lat="39.8607825" lon="9.0317902"><ele>404.0</ele><time>2026-04-23T07:57:51.669Z</time></trkpt><trkpt lat="39.8607975" lon="9.031655"><ele>404.0</ele><time>2026-04-23T07:57:52.664Z</time></trkpt><trkpt lat="39.8608374" lon="9.0315098"><ele>404.0</ele><time>2026-04-23T07:57:53.669Z</time></trkpt><trkpt lat="39.8608975" lon="9.0313676"><ele>404.0</ele><time>2026-04-23T07:57:54.67Z</time></trkpt><trkpt lat="39.8609607" lon="9.0312308"><ele>404.0</ele><time>2026-04-23T07:57:55.666Z</time></trkpt><trkpt lat="39.8610294" lon="9.0310971"><ele>404.0</ele><time>2026-04-23T07:57:56.671Z</time></trkpt><trkpt lat="39.8610943" lon="9.0309765"><ele>404.0</ele><time>2026-04-23T07:57:57.67Z</time></trkpt><trkpt lat="39.8611598" lon="9.0308699"><ele>404.0</ele><time>2026-04-23T07:57:58.669Z</time></trkpt><trkpt lat="39.8612376" lon="9.0307754"><ele>404.0</ele><time>2026-04-23T07:57:59.672Z</time></trkpt><trkpt lat="39.8613276" lon="9.0306868"><ele>404.0</ele><time>2026-04-23T07:58:00.67Z</time></trkpt><trkpt lat="39.8614255" lon="9.0306069"><ele>399.2</ele><time>2026-04-23T07:58:01.67Z</time></trkpt><trkpt lat="39.8615309" lon="9.0305387"><ele>394.4</ele><time>2026-04-23T07:58:02.671Z</time></trkpt><trkpt lat="39.8616293" lon="9.0304836"><ele>389.6</ele><time>2026-04-23T07:58:03.673Z</time></trkpt><trkpt lat="39.8617342" lon="9.0304528"><ele>384.8</ele><time>2026-04-23T07:58:04.67Z</time></trkpt><trkpt lat="39.8618471" lon="9.0304158"><ele>380.0</ele><time>2026-04-23T07:58:05.677Z</time></trkpt><trkpt lat="39.8619596" lon="9.0303839"><ele>378.8</ele><time>2026-04-23T07:58:06.674Z</time></trkpt><trkpt lat="39.8620735" lon="9.0303578"><ele>377.6</ele><time>2026-04-23T07:58:07.679Z</time></trkpt><trkpt lat="39.8621837" lon="9.0303587"><ele>376.4</ele><time>2026-04-23T07:58:08.678Z</time></trkpt><trkpt lat="39.8622979" lon="9.0303717"><ele>375.2</ele><time>2026-04-23T07:58:09.679Z</time></trkpt><trkpt lat="39.862403" lon="9.0303939"><ele>374.0</ele><time>2026-04-23T07:58:10.674Z</time></trkpt><trkpt lat="39.8625045" lon="9.0304372"><ele>374.0</ele><time>2026-04-23T07:58:11.667Z</time></trkpt><trkpt lat="39.862601" lon="9.0304872"><ele>374.0</ele><time>2026-04-23T07:58:12.67Z</time></trkpt><trkpt lat="39.8627103" lon="9.0305584"><ele>374.0</ele><time>2026-04-23T07:58:13.69Z</time></trkpt><trkpt lat="39.8628172" lon="9.0306417"><ele>374.0</ele><time>2026-04-23T07:58:14.694Z</time></trkpt><trkpt lat="39.8629198" lon="9.0307318"><ele>374.25</ele><time>2026-04-23T07:58:15.671Z</time></trkpt><trkpt lat="39.8630093" lon="9.0308292"><ele>374.5</ele><time>2026-04-23T07:58:16.668Z</time></trkpt><trkpt lat="39.8630982" lon="9.0309126"><ele>374.75</ele><time>2026-04-23T07:58:17.663Z</time></trkpt><trkpt lat="39.8632015" lon="9.0309758"><ele>375.0</ele><time>2026-04-23T07:58:18.663Z</time></trkpt><trkpt lat="39.8632998" lon="9.0310578"><ele>375.0</ele><time>2026-04-23T07:58:19.693Z</time></trkpt><trkpt lat="39.8633878" lon="9.0311458"><ele>375.0</ele><time>2026-04-23T07:58:20.699Z</time></trkpt><trkpt lat="39.8634701" lon="9.0312522"><ele>375.0</ele><time>2026-04-23T07:58:21.669Z</time></trkpt><trkpt lat="39.8635305" lon="9.0313688"><ele>375.0</ele><time>2026-04-23T07:58:22.676Z</time></trkpt><trkpt lat="39.8635775" lon="9.0315065"><ele>373.25</ele><time>2026-04-23T07:58:23.677Z</time></trkpt><trkpt lat="39.8636118" lon="9.0316513"><ele>371.5</ele><time>2026-04-23T07:58:24.672Z</time></trkpt><trkpt lat="39.8636428" lon="9.0318042"><ele>369.75</ele><time>2026-04-23T07:58:25.675Z</time></trkpt><trkpt lat="39.8636702" lon="9.0319744"><ele>368.0</ele><time>2026-04-23T07:58:26.673Z</time></trkpt><trkpt lat="39.8636966" lon="9.0321408"><ele>368.0</ele><time>2026-04-23T07:58:27.676Z</time></trkpt><trkpt lat="39.8637232" lon="9.0322958"><ele>368.0</ele><time>2026-04-23T07:58:28.664Z</time></trkpt><trkpt lat="39.8637394" lon="9.0324378"><ele>368.0</ele><time>2026-04-23T07:58:29.668Z</time></trkpt><trkpt lat="39.8637641" lon="9.0325755"><ele>368.0</ele><time>2026-04-23T07:58:30.669Z</time></trkpt><trkpt lat="39.8637831" lon="9.0327089"><ele>368.0</ele><time>2026-04-23T07:58:31.665Z</time></trkpt><trkpt lat="39.8637966" lon="9.032838"><ele>368.79999999999995</ele><time>2026-04-23T07:58:32.662Z</time></trkpt><trkpt lat="39.8637922" lon="9.0329694"><ele>369.6</ele><time>2026-04-23T07:58:33.663Z</time></trkpt><trkpt lat="39.8637828" lon="9.033099"><ele>370.4</ele><time>2026-04-23T07:58:34.664Z</time></trkpt><trkpt lat="39.8637697" lon="9.0332223"><ele>371.20000000000005</ele><time>2026-04-23T07:58:35.67Z</time></trkpt><trkpt lat="39.8637497" lon="9.0333355"><ele>372.0</ele><time>2026-04-23T07:58:36.667Z</time></trkpt><trkpt lat="39.8637372" lon="9.0334306"><ele>372.6666666666667</ele><time>2026-04-23T07:58:37.67Z</time></trkpt><trkpt lat="39.863744" lon="9.0335335"><ele>373.3333333333333</ele><time>2026-04-23T07:58:38.667Z</time></trkpt><trkpt lat="39.8637598" lon="9.0336189"><ele>374.0</ele><time>2026-04-23T07:58:39.657Z</time></trkpt><trkpt lat="39.8638378" lon="9.0337078"><ele>374.66666666666663</ele><time>2026-04-23T07:58:41.669Z</time></trkpt><trkpt lat="39.8639142" lon="9.0337137"><ele>375.3333333333333</ele><time>2026-04-23T07:58:42.679Z</time></trkpt><trkpt lat="39.8640084" lon="9.033687"><ele>376.0</ele><time>2026-04-23T07:58:43.658Z</time></trkpt><trkpt lat="39.864113" lon="9.0336565"><ele>376.0</ele><time>2026-04-23T07:58:44.66Z</time></trkpt><trkpt lat="39.8642174" lon="9.0336439"><ele>376.0</ele><time>2026-04-23T07:58:45.655Z</time></trkpt><trkpt lat="39.8643012" lon="9.0336627"><ele>376.0</ele><time>2026-04-23T07:58:46.653Z</time></trkpt><trkpt lat="39.8643784" lon="9.0337042"><ele>376.0</ele><time>2026-04-23T07:58:47.661Z</time></trkpt><trkpt lat="39.8644638" lon="9.0337722"><ele>376.0</ele><time>2026-04-23T07:58:48.656Z</time></trkpt><trkpt lat="39.8645407" lon="9.0338621"><ele>376.25</ele><time>2026-04-23T07:58:49.677Z</time></trkpt><trkpt lat="39.8646142" lon="9.0339724"><ele>376.5</ele><time>2026-04-23T07:58:50.659Z</time></trkpt><trkpt lat="39.8646913" lon="9.0340854"><ele>376.75</ele><time>2026-04-23T07:58:51.654Z</time></trkpt><trkpt lat="39.8647699" lon="9.0341911"><ele>377.0</ele><time>2026-04-23T07:58:52.655Z</time></trkpt><trkpt lat="39.8648515" lon="9.0342954"><ele>377.25</ele><time>2026-04-23T07:58:53.656Z</time></trkpt><trkpt lat="39.8649493" lon="9.034391"><ele>377.5</ele><time>2026-04-23T07:58:54.663Z</time></trkpt><trkpt lat="39.8650546" lon="9.0344767"><ele>377.75</ele><time>2026-04-23T07:58:55.68Z</time></trkpt><trkpt lat="39.8651748" lon="9.0345562"><ele>378.0</ele><time>2026-04-23T07:58:56.675Z</time></trkpt><trkpt lat="39.8652899" lon="9.0346349"><ele>378.5</ele><time>2026-04-23T07:58:57.68Z</time></trkpt><trkpt lat="39.8653889" lon="9.0347468"><ele>379.0</ele><time>2026-04-23T07:58:58.679Z</time></trkpt><trkpt lat="39.8654853" lon="9.0348709"><ele>379.5</ele><time>2026-04-23T07:58:59.652Z</time></trkpt><trkpt lat="39.8655694" lon="9.0349875"><ele>380.0</ele><time>2026-04-23T07:59:00.649Z</time></trkpt><trkpt lat="39.8656591" lon="9.0350931"><ele>380.2</ele><time>2026-04-23T07:59:01.648Z</time></trkpt><trkpt lat="39.8657492" lon="9.0351906"><ele>380.4</ele><time>2026-04-23T07:59:02.649Z</time></trkpt><trkpt lat="39.8658321" lon="9.0352827"><ele>380.6</ele><time>2026-04-23T07:59:03.651Z</time></trkpt><trkpt lat="39.8659095" lon="9.0353742"><ele>380.8</ele><time>2026-04-23T07:59:04.655Z</time></trkpt><trkpt lat="39.8659792" lon="9.035454"><ele>381.0</ele><time>2026-04-23T07:59:05.654Z</time></trkpt><trkpt lat="39.8660414" lon="9.0355263"><ele>381.8</ele><time>2026-04-23T07:59:06.659Z</time></trkpt><trkpt lat="39.8660986" lon="9.0355798"><ele>382.6</ele><time>2026-04-23T07:59:07.665Z</time></trkpt><trkpt lat="39.8662077" lon="9.035657"><ele>383.4</ele><time>2026-04-23T07:59:09.671Z</time></trkpt><trkpt lat="39.8662251" lon="9.035559"><ele>384.2</ele><time>2026-04-23T07:59:13.681Z</time></trkpt><trkpt lat="39.866222" lon="9.0354491"><ele>385.0</ele><time>2026-04-23T07:59:15.69Z</time></trkpt><trkpt lat="39.866217" lon="9.0353141"><ele>385.0</ele><time>2026-04-23T07:59:17.686Z</time></trkpt><trkpt lat="39.8661799" lon="9.0351699"><ele>385.0</ele><time>2026-04-23T07:59:19.682Z</time></trkpt><trkpt lat="39.8661038" lon="9.035056"><ele>385.0</ele><time>2026-04-23T07:59:21.689Z</time></trkpt><trkpt lat="39.866015" lon="9.0349599"><ele>385.0</ele><time>2026-04-23T07:59:23.685Z</time></trkpt><trkpt lat="39.8659704" lon="9.0349001"><ele>385.0</ele><time>2026-04-23T07:59:24.691Z</time></trkpt><trkpt lat="39.8659249" lon="9.0348367"><ele>384.1666666666667</ele><time>2026-04-23T07:59:25.692Z</time></trkpt><trkpt lat="39.8658793" lon="9.0347732"><ele>383.33333333333337</ele><time>2026-04-23T07:59:26.68Z</time></trkpt><trkpt lat="39.865828" lon="9.0347153"><ele>382.5</ele><time>2026-04-23T07:59:27.685Z</time></trkpt><trkpt lat="39.8657338" lon="9.0346232"><ele>381.6666666666667</ele><time>2026-04-23T07:59:29.687Z</time></trkpt><trkpt lat="39.8656393" lon="9.0345387"><ele>380.83333333333337</ele><time>2026-04-23T07:59:31.685Z</time></trkpt><trkpt lat="39.8655985" lon="9.0344751"><ele>380.0</ele><time>2026-04-23T07:59:32.682Z</time></trkpt><trkpt lat="39.86556" lon="9.0344005"><ele>380.0</ele><time>2026-04-23T07:59:33.683Z</time></trkpt><trkpt lat="39.865523" lon="9.0343096"><ele>380.0</ele><time>2026-04-23T07:59:34.682Z</time></trkpt><trkpt lat="39.8654883" lon="9.0342337"><ele>380.0</ele><time>2026-04-23T07:59:35.688Z</time></trkpt><trkpt lat="39.8654472" lon="9.034153"><ele>380.0</ele><time>2026-04-23T07:59:36.676Z</time></trkpt><trkpt lat="39.8654008" lon="9.0340936"><ele>380.0</ele><time>2026-04-23T07:59:37.681Z</time></trkpt><trkpt lat="39.8653041" lon="9.034003"><ele>380.0</ele><time>2026-04-23T07:59:39.68Z</time></trkpt><trkpt lat="39.8652503" lon="9.0339584"><ele>379.5</ele><time>2026-04-23T07:59:40.688Z</time></trkpt><trkpt lat="39.8651851" lon="9.0339127"><ele>379.0</ele><time>2026-04-23T07:59:41.684Z</time></trkpt><trkpt lat="39.8651154" lon="9.0338659"><ele>378.5</ele><time>2026-04-23T07:59:42.682Z</time></trkpt><trkpt lat="39.8650466" lon="9.033817"><ele>378.0</ele><time>2026-04-23T07:59:43.674Z</time></trkpt><trkpt lat="39.8649372" lon="9.0337265"><ele>377.5</ele><time>2026-04-23T07:59:45.674Z</time></trkpt><trkpt lat="39.8648791" lon="9.0336755"><ele>377.0</ele><time>2026-04-23T07:59:46.681Z</time></trkpt><trkpt lat="39.8648236" lon="9.0336157"><ele>377.0</ele><time>2026-04-23T07:59:47.68Z</time></trkpt><trkpt lat="39.8647468" lon="9.0334834"><ele>377.0</ele><time>2026-04-23T07:59:49.686Z</time></trkpt><trkpt lat="39.8647263" lon="9.0334026"><ele>377.0</ele><time>2026-04-23T07:59:50.681Z</time></trkpt><trkpt lat="39.864707" lon="9.0333178"><ele>377.0</ele><time>2026-04-23T07:59:51.678Z</time></trkpt><trkpt lat="39.8646818" lon="9.033234"><ele>377.0</ele><time>2026-04-23T07:59:52.677Z</time></trkpt><trkpt lat="39.8646536" lon="9.0331541"><ele>377.0</ele><time>2026-04-23T07:59:53.671Z</time></trkpt><trkpt lat="39.8645979" lon="9.0330757"><ele>377.33333333333337</ele><time>2026-04-23T07:59:54.689Z</time></trkpt><trkpt lat="39.8645518" lon="9.0329971"><ele>377.6666666666667</ele><time>2026-04-23T07:59:55.662Z</time></trkpt><trkpt lat="39.8645174" lon="9.0329262"><ele>378.0</ele><time>2026-04-23T07:59:56.671Z</time></trkpt><trkpt lat="39.8644869" lon="9.0328539"><ele>378.3333333333333</ele><time>2026-04-23T07:59:57.671Z</time></trkpt><trkpt lat="39.8644597" lon="9.0327143"><ele>378.66666666666663</ele><time>2026-04-23T07:59:59.66Z</time></trkpt><trkpt lat="39.8644606" lon="9.0325482"><ele>379.0</ele><time>2026-04-23T08:00:01.674Z</time></trkpt><trkpt lat="39.8644648" lon="9.0324599"><ele>378.0</ele><time>2026-04-23T08:00:02.658Z</time></trkpt><trkpt lat="39.8644644" lon="9.0323649"><ele>377.0</ele><time>2026-04-23T08:00:03.661Z</time></trkpt><trkpt lat="39.8644555" lon="9.032275"><ele>376.0</ele><time>2026-04-23T08:00:04.66Z</time></trkpt><trkpt lat="39.8644061" lon="9.0321003"><ele>375.0</ele><time>2026-04-23T08:00:06.655Z</time></trkpt><trkpt lat="39.8643695" lon="9.0320182"><ele>374.0</ele><time>2026-04-23T08:00:07.659Z</time></trkpt><trkpt lat="39.8643134" lon="9.0318874"><ele>374.0</ele><time>2026-04-23T08:00:09.66Z</time></trkpt><trkpt lat="39.8643006" lon="9.0317639"><ele>374.0</ele><time>2026-04-23T08:00:11.666Z</time></trkpt><trkpt lat="39.8643145" lon="9.0316765"><ele>374.0</ele><time>2026-04-23T08:00:13.662Z</time></trkpt><trkpt lat="39.8643767" lon="9.0315967"><ele>374.0</ele><time>2026-04-23T08:00:31.669Z</time></trkpt><trkpt lat="39.8644027" lon="9.0314572"><ele>374.0</ele><time>2026-04-23T08:00:33.678Z</time></trkpt><trkpt lat="39.8644015" lon="9.0313451"><ele>374.0</ele><time>2026-04-23T08:00:35.67Z</time></trkpt><trkpt lat="39.8643656" lon="9.0312442"><ele>373.1666666666667</ele><time>2026-04-23T08:00:37.674Z</time></trkpt><trkpt lat="39.8643247" lon="9.0311312"><ele>372.33333333333337</ele><time>2026-04-23T08:00:39.665Z</time></trkpt><trkpt lat="39.864215" lon="9.0310286"><ele>371.5</ele><time>2026-04-23T08:00:41.669Z</time></trkpt><trkpt lat="39.8641594" lon="9.0309853"><ele>370.6666666666667</ele><time>2026-04-23T08:00:42.665Z</time></trkpt><trkpt lat="39.8641031" lon="9.0309441"><ele>369.8333333333333</ele><time>2026-04-23T08:00:43.661Z</time></trkpt><trkpt lat="39.8640478" lon="9.0309018"><ele>369.0</ele><time>2026-04-23T08:00:44.658Z</time></trkpt><trkpt lat="39.864" lon="9.0308476"><ele>370.5</ele><time>2026-04-23T08:00:45.662Z</time></trkpt><trkpt lat="39.8639539" lon="9.0306888"><ele>372.0</ele><time>2026-04-23T08:00:47.662Z</time></trkpt><trkpt lat="39.8639245" lon="9.0305911"><ele>373.5</ele><time>2026-04-23T08:00:48.681Z</time></trkpt><trkpt lat="39.8638871" lon="9.0304994"><ele>375.0</ele><time>2026-04-23T08:00:49.669Z</time></trkpt><trkpt lat="39.8638426" lon="9.0304227"><ele>376.5</ele><time>2026-04-23T08:00:50.672Z</time></trkpt><trkpt lat="39.8637987" lon="9.0303526"><ele>378.0</ele><time>2026-04-23T08:00:51.67Z</time></trkpt><trkpt lat="39.8637555" lon="9.0302768"><ele>378.0</ele><time>2026-04-23T08:00:52.678Z</time></trkpt><trkpt lat="39.8637185" lon="9.0302092"><ele>378.0</ele><time>2026-04-23T08:00:53.665Z</time></trkpt><trkpt lat="39.8636432" lon="9.0300953"><ele>378.0</ele><time>2026-04-23T08:00:55.669Z</time></trkpt><trkpt lat="39.8635367" lon="9.0299967"><ele>378.0</ele><time>2026-04-23T08:00:57.656Z</time></trkpt><trkpt lat="39.8634658" lon="9.0299604"><ele>378.0</ele><time>2026-04-23T08:00:58.663Z</time></trkpt><trkpt lat="39.8634017" lon="9.0299232"><ele>376.2857142857143</ele><time>2026-04-23T08:00:59.671Z</time></trkpt><trkpt lat="39.8633405" lon="9.0298868"><ele>374.57142857142856</ele><time>2026-04-23T08:01:00.671Z</time></trkpt><trkpt lat="39.8632757" lon="9.0298437"><ele>372.8571428571429</ele><time>2026-04-23T08:01:01.667Z</time></trkpt><trkpt lat="39.8632148" lon="9.0297815"><ele>371.1428571428571</ele><time>2026-04-23T08:01:02.66Z</time></trkpt><trkpt lat="39.8631656" lon="9.0297102"><ele>369.42857142857144</ele><time>2026-04-23T08:01:03.666Z</time></trkpt><trkpt lat="39.8631234" lon="9.0296269"><ele>367.7142857142857</ele><time>2026-04-23T08:01:04.667Z</time></trkpt><trkpt lat="39.8630998" lon="9.0295463"><ele>366.0</ele><time>2026-04-23T08:01:05.668Z</time></trkpt><trkpt lat="39.8630801" lon="9.0294676"><ele>366.0</ele><time>2026-04-23T08:01:06.675Z</time></trkpt><trkpt lat="39.8629893" lon="9.0293635"><ele>366.0</ele><time>2026-04-23T08:01:08.67Z</time></trkpt><trkpt lat="39.8629249" lon="9.0293246"><ele>366.0</ele><time>2026-04-23T08:01:09.668Z</time></trkpt><trkpt lat="39.8628629" lon="9.0293042"><ele>366.0</ele><time>2026-04-23T08:01:10.668Z</time></trkpt><trkpt lat="39.8627962" lon="9.0292912"><ele>366.0</ele><time>2026-04-23T08:01:11.667Z</time></trkpt><trkpt lat="39.8627318" lon="9.0292775"><ele>366.0</ele><time>2026-04-23T08:01:12.658Z</time></trkpt><trkpt lat="39.8626203" lon="9.0292219"><ele>366.0</ele><time>2026-04-23T08:01:14.664Z</time></trkpt><trkpt lat="39.8625683" lon="9.029169"><ele>366.0</ele><time>2026-04-23T08:01:15.663Z</time></trkpt><trkpt lat="39.8625217" lon="9.0291058"><ele>366.0</ele><time>2026-04-23T08:01:16.68Z</time></trkpt><trkpt lat="39.8624784" lon="9.0289625"><ele>366.0</ele><time>2026-04-23T08:01:18.67Z</time></trkpt><trkpt lat="39.8624478" lon="9.0288362"><ele>366.0</ele><time>2026-04-23T08:01:20.663Z</time></trkpt><trkpt lat="39.8623839" lon="9.0287253"><ele>366.0</ele><time>2026-04-23T08:01:22.655Z</time></trkpt><trkpt lat="39.8623292" lon="9.0286803"><ele>366.0</ele><time>2026-04-23T08:01:23.659Z</time></trkpt><trkpt lat="39.8622711" lon="9.0286479"><ele>366.0</ele><time>2026-04-23T08:01:24.653Z</time></trkpt><trkpt lat="39.8622002" lon="9.0286232"><ele>366.0</ele><time>2026-04-23T08:01:25.665Z</time></trkpt><trkpt lat="39.8621183" lon="9.0286075"><ele>366.0</ele><time>2026-04-23T08:01:26.671Z</time></trkpt><trkpt lat="39.86203" lon="9.0285938"><ele>366.0</ele><time>2026-04-23T08:01:27.657Z</time></trkpt><trkpt lat="39.8619511" lon="9.0285899"><ele>366.0</ele><time>2026-04-23T08:01:28.656Z</time></trkpt><trkpt lat="39.8618648" lon="9.0285933"><ele>366.0</ele><time>2026-04-23T08:01:29.654Z</time></trkpt><trkpt lat="39.8617911" lon="9.0285917"><ele>366.0</ele><time>2026-04-23T08:01:30.662Z</time></trkpt><trkpt lat="39.8617288" lon="9.0285717"><ele>366.0</ele><time>2026-04-23T08:01:31.655Z</time></trkpt><trkpt lat="39.8616672" lon="9.0285445"><ele>366.0</ele><time>2026-04-23T08:01:32.655Z</time></trkpt><trkpt lat="39.8616127" lon="9.0284984"><ele>366.0</ele><time>2026-04-23T08:01:33.662Z</time></trkpt><trkpt lat="39.8615327" lon="9.0284282"><ele>365.6666666666667</ele><time>2026-04-23T08:01:35.661Z</time></trkpt><trkpt lat="39.8614574" lon="9.0283247"><ele>365.3333333333333</ele><time>2026-04-23T08:01:37.661Z</time></trkpt><trkpt lat="39.8614124" lon="9.0282667"><ele>365.0</ele><time>2026-04-23T08:01:38.653Z</time></trkpt><trkpt lat="39.8613479" lon="9.028211"><ele>364.66666666666663</ele><time>2026-04-23T08:01:39.655Z</time></trkpt><trkpt lat="39.8612707" lon="9.0281596"><ele>364.3333333333333</ele><time>2026-04-23T08:01:40.653Z</time></trkpt><trkpt lat="39.861207" lon="9.0281231"><ele>364.0</ele><time>2026-04-23T08:01:41.661Z</time></trkpt><trkpt lat="39.8611341" lon="9.0280199"><ele>364.0</ele><time>2026-04-23T08:01:43.655Z</time></trkpt><trkpt lat="39.8610688" lon="9.0278923"><ele>364.0</ele><time>2026-04-23T08:01:45.654Z</time></trkpt><trkpt lat="39.8610489" lon="9.0278139"><ele>364.0</ele><time>2026-04-23T08:01:46.662Z</time></trkpt><trkpt lat="39.8610399" lon="9.0277307"><ele>364.0</ele><time>2026-04-23T08:01:47.65Z</time></trkpt><trkpt lat="39.8610472" lon="9.027638"><ele>364.0</ele><time>2026-04-23T08:01:48.646Z</time></trkpt><trkpt lat="39.8610646" lon="9.0275416"><ele>364.0</ele><time>2026-04-23T08:01:49.651Z</time></trkpt><trkpt lat="39.8610977" lon="9.0274402"><ele>364.2</ele><time>2026-04-23T08:01:50.651Z</time></trkpt><trkpt lat="39.8611253" lon="9.0273422"><ele>364.4</ele><time>2026-04-23T08:01:51.647Z</time></trkpt><trkpt lat="39.8611398" lon="9.027246"><ele>364.6</ele><time>2026-04-23T08:01:52.648Z</time></trkpt><trkpt lat="39.8611418" lon="9.0271047"><ele>364.8</ele><time>2026-04-23T08:01:54.644Z</time></trkpt><trkpt lat="39.8610907" lon="9.0269963"><ele>365.0</ele><time>2026-04-23T08:01:56.665Z</time></trkpt><trkpt lat="39.8610291" lon="9.0268451"><ele>365.0</ele><time>2026-04-23T08:01:58.654Z</time></trkpt><trkpt lat="39.8609816" lon="9.0267602"><ele>365.0</ele><time>2026-04-23T08:01:59.657Z</time></trkpt><trkpt lat="39.8609215" lon="9.0266798"><ele>365.0</ele><time>2026-04-23T08:02:00.649Z</time></trkpt><trkpt lat="39.8608611" lon="9.0266"><ele>365.0</ele><time>2026-04-23T08:02:01.656Z</time></trkpt><trkpt lat="39.8608148" lon="9.026499"><ele>365.0</ele><time>2026-04-23T08:02:02.659Z</time></trkpt><trkpt lat="39.8607724" lon="9.026405"><ele>365.0</ele><time>2026-04-23T08:02:03.662Z</time></trkpt><trkpt lat="39.860742" lon="9.0262999"><ele>362.0</ele><time>2026-04-23T08:02:04.657Z</time></trkpt><trkpt lat="39.8607116" lon="9.0261899"><ele>359.0</ele><time>2026-04-23T08:02:05.659Z</time></trkpt><trkpt lat="39.8606936" lon="9.0260686"><ele>356.0</ele><time>2026-04-23T08:02:06.672Z</time></trkpt><trkpt lat="39.8606802" lon="9.025948"><ele>353.0</ele><time>2026-04-23T08:02:07.657Z</time></trkpt><trkpt lat="39.860663" lon="9.0258358"><ele>350.0</ele><time>2026-04-23T08:02:08.666Z</time></trkpt><trkpt lat="39.8606458" lon="9.0257256"><ele>350.0</ele><time>2026-04-23T08:02:09.668Z</time></trkpt><trkpt lat="39.8606194" lon="9.0256312"><ele>350.0</ele><time>2026-04-23T08:02:10.664Z</time></trkpt><trkpt lat="39.8605875" lon="9.0255496"><ele>350.0</ele><time>2026-04-23T08:02:11.67Z</time></trkpt><trkpt lat="39.8605644" lon="9.0254635"><ele>350.0</ele><time>2026-04-23T08:02:12.665Z</time></trkpt><trkpt lat="39.8605348" lon="9.0253833"><ele>350.0</ele><time>2026-04-23T08:02:13.671Z</time></trkpt><trkpt lat="39.8605119" lon="9.0253064"><ele>350.0</ele><time>2026-04-23T08:02:14.659Z</time></trkpt><trkpt lat="39.8604952" lon="9.0251511"><ele>348.8</ele><time>2026-04-23T08:02:16.684Z</time></trkpt><trkpt lat="39.8605061" lon="9.0249782"><ele>347.6</ele><time>2026-04-23T08:02:18.666Z</time></trkpt><trkpt lat="39.8605028" lon="9.0248927"><ele>346.4</ele><time>2026-04-23T08:02:19.669Z</time></trkpt><trkpt lat="39.8604883" lon="9.0247448"><ele>345.2</ele><time>2026-04-23T08:02:21.663Z</time></trkpt><trkpt lat="39.8604783" lon="9.0246233"><ele>344.0</ele><time>2026-04-23T08:02:23.664Z</time></trkpt><trkpt lat="39.8604396" lon="9.0244554"><ele>344.0</ele><time>2026-04-23T08:02:25.666Z</time></trkpt><trkpt lat="39.8604042" lon="9.024363"><ele>344.0</ele><time>2026-04-23T08:02:26.681Z</time></trkpt><trkpt lat="39.8603758" lon="9.024271"><ele>344.0</ele><time>2026-04-23T08:02:27.669Z</time></trkpt><trkpt lat="39.8603381" lon="9.0241402"><ele>344.0</ele><time>2026-04-23T08:02:29.673Z</time></trkpt><trkpt lat="39.8603058" lon="9.0240421"><ele>344.0</ele><time>2026-04-23T08:02:31.672Z</time></trkpt><trkpt lat="39.8602879" lon="9.0239204"><ele>344.0</ele><time>2026-04-23T08:02:33.666Z</time></trkpt><trkpt lat="39.8603333" lon="9.0237671"><ele>343.4</ele><time>2026-04-23T08:02:35.655Z</time></trkpt><trkpt lat="39.8603606" lon="9.023669"><ele>342.79999999999995</ele><time>2026-04-23T08:02:36.664Z</time></trkpt><trkpt lat="39.8604201" lon="9.0235567"><ele>342.20000000000005</ele><time>2026-04-23T08:02:37.661Z</time></trkpt><trkpt lat="39.8604833" lon="9.0234373"><ele>341.6</ele><time>2026-04-23T08:02:38.667Z</time></trkpt><trkpt lat="39.8605472" lon="9.0232906"><ele>341.0</ele><time>2026-04-23T08:02:39.666Z</time></trkpt><trkpt lat="39.8606205" lon="9.0231422"><ele>341.0</ele><time>2026-04-23T08:02:40.661Z</time></trkpt><trkpt lat="39.8606828" lon="9.0229927"><ele>341.0</ele><time>2026-04-23T08:02:41.661Z</time></trkpt><trkpt lat="39.8607485" lon="9.0228509"><ele>341.0</ele><time>2026-04-23T08:02:42.664Z</time></trkpt><trkpt lat="39.8607994" lon="9.0227243"><ele>341.0</ele><time>2026-04-23T08:02:43.663Z</time></trkpt><trkpt lat="39.8608492" lon="9.0225961"><ele>341.4</ele><time>2026-04-23T08:02:44.663Z</time></trkpt><trkpt lat="39.8608941" lon="9.0224803"><ele>341.8</ele><time>2026-04-23T08:02:45.664Z</time></trkpt><trkpt lat="39.8609358" lon="9.022367"><ele>342.2</ele><time>2026-04-23T08:02:46.665Z</time></trkpt><trkpt lat="39.8609671" lon="9.022252"><ele>342.59999999999997</ele><time>2026-04-23T08:02:47.677Z</time></trkpt><trkpt lat="39.8609958" lon="9.022126"><ele>343.0</ele><time>2026-04-23T08:02:48.669Z</time></trkpt><trkpt lat="39.8610161" lon="9.0219956"><ele>341.79999999999995</ele><time>2026-04-23T08:02:49.662Z</time></trkpt><trkpt lat="39.8610145" lon="9.0218585"><ele>340.6</ele><time>2026-04-23T08:02:50.669Z</time></trkpt><trkpt lat="39.8610051" lon="9.0217202"><ele>339.4</ele><time>2026-04-23T08:02:51.656Z</time></trkpt><trkpt lat="39.8609954" lon="9.0215675"><ele>338.20000000000005</ele><time>2026-04-23T08:02:52.657Z</time></trkpt><trkpt lat="39.8609774" lon="9.021415"><ele>337.0</ele><time>2026-04-23T08:02:53.657Z</time></trkpt><trkpt lat="39.8609553" lon="9.0212543"><ele>337.0</ele><time>2026-04-23T08:02:54.661Z</time></trkpt><trkpt lat="39.8609143" lon="9.0211094"><ele>337.0</ele><time>2026-04-23T08:02:55.665Z</time></trkpt><trkpt lat="39.8608811" lon="9.020967"><ele>337.0</ele><time>2026-04-23T08:02:56.659Z</time></trkpt><trkpt lat="39.8608473" lon="9.0208467"><ele>337.0</ele><time>2026-04-23T08:02:57.67Z</time></trkpt><trkpt lat="39.8608295" lon="9.0207266"><ele>337.0</ele><time>2026-04-23T08:02:58.657Z</time></trkpt><trkpt lat="39.8608175" lon="9.0205911"><ele>335.75</ele><time>2026-04-23T08:02:59.668Z</time></trkpt><trkpt lat="39.8607916" lon="9.0204432"><ele>334.5</ele><time>2026-04-23T08:03:00.664Z</time></trkpt><trkpt lat="39.8607634" lon="9.0202967"><ele>333.25</ele><time>2026-04-23T08:03:01.669Z</time></trkpt><trkpt lat="39.8607262" lon="9.0201578"><ele>332.0</ele><time>2026-04-23T08:03:02.663Z</time></trkpt><trkpt lat="39.860674" lon="9.020005"><ele>331.75</ele><time>2026-04-23T08:03:03.665Z</time></trkpt><trkpt lat="39.8606251" lon="9.0198501"><ele>331.5</ele><time>2026-04-23T08:03:04.661Z</time></trkpt><trkpt lat="39.8605752" lon="9.0196984"><ele>331.25</ele><time>2026-04-23T08:03:05.657Z</time></trkpt><trkpt lat="39.8605254" lon="9.0195527"><ele>331.0</ele><time>2026-04-23T08:03:06.663Z</time></trkpt><trkpt lat="39.8604745" lon="9.0194167"><ele>331.0</ele><time>2026-04-23T08:03:07.673Z</time></trkpt><trkpt lat="39.8604242" lon="9.0192804"><ele>331.0</ele><time>2026-04-23T08:03:08.66Z</time></trkpt><trkpt lat="39.8603712" lon="9.0191483"><ele>331.0</ele><time>2026-04-23T08:03:09.663Z</time></trkpt><trkpt lat="39.8603197" lon="9.0190229"><ele>331.0</ele><time>2026-04-23T08:03:10.666Z</time></trkpt><trkpt lat="39.8602691" lon="9.0189013"><ele>331.0</ele><time>2026-04-23T08:03:11.667Z</time></trkpt><trkpt lat="39.8602184" lon="9.0187838"><ele>330.8</ele><time>2026-04-23T08:03:12.668Z</time></trkpt><trkpt lat="39.86017" lon="9.018658"><ele>330.6</ele><time>2026-04-23T08:03:13.666Z</time></trkpt><trkpt lat="39.8601227" lon="9.0185204"><ele>330.4</ele><time>2026-04-23T08:03:14.668Z</time></trkpt><trkpt lat="39.8600729" lon="9.0183928"><ele>330.2</ele><time>2026-04-23T08:03:15.673Z</time></trkpt><trkpt lat="39.8600257" lon="9.0182829"><ele>330.0</ele><time>2026-04-23T08:03:16.672Z</time></trkpt><trkpt lat="39.8599864" lon="9.0181728"><ele>329.4</ele><time>2026-04-23T08:03:17.686Z</time></trkpt><trkpt lat="39.8599473" lon="9.0180593"><ele>328.8</ele><time>2026-04-23T08:03:18.674Z</time></trkpt><trkpt lat="39.8599075" lon="9.0179358"><ele>328.20000000000005</ele><time>2026-04-23T08:03:19.67Z</time></trkpt><trkpt lat="39.859863" lon="9.0178152"><ele>327.6</ele><time>2026-04-23T08:03:20.671Z</time></trkpt><trkpt lat="39.8598116" lon="9.0177082"><ele>327.0</ele><time>2026-04-23T08:03:21.672Z</time></trkpt><trkpt lat="39.8597695" lon="9.0176105"><ele>327.0</ele><time>2026-04-23T08:03:22.675Z</time></trkpt><trkpt lat="39.8597295" lon="9.0175163"><ele>327.0</ele><time>2026-04-23T08:03:23.672Z</time></trkpt><trkpt lat="39.8597071" lon="9.0174167"><ele>327.0</ele><time>2026-04-23T08:03:24.678Z</time></trkpt><trkpt lat="39.8597008" lon="9.0173155"><ele>327.0</ele><time>2026-04-23T08:03:25.667Z</time></trkpt><trkpt lat="39.8597209" lon="9.0172156"><ele>327.0</ele><time>2026-04-23T08:03:26.669Z</time></trkpt><trkpt lat="39.8597763" lon="9.0171265"><ele>327.0</ele><time>2026-04-23T08:03:27.686Z</time></trkpt><trkpt lat="39.8598559" lon="9.0170515"><ele>327.0</ele><time>2026-04-23T08:03:28.674Z</time></trkpt><trkpt lat="39.859947" lon="9.0170042"><ele>327.0</ele><time>2026-04-23T08:03:29.662Z</time></trkpt><trkpt lat="39.8600333" lon="9.0169664"><ele>327.0</ele><time>2026-04-23T08:03:30.664Z</time></trkpt><trkpt lat="39.8601096" lon="9.0169298"><ele>327.0</ele><time>2026-04-23T08:03:31.666Z</time></trkpt><trkpt lat="39.8601731" lon="9.0168716"><ele>327.0</ele><time>2026-04-23T08:03:32.661Z</time></trkpt><trkpt lat="39.860228" lon="9.0168046"><ele>327.0</ele><time>2026-04-23T08:03:33.662Z</time></trkpt><trkpt lat="39.8602623" lon="9.0167242"><ele>327.40000000000003</ele><time>2026-04-23T08:03:34.655Z</time></trkpt><trkpt lat="39.8602782" lon="9.016635"><ele>327.8</ele><time>2026-04-23T08:03:35.666Z</time></trkpt><trkpt lat="39.8602517" lon="9.0165248"><ele>328.2</ele><time>2026-04-23T08:03:36.663Z</time></trkpt><trkpt lat="39.8602074" lon="9.016416"><ele>328.6</ele><time>2026-04-23T08:03:37.672Z</time></trkpt><trkpt lat="39.8601414" lon="9.0162957"><ele>329.0</ele><time>2026-04-23T08:03:38.658Z</time></trkpt><trkpt lat="39.8600888" lon="9.016174"><ele>329.0</ele><time>2026-04-23T08:03:39.669Z</time></trkpt><trkpt lat="39.860044" lon="9.0160445"><ele>329.0</ele><time>2026-04-23T08:03:40.662Z</time></trkpt><trkpt lat="39.8600275" lon="9.0159355"><ele>329.0</ele><time>2026-04-23T08:03:41.661Z</time></trkpt><trkpt lat="39.8600315" lon="9.0158243"><ele>329.0</ele><time>2026-04-23T08:03:42.663Z</time></trkpt><trkpt lat="39.8600707" lon="9.0157291"><ele>329.0</ele><time>2026-04-23T08:03:43.663Z</time></trkpt><trkpt lat="39.8601286" lon="9.0156376"><ele>332.79999999999995</ele><time>2026-04-23T08:03:44.667Z</time></trkpt><trkpt lat="39.8602122" lon="9.0155614"><ele>336.59999999999997</ele><time>2026-04-23T08:03:45.651Z</time></trkpt><trkpt lat="39.8603118" lon="9.015495"><ele>340.4</ele><time>2026-04-23T08:03:46.654Z</time></trkpt><trkpt lat="39.8603995" lon="9.0154113"><ele>344.2</ele><time>2026-04-23T08:03:47.658Z</time></trkpt><trkpt lat="39.8604803" lon="9.0153309"><ele>348.0</ele><time>2026-04-23T08:03:48.65Z</time></trkpt><trkpt lat="39.8605442" lon="9.01525"><ele>348.0</ele><time>2026-04-23T08:03:49.642Z</time></trkpt><trkpt lat="39.8606047" lon="9.0151815"><ele>348.0</ele><time>2026-04-23T08:03:50.644Z</time></trkpt><trkpt lat="39.8606273" lon="9.0150863"><ele>348.0</ele><time>2026-04-23T08:03:51.656Z</time></trkpt><trkpt lat="39.8606153" lon="9.0149811"><ele>348.0</ele><time>2026-04-23T08:03:52.651Z</time></trkpt><trkpt lat="39.8605818" lon="9.0148682"><ele>348.0</ele><time>2026-04-23T08:03:53.65Z</time></trkpt><trkpt lat="39.860514" lon="9.014746"><ele>348.0</ele><time>2026-04-23T08:03:54.66Z</time></trkpt><trkpt lat="39.8604334" lon="9.0146181"><ele>349.25</ele><time>2026-04-23T08:03:55.666Z</time></trkpt><trkpt lat="39.8603539" lon="9.014483"><ele>350.5</ele><time>2026-04-23T08:03:56.67Z</time></trkpt><trkpt lat="39.8602756" lon="9.0143539"><ele>351.75</ele><time>2026-04-23T08:03:57.677Z</time></trkpt><trkpt lat="39.8602134" lon="9.0142434"><ele>353.0</ele><time>2026-04-23T08:03:58.669Z</time></trkpt><trkpt lat="39.8601604" lon="9.0141362"><ele>353.0</ele><time>2026-04-23T08:03:59.669Z</time></trkpt><trkpt lat="39.8601229" lon="9.0140246"><ele>353.0</ele><time>2026-04-23T08:04:00.663Z</time></trkpt><trkpt lat="39.8601109" lon="9.013906"><ele>353.0</ele><time>2026-04-23T08:04:01.662Z</time></trkpt><trkpt lat="39.8601249" lon="9.0137871"><ele>353.0</ele><time>2026-04-23T08:04:02.662Z</time></trkpt><trkpt lat="39.8601624" lon="9.013673"><ele>353.0</ele><time>2026-04-23T08:04:03.654Z</time></trkpt><trkpt lat="39.860231" lon="9.0135692"><ele>353.0</ele><time>2026-04-23T08:04:04.656Z</time></trkpt><trkpt lat="39.8602961" lon="9.0134611"><ele>353.0</ele><time>2026-04-23T08:04:05.653Z</time></trkpt><trkpt lat="39.8603431" lon="9.0133708"><ele>353.0</ele><time>2026-04-23T08:04:06.658Z</time></trkpt><trkpt lat="39.8604263" lon="9.0132702"><ele>353.0</ele><time>2026-04-23T08:04:07.66Z</time></trkpt><trkpt lat="39.8605244" lon="9.0131616"><ele>353.0</ele><time>2026-04-23T08:04:08.665Z</time></trkpt><trkpt lat="39.8606301" lon="9.0130601"><ele>353.25</ele><time>2026-04-23T08:04:09.662Z</time></trkpt><trkpt lat="39.8607234" lon="9.0129678"><ele>353.5</ele><time>2026-04-23T08:04:10.657Z</time></trkpt><trkpt lat="39.8608045" lon="9.0128611"><ele>353.75</ele><time>2026-04-23T08:04:11.662Z</time></trkpt><trkpt lat="39.8608808" lon="9.0127433"><ele>354.0</ele><time>2026-04-23T08:04:12.658Z</time></trkpt><trkpt lat="39.8609585" lon="9.0126254"><ele>354.5</ele><time>2026-04-23T08:04:13.66Z</time></trkpt><trkpt lat="39.8610282" lon="9.0125003"><ele>355.0</ele><time>2026-04-23T08:04:14.659Z</time></trkpt><trkpt lat="39.8610938" lon="9.0123793"><ele>355.5</ele><time>2026-04-23T08:04:15.664Z</time></trkpt><trkpt lat="39.8611595" lon="9.0122436"><ele>356.0</ele><time>2026-04-23T08:04:16.668Z</time></trkpt><trkpt lat="39.8612175" lon="9.0121008"><ele>356.0</ele><time>2026-04-23T08:04:17.682Z</time></trkpt><trkpt lat="39.8612729" lon="9.0119472"><ele>356.0</ele><time>2026-04-23T08:04:18.671Z</time></trkpt><trkpt lat="39.8613308" lon="9.0117969"><ele>356.0</ele><time>2026-04-23T08:04:19.667Z</time></trkpt><trkpt lat="39.861393" lon="9.0116486"><ele>356.0</ele><time>2026-04-23T08:04:20.665Z</time></trkpt><trkpt lat="39.8614565" lon="9.0115002"><ele>356.5</ele><time>2026-04-23T08:04:21.672Z</time></trkpt><trkpt lat="39.8615094" lon="9.01135"><ele>357.0</ele><time>2026-04-23T08:04:22.667Z</time></trkpt><trkpt lat="39.8615655" lon="9.0111938"><ele>357.5</ele><time>2026-04-23T08:04:23.669Z</time></trkpt><trkpt lat="39.8616259" lon="9.01104"><ele>358.0</ele><time>2026-04-23T08:04:24.667Z</time></trkpt><trkpt lat="39.8616924" lon="9.0108884"><ele>356.5</ele><time>2026-04-23T08:04:25.666Z</time></trkpt><trkpt lat="39.8617639" lon="9.0107372"><ele>355.0</ele><time>2026-04-23T08:04:26.671Z</time></trkpt><trkpt lat="39.8618374" lon="9.0105925"><ele>353.5</ele><time>2026-04-23T08:04:27.68Z</time></trkpt><trkpt lat="39.8619161" lon="9.0104474"><ele>352.0</ele><time>2026-04-23T08:04:28.67Z</time></trkpt><trkpt lat="39.8619983" lon="9.0103133"><ele>355.25</ele><time>2026-04-23T08:04:29.665Z</time></trkpt><trkpt lat="39.8620778" lon="9.0101949"><ele>358.5</ele><time>2026-04-23T08:04:30.662Z</time></trkpt><trkpt lat="39.8621585" lon="9.0100794"><ele>361.75</ele><time>2026-04-23T08:04:31.669Z</time></trkpt><trkpt lat="39.8622502" lon="9.0099753"><ele>365.0</ele><time>2026-04-23T08:04:32.664Z</time></trkpt><trkpt lat="39.8623495" lon="9.0098895"><ele>365.0</ele><time>2026-04-23T08:04:33.663Z</time></trkpt><trkpt lat="39.8624457" lon="9.0097941"><ele>365.0</ele><time>2026-04-23T08:04:34.658Z</time></trkpt><trkpt lat="39.8625632" lon="9.0097345"><ele>365.0</ele><time>2026-04-23T08:04:35.662Z</time></trkpt><trkpt lat="39.8627026" lon="9.00969"><ele>365.0</ele><time>2026-04-23T08:04:36.656Z</time></trkpt><trkpt lat="39.8628313" lon="9.0096877"><ele>369.0</ele><time>2026-04-23T08:04:37.654Z</time></trkpt><trkpt lat="39.862981" lon="9.009663"><ele>373.0</ele><time>2026-04-23T08:04:38.67Z</time></trkpt><trkpt lat="39.8631189" lon="9.0096478"><ele>377.0</ele><time>2026-04-23T08:04:39.659Z</time></trkpt><trkpt lat="39.8632633" lon="9.0096544"><ele>381.0</ele><time>2026-04-23T08:04:40.656Z</time></trkpt><trkpt lat="39.863395" lon="9.0096463"><ele>383.33333333333337</ele><time>2026-04-23T08:04:41.657Z</time></trkpt><trkpt lat="39.863557" lon="9.00965"><ele>385.6666666666667</ele><time>2026-04-23T08:04:42.657Z</time></trkpt><trkpt lat="39.8637125" lon="9.0096759"><ele>388.0</ele><time>2026-04-23T08:04:43.656Z</time></trkpt><trkpt lat="39.8638697" lon="9.0096812"><ele>388.0</ele><time>2026-04-23T08:04:44.66Z</time></trkpt><trkpt lat="39.8640096" lon="9.0096845"><ele>388.0</ele><time>2026-04-23T08:04:45.658Z</time></trkpt><trkpt lat="39.8641624" lon="9.0096889"><ele>388.0</ele><time>2026-04-23T08:04:46.657Z</time></trkpt><trkpt lat="39.8642942" lon="9.0096967"><ele>388.0</ele><time>2026-04-23T08:04:47.657Z</time></trkpt><trkpt lat="39.8644297" lon="9.0097098"><ele>389.2</ele><time>2026-04-23T08:04:48.666Z</time></trkpt><trkpt lat="39.8645432" lon="9.0097154"><ele>390.4</ele><time>2026-04-23T08:04:49.657Z</time></trkpt><trkpt lat="39.8646545" lon="9.0097168"><ele>391.59999999999997</ele><time>2026-04-23T08:04:50.66Z</time></trkpt><trkpt lat="39.8647578" lon="9.0097256"><ele>392.79999999999995</ele><time>2026-04-23T08:04:51.653Z</time></trkpt><trkpt lat="39.8648514" lon="9.0097278"><ele>394.0</ele><time>2026-04-23T08:04:52.652Z</time></trkpt><trkpt lat="39.8649304" lon="9.0097199"><ele>394.0</ele><time>2026-04-23T08:04:53.653Z</time></trkpt><trkpt lat="39.8650121" lon="9.0096818"><ele>394.0</ele><time>2026-04-23T08:04:54.647Z</time></trkpt><trkpt lat="39.865098" lon="9.0095927"><ele>394.0</ele><time>2026-04-23T08:04:55.651Z</time></trkpt><trkpt lat="39.8651697" lon="9.0094917"><ele>394.0</ele><time>2026-04-23T08:04:56.654Z</time></trkpt><trkpt lat="39.8652434" lon="9.0093705"><ele>394.0</ele><time>2026-04-23T08:04:57.656Z</time></trkpt><trkpt lat="39.8653309" lon="9.0092479"><ele>393.5</ele><time>2026-04-23T08:04:58.666Z</time></trkpt><trkpt lat="39.8654331" lon="9.009125"><ele>393.0</ele><time>2026-04-23T08:04:59.656Z</time></trkpt><trkpt lat="39.8655389" lon="9.0090182"><ele>392.5</ele><time>2026-04-23T08:05:00.657Z</time></trkpt><trkpt lat="39.8656421" lon="9.0089314"><ele>392.0</ele><time>2026-04-23T08:05:01.653Z</time></trkpt><trkpt lat="39.8657608" lon="9.008876"><ele>392.0</ele><time>2026-04-23T08:05:02.657Z</time></trkpt><trkpt lat="39.8658772" lon="9.0088176"><ele>392.0</ele><time>2026-04-23T08:05:03.654Z</time></trkpt><trkpt lat="39.8659679" lon="9.0087578"><ele>392.0</ele><time>2026-04-23T08:05:04.647Z</time></trkpt><trkpt lat="39.8660913" lon="9.008708"><ele>392.0</ele><time>2026-04-23T08:05:05.654Z</time></trkpt><trkpt lat="39.8662288" lon="9.0086376"><ele>393.75</ele><time>2026-04-23T08:05:06.644Z</time></trkpt><trkpt lat="39.8663538" lon="9.0086065"><ele>395.5</ele><time>2026-04-23T08:05:07.655Z</time></trkpt><trkpt lat="39.8665043" lon="9.008587"><ele>397.25</ele><time>2026-04-23T08:05:08.668Z</time></trkpt><trkpt lat="39.8666421" lon="9.0085928"><ele>399.0</ele><time>2026-04-23T08:05:09.655Z</time></trkpt><trkpt lat="39.8667826" lon="9.0085996"><ele>400.33333333333337</ele><time>2026-04-23T08:05:10.656Z</time></trkpt><trkpt lat="39.8669312" lon="9.0086112"><ele>401.6666666666667</ele><time>2026-04-23T08:05:11.654Z</time></trkpt><trkpt lat="39.8670897" lon="9.0086111"><ele>403.0</ele><time>2026-04-23T08:05:12.653Z</time></trkpt><trkpt lat="39.8672343" lon="9.0086213"><ele>403.0</ele><time>2026-04-23T08:05:13.657Z</time></trkpt><trkpt lat="39.8673921" lon="9.0086389"><ele>403.0</ele><time>2026-04-23T08:05:14.655Z</time></trkpt><trkpt lat="39.8675521" lon="9.0086382"><ele>403.0</ele><time>2026-04-23T08:05:15.653Z</time></trkpt><trkpt lat="39.8677012" lon="9.0086607"><ele>403.6666666666667</ele><time>2026-04-23T08:05:16.662Z</time></trkpt><trkpt lat="39.8678703" lon="9.0086864"><ele>404.33333333333337</ele><time>2026-04-23T08:05:17.655Z</time></trkpt><trkpt lat="39.8680185" lon="9.0086936"><ele>405.0</ele><time>2026-04-23T08:05:18.673Z</time></trkpt><trkpt lat="39.8681621" lon="9.0086799"><ele>405.0</ele><time>2026-04-23T08:05:19.663Z</time></trkpt><trkpt lat="39.8683128" lon="9.008682"><ele>405.0</ele><time>2026-04-23T08:05:20.661Z</time></trkpt><trkpt lat="39.8684398" lon="9.0086817"><ele>405.0</ele><time>2026-04-23T08:05:21.663Z</time></trkpt><trkpt lat="39.8685424" lon="9.0086827"><ele>405.0</ele><time>2026-04-23T08:05:22.662Z</time></trkpt><trkpt lat="39.8686689" lon="9.0086709"><ele>406.75</ele><time>2026-04-23T08:05:23.658Z</time></trkpt><trkpt lat="39.868787" lon="9.0086507"><ele>408.5</ele><time>2026-04-23T08:05:24.654Z</time></trkpt><trkpt lat="39.8688861" lon="9.0086212"><ele>410.25</ele><time>2026-04-23T08:05:25.668Z</time></trkpt><trkpt lat="39.8689784" lon="9.0085307"><ele>412.0</ele><time>2026-04-23T08:05:26.657Z</time></trkpt><trkpt lat="39.8690453" lon="9.0084026"><ele>411.25</ele><time>2026-04-23T08:05:27.657Z</time></trkpt><trkpt lat="39.8691331" lon="9.0082933"><ele>410.5</ele><time>2026-04-23T08:05:28.673Z</time></trkpt><trkpt lat="39.8692192" lon="9.0081819"><ele>409.75</ele><time>2026-04-23T08:05:29.665Z</time></trkpt><trkpt lat="39.8693094" lon="9.0080625"><ele>409.0</ele><time>2026-04-23T08:05:30.652Z</time></trkpt><trkpt lat="39.8693935" lon="9.0079497"><ele>408.25</ele><time>2026-04-23T08:05:31.658Z</time></trkpt><trkpt lat="39.8694819" lon="9.0078528"><ele>407.5</ele><time>2026-04-23T08:05:32.657Z</time></trkpt><trkpt lat="39.8695724" lon="9.0077615"><ele>406.75</ele><time>2026-04-23T08:05:33.657Z</time></trkpt><trkpt lat="39.8696668" lon="9.0076858"><ele>406.0</ele><time>2026-04-23T08:05:34.652Z</time></trkpt><trkpt lat="39.86977" lon="9.0076239"><ele>406.0</ele><time>2026-04-23T08:05:35.661Z</time></trkpt><trkpt lat="39.8698767" lon="9.0076039"><ele>406.0</ele><time>2026-04-23T08:05:36.662Z</time></trkpt><trkpt lat="39.8699878" lon="9.0076414"><ele>406.0</ele><time>2026-04-23T08:05:37.661Z</time></trkpt><trkpt lat="39.870095" lon="9.0076944"><ele>406.0</ele><time>2026-04-23T08:05:38.656Z</time></trkpt><trkpt lat="39.8701981" lon="9.0077378"><ele>406.0</ele><time>2026-04-23T08:05:39.66Z</time></trkpt><trkpt lat="39.8702911" lon="9.0077637"><ele>405.8</ele><time>2026-04-23T08:05:40.661Z</time></trkpt><trkpt lat="39.8703793" lon="9.007786"><ele>405.6</ele><time>2026-04-23T08:05:41.654Z</time></trkpt><trkpt lat="39.8704787" lon="9.0077847"><ele>405.4</ele><time>2026-04-23T08:05:42.662Z</time></trkpt><trkpt lat="39.8705781" lon="9.0077589"><ele>405.2</ele><time>2026-04-23T08:05:43.655Z</time></trkpt><trkpt lat="39.8706618" lon="9.0077147"><ele>405.0</ele><time>2026-04-23T08:05:44.652Z</time></trkpt><trkpt lat="39.870738" lon="9.0076616"><ele>405.0</ele><time>2026-04-23T08:05:45.652Z</time></trkpt><trkpt lat="39.8708063" lon="9.0075763"><ele>405.0</ele><time>2026-04-23T08:05:46.655Z</time></trkpt><trkpt lat="39.8708667" lon="9.0074757"><ele>405.0</ele><time>2026-04-23T08:05:47.658Z</time></trkpt><trkpt lat="39.8709436" lon="9.0073642"><ele>405.0</ele><time>2026-04-23T08:05:48.67Z</time></trkpt><trkpt lat="39.8710166" lon="9.0072627"><ele>405.0</ele><time>2026-04-23T08:05:49.66Z</time></trkpt><trkpt lat="39.8710809" lon="9.0071494"><ele>403.5</ele><time>2026-04-23T08:05:50.665Z</time></trkpt><trkpt lat="39.8711502" lon="9.0070443"><ele>402.0</ele><time>2026-04-23T08:05:51.66Z</time></trkpt><trkpt lat="39.8712265" lon="9.0069434"><ele>400.5</ele><time>2026-04-23T08:05:52.661Z</time></trkpt><trkpt lat="39.8713189" lon="9.0068442"><ele>399.0</ele><time>2026-04-23T08:05:53.662Z</time></trkpt><trkpt lat="39.8714306" lon="9.0067465"><ele>394.75</ele><time>2026-04-23T08:05:54.666Z</time></trkpt><trkpt lat="39.8715405" lon="9.0066524"><ele>390.5</ele><time>2026-04-23T08:05:55.664Z</time></trkpt><trkpt lat="39.8716379" lon="9.0065637"><ele>386.25</ele><time>2026-04-23T08:05:56.654Z</time></trkpt><trkpt lat="39.871732" lon="9.0064947"><ele>382.0</ele><time>2026-04-23T08:05:57.658Z</time></trkpt><trkpt lat="39.8718293" lon="9.0064336"><ele>382.0</ele><time>2026-04-23T08:05:58.651Z</time></trkpt><trkpt lat="39.8719356" lon="9.0063657"><ele>382.0</ele><time>2026-04-23T08:05:59.659Z</time></trkpt><trkpt lat="39.8720364" lon="9.0062919"><ele>382.0</ele><time>2026-04-23T08:06:00.646Z</time></trkpt><trkpt lat="39.8721274" lon="9.0062109"><ele>382.0</ele><time>2026-04-23T08:06:01.651Z</time></trkpt><trkpt lat="39.8722222" lon="9.006134"><ele>382.0</ele><time>2026-04-23T08:06:02.644Z</time></trkpt><trkpt lat="39.872319" lon="9.0060693"><ele>382.0</ele><time>2026-04-23T08:06:03.649Z</time></trkpt><trkpt lat="39.8724222" lon="9.0060294"><ele>382.0</ele><time>2026-04-23T08:06:04.648Z</time></trkpt><trkpt lat="39.8725199" lon="9.0059992"><ele>382.0</ele><time>2026-04-23T08:06:05.649Z</time></trkpt><trkpt lat="39.8726294" lon="9.0059916"><ele>382.0</ele><time>2026-04-23T08:06:06.64Z</time></trkpt><trkpt lat="39.872755" lon="9.0060024"><ele>380.25</ele><time>2026-04-23T08:06:07.642Z</time></trkpt><trkpt lat="39.8728849" lon="9.0060145"><ele>378.5</ele><time>2026-04-23T08:06:08.639Z</time></trkpt><trkpt lat="39.8730142" lon="9.0060259"><ele>376.75</ele><time>2026-04-23T08:06:09.639Z</time></trkpt><trkpt lat="39.8731311" lon="9.0060267"><ele>375.0</ele><time>2026-04-23T08:06:10.642Z</time></trkpt><trkpt lat="39.8732485" lon="9.006032"><ele>375.0</ele><time>2026-04-23T08:06:11.643Z</time></trkpt><trkpt lat="39.8733678" lon="9.0060367"><ele>375.0</ele><time>2026-04-23T08:06:12.643Z</time></trkpt><trkpt lat="39.8734882" lon="9.0060551"><ele>375.0</ele><time>2026-04-23T08:06:13.644Z</time></trkpt><trkpt lat="39.873617" lon="9.0060715"><ele>375.0</ele><time>2026-04-23T08:06:14.647Z</time></trkpt><trkpt lat="39.873742" lon="9.0060986"><ele>372.25</ele><time>2026-04-23T08:06:15.647Z</time></trkpt><trkpt lat="39.8738609" lon="9.0061229"><ele>369.5</ele><time>2026-04-23T08:06:16.642Z</time></trkpt><trkpt lat="39.8739812" lon="9.0061457"><ele>366.75</ele><time>2026-04-23T08:06:17.64Z</time></trkpt><trkpt lat="39.8740928" lon="9.0061643"><ele>364.0</ele><time>2026-04-23T08:06:18.638Z</time></trkpt><trkpt lat="39.8741978" lon="9.0061765"><ele>362.0</ele><time>2026-04-23T08:06:19.636Z</time></trkpt><trkpt lat="39.8743029" lon="9.0061998"><ele>360.0</ele><time>2026-04-23T08:06:20.637Z</time></trkpt><trkpt lat="39.874404" lon="9.006225"><ele>358.0</ele><time>2026-04-23T08:06:21.64Z</time></trkpt><trkpt lat="39.8745077" lon="9.006251"><ele>356.0</ele><time>2026-04-23T08:06:22.639Z</time></trkpt><trkpt lat="39.8746078" lon="9.0062958"><ele>354.0</ele><time>2026-04-23T08:06:23.644Z</time></trkpt><trkpt lat="39.8747013" lon="9.0063368"><ele>354.0</ele><time>2026-04-23T08:06:24.646Z</time></trkpt><trkpt lat="39.874792" lon="9.0063864"><ele>354.0</ele><time>2026-04-23T08:06:25.643Z</time></trkpt><trkpt lat="39.8748837" lon="9.0064384"><ele>354.0</ele><time>2026-04-23T08:06:26.643Z</time></trkpt><trkpt lat="39.8749842" lon="9.0064851"><ele>354.0</ele><time>2026-04-23T08:06:27.644Z</time></trkpt><trkpt lat="39.8750843" lon="9.0065261"><ele>354.0</ele><time>2026-04-23T08:06:28.64Z</time></trkpt><trkpt lat="39.8751827" lon="9.0065656"><ele>353.4</ele><time>2026-04-23T08:06:29.644Z</time></trkpt><trkpt lat="39.8752748" lon="9.0066035"><ele>352.79999999999995</ele><time>2026-04-23T08:06:30.639Z</time></trkpt><trkpt lat="39.8753615" lon="9.0066673"><ele>352.20000000000005</ele><time>2026-04-23T08:06:31.638Z</time></trkpt><trkpt lat="39.8754362" lon="9.0067529"><ele>351.6</ele><time>2026-04-23T08:06:32.636Z</time></trkpt><trkpt lat="39.8754928" lon="9.0068415"><ele>351.0</ele><time>2026-04-23T08:06:33.649Z</time></trkpt><trkpt lat="39.8755255" lon="9.006942"><ele>353.8</ele><time>2026-04-23T08:06:34.643Z</time></trkpt><trkpt lat="39.8755367" lon="9.0070511"><ele>356.6</ele><time>2026-04-23T08:06:35.639Z</time></trkpt><trkpt lat="39.8755208" lon="9.0071515"><ele>359.4</ele><time>2026-04-23T08:06:36.644Z</time></trkpt><trkpt lat="39.8754684" lon="9.0072555"><ele>362.2</ele><time>2026-04-23T08:06:37.646Z</time></trkpt><trkpt lat="39.8753974" lon="9.0073526"><ele>365.0</ele><time>2026-04-23T08:06:38.647Z</time></trkpt><trkpt lat="39.8753189" lon="9.007448"><ele>361.5</ele><time>2026-04-23T08:06:39.643Z</time></trkpt><trkpt lat="39.8752258" lon="9.0075624"><ele>358.0</ele><time>2026-04-23T08:06:40.641Z</time></trkpt><trkpt lat="39.875127" lon="9.0076849"><ele>354.5</ele><time>2026-04-23T08:06:41.642Z</time></trkpt><trkpt lat="39.8750346" lon="9.0078076"><ele>351.0</ele><time>2026-04-23T08:06:42.643Z</time></trkpt><trkpt lat="39.8749465" lon="9.0079067"><ele>354.0</ele><time>2026-04-23T08:06:43.643Z</time></trkpt><trkpt lat="39.8748595" lon="9.0080063"><ele>357.0</ele><time>2026-04-23T08:06:44.646Z</time></trkpt><trkpt lat="39.8747691" lon="9.0081044"><ele>360.0</ele><time>2026-04-23T08:06:45.639Z</time></trkpt><trkpt lat="39.874687" lon="9.0081936"><ele>363.0</ele><time>2026-04-23T08:06:46.64Z</time></trkpt><trkpt lat="39.8746097" lon="9.0082835"><ele>366.0</ele><time>2026-04-23T08:06:47.642Z</time></trkpt><trkpt lat="39.8745285" lon="9.0083719"><ele>366.0</ele><time>2026-04-23T08:06:48.643Z</time></trkpt><trkpt lat="39.8744502" lon="9.0084509"><ele>366.0</ele><time>2026-04-23T08:06:49.647Z</time></trkpt><trkpt lat="39.8743955" lon="9.008527"><ele>366.0</ele><time>2026-04-23T08:06:50.642Z</time></trkpt><trkpt lat="39.8743596" lon="9.008599"><ele>366.0</ele><time>2026-04-23T08:06:51.641Z</time></trkpt><trkpt lat="39.8743" lon="9.0087465"><ele>366.0</ele><time>2026-04-23T08:06:53.634Z</time></trkpt><trkpt lat="39.8743468" lon="9.0088857"><ele>366.0</ele><time>2026-04-23T08:06:55.645Z</time></trkpt><trkpt lat="39.8744381" lon="9.0089277"><ele>366.0</ele><time>2026-04-23T08:06:56.643Z</time></trkpt><trkpt lat="39.8745659" lon="9.0089492"><ele>366.0</ele><time>2026-04-23T08:06:57.639Z</time></trkpt><trkpt lat="39.8747111" lon="9.008953"><ele>366.0</ele><time>2026-04-23T08:06:58.641Z</time></trkpt><trkpt lat="39.8748538" lon="9.0089186"><ele>366.0</ele><time>2026-04-23T08:06:59.633Z</time></trkpt><trkpt lat="39.8749897" lon="9.0088495"><ele>366.0</ele><time>2026-04-23T08:07:00.631Z</time></trkpt><trkpt lat="39.8751175" lon="9.0087816"><ele>366.0</ele><time>2026-04-23T08:07:01.638Z</time></trkpt><trkpt lat="39.875242" lon="9.0087218"><ele>366.0</ele><time>2026-04-23T08:07:02.644Z</time></trkpt><trkpt lat="39.875348" lon="9.0086755"><ele>364.0</ele><time>2026-04-23T08:07:03.645Z</time></trkpt><trkpt lat="39.875463" lon="9.0086284"><ele>362.0</ele><time>2026-04-23T08:07:04.648Z</time></trkpt><trkpt lat="39.875569" lon="9.0085906"><ele>360.0</ele><time>2026-04-23T08:07:05.642Z</time></trkpt><trkpt lat="39.875688" lon="9.0085678"><ele>358.0</ele><time>2026-04-23T08:07:06.635Z</time></trkpt><trkpt lat="39.8757885" lon="9.0085646"><ele>358.0</ele><time>2026-04-23T08:07:07.636Z</time></trkpt><trkpt lat="39.8758877" lon="9.0085799"><ele>358.0</ele><time>2026-04-23T08:07:08.643Z</time></trkpt><trkpt lat="39.8759884" lon="9.0085746"><ele>358.0</ele><time>2026-04-23T08:07:09.642Z</time></trkpt><trkpt lat="39.8760943" lon="9.0085575"><ele>358.0</ele><time>2026-04-23T08:07:10.638Z</time></trkpt><trkpt lat="39.8761939" lon="9.0085251"><ele>358.0</ele><time>2026-04-23T08:07:11.634Z</time></trkpt><trkpt lat="39.8762891" lon="9.0084687"><ele>357.59999999999997</ele><time>2026-04-23T08:07:12.642Z</time></trkpt><trkpt lat="39.876382" lon="9.0084221"><ele>357.2</ele><time>2026-04-23T08:07:13.64Z</time></trkpt><trkpt lat="39.8764684" lon="9.0083802"><ele>356.8</ele><time>2026-04-23T08:07:14.641Z</time></trkpt><trkpt lat="39.8765647" lon="9.0083527"><ele>356.4</ele><time>2026-04-23T08:07:15.638Z</time></trkpt><trkpt lat="39.8766552" lon="9.0083238"><ele>356.0</ele><time>2026-04-23T08:07:16.638Z</time></trkpt><trkpt lat="39.8767515" lon="9.0082988"><ele>350.0</ele><time>2026-04-23T08:07:17.645Z</time></trkpt><trkpt lat="39.8768493" lon="9.008274"><ele>344.0</ele><time>2026-04-23T08:07:18.642Z</time></trkpt><trkpt lat="39.8769512" lon="9.0082346"><ele>338.0</ele><time>2026-04-23T08:07:19.647Z</time></trkpt><trkpt lat="39.8770563" lon="9.0081995"><ele>332.0</ele><time>2026-04-23T08:07:20.642Z</time></trkpt><trkpt lat="39.8771676" lon="9.0081534"><ele>326.0</ele><time>2026-04-23T08:07:21.648Z</time></trkpt><trkpt lat="39.8772745" lon="9.0081145"><ele>326.0</ele><time>2026-04-23T08:07:22.641Z</time></trkpt><trkpt lat="39.8773774" lon="9.0080789"><ele>326.0</ele><time>2026-04-23T08:07:23.642Z</time></trkpt><trkpt lat="39.8774695" lon="9.0080518"><ele>326.0</ele><time>2026-04-23T08:07:24.641Z</time></trkpt><trkpt lat="39.8775635" lon="9.0080289"><ele>326.0</ele><time>2026-04-23T08:07:25.642Z</time></trkpt><trkpt lat="39.8776579" lon="9.0080188"><ele>326.0</ele><time>2026-04-23T08:07:26.642Z</time></trkpt><trkpt lat="39.8777462" lon="9.0080303"><ele>325.83333333333337</ele><time>2026-04-23T08:07:27.646Z</time></trkpt><trkpt lat="39.8778122" lon="9.0080694"><ele>325.6666666666667</ele><time>2026-04-23T08:07:28.643Z</time></trkpt><trkpt lat="39.8778781" lon="9.0081348"><ele>325.5</ele><time>2026-04-23T08:07:29.655Z</time></trkpt><trkpt lat="39.8779145" lon="9.0082299"><ele>325.3333333333333</ele><time>2026-04-23T08:07:30.65Z</time></trkpt><trkpt lat="39.877929" lon="9.0083422"><ele>325.16666666666663</ele><time>2026-04-23T08:07:31.644Z</time></trkpt><trkpt lat="39.8779164" lon="9.0084684"><ele>325.0</ele><time>2026-04-23T08:07:32.649Z</time></trkpt><trkpt lat="39.877938" lon="9.008565"><ele>325.0</ele><time>2026-04-23T08:07:33.646Z</time></trkpt><trkpt lat="39.8779883" lon="9.0086468"><ele>325.0</ele><time>2026-04-23T08:07:34.635Z</time></trkpt><trkpt lat="39.8780439" lon="9.0087252"><ele>325.0</ele><time>2026-04-23T08:07:35.639Z</time></trkpt><trkpt lat="39.8781005" lon="9.0088078"><ele>325.0</ele><time>2026-04-23T08:07:36.638Z</time></trkpt><trkpt lat="39.8781689" lon="9.0088765"><ele>325.0</ele><time>2026-04-23T08:07:37.632Z</time></trkpt><trkpt lat="39.8782451" lon="9.0089176"><ele>325.0</ele><time>2026-04-23T08:07:38.634Z</time></trkpt><trkpt lat="39.8783073" lon="9.0089644"><ele>325.0</ele><time>2026-04-23T08:07:39.637Z</time></trkpt><trkpt lat="39.8783758" lon="9.0089995"><ele>325.0</ele><time>2026-04-23T08:07:40.646Z</time></trkpt><trkpt lat="39.8784499" lon="9.0090363"><ele>325.0</ele><time>2026-04-23T08:07:41.633Z</time></trkpt><trkpt lat="39.8785271" lon="9.0091038"><ele>325.0</ele><time>2026-04-23T08:07:42.635Z</time></trkpt><trkpt lat="39.8785907" lon="9.0092051"><ele>325.0</ele><time>2026-04-23T08:07:43.63Z</time></trkpt><trkpt lat="39.8786382" lon="9.0093209"><ele>325.0</ele><time>2026-04-23T08:07:44.636Z</time></trkpt><trkpt lat="39.8786854" lon="9.0094326"><ele>321.0</ele><time>2026-04-23T08:07:45.646Z</time></trkpt><trkpt lat="39.8787349" lon="9.0095371"><ele>317.0</ele><time>2026-04-23T08:07:46.638Z</time></trkpt><trkpt lat="39.878791" lon="9.0096282"><ele>313.0</ele><time>2026-04-23T08:07:47.639Z</time></trkpt><trkpt lat="39.8788477" lon="9.0097146"><ele>309.0</ele><time>2026-04-23T08:07:48.636Z</time></trkpt><trkpt lat="39.8789075" lon="9.0098042"><ele>305.0</ele><time>2026-04-23T08:07:49.635Z</time></trkpt><trkpt lat="39.8789737" lon="9.0098826"><ele>305.0</ele><time>2026-04-23T08:07:50.636Z</time></trkpt><trkpt lat="39.8790547" lon="9.0099523"><ele>305.0</ele><time>2026-04-23T08:07:51.639Z</time></trkpt><trkpt lat="39.8791451" lon="9.0100119"><ele>305.0</ele><time>2026-04-23T08:07:52.636Z</time></trkpt><trkpt lat="39.8792196" lon="9.010072"><ele>305.0</ele><time>2026-04-23T08:07:53.635Z</time></trkpt><trkpt lat="39.8793019" lon="9.0101232"><ele>305.0</ele><time>2026-04-23T08:07:54.637Z</time></trkpt><trkpt lat="39.8793971" lon="9.0101663"><ele>305.4</ele><time>2026-04-23T08:07:55.638Z</time></trkpt><trkpt lat="39.8795011" lon="9.0101869"><ele>305.8</ele><time>2026-04-23T08:07:56.638Z</time></trkpt><trkpt lat="39.8795973" lon="9.0101929"><ele>306.2</ele><time>2026-04-23T08:07:57.634Z</time></trkpt><trkpt lat="39.8796997" lon="9.0102055"><ele>306.6</ele><time>2026-04-23T08:07:58.637Z</time></trkpt><trkpt lat="39.8797985" lon="9.0102182"><ele>307.0</ele><time>2026-04-23T08:07:59.634Z</time></trkpt><trkpt lat="39.8798918" lon="9.0102392"><ele>307.0</ele><time>2026-04-23T08:08:00.633Z</time></trkpt><trkpt lat="39.8799751" lon="9.0102649"><ele>307.0</ele><time>2026-04-23T08:08:01.635Z</time></trkpt><trkpt lat="39.8800482" lon="9.0102911"><ele>307.0</ele><time>2026-04-23T08:08:02.636Z</time></trkpt><trkpt lat="39.8801165" lon="9.0103455"><ele>307.0</ele><time>2026-04-23T08:08:03.641Z</time></trkpt><trkpt lat="39.8801748" lon="9.0104266"><ele>307.0</ele><time>2026-04-23T08:08:04.642Z</time></trkpt><trkpt lat="39.8802186" lon="9.0105179"><ele>307.0</ele><time>2026-04-23T08:08:05.638Z</time></trkpt><trkpt lat="39.8802462" lon="9.0106436"><ele>304.5</ele><time>2026-04-23T08:08:06.639Z</time></trkpt><trkpt lat="39.8802698" lon="9.010791"><ele>302.0</ele><time>2026-04-23T08:08:07.641Z</time></trkpt><trkpt lat="39.880316" lon="9.0109449"><ele>299.5</ele><time>2026-04-23T08:08:08.64Z</time></trkpt><trkpt lat="39.8803532" lon="9.0110963"><ele>297.0</ele><time>2026-04-23T08:08:09.641Z</time></trkpt><trkpt lat="39.8803857" lon="9.0112393"><ele>297.0</ele><time>2026-04-23T08:08:10.64Z</time></trkpt><trkpt lat="39.8804069" lon="9.0113709"><ele>297.0</ele><time>2026-04-23T08:08:11.641Z</time></trkpt><trkpt lat="39.8804344" lon="9.0114835"><ele>297.0</ele><time>2026-04-23T08:08:12.644Z</time></trkpt><trkpt lat="39.8804534" lon="9.0115991"><ele>297.0</ele><time>2026-04-23T08:08:13.646Z</time></trkpt><trkpt lat="39.8804669" lon="9.0117139"><ele>297.0</ele><time>2026-04-23T08:08:14.644Z</time></trkpt><trkpt lat="39.880472" lon="9.0118298"><ele>296.6666666666667</ele><time>2026-04-23T08:08:15.649Z</time></trkpt><trkpt lat="39.8804781" lon="9.0119427"><ele>296.3333333333333</ele><time>2026-04-23T08:08:16.651Z</time></trkpt><trkpt lat="39.8804704" lon="9.0120524"><ele>296.0</ele><time>2026-04-23T08:08:17.648Z</time></trkpt><trkpt lat="39.880464" lon="9.0121558"><ele>295.66666666666663</ele><time>2026-04-23T08:08:18.649Z</time></trkpt><trkpt lat="39.880447" lon="9.0122677"><ele>295.3333333333333</ele><time>2026-04-23T08:08:19.65Z</time></trkpt><trkpt lat="39.8804329" lon="9.0123927"><ele>295.0</ele><time>2026-04-23T08:08:20.65Z</time></trkpt><trkpt lat="39.8804066" lon="9.0125155"><ele>294.6</ele><time>2026-04-23T08:08:21.65Z</time></trkpt><trkpt lat="39.8803903" lon="9.0126394"><ele>294.2</ele><time>2026-04-23T08:08:22.643Z</time></trkpt><trkpt lat="39.8803929" lon="9.0127607"><ele>293.8</ele><time>2026-04-23T08:08:23.642Z</time></trkpt><trkpt lat="39.8804128" lon="9.0128783"><ele>293.4</ele><time>2026-04-23T08:08:24.645Z</time></trkpt><trkpt lat="39.8804262" lon="9.0130038"><ele>293.0</ele><time>2026-04-23T08:08:25.649Z</time></trkpt><trkpt lat="39.8804393" lon="9.0131199"><ele>293.0</ele><time>2026-04-23T08:08:26.648Z</time></trkpt><trkpt lat="39.8804483" lon="9.0132331"><ele>293.0</ele><time>2026-04-23T08:08:27.649Z</time></trkpt><trkpt lat="39.8804669" lon="9.0133437"><ele>293.0</ele><time>2026-04-23T08:08:28.645Z</time></trkpt><trkpt lat="39.8804742" lon="9.0134667"><ele>293.0</ele><time>2026-04-23T08:08:29.648Z</time></trkpt><trkpt lat="39.880472" lon="9.0135706"><ele>293.0</ele><time>2026-04-23T08:08:30.639Z</time></trkpt><trkpt lat="39.8804605" lon="9.0136751"><ele>293.0</ele><time>2026-04-23T08:08:31.646Z</time></trkpt><trkpt lat="39.8804477" lon="9.0137665"><ele>292.4</ele><time>2026-04-23T08:08:32.643Z</time></trkpt><trkpt lat="39.8804429" lon="9.0138595"><ele>291.8</ele><time>2026-04-23T08:08:33.643Z</time></trkpt><trkpt lat="39.8804723" lon="9.0140045"><ele>291.2</ele><time>2026-04-23T08:08:35.636Z</time></trkpt><trkpt lat="39.8805711" lon="9.0140676"><ele>290.6</ele><time>2026-04-23T08:08:37.636Z</time></trkpt><trkpt lat="39.8806491" lon="9.0140763"><ele>290.0</ele><time>2026-04-23T08:08:38.633Z</time></trkpt><trkpt lat="39.8807511" lon="9.0140858"><ele>290.0</ele><time>2026-04-23T08:08:39.644Z</time></trkpt><trkpt lat="39.8808511" lon="9.0140773"><ele>290.0</ele><time>2026-04-23T08:08:40.662Z</time></trkpt><trkpt lat="39.8809459" lon="9.014069"><ele>290.0</ele><time>2026-04-23T08:08:41.656Z</time></trkpt><trkpt lat="39.8810399" lon="9.0140536"><ele>290.0</ele><time>2026-04-23T08:08:42.656Z</time></trkpt><trkpt lat="39.8811351" lon="9.0140341"><ele>290.0</ele><time>2026-04-23T08:08:43.657Z</time></trkpt><trkpt lat="39.8812225" lon="9.0140089"><ele>289.4</ele><time>2026-04-23T08:08:44.654Z</time></trkpt><trkpt lat="39.8813171" lon="9.0139921"><ele>288.8</ele><time>2026-04-23T08:08:45.654Z</time></trkpt><trkpt lat="39.8814158" lon="9.0139727"><ele>288.2</ele><time>2026-04-23T08:08:46.658Z</time></trkpt><trkpt lat="39.8815061" lon="9.0139526"><ele>287.6</ele><time>2026-04-23T08:08:47.652Z</time></trkpt><trkpt lat="39.8815888" lon="9.0139349"><ele>287.0</ele><time>2026-04-23T08:08:48.652Z</time></trkpt><trkpt lat="39.8816676" lon="9.0139063"><ele>287.0</ele><time>2026-04-23T08:08:49.651Z</time></trkpt><trkpt lat="39.8817504" lon="9.0138907"><ele>287.0</ele><time>2026-04-23T08:08:50.649Z</time></trkpt><trkpt lat="39.8818303" lon="9.0139082"><ele>287.0</ele><time>2026-04-23T08:08:51.654Z</time></trkpt><trkpt lat="39.8819159" lon="9.013931"><ele>287.0</ele><time>2026-04-23T08:08:52.652Z</time></trkpt><trkpt lat="39.8819966" lon="9.0139619"><ele>287.0</ele><time>2026-04-23T08:08:53.654Z</time></trkpt><trkpt lat="39.8820806" lon="9.0139917"><ele>287.0</ele><time>2026-04-23T08:08:54.657Z</time></trkpt><trkpt lat="39.8821557" lon="9.0140102"><ele>293.0</ele><time>2026-04-23T08:08:55.656Z</time></trkpt><trkpt lat="39.8822337" lon="9.0139782"><ele>299.0</ele><time>2026-04-23T08:08:56.662Z</time></trkpt><trkpt lat="39.8822994" lon="9.0139144"><ele>305.0</ele><time>2026-04-23T08:08:57.664Z</time></trkpt><trkpt lat="39.8823563" lon="9.0138237"><ele>311.0</ele><time>2026-04-23T08:08:58.659Z</time></trkpt><trkpt lat="39.882375" lon="9.0136653"><ele>317.0</ele><time>2026-04-23T08:09:00.641Z</time></trkpt><trkpt lat="39.8823484" lon="9.0135868"><ele>323.0</ele><time>2026-04-23T08:09:01.643Z</time></trkpt><trkpt lat="39.882307" lon="9.013504"><ele>323.0</ele><time>2026-04-23T08:09:02.646Z</time></trkpt><trkpt lat="39.8822481" lon="9.0134075"><ele>323.0</ele><time>2026-04-23T08:09:03.644Z</time></trkpt><trkpt lat="39.8821604" lon="9.0133046"><ele>323.0</ele><time>2026-04-23T08:09:04.645Z</time></trkpt><trkpt lat="39.8820588" lon="9.0132057"><ele>323.0</ele><time>2026-04-23T08:09:05.648Z</time></trkpt><trkpt lat="39.8819739" lon="9.0131134"><ele>319.2</ele><time>2026-04-23T08:09:06.649Z</time></trkpt><trkpt lat="39.881888" lon="9.0130418"><ele>315.4</ele><time>2026-04-23T08:09:07.657Z</time></trkpt><trkpt lat="39.881789" lon="9.0129831"><ele>311.59999999999997</ele><time>2026-04-23T08:09:08.652Z</time></trkpt><trkpt lat="39.8816979" lon="9.0129381"><ele>307.79999999999995</ele><time>2026-04-23T08:09:09.66Z</time></trkpt><trkpt lat="39.8816067" lon="9.0129147"><ele>304.0</ele><time>2026-04-23T08:09:10.66Z</time></trkpt><trkpt lat="39.8815077" lon="9.0128858"><ele>304.0</ele><time>2026-04-23T08:09:11.662Z</time></trkpt><trkpt lat="39.8814072" lon="9.0128593"><ele>304.0</ele><time>2026-04-23T08:09:12.655Z</time></trkpt><trkpt lat="39.8813216" lon="9.0128227"><ele>304.0</ele><time>2026-04-23T08:09:13.655Z</time></trkpt><trkpt lat="39.8812632" lon="9.0127744"><ele>304.0</ele><time>2026-04-23T08:09:14.656Z</time></trkpt><trkpt lat="39.8812185" lon="9.0126272"><ele>304.0</ele><time>2026-04-23T08:09:16.664Z</time></trkpt><trkpt lat="39.8812211" lon="9.0125046"><ele>305.5</ele><time>2026-04-23T08:09:17.653Z</time></trkpt><trkpt lat="39.8812522" lon="9.0123455"><ele>307.0</ele><time>2026-04-23T08:09:18.667Z</time></trkpt><trkpt lat="39.8812949" lon="9.0121569"><ele>308.5</ele><time>2026-04-23T08:09:19.661Z</time></trkpt><trkpt lat="39.8813342" lon="9.0119588"><ele>310.0</ele><time>2026-04-23T08:09:20.66Z</time></trkpt><trkpt lat="39.881374" lon="9.0117747"><ele>309.0</ele><time>2026-04-23T08:09:21.662Z</time></trkpt><trkpt lat="39.8814058" lon="9.0115846"><ele>308.0</ele><time>2026-04-23T08:09:22.655Z</time></trkpt><trkpt lat="39.8814406" lon="9.011394"><ele>307.0</ele><time>2026-04-23T08:09:23.66Z</time></trkpt><trkpt lat="39.8814269" lon="9.0112156"><ele>306.0</ele><time>2026-04-23T08:09:24.656Z</time></trkpt><trkpt lat="39.8814322" lon="9.0110355"><ele>306.0</ele><time>2026-04-23T08:09:25.654Z</time></trkpt><trkpt lat="39.8814726" lon="9.0108684"><ele>306.0</ele><time>2026-04-23T08:09:26.66Z</time></trkpt><trkpt lat="39.8814854" lon="9.0106845"><ele>306.0</ele><time>2026-04-23T08:09:27.657Z</time></trkpt><trkpt lat="39.8815047" lon="9.0105057"><ele>306.0</ele><time>2026-04-23T08:09:28.66Z</time></trkpt><trkpt lat="39.8815831" lon="9.0103681"><ele>304.0</ele><time>2026-04-23T08:09:29.657Z</time></trkpt><trkpt lat="39.8816357" lon="9.0102354"><ele>302.0</ele><time>2026-04-23T08:09:30.653Z</time></trkpt><trkpt lat="39.8816854" lon="9.0100969"><ele>300.0</ele><time>2026-04-23T08:09:31.653Z</time></trkpt><trkpt lat="39.881742" lon="9.009964"><ele>298.0</ele><time>2026-04-23T08:09:32.656Z</time></trkpt><trkpt lat="39.8818064" lon="9.0098388"><ele>304.8</ele><time>2026-04-23T08:09:33.654Z</time></trkpt><trkpt lat="39.8818708" lon="9.00971"><ele>311.6</ele><time>2026-04-23T08:09:34.659Z</time></trkpt><trkpt lat="39.8819314" lon="9.0095874"><ele>318.40000000000003</ele><time>2026-04-23T08:09:35.659Z</time></trkpt><trkpt lat="39.881984" lon="9.0094621"><ele>325.20000000000005</ele><time>2026-04-23T08:09:36.661Z</time></trkpt><trkpt lat="39.882032" lon="9.0093474"><ele>332.0</ele><time>2026-04-23T08:09:37.654Z</time></trkpt><trkpt lat="39.8820579" lon="9.0092382"><ele>334.0</ele><time>2026-04-23T08:09:38.65Z</time></trkpt><trkpt lat="39.8820694" lon="9.0091419"><ele>336.0</ele><time>2026-04-23T08:09:39.65Z</time></trkpt><trkpt lat="39.8820644" lon="9.0090445"><ele>338.0</ele><time>2026-04-23T08:09:40.653Z</time></trkpt><trkpt lat="39.8820229" lon="9.0089347"><ele>340.0</ele><time>2026-04-23T08:09:41.658Z</time></trkpt><trkpt lat="39.8819659" lon="9.0088275"><ele>342.0</ele><time>2026-04-23T08:09:42.653Z</time></trkpt><trkpt lat="39.8819012" lon="9.0087097"><ele>342.0</ele><time>2026-04-23T08:09:43.664Z</time></trkpt><trkpt lat="39.881821" lon="9.0086065"><ele>342.0</ele><time>2026-04-23T08:09:44.661Z</time></trkpt><trkpt lat="39.8817412" lon="9.008522"><ele>342.0</ele><time>2026-04-23T08:09:45.662Z</time></trkpt><trkpt lat="39.8816474" lon="9.0084437"><ele>342.0</ele><time>2026-04-23T08:09:46.668Z</time></trkpt><trkpt lat="39.8815587" lon="9.0083709"><ele>342.0</ele><time>2026-04-23T08:09:47.663Z</time></trkpt><trkpt lat="39.8814647" lon="9.0083105"><ele>341.8333333333333</ele><time>2026-04-23T08:09:48.663Z</time></trkpt><trkpt lat="39.881378" lon="9.008253"><ele>341.6666666666667</ele><time>2026-04-23T08:09:49.667Z</time></trkpt><trkpt lat="39.8812984" lon="9.0082037"><ele>341.5</ele><time>2026-04-23T08:09:50.669Z</time></trkpt><trkpt lat="39.8812413" lon="9.008163"><ele>341.33333333333337</ele><time>2026-04-23T08:09:51.668Z</time></trkpt><trkpt lat="39.8811838" lon="9.0081129"><ele>341.1666666666667</ele><time>2026-04-23T08:09:52.665Z</time></trkpt><trkpt lat="39.8811362" lon="9.0080451"><ele>341.0</ele><time>2026-04-23T08:09:53.666Z</time></trkpt><trkpt lat="39.8811167" lon="9.0079354"><ele>341.0</ele><time>2026-04-23T08:09:54.66Z</time></trkpt><trkpt lat="39.8811128" lon="9.0078033"><ele>341.0</ele><time>2026-04-23T08:09:55.668Z</time></trkpt><trkpt lat="39.8811037" lon="9.0076634"><ele>341.0</ele><time>2026-04-23T08:09:56.658Z</time></trkpt><trkpt lat="39.8811038" lon="9.0075135"><ele>341.0</ele><time>2026-04-23T08:09:57.655Z</time></trkpt><trkpt lat="39.8811165" lon="9.0073644"><ele>341.0</ele><time>2026-04-23T08:09:58.655Z</time></trkpt><trkpt lat="39.8811357" lon="9.0072216"><ele>339.25</ele><time>2026-04-23T08:09:59.662Z</time></trkpt><trkpt lat="39.8811595" lon="9.007078"><ele>337.5</ele><time>2026-04-23T08:10:00.656Z</time></trkpt><trkpt lat="39.8811862" lon="9.0069254"><ele>335.75</ele><time>2026-04-23T08:10:01.657Z</time></trkpt><trkpt lat="39.8812055" lon="9.0067764"><ele>334.0</ele><time>2026-04-23T08:10:02.663Z</time></trkpt><trkpt lat="39.8812197" lon="9.0066431"><ele>330.0</ele><time>2026-04-23T08:10:03.658Z</time></trkpt><trkpt lat="39.8812384" lon="9.0065205"><ele>326.0</ele><time>2026-04-23T08:10:04.651Z</time></trkpt><trkpt lat="39.8812497" lon="9.0063944"><ele>322.0</ele><time>2026-04-23T08:10:05.655Z</time></trkpt><trkpt lat="39.8812591" lon="9.0062698"><ele>318.0</ele><time>2026-04-23T08:10:06.657Z</time></trkpt><trkpt lat="39.881269" lon="9.0061546"><ele>314.0</ele><time>2026-04-23T08:10:07.656Z</time></trkpt><trkpt lat="39.881277" lon="9.0060457"><ele>314.0</ele><time>2026-04-23T08:10:08.653Z</time></trkpt><trkpt lat="39.8812758" lon="9.0059498"><ele>314.0</ele><time>2026-04-23T08:10:09.658Z</time></trkpt><trkpt lat="39.8812835" lon="9.0058648"><ele>314.0</ele><time>2026-04-23T08:10:10.653Z</time></trkpt><trkpt lat="39.8813524" lon="9.0057269"><ele>314.0</ele><time>2026-04-23T08:10:12.648Z</time></trkpt><trkpt lat="39.8814229" lon="9.0056904"><ele>314.0</ele><time>2026-04-23T08:10:13.662Z</time></trkpt><trkpt lat="39.8815005" lon="9.0056888"><ele>314.0</ele><time>2026-04-23T08:10:14.653Z</time></trkpt><trkpt lat="39.8815831" lon="9.0057195"><ele>313.5</ele><time>2026-04-23T08:10:15.65Z</time></trkpt><trkpt lat="39.8816891" lon="9.0057792"><ele>313.0</ele><time>2026-04-23T08:10:16.647Z</time></trkpt><trkpt lat="39.8818038" lon="9.0058446"><ele>312.5</ele><time>2026-04-23T08:10:17.64Z</time></trkpt><trkpt lat="39.8819204" lon="9.0059064"><ele>312.0</ele><time>2026-04-23T08:10:18.648Z</time></trkpt><trkpt lat="39.8820462" lon="9.0059656"><ele>312.0</ele><time>2026-04-23T08:10:19.642Z</time></trkpt><trkpt lat="39.8821855" lon="9.0060106"><ele>312.0</ele><time>2026-04-23T08:10:20.648Z</time></trkpt><trkpt lat="39.8823216" lon="9.0060452"><ele>312.0</ele><time>2026-04-23T08:10:21.648Z</time></trkpt><trkpt lat="39.8824521" lon="9.0060713"><ele>312.0</ele><time>2026-04-23T08:10:22.644Z</time></trkpt><trkpt lat="39.8825773" lon="9.0060957"><ele>311.8</ele><time>2026-04-23T08:10:23.65Z</time></trkpt><trkpt lat="39.8826902" lon="9.0061284"><ele>311.6</ele><time>2026-04-23T08:10:24.644Z</time></trkpt><trkpt lat="39.8827931" lon="9.0061736"><ele>311.40000000000003</ele><time>2026-04-23T08:10:25.649Z</time></trkpt><trkpt lat="39.8828849" lon="9.0062444"><ele>311.2</ele><time>2026-04-23T08:10:26.652Z</time></trkpt><trkpt lat="39.8829601" lon="9.0063296"><ele>311.0</ele><time>2026-04-23T08:10:27.658Z</time></trkpt><trkpt lat="39.8830123" lon="9.0064528"><ele>311.0</ele><time>2026-04-23T08:10:28.655Z</time></trkpt><trkpt lat="39.8830535" lon="9.0065886"><ele>311.0</ele><time>2026-04-23T08:10:29.645Z</time></trkpt><trkpt lat="39.8831042" lon="9.0067043"><ele>311.0</ele><time>2026-04-23T08:10:30.648Z</time></trkpt><trkpt lat="39.8831444" lon="9.0068002"><ele>311.0</ele><time>2026-04-23T08:10:31.653Z</time></trkpt><trkpt lat="39.8832346" lon="9.0069148"><ele>311.0</ele><time>2026-04-23T08:10:33.646Z</time></trkpt><trkpt lat="39.8833306" lon="9.0069389"><ele>313.8</ele><time>2026-04-23T08:10:35.641Z</time></trkpt><trkpt lat="39.883448" lon="9.0068425"><ele>316.6</ele><time>2026-04-23T08:10:37.645Z</time></trkpt><trkpt lat="39.8835239" lon="9.0067819"><ele>319.4</ele><time>2026-04-23T08:10:38.639Z</time></trkpt><trkpt lat="39.8836276" lon="9.0067554"><ele>322.2</ele><time>2026-04-23T08:10:39.637Z</time></trkpt><trkpt lat="39.8837215" lon="9.0067368"><ele>325.0</ele><time>2026-04-23T08:10:40.64Z</time></trkpt><trkpt lat="39.8838403" lon="9.0067682"><ele>325.0</ele><time>2026-04-23T08:10:41.646Z</time></trkpt><trkpt lat="39.8839524" lon="9.0068292"><ele>325.0</ele><time>2026-04-23T08:10:42.651Z</time></trkpt><trkpt lat="39.884079" lon="9.0069065"><ele>325.0</ele><time>2026-04-23T08:10:43.656Z</time></trkpt><trkpt lat="39.8841951" lon="9.0069741"><ele>325.0</ele><time>2026-04-23T08:10:44.646Z</time></trkpt><trkpt lat="39.8843164" lon="9.007051"><ele>326.2</ele><time>2026-04-23T08:10:45.655Z</time></trkpt><trkpt lat="39.8844301" lon="9.0071206"><ele>327.4</ele><time>2026-04-23T08:10:46.655Z</time></trkpt><trkpt lat="39.8845364" lon="9.007176"><ele>328.6</ele><time>2026-04-23T08:10:47.651Z</time></trkpt><trkpt lat="39.8846371" lon="9.0072208"><ele>329.8</ele><time>2026-04-23T08:10:48.649Z</time></trkpt><trkpt lat="39.8847184" lon="9.0072359"><ele>331.0</ele><time>2026-04-23T08:10:49.654Z</time></trkpt><trkpt lat="39.8847839" lon="9.0072283"><ele>331.0</ele><time>2026-04-23T08:10:50.649Z</time></trkpt><trkpt lat="39.8848646" lon="9.0072018"><ele>331.0</ele><time>2026-04-23T08:10:51.661Z</time></trkpt><trkpt lat="39.8849501" lon="9.0071235"><ele>331.0</ele><time>2026-04-23T08:10:52.643Z</time></trkpt><trkpt lat="39.8850518" lon="9.0070272"><ele>331.0</ele><time>2026-04-23T08:10:53.652Z</time></trkpt><trkpt lat="39.8851637" lon="9.0069291"><ele>331.0</ele><time>2026-04-23T08:10:54.653Z</time></trkpt><trkpt lat="39.8852788" lon="9.0068451"><ele>331.75</ele><time>2026-04-23T08:10:55.661Z</time></trkpt><trkpt lat="39.8853933" lon="9.0067787"><ele>332.5</ele><time>2026-04-23T08:10:56.653Z</time></trkpt><trkpt lat="39.8855111" lon="9.0067155"><ele>333.25</ele><time>2026-04-23T08:10:57.644Z</time></trkpt><trkpt lat="39.8856202" lon="9.0066766"><ele>334.0</ele><time>2026-04-23T08:10:58.639Z</time></trkpt><trkpt lat="39.8857272" lon="9.0066518"><ele>335.75</ele><time>2026-04-23T08:10:59.654Z</time></trkpt><trkpt lat="39.8858335" lon="9.0066627"><ele>337.5</ele><time>2026-04-23T08:11:00.649Z</time></trkpt><trkpt lat="39.8859492" lon="9.0066806"><ele>339.25</ele><time>2026-04-23T08:11:01.648Z</time></trkpt><trkpt lat="39.8860695" lon="9.0067308"><ele>341.0</ele><time>2026-04-23T08:11:02.649Z</time></trkpt><trkpt lat="39.886198" lon="9.0067985"><ele>341.0</ele><time>2026-04-23T08:11:03.655Z</time></trkpt><trkpt lat="39.8863267" lon="9.0068739"><ele>341.0</ele><time>2026-04-23T08:11:04.654Z</time></trkpt><trkpt lat="39.8864686" lon="9.0069444"><ele>341.0</ele><time>2026-04-23T08:11:05.656Z</time></trkpt><trkpt lat="39.8866351" lon="9.0070018"><ele>341.5</ele><time>2026-04-23T08:11:06.656Z</time></trkpt><trkpt lat="39.8867799" lon="9.0070361"><ele>342.0</ele><time>2026-04-23T08:11:07.657Z</time></trkpt><trkpt lat="39.8869068" lon="9.0070737"><ele>342.5</ele><time>2026-04-23T08:11:08.658Z</time></trkpt><trkpt lat="39.8870307" lon="9.0071122"><ele>343.0</ele><time>2026-04-23T08:11:09.656Z</time></trkpt><trkpt lat="39.8871054" lon="9.0072083"><ele>343.0</ele><time>2026-04-23T08:11:10.651Z</time></trkpt><trkpt lat="39.8872379" lon="9.0072652"><ele>343.0</ele><time>2026-04-23T08:11:11.656Z</time></trkpt><trkpt lat="39.8873668" lon="9.0073375"><ele>343.0</ele><time>2026-04-23T08:11:12.659Z</time></trkpt><trkpt lat="39.887465" lon="9.0074102"><ele>343.0</ele><time>2026-04-23T08:11:13.658Z</time></trkpt><trkpt lat="39.8875459" lon="9.0074843"><ele>343.8333333333333</ele><time>2026-04-23T08:11:14.655Z</time></trkpt><trkpt lat="39.8876171" lon="9.0075436"><ele>344.66666666666663</ele><time>2026-04-23T08:11:15.651Z</time></trkpt><trkpt lat="39.8876778" lon="9.0075742"><ele>345.5</ele><time>2026-04-23T08:11:16.65Z</time></trkpt><trkpt lat="39.8877458" lon="9.007588"><ele>346.3333333333333</ele><time>2026-04-23T08:11:17.653Z</time></trkpt><trkpt lat="39.8878755" lon="9.0075341"><ele>347.1666666666667</ele><time>2026-04-23T08:11:19.653Z</time></trkpt><trkpt lat="39.8879577" lon="9.0074816"><ele>348.0</ele><time>2026-04-23T08:11:20.658Z</time></trkpt><trkpt lat="39.8880469" lon="9.0074221"><ele>348.0</ele><time>2026-04-23T08:11:21.66Z</time></trkpt><trkpt lat="39.8881482" lon="9.007364"><ele>348.0</ele><time>2026-04-23T08:11:22.662Z</time></trkpt><trkpt lat="39.8882527" lon="9.0073104"><ele>348.0</ele><time>2026-04-23T08:11:23.654Z</time></trkpt><trkpt lat="39.8883727" lon="9.0072829"><ele>348.0</ele><time>2026-04-23T08:11:24.653Z</time></trkpt><trkpt lat="39.8884665" lon="9.0072737"><ele>348.0</ele><time>2026-04-23T08:11:25.654Z</time></trkpt><trkpt lat="39.8885729" lon="9.0072787"><ele>348.25</ele><time>2026-04-23T08:11:26.655Z</time></trkpt><trkpt lat="39.8886914" lon="9.0072917"><ele>348.5</ele><time>2026-04-23T08:11:27.651Z</time></trkpt><trkpt lat="39.8888165" lon="9.0073206"><ele>348.75</ele><time>2026-04-23T08:11:28.657Z</time></trkpt><trkpt lat="39.888939" lon="9.0073819"><ele>349.0</ele><time>2026-04-23T08:11:29.653Z</time></trkpt><trkpt lat="39.8890626" lon="9.0074635"><ele>351.25</ele><time>2026-04-23T08:11:30.649Z</time></trkpt><trkpt lat="39.8891825" lon="9.0075645"><ele>353.5</ele><time>2026-04-23T08:11:31.651Z</time></trkpt><trkpt lat="39.8892669" lon="9.0076843"><ele>355.75</ele><time>2026-04-23T08:11:32.643Z</time></trkpt><trkpt lat="39.8893313" lon="9.0078036"><ele>358.0</ele><time>2026-04-23T08:11:33.649Z</time></trkpt><trkpt lat="39.8893732" lon="9.0079255"><ele>358.0</ele><time>2026-04-23T08:11:34.65Z</time></trkpt><trkpt lat="39.8894008" lon="9.0080533"><ele>358.0</ele><time>2026-04-23T08:11:35.651Z</time></trkpt><trkpt lat="39.8894086" lon="9.0081971"><ele>358.0</ele><time>2026-04-23T08:11:36.647Z</time></trkpt><trkpt lat="39.889414" lon="9.0083428"><ele>358.0</ele><time>2026-04-23T08:11:37.657Z</time></trkpt><trkpt lat="39.8894157" lon="9.0084834"><ele>358.0</ele><time>2026-04-23T08:11:38.652Z</time></trkpt><trkpt lat="39.8894168" lon="9.0086108"><ele>360.79999999999995</ele><time>2026-04-23T08:11:39.648Z</time></trkpt><trkpt lat="39.8894411" lon="9.0087168"><ele>363.6</ele><time>2026-04-23T08:11:40.653Z</time></trkpt><trkpt lat="39.8894902" lon="9.0088217"><ele>366.4</ele><time>2026-04-23T08:11:41.654Z</time></trkpt><trkpt lat="39.8895544" lon="9.008912"><ele>369.20000000000005</ele><time>2026-04-23T08:11:42.652Z</time></trkpt><trkpt lat="39.8896271" lon="9.0089924"><ele>372.0</ele><time>2026-04-23T08:11:43.653Z</time></trkpt><trkpt lat="39.8897314" lon="9.0090383"><ele>372.0</ele><time>2026-04-23T08:11:44.65Z</time></trkpt><trkpt lat="39.8898536" lon="9.0090745"><ele>372.0</ele><time>2026-04-23T08:11:45.654Z</time></trkpt><trkpt lat="39.8899901" lon="9.0090911"><ele>372.0</ele><time>2026-04-23T08:11:46.655Z</time></trkpt><trkpt lat="39.8901256" lon="9.0091194"><ele>372.0</ele><time>2026-04-23T08:11:47.653Z</time></trkpt><trkpt lat="39.8902654" lon="9.0091445"><ele>372.75</ele><time>2026-04-23T08:11:48.652Z</time></trkpt><trkpt lat="39.8904065" lon="9.0091567"><ele>373.5</ele><time>2026-04-23T08:11:49.655Z</time></trkpt><trkpt lat="39.8905389" lon="9.0091595"><ele>374.25</ele><time>2026-04-23T08:11:50.653Z</time></trkpt><trkpt lat="39.8906765" lon="9.0091546"><ele>375.0</ele><time>2026-04-23T08:11:51.659Z</time></trkpt><trkpt lat="39.8908098" lon="9.0091455"><ele>376.25</ele><time>2026-04-23T08:11:52.654Z</time></trkpt><trkpt lat="39.890948" lon="9.0091439"><ele>377.5</ele><time>2026-04-23T08:11:53.663Z</time></trkpt><trkpt lat="39.8910806" lon="9.0091443"><ele>378.75</ele><time>2026-04-23T08:11:54.661Z</time></trkpt><trkpt lat="39.8912234" lon="9.0091389"><ele>380.0</ele><time>2026-04-23T08:11:55.661Z</time></trkpt><trkpt lat="39.8913715" lon="9.0091272"><ele>380.0</ele><time>2026-04-23T08:11:56.666Z</time></trkpt><trkpt lat="39.8915283" lon="9.00911"><ele>380.0</ele><time>2026-04-23T08:11:57.663Z</time></trkpt><trkpt lat="39.8916858" lon="9.0090773"><ele>380.0</ele><time>2026-04-23T08:11:58.667Z</time></trkpt><trkpt lat="39.8918226" lon="9.0090781"><ele>382.0</ele><time>2026-04-23T08:11:59.662Z</time></trkpt><trkpt lat="39.8919595" lon="9.009026"><ele>384.0</ele><time>2026-04-23T08:12:00.667Z</time></trkpt><trkpt lat="39.8920529" lon="9.0090256"><ele>386.0</ele><time>2026-04-23T08:12:01.669Z</time></trkpt><trkpt lat="39.8921637" lon="9.0089967"><ele>388.0</ele><time>2026-04-23T08:12:02.667Z</time></trkpt><trkpt lat="39.8922818" lon="9.0089541"><ele>388.0</ele><time>2026-04-23T08:12:03.667Z</time></trkpt><trkpt lat="39.8924068" lon="9.008975"><ele>388.0</ele><time>2026-04-23T08:12:04.662Z</time></trkpt><trkpt lat="39.8925237" lon="9.0089968"><ele>388.0</ele><time>2026-04-23T08:12:05.666Z</time></trkpt><trkpt lat="39.8926227" lon="9.0090292"><ele>388.0</ele><time>2026-04-23T08:12:06.658Z</time></trkpt><trkpt lat="39.892708" lon="9.0090671"><ele>388.0</ele><time>2026-04-23T08:12:07.654Z</time></trkpt><trkpt lat="39.8927967" lon="9.0091322"><ele>390.2</ele><time>2026-04-23T08:12:08.658Z</time></trkpt><trkpt lat="39.8928785" lon="9.0091855"><ele>392.4</ele><time>2026-04-23T08:12:09.655Z</time></trkpt><trkpt lat="39.8929674" lon="9.0092281"><ele>394.59999999999997</ele><time>2026-04-23T08:12:10.664Z</time></trkpt><trkpt lat="39.8930781" lon="9.0092121"><ele>396.79999999999995</ele><time>2026-04-23T08:12:11.669Z</time></trkpt><trkpt lat="39.8931824" lon="9.0091731"><ele>399.0</ele><time>2026-04-23T08:12:12.665Z</time></trkpt><trkpt lat="39.8932795" lon="9.0091235"><ele>399.0</ele><time>2026-04-23T08:12:13.658Z</time></trkpt><trkpt lat="39.8933512" lon="9.0090443"><ele>399.0</ele><time>2026-04-23T08:12:14.657Z</time></trkpt><trkpt lat="39.8934142" lon="9.0089558"><ele>399.0</ele><time>2026-04-23T08:12:15.657Z</time></trkpt><trkpt lat="39.8934722" lon="9.0088516"><ele>399.0</ele><time>2026-04-23T08:12:16.658Z</time></trkpt><trkpt lat="39.8935295" lon="9.0087627"><ele>399.0</ele><time>2026-04-23T08:12:17.652Z</time></trkpt><trkpt lat="39.8935981" lon="9.0086869"><ele>403.0</ele><time>2026-04-23T08:12:18.65Z</time></trkpt><trkpt lat="39.8936869" lon="9.0086294"><ele>407.0</ele><time>2026-04-23T08:12:19.648Z</time></trkpt><trkpt lat="39.8937969" lon="9.0086018"><ele>411.0</ele><time>2026-04-23T08:12:20.656Z</time></trkpt><trkpt lat="39.8938943" lon="9.0085812"><ele>415.0</ele><time>2026-04-23T08:12:21.658Z</time></trkpt><trkpt lat="39.8939731" lon="9.0085529"><ele>419.0</ele><time>2026-04-23T08:12:22.653Z</time></trkpt><trkpt lat="39.8940308" lon="9.0085018"><ele>421.0</ele><time>2026-04-23T08:12:23.656Z</time></trkpt><trkpt lat="39.8940846" lon="9.0083246"><ele>423.0</ele><time>2026-04-23T08:12:25.648Z</time></trkpt><trkpt lat="39.894096" lon="9.0081967"><ele>425.0</ele><time>2026-04-23T08:12:26.654Z</time></trkpt><trkpt lat="39.8940949" lon="9.0080605"><ele>427.0</ele><time>2026-04-23T08:12:27.65Z</time></trkpt><trkpt lat="39.8940654" lon="9.0079065"><ele>427.0</ele><time>2026-04-23T08:12:28.656Z</time></trkpt><trkpt lat="39.8940028" lon="9.0077389"><ele>427.0</ele><time>2026-04-23T08:12:29.662Z</time></trkpt><trkpt lat="39.8939519" lon="9.0075873"><ele>427.0</ele><time>2026-04-23T08:12:30.66Z</time></trkpt><trkpt lat="39.8939022" lon="9.0074331"><ele>427.0</ele><time>2026-04-23T08:12:31.667Z</time></trkpt><trkpt lat="39.8938558" lon="9.0072782"><ele>429.5</ele><time>2026-04-23T08:12:32.666Z</time></trkpt><trkpt lat="39.8938007" lon="9.0071282"><ele>432.0</ele><time>2026-04-23T08:12:33.666Z</time></trkpt><trkpt lat="39.8937463" lon="9.0069921"><ele>434.5</ele><time>2026-04-23T08:12:34.663Z</time></trkpt><trkpt lat="39.8937049" lon="9.0068502"><ele>437.0</ele><time>2026-04-23T08:12:35.658Z</time></trkpt><trkpt lat="39.8936801" lon="9.0066893"><ele>436.5</ele><time>2026-04-23T08:12:36.655Z</time></trkpt><trkpt lat="39.8936598" lon="9.0065161"><ele>436.0</ele><time>2026-04-23T08:12:37.655Z</time></trkpt><trkpt lat="39.893641" lon="9.0063249"><ele>435.5</ele><time>2026-04-23T08:12:38.654Z</time></trkpt><trkpt lat="39.8936095" lon="9.0061259"><ele>435.0</ele><time>2026-04-23T08:12:39.653Z</time></trkpt><trkpt lat="39.8936105" lon="9.0059136"><ele>432.0</ele><time>2026-04-23T08:12:40.641Z</time></trkpt><trkpt lat="39.8935964" lon="9.0057159"><ele>429.0</ele><time>2026-04-23T08:12:41.654Z</time></trkpt><trkpt lat="39.8936345" lon="9.005549"><ele>426.0</ele><time>2026-04-23T08:12:42.656Z</time></trkpt><trkpt lat="39.8936263" lon="9.0053945"><ele>423.0</ele><time>2026-04-23T08:12:43.661Z</time></trkpt><trkpt lat="39.8936168" lon="9.0052443"><ele>423.0</ele><time>2026-04-23T08:12:44.66Z</time></trkpt><trkpt lat="39.8936108" lon="9.005099"><ele>423.0</ele><time>2026-04-23T08:12:45.665Z</time></trkpt><trkpt lat="39.8936118" lon="9.0049604"><ele>423.0</ele><time>2026-04-23T08:12:46.666Z</time></trkpt><trkpt lat="39.893632" lon="9.0048692"><ele>423.0</ele><time>2026-04-23T08:12:47.661Z</time></trkpt><trkpt lat="39.8936923" lon="9.004805"><ele>423.0</ele><time>2026-04-23T08:12:48.655Z</time></trkpt><trkpt lat="39.8938214" lon="9.0047488"><ele>420.4</ele><time>2026-04-23T08:12:50.657Z</time></trkpt><trkpt lat="39.8939182" lon="9.0047657"><ele>417.79999999999995</ele><time>2026-04-23T08:12:51.658Z</time></trkpt><trkpt lat="39.89403" lon="9.0048081"><ele>415.2</ele><time>2026-04-23T08:12:52.649Z</time></trkpt><trkpt lat="39.894126" lon="9.0048423"><ele>412.6</ele><time>2026-04-23T08:12:53.648Z</time></trkpt><trkpt lat="39.8942241" lon="9.0048394"><ele>410.0</ele><time>2026-04-23T08:12:54.647Z</time></trkpt><trkpt lat="39.8943088" lon="9.0048054"><ele>415.6</ele><time>2026-04-23T08:12:55.649Z</time></trkpt><trkpt lat="39.8943814" lon="9.0047226"><ele>421.2</ele><time>2026-04-23T08:12:56.658Z</time></trkpt><trkpt lat="39.8944373" lon="9.0046067"><ele>426.79999999999995</ele><time>2026-04-23T08:12:57.651Z</time></trkpt><trkpt lat="39.8944782" lon="9.0044835"><ele>432.4</ele><time>2026-04-23T08:12:58.655Z</time></trkpt><trkpt lat="39.8945228" lon="9.0043383"><ele>438.0</ele><time>2026-04-23T08:12:59.661Z</time></trkpt><trkpt lat="39.8945873" lon="9.0041912"><ele>436.0</ele><time>2026-04-23T08:13:00.659Z</time></trkpt><trkpt lat="39.8946292" lon="9.004064"><ele>434.0</ele><time>2026-04-23T08:13:01.657Z</time></trkpt><trkpt lat="39.8946625" lon="9.0039236"><ele>432.0</ele><time>2026-04-23T08:13:02.658Z</time></trkpt><trkpt lat="39.8946991" lon="9.0037798"><ele>430.0</ele><time>2026-04-23T08:13:03.656Z</time></trkpt><trkpt lat="39.8947183" lon="9.0036129"><ele>430.0</ele><time>2026-04-23T08:13:04.662Z</time></trkpt><trkpt lat="39.8947312" lon="9.0034304"><ele>430.0</ele><time>2026-04-23T08:13:05.658Z</time></trkpt><trkpt lat="39.8947447" lon="9.0032426"><ele>430.0</ele><time>2026-04-23T08:13:06.661Z</time></trkpt><trkpt lat="39.894771" lon="9.0030462"><ele>430.0</ele><time>2026-04-23T08:13:07.655Z</time></trkpt><trkpt lat="39.8947848" lon="9.0028704"><ele>429.4</ele><time>2026-04-23T08:13:08.652Z</time></trkpt><trkpt lat="39.8947918" lon="9.0027188"><ele>428.8</ele><time>2026-04-23T08:13:09.657Z</time></trkpt><trkpt lat="39.894793" lon="9.0025926"><ele>428.20000000000005</ele><time>2026-04-23T08:13:10.656Z</time></trkpt><trkpt lat="39.8947567" lon="9.0024486"><ele>427.6</ele><time>2026-04-23T08:13:11.656Z</time></trkpt><trkpt lat="39.8947087" lon="9.0023283"><ele>427.0</ele><time>2026-04-23T08:13:12.657Z</time></trkpt><trkpt lat="39.8946819" lon="9.0022108"><ele>427.0</ele><time>2026-04-23T08:13:13.669Z</time></trkpt><trkpt lat="39.8946705" lon="9.0020968"><ele>427.00000000000006</ele><time>2026-04-23T08:13:14.658Z</time></trkpt><trkpt lat="39.8946842" lon="9.0019888"><ele>427.00000000000006</ele><time>2026-04-23T08:13:15.658Z</time></trkpt><trkpt lat="39.8947126" lon="9.0018573"><ele>427.0</ele><time>2026-04-23T08:13:16.666Z</time></trkpt><trkpt lat="39.8947476" lon="9.0017204"><ele>427.0</ele><time>2026-04-23T08:13:17.656Z</time></trkpt><trkpt lat="39.8947786" lon="9.0015821"><ele>427.0</ele><time>2026-04-23T08:13:18.652Z</time></trkpt><trkpt lat="39.894796" lon="9.001434"><ele>427.0</ele><time>2026-04-23T08:13:19.665Z</time></trkpt><trkpt lat="39.894798" lon="9.0012894"><ele>427.0</ele><time>2026-04-23T08:13:20.661Z</time></trkpt><trkpt lat="39.8947849" lon="9.0011326"><ele>427.0</ele><time>2026-04-23T08:13:21.671Z</time></trkpt><trkpt lat="39.8947497" lon="9.0009858"><ele>427.0</ele><time>2026-04-23T08:13:22.659Z</time></trkpt><trkpt lat="39.894707" lon="9.0008414"><ele>427.00000000000006</ele><time>2026-04-23T08:13:23.659Z</time></trkpt><trkpt lat="39.8946469" lon="9.0007203"><ele>427.00000000000006</ele><time>2026-04-23T08:13:24.669Z</time></trkpt><trkpt lat="39.894596" lon="9.0006168"><ele>427.0</ele><time>2026-04-23T08:13:25.667Z</time></trkpt><trkpt lat="39.8945386" lon="9.0005264"><ele>427.0</ele><time>2026-04-23T08:13:26.658Z</time></trkpt><trkpt lat="39.8944721" lon="9.000448"><ele>427.20000000000005</ele><time>2026-04-23T08:13:27.657Z</time></trkpt><trkpt lat="39.8943825" lon="9.0003831"><ele>427.40000000000003</ele><time>2026-04-23T08:13:28.654Z</time></trkpt><trkpt lat="39.8942986" lon="9.0003391"><ele>427.59999999999997</ele><time>2026-04-23T08:13:29.654Z</time></trkpt><trkpt lat="39.8942024" lon="9.0003131"><ele>427.79999999999995</ele><time>2026-04-23T08:13:30.654Z</time></trkpt><trkpt lat="39.8941084" lon="9.0002869"><ele>428.0</ele><time>2026-04-23T08:13:31.662Z</time></trkpt><trkpt lat="39.8940183" lon="9.0002669"><ele>425.59999999999997</ele><time>2026-04-23T08:13:32.661Z</time></trkpt><trkpt lat="39.8939897" lon="9.0001693"><ele>423.19999999999993</ele><time>2026-04-23T08:13:33.66Z</time></trkpt><trkpt lat="39.8939954" lon="9.0000462"><ele>420.8</ele><time>2026-04-23T08:13:34.653Z</time></trkpt><trkpt lat="39.8940145" lon="8.9999189"><ele>418.4</ele><time>2026-04-23T08:13:35.654Z</time></trkpt><trkpt lat="39.8940536" lon="8.9997775"><ele>416.0</ele><time>2026-04-23T08:13:36.649Z</time></trkpt><trkpt lat="39.8941086" lon="8.9996473"><ele>416.0</ele><time>2026-04-23T08:13:37.657Z</time></trkpt><trkpt lat="39.8941765" lon="8.9995207"><ele>416.0</ele><time>2026-04-23T08:13:38.661Z</time></trkpt><trkpt lat="39.894286" lon="8.9993637"><ele>416.0</ele><time>2026-04-23T08:13:39.667Z</time></trkpt><trkpt lat="39.894385" lon="8.9991898"><ele>416.0</ele><time>2026-04-23T08:13:40.665Z</time></trkpt><trkpt lat="39.8944764" lon="8.9990369"><ele>417.25</ele><time>2026-04-23T08:13:41.664Z</time></trkpt><trkpt lat="39.8945612" lon="8.9988885"><ele>418.5</ele><time>2026-04-23T08:13:42.658Z</time></trkpt><trkpt lat="39.8946308" lon="8.9987314"><ele>419.75</ele><time>2026-04-23T08:13:43.668Z</time></trkpt><trkpt lat="39.8946875" lon="8.9985831"><ele>421.0</ele><time>2026-04-23T08:13:44.661Z</time></trkpt><trkpt lat="39.8947285" lon="8.9984231"><ele>420.0</ele><time>2026-04-23T08:13:45.66Z</time></trkpt><trkpt lat="39.8947596" lon="8.9982521"><ele>419.0</ele><time>2026-04-23T08:13:46.665Z</time></trkpt><trkpt lat="39.8947721" lon="8.998077"><ele>418.0</ele><time>2026-04-23T08:13:47.665Z</time></trkpt><trkpt lat="39.8947717" lon="8.9979075"><ele>417.0</ele><time>2026-04-23T08:13:48.661Z</time></trkpt><trkpt lat="39.8947876" lon="8.9977696"><ele>417.0</ele><time>2026-04-23T08:13:49.666Z</time></trkpt><trkpt lat="39.8947999" lon="8.9976499"><ele>417.0</ele><time>2026-04-23T08:13:50.663Z</time></trkpt><trkpt lat="39.8948189" lon="8.9975568"><ele>417.0</ele><time>2026-04-23T08:13:51.667Z</time></trkpt><trkpt lat="39.8948183" lon="8.9974732"><ele>417.0</ele><time>2026-04-23T08:13:52.675Z</time></trkpt><trkpt lat="39.8947883" lon="8.9973038"><ele>417.0</ele><time>2026-04-23T08:13:54.681Z</time></trkpt><trkpt lat="39.8947667" lon="8.9972124"><ele>417.0</ele><time>2026-04-23T08:13:55.667Z</time></trkpt><trkpt lat="39.89473" lon="8.9971002"><ele>416.8333333333333</ele><time>2026-04-23T08:13:56.666Z</time></trkpt><trkpt lat="39.8946888" lon="8.9969965"><ele>416.66666666666663</ele><time>2026-04-23T08:13:57.66Z</time></trkpt><trkpt lat="39.8946418" lon="8.9969031"><ele>416.5</ele><time>2026-04-23T08:13:58.656Z</time></trkpt><trkpt lat="39.8946054" lon="8.9968085"><ele>416.3333333333333</ele><time>2026-04-23T08:13:59.66Z</time></trkpt><trkpt lat="39.8945724" lon="8.9967134"><ele>416.16666666666663</ele><time>2026-04-23T08:14:00.654Z</time></trkpt><trkpt lat="39.8945573" lon="8.9966091"><ele>416.0</ele><time>2026-04-23T08:14:01.652Z</time></trkpt><trkpt lat="39.8945586" lon="8.9964871"><ele>416.0</ele><time>2026-04-23T08:14:02.653Z</time></trkpt><trkpt lat="39.8945637" lon="8.9963555"><ele>416.0</ele><time>2026-04-23T08:14:03.658Z</time></trkpt><trkpt lat="39.8945752" lon="8.9962274"><ele>416.0</ele><time>2026-04-23T08:14:04.651Z</time></trkpt><trkpt lat="39.8945625" lon="8.9960902"><ele>416.0</ele><time>2026-04-23T08:14:05.661Z</time></trkpt><trkpt lat="39.8945422" lon="8.9959626"><ele>416.0</ele><time>2026-04-23T08:14:06.656Z</time></trkpt><trkpt lat="39.8945161" lon="8.995836"><ele>416.20000000000005</ele><time>2026-04-23T08:14:07.661Z</time></trkpt><trkpt lat="39.8944947" lon="8.9957113"><ele>416.40000000000003</ele><time>2026-04-23T08:14:08.662Z</time></trkpt><trkpt lat="39.8944643" lon="8.9955737"><ele>416.6</ele><time>2026-04-23T08:14:09.662Z</time></trkpt><trkpt lat="39.8944473" lon="8.995436"><ele>416.8</ele><time>2026-04-23T08:14:10.665Z</time></trkpt><trkpt lat="39.8944113" lon="8.9952962"><ele>417.0</ele><time>2026-04-23T08:14:11.666Z</time></trkpt><trkpt lat="39.894391" lon="8.9951696"><ele>417.0</ele><time>2026-04-23T08:14:12.663Z</time></trkpt><trkpt lat="39.8943707" lon="8.9950392"><ele>417.0</ele><time>2026-04-23T08:14:13.672Z</time></trkpt><trkpt lat="39.894357" lon="8.9949167"><ele>417.0</ele><time>2026-04-23T08:14:14.669Z</time></trkpt><trkpt lat="39.8943509" lon="8.994797"><ele>417.0</ele><time>2026-04-23T08:14:15.669Z</time></trkpt><trkpt lat="39.8943568" lon="8.9946935"><ele>417.0</ele><time>2026-04-23T08:14:16.668Z</time></trkpt><trkpt lat="39.8943686" lon="8.994573"><ele>414.8</ele><time>2026-04-23T08:14:17.667Z</time></trkpt><trkpt lat="39.8943897" lon="8.9944595"><ele>412.6</ele><time>2026-04-23T08:14:18.668Z</time></trkpt><trkpt lat="39.8944258" lon="8.9943505"><ele>410.40000000000003</ele><time>2026-04-23T08:14:19.669Z</time></trkpt><trkpt lat="39.894473" lon="8.9942437"><ele>408.20000000000005</ele><time>2026-04-23T08:14:20.665Z</time></trkpt><trkpt lat="39.8945217" lon="8.9941353"><ele>406.0</ele><time>2026-04-23T08:14:21.661Z</time></trkpt><trkpt lat="39.89458" lon="8.9940316"><ele>406.0</ele><time>2026-04-23T08:14:22.665Z</time></trkpt><trkpt lat="39.8946351" lon="8.9939239"><ele>406.0</ele><time>2026-04-23T08:14:23.665Z</time></trkpt><trkpt lat="39.8946741" lon="8.9938093"><ele>406.0</ele><time>2026-04-23T08:14:24.664Z</time></trkpt><trkpt lat="39.8947179" lon="8.9937026"><ele>406.0</ele><time>2026-04-23T08:14:25.656Z</time></trkpt><trkpt lat="39.8947682" lon="8.9935937"><ele>406.0</ele><time>2026-04-23T08:14:26.659Z</time></trkpt><trkpt lat="39.894808" lon="8.9934778"><ele>406.0</ele><time>2026-04-23T08:14:27.662Z</time></trkpt><trkpt lat="39.894852" lon="8.9933641"><ele>406.0</ele><time>2026-04-23T08:14:28.657Z</time></trkpt><trkpt lat="39.894893" lon="8.9932509"><ele>406.0</ele><time>2026-04-23T08:14:29.653Z</time></trkpt><trkpt lat="39.8949293" lon="8.9931429"><ele>406.0</ele><time>2026-04-23T08:14:30.659Z</time></trkpt><trkpt lat="39.8949858" lon="8.9930436"><ele>406.0</ele><time>2026-04-23T08:14:31.659Z</time></trkpt><trkpt lat="39.8950482" lon="8.9929439"><ele>404.0</ele><time>2026-04-23T08:14:32.664Z</time></trkpt><trkpt lat="39.8951234" lon="8.9928668"><ele>402.0</ele><time>2026-04-23T08:14:33.662Z</time></trkpt><trkpt lat="39.8952049" lon="8.9928035"><ele>400.0</ele><time>2026-04-23T08:14:34.663Z</time></trkpt><trkpt lat="39.8952815" lon="8.9927355"><ele>398.0</ele><time>2026-04-23T08:14:35.666Z</time></trkpt><trkpt lat="39.8953608" lon="8.9926599"><ele>396.0</ele><time>2026-04-23T08:14:36.659Z</time></trkpt><trkpt lat="39.895426" lon="8.9925657"><ele>399.5</ele><time>2026-04-23T08:14:37.656Z</time></trkpt><trkpt lat="39.8954806" lon="8.9924677"><ele>403.0</ele><time>2026-04-23T08:14:38.654Z</time></trkpt><trkpt lat="39.8955223" lon="8.9923599"><ele>406.5</ele><time>2026-04-23T08:14:39.655Z</time></trkpt><trkpt lat="39.8955466" lon="8.9922638"><ele>410.0</ele><time>2026-04-23T08:14:40.662Z</time></trkpt><trkpt lat="39.8955364" lon="8.9921591"><ele>413.5</ele><time>2026-04-23T08:14:41.655Z</time></trkpt><trkpt lat="39.8955001" lon="8.992075"><ele>417.0</ele><time>2026-04-23T08:14:42.661Z</time></trkpt><trkpt lat="39.8954452" lon="8.9920052"><ele>417.0</ele><time>2026-04-23T08:14:43.655Z</time></trkpt><trkpt lat="39.8953893" lon="8.9919527"><ele>417.0</ele><time>2026-04-23T08:14:44.664Z</time></trkpt><trkpt lat="39.8953098" lon="8.991902"><ele>417.0</ele><time>2026-04-23T08:14:45.658Z</time></trkpt><trkpt lat="39.8952216" lon="8.9918593"><ele>417.0</ele><time>2026-04-23T08:14:46.661Z</time></trkpt><trkpt lat="39.8951239" lon="8.991841"><ele>417.0</ele><time>2026-04-23T08:14:47.661Z</time></trkpt><trkpt lat="39.8950239" lon="8.9918271"><ele>421.40000000000003</ele><time>2026-04-23T08:14:48.657Z</time></trkpt><trkpt lat="39.8949278" lon="8.9918191"><ele>425.8</ele><time>2026-04-23T08:14:49.651Z</time></trkpt><trkpt lat="39.894824" lon="8.9918432"><ele>430.2</ele><time>2026-04-23T08:14:50.653Z</time></trkpt><trkpt lat="39.8947201" lon="8.9918654"><ele>434.6</ele><time>2026-04-23T08:14:51.653Z</time></trkpt><trkpt lat="39.8946142" lon="8.9918705"><ele>439.0</ele><time>2026-04-23T08:14:52.65Z</time></trkpt><trkpt lat="39.8945093" lon="8.9918606"><ele>439.0</ele><time>2026-04-23T08:14:53.651Z</time></trkpt><trkpt lat="39.8944004" lon="8.9918477"><ele>439.0</ele><time>2026-04-23T08:14:54.648Z</time></trkpt><trkpt lat="39.8943095" lon="8.9918088"><ele>439.0</ele><time>2026-04-23T08:14:55.646Z</time></trkpt><trkpt lat="39.894218" lon="8.9917808"><ele>439.0</ele><time>2026-04-23T08:14:56.647Z</time></trkpt><trkpt lat="39.89413" lon="8.9917529"><ele>439.0</ele><time>2026-04-23T08:14:57.647Z</time></trkpt><trkpt lat="39.8940453" lon="8.9917174"><ele>440.33333333333337</ele><time>2026-04-23T08:14:58.645Z</time></trkpt><trkpt lat="39.8939704" lon="8.9916798"><ele>441.6666666666667</ele><time>2026-04-23T08:14:59.635Z</time></trkpt><trkpt lat="39.8939175" lon="8.9916323"><ele>443.0</ele><time>2026-04-23T08:15:00.634Z</time></trkpt><trkpt lat="39.8938712" lon="8.9915319"><ele>444.33333333333337</ele><time>2026-04-23T08:15:02.636Z</time></trkpt><trkpt lat="39.8938347" lon="8.9913827"><ele>445.6666666666667</ele><time>2026-04-23T08:15:04.635Z</time></trkpt><trkpt lat="39.8938121" lon="8.9913041"><ele>447.0</ele><time>2026-04-23T08:15:05.636Z</time></trkpt><trkpt lat="39.8938139" lon="8.9911428"><ele>447.0</ele><time>2026-04-23T08:15:07.638Z</time></trkpt><trkpt lat="39.8938347" lon="8.991053"><ele>447.0</ele><time>2026-04-23T08:15:08.639Z</time></trkpt><trkpt lat="39.8938442" lon="8.9909551"><ele>447.0</ele><time>2026-04-23T08:15:09.642Z</time></trkpt><trkpt lat="39.893837" lon="8.990859"><ele>447.0</ele><time>2026-04-23T08:15:10.641Z</time></trkpt><trkpt lat="39.8938236" lon="8.9907536"><ele>447.0</ele><time>2026-04-23T08:15:11.641Z</time></trkpt><trkpt lat="39.8938148" lon="8.9906358"><ele>447.0</ele><time>2026-04-23T08:15:12.642Z</time></trkpt><trkpt lat="39.8937947" lon="8.9905025"><ele>446.5</ele><time>2026-04-23T08:15:13.645Z</time></trkpt><trkpt lat="39.8937613" lon="8.9903869"><ele>446.0</ele><time>2026-04-23T08:15:14.64Z</time></trkpt><trkpt lat="39.8937209" lon="8.9902677"><ele>445.5</ele><time>2026-04-23T08:15:15.64Z</time></trkpt><trkpt lat="39.8936962" lon="8.9901612"><ele>445.0</ele><time>2026-04-23T08:15:16.638Z</time></trkpt><trkpt lat="39.8936845" lon="8.9900701"><ele>444.5</ele><time>2026-04-23T08:15:17.641Z</time></trkpt><trkpt lat="39.8936818" lon="8.9899711"><ele>444.0</ele><time>2026-04-23T08:15:18.638Z</time></trkpt><trkpt lat="39.8936817" lon="8.9898677"><ele>444.0</ele><time>2026-04-23T08:15:19.638Z</time></trkpt><trkpt lat="39.8936857" lon="8.9897658"><ele>444.0</ele><time>2026-04-23T08:15:20.637Z</time></trkpt><trkpt lat="39.89369" lon="8.9896592"><ele>444.0</ele><time>2026-04-23T08:15:21.639Z</time></trkpt><trkpt lat="39.8936925" lon="8.9895526"><ele>444.0</ele><time>2026-04-23T08:15:22.638Z</time></trkpt><trkpt lat="39.8937063" lon="8.989452"><ele>444.0</ele><time>2026-04-23T08:15:23.634Z</time></trkpt><trkpt lat="39.8937198" lon="8.9893642"><ele>444.0</ele><time>2026-04-23T08:15:24.637Z</time></trkpt><trkpt lat="39.8937442" lon="8.9892722"><ele>444.0</ele><time>2026-04-23T08:15:25.638Z</time></trkpt><trkpt lat="39.8937816" lon="8.9891966"><ele>444.0</ele><time>2026-04-23T08:15:26.639Z</time></trkpt><trkpt lat="39.8938187" lon="8.9891204"><ele>444.0</ele><time>2026-04-23T08:15:27.635Z</time></trkpt><trkpt lat="39.8938642" lon="8.9890566"><ele>444.0</ele><time>2026-04-23T08:15:28.632Z</time></trkpt><trkpt lat="39.8938974" lon="8.9889519"><ele>444.0</ele><time>2026-04-23T08:15:29.632Z</time></trkpt><trkpt lat="39.8939363" lon="8.9888567"><ele>444.0</ele><time>2026-04-23T08:15:30.633Z</time></trkpt><trkpt lat="39.8939673" lon="8.9887513"><ele>446.1666666666667</ele><time>2026-04-23T08:15:31.635Z</time></trkpt><trkpt lat="39.8940025" lon="8.988651"><ele>448.33333333333337</ele><time>2026-04-23T08:15:32.638Z</time></trkpt><trkpt lat="39.8940368" lon="8.988552"><ele>450.5</ele><time>2026-04-23T08:15:33.636Z</time></trkpt><trkpt lat="39.8940701" lon="8.9884555"><ele>452.6666666666667</ele><time>2026-04-23T08:15:34.641Z</time></trkpt><trkpt lat="39.8941087" lon="8.9883766"><ele>454.83333333333337</ele><time>2026-04-23T08:15:35.636Z</time></trkpt><trkpt lat="39.8941613" lon="8.9883033"><ele>457.0</ele><time>2026-04-23T08:15:36.633Z</time></trkpt><trkpt lat="39.8942229" lon="8.9882472"><ele>457.6666666666667</ele><time>2026-04-23T08:15:37.635Z</time></trkpt><trkpt lat="39.8943064" lon="8.9882088"><ele>458.33333333333337</ele><time>2026-04-23T08:15:38.63Z</time></trkpt><trkpt lat="39.894389" lon="8.9881887"><ele>459.0</ele><time>2026-04-23T08:15:39.629Z</time></trkpt><trkpt lat="39.8944748" lon="8.9881679"><ele>459.66666666666663</ele><time>2026-04-23T08:15:40.631Z</time></trkpt><trkpt lat="39.8945489" lon="8.988138"><ele>460.3333333333333</ele><time>2026-04-23T08:15:41.634Z</time></trkpt><trkpt lat="39.8946265" lon="8.9880863"><ele>461.0</ele><time>2026-04-23T08:15:42.64Z</time></trkpt><trkpt lat="39.8946979" lon="8.9880267"><ele>460.99999999999994</ele><time>2026-04-23T08:15:43.64Z</time></trkpt><trkpt lat="39.8947508" lon="8.9879636"><ele>461.0</ele><time>2026-04-23T08:15:44.641Z</time></trkpt><trkpt lat="39.8947738" lon="8.9878827"><ele>461.0</ele><time>2026-04-23T08:15:45.637Z</time></trkpt><trkpt lat="39.8947846" lon="8.9877877"><ele>461.0</ele><time>2026-04-23T08:15:46.635Z</time></trkpt><trkpt lat="39.8947794" lon="8.9876835"><ele>460.99999999999994</ele><time>2026-04-23T08:15:47.636Z</time></trkpt><trkpt lat="39.8947755" lon="8.9875813"><ele>461.0</ele><time>2026-04-23T08:15:48.637Z</time></trkpt><trkpt lat="39.8947614" lon="8.9874713"><ele>462.99999999999994</ele><time>2026-04-23T08:15:49.642Z</time></trkpt><trkpt lat="39.8947502" lon="8.987364"><ele>465.0</ele><time>2026-04-23T08:15:50.645Z</time></trkpt><trkpt lat="39.8947423" lon="8.9872448"><ele>467.0</ele><time>2026-04-23T08:15:51.642Z</time></trkpt><trkpt lat="39.894737" lon="8.9871377"><ele>469.0</ele><time>2026-04-23T08:15:52.638Z</time></trkpt><trkpt lat="39.89473" lon="8.9870412"><ele>470.99999999999994</ele><time>2026-04-23T08:15:53.643Z</time></trkpt><trkpt lat="39.8947139" lon="8.9869427"><ele>473.0</ele><time>2026-04-23T08:15:54.642Z</time></trkpt><trkpt lat="39.8946943" lon="8.9868418"><ele>472.99999999999994</ele><time>2026-04-23T08:15:55.64Z</time></trkpt><trkpt lat="39.8946803" lon="8.9867314"><ele>473.0</ele><time>2026-04-23T08:15:56.643Z</time></trkpt><trkpt lat="39.8946621" lon="8.9866263"><ele>473.0</ele><time>2026-04-23T08:15:57.641Z</time></trkpt><trkpt lat="39.8946547" lon="8.9865096"><ele>473.0</ele><time>2026-04-23T08:15:58.644Z</time></trkpt><trkpt lat="39.8946527" lon="8.9863818"><ele>472.99999999999994</ele><time>2026-04-23T08:15:59.641Z</time></trkpt><trkpt lat="39.8946486" lon="8.9862609"><ele>473.0</ele><time>2026-04-23T08:16:00.641Z</time></trkpt><trkpt lat="39.8946558" lon="8.9861351"><ele>473.16666666666663</ele><time>2026-04-23T08:16:01.637Z</time></trkpt><trkpt lat="39.8946656" lon="8.9859972"><ele>473.3333333333333</ele><time>2026-04-23T08:16:02.638Z</time></trkpt><trkpt lat="39.8946638" lon="8.9858849"><ele>473.5</ele><time>2026-04-23T08:16:03.64Z</time></trkpt><trkpt lat="39.8946651" lon="8.9857924"><ele>473.66666666666663</ele><time>2026-04-23T08:16:04.633Z</time></trkpt><trkpt lat="39.8946497" lon="8.9857016"><ele>473.8333333333333</ele><time>2026-04-23T08:16:06.633Z</time></trkpt><trkpt lat="39.8945891" lon="8.9856197"><ele>474.0</ele><time>2026-04-23T08:16:08.638Z</time></trkpt><trkpt lat="39.8944745" lon="8.9856427"><ele>475.6</ele><time>2026-04-23T08:16:10.637Z</time></trkpt><trkpt lat="39.8944009" lon="8.9856784"><ele>477.2</ele><time>2026-04-23T08:16:11.637Z</time></trkpt><trkpt lat="39.8943116" lon="8.9857191"><ele>478.80000000000007</ele><time>2026-04-23T08:16:12.633Z</time></trkpt><trkpt lat="39.8942165" lon="8.9857706"><ele>480.40000000000003</ele><time>2026-04-23T08:16:13.633Z</time></trkpt><trkpt lat="39.8941225" lon="8.9858271"><ele>482.0</ele><time>2026-04-23T08:16:14.627Z</time></trkpt><trkpt lat="39.8940329" lon="8.9858832"><ele>485.8</ele><time>2026-04-23T08:16:15.626Z</time></trkpt><trkpt lat="39.8939568" lon="8.9859413"><ele>489.6</ele><time>2026-04-23T08:16:16.632Z</time></trkpt><trkpt lat="39.8938901" lon="8.9859942"><ele>493.40000000000003</ele><time>2026-04-23T08:16:17.63Z</time></trkpt><trkpt lat="39.893827" lon="8.9860399"><ele>497.20000000000005</ele><time>2026-04-23T08:16:18.628Z</time></trkpt><trkpt lat="39.8937205" lon="8.9861138"><ele>501.0</ele><time>2026-04-23T08:16:20.631Z</time></trkpt><trkpt lat="39.8936187" lon="8.9861972"><ele>501.0</ele><time>2026-04-23T08:16:22.635Z</time></trkpt><trkpt lat="39.8935195" lon="8.9862702"><ele>501.0</ele><time>2026-04-23T08:16:24.633Z</time></trkpt><trkpt lat="39.893433" lon="8.9863518"><ele>501.0</ele><time>2026-04-23T08:16:26.632Z</time></trkpt><trkpt lat="39.8933272" lon="8.9864063"><ele>501.0</ele><time>2026-04-23T08:16:28.638Z</time></trkpt><trkpt lat="39.8932225" lon="8.9864574"><ele>501.0</ele><time>2026-04-23T08:16:30.636Z</time></trkpt><trkpt lat="39.8931178" lon="8.9865131"><ele>499.20000000000005</ele><time>2026-04-23T08:16:32.639Z</time></trkpt><trkpt lat="39.8930432" lon="8.9865579"><ele>497.40000000000003</ele><time>2026-04-23T08:16:34.631Z</time></trkpt><trkpt lat="39.892981" lon="8.986509"><ele>495.6</ele><time>2026-04-23T08:16:36.637Z</time></trkpt><trkpt lat="39.8929278" lon="8.9863971"><ele>493.8</ele><time>2026-04-23T08:16:38.632Z</time></trkpt><trkpt lat="39.892913" lon="8.9862705"><ele>492.0</ele><time>2026-04-23T08:16:40.638Z</time></trkpt><trkpt lat="39.8929535" lon="8.9861339"><ele>492.0</ele><time>2026-04-23T08:16:42.643Z</time></trkpt><trkpt lat="39.8929934" lon="8.9860099"><ele>492.0</ele><time>2026-04-23T08:16:44.635Z</time></trkpt><trkpt lat="39.8930451" lon="8.9858709"><ele>492.0</ele><time>2026-04-23T08:16:46.637Z</time></trkpt><trkpt lat="39.8930723" lon="8.9857189"><ele>492.0</ele><time>2026-04-23T08:16:48.64Z</time></trkpt><trkpt lat="39.8930983" lon="8.9855619"><ele>489.6</ele><time>2026-04-23T08:16:50.639Z</time></trkpt><trkpt lat="39.893124" lon="8.9854855"><ele>487.20000000000005</ele><time>2026-04-23T08:16:51.641Z</time></trkpt><trkpt lat="39.8931386" lon="8.9854044"><ele>484.8</ele><time>2026-04-23T08:16:52.641Z</time></trkpt><trkpt lat="39.8931689" lon="8.9852611"><ele>482.4</ele><time>2026-04-23T08:16:54.64Z</time></trkpt><trkpt lat="39.8931773" lon="8.9851281"><ele>480.0</ele><time>2026-04-23T08:16:56.638Z</time></trkpt><trkpt lat="39.8931257" lon="8.9850053"><ele>480.0</ele><time>2026-04-23T08:16:58.636Z</time></trkpt><trkpt lat="39.8930659" lon="8.9849538"><ele>480.0</ele><time>2026-04-23T08:17:00.644Z</time></trkpt><trkpt lat="39.8929779" lon="8.9849777"><ele>480.0</ele><time>2026-04-23T08:17:02.64Z</time></trkpt><trkpt lat="39.8928851" lon="8.9849857"><ele>480.0</ele><time>2026-04-23T08:17:04.632Z</time></trkpt><trkpt lat="39.8927771" lon="8.9850106"><ele>480.0</ele><time>2026-04-23T08:17:06.638Z</time></trkpt><trkpt lat="39.8926753" lon="8.9850509"><ele>480.0</ele><time>2026-04-23T08:17:08.64Z</time></trkpt><trkpt lat="39.8926126" lon="8.9850859"><ele>480.0</ele><time>2026-04-23T08:17:09.645Z</time></trkpt><trkpt lat="39.8925202" lon="8.9851459"><ele>480.0</ele><time>2026-04-23T08:17:11.641Z</time></trkpt><trkpt lat="39.8924346" lon="8.98523"><ele>480.0</ele><time>2026-04-23T08:17:13.643Z</time></trkpt><trkpt lat="39.8923626" lon="8.9853321"><ele>480.0</ele><time>2026-04-23T08:17:15.643Z</time></trkpt><trkpt lat="39.8923076" lon="8.9854423"><ele>479.0</ele><time>2026-04-23T08:17:17.645Z</time></trkpt><trkpt lat="39.8922516" lon="8.9855655"><ele>478.0</ele><time>2026-04-23T08:17:19.64Z</time></trkpt><trkpt lat="39.8921973" lon="8.9856774"><ele>477.0</ele><time>2026-04-23T08:17:21.646Z</time></trkpt><trkpt lat="39.8921257" lon="8.9857659"><ele>476.0</ele><time>2026-04-23T08:17:23.639Z</time></trkpt><trkpt lat="39.8920337" lon="8.9858505"><ele>475.0</ele><time>2026-04-23T08:17:25.643Z</time></trkpt><trkpt lat="39.8919474" lon="8.9859475"><ele>476.6</ele><time>2026-04-23T08:17:27.64Z</time></trkpt><trkpt lat="39.8918777" lon="8.9860331"><ele>478.2</ele><time>2026-04-23T08:17:29.639Z</time></trkpt><trkpt lat="39.8918065" lon="8.9860612"><ele>479.79999999999995</ele><time>2026-04-23T08:17:31.637Z</time></trkpt><trkpt lat="39.8917206" lon="8.9860172"><ele>481.4</ele><time>2026-04-23T08:17:33.633Z</time></trkpt><trkpt lat="39.8916261" lon="8.9859346"><ele>483.0</ele><time>2026-04-23T08:17:35.633Z</time></trkpt><trkpt lat="39.8915166" lon="8.985893"><ele>483.0</ele><time>2026-04-23T08:17:37.634Z</time></trkpt><trkpt lat="39.8913989" lon="8.9858715"><ele>482.99999999999994</ele><time>2026-04-23T08:17:39.642Z</time></trkpt><trkpt lat="39.8913324" lon="8.9858718"><ele>482.99999999999994</ele><time>2026-04-23T08:17:40.649Z</time></trkpt><trkpt lat="39.8912125" lon="8.985874"><ele>483.0</ele><time>2026-04-23T08:17:42.644Z</time></trkpt><trkpt lat="39.8911239" lon="8.9858738"><ele>483.0</ele><time>2026-04-23T08:17:44.642Z</time></trkpt><trkpt lat="39.8910313" lon="8.9858757"><ele>483.0</ele><time>2026-04-23T08:17:46.645Z</time></trkpt><trkpt lat="39.8909392" lon="8.9858986"><ele>482.99999999999994</ele><time>2026-04-23T08:17:48.647Z</time></trkpt><trkpt lat="39.890857" lon="8.9859716"><ele>482.99999999999994</ele><time>2026-04-23T08:17:50.657Z</time></trkpt><trkpt lat="39.890781" lon="8.986081"><ele>483.0</ele><time>2026-04-23T08:17:52.639Z</time></trkpt><trkpt lat="39.8906962" lon="8.9861449"><ele>483.0</ele><time>2026-04-23T08:17:54.635Z</time></trkpt><trkpt lat="39.8905932" lon="8.9861059"><ele>480.59999999999997</ele><time>2026-04-23T08:17:56.644Z</time></trkpt><trkpt lat="39.8905219" lon="8.9860867"><ele>478.19999999999993</ele><time>2026-04-23T08:17:57.641Z</time></trkpt><trkpt lat="39.8904589" lon="8.9860661"><ele>475.8</ele><time>2026-04-23T08:17:58.646Z</time></trkpt><trkpt lat="39.8903458" lon="8.9860371"><ele>473.4</ele><time>2026-04-23T08:18:00.65Z</time></trkpt><trkpt lat="39.8902482" lon="8.9860239"><ele>471.0</ele><time>2026-04-23T08:18:02.643Z</time></trkpt><trkpt lat="39.8901491" lon="8.9860063"><ele>467.6</ele><time>2026-04-23T08:18:04.637Z</time></trkpt><trkpt lat="39.8900453" lon="8.9860112"><ele>464.20000000000005</ele><time>2026-04-23T08:18:06.641Z</time></trkpt><trkpt lat="39.8899318" lon="8.9860327"><ele>460.79999999999995</ele><time>2026-04-23T08:18:08.643Z</time></trkpt><trkpt lat="39.8898258" lon="8.9860715"><ele>457.4</ele><time>2026-04-23T08:18:10.65Z</time></trkpt><trkpt lat="39.8897279" lon="8.9860921"><ele>454.0</ele><time>2026-04-23T08:18:12.644Z</time></trkpt><trkpt lat="39.8896096" lon="8.9861143"><ele>454.0</ele><time>2026-04-23T08:18:14.639Z</time></trkpt><trkpt lat="39.8895471" lon="8.9861275"><ele>454.0</ele><time>2026-04-23T08:18:15.645Z</time></trkpt><trkpt lat="39.8894407" lon="8.9861327"><ele>454.0</ele><time>2026-04-23T08:18:17.64Z</time></trkpt><trkpt lat="39.8893306" lon="8.9860976"><ele>454.0</ele><time>2026-04-23T08:18:19.64Z</time></trkpt><trkpt lat="39.8892371" lon="8.9860456"><ele>454.0</ele><time>2026-04-23T08:18:21.644Z</time></trkpt><trkpt lat="39.8892053" lon="8.9859262"><ele>450.2</ele><time>2026-04-23T08:18:23.641Z</time></trkpt><trkpt lat="39.8891954" lon="8.9857854"><ele>446.4</ele><time>2026-04-23T08:18:25.649Z</time></trkpt><trkpt lat="39.8892256" lon="8.9856485"><ele>442.6</ele><time>2026-04-23T08:18:27.645Z</time></trkpt><trkpt lat="39.889258" lon="8.9855193"><ele>438.8</ele><time>2026-04-23T08:18:29.645Z</time></trkpt><trkpt lat="39.8892692" lon="8.9853975"><ele>435.0</ele><time>2026-04-23T08:18:31.646Z</time></trkpt><trkpt lat="39.8892537" lon="8.9853003"><ele>435.0</ele><time>2026-04-23T08:18:33.65Z</time></trkpt><trkpt lat="39.8892213" lon="8.9851875"><ele>435.0</ele><time>2026-04-23T08:18:35.653Z</time></trkpt><trkpt lat="39.8892053" lon="8.9850713"><ele>435.0</ele><time>2026-04-23T08:18:37.651Z</time></trkpt><trkpt lat="39.8892071" lon="8.9849603"><ele>435.0</ele><time>2026-04-23T08:18:39.649Z</time></trkpt><trkpt lat="39.8892463" lon="8.9848268"><ele>435.0</ele><time>2026-04-23T08:18:41.647Z</time></trkpt><trkpt lat="39.88932" lon="8.9847205"><ele>428.6</ele><time>2026-04-23T08:18:43.643Z</time></trkpt><trkpt lat="39.8894011" lon="8.9846041"><ele>422.2</ele><time>2026-04-23T08:18:45.642Z</time></trkpt><trkpt lat="39.8894575" lon="8.9844808"><ele>415.79999999999995</ele><time>2026-04-23T08:18:47.644Z</time></trkpt><trkpt lat="39.8895152" lon="8.9843404"><ele>409.4</ele><time>2026-04-23T08:18:49.642Z</time></trkpt><trkpt lat="39.8895374" lon="8.9842628"><ele>403.0</ele><time>2026-04-23T08:18:50.652Z</time></trkpt><trkpt lat="39.8895551" lon="8.9841231"><ele>400.79999999999995</ele><time>2026-04-23T08:18:52.65Z</time></trkpt><trkpt lat="39.8895389" lon="8.9839757"><ele>398.6</ele><time>2026-04-23T08:18:54.647Z</time></trkpt><trkpt lat="39.8894905" lon="8.9838334"><ele>396.4</ele><time>2026-04-23T08:18:56.65Z</time></trkpt><trkpt lat="39.8894282" lon="8.9837251"><ele>394.20000000000005</ele><time>2026-04-23T08:18:58.652Z</time></trkpt><trkpt lat="39.8893745" lon="8.9836249"><ele>392.0</ele><time>2026-04-23T08:19:00.658Z</time></trkpt><trkpt lat="39.8893202" lon="8.9835231"><ele>391.99999999999994</ele><time>2026-04-23T08:19:02.649Z</time></trkpt><trkpt lat="39.8893002" lon="8.9834296"><ele>392.0</ele><time>2026-04-23T08:19:04.65Z</time></trkpt><trkpt lat="39.8892727" lon="8.9833446"><ele>392.0</ele><time>2026-04-23T08:19:06.65Z</time></trkpt><trkpt lat="39.8892702" lon="8.983223"><ele>392.0</ele><time>2026-04-23T08:19:08.651Z</time></trkpt><trkpt lat="39.8893109" lon="8.9831193"><ele>391.99999999999994</ele><time>2026-04-23T08:19:10.663Z</time></trkpt><trkpt lat="39.8894" lon="8.983058"><ele>392.0</ele><time>2026-04-23T08:19:12.649Z</time></trkpt><trkpt lat="39.8895215" lon="8.9830969"><ele>393.7142857142857</ele><time>2026-04-23T08:19:14.648Z</time></trkpt><trkpt lat="39.8895851" lon="8.9831268"><ele>395.42857142857144</ele><time>2026-04-23T08:19:15.65Z</time></trkpt><trkpt lat="39.8896457" lon="8.9831532"><ele>397.1428571428571</ele><time>2026-04-23T08:19:16.641Z</time></trkpt><trkpt lat="39.8897162" lon="8.9831635"><ele>398.8571428571429</ele><time>2026-04-23T08:19:17.651Z</time></trkpt><trkpt lat="39.8897907" lon="8.9831739"><ele>400.57142857142856</ele><time>2026-04-23T08:19:18.644Z</time></trkpt><trkpt lat="39.8898711" lon="8.9831788"><ele>402.2857142857143</ele><time>2026-04-23T08:19:19.645Z</time></trkpt><trkpt lat="39.889944" lon="8.9831849"><ele>404.0</ele><time>2026-04-23T08:19:20.66Z</time></trkpt><trkpt lat="39.890012" lon="8.9831919"><ele>403.99999999999994</ele><time>2026-04-23T08:19:21.646Z</time></trkpt><trkpt lat="39.8900766" lon="8.9831953"><ele>404.0</ele><time>2026-04-23T08:19:22.648Z</time></trkpt><trkpt lat="39.8901399" lon="8.9832003"><ele>404.0</ele><time>2026-04-23T08:19:23.649Z</time></trkpt><trkpt lat="39.8902391" lon="8.9831866"><ele>404.0</ele><time>2026-04-23T08:19:25.648Z</time></trkpt><trkpt lat="39.8903312" lon="8.9831668"><ele>403.99999999999994</ele><time>2026-04-23T08:19:27.648Z</time></trkpt><trkpt lat="39.8904152" lon="8.9831105"><ele>404.0</ele><time>2026-04-23T08:19:29.65Z</time></trkpt><trkpt lat="39.8904798" lon="8.9830259"><ele>400.6</ele><time>2026-04-23T08:19:31.659Z</time></trkpt><trkpt lat="39.8905237" lon="8.9828945"><ele>397.2</ele><time>2026-04-23T08:19:33.646Z</time></trkpt><trkpt lat="39.8905402" lon="8.9828123"><ele>393.8</ele><time>2026-04-23T08:19:34.646Z</time></trkpt><trkpt lat="39.890585" lon="8.9826708"><ele>390.40000000000003</ele><time>2026-04-23T08:19:36.651Z</time></trkpt><trkpt lat="39.8906665" lon="8.9825493"><ele>387.0</ele><time>2026-04-23T08:19:38.646Z</time></trkpt><trkpt lat="39.890717" lon="8.9824877"><ele>387.0</ele><time>2026-04-23T08:19:39.647Z</time></trkpt><trkpt lat="39.8907685" lon="8.9824331"><ele>387.0</ele><time>2026-04-23T08:19:40.649Z</time></trkpt><trkpt lat="39.8908313" lon="8.9823222"><ele>387.0</ele><time>2026-04-23T08:19:42.646Z</time></trkpt><trkpt lat="39.8908806" lon="8.9822123"><ele>387.0</ele><time>2026-04-23T08:19:44.65Z</time></trkpt><trkpt lat="39.8909107" lon="8.9821123"><ele>387.0</ele><time>2026-04-23T08:19:46.649Z</time></trkpt><trkpt lat="39.8909487" lon="8.9820037"><ele>387.0</ele><time>2026-04-23T08:19:48.645Z</time></trkpt><trkpt lat="39.8910198" lon="8.9818841"><ele>380.6</ele><time>2026-04-23T08:19:50.643Z</time></trkpt><trkpt lat="39.8910599" lon="8.9818202"><ele>374.20000000000005</ele><time>2026-04-23T08:19:51.653Z</time></trkpt><trkpt lat="39.8911156" lon="8.9817118"><ele>367.8</ele><time>2026-04-23T08:19:53.646Z</time></trkpt><trkpt lat="39.891142" lon="8.9816119"><ele>361.4</ele><time>2026-04-23T08:19:55.645Z</time></trkpt><trkpt lat="39.8911386" lon="8.9814816"><ele>355.0</ele><time>2026-04-23T08:19:57.652Z</time></trkpt><trkpt lat="39.8911097" lon="8.9813371"><ele>355.0</ele><time>2026-04-23T08:19:59.649Z</time></trkpt><trkpt lat="39.8910819" lon="8.9812074"><ele>355.0</ele><time>2026-04-23T08:20:01.661Z</time></trkpt><trkpt lat="39.8910534" lon="8.9810853"><ele>355.0</ele><time>2026-04-23T08:20:03.649Z</time></trkpt><trkpt lat="39.8910125" lon="8.9809649"><ele>355.0</ele><time>2026-04-23T08:20:05.647Z</time></trkpt><trkpt lat="39.8909846" lon="8.9808446"><ele>355.0</ele><time>2026-04-23T08:20:07.654Z</time></trkpt><trkpt lat="39.8909736" lon="8.9807358"><ele>353.2</ele><time>2026-04-23T08:20:09.654Z</time></trkpt><trkpt lat="39.8909415" lon="8.9806279"><ele>351.4</ele><time>2026-04-23T08:20:11.645Z</time></trkpt><trkpt lat="39.8909045" lon="8.9805073"><ele>349.6</ele><time>2026-04-23T08:20:13.649Z</time></trkpt><trkpt lat="39.8908603" lon="8.9804031"><ele>347.8</ele><time>2026-04-23T08:20:15.649Z</time></trkpt><trkpt lat="39.8908332" lon="8.9802968"><ele>346.0</ele><time>2026-04-23T08:20:17.648Z</time></trkpt><trkpt lat="39.8907905" lon="8.9801777"><ele>350.0</ele><time>2026-04-23T08:20:19.648Z</time></trkpt><trkpt lat="39.8907216" lon="8.9800378"><ele>354.0</ele><time>2026-04-23T08:20:21.651Z</time></trkpt><trkpt lat="39.8906485" lon="8.9799408"><ele>358.0</ele><time>2026-04-23T08:20:23.644Z</time></trkpt><trkpt lat="39.8905569" lon="8.9798768"><ele>362.0</ele><time>2026-04-23T08:20:25.651Z</time></trkpt><trkpt lat="39.8904629" lon="8.9797981"><ele>366.0</ele><time>2026-04-23T08:20:27.652Z</time></trkpt><trkpt lat="39.8903833" lon="8.9797088"><ele>366.0</ele><time>2026-04-23T08:20:29.643Z</time></trkpt><trkpt lat="39.8903076" lon="8.9796249"><ele>366.0</ele><time>2026-04-23T08:20:31.645Z</time></trkpt><trkpt lat="39.8902347" lon="8.9795521"><ele>366.0</ele><time>2026-04-23T08:20:33.641Z</time></trkpt><trkpt lat="39.8901749" lon="8.9794492"><ele>366.0</ele><time>2026-04-23T08:20:35.641Z</time></trkpt><trkpt lat="39.890114" lon="8.9793247"><ele>366.0</ele><time>2026-04-23T08:20:37.65Z</time></trkpt><trkpt lat="39.8900598" lon="8.9792073"><ele>368.6666666666667</ele><time>2026-04-23T08:20:39.645Z</time></trkpt><trkpt lat="39.8900144" lon="8.9790893"><ele>371.3333333333333</ele><time>2026-04-23T08:20:41.653Z</time></trkpt><trkpt lat="39.8899628" lon="8.9790044"><ele>374.0</ele><time>2026-04-23T08:20:43.659Z</time></trkpt><trkpt lat="39.8899259" lon="8.9789267"><ele>376.66666666666663</ele><time>2026-04-23T08:20:45.656Z</time></trkpt><trkpt lat="39.8899411" lon="8.9788458"><ele>379.3333333333333</ele><time>2026-04-23T08:20:47.652Z</time></trkpt><trkpt lat="39.8900221" lon="8.9787642"><ele>382.0</ele><time>2026-04-23T08:20:49.651Z</time></trkpt><trkpt lat="39.8901239" lon="8.9787106"><ele>375.6</ele><time>2026-04-23T08:20:51.65Z</time></trkpt><trkpt lat="39.8902119" lon="8.9786748"><ele>369.20000000000005</ele><time>2026-04-23T08:20:53.64Z</time></trkpt><trkpt lat="39.890293" lon="8.978674"><ele>362.8</ele><time>2026-04-23T08:20:55.645Z</time></trkpt><trkpt lat="39.8903704" lon="8.9786901"><ele>356.4</ele><time>2026-04-23T08:20:57.644Z</time></trkpt><trkpt lat="39.8904633" lon="8.9787195"><ele>350.0</ele><time>2026-04-23T08:20:59.645Z</time></trkpt><trkpt lat="39.8905729" lon="8.9787101"><ele>350.0</ele><time>2026-04-23T08:21:01.645Z</time></trkpt><trkpt lat="39.8906775" lon="8.978689"><ele>350.0</ele><time>2026-04-23T08:21:03.647Z</time></trkpt><trkpt lat="39.8907643" lon="8.978631"><ele>350.0</ele><time>2026-04-23T08:21:05.639Z</time></trkpt><trkpt lat="39.8908355" lon="8.9785912"><ele>350.0</ele><time>2026-04-23T08:21:07.643Z</time></trkpt><trkpt lat="39.8909525" lon="8.9785683"><ele>350.0</ele><time>2026-04-23T08:21:09.633Z</time></trkpt><trkpt lat="39.8910714" lon="8.9785495"><ele>347.2857142857143</ele><time>2026-04-23T08:21:11.641Z</time></trkpt><trkpt lat="39.8911419" lon="8.9785321"><ele>344.57142857142856</ele><time>2026-04-23T08:21:12.661Z</time></trkpt><trkpt lat="39.8912114" lon="8.9785165"><ele>341.8571428571429</ele><time>2026-04-23T08:21:13.655Z</time></trkpt><trkpt lat="39.8912872" lon="8.9784976"><ele>339.1428571428571</ele><time>2026-04-23T08:21:14.653Z</time></trkpt><trkpt lat="39.8913578" lon="8.9784777"><ele>336.42857142857144</ele><time>2026-04-23T08:21:15.654Z</time></trkpt><trkpt lat="39.8914244" lon="8.9784546"><ele>333.7142857142857</ele><time>2026-04-23T08:21:16.651Z</time></trkpt><trkpt lat="39.8914933" lon="8.9784405"><ele>331.0</ele><time>2026-04-23T08:21:17.657Z</time></trkpt><trkpt lat="39.891558" lon="8.9784186"><ele>331.0</ele><time>2026-04-23T08:21:18.654Z</time></trkpt><trkpt lat="39.8916259" lon="8.9784049"><ele>331.0</ele><time>2026-04-23T08:21:19.656Z</time></trkpt><trkpt lat="39.8916999" lon="8.9784049"><ele>331.0</ele><time>2026-04-23T08:21:20.657Z</time></trkpt><trkpt lat="39.8917745" lon="8.97841"><ele>331.0</ele><time>2026-04-23T08:21:21.666Z</time></trkpt><trkpt lat="39.8918384" lon="8.978423"><ele>331.0</ele><time>2026-04-23T08:21:22.662Z</time></trkpt><trkpt lat="39.8919081" lon="8.9784348"><ele>331.0</ele><time>2026-04-23T08:21:23.658Z</time></trkpt><trkpt lat="39.8919689" lon="8.9784577"><ele>331.0</ele><time>2026-04-23T08:21:24.657Z</time></trkpt><trkpt lat="39.8920924" lon="8.9784767"><ele>329.4</ele><time>2026-04-23T08:21:26.664Z</time></trkpt><trkpt lat="39.8921961" lon="8.9785225"><ele>327.8</ele><time>2026-04-23T08:21:28.659Z</time></trkpt><trkpt lat="39.8923072" lon="8.9785909"><ele>326.2</ele><time>2026-04-23T08:21:30.656Z</time></trkpt><trkpt lat="39.8924197" lon="8.9785889"><ele>324.59999999999997</ele><time>2026-04-23T08:21:32.651Z</time></trkpt><trkpt lat="39.8924853" lon="8.9785583"><ele>323.0</ele><time>2026-04-23T08:21:33.652Z</time></trkpt><trkpt lat="39.8925509" lon="8.9784497"><ele>327.4</ele><time>2026-04-23T08:21:35.655Z</time></trkpt><trkpt lat="39.892558" lon="8.9783106"><ele>331.79999999999995</ele><time>2026-04-23T08:21:37.658Z</time></trkpt><trkpt lat="39.8925094" lon="8.9781536"><ele>336.2</ele><time>2026-04-23T08:21:39.661Z</time></trkpt><trkpt lat="39.8924978" lon="8.9780627"><ele>340.6</ele><time>2026-04-23T08:21:40.66Z</time></trkpt><trkpt lat="39.8924831" lon="8.9779678"><ele>345.0</ele><time>2026-04-23T08:21:41.653Z</time></trkpt><trkpt lat="39.892455" lon="8.9778181"><ele>345.0</ele><time>2026-04-23T08:21:43.664Z</time></trkpt><trkpt lat="39.8924116" lon="8.97767"><ele>345.0</ele><time>2026-04-23T08:21:45.656Z</time></trkpt><trkpt lat="39.8923772" lon="8.9775329"><ele>345.0</ele><time>2026-04-23T08:21:47.658Z</time></trkpt><trkpt lat="39.8923662" lon="8.977387"><ele>345.0</ele><time>2026-04-23T08:21:49.657Z</time></trkpt><trkpt lat="39.8923605" lon="8.977225"><ele>345.2</ele><time>2026-04-23T08:21:51.661Z</time></trkpt><trkpt lat="39.8923686" lon="8.9771317"><ele>345.4</ele><time>2026-04-23T08:21:52.657Z</time></trkpt><trkpt lat="39.892377" lon="8.9770498"><ele>345.6</ele><time>2026-04-23T08:21:53.66Z</time></trkpt><trkpt lat="39.8923866" lon="8.9769041"><ele>345.8</ele><time>2026-04-23T08:21:55.658Z</time></trkpt><trkpt lat="39.8923933" lon="8.976772"><ele>346.0</ele><time>2026-04-23T08:21:57.653Z</time></trkpt><trkpt lat="39.8924284" lon="8.9766348"><ele>346.8</ele><time>2026-04-23T08:21:59.659Z</time></trkpt><trkpt lat="39.8924466" lon="8.9765076"><ele>347.6</ele><time>2026-04-23T08:22:01.663Z</time></trkpt><trkpt lat="39.8924979" lon="8.976391"><ele>348.4</ele><time>2026-04-23T08:22:03.66Z</time></trkpt><trkpt lat="39.8925787" lon="8.976272"><ele>349.2</ele><time>2026-04-23T08:22:05.663Z</time></trkpt><trkpt lat="39.892656" lon="8.9761751"><ele>350.0</ele><time>2026-04-23T08:22:07.659Z</time></trkpt><trkpt lat="39.8927618" lon="8.976179"><ele>343.8</ele><time>2026-04-23T08:22:09.652Z</time></trkpt><trkpt lat="39.8928263" lon="8.9761893"><ele>337.6</ele><time>2026-04-23T08:22:10.648Z</time></trkpt><trkpt lat="39.892954" lon="8.9761958"><ele>331.4</ele><time>2026-04-23T08:22:12.658Z</time></trkpt><trkpt lat="39.8930278" lon="8.9761867"><ele>325.2</ele><time>2026-04-23T08:22:13.658Z</time></trkpt><trkpt lat="39.8931222" lon="8.9761576"><ele>319.0</ele><time>2026-04-23T08:22:15.659Z</time></trkpt><trkpt lat="39.8932264" lon="8.9760574"><ele>319.0</ele><time>2026-04-23T08:22:17.665Z</time></trkpt><trkpt lat="39.8933112" lon="8.9759588"><ele>319.0</ele><time>2026-04-23T08:22:19.656Z</time></trkpt><trkpt lat="39.8934021" lon="8.9759383"><ele>319.0</ele><time>2026-04-23T08:22:21.66Z</time></trkpt><trkpt lat="39.8935004" lon="8.9760279"><ele>319.0</ele><time>2026-04-23T08:22:23.656Z</time></trkpt><trkpt lat="39.893617" lon="8.9760746"><ele>319.0</ele><time>2026-04-23T08:22:25.653Z</time></trkpt><trkpt lat="39.8937192" lon="8.9761474"><ele>318.0</ele><time>2026-04-23T08:22:27.66Z</time></trkpt><trkpt lat="39.8938279" lon="8.9762107"><ele>317.0</ele><time>2026-04-23T08:22:29.652Z</time></trkpt><trkpt lat="39.8939287" lon="8.976274"><ele>316.0</ele><time>2026-04-23T08:22:31.651Z</time></trkpt><trkpt lat="39.8940372" lon="8.9762964"><ele>315.0</ele><time>2026-04-23T08:22:33.651Z</time></trkpt><trkpt lat="39.8941247" lon="8.9762607"><ele>314.0</ele><time>2026-04-23T08:22:35.657Z</time></trkpt><trkpt lat="39.894188" lon="8.9761402"><ele>314.0</ele><time>2026-04-23T08:22:37.657Z</time></trkpt><trkpt lat="39.8942492" lon="8.9760103"><ele>314.0</ele><time>2026-04-23T08:22:39.662Z</time></trkpt><trkpt lat="39.8943143" lon="8.975904"><ele>314.0</ele><time>2026-04-23T08:22:41.659Z</time></trkpt><trkpt lat="39.8943391" lon="8.9757642"><ele>314.0</ele><time>2026-04-23T08:22:43.666Z</time></trkpt><trkpt lat="39.894362" lon="8.9756361"><ele>314.0</ele><time>2026-04-23T08:22:45.654Z</time></trkpt><trkpt lat="39.8944121" lon="8.9755188"><ele>314.2</ele><time>2026-04-23T08:22:47.656Z</time></trkpt><trkpt lat="39.8944672" lon="8.9754105"><ele>314.4</ele><time>2026-04-23T08:22:49.66Z</time></trkpt><trkpt lat="39.894527" lon="8.9752928"><ele>314.6</ele><time>2026-04-23T08:22:51.654Z</time></trkpt><trkpt lat="39.8945964" lon="8.9751686"><ele>314.8</ele><time>2026-04-23T08:22:53.659Z</time></trkpt><trkpt lat="39.8946368" lon="8.9750991"><ele>315.0</ele><time>2026-04-23T08:22:54.663Z</time></trkpt><trkpt lat="39.8946633" lon="8.97502"><ele>315.0</ele><time>2026-04-23T08:22:55.661Z</time></trkpt><trkpt lat="39.8947079" lon="8.9748808"><ele>315.0</ele><time>2026-04-23T08:22:57.659Z</time></trkpt><trkpt lat="39.8947485" lon="8.9747405"><ele>315.0</ele><time>2026-04-23T08:22:59.663Z</time></trkpt><trkpt lat="39.8948149" lon="8.9746339"><ele>315.0</ele><time>2026-04-23T08:23:01.661Z</time></trkpt><trkpt lat="39.8948733" lon="8.9745977"><ele>315.0</ele><time>2026-04-23T08:23:02.657Z</time></trkpt><trkpt lat="39.8949813" lon="8.9745496"><ele>315.0</ele><time>2026-04-23T08:23:04.652Z</time></trkpt><trkpt lat="39.8950777" lon="8.9744878"><ele>315.0</ele><time>2026-04-23T08:23:06.657Z</time></trkpt><trkpt lat="39.8951637" lon="8.9743902"><ele>315.0</ele><time>2026-04-23T08:23:08.662Z</time></trkpt><trkpt lat="39.8952116" lon="8.9743283"><ele>315.0</ele><time>2026-04-23T08:23:09.66Z</time></trkpt><trkpt lat="39.8952571" lon="8.9742645"><ele>315.0</ele><time>2026-04-23T08:23:10.662Z</time></trkpt><trkpt lat="39.8953033" lon="8.9741408"><ele>310.4</ele><time>2026-04-23T08:23:12.666Z</time></trkpt><trkpt lat="39.8953458" lon="8.9740272"><ele>305.8</ele><time>2026-04-23T08:23:14.664Z</time></trkpt><trkpt lat="39.895382" lon="8.9739136"><ele>301.2</ele><time>2026-04-23T08:23:16.669Z</time></trkpt><trkpt lat="39.895397" lon="8.9737715"><ele>296.6</ele><time>2026-04-23T08:23:18.664Z</time></trkpt><trkpt lat="39.8954313" lon="8.9736266"><ele>292.0</ele><time>2026-04-23T08:23:20.666Z</time></trkpt><trkpt lat="39.8954683" lon="8.9735068"><ele>293.66666666666663</ele><time>2026-04-23T08:23:22.662Z</time></trkpt><trkpt lat="39.8954967" lon="8.9733429"><ele>295.3333333333333</ele><time>2026-04-23T08:23:24.663Z</time></trkpt><trkpt lat="39.895513" lon="8.973261"><ele>297.0</ele><time>2026-04-23T08:23:25.663Z</time></trkpt><trkpt lat="39.8955231" lon="8.9731791"><ele>298.6666666666667</ele><time>2026-04-23T08:23:26.665Z</time></trkpt><trkpt lat="39.8955296" lon="8.9730456"><ele>300.33333333333337</ele><time>2026-04-23T08:23:28.67Z</time></trkpt><trkpt lat="39.8955117" lon="8.9729328"><ele>302.0</ele><time>2026-04-23T08:23:30.663Z</time></trkpt><trkpt lat="39.8954526" lon="8.972852"><ele>302.0</ele><time>2026-04-23T08:23:32.667Z</time></trkpt><trkpt lat="39.8953573" lon="8.9728045"><ele>302.0</ele><time>2026-04-23T08:23:34.661Z</time></trkpt><trkpt lat="39.8952575" lon="8.9727518"><ele>302.0</ele><time>2026-04-23T08:23:36.656Z</time></trkpt><trkpt lat="39.8951298" lon="8.9726978"><ele>302.0</ele><time>2026-04-23T08:23:38.664Z</time></trkpt><trkpt lat="39.8950541" lon="8.9726692"><ele>302.0</ele><time>2026-04-23T08:23:39.652Z</time></trkpt><trkpt lat="39.8949818" lon="8.972639"><ele>302.6666666666667</ele><time>2026-04-23T08:23:40.661Z</time></trkpt><trkpt lat="39.8949103" lon="8.9726102"><ele>303.33333333333337</ele><time>2026-04-23T08:23:41.652Z</time></trkpt><trkpt lat="39.8948487" lon="8.972593"><ele>304.0</ele><time>2026-04-23T08:23:42.651Z</time></trkpt><trkpt lat="39.8947349" lon="8.9725512"><ele>304.6666666666667</ele><time>2026-04-23T08:23:44.653Z</time></trkpt><trkpt lat="39.8946385" lon="8.9725226"><ele>305.3333333333333</ele><time>2026-04-23T08:23:46.65Z</time></trkpt><trkpt lat="39.8945743" lon="8.9725222"><ele>306.0</ele><time>2026-04-23T08:23:47.646Z</time></trkpt><trkpt lat="39.8945105" lon="8.9725265"><ele>306.0</ele><time>2026-04-23T08:23:48.652Z</time></trkpt><trkpt lat="39.8944" lon="8.9725441"><ele>306.0</ele><time>2026-04-23T08:23:50.646Z</time></trkpt><trkpt lat="39.8943029" lon="8.9725211"><ele>306.0</ele><time>2026-04-23T08:23:52.647Z</time></trkpt><trkpt lat="39.8942169" lon="8.9724582"><ele>306.0</ele><time>2026-04-23T08:23:54.646Z</time></trkpt><trkpt lat="39.8941416" lon="8.9723569"><ele>306.0</ele><time>2026-04-23T08:23:56.653Z</time></trkpt><trkpt lat="39.8940947" lon="8.9722367"><ele>304.2</ele><time>2026-04-23T08:23:58.653Z</time></trkpt><trkpt lat="39.894052" lon="8.9721021"><ele>302.40000000000003</ele><time>2026-04-23T08:24:00.653Z</time></trkpt><trkpt lat="39.8940111" lon="8.9719821"><ele>300.6</ele><time>2026-04-23T08:24:02.655Z</time></trkpt><trkpt lat="39.8939737" lon="8.9718642"><ele>298.8</ele><time>2026-04-23T08:24:04.654Z</time></trkpt><trkpt lat="39.8939513" lon="8.9717262"><ele>297.0</ele><time>2026-04-23T08:24:06.654Z</time></trkpt><trkpt lat="39.893934" lon="8.9716443"><ele>297.0</ele><time>2026-04-23T08:24:07.65Z</time></trkpt><trkpt lat="39.8938975" lon="8.9715147"><ele>297.0</ele><time>2026-04-23T08:24:09.657Z</time></trkpt><trkpt lat="39.8938518" lon="8.9714039"><ele>297.0</ele><time>2026-04-23T08:24:11.657Z</time></trkpt><trkpt lat="39.8938095" lon="8.9713144"><ele>297.0</ele><time>2026-04-23T08:24:13.654Z</time></trkpt><trkpt lat="39.893763" lon="8.9712257"><ele>297.0</ele><time>2026-04-23T08:24:15.663Z</time></trkpt><trkpt lat="39.8937123" lon="8.9711158"><ele>297.0</ele><time>2026-04-23T08:24:17.662Z</time></trkpt><trkpt lat="39.8936546" lon="8.9710209"><ele>297.0</ele><time>2026-04-23T08:24:19.66Z</time></trkpt><trkpt lat="39.8935767" lon="8.9709373"><ele>297.0</ele><time>2026-04-23T08:24:21.661Z</time></trkpt><trkpt lat="39.893507" lon="8.9708565"><ele>297.0</ele><time>2026-04-23T08:24:23.658Z</time></trkpt><trkpt lat="39.8934842" lon="8.970768"><ele>297.0</ele><time>2026-04-23T08:24:25.666Z</time></trkpt><trkpt lat="39.8935021" lon="8.9706574"><ele>297.0</ele><time>2026-04-23T08:24:27.664Z</time></trkpt><trkpt lat="39.8935265" lon="8.9705422"><ele>293.5</ele><time>2026-04-23T08:24:29.66Z</time></trkpt><trkpt lat="39.8935529" lon="8.970407"><ele>290.0</ele><time>2026-04-23T08:24:31.657Z</time></trkpt><trkpt lat="39.8935343" lon="8.9702963"><ele>286.5</ele><time>2026-04-23T08:24:33.662Z</time></trkpt><trkpt lat="39.8934853" lon="8.970202"><ele>283.0</ele><time>2026-04-23T08:24:35.672Z</time></trkpt><trkpt lat="39.8934855" lon="8.9701096"><ele>279.5</ele><time>2026-04-23T08:24:37.672Z</time></trkpt><trkpt lat="39.8934662" lon="8.9700107"><ele>276.0</ele><time>2026-04-23T08:24:39.661Z</time></trkpt><trkpt lat="39.8934471" lon="8.9698919"><ele>272.3333333333333</ele><time>2026-04-23T08:24:41.664Z</time></trkpt><trkpt lat="39.8934439" lon="8.9697853"><ele>268.6666666666667</ele><time>2026-04-23T08:24:43.662Z</time></trkpt><trkpt lat="39.8934706" lon="8.9696818"><ele>265.0</ele><time>2026-04-23T08:24:45.663Z</time></trkpt><trkpt lat="39.8935014" lon="8.9695696"><ele>261.33333333333337</ele><time>2026-04-23T08:24:47.662Z</time></trkpt><trkpt lat="39.8935212" lon="8.9694534"><ele>257.6666666666667</ele><time>2026-04-23T08:24:49.666Z</time></trkpt><trkpt lat="39.8935669" lon="8.969371"><ele>254.0</ele><time>2026-04-23T08:24:51.67Z</time></trkpt><trkpt lat="39.8936273" lon="8.9692902"><ele>254.00000000000003</ele><time>2026-04-23T08:24:53.663Z</time></trkpt><trkpt lat="39.8936865" lon="8.9692031"><ele>254.0</ele><time>2026-04-23T08:24:55.659Z</time></trkpt><trkpt lat="39.8936997" lon="8.9691156"><ele>254.0</ele><time>2026-04-23T08:24:57.668Z</time></trkpt><trkpt lat="39.8937226" lon="8.9690102"><ele>254.0</ele><time>2026-04-23T08:24:59.664Z</time></trkpt><trkpt lat="39.8937424" lon="8.9689113"><ele>254.00000000000003</ele><time>2026-04-23T08:25:01.662Z</time></trkpt><trkpt lat="39.8937567" lon="8.9688083"><ele>254.0</ele><time>2026-04-23T08:25:03.657Z</time></trkpt><trkpt lat="39.8937796" lon="8.9686914"><ele>254.33333333333334</ele><time>2026-04-23T08:25:05.664Z</time></trkpt><trkpt lat="39.893744" lon="8.9685864"><ele>254.66666666666669</ele><time>2026-04-23T08:25:07.669Z</time></trkpt><trkpt lat="39.8936884" lon="8.9685041"><ele>255.0</ele><time>2026-04-23T08:25:09.667Z</time></trkpt><trkpt lat="39.8936334" lon="8.968426"><ele>255.33333333333331</ele><time>2026-04-23T08:25:11.664Z</time></trkpt><trkpt lat="39.8935646" lon="8.9683336"><ele>255.66666666666666</ele><time>2026-04-23T08:25:13.66Z</time></trkpt><trkpt lat="39.893519" lon="8.9682408"><ele>256.0</ele><time>2026-04-23T08:25:15.653Z</time></trkpt><trkpt lat="39.8935012" lon="8.9681606"><ele>254.8</ele><time>2026-04-23T08:25:36.657Z</time></trkpt><trkpt lat="39.8934472" lon="8.9680644"><ele>253.60000000000002</ele><time>2026-04-23T08:25:39.661Z</time></trkpt><trkpt lat="39.8933527" lon="8.9679226"><ele>252.4</ele><time>2026-04-23T08:25:41.654Z</time></trkpt><trkpt lat="39.8933109" lon="8.9677706"><ele>251.2</ele><time>2026-04-23T08:25:43.667Z</time></trkpt><trkpt lat="39.8933158" lon="8.9676827"><ele>250.0</ele><time>2026-04-23T08:25:44.659Z</time></trkpt><trkpt lat="39.8933316" lon="8.9675242"><ele>246.6</ele><time>2026-04-23T08:25:46.664Z</time></trkpt><trkpt lat="39.8933562" lon="8.9674418"><ele>243.2</ele><time>2026-04-23T08:25:47.66Z</time></trkpt><trkpt lat="39.8934372" lon="8.9673386"><ele>239.8</ele><time>2026-04-23T08:25:49.659Z</time></trkpt><trkpt lat="39.8935297" lon="8.9672219"><ele>236.4</ele><time>2026-04-23T08:25:51.657Z</time></trkpt><trkpt lat="39.8935724" lon="8.9671553"><ele>233.0</ele><time>2026-04-23T08:25:52.659Z</time></trkpt><trkpt lat="39.8936404" lon="8.967058"><ele>233.0</ele><time>2026-04-23T08:25:54.665Z</time></trkpt><trkpt lat="39.8936921" lon="8.9669387"><ele>233.0</ele><time>2026-04-23T08:25:56.666Z</time></trkpt><trkpt lat="39.8937427" lon="8.9668272"><ele>233.0</ele><time>2026-04-23T08:25:58.664Z</time></trkpt><trkpt lat="39.8938049" lon="8.96674"><ele>233.0</ele><time>2026-04-23T08:26:00.666Z</time></trkpt><trkpt lat="39.8939016" lon="8.9666675"><ele>233.0</ele><time>2026-04-23T08:26:02.66Z</time></trkpt><trkpt lat="39.8939711" lon="8.9665495"><ele>234.0</ele><time>2026-04-23T08:26:04.659Z</time></trkpt><trkpt lat="39.8940484" lon="8.9664046"><ele>235.0</ele><time>2026-04-23T08:26:06.663Z</time></trkpt><trkpt lat="39.8940704" lon="8.9663244"><ele>236.0</ele><time>2026-04-23T08:26:07.659Z</time></trkpt><trkpt lat="39.8940903" lon="8.966242"><ele>237.0</ele><time>2026-04-23T08:26:08.66Z</time></trkpt><trkpt lat="39.8941092" lon="8.966161"><ele>238.0</ele><time>2026-04-23T08:26:09.663Z</time></trkpt><trkpt lat="39.894106" lon="8.9659921"><ele>238.0</ele><time>2026-04-23T08:26:11.669Z</time></trkpt><trkpt lat="39.894099" lon="8.9658922"><ele>238.0</ele><time>2026-04-23T08:26:12.666Z</time></trkpt><trkpt lat="39.8940859" lon="8.9657971"><ele>238.0</ele><time>2026-04-23T08:26:13.673Z</time></trkpt><trkpt lat="39.8940617" lon="8.9657156"><ele>238.0</ele><time>2026-04-23T08:26:14.663Z</time></trkpt><trkpt lat="39.8940405" lon="8.9656311"><ele>238.0</ele><time>2026-04-23T08:26:15.661Z</time></trkpt><trkpt lat="39.8940206" lon="8.965525"><ele>238.0</ele><time>2026-04-23T08:26:16.669Z</time></trkpt><trkpt lat="39.8940118" lon="8.9654303"><ele>238.0</ele><time>2026-04-23T08:26:17.66Z</time></trkpt><trkpt lat="39.8939979" lon="8.965324"><ele>238.42857142857144</ele><time>2026-04-23T08:26:18.665Z</time></trkpt><trkpt lat="39.8939833" lon="8.9652379"><ele>238.85714285714286</ele><time>2026-04-23T08:26:19.658Z</time></trkpt><trkpt lat="39.8939676" lon="8.9651446"><ele>239.28571428571428</ele><time>2026-04-23T08:26:20.659Z</time></trkpt><trkpt lat="39.8939723" lon="8.965055"><ele>239.71428571428572</ele><time>2026-04-23T08:26:21.655Z</time></trkpt><trkpt lat="39.8939877" lon="8.9649708"><ele>240.14285714285717</ele><time>2026-04-23T08:26:22.663Z</time></trkpt><trkpt lat="39.894016" lon="8.9648883"><ele>240.57142857142858</ele><time>2026-04-23T08:26:23.66Z</time></trkpt><trkpt lat="39.89406" lon="8.9648039"><ele>241.0</ele><time>2026-04-23T08:26:24.656Z</time></trkpt><trkpt lat="39.8940957" lon="8.9647194"><ele>239.71428571428572</ele><time>2026-04-23T08:26:25.658Z</time></trkpt><trkpt lat="39.8941344" lon="8.9646435"><ele>238.42857142857144</ele><time>2026-04-23T08:26:26.656Z</time></trkpt><trkpt lat="39.8941629" lon="8.9645594"><ele>237.14285714285717</ele><time>2026-04-23T08:26:27.661Z</time></trkpt><trkpt lat="39.8941776" lon="8.9644712"><ele>235.8571428571429</ele><time>2026-04-23T08:26:28.656Z</time></trkpt><trkpt lat="39.8941752" lon="8.9643831"><ele>234.57142857142858</ele><time>2026-04-23T08:26:29.663Z</time></trkpt><trkpt lat="39.8941571" lon="8.9642942"><ele>233.28571428571433</ele><time>2026-04-23T08:26:30.658Z</time></trkpt><trkpt lat="39.8941293" lon="8.9642155"><ele>232.00000000000003</ele><time>2026-04-23T08:26:31.657Z</time></trkpt><trkpt lat="39.8941072" lon="8.9641348"><ele>230.49999999999997</ele><time>2026-04-23T08:26:32.657Z</time></trkpt><trkpt lat="39.8940726" lon="8.9640517"><ele>229.0</ele><time>2026-04-23T08:26:33.66Z</time></trkpt><trkpt lat="39.8940286" lon="8.963965"><ele>227.5</ele><time>2026-04-23T08:26:34.652Z</time></trkpt><trkpt lat="39.8939893" lon="8.9638856"><ele>226.0</ele><time>2026-04-23T08:26:35.656Z</time></trkpt><trkpt lat="39.8939356" lon="8.9638105"><ele>224.49999999999997</ele><time>2026-04-23T08:26:36.652Z</time></trkpt><trkpt lat="39.8938881" lon="8.9637344"><ele>223.0</ele><time>2026-04-23T08:26:37.656Z</time></trkpt><trkpt lat="39.893849" lon="8.9636541"><ele>223.0</ele><time>2026-04-23T08:26:38.65Z</time></trkpt><trkpt lat="39.8938152" lon="8.9635559"><ele>223.0</ele><time>2026-04-23T08:26:39.65Z</time></trkpt><trkpt lat="39.8937851" lon="8.9634682"><ele>223.0</ele><time>2026-04-23T08:26:40.653Z</time></trkpt><trkpt lat="39.8937463" lon="8.9633806"><ele>223.0</ele><time>2026-04-23T08:26:41.645Z</time></trkpt><trkpt lat="39.8937212" lon="8.9632348"><ele>223.0</ele><time>2026-04-23T08:26:43.653Z</time></trkpt><trkpt lat="39.8937267" lon="8.9630818"><ele>221.28571428571428</ele><time>2026-04-23T08:26:45.655Z</time></trkpt><trkpt lat="39.8937236" lon="8.962992"><ele>219.57142857142856</ele><time>2026-04-23T08:26:46.658Z</time></trkpt><trkpt lat="39.893716" lon="8.9628965"><ele>217.85714285714286</ele><time>2026-04-23T08:26:47.654Z</time></trkpt><trkpt lat="39.8937113" lon="8.9628084"><ele>216.14285714285714</ele><time>2026-04-23T08:26:48.648Z</time></trkpt><trkpt lat="39.8936753" lon="8.9627228"><ele>214.42857142857144</ele><time>2026-04-23T08:26:49.649Z</time></trkpt><trkpt lat="39.893629" lon="8.9626369"><ele>212.71428571428572</ele><time>2026-04-23T08:26:50.658Z</time></trkpt><trkpt lat="39.893603" lon="8.9625513"><ele>211.0</ele><time>2026-04-23T08:26:51.652Z</time></trkpt><trkpt lat="39.8935881" lon="8.9624579"><ele>208.16666666666666</ele><time>2026-04-23T08:26:52.65Z</time></trkpt><trkpt lat="39.8935826" lon="8.9623725"><ele>205.33333333333331</ele><time>2026-04-23T08:26:53.653Z</time></trkpt><trkpt lat="39.8936016" lon="8.9622866"><ele>202.5</ele><time>2026-04-23T08:26:54.649Z</time></trkpt><trkpt lat="39.8936147" lon="8.9621673"><ele>199.66666666666669</ele><time>2026-04-23T08:26:55.649Z</time></trkpt><trkpt lat="39.8936392" lon="8.9620505"><ele>196.83333333333334</ele><time>2026-04-23T08:26:56.649Z</time></trkpt><trkpt lat="39.8936721" lon="8.9619414"><ele>194.0</ele><time>2026-04-23T08:26:57.656Z</time></trkpt><trkpt lat="39.8936991" lon="8.9618486"><ele>194.00000000000003</ele><time>2026-04-23T08:26:58.657Z</time></trkpt><trkpt lat="39.8937211" lon="8.9617585"><ele>194.0</ele><time>2026-04-23T08:26:59.654Z</time></trkpt><trkpt lat="39.8937307" lon="8.96166"><ele>194.0</ele><time>2026-04-23T08:27:00.659Z</time></trkpt><trkpt lat="39.8937366" lon="8.9615638"><ele>194.0</ele><time>2026-04-23T08:27:01.654Z</time></trkpt><trkpt lat="39.8937178" lon="8.9613952"><ele>194.00000000000003</ele><time>2026-04-23T08:27:03.648Z</time></trkpt><trkpt lat="39.8936746" lon="8.9613152"><ele>194.0</ele><time>2026-04-23T08:27:04.651Z</time></trkpt><trkpt lat="39.8936133" lon="8.9612399"><ele>195.83333333333334</ele><time>2026-04-23T08:27:05.654Z</time></trkpt><trkpt lat="39.8935499" lon="8.9611566"><ele>197.66666666666669</ele><time>2026-04-23T08:27:06.648Z</time></trkpt><trkpt lat="39.8934913" lon="8.9610898"><ele>199.5</ele><time>2026-04-23T08:27:07.647Z</time></trkpt><trkpt lat="39.8934424" lon="8.9610188"><ele>201.33333333333331</ele><time>2026-04-23T08:27:08.649Z</time></trkpt><trkpt lat="39.8934057" lon="8.9609519"><ele>203.16666666666666</ele><time>2026-04-23T08:27:09.654Z</time></trkpt><trkpt lat="39.8933295" lon="8.9608282"><ele>205.0</ele><time>2026-04-23T08:27:11.65Z</time></trkpt><trkpt lat="39.8932949" lon="8.9607574"><ele>204.99999999999997</ele><time>2026-04-23T08:27:12.649Z</time></trkpt><trkpt lat="39.8932475" lon="8.9606951"><ele>205.0</ele><time>2026-04-23T08:27:13.649Z</time></trkpt><trkpt lat="39.8931833" lon="8.9606241"><ele>205.0</ele><time>2026-04-23T08:27:14.645Z</time></trkpt><trkpt lat="39.8931039" lon="8.9605534"><ele>205.0</ele><time>2026-04-23T08:27:15.65Z</time></trkpt><trkpt lat="39.8930423" lon="8.9604842"><ele>204.99999999999997</ele><time>2026-04-23T08:27:16.654Z</time></trkpt><trkpt lat="39.8929883" lon="8.9603935"><ele>205.0</ele><time>2026-04-23T08:27:17.654Z</time></trkpt><trkpt lat="39.8929278" lon="8.9603106"><ele>205.0</ele><time>2026-04-23T08:27:18.648Z</time></trkpt><trkpt lat="39.8928771" lon="8.9602328"><ele>205.0</ele><time>2026-04-23T08:27:19.649Z</time></trkpt><trkpt lat="39.8928273" lon="8.9601587"><ele>205.0</ele><time>2026-04-23T08:27:20.651Z</time></trkpt><trkpt lat="39.8927578" lon="8.9601146"><ele>205.0</ele><time>2026-04-23T08:27:21.652Z</time></trkpt><trkpt lat="39.8926936" lon="8.9600754"><ele>205.0</ele><time>2026-04-23T08:27:22.644Z</time></trkpt><trkpt lat="39.8926275" lon="8.9600594"><ele>205.0</ele><time>2026-04-23T08:27:23.65Z</time></trkpt><trkpt lat="39.8925582" lon="8.9600543"><ele>205.0</ele><time>2026-04-23T08:27:24.648Z</time></trkpt><trkpt lat="39.8924586" lon="8.9600605"><ele>208.2</ele><time>2026-04-23T08:27:26.653Z</time></trkpt><trkpt lat="39.8923556" lon="8.9601169"><ele>211.4</ele><time>2026-04-23T08:27:28.649Z</time></trkpt><trkpt lat="39.8922549" lon="8.9602145"><ele>214.60000000000002</ele><time>2026-04-23T08:27:30.652Z</time></trkpt><trkpt lat="39.8922025" lon="8.9602863"><ele>217.8</ele><time>2026-04-23T08:27:31.645Z</time></trkpt><trkpt lat="39.892154" lon="8.9603642"><ele>221.0</ele><time>2026-04-23T08:27:32.644Z</time></trkpt><trkpt lat="39.8921069" lon="8.9604445"><ele>221.0</ele><time>2026-04-23T08:27:33.648Z</time></trkpt><trkpt lat="39.8920525" lon="8.9605298"><ele>221.00000000000003</ele><time>2026-04-23T08:27:34.642Z</time></trkpt><trkpt lat="39.8920091" lon="8.9606082"><ele>221.00000000000003</ele><time>2026-04-23T08:27:35.654Z</time></trkpt><trkpt lat="39.8919774" lon="8.960686"><ele>221.0</ele><time>2026-04-23T08:27:36.648Z</time></trkpt><trkpt lat="39.8919187" lon="8.9608222"><ele>221.0</ele><time>2026-04-23T08:27:38.649Z</time></trkpt><trkpt lat="39.8918542" lon="8.9609559"><ele>219.66666666666669</ele><time>2026-04-23T08:27:40.646Z</time></trkpt><trkpt lat="39.8918276" lon="8.9610363"><ele>218.33333333333334</ele><time>2026-04-23T08:27:41.646Z</time></trkpt><trkpt lat="39.8917865" lon="8.9611978"><ele>217.0</ele><time>2026-04-23T08:27:43.652Z</time></trkpt><trkpt lat="39.8917723" lon="8.961293"><ele>215.66666666666669</ele><time>2026-04-23T08:27:44.645Z</time></trkpt><trkpt lat="39.8917473" lon="8.9613852"><ele>214.33333333333334</ele><time>2026-04-23T08:27:45.642Z</time></trkpt><trkpt lat="39.8917135" lon="8.9614671"><ele>213.0</ele><time>2026-04-23T08:27:46.65Z</time></trkpt><trkpt lat="39.8916535" lon="8.9615318"><ele>213.0</ele><time>2026-04-23T08:27:47.646Z</time></trkpt><trkpt lat="39.8915799" lon="8.9616048"><ele>213.0</ele><time>2026-04-23T08:27:48.646Z</time></trkpt><trkpt lat="39.8915107" lon="8.9616679"><ele>213.0</ele><time>2026-04-23T08:27:49.655Z</time></trkpt><trkpt lat="39.891439" lon="8.9617454"><ele>213.0</ele><time>2026-04-23T08:27:50.644Z</time></trkpt><trkpt lat="39.8913627" lon="8.9618259"><ele>213.0</ele><time>2026-04-23T08:27:51.643Z</time></trkpt><trkpt lat="39.8912923" lon="8.9618979"><ele>218.66666666666666</ele><time>2026-04-23T08:27:52.644Z</time></trkpt><trkpt lat="39.8912172" lon="8.9619691"><ele>224.33333333333331</ele><time>2026-04-23T08:27:53.639Z</time></trkpt><trkpt lat="39.8911439" lon="8.9620329"><ele>230.0</ele><time>2026-04-23T08:27:54.634Z</time></trkpt><trkpt lat="39.8910718" lon="8.9620903"><ele>235.66666666666666</ele><time>2026-04-23T08:27:55.644Z</time></trkpt><trkpt lat="39.8910099" lon="8.9621451"><ele>241.33333333333331</ele><time>2026-04-23T08:27:56.64Z</time></trkpt><trkpt lat="39.8909449" lon="8.9622194"><ele>247.0</ele><time>2026-04-23T08:27:57.648Z</time></trkpt><trkpt lat="39.8908832" lon="8.962315"><ele>246.99999999999997</ele><time>2026-04-23T08:27:58.64Z</time></trkpt><trkpt lat="39.8908431" lon="8.9623986"><ele>247.0</ele><time>2026-04-23T08:27:59.643Z</time></trkpt><trkpt lat="39.8907991" lon="8.9624761"><ele>247.0</ele><time>2026-04-23T08:28:00.64Z</time></trkpt><trkpt lat="39.890756" lon="8.962541"><ele>247.0</ele><time>2026-04-23T08:28:01.644Z</time></trkpt><trkpt lat="39.8906775" lon="8.9626248"><ele>246.99999999999997</ele><time>2026-04-23T08:28:03.645Z</time></trkpt><trkpt lat="39.8906094" lon="8.9626513"><ele>247.0</ele><time>2026-04-23T08:28:05.651Z</time></trkpt><trkpt lat="39.8905148" lon="8.9626144"><ele>247.0</ele><time>2026-04-23T08:28:07.648Z</time></trkpt><trkpt lat="39.8903885" lon="8.9625567"><ele>247.0</ele><time>2026-04-23T08:28:09.641Z</time></trkpt><trkpt lat="39.8903273" lon="8.9625161"><ele>247.0</ele><time>2026-04-23T08:28:10.637Z</time></trkpt><trkpt lat="39.8902696" lon="8.962467"><ele>247.0</ele><time>2026-04-23T08:28:11.64Z</time></trkpt><trkpt lat="39.8901673" lon="8.962387"><ele>247.0</ele><time>2026-04-23T08:28:13.638Z</time></trkpt><trkpt lat="39.8900654" lon="8.9623504"><ele>245.16666666666666</ele><time>2026-04-23T08:28:15.64Z</time></trkpt><trkpt lat="39.8899946" lon="8.9623571"><ele>243.33333333333331</ele><time>2026-04-23T08:34:00.655Z</time></trkpt><trkpt lat="39.8898903" lon="8.9624348"><ele>241.5</ele><time>2026-04-23T08:34:02.641Z</time></trkpt><trkpt lat="39.8898158" lon="8.9624776"><ele>239.66666666666669</ele><time>2026-04-23T08:34:03.64Z</time></trkpt><trkpt lat="39.8897391" lon="8.9625179"><ele>237.83333333333334</ele><time>2026-04-23T08:34:04.645Z</time></trkpt><trkpt lat="39.8896626" lon="8.9625566"><ele>236.0</ele><time>2026-04-23T08:34:05.658Z</time></trkpt><trkpt lat="39.8895773" lon="8.9625842"><ele>240.33333333333334</ele><time>2026-04-23T08:34:06.65Z</time></trkpt><trkpt lat="39.8894948" lon="8.9625877"><ele>244.66666666666669</ele><time>2026-04-23T08:34:07.649Z</time></trkpt><trkpt lat="39.8894238" lon="8.9625965"><ele>249.0</ele><time>2026-04-23T08:34:08.653Z</time></trkpt><trkpt lat="39.8893405" lon="8.9626195"><ele>253.33333333333331</ele><time>2026-04-23T08:34:09.649Z</time></trkpt><trkpt lat="39.889263" lon="8.9626666"><ele>257.66666666666663</ele><time>2026-04-23T08:34:10.65Z</time></trkpt><trkpt lat="39.8892025" lon="8.9627208"><ele>262.0</ele><time>2026-04-23T08:34:11.651Z</time></trkpt><trkpt lat="39.8891152" lon="8.962811"><ele>262.0</ele><time>2026-04-23T08:34:13.653Z</time></trkpt><trkpt lat="39.8890294" lon="8.9628382"><ele>262.0</ele><time>2026-04-23T08:34:15.659Z</time></trkpt><trkpt lat="39.8889346" lon="8.9627698"><ele>262.0</ele><time>2026-04-23T08:34:17.648Z</time></trkpt><trkpt lat="39.8888874" lon="8.962693"><ele>262.0</ele><time>2026-04-23T08:34:18.651Z</time></trkpt><trkpt lat="39.8888496" lon="8.9626112"><ele>262.0</ele><time>2026-04-23T08:34:19.653Z</time></trkpt><trkpt lat="39.8888273" lon="8.9625285"><ele>262.0</ele><time>2026-04-23T08:34:20.652Z</time></trkpt><trkpt lat="39.8888056" lon="8.9623567"><ele>256.57142857142856</ele><time>2026-04-23T08:34:22.658Z</time></trkpt><trkpt lat="39.8888037" lon="8.962274"><ele>251.14285714285717</ele><time>2026-04-23T08:34:23.657Z</time></trkpt><trkpt lat="39.8888246" lon="8.9621796"><ele>245.71428571428572</ele><time>2026-04-23T08:34:24.651Z</time></trkpt><trkpt lat="39.8888459" lon="8.9620865"><ele>240.28571428571428</ele><time>2026-04-23T08:34:25.66Z</time></trkpt><trkpt lat="39.8888708" lon="8.9619892"><ele>234.85714285714286</ele><time>2026-04-23T08:34:26.643Z</time></trkpt><trkpt lat="39.8888753" lon="8.961892"><ele>229.42857142857144</ele><time>2026-04-23T08:34:27.654Z</time></trkpt><trkpt lat="39.8888612" lon="8.9617937"><ele>224.0</ele><time>2026-04-23T08:34:28.657Z</time></trkpt><trkpt lat="39.8888489" lon="8.9616986"><ele>221.33333333333334</ele><time>2026-04-23T08:34:29.658Z</time></trkpt><trkpt lat="39.8888193" lon="8.9615927"><ele>218.66666666666669</ele><time>2026-04-23T08:34:30.654Z</time></trkpt><trkpt lat="39.8888092" lon="8.9614886"><ele>216.0</ele><time>2026-04-23T08:34:31.657Z</time></trkpt><trkpt lat="39.8887483" lon="8.9613847"><ele>213.33333333333331</ele><time>2026-04-23T08:34:33.645Z</time></trkpt><trkpt lat="39.8886497" lon="8.9613991"><ele>210.66666666666666</ele><time>2026-04-23T08:34:35.655Z</time></trkpt><trkpt lat="39.8886026" lon="8.961455"><ele>208.0</ele><time>2026-04-23T08:34:36.646Z</time></trkpt><trkpt lat="39.8885573" lon="8.9615284"><ele>208.0</ele><time>2026-04-23T08:34:37.651Z</time></trkpt><trkpt lat="39.8884936" lon="8.9615812"><ele>208.0</ele><time>2026-04-23T08:34:38.645Z</time></trkpt><trkpt lat="39.8883806" lon="8.9615941"><ele>208.0</ele><time>2026-04-23T08:34:40.653Z</time></trkpt><trkpt lat="39.888296" lon="8.9614938"><ele>208.0</ele><time>2026-04-23T08:34:42.648Z</time></trkpt><trkpt lat="39.888226" lon="8.9613405"><ele>208.0</ele><time>2026-04-23T08:34:44.657Z</time></trkpt><trkpt lat="39.8881946" lon="8.9612545"><ele>212.49999999999997</ele><time>2026-04-23T08:34:45.667Z</time></trkpt><trkpt lat="39.8881652" lon="8.9611584"><ele>217.0</ele><time>2026-04-23T08:34:46.652Z</time></trkpt><trkpt lat="39.8881382" lon="8.9610424"><ele>221.5</ele><time>2026-04-23T08:34:47.655Z</time></trkpt><trkpt lat="39.8881102" lon="8.9609422"><ele>226.0</ele><time>2026-04-23T08:34:48.652Z</time></trkpt><trkpt lat="39.8880596" lon="8.9608545"><ele>230.49999999999997</ele><time>2026-04-23T08:34:49.659Z</time></trkpt><trkpt lat="39.888004" lon="8.960773"><ele>235.0</ele><time>2026-04-23T08:34:50.654Z</time></trkpt><trkpt lat="39.8879362" lon="8.960703"><ele>235.0</ele><time>2026-04-23T08:34:51.668Z</time></trkpt><trkpt lat="39.8878637" lon="8.960646"><ele>235.0</ele><time>2026-04-23T08:34:52.661Z</time></trkpt><trkpt lat="39.8877912" lon="8.9605926"><ele>235.0</ele><time>2026-04-23T08:34:53.664Z</time></trkpt><trkpt lat="39.8877034" lon="8.9605398"><ele>235.0</ele><time>2026-04-23T08:34:54.662Z</time></trkpt><trkpt lat="39.8876087" lon="8.9604817"><ele>235.0</ele><time>2026-04-23T08:34:55.674Z</time></trkpt><trkpt lat="39.8875287" lon="8.9604225"><ele>236.49999999999997</ele><time>2026-04-23T08:34:56.666Z</time></trkpt><trkpt lat="39.8874451" lon="8.96037"><ele>238.0</ele><time>2026-04-23T08:34:57.668Z</time></trkpt><trkpt lat="39.8873702" lon="8.9603161"><ele>239.5</ele><time>2026-04-23T08:34:58.669Z</time></trkpt><trkpt lat="39.8873074" lon="8.9602738"><ele>241.0</ele><time>2026-04-23T08:34:59.665Z</time></trkpt><trkpt lat="39.8872352" lon="8.9602458"><ele>242.49999999999997</ele><time>2026-04-23T08:35:00.673Z</time></trkpt><trkpt lat="39.8871549" lon="8.9602303"><ele>244.0</ele><time>2026-04-23T08:35:01.662Z</time></trkpt><trkpt lat="39.8870663" lon="8.9602183"><ele>244.0</ele><time>2026-04-23T08:35:02.657Z</time></trkpt><trkpt lat="39.8869756" lon="8.9602079"><ele>243.99999999999997</ele><time>2026-04-23T08:35:03.658Z</time></trkpt><trkpt lat="39.8868871" lon="8.9601995"><ele>243.99999999999997</ele><time>2026-04-23T08:35:04.657Z</time></trkpt><trkpt lat="39.8867942" lon="8.9601963"><ele>244.0</ele><time>2026-04-23T08:35:05.664Z</time></trkpt><trkpt lat="39.8867077" lon="8.9602073"><ele>244.0</ele><time>2026-04-23T08:35:06.659Z</time></trkpt><trkpt lat="39.8866149" lon="8.9602416"><ele>245.0</ele><time>2026-04-23T08:35:07.663Z</time></trkpt><trkpt lat="39.8865199" lon="8.9602873"><ele>245.99999999999997</ele><time>2026-04-23T08:35:08.661Z</time></trkpt><trkpt lat="39.8864245" lon="8.9603278"><ele>246.99999999999997</ele><time>2026-04-23T08:35:09.66Z</time></trkpt><trkpt lat="39.8863365" lon="8.9603602"><ele>248.0</ele><time>2026-04-23T08:35:10.652Z</time></trkpt><trkpt lat="39.8862467" lon="8.9603589"><ele>249.0</ele><time>2026-04-23T08:35:11.651Z</time></trkpt><trkpt lat="39.8861661" lon="8.9603322"><ele>249.0</ele><time>2026-04-23T08:35:12.653Z</time></trkpt><trkpt lat="39.8860913" lon="8.9602963"><ele>248.99999999999997</ele><time>2026-04-23T08:35:13.655Z</time></trkpt><trkpt lat="39.8860003" lon="8.9602289"><ele>248.99999999999997</ele><time>2026-04-23T08:35:14.648Z</time></trkpt><trkpt lat="39.8859132" lon="8.9601514"><ele>249.0</ele><time>2026-04-23T08:35:15.669Z</time></trkpt><trkpt lat="39.885833" lon="8.9600674"><ele>249.0</ele><time>2026-04-23T08:35:16.658Z</time></trkpt><trkpt lat="39.8857609" lon="8.9599985"><ele>243.0</ele><time>2026-04-23T08:35:17.658Z</time></trkpt><trkpt lat="39.8856886" lon="8.9599359"><ele>237.0</ele><time>2026-04-23T08:35:18.659Z</time></trkpt><trkpt lat="39.8856257" lon="8.9598714"><ele>231.0</ele><time>2026-04-23T08:35:19.653Z</time></trkpt><trkpt lat="39.885561" lon="8.9598254"><ele>225.0</ele><time>2026-04-23T08:35:20.658Z</time></trkpt><trkpt lat="39.8854855" lon="8.9598114"><ele>219.0</ele><time>2026-04-23T08:35:21.656Z</time></trkpt><trkpt lat="39.8854199" lon="8.9598265"><ele>213.0</ele><time>2026-04-23T08:35:22.654Z</time></trkpt><trkpt lat="39.8853501" lon="8.9598939"><ele>218.8</ele><time>2026-04-23T08:35:23.653Z</time></trkpt><trkpt lat="39.8853321" lon="8.9600746"><ele>224.60000000000002</ele><time>2026-04-23T08:35:25.655Z</time></trkpt><trkpt lat="39.8853143" lon="8.9601811"><ele>230.39999999999998</ele><time>2026-04-23T08:35:26.672Z</time></trkpt><trkpt lat="39.8852889" lon="8.9603142"><ele>236.2</ele><time>2026-04-23T08:35:27.657Z</time></trkpt><trkpt lat="39.8852511" lon="8.9604335"><ele>242.0</ele><time>2026-04-23T08:35:28.653Z</time></trkpt><trkpt lat="39.885204" lon="8.9605346"><ele>242.00000000000003</ele><time>2026-04-23T08:35:29.658Z</time></trkpt><trkpt lat="39.8851442" lon="8.9606063"><ele>242.0</ele><time>2026-04-23T08:35:30.66Z</time></trkpt><trkpt lat="39.8850914" lon="8.9606799"><ele>242.0</ele><time>2026-04-23T08:35:31.657Z</time></trkpt><trkpt lat="39.8850534" lon="8.9607549"><ele>242.0</ele><time>2026-04-23T08:35:32.657Z</time></trkpt><trkpt lat="39.8850368" lon="8.9608373"><ele>242.00000000000003</ele><time>2026-04-23T08:35:33.651Z</time></trkpt><trkpt lat="39.8850864" lon="8.9609819"><ele>242.0</ele><time>2026-04-23T08:35:35.658Z</time></trkpt><trkpt lat="39.8851144" lon="8.9610682"><ele>240.50000000000003</ele><time>2026-04-23T08:35:36.668Z</time></trkpt><trkpt lat="39.88513" lon="8.9611575"><ele>239.0</ele><time>2026-04-23T08:35:37.657Z</time></trkpt><trkpt lat="39.8851285" lon="8.961245"><ele>237.5</ele><time>2026-04-23T08:35:38.651Z</time></trkpt><trkpt lat="39.8850613" lon="8.9613675"><ele>236.0</ele><time>2026-04-23T08:35:40.653Z</time></trkpt><trkpt lat="39.8850017" lon="8.9614085"><ele>234.50000000000003</ele><time>2026-04-23T08:35:41.654Z</time></trkpt><trkpt lat="39.8849302" lon="8.9614211"><ele>233.0</ele><time>2026-04-23T08:35:42.654Z</time></trkpt><trkpt lat="39.8848379" lon="8.9613764"><ele>233.0</ele><time>2026-04-23T08:35:43.657Z</time></trkpt><trkpt lat="39.8846278" lon="8.961206"><ele>233.0</ele><time>2026-04-23T08:35:45.649Z</time></trkpt><trkpt lat="39.8845254" lon="8.96115"><ele>233.0</ele><time>2026-04-23T08:35:46.674Z</time></trkpt><trkpt lat="39.8844184" lon="8.9611132"><ele>233.0</ele><time>2026-04-23T08:35:47.658Z</time></trkpt><trkpt lat="39.884304" lon="8.9610856"><ele>233.0</ele><time>2026-04-23T08:35:48.654Z</time></trkpt><trkpt lat="39.8841941" lon="8.9610577"><ele>233.0</ele><time>2026-04-23T08:35:49.654Z</time></trkpt><trkpt lat="39.8840985" lon="8.9610336"><ele>233.0</ele><time>2026-04-23T08:35:50.649Z</time></trkpt><trkpt lat="39.8840149" lon="8.9610186"><ele>233.0</ele><time>2026-04-23T08:35:51.653Z</time></trkpt><trkpt lat="39.8839277" lon="8.960999"><ele>234.00000000000003</ele><time>2026-04-23T08:35:52.648Z</time></trkpt><trkpt lat="39.8838404" lon="8.9609836"><ele>235.0</ele><time>2026-04-23T08:35:53.651Z</time></trkpt><trkpt lat="39.8837448" lon="8.9609782"><ele>236.0</ele><time>2026-04-23T08:35:54.652Z</time></trkpt><trkpt lat="39.8836625" lon="8.9609942"><ele>237.0</ele><time>2026-04-23T08:35:55.656Z</time></trkpt><trkpt lat="39.8835954" lon="8.9610263"><ele>238.00000000000003</ele><time>2026-04-23T08:35:56.669Z</time></trkpt><trkpt lat="39.8835244" lon="8.9610323"><ele>239.0</ele><time>2026-04-23T08:35:57.661Z</time></trkpt><trkpt lat="39.8834601" lon="8.9610186"><ele>240.16666666666669</ele><time>2026-04-23T08:35:58.647Z</time></trkpt><trkpt lat="39.8833757" lon="8.9609415"><ele>241.33333333333334</ele><time>2026-04-23T08:36:00.654Z</time></trkpt><trkpt lat="39.8833595" lon="8.9608472"><ele>242.5</ele><time>2026-04-23T08:36:01.659Z</time></trkpt><trkpt lat="39.8833508" lon="8.9607383"><ele>243.66666666666669</ele><time>2026-04-23T08:36:02.658Z</time></trkpt><trkpt lat="39.8833322" lon="8.9606285"><ele>244.83333333333334</ele><time>2026-04-23T08:36:03.661Z</time></trkpt><trkpt lat="39.8833112" lon="8.9605241"><ele>246.0</ele><time>2026-04-23T08:36:04.657Z</time></trkpt><trkpt lat="39.8832549" lon="8.960444"><ele>237.60000000000002</ele><time>2026-04-23T08:36:05.653Z</time></trkpt><trkpt lat="39.8831984" lon="8.960407"><ele>229.20000000000002</ele><time>2026-04-23T08:36:06.654Z</time></trkpt><trkpt lat="39.883092" lon="8.9604141"><ele>220.8</ele><time>2026-04-23T08:36:07.657Z</time></trkpt><trkpt lat="39.8829931" lon="8.960414"><ele>212.39999999999998</ele><time>2026-04-23T08:36:08.654Z</time></trkpt><trkpt lat="39.8828932" lon="8.9604145"><ele>204.0</ele><time>2026-04-23T08:36:09.658Z</time></trkpt><trkpt lat="39.8827944" lon="8.960421"><ele>204.0</ele><time>2026-04-23T08:36:10.648Z</time></trkpt><trkpt lat="39.882708" lon="8.9604515"><ele>204.0</ele><time>2026-04-23T08:36:11.651Z</time></trkpt><trkpt lat="39.8826135" lon="8.9604998"><ele>204.0</ele><time>2026-04-23T08:36:12.646Z</time></trkpt><trkpt lat="39.8825373" lon="8.9605381"><ele>204.0</ele><time>2026-04-23T08:36:13.652Z</time></trkpt><trkpt lat="39.882464" lon="8.9605502"><ele>204.0</ele><time>2026-04-23T08:36:14.649Z</time></trkpt><trkpt lat="39.8823915" lon="8.9605456"><ele>204.0</ele><time>2026-04-23T08:36:15.648Z</time></trkpt><trkpt lat="39.8823084" lon="8.9605056"><ele>205.79999999999998</ele><time>2026-04-23T08:36:16.653Z</time></trkpt><trkpt lat="39.8822302" lon="8.9604465"><ele>207.6</ele><time>2026-04-23T08:36:17.654Z</time></trkpt><trkpt lat="39.8821283" lon="8.960386"><ele>209.4</ele><time>2026-04-23T08:36:18.651Z</time></trkpt><trkpt lat="39.882021" lon="8.9603288"><ele>211.2</ele><time>2026-04-23T08:36:19.658Z</time></trkpt><trkpt lat="39.8819185" lon="8.960281"><ele>213.0</ele><time>2026-04-23T08:36:20.653Z</time></trkpt><trkpt lat="39.881827" lon="8.9602075"><ele>216.8</ele><time>2026-04-23T08:36:21.654Z</time></trkpt><trkpt lat="39.8817338" lon="8.9601227"><ele>220.60000000000002</ele><time>2026-04-23T08:36:22.65Z</time></trkpt><trkpt lat="39.8816513" lon="8.960039"><ele>224.39999999999998</ele><time>2026-04-23T08:36:23.652Z</time></trkpt><trkpt lat="39.8815658" lon="8.9599597"><ele>228.2</ele><time>2026-04-23T08:36:24.651Z</time></trkpt><trkpt lat="39.8814759" lon="8.9598842"><ele>232.0</ele><time>2026-04-23T08:36:25.654Z</time></trkpt><trkpt lat="39.8813923" lon="8.9598158"><ele>223.2</ele><time>2026-04-23T08:36:26.657Z</time></trkpt><trkpt lat="39.8813014" lon="8.9597458"><ele>214.39999999999998</ele><time>2026-04-23T08:36:27.653Z</time></trkpt><trkpt lat="39.8812278" lon="8.9596736"><ele>205.60000000000002</ele><time>2026-04-23T08:36:28.657Z</time></trkpt><trkpt lat="39.8811478" lon="8.9595888"><ele>196.8</ele><time>2026-04-23T08:36:29.653Z</time></trkpt><trkpt lat="39.8810723" lon="8.9594949"><ele>188.0</ele><time>2026-04-23T08:36:30.657Z</time></trkpt><trkpt lat="39.8810038" lon="8.9593972"><ele>188.0</ele><time>2026-04-23T08:36:31.647Z</time></trkpt><trkpt lat="39.8809366" lon="8.959304"><ele>188.0</ele><time>2026-04-23T08:36:32.649Z</time></trkpt><trkpt lat="39.8808689" lon="8.9592281"><ele>188.0</ele><time>2026-04-23T08:36:33.655Z</time></trkpt><trkpt lat="39.8807969" lon="8.9591724"><ele>188.0</ele><time>2026-04-23T08:36:34.659Z</time></trkpt><trkpt lat="39.8807161" lon="8.9591444"><ele>188.0</ele><time>2026-04-23T08:36:35.657Z</time></trkpt><trkpt lat="39.8806403" lon="8.9591221"><ele>188.0</ele><time>2026-04-23T08:36:36.658Z</time></trkpt><trkpt lat="39.8805638" lon="8.9591338"><ele>190.0</ele><time>2026-04-23T08:36:37.656Z</time></trkpt><trkpt lat="39.8804864" lon="8.9591674"><ele>192.0</ele><time>2026-04-23T08:36:38.651Z</time></trkpt><trkpt lat="39.8804151" lon="8.9592378"><ele>194.0</ele><time>2026-04-23T08:36:39.651Z</time></trkpt><trkpt lat="39.880358" lon="8.959317"><ele>196.0</ele><time>2026-04-23T08:36:40.654Z</time></trkpt><trkpt lat="39.8802978" lon="8.9594173"><ele>198.0</ele><time>2026-04-23T08:36:41.654Z</time></trkpt><trkpt lat="39.8802387" lon="8.9595218"><ele>198.0</ele><time>2026-04-23T08:36:42.654Z</time></trkpt><trkpt lat="39.8801838" lon="8.9596177"><ele>198.0</ele><time>2026-04-23T08:36:43.66Z</time></trkpt><trkpt lat="39.880117" lon="8.9597095"><ele>198.0</ele><time>2026-04-23T08:36:44.657Z</time></trkpt><trkpt lat="39.8800485" lon="8.9598059"><ele>198.0</ele><time>2026-04-23T08:36:45.655Z</time></trkpt><trkpt lat="39.8799812" lon="8.9599047"><ele>198.0</ele><time>2026-04-23T08:36:46.662Z</time></trkpt><trkpt lat="39.8799109" lon="8.9599962"><ele>195.4</ele><time>2026-04-23T08:36:47.663Z</time></trkpt><trkpt lat="39.879849" lon="8.9600957"><ele>192.8</ele><time>2026-04-23T08:36:48.654Z</time></trkpt><trkpt lat="39.8797805" lon="8.9601926"><ele>190.2</ele><time>2026-04-23T08:36:49.658Z</time></trkpt><trkpt lat="39.8797162" lon="8.960288"><ele>187.6</ele><time>2026-04-23T08:36:50.657Z</time></trkpt><trkpt lat="39.8796644" lon="8.9604031"><ele>185.0</ele><time>2026-04-23T08:36:51.655Z</time></trkpt><trkpt lat="39.8796146" lon="8.9605149"><ele>185.0</ele><time>2026-04-23T08:36:52.662Z</time></trkpt><trkpt lat="39.8795701" lon="8.9606186"><ele>185.0</ele><time>2026-04-23T08:36:53.655Z</time></trkpt><trkpt lat="39.8795314" lon="8.9607236"><ele>185.0</ele><time>2026-04-23T08:36:54.657Z</time></trkpt><trkpt lat="39.8794879" lon="8.9608322"><ele>185.0</ele><time>2026-04-23T08:36:55.662Z</time></trkpt><trkpt lat="39.8794562" lon="8.9609527"><ele>185.0</ele><time>2026-04-23T08:36:56.654Z</time></trkpt><trkpt lat="39.8794306" lon="8.9610634"><ele>181.0</ele><time>2026-04-23T08:36:57.661Z</time></trkpt><trkpt lat="39.8793845" lon="8.961155"><ele>177.0</ele><time>2026-04-23T08:36:58.652Z</time></trkpt><trkpt lat="39.8793162" lon="8.9612228"><ele>173.0</ele><time>2026-04-23T08:36:59.652Z</time></trkpt><trkpt lat="39.8792445" lon="8.9612895"><ele>169.0</ele><time>2026-04-23T08:37:00.656Z</time></trkpt><trkpt lat="39.8791778" lon="8.9613598"><ele>165.0</ele><time>2026-04-23T08:37:01.645Z</time></trkpt><trkpt lat="39.8791074" lon="8.9614471"><ele>161.0</ele><time>2026-04-23T08:37:02.644Z</time></trkpt><trkpt lat="39.8790423" lon="8.9615472"><ele>161.0</ele><time>2026-04-23T08:37:03.649Z</time></trkpt><trkpt lat="39.8789824" lon="8.9616298"><ele>161.0</ele><time>2026-04-23T08:37:04.641Z</time></trkpt><trkpt lat="39.8789213" lon="8.9617127"><ele>161.0</ele><time>2026-04-23T08:37:05.647Z</time></trkpt><trkpt lat="39.8788714" lon="8.9617921"><ele>161.0</ele><time>2026-04-23T08:37:06.655Z</time></trkpt><trkpt lat="39.8788307" lon="8.961877"><ele>161.0</ele><time>2026-04-23T08:37:07.655Z</time></trkpt><trkpt lat="39.8787958" lon="8.961954"><ele>161.0</ele><time>2026-04-23T08:37:08.662Z</time></trkpt><trkpt lat="39.8787544" lon="8.9620393"><ele>158.66666666666666</ele><time>2026-04-23T08:37:09.66Z</time></trkpt><trkpt lat="39.8786986" lon="8.9621143"><ele>156.33333333333331</ele><time>2026-04-23T08:37:10.657Z</time></trkpt><trkpt lat="39.8786363" lon="8.9621823"><ele>154.0</ele><time>2026-04-23T08:37:11.653Z</time></trkpt><trkpt lat="39.8785453" lon="8.9621951"><ele>151.66666666666666</ele><time>2026-04-23T08:37:12.666Z</time></trkpt><trkpt lat="39.8784549" lon="8.9621547"><ele>149.33333333333334</ele><time>2026-04-23T08:37:13.66Z</time></trkpt><trkpt lat="39.8783771" lon="8.9621111"><ele>147.0</ele><time>2026-04-23T08:37:14.654Z</time></trkpt><trkpt lat="39.8782989" lon="8.9620529"><ele>147.0</ele><time>2026-04-23T08:37:15.658Z</time></trkpt><trkpt lat="39.8782217" lon="8.9619651"><ele>147.0</ele><time>2026-04-23T08:37:16.657Z</time></trkpt><trkpt lat="39.8781677" lon="8.9618781"><ele>147.0</ele><time>2026-04-23T08:37:17.654Z</time></trkpt><trkpt lat="39.8781346" lon="8.9617937"><ele>147.0</ele><time>2026-04-23T08:37:18.653Z</time></trkpt><trkpt lat="39.8781367" lon="8.9617102"><ele>147.0</ele><time>2026-04-23T08:37:19.649Z</time></trkpt><trkpt lat="39.8781453" lon="8.9616118"><ele>147.0</ele><time>2026-04-23T08:37:20.647Z</time></trkpt><trkpt lat="39.8781844" lon="8.9615044"><ele>146.4</ele><time>2026-04-23T08:37:21.656Z</time></trkpt><trkpt lat="39.8782471" lon="8.9613991"><ele>145.79999999999998</ele><time>2026-04-23T08:37:22.651Z</time></trkpt><trkpt lat="39.878317" lon="8.9612999"><ele>145.2</ele><time>2026-04-23T08:37:23.652Z</time></trkpt><trkpt lat="39.8783872" lon="8.961194"><ele>144.6</ele><time>2026-04-23T08:37:24.658Z</time></trkpt><trkpt lat="39.8784526" lon="8.9610896"><ele>144.0</ele><time>2026-04-23T08:37:25.663Z</time></trkpt><trkpt lat="39.8785165" lon="8.9609986"><ele>144.0</ele><time>2026-04-23T08:37:26.66Z</time></trkpt><trkpt lat="39.8785697" lon="8.960903"><ele>144.0</ele><time>2026-04-23T08:37:27.664Z</time></trkpt><trkpt lat="39.8786268" lon="8.9608059"><ele>144.0</ele><time>2026-04-23T08:37:28.653Z</time></trkpt><trkpt lat="39.8786739" lon="8.9606855"><ele>144.0</ele><time>2026-04-23T08:37:29.658Z</time></trkpt><trkpt lat="39.8787187" lon="8.9605628"><ele>144.0</ele><time>2026-04-23T08:37:30.663Z</time></trkpt><trkpt lat="39.8787588" lon="8.9604436"><ele>144.0</ele><time>2026-04-23T08:37:31.653Z</time></trkpt><trkpt lat="39.8788015" lon="8.9603306"><ele>144.0</ele><time>2026-04-23T08:37:32.655Z</time></trkpt><trkpt lat="39.8788276" lon="8.9602084"><ele>144.0</ele><time>2026-04-23T08:37:33.658Z</time></trkpt><trkpt lat="39.8788554" lon="8.9600894"><ele>144.0</ele><time>2026-04-23T08:37:34.65Z</time></trkpt><trkpt lat="39.8788695" lon="8.959964"><ele>144.0</ele><time>2026-04-23T08:37:35.657Z</time></trkpt><trkpt lat="39.8788802" lon="8.9598397"><ele>143.6</ele><time>2026-04-23T08:37:36.663Z</time></trkpt><trkpt lat="39.8788777" lon="8.9597133"><ele>143.2</ele><time>2026-04-23T08:37:37.662Z</time></trkpt><trkpt lat="39.8788779" lon="8.9595792"><ele>142.79999999999998</ele><time>2026-04-23T08:37:38.661Z</time></trkpt><trkpt lat="39.8788762" lon="8.9594697"><ele>142.4</ele><time>2026-04-23T08:37:39.661Z</time></trkpt><trkpt lat="39.8788636" lon="8.9593721"><ele>142.0</ele><time>2026-04-23T08:37:40.655Z</time></trkpt><trkpt lat="39.8788264" lon="8.9592341"><ele>140.79999999999998</ele><time>2026-04-23T08:37:42.655Z</time></trkpt><trkpt lat="39.8787524" lon="8.959155"><ele>139.6</ele><time>2026-04-23T08:37:43.655Z</time></trkpt><trkpt lat="39.8786634" lon="8.9590867"><ele>138.39999999999998</ele><time>2026-04-23T08:37:44.657Z</time></trkpt><trkpt lat="39.8785671" lon="8.9590217"><ele>137.2</ele><time>2026-04-23T08:37:45.65Z</time></trkpt><trkpt lat="39.8784699" lon="8.9589638"><ele>136.0</ele><time>2026-04-23T08:37:46.663Z</time></trkpt><trkpt lat="39.8783736" lon="8.9589162"><ele>140.2</ele><time>2026-04-23T08:37:47.655Z</time></trkpt><trkpt lat="39.8782809" lon="8.9588721"><ele>144.39999999999998</ele><time>2026-04-23T08:37:48.655Z</time></trkpt><trkpt lat="39.8781866" lon="8.9588553"><ele>148.6</ele><time>2026-04-23T08:37:49.661Z</time></trkpt><trkpt lat="39.8780893" lon="8.958865"><ele>152.79999999999998</ele><time>2026-04-23T08:37:50.658Z</time></trkpt><trkpt lat="39.8779989" lon="8.9589032"><ele>157.0</ele><time>2026-04-23T08:37:51.658Z</time></trkpt><trkpt lat="39.8778971" lon="8.9589509"><ele>157.0</ele><time>2026-04-23T08:37:52.655Z</time></trkpt><trkpt lat="39.8777894" lon="8.9590032"><ele>157.0</ele><time>2026-04-23T08:37:53.662Z</time></trkpt><trkpt lat="39.8776926" lon="8.959032"><ele>157.0</ele><time>2026-04-23T08:37:54.649Z</time></trkpt><trkpt lat="39.8775887" lon="8.9590213"><ele>157.0</ele><time>2026-04-23T08:37:55.653Z</time></trkpt><trkpt lat="39.8774969" lon="8.9589929"><ele>157.0</ele><time>2026-04-23T08:37:56.655Z</time></trkpt><trkpt lat="39.8774116" lon="8.9589387"><ele>159.0</ele><time>2026-04-23T08:37:57.659Z</time></trkpt><trkpt lat="39.8773253" lon="8.9588781"><ele>161.0</ele><time>2026-04-23T08:37:58.651Z</time></trkpt><trkpt lat="39.8772422" lon="8.9588227"><ele>163.0</ele><time>2026-04-23T08:37:59.654Z</time></trkpt><trkpt lat="39.8771422" lon="8.9587886"><ele>165.0</ele><time>2026-04-23T08:38:00.658Z</time></trkpt><trkpt lat="39.8770426" lon="8.9587508"><ele>167.0</ele><time>2026-04-23T08:38:01.658Z</time></trkpt><trkpt lat="39.8769441" lon="8.9587372"><ele>167.0</ele><time>2026-04-23T08:38:02.656Z</time></trkpt><trkpt lat="39.8768639" lon="8.9587346"><ele>167.0</ele><time>2026-04-23T08:38:03.658Z</time></trkpt><trkpt lat="39.8767946" lon="8.9587245"><ele>167.0</ele><time>2026-04-23T08:38:04.657Z</time></trkpt><trkpt lat="39.8767286" lon="8.9586949"><ele>167.0</ele><time>2026-04-23T08:38:05.659Z</time></trkpt><trkpt lat="39.8766712" lon="8.9586435"><ele>167.0</ele><time>2026-04-23T08:38:06.651Z</time></trkpt><trkpt lat="39.8766358" lon="8.9585694"><ele>167.0</ele><time>2026-04-23T08:38:07.657Z</time></trkpt><trkpt lat="39.8766197" lon="8.9584809"><ele>167.0</ele><time>2026-04-23T08:38:08.656Z</time></trkpt><trkpt lat="39.8766221" lon="8.9583972"><ele>165.66666666666666</ele><time>2026-04-23T08:38:09.664Z</time></trkpt><trkpt lat="39.8766512" lon="8.9583099"><ele>164.33333333333331</ele><time>2026-04-23T08:38:10.659Z</time></trkpt><trkpt lat="39.876702" lon="8.9582206"><ele>163.0</ele><time>2026-04-23T08:38:11.662Z</time></trkpt><trkpt lat="39.8767889" lon="8.9581534"><ele>161.66666666666666</ele><time>2026-04-23T08:38:12.654Z</time></trkpt><trkpt lat="39.8768756" lon="8.9581087"><ele>160.33333333333334</ele><time>2026-04-23T08:38:13.663Z</time></trkpt><trkpt lat="39.8769635" lon="8.9580938"><ele>159.0</ele><time>2026-04-23T08:38:14.659Z</time></trkpt><trkpt lat="39.877063" lon="8.9580989"><ele>158.2</ele><time>2026-04-23T08:38:15.655Z</time></trkpt><trkpt lat="39.8771525" lon="8.9581098"><ele>157.4</ele><time>2026-04-23T08:38:16.665Z</time></trkpt><trkpt lat="39.8772369" lon="8.9581277"><ele>156.6</ele><time>2026-04-23T08:38:17.662Z</time></trkpt><trkpt lat="39.877336" lon="8.9581534"><ele>155.8</ele><time>2026-04-23T08:38:18.667Z</time></trkpt><trkpt lat="39.877437" lon="8.9581783"><ele>155.0</ele><time>2026-04-23T08:38:19.661Z</time></trkpt><trkpt lat="39.8775272" lon="8.9581837"><ele>154.0</ele><time>2026-04-23T08:38:20.653Z</time></trkpt><trkpt lat="39.8776097" lon="8.9581937"><ele>153.0</ele><time>2026-04-23T08:38:21.654Z</time></trkpt><trkpt lat="39.8776783" lon="8.9581922"><ele>152.0</ele><time>2026-04-23T08:38:22.658Z</time></trkpt><trkpt lat="39.8777643" lon="8.9581732"><ele>151.0</ele><time>2026-04-23T08:38:23.653Z</time></trkpt><trkpt lat="39.8778528" lon="8.9581431"><ele>150.0</ele><time>2026-04-23T08:38:24.661Z</time></trkpt><trkpt lat="39.8779509" lon="8.9580939"><ele>149.0</ele><time>2026-04-23T08:38:25.658Z</time></trkpt><trkpt lat="39.8780621" lon="8.9580455"><ele>149.0</ele><time>2026-04-23T08:38:26.659Z</time></trkpt><trkpt lat="39.8781749" lon="8.958004"><ele>149.0</ele><time>2026-04-23T08:38:27.656Z</time></trkpt><trkpt lat="39.8782966" lon="8.9579653"><ele>149.0</ele><time>2026-04-23T08:38:28.658Z</time></trkpt><trkpt lat="39.878415" lon="8.9579422"><ele>149.0</ele><time>2026-04-23T08:38:29.657Z</time></trkpt><trkpt lat="39.8785194" lon="8.9579139"><ele>146.0</ele><time>2026-04-23T08:38:30.66Z</time></trkpt><trkpt lat="39.878619" lon="8.9578817"><ele>143.0</ele><time>2026-04-23T08:38:31.66Z</time></trkpt><trkpt lat="39.8787203" lon="8.95783"><ele>140.0</ele><time>2026-04-23T08:38:32.656Z</time></trkpt><trkpt lat="39.8787974" lon="8.9577641"><ele>137.0</ele><time>2026-04-23T08:38:33.651Z</time></trkpt><trkpt lat="39.8788624" lon="8.9576869"><ele>134.0</ele><time>2026-04-23T08:38:34.655Z</time></trkpt><trkpt lat="39.8788995" lon="8.9575861"><ele>135.8</ele><time>2026-04-23T08:38:35.649Z</time></trkpt><trkpt lat="39.8788943" lon="8.9574587"><ele>137.60000000000002</ele><time>2026-04-23T08:38:36.65Z</time></trkpt><trkpt lat="39.8788919" lon="8.9573549"><ele>139.4</ele><time>2026-04-23T08:38:37.667Z</time></trkpt><trkpt lat="39.8788447" lon="8.9572529"><ele>141.20000000000002</ele><time>2026-04-23T08:38:38.657Z</time></trkpt><trkpt lat="39.8787655" lon="8.9571732"><ele>143.0</ele><time>2026-04-23T08:38:39.653Z</time></trkpt><trkpt lat="39.8786617" lon="8.957117"><ele>143.0</ele><time>2026-04-23T08:38:40.655Z</time></trkpt><trkpt lat="39.8785366" lon="8.957079"><ele>143.0</ele><time>2026-04-23T08:38:41.657Z</time></trkpt><trkpt lat="39.8784149" lon="8.9570044"><ele>143.0</ele><time>2026-04-23T08:38:42.651Z</time></trkpt><trkpt lat="39.8783197" lon="8.9569226"><ele>143.0</ele><time>2026-04-23T08:38:43.652Z</time></trkpt><trkpt lat="39.8782244" lon="8.9568446"><ele>145.66666666666666</ele><time>2026-04-23T08:38:44.662Z</time></trkpt><trkpt lat="39.8781624" lon="8.9567608"><ele>148.33333333333331</ele><time>2026-04-23T08:38:45.655Z</time></trkpt><trkpt lat="39.8781043" lon="8.9566948"><ele>151.0</ele><time>2026-04-23T08:38:46.65Z</time></trkpt><trkpt lat="39.8780295" lon="8.9566498"><ele>153.66666666666666</ele><time>2026-04-23T08:38:47.657Z</time></trkpt><trkpt lat="39.8779401" lon="8.9566461"><ele>156.33333333333334</ele><time>2026-04-23T08:38:48.652Z</time></trkpt><trkpt lat="39.8778375" lon="8.9566725"><ele>159.0</ele><time>2026-04-23T08:38:49.653Z</time></trkpt><trkpt lat="39.8777321" lon="8.9567066"><ele>160.75</ele><time>2026-04-23T08:38:50.645Z</time></trkpt><trkpt lat="39.8776216" lon="8.9567555"><ele>162.5</ele><time>2026-04-23T08:38:51.649Z</time></trkpt><trkpt lat="39.8775132" lon="8.9568178"><ele>164.25</ele><time>2026-04-23T08:38:52.646Z</time></trkpt><trkpt lat="39.8774092" lon="8.9568787"><ele>166.0</ele><time>2026-04-23T08:38:53.651Z</time></trkpt><trkpt lat="39.8773094" lon="8.9569423"><ele>167.25</ele><time>2026-04-23T08:38:54.651Z</time></trkpt><trkpt lat="39.8772065" lon="8.957004"><ele>168.5</ele><time>2026-04-23T08:38:55.656Z</time></trkpt><trkpt lat="39.8770902" lon="8.9570794"><ele>169.75</ele><time>2026-04-23T08:38:56.655Z</time></trkpt><trkpt lat="39.8769608" lon="8.9571449"><ele>171.0</ele><time>2026-04-23T08:38:57.656Z</time></trkpt><trkpt lat="39.8768341" lon="8.9572184"><ele>170.5</ele><time>2026-04-23T08:38:58.656Z</time></trkpt><trkpt lat="39.876705" lon="8.9572908"><ele>170.0</ele><time>2026-04-23T08:38:59.659Z</time></trkpt><trkpt lat="39.87655" lon="8.9573577"><ele>169.5</ele><time>2026-04-23T08:39:00.66Z</time></trkpt><trkpt lat="39.87642" lon="8.9574181"><ele>169.0</ele><time>2026-04-23T08:39:01.658Z</time></trkpt><trkpt lat="39.8762887" lon="8.9574934"><ele>171.0</ele><time>2026-04-23T08:39:02.655Z</time></trkpt><trkpt lat="39.8761654" lon="8.9575396"><ele>173.0</ele><time>2026-04-23T08:39:03.661Z</time></trkpt><trkpt lat="39.8760605" lon="8.9576033"><ele>175.0</ele><time>2026-04-23T08:39:04.657Z</time></trkpt><trkpt lat="39.8759562" lon="8.9576582"><ele>177.0</ele><time>2026-04-23T08:39:05.653Z</time></trkpt><trkpt lat="39.8758607" lon="8.9577231"><ele>177.0</ele><time>2026-04-23T08:39:06.655Z</time></trkpt><trkpt lat="39.8757596" lon="8.9577613"><ele>177.0</ele><time>2026-04-23T08:39:07.656Z</time></trkpt><trkpt lat="39.8756352" lon="8.9578066"><ele>177.0</ele><time>2026-04-23T08:39:08.653Z</time></trkpt><trkpt lat="39.8755221" lon="8.9577751"><ele>177.0</ele><time>2026-04-23T08:39:09.659Z</time></trkpt><trkpt lat="39.8753789" lon="8.9577239"><ele>177.0</ele><time>2026-04-23T08:39:10.656Z</time></trkpt><trkpt lat="39.87526" lon="8.9577134"><ele>177.0</ele><time>2026-04-23T08:39:11.658Z</time></trkpt><trkpt lat="39.8751372" lon="8.9577077"><ele>177.0</ele><time>2026-04-23T08:39:12.654Z</time></trkpt><trkpt lat="39.8749974" lon="8.9576933"><ele>177.0</ele><time>2026-04-23T08:39:13.661Z</time></trkpt><trkpt lat="39.8748627" lon="8.9576822"><ele>180.0</ele><time>2026-04-23T08:39:14.659Z</time></trkpt><trkpt lat="39.8747356" lon="8.9576718"><ele>183.0</ele><time>2026-04-23T08:39:15.658Z</time></trkpt><trkpt lat="39.8745972" lon="8.9576539"><ele>186.0</ele><time>2026-04-23T08:39:16.66Z</time></trkpt><trkpt lat="39.8744715" lon="8.957649"><ele>189.0</ele><time>2026-04-23T08:39:17.66Z</time></trkpt><trkpt lat="39.8743595" lon="8.9576231"><ele>191.5</ele><time>2026-04-23T08:39:18.654Z</time></trkpt><trkpt lat="39.8742182" lon="8.9576139"><ele>194.0</ele><time>2026-04-23T08:39:19.657Z</time></trkpt><trkpt lat="39.8740903" lon="8.9575987"><ele>196.5</ele><time>2026-04-23T08:39:20.66Z</time></trkpt><trkpt lat="39.8739635" lon="8.9575833"><ele>199.0</ele><time>2026-04-23T08:39:21.654Z</time></trkpt><trkpt lat="39.8738312" lon="8.9575962"><ele>199.0</ele><time>2026-04-23T08:39:22.657Z</time></trkpt><trkpt lat="39.873675" lon="8.9575965"><ele>199.0</ele><time>2026-04-23T08:39:23.657Z</time></trkpt><trkpt lat="39.8735195" lon="8.9576079"><ele>199.0</ele><time>2026-04-23T08:39:24.653Z</time></trkpt><trkpt lat="39.8733896" lon="8.9576178"><ele>199.0</ele><time>2026-04-23T08:39:25.661Z</time></trkpt><trkpt lat="39.8732537" lon="8.9576078"><ele>199.25</ele><time>2026-04-23T08:39:26.654Z</time></trkpt><trkpt lat="39.8731047" lon="8.9576003"><ele>199.5</ele><time>2026-04-23T08:39:27.663Z</time></trkpt><trkpt lat="39.8729854" lon="8.9576044"><ele>199.75</ele><time>2026-04-23T08:39:28.658Z</time></trkpt><trkpt lat="39.8728785" lon="8.9575815"><ele>200.0</ele><time>2026-04-23T08:39:29.65Z</time></trkpt><trkpt lat="39.8727574" lon="8.9575095"><ele>200.0</ele><time>2026-04-23T08:39:30.657Z</time></trkpt><trkpt lat="39.8726371" lon="8.9574284"><ele>200.0</ele><time>2026-04-23T08:39:31.652Z</time></trkpt><trkpt lat="39.8725448" lon="8.9573203"><ele>200.0</ele><time>2026-04-23T08:39:32.652Z</time></trkpt><trkpt lat="39.872428" lon="8.9571623"><ele>200.0</ele><time>2026-04-23T08:39:33.661Z</time></trkpt><trkpt lat="39.8723401" lon="8.9570487"><ele>200.2</ele><time>2026-04-23T08:39:34.654Z</time></trkpt><trkpt lat="39.8722561" lon="8.9569656"><ele>200.4</ele><time>2026-04-23T08:39:35.655Z</time></trkpt><trkpt lat="39.8721797" lon="8.9568799"><ele>200.60000000000002</ele><time>2026-04-23T08:39:36.661Z</time></trkpt><trkpt lat="39.8721028" lon="8.9567796"><ele>200.8</ele><time>2026-04-23T08:39:37.655Z</time></trkpt><trkpt lat="39.8720096" lon="8.9567362"><ele>201.0</ele><time>2026-04-23T08:39:38.652Z</time></trkpt><trkpt lat="39.871934" lon="8.9566914"><ele>202.8</ele><time>2026-04-23T08:39:39.659Z</time></trkpt><trkpt lat="39.8718536" lon="8.9565949"><ele>204.60000000000002</ele><time>2026-04-23T08:39:41.654Z</time></trkpt><trkpt lat="39.8718047" lon="8.9565285"><ele>206.4</ele><time>2026-04-23T08:39:42.659Z</time></trkpt><trkpt lat="39.8717428" lon="8.9564419"><ele>208.2</ele><time>2026-04-23T08:39:43.653Z</time></trkpt><trkpt lat="39.8716679" lon="8.9563576"><ele>210.0</ele><time>2026-04-23T08:39:44.651Z</time></trkpt><trkpt lat="39.8715674" lon="8.9562386"><ele>211.33333333333331</ele><time>2026-04-23T08:39:45.665Z</time></trkpt><trkpt lat="39.8714554" lon="8.9561097"><ele>212.66666666666666</ele><time>2026-04-23T08:39:46.659Z</time></trkpt><trkpt lat="39.8713128" lon="8.9559736"><ele>214.0</ele><time>2026-04-23T08:39:47.656Z</time></trkpt><trkpt lat="39.8711612" lon="8.9558468"><ele>214.5</ele><time>2026-04-23T08:39:48.66Z</time></trkpt><trkpt lat="39.8710099" lon="8.9557601"><ele>215.0</ele><time>2026-04-23T08:39:49.658Z</time></trkpt><trkpt lat="39.8708961" lon="8.9556825"><ele>215.5</ele><time>2026-04-23T08:39:50.654Z</time></trkpt><trkpt lat="39.8707883" lon="8.9556324"><ele>216.0</ele><time>2026-04-23T08:39:51.657Z</time></trkpt><trkpt lat="39.8706963" lon="8.9555871"><ele>217.5</ele><time>2026-04-23T08:39:52.655Z</time></trkpt><trkpt lat="39.8706182" lon="8.9555494"><ele>219.0</ele><time>2026-04-23T08:39:53.666Z</time></trkpt><trkpt lat="39.870537" lon="8.9555271"><ele>220.5</ele><time>2026-04-23T08:39:54.662Z</time></trkpt><trkpt lat="39.870457" lon="8.9555078"><ele>222.0</ele><time>2026-04-23T08:39:55.658Z</time></trkpt><trkpt lat="39.8703822" lon="8.955477"><ele>223.5</ele><time>2026-04-23T08:39:56.663Z</time></trkpt><trkpt lat="39.8703096" lon="8.9554473"><ele>225.0</ele><time>2026-04-23T08:39:57.669Z</time></trkpt><trkpt lat="39.8702456" lon="8.9554387"><ele>225.0</ele><time>2026-04-23T08:39:58.66Z</time></trkpt><trkpt lat="39.8701804" lon="8.9554291"><ele>225.0</ele><time>2026-04-23T08:39:59.667Z</time></trkpt><trkpt lat="39.8701151" lon="8.9554195"><ele>225.0</ele><time>2026-04-23T08:40:00.667Z</time></trkpt><trkpt lat="39.8700032" lon="8.955401"><ele>225.0</ele><time>2026-04-23T08:40:02.664Z</time></trkpt><trkpt lat="39.8699327" lon="8.9553767"><ele>225.0</ele><time>2026-04-23T08:40:03.656Z</time></trkpt><trkpt lat="39.8698577" lon="8.955352"><ele>225.0</ele><time>2026-04-23T08:40:04.657Z</time></trkpt><trkpt lat="39.8697849" lon="8.9553309"><ele>225.33333333333334</ele><time>2026-04-23T08:40:05.656Z</time></trkpt><trkpt lat="39.8697061" lon="8.9553075"><ele>225.66666666666669</ele><time>2026-04-23T08:40:06.654Z</time></trkpt><trkpt lat="39.8696243" lon="8.9552909"><ele>226.0</ele><time>2026-04-23T08:40:07.658Z</time></trkpt><trkpt lat="39.8695392" lon="8.955263"><ele>226.33333333333334</ele><time>2026-04-23T08:40:08.651Z</time></trkpt><trkpt lat="39.8694583" lon="8.9552305"><ele>226.66666666666669</ele><time>2026-04-23T08:40:09.658Z</time></trkpt><trkpt lat="39.869388" lon="8.9551945"><ele>227.0</ele><time>2026-04-23T08:40:10.657Z</time></trkpt><trkpt lat="39.869313" lon="8.9551454"><ele>226.66666666666669</ele><time>2026-04-23T08:40:11.655Z</time></trkpt><trkpt lat="39.8692547" lon="8.9550964"><ele>226.33333333333334</ele><time>2026-04-23T08:40:12.656Z</time></trkpt><trkpt lat="39.8691833" lon="8.9550257"><ele>226.0</ele><time>2026-04-23T08:40:13.661Z</time></trkpt><trkpt lat="39.8691298" lon="8.954942"><ele>225.66666666666669</ele><time>2026-04-23T08:40:14.658Z</time></trkpt><trkpt lat="39.8690591" lon="8.9548677"><ele>225.33333333333334</ele><time>2026-04-23T08:40:15.657Z</time></trkpt><trkpt lat="39.8689861" lon="8.9548046"><ele>225.0</ele><time>2026-04-23T08:40:16.661Z</time></trkpt><trkpt lat="39.8689209" lon="8.9547313"><ele>224.5</ele><time>2026-04-23T08:40:17.659Z</time></trkpt><trkpt lat="39.8688438" lon="8.9546475"><ele>224.0</ele><time>2026-04-23T08:40:18.661Z</time></trkpt><trkpt lat="39.8687877" lon="8.9545568"><ele>223.5</ele><time>2026-04-23T08:40:19.661Z</time></trkpt><trkpt lat="39.8687455" lon="8.9544497"><ele>223.0</ele><time>2026-04-23T08:40:20.653Z</time></trkpt><trkpt lat="39.8687229" lon="8.9543573"><ele>222.5</ele><time>2026-04-23T08:40:21.659Z</time></trkpt><trkpt lat="39.8687046" lon="8.9542755"><ele>222.0</ele><time>2026-04-23T08:40:22.655Z</time></trkpt><trkpt lat="39.8686914" lon="8.954192"><ele>220.39999999999998</ele><time>2026-04-23T08:40:23.647Z</time></trkpt><trkpt lat="39.8686396" lon="8.9540302"><ele>218.79999999999998</ele><time>2026-04-23T08:40:25.662Z</time></trkpt><trkpt lat="39.8686082" lon="8.9539246"><ele>217.2</ele><time>2026-04-23T08:40:26.658Z</time></trkpt><trkpt lat="39.8685859" lon="8.9538092"><ele>215.6</ele><time>2026-04-23T08:40:27.659Z</time></trkpt><trkpt lat="39.8685467" lon="8.953679"><ele>214.0</ele><time>2026-04-23T08:40:28.665Z</time></trkpt><trkpt lat="39.8685135" lon="8.9535595"><ele>214.0</ele><time>2026-04-23T08:40:29.664Z</time></trkpt><trkpt lat="39.8684798" lon="8.9534345"><ele>213.99999999999997</ele><time>2026-04-23T08:40:30.657Z</time></trkpt><trkpt lat="39.8684414" lon="8.9533143"><ele>213.99999999999997</ele><time>2026-04-23T08:40:31.661Z</time></trkpt><trkpt lat="39.8684034" lon="8.9532084"><ele>214.0</ele><time>2026-04-23T08:40:32.664Z</time></trkpt><trkpt lat="39.8683627" lon="8.9530914"><ele>214.0</ele><time>2026-04-23T08:40:33.656Z</time></trkpt><trkpt lat="39.8683163" lon="8.9529672"><ele>216.25</ele><time>2026-04-23T08:40:34.657Z</time></trkpt><trkpt lat="39.8682739" lon="8.9528213"><ele>218.5</ele><time>2026-04-23T08:40:35.664Z</time></trkpt><trkpt lat="39.8682294" lon="8.9526713"><ele>220.75</ele><time>2026-04-23T08:40:36.653Z</time></trkpt><trkpt lat="39.8681787" lon="8.95251"><ele>223.0</ele><time>2026-04-23T08:40:37.651Z</time></trkpt><trkpt lat="39.8681321" lon="8.9523382"><ele>224.0</ele><time>2026-04-23T08:40:38.658Z</time></trkpt><trkpt lat="39.8680865" lon="8.9521671"><ele>225.0</ele><time>2026-04-23T08:40:39.657Z</time></trkpt><trkpt lat="39.8680712" lon="8.9519917"><ele>226.0</ele><time>2026-04-23T08:40:40.657Z</time></trkpt><trkpt lat="39.8680389" lon="8.951876"><ele>227.0</ele><time>2026-04-23T08:40:41.651Z</time></trkpt><trkpt lat="39.8680031" lon="8.9517324"><ele>227.50000000000003</ele><time>2026-04-23T08:40:42.655Z</time></trkpt><trkpt lat="39.8679716" lon="8.9516211"><ele>228.0</ele><time>2026-04-23T08:40:43.663Z</time></trkpt><trkpt lat="39.8679231" lon="8.9515508"><ele>228.5</ele><time>2026-04-23T08:40:44.65Z</time></trkpt><trkpt lat="39.8679026" lon="8.951473"><ele>229.0</ele><time>2026-04-23T08:40:45.653Z</time></trkpt><trkpt lat="39.8678993" lon="8.9513795"><ele>229.50000000000003</ele><time>2026-04-23T08:40:46.66Z</time></trkpt><trkpt lat="39.8678917" lon="8.9512871"><ele>230.0</ele><time>2026-04-23T08:40:47.659Z</time></trkpt><trkpt lat="39.867874" lon="8.9511341"><ele>230.0</ele><time>2026-04-23T08:40:49.654Z</time></trkpt><trkpt lat="39.8678647" lon="8.9509927"><ele>230.0</ele><time>2026-04-23T08:40:51.659Z</time></trkpt><trkpt lat="39.8679187" lon="8.9508806"><ele>230.0</ele><time>2026-04-23T08:40:53.649Z</time></trkpt><trkpt lat="39.8680061" lon="8.9508306"><ele>230.0</ele><time>2026-04-23T08:40:54.661Z</time></trkpt><trkpt lat="39.8681223" lon="8.9507634"><ele>230.0</ele><time>2026-04-23T08:40:55.653Z</time></trkpt><trkpt lat="39.8682409" lon="8.9506823"><ele>229.75</ele><time>2026-04-23T08:40:56.659Z</time></trkpt><trkpt lat="39.8683576" lon="8.9506025"><ele>229.5</ele><time>2026-04-23T08:40:57.657Z</time></trkpt><trkpt lat="39.8684673" lon="8.9505167"><ele>229.25</ele><time>2026-04-23T08:40:58.658Z</time></trkpt><trkpt lat="39.8685749" lon="8.9504443"><ele>229.0</ele><time>2026-04-23T08:40:59.662Z</time></trkpt><trkpt lat="39.8686729" lon="8.9503664"><ele>229.2</ele><time>2026-04-23T08:41:00.656Z</time></trkpt><trkpt lat="39.8687722" lon="8.9502827"><ele>229.39999999999998</ele><time>2026-04-23T08:41:01.655Z</time></trkpt><trkpt lat="39.8688564" lon="8.9502123"><ele>229.6</ele><time>2026-04-23T08:41:02.654Z</time></trkpt><trkpt lat="39.8689379" lon="8.9501509"><ele>229.8</ele><time>2026-04-23T08:41:03.656Z</time></trkpt><trkpt lat="39.8690225" lon="8.9500544"><ele>230.0</ele><time>2026-04-23T08:41:05.649Z</time></trkpt><trkpt lat="39.8690347" lon="8.9499417"><ele>230.0</ele><time>2026-04-23T08:41:07.659Z</time></trkpt><trkpt lat="39.8690009" lon="8.9498543"><ele>230.0</ele><time>2026-04-23T08:41:08.653Z</time></trkpt><trkpt lat="39.8689443" lon="8.9497358"><ele>230.0</ele><time>2026-04-23T08:41:09.645Z</time></trkpt><trkpt lat="39.8688595" lon="8.9496042"><ele>230.0</ele><time>2026-04-23T08:41:10.66Z</time></trkpt><trkpt lat="39.8687724" lon="8.9494311"><ele>230.0</ele><time>2026-04-23T08:41:11.645Z</time></trkpt><trkpt lat="39.8686827" lon="8.9492414"><ele>230.0</ele><time>2026-04-23T08:41:12.654Z</time></trkpt><trkpt lat="39.8686066" lon="8.9490599"><ele>230.0</ele><time>2026-04-23T08:41:13.661Z</time></trkpt><trkpt lat="39.8685056" lon="8.9488393"><ele>228.25</ele><time>2026-04-23T08:41:14.659Z</time></trkpt><trkpt lat="39.8684181" lon="8.9486941"><ele>226.5</ele><time>2026-04-23T08:41:15.649Z</time></trkpt><trkpt lat="39.8683329" lon="8.9485416"><ele>224.75</ele><time>2026-04-23T08:41:16.652Z</time></trkpt><trkpt lat="39.8682764" lon="8.9483913"><ele>223.0</ele><time>2026-04-23T08:41:17.653Z</time></trkpt><trkpt lat="39.8681762" lon="8.9482601"><ele>222.5</ele><time>2026-04-23T08:41:18.659Z</time></trkpt><trkpt lat="39.8681555" lon="8.9480967"><ele>222.0</ele><time>2026-04-23T08:41:19.652Z</time></trkpt><trkpt lat="39.8681364" lon="8.9479198"><ele>221.5</ele><time>2026-04-23T08:41:20.649Z</time></trkpt><trkpt lat="39.8681069" lon="8.9477547"><ele>221.0</ele><time>2026-04-23T08:41:21.661Z</time></trkpt><trkpt lat="39.8680793" lon="8.9475841"><ele>219.5</ele><time>2026-04-23T08:41:22.653Z</time></trkpt><trkpt lat="39.8680542" lon="8.9474138"><ele>218.0</ele><time>2026-04-23T08:41:23.656Z</time></trkpt><trkpt lat="39.8680221" lon="8.9472548"><ele>216.5</ele><time>2026-04-23T08:41:24.659Z</time></trkpt><trkpt lat="39.8679882" lon="8.9471006"><ele>215.0</ele><time>2026-04-23T08:41:25.663Z</time></trkpt><trkpt lat="39.86795" lon="8.9469487"><ele>215.0</ele><time>2026-04-23T08:41:26.657Z</time></trkpt><trkpt lat="39.8678819" lon="8.946815"><ele>215.0</ele><time>2026-04-23T08:41:27.662Z</time></trkpt><trkpt lat="39.867795" lon="8.9466576"><ele>215.0</ele><time>2026-04-23T08:41:28.652Z</time></trkpt><trkpt lat="39.8677007" lon="8.9464968"><ele>215.0</ele><time>2026-04-23T08:41:29.652Z</time></trkpt><trkpt lat="39.8675953" lon="8.9463313"><ele>212.33333333333334</ele><time>2026-04-23T08:41:30.654Z</time></trkpt><trkpt lat="39.8674753" lon="8.9462073"><ele>209.66666666666669</ele><time>2026-04-23T08:41:31.652Z</time></trkpt><trkpt lat="39.8673767" lon="8.9459884"><ele>207.0</ele><time>2026-04-23T08:41:32.652Z</time></trkpt><trkpt lat="39.867245" lon="8.9458236"><ele>206.66666666666669</ele><time>2026-04-23T08:41:33.643Z</time></trkpt><trkpt lat="39.8671176" lon="8.945645"><ele>206.33333333333334</ele><time>2026-04-23T08:41:34.649Z</time></trkpt><trkpt lat="39.8670042" lon="8.9454847"><ele>206.0</ele><time>2026-04-23T08:41:35.651Z</time></trkpt><trkpt lat="39.8669079" lon="8.9453156"><ele>206.0</ele><time>2026-04-23T08:41:36.654Z</time></trkpt><trkpt lat="39.8667905" lon="8.9451545"><ele>206.0</ele><time>2026-04-23T08:41:37.661Z</time></trkpt><trkpt lat="39.8666854" lon="8.9449909"><ele>206.0</ele><time>2026-04-23T08:41:38.661Z</time></trkpt><trkpt lat="39.8665975" lon="8.9447996"><ele>206.0</ele><time>2026-04-23T08:41:39.655Z</time></trkpt><trkpt lat="39.866548" lon="8.9446358"><ele>206.0</ele><time>2026-04-23T08:41:40.65Z</time></trkpt><trkpt lat="39.8664858" lon="8.9444436"><ele>206.0</ele><time>2026-04-23T08:41:41.656Z</time></trkpt><trkpt lat="39.8664367" lon="8.9442534"><ele>206.0</ele><time>2026-04-23T08:41:42.654Z</time></trkpt><trkpt lat="39.8663162" lon="8.9441165"><ele>204.66666666666669</ele><time>2026-04-23T08:41:43.662Z</time></trkpt><trkpt lat="39.866209" lon="8.9439689"><ele>203.33333333333331</ele><time>2026-04-23T08:41:44.649Z</time></trkpt><trkpt lat="39.86608" lon="8.9438391"><ele>202.0</ele><time>2026-04-23T08:41:45.655Z</time></trkpt><trkpt lat="39.8659855" lon="8.9437202"><ele>201.0</ele><time>2026-04-23T08:41:46.656Z</time></trkpt><trkpt lat="39.8659065" lon="8.9435887"><ele>200.0</ele><time>2026-04-23T08:41:47.668Z</time></trkpt><trkpt lat="39.8658618" lon="8.9434206"><ele>199.0</ele><time>2026-04-23T08:41:48.662Z</time></trkpt><trkpt lat="39.8657878" lon="8.9432502"><ele>198.0</ele><time>2026-04-23T08:41:49.653Z</time></trkpt><trkpt lat="39.8657565" lon="8.9430844"><ele>198.0</ele><time>2026-04-23T08:41:50.663Z</time></trkpt><trkpt lat="39.8657339" lon="8.9429353"><ele>198.0</ele><time>2026-04-23T08:41:51.656Z</time></trkpt><trkpt lat="39.8657444" lon="8.9428408"><ele>198.0</ele><time>2026-04-23T08:41:52.658Z</time></trkpt><trkpt lat="39.8657808" lon="8.9427165"><ele>198.0</ele><time>2026-04-23T08:41:53.663Z</time></trkpt><trkpt lat="39.8657785" lon="8.9426182"><ele>198.0</ele><time>2026-04-23T08:41:54.662Z</time></trkpt><trkpt lat="39.8657774" lon="8.9425261"><ele>198.0</ele><time>2026-04-23T08:41:55.655Z</time></trkpt><trkpt lat="39.8657202" lon="8.9424496"><ele>200.0</ele><time>2026-04-23T08:41:58.656Z</time></trkpt><trkpt lat="39.8656337" lon="8.9423949"><ele>202.0</ele><time>2026-04-23T08:41:59.655Z</time></trkpt><trkpt lat="39.8655121" lon="8.9423358"><ele>204.0</ele><time>2026-04-23T08:42:00.65Z</time></trkpt><trkpt lat="39.8653812" lon="8.9423137"><ele>206.0</ele><time>2026-04-23T08:42:01.653Z</time></trkpt><trkpt lat="39.8652284" lon="8.9422648"><ele>203.0</ele><time>2026-04-23T08:42:02.652Z</time></trkpt><trkpt lat="39.8650565" lon="8.9422162"><ele>200.0</ele><time>2026-04-23T08:42:03.648Z</time></trkpt><trkpt lat="39.8648519" lon="8.9421692"><ele>197.0</ele><time>2026-04-23T08:42:04.653Z</time></trkpt><trkpt lat="39.8646882" lon="8.9420746"><ele>197.0</ele><time>2026-04-23T08:42:05.656Z</time></trkpt><trkpt lat="39.8645255" lon="8.9419559"><ele>197.0</ele><time>2026-04-23T08:42:06.658Z</time></trkpt><trkpt lat="39.8644099" lon="8.9417655"><ele>197.0</ele><time>2026-04-23T08:42:07.651Z</time></trkpt><trkpt lat="39.8643289" lon="8.9415613"><ele>194.33333333333334</ele><time>2026-04-23T08:42:08.649Z</time></trkpt><trkpt lat="39.8642109" lon="8.9413706"><ele>191.66666666666669</ele><time>2026-04-23T08:42:09.66Z</time></trkpt><trkpt lat="39.8641408" lon="8.9411927"><ele>189.0</ele><time>2026-04-23T08:42:10.663Z</time></trkpt><trkpt lat="39.8640532" lon="8.941024"><ele>189.0</ele><time>2026-04-23T08:42:11.656Z</time></trkpt><trkpt lat="39.8639678" lon="8.9408342"><ele>189.0</ele><time>2026-04-23T08:42:12.66Z</time></trkpt><trkpt lat="39.8638976" lon="8.9406093"><ele>189.0</ele><time>2026-04-23T08:42:13.658Z</time></trkpt><trkpt lat="39.8638091" lon="8.9403699"><ele>189.0</ele><time>2026-04-23T08:42:14.658Z</time></trkpt><trkpt lat="39.8637055" lon="8.9401794"><ele>189.0</ele><time>2026-04-23T08:42:15.654Z</time></trkpt><trkpt lat="39.8635768" lon="8.9400098"><ele>189.0</ele><time>2026-04-23T08:42:16.665Z</time></trkpt><trkpt lat="39.8634425" lon="8.9398935"><ele>187.0</ele><time>2026-04-23T08:42:17.663Z</time></trkpt><trkpt lat="39.8632726" lon="8.9397898"><ele>185.0</ele><time>2026-04-23T08:42:18.657Z</time></trkpt><trkpt lat="39.8630904" lon="8.9396961"><ele>183.0</ele><time>2026-04-23T08:42:19.658Z</time></trkpt><trkpt lat="39.8629162" lon="8.9396138"><ele>183.0</ele><time>2026-04-23T08:42:20.662Z</time></trkpt><trkpt lat="39.8627751" lon="8.9394764"><ele>183.0</ele><time>2026-04-23T08:42:21.651Z</time></trkpt><trkpt lat="39.8626222" lon="8.9393684"><ele>183.0</ele><time>2026-04-23T08:42:22.661Z</time></trkpt><trkpt lat="39.862482" lon="8.939215"><ele>183.33333333333334</ele><time>2026-04-23T08:42:23.657Z</time></trkpt><trkpt lat="39.8623714" lon="8.9390515"><ele>183.66666666666669</ele><time>2026-04-23T08:42:24.651Z</time></trkpt><trkpt lat="39.8622346" lon="8.9389203"><ele>184.0</ele><time>2026-04-23T08:42:25.662Z</time></trkpt><trkpt lat="39.8621061" lon="8.9387521"><ele>184.0</ele><time>2026-04-23T08:42:26.649Z</time></trkpt><trkpt lat="39.8620025" lon="8.9385788"><ele>184.0</ele><time>2026-04-23T08:42:27.652Z</time></trkpt><trkpt lat="39.8619214" lon="8.9384121"><ele>184.0</ele><time>2026-04-23T08:42:28.646Z</time></trkpt><trkpt lat="39.8617919" lon="8.9382961"><ele>183.0</ele><time>2026-04-23T08:42:29.659Z</time></trkpt><trkpt lat="39.8616511" lon="8.9381909"><ele>182.0</ele><time>2026-04-23T08:42:30.648Z</time></trkpt><trkpt lat="39.8615067" lon="8.9380984"><ele>181.0</ele><time>2026-04-23T08:42:31.655Z</time></trkpt><trkpt lat="39.8613458" lon="8.9380406"><ele>181.0</ele><time>2026-04-23T08:42:32.657Z</time></trkpt><trkpt lat="39.8611705" lon="8.9380336"><ele>181.0</ele><time>2026-04-23T08:42:33.657Z</time></trkpt><trkpt lat="39.8609651" lon="8.9380418"><ele>181.0</ele><time>2026-04-23T08:42:34.661Z</time></trkpt><trkpt lat="39.8607754" lon="8.9380618"><ele>181.66666666666669</ele><time>2026-04-23T08:42:35.646Z</time></trkpt><trkpt lat="39.8605815" lon="8.938131"><ele>182.33333333333334</ele><time>2026-04-23T08:42:36.649Z</time></trkpt><trkpt lat="39.8604168" lon="8.9382144"><ele>183.0</ele><time>2026-04-23T08:42:37.653Z</time></trkpt><trkpt lat="39.8602564" lon="8.9383171"><ele>184.33333333333334</ele><time>2026-04-23T08:42:38.651Z</time></trkpt><trkpt lat="39.8601363" lon="8.9384496"><ele>185.66666666666669</ele><time>2026-04-23T08:42:39.655Z</time></trkpt><trkpt lat="39.8599952" lon="8.9385962"><ele>187.0</ele><time>2026-04-23T08:42:40.651Z</time></trkpt><trkpt lat="39.8598769" lon="8.9387228"><ele>187.0</ele><time>2026-04-23T08:42:41.647Z</time></trkpt><trkpt lat="39.8597747" lon="8.9388927"><ele>187.0</ele><time>2026-04-23T08:42:42.649Z</time></trkpt><trkpt lat="39.8596787" lon="8.9390345"><ele>187.0</ele><time>2026-04-23T08:42:43.645Z</time></trkpt><trkpt lat="39.8596096" lon="8.9391911"><ele>187.0</ele><time>2026-04-23T08:42:44.648Z</time></trkpt><trkpt lat="39.8595376" lon="8.939365"><ele>186.0</ele><time>2026-04-23T08:42:45.643Z</time></trkpt><trkpt lat="39.859496" lon="8.9394762"><ele>185.0</ele><time>2026-04-23T08:42:46.646Z</time></trkpt><trkpt lat="39.8594533" lon="8.9396278"><ele>184.0</ele><time>2026-04-23T08:42:47.647Z</time></trkpt><trkpt lat="39.8593819" lon="8.9397343"><ele>183.0</ele><time>2026-04-23T08:42:48.644Z</time></trkpt><trkpt lat="39.8592998" lon="8.9398043"><ele>182.0</ele><time>2026-04-23T08:42:49.646Z</time></trkpt><trkpt lat="39.8591832" lon="8.9397954"><ele>182.0</ele><time>2026-04-23T08:42:50.642Z</time></trkpt><trkpt lat="39.8590549" lon="8.9397428"><ele>182.0</ele><time>2026-04-23T08:42:51.632Z</time></trkpt><trkpt lat="39.8589443" lon="8.9396911"><ele>182.0</ele><time>2026-04-23T08:42:52.643Z</time></trkpt><trkpt lat="39.8588496" lon="8.9396069"><ele>182.0</ele><time>2026-04-23T08:42:53.64Z</time></trkpt><trkpt lat="39.8587329" lon="8.9395083"><ele>182.0</ele><time>2026-04-23T08:42:54.641Z</time></trkpt><trkpt lat="39.8586577" lon="8.9393775"><ele>182.0</ele><time>2026-04-23T08:42:55.641Z</time></trkpt><trkpt lat="39.8586438" lon="8.9392185"><ele>182.0</ele><time>2026-04-23T08:42:56.65Z</time></trkpt><trkpt lat="39.8586632" lon="8.9390577"><ele>182.0</ele><time>2026-04-23T08:42:57.646Z</time></trkpt><trkpt lat="39.85872" lon="8.9389021"><ele>182.33333333333331</ele><time>2026-04-23T08:42:58.638Z</time></trkpt><trkpt lat="39.8587868" lon="8.9386988"><ele>182.66666666666666</ele><time>2026-04-23T08:42:59.64Z</time></trkpt><trkpt lat="39.8589043" lon="8.9385204"><ele>183.0</ele><time>2026-04-23T08:43:00.653Z</time></trkpt><trkpt lat="39.8591" lon="8.9383641"><ele>183.0</ele><time>2026-04-23T08:43:01.643Z</time></trkpt><trkpt lat="39.8592613" lon="8.9381544"><ele>183.0</ele><time>2026-04-23T08:43:02.646Z</time></trkpt><trkpt lat="39.8593515" lon="8.9379597"><ele>183.0</ele><time>2026-04-23T08:43:03.643Z</time></trkpt><trkpt lat="39.8594659" lon="8.9377738"><ele>180.33333333333334</ele><time>2026-04-23T08:43:04.649Z</time></trkpt><trkpt lat="39.8595801" lon="8.9375585"><ele>177.66666666666669</ele><time>2026-04-23T08:43:05.649Z</time></trkpt><trkpt lat="39.8596444" lon="8.9372825"><ele>175.0</ele><time>2026-04-23T08:43:06.646Z</time></trkpt><trkpt lat="39.8596926" lon="8.9370545"><ele>174.33333333333334</ele><time>2026-04-23T08:43:07.649Z</time></trkpt><trkpt lat="39.8596922" lon="8.9367824"><ele>173.66666666666666</ele><time>2026-04-23T08:43:08.641Z</time></trkpt><trkpt lat="39.8596647" lon="8.9365767"><ele>173.0</ele><time>2026-04-23T08:43:09.648Z</time></trkpt><trkpt lat="39.8595107" lon="8.9364234"><ele>173.0</ele><time>2026-04-23T08:43:10.65Z</time></trkpt><trkpt lat="39.8594274" lon="8.9362803"><ele>173.0</ele><time>2026-04-23T08:43:11.653Z</time></trkpt><trkpt lat="39.8593211" lon="8.9361041"><ele>173.0</ele><time>2026-04-23T08:43:12.659Z</time></trkpt><trkpt lat="39.8592172" lon="8.9359504"><ele>178.66666666666666</ele><time>2026-04-23T08:43:13.655Z</time></trkpt><trkpt lat="39.8591641" lon="8.9357502"><ele>184.33333333333334</ele><time>2026-04-23T08:43:14.659Z</time></trkpt><trkpt lat="39.8591448" lon="8.9355743"><ele>190.0</ele><time>2026-04-23T08:43:15.655Z</time></trkpt><trkpt lat="39.8591473" lon="8.9353442"><ele>190.0</ele><time>2026-04-23T08:43:16.657Z</time></trkpt><trkpt lat="39.8592056" lon="8.9351654"><ele>190.0</ele><time>2026-04-23T08:43:17.654Z</time></trkpt><trkpt lat="39.8592406" lon="8.9349937"><ele>190.0</ele><time>2026-04-23T08:43:18.655Z</time></trkpt><trkpt lat="39.8593112" lon="8.9348158"><ele>190.0</ele><time>2026-04-23T08:43:19.658Z</time></trkpt><trkpt lat="39.8594008" lon="8.9346431"><ele>185.33333333333334</ele><time>2026-04-23T08:43:20.651Z</time></trkpt><trkpt lat="39.8594679" lon="8.9344452"><ele>180.66666666666666</ele><time>2026-04-23T08:43:21.654Z</time></trkpt><trkpt lat="39.8594984" lon="8.9341873"><ele>176.0</ele><time>2026-04-23T08:43:22.654Z</time></trkpt><trkpt lat="39.8594983" lon="8.9339206"><ele>176.0</ele><time>2026-04-23T08:43:23.653Z</time></trkpt><trkpt lat="39.8594405" lon="8.9336565"><ele>176.0</ele><time>2026-04-23T08:43:24.654Z</time></trkpt><trkpt lat="39.8593659" lon="8.9334508"><ele>176.0</ele><time>2026-04-23T08:43:25.664Z</time></trkpt><trkpt lat="39.8592865" lon="8.9332945"><ele>183.0</ele><time>2026-04-23T08:43:26.661Z</time></trkpt><trkpt lat="39.8591612" lon="8.9331324"><ele>190.0</ele><time>2026-04-23T08:43:27.648Z</time></trkpt><trkpt lat="39.8590044" lon="8.9329643"><ele>197.0</ele><time>2026-04-23T08:43:28.66Z</time></trkpt><trkpt lat="39.8588209" lon="8.9328737"><ele>197.0</ele><time>2026-04-23T08:43:29.666Z</time></trkpt><trkpt lat="39.8586754" lon="8.9327841"><ele>197.0</ele><time>2026-04-23T08:43:30.662Z</time></trkpt><trkpt lat="39.8584987" lon="8.9326638"><ele>197.0</ele><time>2026-04-23T08:43:31.651Z</time></trkpt><trkpt lat="39.8583618" lon="8.9325874"><ele>196.75</ele><time>2026-04-23T08:43:32.656Z</time></trkpt><trkpt lat="39.8582217" lon="8.932545"><ele>196.5</ele><time>2026-04-23T08:43:33.655Z</time></trkpt><trkpt lat="39.8580953" lon="8.9325197"><ele>196.25</ele><time>2026-04-23T08:43:34.649Z</time></trkpt><trkpt lat="39.8579518" lon="8.9325237"><ele>196.0</ele><time>2026-04-23T08:43:35.651Z</time></trkpt><trkpt lat="39.8577874" lon="8.9325867"><ele>203.66666666666666</ele><time>2026-04-23T08:43:36.651Z</time></trkpt><trkpt lat="39.8576141" lon="8.9326624"><ele>211.33333333333331</ele><time>2026-04-23T08:43:37.656Z</time></trkpt><trkpt lat="39.8574223" lon="8.9327178"><ele>219.0</ele><time>2026-04-23T08:43:38.648Z</time></trkpt><trkpt lat="39.8572197" lon="8.9328018"><ele>219.0</ele><time>2026-04-23T08:43:39.645Z</time></trkpt><trkpt lat="39.8569956" lon="8.9328541"><ele>219.0</ele><time>2026-04-23T08:43:40.645Z</time></trkpt><trkpt lat="39.8568023" lon="8.9328755"><ele>219.0</ele><time>2026-04-23T08:43:41.647Z</time></trkpt><trkpt lat="39.8566149" lon="8.9329338"><ele>216.33333333333331</ele><time>2026-04-23T08:43:42.651Z</time></trkpt><trkpt lat="39.8564296" lon="8.9330187"><ele>213.66666666666666</ele><time>2026-04-23T08:43:43.648Z</time></trkpt><trkpt lat="39.8562589" lon="8.9330685"><ele>211.0</ele><time>2026-04-23T08:43:44.657Z</time></trkpt><trkpt lat="39.8560427" lon="8.9331478"><ele>208.33333333333331</ele><time>2026-04-23T08:43:45.647Z</time></trkpt><trkpt lat="39.8558903" lon="8.9332128"><ele>205.66666666666669</ele><time>2026-04-23T08:43:46.647Z</time></trkpt><trkpt lat="39.8557259" lon="8.9332923"><ele>203.0</ele><time>2026-04-23T08:43:47.653Z</time></trkpt><trkpt lat="39.8555167" lon="8.9334227"><ele>205.0</ele><time>2026-04-23T08:43:48.655Z</time></trkpt><trkpt lat="39.8553246" lon="8.9335536"><ele>207.0</ele><time>2026-04-23T08:43:49.656Z</time></trkpt><trkpt lat="39.8551362" lon="8.9336776"><ele>209.0</ele><time>2026-04-23T08:43:50.657Z</time></trkpt><trkpt lat="39.8549667" lon="8.9337721"><ele>209.0</ele><time>2026-04-23T08:43:51.66Z</time></trkpt><trkpt lat="39.8548066" lon="8.9338766"><ele>209.0</ele><time>2026-04-23T08:43:52.662Z</time></trkpt><trkpt lat="39.8546442" lon="8.9339932"><ele>209.0</ele><time>2026-04-23T08:43:53.66Z</time></trkpt><trkpt lat="39.8544735" lon="8.9341086"><ele>211.66666666666669</ele><time>2026-04-23T08:43:54.659Z</time></trkpt><trkpt lat="39.8543001" lon="8.9342321"><ele>214.33333333333331</ele><time>2026-04-23T08:43:55.657Z</time></trkpt><trkpt lat="39.8541427" lon="8.9343296"><ele>217.0</ele><time>2026-04-23T08:43:56.661Z</time></trkpt><trkpt lat="39.8539844" lon="8.9344347"><ele>217.0</ele><time>2026-04-23T08:43:57.66Z</time></trkpt><trkpt lat="39.853841" lon="8.9344927"><ele>217.0</ele><time>2026-04-23T08:43:58.659Z</time></trkpt><trkpt lat="39.8537036" lon="8.9345485"><ele>217.0</ele><time>2026-04-23T08:43:59.657Z</time></trkpt><trkpt lat="39.8535308" lon="8.9345604"><ele>216.33333333333331</ele><time>2026-04-23T08:44:00.656Z</time></trkpt><trkpt lat="39.8533683" lon="8.9345435"><ele>215.66666666666669</ele><time>2026-04-23T08:44:01.645Z</time></trkpt><trkpt lat="39.8532119" lon="8.9345357"><ele>215.0</ele><time>2026-04-23T08:44:02.653Z</time></trkpt><trkpt lat="39.8530769" lon="8.9345049"><ele>215.0</ele><time>2026-04-23T08:44:03.651Z</time></trkpt><trkpt lat="39.852969" lon="8.9344097"><ele>215.0</ele><time>2026-04-23T08:44:04.648Z</time></trkpt><trkpt lat="39.8528871" lon="8.9343018"><ele>215.0</ele><time>2026-04-23T08:44:05.644Z</time></trkpt><trkpt lat="39.8528505" lon="8.9341878"><ele>215.0</ele><time>2026-04-23T08:44:06.655Z</time></trkpt><trkpt lat="39.8528091" lon="8.9339822"><ele>213.0</ele><time>2026-04-23T08:44:07.647Z</time></trkpt><trkpt lat="39.8527902" lon="8.9337893"><ele>211.0</ele><time>2026-04-23T08:44:08.654Z</time></trkpt><trkpt lat="39.8528214" lon="8.9335973"><ele>209.0</ele><time>2026-04-23T08:44:09.647Z</time></trkpt><trkpt lat="39.8529158" lon="8.9333587"><ele>209.0</ele><time>2026-04-23T08:44:10.652Z</time></trkpt><trkpt lat="39.8530041" lon="8.9332096"><ele>209.0</ele><time>2026-04-23T08:44:11.66Z</time></trkpt><trkpt lat="39.8531805" lon="8.9331596"><ele>209.0</ele><time>2026-04-23T08:44:12.653Z</time></trkpt><trkpt lat="39.8533317" lon="8.9331004"><ele>206.33333333333334</ele><time>2026-04-23T08:44:13.653Z</time></trkpt><trkpt lat="39.8534864" lon="8.9330599"><ele>203.66666666666669</ele><time>2026-04-23T08:44:14.661Z</time></trkpt><trkpt lat="39.8536393" lon="8.9330056"><ele>201.0</ele><time>2026-04-23T08:44:15.656Z</time></trkpt><trkpt lat="39.8537954" lon="8.9329376"><ele>201.0</ele><time>2026-04-23T08:44:16.655Z</time></trkpt><trkpt lat="39.8539213" lon="8.9328164"><ele>201.0</ele><time>2026-04-23T08:44:17.657Z</time></trkpt><trkpt lat="39.8540369" lon="8.9326935"><ele>201.0</ele><time>2026-04-23T08:44:18.658Z</time></trkpt><trkpt lat="39.8541276" lon="8.9325583"><ele>201.0</ele><time>2026-04-23T08:44:19.659Z</time></trkpt><trkpt lat="39.8542214" lon="8.9323981"><ele>201.33333333333331</ele><time>2026-04-23T08:44:20.655Z</time></trkpt><trkpt lat="39.8543033" lon="8.9322021"><ele>201.66666666666666</ele><time>2026-04-23T08:44:21.65Z</time></trkpt><trkpt lat="39.8543455" lon="8.9320165"><ele>202.0</ele><time>2026-04-23T08:44:22.658Z</time></trkpt><trkpt lat="39.8543603" lon="8.9317724"><ele>204.66666666666666</ele><time>2026-04-23T08:44:23.657Z</time></trkpt><trkpt lat="39.8543074" lon="8.9315135"><ele>207.33333333333331</ele><time>2026-04-23T08:44:24.655Z</time></trkpt><trkpt lat="39.8542907" lon="8.9312872"><ele>210.0</ele><time>2026-04-23T08:44:25.659Z</time></trkpt><trkpt lat="39.8542905" lon="8.931084"><ele>210.0</ele><time>2026-04-23T08:44:26.661Z</time></trkpt><trkpt lat="39.8543303" lon="8.9309144"><ele>210.0</ele><time>2026-04-23T08:44:27.664Z</time></trkpt><trkpt lat="39.8543717" lon="8.930756"><ele>210.0</ele><time>2026-04-23T08:44:28.659Z</time></trkpt><trkpt lat="39.8544358" lon="8.9304718"><ele>213.0</ele><time>2026-04-23T08:44:29.661Z</time></trkpt><trkpt lat="39.8545228" lon="8.9302919"><ele>216.0</ele><time>2026-04-23T08:44:30.656Z</time></trkpt><trkpt lat="39.8546809" lon="8.9301679"><ele>219.0</ele><time>2026-04-23T08:44:31.658Z</time></trkpt><trkpt lat="39.8547908" lon="8.9300631"><ele>221.5</ele><time>2026-04-23T08:44:32.662Z</time></trkpt><trkpt lat="39.8549169" lon="8.929987"><ele>224.0</ele><time>2026-04-23T08:44:33.661Z</time></trkpt><trkpt lat="39.8549989" lon="8.9298451"><ele>226.5</ele><time>2026-04-23T08:44:34.657Z</time></trkpt><trkpt lat="39.8550488" lon="8.9296417"><ele>229.0</ele><time>2026-04-23T08:44:35.663Z</time></trkpt><trkpt lat="39.8550632" lon="8.9294841"><ele>229.0</ele><time>2026-04-23T08:44:36.658Z</time></trkpt><trkpt lat="39.8550836" lon="8.9292824"><ele>229.0</ele><time>2026-04-23T08:44:37.66Z</time></trkpt><trkpt lat="39.8550541" lon="8.9290541"><ele>229.0</ele><time>2026-04-23T08:44:38.655Z</time></trkpt><trkpt lat="39.8550182" lon="8.9288051"><ele>230.0</ele><time>2026-04-23T08:44:39.66Z</time></trkpt><trkpt lat="39.8548645" lon="8.928637"><ele>231.0</ele><time>2026-04-23T08:44:40.663Z</time></trkpt><trkpt lat="39.8546438" lon="8.9285385"><ele>232.0</ele><time>2026-04-23T08:44:41.662Z</time></trkpt><trkpt lat="39.854405" lon="8.928443"><ele>234.0</ele><time>2026-04-23T08:44:42.666Z</time></trkpt><trkpt lat="39.8541938" lon="8.9283055"><ele>236.0</ele><time>2026-04-23T08:44:43.66Z</time></trkpt><trkpt lat="39.8540143" lon="8.9281523"><ele>236.0</ele><time>2026-04-23T08:44:44.665Z</time></trkpt><trkpt lat="39.8538094" lon="8.9279972"><ele>236.0</ele><time>2026-04-23T08:44:45.669Z</time></trkpt><trkpt lat="39.8536099" lon="8.9278"><ele>239.0</ele><time>2026-04-23T08:44:46.674Z</time></trkpt><trkpt lat="39.8533653" lon="8.9276745"><ele>242.0</ele><time>2026-04-23T08:44:47.665Z</time></trkpt><trkpt lat="39.8531728" lon="8.9275411"><ele>242.0</ele><time>2026-04-23T08:44:48.674Z</time></trkpt><trkpt lat="39.8529661" lon="8.9274775"><ele>242.0</ele><time>2026-04-23T08:44:49.671Z</time></trkpt><trkpt lat="39.8527851" lon="8.9273887"><ele>242.0</ele><time>2026-04-23T08:44:50.671Z</time></trkpt><trkpt lat="39.8525857" lon="8.9273502"><ele>244.33333333333334</ele><time>2026-04-23T08:44:51.671Z</time></trkpt><trkpt lat="39.8523778" lon="8.9273193"><ele>246.66666666666669</ele><time>2026-04-23T08:44:52.68Z</time></trkpt><trkpt lat="39.8521385" lon="8.9273317"><ele>249.0</ele><time>2026-04-23T08:44:53.671Z</time></trkpt><trkpt lat="39.8519174" lon="8.9273755"><ele>248.66666666666669</ele><time>2026-04-23T08:44:54.672Z</time></trkpt><trkpt lat="39.8517026" lon="8.9274147"><ele>248.33333333333334</ele><time>2026-04-23T08:44:55.666Z</time></trkpt><trkpt lat="39.851497" lon="8.9274435"><ele>248.0</ele><time>2026-04-23T08:44:56.674Z</time></trkpt><trkpt lat="39.8512745" lon="8.9274768"><ele>248.0</ele><time>2026-04-23T08:44:57.669Z</time></trkpt><trkpt lat="39.8510423" lon="8.9274962"><ele>248.0</ele><time>2026-04-23T08:44:58.662Z</time></trkpt><trkpt lat="39.8508139" lon="8.9275251"><ele>253.5</ele><time>2026-04-23T08:44:59.661Z</time></trkpt><trkpt lat="39.8505744" lon="8.927572"><ele>259.0</ele><time>2026-04-23T08:45:00.663Z</time></trkpt><trkpt lat="39.8503608" lon="8.9275957"><ele>259.0</ele><time>2026-04-23T08:45:01.665Z</time></trkpt><trkpt lat="39.8501407" lon="8.9276406"><ele>259.0</ele><time>2026-04-23T08:45:02.667Z</time></trkpt><trkpt lat="39.849933" lon="8.9277162"><ele>259.0</ele><time>2026-04-23T08:45:03.652Z</time></trkpt><trkpt lat="39.8497407" lon="8.9278072"><ele>256.66666666666663</ele><time>2026-04-23T08:45:04.661Z</time></trkpt><trkpt lat="39.8495587" lon="8.9279387"><ele>254.33333333333331</ele><time>2026-04-23T08:45:05.659Z</time></trkpt><trkpt lat="39.8493958" lon="8.9280435"><ele>252.0</ele><time>2026-04-23T08:45:06.667Z</time></trkpt><trkpt lat="39.8492398" lon="8.9281488"><ele>253.0</ele><time>2026-04-23T08:45:07.663Z</time></trkpt><trkpt lat="39.8490726" lon="8.9282634"><ele>254.0</ele><time>2026-04-23T08:45:08.666Z</time></trkpt><trkpt lat="39.8489056" lon="8.9283434"><ele>255.0</ele><time>2026-04-23T08:45:09.665Z</time></trkpt><trkpt lat="39.8487609" lon="8.928429"><ele>255.0</ele><time>2026-04-23T08:45:10.665Z</time></trkpt><trkpt lat="39.8485853" lon="8.9285028"><ele>255.0</ele><time>2026-04-23T08:45:11.664Z</time></trkpt><trkpt lat="39.8484314" lon="8.9285602"><ele>255.0</ele><time>2026-04-23T08:45:12.653Z</time></trkpt><trkpt lat="39.8482715" lon="8.9285228"><ele>251.66666666666669</ele><time>2026-04-23T08:45:13.652Z</time></trkpt><trkpt lat="39.8481127" lon="8.9284708"><ele>248.33333333333334</ele><time>2026-04-23T08:45:14.653Z</time></trkpt><trkpt lat="39.847934" lon="8.9284071"><ele>245.0</ele><time>2026-04-23T08:45:15.649Z</time></trkpt><trkpt lat="39.8477464" lon="8.9282852"><ele>243.0</ele><time>2026-04-23T08:45:16.652Z</time></trkpt><trkpt lat="39.8476101" lon="8.9281194"><ele>241.0</ele><time>2026-04-23T08:45:17.663Z</time></trkpt><trkpt lat="39.847461" lon="8.9279532"><ele>239.0</ele><time>2026-04-23T08:45:18.654Z</time></trkpt><trkpt lat="39.8473096" lon="8.9277721"><ele>235.5</ele><time>2026-04-23T08:45:19.65Z</time></trkpt><trkpt lat="39.8471755" lon="8.9275357"><ele>232.0</ele><time>2026-04-23T08:45:20.653Z</time></trkpt><trkpt lat="39.847026" lon="8.9273139"><ele>232.0</ele><time>2026-04-23T08:45:21.653Z</time></trkpt><trkpt lat="39.8468825" lon="8.9270916"><ele>232.0</ele><time>2026-04-23T08:45:22.658Z</time></trkpt><trkpt lat="39.8467784" lon="8.9268786"><ele>232.0</ele><time>2026-04-23T08:45:23.651Z</time></trkpt><trkpt lat="39.8467223" lon="8.9266557"><ele>234.0</ele><time>2026-04-23T08:45:24.659Z</time></trkpt><trkpt lat="39.8466503" lon="8.9264092"><ele>236.0</ele><time>2026-04-23T08:45:25.656Z</time></trkpt><trkpt lat="39.8465685" lon="8.9261595"><ele>238.0</ele><time>2026-04-23T08:45:26.652Z</time></trkpt><trkpt lat="39.8465186" lon="8.9259659"><ele>236.0</ele><time>2026-04-23T08:45:27.65Z</time></trkpt><trkpt lat="39.8464" lon="8.9258407"><ele>234.0</ele><time>2026-04-23T08:45:28.647Z</time></trkpt><trkpt lat="39.8462502" lon="8.92572"><ele>232.0</ele><time>2026-04-23T08:45:29.641Z</time></trkpt><trkpt lat="39.8460604" lon="8.9256732"><ele>233.66666666666666</ele><time>2026-04-23T08:45:30.645Z</time></trkpt><trkpt lat="39.845925" lon="8.9255448"><ele>235.33333333333331</ele><time>2026-04-23T08:45:31.649Z</time></trkpt><trkpt lat="39.8457619" lon="8.9254143"><ele>237.0</ele><time>2026-04-23T08:45:32.642Z</time></trkpt><trkpt lat="39.8456312" lon="8.9252416"><ele>234.33333333333331</ele><time>2026-04-23T08:45:33.652Z</time></trkpt><trkpt lat="39.8455058" lon="8.9250462"><ele>231.66666666666666</ele><time>2026-04-23T08:45:34.651Z</time></trkpt><trkpt lat="39.84548" lon="8.9247944"><ele>229.0</ele><time>2026-04-23T08:45:35.654Z</time></trkpt><trkpt lat="39.8454616" lon="8.9245253"><ele>229.0</ele><time>2026-04-23T08:45:36.644Z</time></trkpt><trkpt lat="39.8454221" lon="8.9242874"><ele>229.0</ele><time>2026-04-23T08:45:37.649Z</time></trkpt><trkpt lat="39.8453441" lon="8.9240771"><ele>229.0</ele><time>2026-04-23T08:45:38.648Z</time></trkpt><trkpt lat="39.8452504" lon="8.9238984"><ele>228.33333333333331</ele><time>2026-04-23T08:45:39.647Z</time></trkpt><trkpt lat="39.8451654" lon="8.9236763"><ele>227.66666666666669</ele><time>2026-04-23T08:45:40.645Z</time></trkpt><trkpt lat="39.8449895" lon="8.9235506"><ele>227.0</ele><time>2026-04-23T08:45:41.648Z</time></trkpt><trkpt lat="39.8448107" lon="8.9234451"><ele>227.0</ele><time>2026-04-23T08:45:42.646Z</time></trkpt><trkpt lat="39.8446712" lon="8.9233493"><ele>227.0</ele><time>2026-04-23T08:45:43.644Z</time></trkpt><trkpt lat="39.8445007" lon="8.9232703"><ele>227.0</ele><time>2026-04-23T08:45:44.643Z</time></trkpt><trkpt lat="39.844265" lon="8.9232856"><ele>224.5</ele><time>2026-04-23T08:45:45.646Z</time></trkpt><trkpt lat="39.8440023" lon="8.9233659"><ele>222.0</ele><time>2026-04-23T08:45:46.652Z</time></trkpt><trkpt lat="39.8437876" lon="8.9234332"><ele>223.5</ele><time>2026-04-23T08:45:47.65Z</time></trkpt><trkpt lat="39.84359" lon="8.9235312"><ele>225.0</ele><time>2026-04-23T08:45:48.649Z</time></trkpt><trkpt lat="39.8433488" lon="8.9235925"><ele>225.0</ele><time>2026-04-23T08:45:49.653Z</time></trkpt><trkpt lat="39.8431356" lon="8.9236486"><ele>225.0</ele><time>2026-04-23T08:45:50.671Z</time></trkpt><trkpt lat="39.8429302" lon="8.9236978"><ele>225.0</ele><time>2026-04-23T08:45:51.656Z</time></trkpt><trkpt lat="39.8427105" lon="8.9237725"><ele>221.33333333333331</ele><time>2026-04-23T08:45:52.663Z</time></trkpt><trkpt lat="39.8425106" lon="8.9238313"><ele>217.66666666666666</ele><time>2026-04-23T08:45:53.662Z</time></trkpt><trkpt lat="39.8423233" lon="8.9238973"><ele>214.0</ele><time>2026-04-23T08:45:54.651Z</time></trkpt><trkpt lat="39.8421356" lon="8.9238942"><ele>214.0</ele><time>2026-04-23T08:45:55.655Z</time></trkpt><trkpt lat="39.8419254" lon="8.9238108"><ele>214.0</ele><time>2026-04-23T08:45:56.653Z</time></trkpt><trkpt lat="39.8417141" lon="8.9236695"><ele>211.0</ele><time>2026-04-23T08:45:57.654Z</time></trkpt><trkpt lat="39.8415218" lon="8.9235466"><ele>208.0</ele><time>2026-04-23T08:45:58.643Z</time></trkpt><trkpt lat="39.8413039" lon="8.9234056"><ele>206.5</ele><time>2026-04-23T08:45:59.646Z</time></trkpt><trkpt lat="39.8410949" lon="8.9232673"><ele>205.0</ele><time>2026-04-23T08:46:00.644Z</time></trkpt><trkpt lat="39.8408645" lon="8.9231267"><ele>203.5</ele><time>2026-04-23T08:46:01.651Z</time></trkpt><trkpt lat="39.8406389" lon="8.9229527"><ele>202.0</ele><time>2026-04-23T08:46:02.649Z</time></trkpt><trkpt lat="39.8404154" lon="8.9228156"><ele>202.0</ele><time>2026-04-23T08:46:03.651Z</time></trkpt><trkpt lat="39.840248" lon="8.9226416"><ele>202.0</ele><time>2026-04-23T08:46:04.66Z</time></trkpt><trkpt lat="39.8400584" lon="8.9224888"><ele>202.0</ele><time>2026-04-23T08:46:05.656Z</time></trkpt><trkpt lat="39.839869" lon="8.9223799"><ele>199.33333333333331</ele><time>2026-04-23T08:46:06.667Z</time></trkpt><trkpt lat="39.83965" lon="8.9223157"><ele>196.66666666666669</ele><time>2026-04-23T08:46:07.659Z</time></trkpt><trkpt lat="39.8394623" lon="8.9221973"><ele>194.0</ele><time>2026-04-23T08:46:08.654Z</time></trkpt><trkpt lat="39.839276" lon="8.9220559"><ele>193.66666666666669</ele><time>2026-04-23T08:46:09.662Z</time></trkpt><trkpt lat="39.8391334" lon="8.9219008"><ele>193.33333333333331</ele><time>2026-04-23T08:46:10.661Z</time></trkpt><trkpt lat="39.8389936" lon="8.9217555"><ele>193.0</ele><time>2026-04-23T08:46:11.666Z</time></trkpt><trkpt lat="39.8388674" lon="8.9216056"><ele>192.0</ele><time>2026-04-23T08:46:12.663Z</time></trkpt><trkpt lat="39.8387255" lon="8.9214382"><ele>191.0</ele><time>2026-04-23T08:46:13.661Z</time></trkpt><trkpt lat="39.8385907" lon="8.9212875"><ele>190.0</ele><time>2026-04-23T08:46:14.662Z</time></trkpt><trkpt lat="39.8384752" lon="8.9211483"><ele>190.25</ele><time>2026-04-23T08:46:15.669Z</time></trkpt><trkpt lat="39.8383702" lon="8.9210264"><ele>190.5</ele><time>2026-04-23T08:46:16.662Z</time></trkpt><trkpt lat="39.8382778" lon="8.9209187"><ele>190.75</ele><time>2026-04-23T08:46:17.663Z</time></trkpt><trkpt lat="39.8381863" lon="8.9208273"><ele>191.0</ele><time>2026-04-23T08:46:18.662Z</time></trkpt><trkpt lat="39.8381303" lon="8.9207133"><ele>191.0</ele><time>2026-04-23T08:46:19.659Z</time></trkpt><trkpt lat="39.8380996" lon="8.9205783"><ele>191.0</ele><time>2026-04-23T08:46:20.661Z</time></trkpt><trkpt lat="39.838032" lon="8.9204139"><ele>191.0</ele><time>2026-04-23T08:46:21.654Z</time></trkpt><trkpt lat="39.8380188" lon="8.9202378"><ele>191.0</ele><time>2026-04-23T08:46:22.664Z</time></trkpt><trkpt lat="39.8380681" lon="8.9200744"><ele>190.0</ele><time>2026-04-23T08:46:23.666Z</time></trkpt><trkpt lat="39.8381126" lon="8.9198898"><ele>189.0</ele><time>2026-04-23T08:46:24.661Z</time></trkpt><trkpt lat="39.8381857" lon="8.9196712"><ele>188.0</ele><time>2026-04-23T08:46:25.662Z</time></trkpt><trkpt lat="39.83822" lon="8.9193785"><ele>189.5</ele><time>2026-04-23T08:46:26.664Z</time></trkpt><trkpt lat="39.838301" lon="8.9190972"><ele>191.0</ele><time>2026-04-23T08:46:27.66Z</time></trkpt><trkpt lat="39.8383975" lon="8.9188038"><ele>191.0</ele><time>2026-04-23T08:46:28.659Z</time></trkpt><trkpt lat="39.8385234" lon="8.9185265"><ele>191.0</ele><time>2026-04-23T08:46:29.661Z</time></trkpt><trkpt lat="39.8386388" lon="8.9182518"><ele>192.5</ele><time>2026-04-23T08:46:30.649Z</time></trkpt><trkpt lat="39.8387798" lon="8.9180009"><ele>194.0</ele><time>2026-04-23T08:46:31.653Z</time></trkpt><trkpt lat="39.8389145" lon="8.9177329"><ele>195.5</ele><time>2026-04-23T08:46:32.637Z</time></trkpt><trkpt lat="39.8390645" lon="8.9174848"><ele>197.0</ele><time>2026-04-23T08:46:33.644Z</time></trkpt><trkpt lat="39.8391634" lon="8.917204"><ele>197.0</ele><time>2026-04-23T08:46:34.64Z</time></trkpt><trkpt lat="39.8392785" lon="8.9169331"><ele>197.0</ele><time>2026-04-23T08:46:35.644Z</time></trkpt><trkpt lat="39.8393815" lon="8.9166453"><ele>197.0</ele><time>2026-04-23T08:46:36.648Z</time></trkpt><trkpt lat="39.8395105" lon="8.9163564"><ele>197.0</ele><time>2026-04-23T08:46:37.654Z</time></trkpt><trkpt lat="39.8396362" lon="8.9161028"><ele>197.5</ele><time>2026-04-23T08:46:38.645Z</time></trkpt><trkpt lat="39.8397729" lon="8.9158573"><ele>198.0</ele><time>2026-04-23T08:46:39.649Z</time></trkpt><trkpt lat="39.8398801" lon="8.9155846"><ele>198.0</ele><time>2026-04-23T08:46:40.645Z</time></trkpt><trkpt lat="39.8400088" lon="8.9153225"><ele>198.0</ele><time>2026-04-23T08:46:41.65Z</time></trkpt><trkpt lat="39.8400865" lon="8.9150643"><ele>198.33333333333331</ele><time>2026-04-23T08:46:42.645Z</time></trkpt><trkpt lat="39.8401843" lon="8.9147847"><ele>198.66666666666666</ele><time>2026-04-23T08:46:43.649Z</time></trkpt><trkpt lat="39.8402978" lon="8.9145513"><ele>199.0</ele><time>2026-04-23T08:46:44.65Z</time></trkpt><trkpt lat="39.8404022" lon="8.9142795"><ele>199.66666666666666</ele><time>2026-04-23T08:46:45.654Z</time></trkpt><trkpt lat="39.8405248" lon="8.9140313"><ele>200.33333333333331</ele><time>2026-04-23T08:46:46.646Z</time></trkpt><trkpt lat="39.8406477" lon="8.9137945"><ele>201.0</ele><time>2026-04-23T08:46:47.659Z</time></trkpt><trkpt lat="39.8407645" lon="8.9135547"><ele>201.5</ele><time>2026-04-23T08:46:48.644Z</time></trkpt><trkpt lat="39.8408941" lon="8.9133035"><ele>202.0</ele><time>2026-04-23T08:46:49.654Z</time></trkpt><trkpt lat="39.8410026" lon="8.9130477"><ele>202.5</ele><time>2026-04-23T08:46:50.642Z</time></trkpt><trkpt lat="39.8410859" lon="8.9127647"><ele>203.0</ele><time>2026-04-23T08:46:51.655Z</time></trkpt><trkpt lat="39.8411912" lon="8.9125059"><ele>203.0</ele><time>2026-04-23T08:46:52.654Z</time></trkpt><trkpt lat="39.8412966" lon="8.9122504"><ele>203.0</ele><time>2026-04-23T08:46:53.66Z</time></trkpt><trkpt lat="39.8414188" lon="8.9119828"><ele>204.0</ele><time>2026-04-23T08:46:54.659Z</time></trkpt><trkpt lat="39.8415285" lon="8.9117292"><ele>205.0</ele><time>2026-04-23T08:46:55.658Z</time></trkpt><trkpt lat="39.8416296" lon="8.9114853"><ele>206.0</ele><time>2026-04-23T08:46:56.663Z</time></trkpt><trkpt lat="39.8417541" lon="8.911263"><ele>206.33333333333334</ele><time>2026-04-23T08:46:57.661Z</time></trkpt><trkpt lat="39.8418549" lon="8.911006"><ele>206.66666666666669</ele><time>2026-04-23T08:46:58.65Z</time></trkpt><trkpt lat="39.841963" lon="8.9107763"><ele>207.0</ele><time>2026-04-23T08:46:59.654Z</time></trkpt><trkpt lat="39.8421338" lon="8.9106248"><ele>207.33333333333331</ele><time>2026-04-23T08:47:00.649Z</time></trkpt><trkpt lat="39.8422905" lon="8.9104375"><ele>207.66666666666666</ele><time>2026-04-23T08:47:01.649Z</time></trkpt><trkpt lat="39.8425087" lon="8.9103287"><ele>208.0</ele><time>2026-04-23T08:47:02.643Z</time></trkpt><trkpt lat="39.8427049" lon="8.9102359"><ele>208.5</ele><time>2026-04-23T08:47:03.648Z</time></trkpt><trkpt lat="39.8429173" lon="8.9101323"><ele>209.0</ele><time>2026-04-23T08:47:04.652Z</time></trkpt><trkpt lat="39.8431538" lon="8.9100749"><ele>210.5</ele><time>2026-04-23T08:47:05.657Z</time></trkpt><trkpt lat="39.8433447" lon="8.9099726"><ele>212.0</ele><time>2026-04-23T08:47:06.653Z</time></trkpt><trkpt lat="39.8435885" lon="8.90984"><ele>212.5</ele><time>2026-04-23T08:47:07.648Z</time></trkpt><trkpt lat="39.8437992" lon="8.9097264"><ele>213.0</ele><time>2026-04-23T08:47:08.662Z</time></trkpt><trkpt lat="39.8440105" lon="8.9095992"><ele>213.0</ele><time>2026-04-23T08:47:09.653Z</time></trkpt><trkpt lat="39.8442084" lon="8.9094721"><ele>213.0</ele><time>2026-04-23T08:47:10.655Z</time></trkpt><trkpt lat="39.8444275" lon="8.909373"><ele>213.33333333333331</ele><time>2026-04-23T08:47:11.654Z</time></trkpt><trkpt lat="39.8446215" lon="8.909272"><ele>213.66666666666666</ele><time>2026-04-23T08:47:12.655Z</time></trkpt><trkpt lat="39.8448412" lon="8.9091541"><ele>214.0</ele><time>2026-04-23T08:47:13.659Z</time></trkpt><trkpt lat="39.8450368" lon="8.9090264"><ele>217.0</ele><time>2026-04-23T08:47:14.652Z</time></trkpt><trkpt lat="39.8452514" lon="8.9088956"><ele>220.0</ele><time>2026-04-23T08:47:15.655Z</time></trkpt><trkpt lat="39.8454672" lon="8.9087774"><ele>220.0</ele><time>2026-04-23T08:47:16.656Z</time></trkpt><trkpt lat="39.8456929" lon="8.9086748"><ele>220.0</ele><time>2026-04-23T08:47:17.658Z</time></trkpt><trkpt lat="39.8459095" lon="8.9085541"><ele>221.5</ele><time>2026-04-23T08:47:18.661Z</time></trkpt><trkpt lat="39.846123" lon="8.9084535"><ele>223.0</ele><time>2026-04-23T08:47:19.655Z</time></trkpt><trkpt lat="39.8463566" lon="8.9083211"><ele>224.33333333333331</ele><time>2026-04-23T08:47:20.666Z</time></trkpt><trkpt lat="39.8465525" lon="8.9082072"><ele>225.66666666666669</ele><time>2026-04-23T08:47:21.657Z</time></trkpt><trkpt lat="39.846729" lon="8.9080889"><ele>227.0</ele><time>2026-04-23T08:47:22.656Z</time></trkpt><trkpt lat="39.8468992" lon="8.9079397"><ele>227.33333333333334</ele><time>2026-04-23T08:47:23.651Z</time></trkpt><trkpt lat="39.8470604" lon="8.9077818"><ele>227.66666666666669</ele><time>2026-04-23T08:47:24.655Z</time></trkpt><trkpt lat="39.8472437" lon="8.9076051"><ele>228.0</ele><time>2026-04-23T08:47:25.649Z</time></trkpt><trkpt lat="39.8473985" lon="8.9074238"><ele>228.33333333333331</ele><time>2026-04-23T08:47:26.655Z</time></trkpt><trkpt lat="39.8475623" lon="8.9072148"><ele>228.66666666666666</ele><time>2026-04-23T08:47:27.665Z</time></trkpt><trkpt lat="39.8476927" lon="8.907006"><ele>229.0</ele><time>2026-04-23T08:47:28.653Z</time></trkpt><trkpt lat="39.8478161" lon="8.9067736"><ele>227.33333333333331</ele><time>2026-04-23T08:47:29.656Z</time></trkpt><trkpt lat="39.8479095" lon="8.906538"><ele>225.66666666666669</ele><time>2026-04-23T08:47:30.648Z</time></trkpt><trkpt lat="39.8479849" lon="8.9062845"><ele>224.0</ele><time>2026-04-23T08:47:31.65Z</time></trkpt><trkpt lat="39.8480929" lon="8.9059972"><ele>224.5</ele><time>2026-04-23T08:47:32.656Z</time></trkpt><trkpt lat="39.848174" lon="8.9057065"><ele>225.0</ele><time>2026-04-23T08:47:33.661Z</time></trkpt><trkpt lat="39.8482429" lon="8.9054325"><ele>225.0</ele><time>2026-04-23T08:47:34.65Z</time></trkpt><trkpt lat="39.8483007" lon="8.9051766"><ele>225.0</ele><time>2026-04-23T08:47:35.656Z</time></trkpt><trkpt lat="39.8483789" lon="8.9049008"><ele>225.0</ele><time>2026-04-23T08:47:36.644Z</time></trkpt><trkpt lat="39.8484689" lon="8.9047053"><ele>225.0</ele><time>2026-04-23T08:47:37.663Z</time></trkpt><trkpt lat="39.8485845" lon="8.9044972"><ele>225.0</ele><time>2026-04-23T08:47:38.653Z</time></trkpt><trkpt lat="39.8487465" lon="8.9043351"><ele>225.0</ele><time>2026-04-23T08:47:39.658Z</time></trkpt><trkpt lat="39.8489111" lon="8.9041759"><ele>226.5</ele><time>2026-04-23T08:47:40.661Z</time></trkpt><trkpt lat="39.8491523" lon="8.9039866"><ele>228.0</ele><time>2026-04-23T08:47:41.651Z</time></trkpt><trkpt lat="39.8493912" lon="8.9037909"><ele>228.5</ele><time>2026-04-23T08:47:42.661Z</time></trkpt><trkpt lat="39.8496196" lon="8.9035958"><ele>229.0</ele><time>2026-04-23T08:47:43.656Z</time></trkpt><trkpt lat="39.8498516" lon="8.9034184"><ele>229.5</ele><time>2026-04-23T08:47:44.658Z</time></trkpt><trkpt lat="39.8500864" lon="8.9032406"><ele>230.0</ele><time>2026-04-23T08:47:45.656Z</time></trkpt><trkpt lat="39.8503704" lon="8.9030596"><ele>230.0</ele><time>2026-04-23T08:47:46.662Z</time></trkpt><trkpt lat="39.8506327" lon="8.9028946"><ele>230.0</ele><time>2026-04-23T08:47:47.667Z</time></trkpt><trkpt lat="39.850836" lon="8.9027402"><ele>231.5</ele><time>2026-04-23T08:47:48.652Z</time></trkpt><trkpt lat="39.8510572" lon="8.9025566"><ele>233.0</ele><time>2026-04-23T08:47:49.662Z</time></trkpt><trkpt lat="39.8512497" lon="8.9024041"><ele>233.0</ele><time>2026-04-23T08:47:50.657Z</time></trkpt><trkpt lat="39.8514365" lon="8.9022451"><ele>233.0</ele><time>2026-04-23T08:47:51.662Z</time></trkpt><trkpt lat="39.8516248" lon="8.902084"><ele>233.0</ele><time>2026-04-23T08:47:52.657Z</time></trkpt><trkpt lat="39.8517984" lon="8.9019269"><ele>233.0</ele><time>2026-04-23T08:47:53.659Z</time></trkpt><trkpt lat="39.8519481" lon="8.9017755"><ele>233.0</ele><time>2026-04-23T08:47:54.669Z</time></trkpt><trkpt lat="39.8521234" lon="8.9016671"><ele>233.0</ele><time>2026-04-23T08:47:55.647Z</time></trkpt><trkpt lat="39.8523488" lon="8.9016261"><ele>235.0</ele><time>2026-04-23T08:47:56.657Z</time></trkpt><trkpt lat="39.85256" lon="8.9015885"><ele>237.0</ele><time>2026-04-23T08:47:57.658Z</time></trkpt><trkpt lat="39.8527724" lon="8.9015814"><ele>239.0</ele><time>2026-04-23T08:47:58.648Z</time></trkpt><trkpt lat="39.8529554" lon="8.9016068"><ele>241.5</ele><time>2026-04-23T08:47:59.649Z</time></trkpt><trkpt lat="39.853184" lon="8.9017228"><ele>244.0</ele><time>2026-04-23T08:48:00.652Z</time></trkpt><trkpt lat="39.8534248" lon="8.9017466"><ele>244.66666666666666</ele><time>2026-04-23T08:48:01.655Z</time></trkpt><trkpt lat="39.8536344" lon="8.9018103"><ele>245.33333333333331</ele><time>2026-04-23T08:48:02.649Z</time></trkpt><trkpt lat="39.8538169" lon="8.9018594"><ele>246.0</ele><time>2026-04-23T08:48:03.658Z</time></trkpt><trkpt lat="39.8540101" lon="8.901912"><ele>246.0</ele><time>2026-04-23T08:48:04.65Z</time></trkpt><trkpt lat="39.8541309" lon="8.9019563"><ele>246.0</ele><time>2026-04-23T08:48:05.649Z</time></trkpt><trkpt lat="39.8542751" lon="8.9019808"><ele>246.0</ele><time>2026-04-23T08:48:06.648Z</time></trkpt><trkpt lat="39.854403" lon="8.9020068"><ele>246.0</ele><time>2026-04-23T08:48:07.658Z</time></trkpt><trkpt lat="39.8545198" lon="8.9020036"><ele>245.8</ele><time>2026-04-23T08:48:08.658Z</time></trkpt><trkpt lat="39.8546026" lon="8.9020524"><ele>245.60000000000002</ele><time>2026-04-23T08:48:09.657Z</time></trkpt><trkpt lat="39.8546979" lon="8.9020951"><ele>245.4</ele><time>2026-04-23T08:48:10.655Z</time></trkpt><trkpt lat="39.854803" lon="8.9020975"><ele>245.2</ele><time>2026-04-23T08:48:11.656Z</time></trkpt><trkpt lat="39.8549052" lon="8.9020997"><ele>245.0</ele><time>2026-04-23T08:48:12.65Z</time></trkpt><trkpt lat="39.8550082" lon="8.9020926"><ele>245.0</ele><time>2026-04-23T08:48:13.656Z</time></trkpt><trkpt lat="39.8551183" lon="8.9020834"><ele>245.0</ele><time>2026-04-23T08:48:14.665Z</time></trkpt><trkpt lat="39.855226" lon="8.9020766"><ele>245.0</ele><time>2026-04-23T08:48:15.648Z</time></trkpt><trkpt lat="39.8553291" lon="8.9020775"><ele>245.0</ele><time>2026-04-23T08:48:16.661Z</time></trkpt><trkpt lat="39.8554402" lon="8.9020723"><ele>245.0</ele><time>2026-04-23T08:48:17.668Z</time></trkpt><trkpt lat="39.8555446" lon="8.9020614"><ele>244.0</ele><time>2026-04-23T08:48:18.658Z</time></trkpt><trkpt lat="39.8556493" lon="8.902059"><ele>243.0</ele><time>2026-04-23T08:48:19.66Z</time></trkpt><trkpt lat="39.8557643" lon="8.9020577"><ele>242.0</ele><time>2026-04-23T08:48:20.661Z</time></trkpt><trkpt lat="39.8558746" lon="8.9020458"><ele>241.0</ele><time>2026-04-23T08:48:21.662Z</time></trkpt><trkpt lat="39.855975" lon="8.9020317"><ele>240.0</ele><time>2026-04-23T08:48:22.657Z</time></trkpt><trkpt lat="39.8560705" lon="8.9020115"><ele>239.8</ele><time>2026-04-23T08:48:23.655Z</time></trkpt><trkpt lat="39.8561786" lon="8.9019825"><ele>239.6</ele><time>2026-04-23T08:48:24.659Z</time></trkpt><trkpt lat="39.8562869" lon="8.9019524"><ele>239.39999999999998</ele><time>2026-04-23T08:48:25.659Z</time></trkpt><trkpt lat="39.8563895" lon="8.9019229"><ele>239.2</ele><time>2026-04-23T08:48:26.663Z</time></trkpt><trkpt lat="39.8564923" lon="8.9019019"><ele>239.0</ele><time>2026-04-23T08:48:27.668Z</time></trkpt><trkpt lat="39.856598" lon="8.9018817"><ele>239.0</ele><time>2026-04-23T08:48:28.657Z</time></trkpt><trkpt lat="39.8566952" lon="8.9018602"><ele>238.99999999999997</ele><time>2026-04-23T08:48:29.659Z</time></trkpt><trkpt lat="39.8567903" lon="8.9018499"><ele>238.99999999999997</ele><time>2026-04-23T08:48:30.654Z</time></trkpt><trkpt lat="39.8568869" lon="8.9018391"><ele>239.0</ele><time>2026-04-23T08:48:31.655Z</time></trkpt><trkpt lat="39.8569807" lon="8.9018088"><ele>239.0</ele><time>2026-04-23T08:48:32.654Z</time></trkpt><trkpt lat="39.8570728" lon="8.9017829"><ele>238.79999999999998</ele><time>2026-04-23T08:48:33.657Z</time></trkpt><trkpt lat="39.8571765" lon="8.9017559"><ele>238.59999999999997</ele><time>2026-04-23T08:48:34.658Z</time></trkpt><trkpt lat="39.85727" lon="8.901731"><ele>238.4</ele><time>2026-04-23T08:48:35.657Z</time></trkpt><trkpt lat="39.8573593" lon="8.9017008"><ele>238.2</ele><time>2026-04-23T08:48:36.657Z</time></trkpt><trkpt lat="39.8574498" lon="8.9016617"><ele>238.0</ele><time>2026-04-23T08:48:37.668Z</time></trkpt><trkpt lat="39.8575394" lon="8.901625"><ele>237.60000000000002</ele><time>2026-04-23T08:48:38.657Z</time></trkpt><trkpt lat="39.8576287" lon="8.9015952"><ele>237.20000000000002</ele><time>2026-04-23T08:48:39.658Z</time></trkpt><trkpt lat="39.8577246" lon="8.9015548"><ele>236.8</ele><time>2026-04-23T08:48:40.656Z</time></trkpt><trkpt lat="39.8578119" lon="8.9015216"><ele>236.4</ele><time>2026-04-23T08:48:41.656Z</time></trkpt><trkpt lat="39.8578943" lon="8.9014996"><ele>236.0</ele><time>2026-04-23T08:48:42.656Z</time></trkpt><trkpt lat="39.8579867" lon="8.9014674"><ele>236.0</ele><time>2026-04-23T08:48:43.653Z</time></trkpt><trkpt lat="39.8580867" lon="8.9014405"><ele>236.00000000000003</ele><time>2026-04-23T08:48:44.661Z</time></trkpt><trkpt lat="39.8581759" lon="8.9014001"><ele>236.00000000000003</ele><time>2026-04-23T08:48:45.653Z</time></trkpt><trkpt lat="39.8582831" lon="8.9013811"><ele>236.0</ele><time>2026-04-23T08:48:46.652Z</time></trkpt><trkpt lat="39.8583908" lon="8.9013628"><ele>236.0</ele><time>2026-04-23T08:48:47.659Z</time></trkpt><trkpt lat="39.8584982" lon="8.9013524"><ele>236.8</ele><time>2026-04-23T08:48:48.659Z</time></trkpt><trkpt lat="39.8586038" lon="8.9013428"><ele>237.60000000000002</ele><time>2026-04-23T08:48:49.656Z</time></trkpt><trkpt lat="39.858701" lon="8.9013418"><ele>238.4</ele><time>2026-04-23T08:48:50.662Z</time></trkpt><trkpt lat="39.8588006" lon="8.9013394"><ele>239.2</ele><time>2026-04-23T08:48:51.658Z</time></trkpt><trkpt lat="39.8588998" lon="8.901325"><ele>240.0</ele><time>2026-04-23T08:48:52.658Z</time></trkpt><trkpt lat="39.8589981" lon="8.9012967"><ele>240.0</ele><time>2026-04-23T08:48:53.668Z</time></trkpt><trkpt lat="39.8590839" lon="8.9012602"><ele>240.0</ele><time>2026-04-23T08:48:54.654Z</time></trkpt><trkpt lat="39.8591784" lon="8.9012384"><ele>240.0</ele><time>2026-04-23T08:48:55.65Z</time></trkpt><trkpt lat="39.8592696" lon="8.9012244"><ele>240.0</ele><time>2026-04-23T08:48:56.657Z</time></trkpt><trkpt lat="39.8593604" lon="8.9012152"><ele>240.0</ele><time>2026-04-23T08:48:57.665Z</time></trkpt><trkpt lat="39.8594549" lon="8.901226"><ele>240.66666666666666</ele><time>2026-04-23T08:48:58.652Z</time></trkpt><trkpt lat="39.8595465" lon="8.9012371"><ele>241.33333333333331</ele><time>2026-04-23T08:48:59.651Z</time></trkpt><trkpt lat="39.8596244" lon="8.9012424"><ele>242.0</ele><time>2026-04-23T08:49:00.649Z</time></trkpt><trkpt lat="39.8597093" lon="8.9012283"><ele>242.66666666666666</ele><time>2026-04-23T08:49:01.651Z</time></trkpt><trkpt lat="39.8597935" lon="8.901213"><ele>243.33333333333331</ele><time>2026-04-23T08:49:02.651Z</time></trkpt><trkpt lat="39.8598825" lon="8.9011882"><ele>244.0</ele><time>2026-04-23T08:49:03.654Z</time></trkpt><trkpt lat="39.8599705" lon="8.9011787"><ele>244.0</ele><time>2026-04-23T08:49:04.648Z</time></trkpt><trkpt lat="39.860058" lon="8.9011719"><ele>243.99999999999997</ele><time>2026-04-23T08:49:05.641Z</time></trkpt><trkpt lat="39.8601505" lon="8.9011656"><ele>243.99999999999997</ele><time>2026-04-23T08:49:06.643Z</time></trkpt><trkpt lat="39.8602427" lon="8.9011633"><ele>244.0</ele><time>2026-04-23T08:49:07.662Z</time></trkpt><trkpt lat="39.8603359" lon="8.9011585"><ele>244.0</ele><time>2026-04-23T08:49:08.649Z</time></trkpt><trkpt lat="39.8604266" lon="8.9011571"><ele>243.79999999999998</ele><time>2026-04-23T08:49:09.647Z</time></trkpt><trkpt lat="39.8605143" lon="8.9011419"><ele>243.59999999999997</ele><time>2026-04-23T08:49:10.648Z</time></trkpt><trkpt lat="39.8606128" lon="8.9011082"><ele>243.4</ele><time>2026-04-23T08:49:11.651Z</time></trkpt><trkpt lat="39.8607097" lon="8.9010783"><ele>243.2</ele><time>2026-04-23T08:49:12.659Z</time></trkpt><trkpt lat="39.8608101" lon="8.9010383"><ele>243.0</ele><time>2026-04-23T08:49:13.658Z</time></trkpt><trkpt lat="39.8609045" lon="8.9009854"><ele>242.60000000000002</ele><time>2026-04-23T08:49:14.67Z</time></trkpt><trkpt lat="39.8610049" lon="8.9009284"><ele>242.20000000000002</ele><time>2026-04-23T08:49:15.657Z</time></trkpt><trkpt lat="39.8610941" lon="8.9008733"><ele>241.8</ele><time>2026-04-23T08:49:16.655Z</time></trkpt><trkpt lat="39.8611815" lon="8.900812"><ele>241.4</ele><time>2026-04-23T08:49:17.674Z</time></trkpt><trkpt lat="39.8612464" lon="8.9007237"><ele>241.0</ele><time>2026-04-23T08:49:18.65Z</time></trkpt><trkpt lat="39.861304" lon="8.9006191"><ele>238.75</ele><time>2026-04-23T08:49:19.657Z</time></trkpt><trkpt lat="39.8613404" lon="8.9004826"><ele>236.5</ele><time>2026-04-23T08:49:20.662Z</time></trkpt><trkpt lat="39.8613655" lon="8.9003313"><ele>234.25</ele><time>2026-04-23T08:49:21.653Z</time></trkpt><trkpt lat="39.8613993" lon="8.9001678"><ele>232.0</ele><time>2026-04-23T08:49:22.662Z</time></trkpt><trkpt lat="39.8614239" lon="8.8999924"><ele>232.0</ele><time>2026-04-23T08:49:23.668Z</time></trkpt><trkpt lat="39.8614567" lon="8.8998188"><ele>232.0</ele><time>2026-04-23T08:49:24.669Z</time></trkpt><trkpt lat="39.8614891" lon="8.899625"><ele>232.0</ele><time>2026-04-23T08:49:25.659Z</time></trkpt><trkpt lat="39.8615513" lon="8.8993472"><ele>233.66666666666666</ele><time>2026-04-23T08:49:26.674Z</time></trkpt><trkpt lat="39.8616386" lon="8.8990928"><ele>235.33333333333331</ele><time>2026-04-23T08:49:27.68Z</time></trkpt><trkpt lat="39.8616657" lon="8.8988331"><ele>237.0</ele><time>2026-04-23T08:49:28.669Z</time></trkpt><trkpt lat="39.8617338" lon="8.8985786"><ele>238.0</ele><time>2026-04-23T08:49:29.67Z</time></trkpt><trkpt lat="39.8617955" lon="8.8983706"><ele>239.0</ele><time>2026-04-23T08:49:30.67Z</time></trkpt><trkpt lat="39.8618794" lon="8.8982112"><ele>240.0</ele><time>2026-04-23T08:49:31.664Z</time></trkpt><trkpt lat="39.8619508" lon="8.8980462"><ele>240.0</ele><time>2026-04-23T08:49:32.667Z</time></trkpt><trkpt lat="39.8620558" lon="8.8979032"><ele>240.0</ele><time>2026-04-23T08:49:33.663Z</time></trkpt><trkpt lat="39.8622063" lon="8.8977665"><ele>240.0</ele><time>2026-04-23T08:49:34.662Z</time></trkpt><trkpt lat="39.862382" lon="8.8976302"><ele>241.33333333333331</ele><time>2026-04-23T08:49:35.654Z</time></trkpt><trkpt lat="39.8625455" lon="8.8975217"><ele>242.66666666666666</ele><time>2026-04-23T08:49:36.659Z</time></trkpt><trkpt lat="39.8627088" lon="8.8974142"><ele>244.0</ele><time>2026-04-23T08:49:37.668Z</time></trkpt><trkpt lat="39.86285" lon="8.8973371"><ele>244.0</ele><time>2026-04-23T08:49:38.661Z</time></trkpt><trkpt lat="39.8629471" lon="8.897251"><ele>244.0</ele><time>2026-04-23T08:49:39.662Z</time></trkpt><trkpt lat="39.8630471" lon="8.8971583"><ele>244.0</ele><time>2026-04-23T08:49:40.658Z</time></trkpt><trkpt lat="39.8631325" lon="8.8970398"><ele>244.0</ele><time>2026-04-23T08:49:41.656Z</time></trkpt><trkpt lat="39.8631581" lon="8.8968846"><ele>246.0</ele><time>2026-04-23T08:49:42.661Z</time></trkpt><trkpt lat="39.8631408" lon="8.8967116"><ele>248.0</ele><time>2026-04-23T08:49:43.658Z</time></trkpt><trkpt lat="39.8631574" lon="8.896588"><ele>250.0</ele><time>2026-04-23T08:49:44.645Z</time></trkpt><trkpt lat="39.8630721" lon="8.8962757"><ele>250.0</ele><time>2026-04-23T08:49:45.662Z</time></trkpt><trkpt lat="39.8630109" lon="8.8959807"><ele>250.0</ele><time>2026-04-23T08:49:46.65Z</time></trkpt><trkpt lat="39.8629411" lon="8.8956978"><ele>252.33333333333331</ele><time>2026-04-23T08:49:47.671Z</time></trkpt><trkpt lat="39.8628968" lon="8.8954757"><ele>254.66666666666669</ele><time>2026-04-23T08:49:48.657Z</time></trkpt><trkpt lat="39.8629094" lon="8.8952355"><ele>257.0</ele><time>2026-04-23T08:49:49.653Z</time></trkpt><trkpt lat="39.862967" lon="8.8950398"><ele>260.0</ele><time>2026-04-23T08:49:50.658Z</time></trkpt><trkpt lat="39.8630763" lon="8.8948645"><ele>263.0</ele><time>2026-04-23T08:49:51.66Z</time></trkpt><trkpt lat="39.8632375" lon="8.8947276"><ele>266.0</ele><time>2026-04-23T08:49:52.649Z</time></trkpt><trkpt lat="39.8634028" lon="8.894582"><ele>264.33333333333337</ele><time>2026-04-23T08:49:53.667Z</time></trkpt><trkpt lat="39.8635971" lon="8.8944532"><ele>262.6666666666667</ele><time>2026-04-23T08:49:54.66Z</time></trkpt><trkpt lat="39.8637903" lon="8.8943026"><ele>261.0</ele><time>2026-04-23T08:49:55.656Z</time></trkpt><trkpt lat="39.8639517" lon="8.8941662"><ele>261.0</ele><time>2026-04-23T08:49:56.659Z</time></trkpt><trkpt lat="39.8641404" lon="8.8940628"><ele>261.0</ele><time>2026-04-23T08:49:57.668Z</time></trkpt><trkpt lat="39.8642477" lon="8.8939744"><ele>261.0</ele><time>2026-04-23T08:49:58.657Z</time></trkpt><trkpt lat="39.8643513" lon="8.8938559"><ele>261.0</ele><time>2026-04-23T08:49:59.661Z</time></trkpt><trkpt lat="39.8644785" lon="8.8937189"><ele>261.0</ele><time>2026-04-23T08:50:00.661Z</time></trkpt><trkpt lat="39.8645497" lon="8.8935268"><ele>261.0</ele><time>2026-04-23T08:50:01.658Z</time></trkpt><trkpt lat="39.8645665" lon="8.893291"><ele>264.0</ele><time>2026-04-23T08:50:02.663Z</time></trkpt><trkpt lat="39.8646078" lon="8.8930798"><ele>267.0</ele><time>2026-04-23T08:50:03.656Z</time></trkpt><trkpt lat="39.8646007" lon="8.8929019"><ele>270.0</ele><time>2026-04-23T08:50:04.655Z</time></trkpt><trkpt lat="39.8646544" lon="8.8927097"><ele>271.3333333333333</ele><time>2026-04-23T08:50:05.652Z</time></trkpt><trkpt lat="39.8646431" lon="8.8924697"><ele>272.66666666666663</ele><time>2026-04-23T08:50:06.651Z</time></trkpt><trkpt lat="39.8645681" lon="8.8922358"><ele>274.0</ele><time>2026-04-23T08:50:07.663Z</time></trkpt><trkpt lat="39.8645153" lon="8.891946"><ele>272.3333333333333</ele><time>2026-04-23T08:50:08.642Z</time></trkpt><trkpt lat="39.8643842" lon="8.8917383"><ele>270.6666666666667</ele><time>2026-04-23T08:50:09.654Z</time></trkpt><trkpt lat="39.8642772" lon="8.8915346"><ele>269.0</ele><time>2026-04-23T08:50:10.655Z</time></trkpt><trkpt lat="39.8640713" lon="8.8914279"><ele>275.5</ele><time>2026-04-23T08:50:11.652Z</time></trkpt><trkpt lat="39.8638464" lon="8.8912969"><ele>282.0</ele><time>2026-04-23T08:50:12.657Z</time></trkpt><trkpt lat="39.8636031" lon="8.8911941"><ele>286.5</ele><time>2026-04-23T08:50:13.658Z</time></trkpt><trkpt lat="39.8633681" lon="8.8911237"><ele>291.0</ele><time>2026-04-23T08:50:14.667Z</time></trkpt><trkpt lat="39.8631428" lon="8.891042"><ele>291.0</ele><time>2026-04-23T08:50:15.669Z</time></trkpt><trkpt lat="39.8629787" lon="8.8909738"><ele>291.0</ele><time>2026-04-23T08:50:16.663Z</time></trkpt><trkpt lat="39.8628239" lon="8.890875"><ele>291.0</ele><time>2026-04-23T08:50:17.671Z</time></trkpt><trkpt lat="39.8627141" lon="8.8907705"><ele>290.3333333333333</ele><time>2026-04-23T08:50:18.66Z</time></trkpt><trkpt lat="39.8626087" lon="8.8906507"><ele>289.66666666666663</ele><time>2026-04-23T08:50:19.654Z</time></trkpt><trkpt lat="39.8626032" lon="8.890431"><ele>289.0</ele><time>2026-04-23T08:50:20.657Z</time></trkpt><trkpt lat="39.8625833" lon="8.8902352"><ele>289.3333333333333</ele><time>2026-04-23T08:50:21.661Z</time></trkpt><trkpt lat="39.8626021" lon="8.8900483"><ele>289.6666666666667</ele><time>2026-04-23T08:50:22.66Z</time></trkpt><trkpt lat="39.8626695" lon="8.8898402"><ele>290.0</ele><time>2026-04-23T08:50:23.652Z</time></trkpt><trkpt lat="39.8627854" lon="8.8895834"><ele>290.0</ele><time>2026-04-23T08:50:24.665Z</time></trkpt><trkpt lat="39.862952" lon="8.8893134"><ele>290.0</ele><time>2026-04-23T08:50:25.665Z</time></trkpt><trkpt lat="39.8631416" lon="8.8890489"><ele>290.0</ele><time>2026-04-23T08:50:26.664Z</time></trkpt><trkpt lat="39.8633505" lon="8.8888304"><ele>290.0</ele><time>2026-04-23T08:50:27.677Z</time></trkpt><trkpt lat="39.8635557" lon="8.8886074"><ele>289.5</ele><time>2026-04-23T08:50:28.67Z</time></trkpt><trkpt lat="39.8637586" lon="8.8883712"><ele>289.0</ele><time>2026-04-23T08:50:29.672Z</time></trkpt><trkpt lat="39.8639858" lon="8.8881101"><ele>289.0</ele><time>2026-04-23T08:50:30.67Z</time></trkpt><trkpt lat="39.8641927" lon="8.8878852"><ele>289.0</ele><time>2026-04-23T08:50:31.667Z</time></trkpt><trkpt lat="39.864377" lon="8.8876624"><ele>290.0</ele><time>2026-04-23T08:50:32.668Z</time></trkpt><trkpt lat="39.8645873" lon="8.8874504"><ele>291.0</ele><time>2026-04-23T08:50:33.656Z</time></trkpt><trkpt lat="39.8647634" lon="8.8872149"><ele>291.0</ele><time>2026-04-23T08:50:34.666Z</time></trkpt><trkpt lat="39.8649168" lon="8.8869461"><ele>291.0</ele><time>2026-04-23T08:50:35.666Z</time></trkpt><trkpt lat="39.8650757" lon="8.886687"><ele>287.0</ele><time>2026-04-23T08:50:36.66Z</time></trkpt><trkpt lat="39.8652401" lon="8.8864201"><ele>283.0</ele><time>2026-04-23T08:50:37.673Z</time></trkpt><trkpt lat="39.8653831" lon="8.8861501"><ele>289.5</ele><time>2026-04-23T08:50:38.665Z</time></trkpt><trkpt lat="39.8655249" lon="8.8859163"><ele>296.0</ele><time>2026-04-23T08:50:39.667Z</time></trkpt><trkpt lat="39.8656155" lon="8.8856363"><ele>296.0</ele><time>2026-04-23T08:50:40.657Z</time></trkpt><trkpt lat="39.8657569" lon="8.8854343"><ele>296.0</ele><time>2026-04-23T08:50:41.657Z</time></trkpt><trkpt lat="39.8658811" lon="8.8852235"><ele>296.0</ele><time>2026-04-23T08:50:42.665Z</time></trkpt><trkpt lat="39.865975" lon="8.8850546"><ele>292.33333333333337</ele><time>2026-04-23T08:50:43.663Z</time></trkpt><trkpt lat="39.8660729" lon="8.8848427"><ele>288.6666666666667</ele><time>2026-04-23T08:50:44.659Z</time></trkpt><trkpt lat="39.8661543" lon="8.8846023"><ele>285.0</ele><time>2026-04-23T08:50:45.662Z</time></trkpt><trkpt lat="39.8661763" lon="8.884332"><ele>287.3333333333333</ele><time>2026-04-23T08:50:46.659Z</time></trkpt><trkpt lat="39.8662017" lon="8.8840727"><ele>289.66666666666663</ele><time>2026-04-23T08:50:47.67Z</time></trkpt><trkpt lat="39.8662078" lon="8.8837954"><ele>292.0</ele><time>2026-04-23T08:50:48.662Z</time></trkpt><trkpt lat="39.8662055" lon="8.8834865"><ele>295.0</ele><time>2026-04-23T08:50:49.668Z</time></trkpt><trkpt lat="39.866191" lon="8.8831567"><ele>298.0</ele><time>2026-04-23T08:50:50.666Z</time></trkpt><trkpt lat="39.8662256" lon="8.8828811"><ele>301.5</ele><time>2026-04-23T08:50:51.668Z</time></trkpt><trkpt lat="39.8662339" lon="8.8825436"><ele>305.0</ele><time>2026-04-23T08:50:52.668Z</time></trkpt><trkpt lat="39.8662154" lon="8.8822226"><ele>305.0</ele><time>2026-04-23T08:50:53.669Z</time></trkpt><trkpt lat="39.8661629" lon="8.881891"><ele>305.0</ele><time>2026-04-23T08:50:54.67Z</time></trkpt><trkpt lat="39.8661335" lon="8.8815742"><ele>307.0</ele><time>2026-04-23T08:50:55.676Z</time></trkpt><trkpt lat="39.866132" lon="8.8813063"><ele>309.0</ele><time>2026-04-23T08:50:56.665Z</time></trkpt><trkpt lat="39.8660889" lon="8.8809763"><ele>308.0</ele><time>2026-04-23T08:50:57.682Z</time></trkpt><trkpt lat="39.8660433" lon="8.880658"><ele>307.0</ele><time>2026-04-23T08:50:58.667Z</time></trkpt><trkpt lat="39.8660202" lon="8.880359"><ele>307.0</ele><time>2026-04-23T08:50:59.668Z</time></trkpt><trkpt lat="39.8659725" lon="8.8800611"><ele>307.0</ele><time>2026-04-23T08:51:00.661Z</time></trkpt><trkpt lat="39.8658924" lon="8.8797898"><ele>307.3333333333333</ele><time>2026-04-23T08:51:01.662Z</time></trkpt><trkpt lat="39.8658385" lon="8.8795284"><ele>307.6666666666667</ele><time>2026-04-23T08:51:02.664Z</time></trkpt><trkpt lat="39.8657877" lon="8.8792238"><ele>308.0</ele><time>2026-04-23T08:51:03.661Z</time></trkpt><trkpt lat="39.865762" lon="8.87897"><ele>308.0</ele><time>2026-04-23T08:51:04.665Z</time></trkpt><trkpt lat="39.8657689" lon="8.8786961"><ele>308.0</ele><time>2026-04-23T08:51:05.657Z</time></trkpt><trkpt lat="39.865798" lon="8.878432"><ele>308.0</ele><time>2026-04-23T08:51:06.66Z</time></trkpt><trkpt lat="39.8658399" lon="8.878125"><ele>311.5</ele><time>2026-04-23T08:51:07.669Z</time></trkpt><trkpt lat="39.8659264" lon="8.8778071"><ele>315.0</ele><time>2026-04-23T08:51:08.661Z</time></trkpt><trkpt lat="39.8659896" lon="8.877528"><ele>320.0</ele><time>2026-04-23T08:51:09.66Z</time></trkpt><trkpt lat="39.8660583" lon="8.877254"><ele>325.0</ele><time>2026-04-23T08:51:10.658Z</time></trkpt><trkpt lat="39.866134" lon="8.8770057"><ele>330.0</ele><time>2026-04-23T08:51:11.668Z</time></trkpt><trkpt lat="39.8661881" lon="8.8767657"><ele>331.3333333333333</ele><time>2026-04-23T08:51:12.662Z</time></trkpt><trkpt lat="39.8662109" lon="8.8764822"><ele>332.66666666666663</ele><time>2026-04-23T08:51:13.659Z</time></trkpt><trkpt lat="39.8661917" lon="8.8762148"><ele>334.0</ele><time>2026-04-23T08:51:14.66Z</time></trkpt><trkpt lat="39.8661558" lon="8.8759217"><ele>334.0</ele><time>2026-04-23T08:51:15.657Z</time></trkpt><trkpt lat="39.866046" lon="8.8757057"><ele>334.0</ele><time>2026-04-23T08:51:16.671Z</time></trkpt><trkpt lat="39.8659255" lon="8.8755"><ele>334.0</ele><time>2026-04-23T08:51:17.677Z</time></trkpt><trkpt lat="39.8658577" lon="8.8753621"><ele>332.75</ele><time>2026-04-23T08:51:18.668Z</time></trkpt><trkpt lat="39.8658113" lon="8.8751938"><ele>331.5</ele><time>2026-04-23T08:51:19.666Z</time></trkpt><trkpt lat="39.8658177" lon="8.8750194"><ele>330.25</ele><time>2026-04-23T08:51:20.664Z</time></trkpt><trkpt lat="39.865875" lon="8.8748076"><ele>329.0</ele><time>2026-04-23T08:51:21.649Z</time></trkpt><trkpt lat="39.8659666" lon="8.87466"><ele>329.0</ele><time>2026-04-23T08:51:22.654Z</time></trkpt><trkpt lat="39.8660266" lon="8.8744952"><ele>329.0</ele><time>2026-04-23T08:51:23.655Z</time></trkpt><trkpt lat="39.8661693" lon="8.8743457"><ele>329.0</ele><time>2026-04-23T08:51:24.649Z</time></trkpt><trkpt lat="39.8663509" lon="8.8741709"><ele>327.0</ele><time>2026-04-23T08:51:25.664Z</time></trkpt><trkpt lat="39.8665645" lon="8.8740524"><ele>325.0</ele><time>2026-04-23T08:51:26.667Z</time></trkpt><trkpt lat="39.8667432" lon="8.8739079"><ele>323.0</ele><time>2026-04-23T08:51:27.678Z</time></trkpt><trkpt lat="39.8668987" lon="8.8737473"><ele>323.0</ele><time>2026-04-23T08:51:28.668Z</time></trkpt><trkpt lat="39.8670375" lon="8.8736262"><ele>323.0</ele><time>2026-04-23T08:51:29.663Z</time></trkpt><trkpt lat="39.8671539" lon="8.8734686"><ele>323.0</ele><time>2026-04-23T08:51:30.662Z</time></trkpt><trkpt lat="39.8672307" lon="8.8732717"><ele>322.33333333333337</ele><time>2026-04-23T08:51:31.656Z</time></trkpt><trkpt lat="39.8673718" lon="8.8731351"><ele>321.6666666666667</ele><time>2026-04-23T08:51:32.661Z</time></trkpt><trkpt lat="39.867385" lon="8.8729047"><ele>321.0</ele><time>2026-04-23T08:51:33.656Z</time></trkpt><trkpt lat="39.8673579" lon="8.87262"><ele>320.6666666666667</ele><time>2026-04-23T08:51:34.652Z</time></trkpt><trkpt lat="39.8673284" lon="8.8723356"><ele>320.33333333333337</ele><time>2026-04-23T08:51:35.664Z</time></trkpt><trkpt lat="39.8673044" lon="8.8720865"><ele>320.0</ele><time>2026-04-23T08:51:36.662Z</time></trkpt><trkpt lat="39.8672915" lon="8.8718512"><ele>319.75</ele><time>2026-04-23T08:51:37.673Z</time></trkpt><trkpt lat="39.8673144" lon="8.8716637"><ele>319.5</ele><time>2026-04-23T08:51:38.663Z</time></trkpt><trkpt lat="39.8673658" lon="8.8714787"><ele>319.25</ele><time>2026-04-23T08:51:39.666Z</time></trkpt><trkpt lat="39.8674292" lon="8.8713086"><ele>319.0</ele><time>2026-04-23T08:51:40.661Z</time></trkpt><trkpt lat="39.8675534" lon="8.8711366"><ele>319.3333333333333</ele><time>2026-04-23T08:51:41.659Z</time></trkpt><trkpt lat="39.8677204" lon="8.8710382"><ele>319.6666666666667</ele><time>2026-04-23T08:51:42.648Z</time></trkpt><trkpt lat="39.8678798" lon="8.8709212"><ele>320.0</ele><time>2026-04-23T08:51:43.647Z</time></trkpt><trkpt lat="39.8680831" lon="8.8708263"><ele>320.0</ele><time>2026-04-23T08:51:44.65Z</time></trkpt><trkpt lat="39.8682833" lon="8.8707761"><ele>320.0</ele><time>2026-04-23T08:51:45.652Z</time></trkpt><trkpt lat="39.8684876" lon="8.8707097"><ele>320.0</ele><time>2026-04-23T08:51:46.661Z</time></trkpt><trkpt lat="39.8686737" lon="8.8706152"><ele>320.0</ele><time>2026-04-23T08:51:47.654Z</time></trkpt><trkpt lat="39.868885" lon="8.8705314"><ele>320.0</ele><time>2026-04-23T08:51:48.653Z</time></trkpt><trkpt lat="39.8690971" lon="8.8704762"><ele>320.0</ele><time>2026-04-23T08:51:49.653Z</time></trkpt><trkpt lat="39.8693051" lon="8.870453"><ele>320.0</ele><time>2026-04-23T08:51:50.655Z</time></trkpt><trkpt lat="39.8694751" lon="8.8704335"><ele>320.0</ele><time>2026-04-23T08:51:51.655Z</time></trkpt><trkpt lat="39.8696063" lon="8.8704096"><ele>320.0</ele><time>2026-04-23T08:51:52.649Z</time></trkpt><trkpt lat="39.86972" lon="8.8704101"><ele>320.0</ele><time>2026-04-23T08:51:53.657Z</time></trkpt><trkpt lat="39.8698244" lon="8.8703914"><ele>320.0</ele><time>2026-04-23T08:51:54.652Z</time></trkpt><trkpt lat="39.8699234" lon="8.870285"><ele>320.0</ele><time>2026-04-23T08:51:55.657Z</time></trkpt><trkpt lat="39.8700359" lon="8.8701004"><ele>320.0</ele><time>2026-04-23T08:51:56.661Z</time></trkpt><trkpt lat="39.870111" lon="8.8698606"><ele>321.5</ele><time>2026-04-23T08:51:57.657Z</time></trkpt><trkpt lat="39.8701601" lon="8.8697196"><ele>323.0</ele><time>2026-04-23T08:51:58.664Z</time></trkpt><trkpt lat="39.8702041" lon="8.8695547"><ele>324.5</ele><time>2026-04-23T08:51:59.654Z</time></trkpt><trkpt lat="39.8702517" lon="8.8693992"><ele>326.0</ele><time>2026-04-23T08:52:00.656Z</time></trkpt><trkpt lat="39.8703033" lon="8.8692495"><ele>326.0</ele><time>2026-04-23T08:52:01.65Z</time></trkpt><trkpt lat="39.87035" lon="8.8691017"><ele>326.0</ele><time>2026-04-23T08:52:02.655Z</time></trkpt><trkpt lat="39.8703786" lon="8.8690053"><ele>326.0</ele><time>2026-04-23T08:52:03.661Z</time></trkpt><trkpt lat="39.8703932" lon="8.8689034"><ele>326.0</ele><time>2026-04-23T08:52:04.656Z</time></trkpt><trkpt lat="39.8704078" lon="8.8688121"><ele>326.0</ele><time>2026-04-23T08:52:05.655Z</time></trkpt><trkpt lat="39.870466" lon="8.8687263"><ele>326.0</ele><time>2026-04-23T08:52:07.649Z</time></trkpt><trkpt lat="39.870438" lon="8.8685986"><ele>326.0</ele><time>2026-04-23T08:52:10.665Z</time></trkpt><trkpt lat="39.8703636" lon="8.8685434"><ele>326.0</ele><time>2026-04-23T08:52:11.662Z</time></trkpt><trkpt lat="39.8702687" lon="8.8685077"><ele>326.0</ele><time>2026-04-23T08:52:12.652Z</time></trkpt><trkpt lat="39.870146" lon="8.8684584"><ele>326.0</ele><time>2026-04-23T08:52:13.661Z</time></trkpt><trkpt lat="39.8699885" lon="8.8683854"><ele>322.6666666666667</ele><time>2026-04-23T08:52:14.652Z</time></trkpt><trkpt lat="39.8698289" lon="8.8683152"><ele>319.3333333333333</ele><time>2026-04-23T08:52:15.653Z</time></trkpt><trkpt lat="39.8696408" lon="8.8682168"><ele>316.0</ele><time>2026-04-23T08:52:16.645Z</time></trkpt><trkpt lat="39.8695184" lon="8.8680698"><ele>316.0</ele><time>2026-04-23T08:52:17.661Z</time></trkpt><trkpt lat="39.8693337" lon="8.8679125"><ele>316.0</ele><time>2026-04-23T08:52:18.659Z</time></trkpt><trkpt lat="39.8692125" lon="8.8677451"><ele>316.0</ele><time>2026-04-23T08:52:19.658Z</time></trkpt><trkpt lat="39.8691208" lon="8.867539"><ele>316.0</ele><time>2026-04-23T08:52:20.66Z</time></trkpt><trkpt lat="39.8689967" lon="8.8673159"><ele>316.0</ele><time>2026-04-23T08:52:21.659Z</time></trkpt><trkpt lat="39.8689121" lon="8.8670884"><ele>316.0</ele><time>2026-04-23T08:52:22.656Z</time></trkpt><trkpt lat="39.8687749" lon="8.8668503"><ele>315.0</ele><time>2026-04-23T08:52:23.658Z</time></trkpt><trkpt lat="39.8686563" lon="8.8666154"><ele>314.0</ele><time>2026-04-23T08:52:24.663Z</time></trkpt><trkpt lat="39.8685433" lon="8.8664104"><ele>313.0</ele><time>2026-04-23T08:52:25.669Z</time></trkpt><trkpt lat="39.8684037" lon="8.8661591"><ele>315.0</ele><time>2026-04-23T08:52:26.675Z</time></trkpt><trkpt lat="39.868287" lon="8.8659816"><ele>317.0</ele><time>2026-04-23T08:52:27.666Z</time></trkpt><trkpt lat="39.8681535" lon="8.8657721"><ele>319.0</ele><time>2026-04-23T08:52:28.666Z</time></trkpt><trkpt lat="39.8680233" lon="8.8655815"><ele>314.66666666666663</ele><time>2026-04-23T08:52:29.673Z</time></trkpt><trkpt lat="39.8679029" lon="8.8653613"><ele>310.3333333333333</ele><time>2026-04-23T08:52:30.664Z</time></trkpt><trkpt lat="39.8677936" lon="8.8651582"><ele>306.0</ele><time>2026-04-23T08:52:31.663Z</time></trkpt><trkpt lat="39.8676909" lon="8.8649324"><ele>307.6666666666667</ele><time>2026-04-23T08:52:32.67Z</time></trkpt><trkpt lat="39.8676293" lon="8.8646999"><ele>309.33333333333337</ele><time>2026-04-23T08:52:33.667Z</time></trkpt><trkpt lat="39.8675435" lon="8.8644826"><ele>311.0</ele><time>2026-04-23T08:52:34.669Z</time></trkpt><trkpt lat="39.8674626" lon="8.8642357"><ele>311.0</ele><time>2026-04-23T08:52:35.669Z</time></trkpt><trkpt lat="39.867343" lon="8.8640637"><ele>311.0</ele><time>2026-04-23T08:52:36.67Z</time></trkpt><trkpt lat="39.8673092" lon="8.8638556"><ele>311.0</ele><time>2026-04-23T08:52:37.665Z</time></trkpt><trkpt lat="39.8672545" lon="8.8636446"><ele>309.33333333333337</ele><time>2026-04-23T08:52:38.672Z</time></trkpt><trkpt lat="39.8671957" lon="8.8634271"><ele>307.6666666666667</ele><time>2026-04-23T08:52:39.669Z</time></trkpt><trkpt lat="39.8671194" lon="8.8632315"><ele>306.0</ele><time>2026-04-23T08:52:40.673Z</time></trkpt><trkpt lat="39.8670706" lon="8.8630527"><ele>306.0</ele><time>2026-04-23T08:52:41.667Z</time></trkpt><trkpt lat="39.8670074" lon="8.8629066"><ele>306.0</ele><time>2026-04-23T08:52:42.67Z</time></trkpt><trkpt lat="39.8669295" lon="8.862768"><ele>306.0</ele><time>2026-04-23T08:52:43.662Z</time></trkpt><trkpt lat="39.8668956" lon="8.8626218"><ele>306.0</ele><time>2026-04-23T08:52:44.678Z</time></trkpt><trkpt lat="39.8668433" lon="8.862461"><ele>305.75</ele><time>2026-04-23T08:52:45.661Z</time></trkpt><trkpt lat="39.8667698" lon="8.8623153"><ele>305.5</ele><time>2026-04-23T08:52:46.669Z</time></trkpt><trkpt lat="39.866719" lon="8.8621855"><ele>305.25</ele><time>2026-04-23T08:52:47.679Z</time></trkpt><trkpt lat="39.8666816" lon="8.8620565"><ele>305.0</ele><time>2026-04-23T08:52:48.682Z</time></trkpt><trkpt lat="39.8666241" lon="8.8619082"><ele>303.0</ele><time>2026-04-23T08:52:49.679Z</time></trkpt><trkpt lat="39.8665705" lon="8.8617628"><ele>301.0</ele><time>2026-04-23T08:52:50.677Z</time></trkpt><trkpt lat="39.8665181" lon="8.8616178"><ele>299.0</ele><time>2026-04-23T08:52:51.674Z</time></trkpt><trkpt lat="39.8664688" lon="8.8614718"><ele>297.0</ele><time>2026-04-23T08:52:52.677Z</time></trkpt><trkpt lat="39.8664183" lon="8.8613388"><ele>297.0</ele><time>2026-04-23T08:52:53.666Z</time></trkpt><trkpt lat="39.8663659" lon="8.8612255"><ele>297.0</ele><time>2026-04-23T08:52:54.667Z</time></trkpt><trkpt lat="39.8662953" lon="8.8611137"><ele>297.0</ele><time>2026-04-23T08:52:55.672Z</time></trkpt><trkpt lat="39.8662131" lon="8.8610156"><ele>297.0</ele><time>2026-04-23T08:52:56.668Z</time></trkpt><trkpt lat="39.8661267" lon="8.860902"><ele>297.0</ele><time>2026-04-23T08:52:57.671Z</time></trkpt><trkpt lat="39.8660488" lon="8.8607882"><ele>297.25</ele><time>2026-04-23T08:52:58.666Z</time></trkpt><trkpt lat="39.8659818" lon="8.8606782"><ele>297.5</ele><time>2026-04-23T08:52:59.668Z</time></trkpt><trkpt lat="39.8659183" lon="8.8605517"><ele>297.75</ele><time>2026-04-23T08:53:00.668Z</time></trkpt><trkpt lat="39.8658765" lon="8.8604193"><ele>298.0</ele><time>2026-04-23T08:53:01.666Z</time></trkpt><trkpt lat="39.8658501" lon="8.8602673"><ele>296.8</ele><time>2026-04-23T08:53:02.671Z</time></trkpt><trkpt lat="39.8658206" lon="8.8601158"><ele>295.6</ele><time>2026-04-23T08:53:03.667Z</time></trkpt><trkpt lat="39.8658018" lon="8.859967"><ele>294.4</ele><time>2026-04-23T08:53:04.665Z</time></trkpt><trkpt lat="39.8657756" lon="8.8598268"><ele>293.2</ele><time>2026-04-23T08:53:05.668Z</time></trkpt><trkpt lat="39.8657428" lon="8.8597015"><ele>292.0</ele><time>2026-04-23T08:53:06.669Z</time></trkpt><trkpt lat="39.8657178" lon="8.859571"><ele>292.0</ele><time>2026-04-23T08:53:07.67Z</time></trkpt><trkpt lat="39.8656991" lon="8.859437"><ele>292.0</ele><time>2026-04-23T08:53:08.665Z</time></trkpt><trkpt lat="39.865681" lon="8.8593063"><ele>292.0</ele><time>2026-04-23T08:53:09.663Z</time></trkpt><trkpt lat="39.865645" lon="8.8591726"><ele>292.0</ele><time>2026-04-23T08:53:10.67Z</time></trkpt><trkpt lat="39.8656114" lon="8.8590431"><ele>292.0</ele><time>2026-04-23T08:53:11.656Z</time></trkpt><trkpt lat="39.8655735" lon="8.8589215"><ele>290.8</ele><time>2026-04-23T08:53:12.661Z</time></trkpt><trkpt lat="39.8655081" lon="8.8588229"><ele>289.6</ele><time>2026-04-23T08:53:13.659Z</time></trkpt><trkpt lat="39.8654385" lon="8.8587345"><ele>288.40000000000003</ele><time>2026-04-23T08:53:14.652Z</time></trkpt><trkpt lat="39.8653711" lon="8.8586595"><ele>287.2</ele><time>2026-04-23T08:53:15.658Z</time></trkpt><trkpt lat="39.8652915" lon="8.8586147"><ele>286.0</ele><time>2026-04-23T08:53:16.653Z</time></trkpt><trkpt lat="39.8652088" lon="8.8586011"><ele>286.8</ele><time>2026-04-23T08:53:17.658Z</time></trkpt><trkpt lat="39.8651104" lon="8.8586075"><ele>287.6</ele><time>2026-04-23T08:53:18.657Z</time></trkpt><trkpt lat="39.8650125" lon="8.8586262"><ele>288.4</ele><time>2026-04-23T08:53:19.665Z</time></trkpt><trkpt lat="39.864917" lon="8.858649"><ele>289.2</ele><time>2026-04-23T08:53:20.66Z</time></trkpt><trkpt lat="39.8648215" lon="8.8586654"><ele>290.0</ele><time>2026-04-23T08:53:21.661Z</time></trkpt><trkpt lat="39.8647145" lon="8.8586676"><ele>290.0</ele><time>2026-04-23T08:53:22.661Z</time></trkpt><trkpt lat="39.8646274" lon="8.858649"><ele>290.0</ele><time>2026-04-23T08:53:23.662Z</time></trkpt><trkpt lat="39.8645297" lon="8.8586422"><ele>290.0</ele><time>2026-04-23T08:53:24.665Z</time></trkpt><trkpt lat="39.8644377" lon="8.858662"><ele>290.0</ele><time>2026-04-23T08:53:25.66Z</time></trkpt><trkpt lat="39.864339" lon="8.8587144"><ele>290.0</ele><time>2026-04-23T08:53:26.664Z</time></trkpt><trkpt lat="39.8642462" lon="8.8587874"><ele>289.2</ele><time>2026-04-23T08:53:27.659Z</time></trkpt><trkpt lat="39.8641646" lon="8.8588615"><ele>288.4</ele><time>2026-04-23T08:53:28.66Z</time></trkpt><trkpt lat="39.8640689" lon="8.8588976"><ele>287.6</ele><time>2026-04-23T08:53:29.66Z</time></trkpt><trkpt lat="39.8639765" lon="8.8589336"><ele>286.8</ele><time>2026-04-23T08:53:30.656Z</time></trkpt><trkpt lat="39.8638911" lon="8.8589328"><ele>286.0</ele><time>2026-04-23T08:53:31.661Z</time></trkpt><trkpt lat="39.8637883" lon="8.8589612"><ele>286.0</ele><time>2026-04-23T08:53:32.655Z</time></trkpt><trkpt lat="39.8636947" lon="8.8589952"><ele>286.0</ele><time>2026-04-23T08:53:33.659Z</time></trkpt><trkpt lat="39.8635991" lon="8.8590625"><ele>286.0</ele><time>2026-04-23T08:53:34.657Z</time></trkpt><trkpt lat="39.8635167" lon="8.8591211"><ele>286.0</ele><time>2026-04-23T08:53:35.657Z</time></trkpt><trkpt lat="39.8634308" lon="8.859168"><ele>286.0</ele><time>2026-04-23T08:53:36.658Z</time></trkpt><trkpt lat="39.8633504" lon="8.859179"><ele>284.6</ele><time>2026-04-23T08:53:37.657Z</time></trkpt><trkpt lat="39.8632716" lon="8.8591541"><ele>283.20000000000005</ele><time>2026-04-23T08:53:38.653Z</time></trkpt><trkpt lat="39.863187" lon="8.8590956"><ele>281.79999999999995</ele><time>2026-04-23T08:53:39.664Z</time></trkpt><trkpt lat="39.8631037" lon="8.8589901"><ele>280.4</ele><time>2026-04-23T08:53:40.659Z</time></trkpt><trkpt lat="39.8630392" lon="8.8588334"><ele>279.0</ele><time>2026-04-23T08:53:41.648Z</time></trkpt><trkpt lat="39.8629947" lon="8.8586638"><ele>279.0</ele><time>2026-04-23T08:53:42.649Z</time></trkpt><trkpt lat="39.8629921" lon="8.8584872"><ele>279.0</ele><time>2026-04-23T08:53:43.658Z</time></trkpt><trkpt lat="39.8629767" lon="8.8583326"><ele>279.0</ele><time>2026-04-23T08:53:44.662Z</time></trkpt><trkpt lat="39.8629843" lon="8.8581965"><ele>279.0</ele><time>2026-04-23T08:53:45.668Z</time></trkpt><trkpt lat="39.8630156" lon="8.8580519"><ele>277.25</ele><time>2026-04-23T08:53:46.666Z</time></trkpt><trkpt lat="39.8630825" lon="8.8579065"><ele>275.5</ele><time>2026-04-23T08:53:47.669Z</time></trkpt><trkpt lat="39.863169" lon="8.857768"><ele>273.75</ele><time>2026-04-23T08:53:48.668Z</time></trkpt><trkpt lat="39.8632665" lon="8.8576612"><ele>272.0</ele><time>2026-04-23T08:53:49.664Z</time></trkpt><trkpt lat="39.8633493" lon="8.8575556"><ele>271.4</ele><time>2026-04-23T08:53:50.656Z</time></trkpt><trkpt lat="39.8634298" lon="8.85744"><ele>270.79999999999995</ele><time>2026-04-23T08:53:51.668Z</time></trkpt><trkpt lat="39.863488" lon="8.8573199"><ele>270.2</ele><time>2026-04-23T08:53:52.652Z</time></trkpt><trkpt lat="39.8634864" lon="8.857182"><ele>269.59999999999997</ele><time>2026-04-23T08:53:53.651Z</time></trkpt><trkpt lat="39.863453" lon="8.8570418"><ele>269.0</ele><time>2026-04-23T08:53:54.659Z</time></trkpt><trkpt lat="39.8633898" lon="8.8568907"><ele>267.75</ele><time>2026-04-23T08:53:55.673Z</time></trkpt><trkpt lat="39.8633268" lon="8.8567313"><ele>266.5</ele><time>2026-04-23T08:53:56.668Z</time></trkpt><trkpt lat="39.8632882" lon="8.8565785"><ele>265.25</ele><time>2026-04-23T08:53:57.67Z</time></trkpt><trkpt lat="39.8632979" lon="8.8564333"><ele>264.0</ele><time>2026-04-23T08:53:58.657Z</time></trkpt><trkpt lat="39.8633126" lon="8.8562581"><ele>264.0</ele><time>2026-04-23T08:53:59.657Z</time></trkpt><trkpt lat="39.8633693" lon="8.8560864"><ele>264.0</ele><time>2026-04-23T08:54:00.651Z</time></trkpt><trkpt lat="39.863432" lon="8.8559234"><ele>264.0</ele><time>2026-04-23T08:54:01.652Z</time></trkpt><trkpt lat="39.8634892" lon="8.8557825"><ele>264.0</ele><time>2026-04-23T08:54:02.646Z</time></trkpt><trkpt lat="39.8635546" lon="8.8556586"><ele>263.0</ele><time>2026-04-23T08:54:03.647Z</time></trkpt><trkpt lat="39.8636204" lon="8.8555434"><ele>262.0</ele><time>2026-04-23T08:54:04.652Z</time></trkpt><trkpt lat="39.8636812" lon="8.8554034"><ele>261.0</ele><time>2026-04-23T08:54:05.651Z</time></trkpt><trkpt lat="39.8637219" lon="8.8552458"><ele>260.0</ele><time>2026-04-23T08:54:06.654Z</time></trkpt><trkpt lat="39.8637425" lon="8.8550694"><ele>259.6666666666667</ele><time>2026-04-23T08:54:07.659Z</time></trkpt><trkpt lat="39.8637229" lon="8.854851"><ele>259.3333333333333</ele><time>2026-04-23T08:54:08.651Z</time></trkpt><trkpt lat="39.86368" lon="8.854647"><ele>259.0</ele><time>2026-04-23T08:54:09.645Z</time></trkpt><trkpt lat="39.8635822" lon="8.8544787"><ele>259.0</ele><time>2026-04-23T08:54:10.649Z</time></trkpt><trkpt lat="39.8634877" lon="8.8543318"><ele>259.0</ele><time>2026-04-23T08:54:11.652Z</time></trkpt><trkpt lat="39.8633628" lon="8.8542457"><ele>259.0</ele><time>2026-04-23T08:54:12.653Z</time></trkpt><trkpt lat="39.8632076" lon="8.8541895"><ele>259.0</ele><time>2026-04-23T08:54:13.649Z</time></trkpt><trkpt lat="39.862971" lon="8.8541704"><ele>262.0</ele><time>2026-04-23T08:54:14.649Z</time></trkpt><trkpt lat="39.8626963" lon="8.8541043"><ele>265.0</ele><time>2026-04-23T08:54:15.655Z</time></trkpt><trkpt lat="39.8624876" lon="8.8539739"><ele>269.3333333333333</ele><time>2026-04-23T08:54:16.666Z</time></trkpt><trkpt lat="39.8622993" lon="8.8538515"><ele>273.6666666666667</ele><time>2026-04-23T08:54:17.661Z</time></trkpt><trkpt lat="39.8620972" lon="8.8537932"><ele>278.0</ele><time>2026-04-23T08:54:18.656Z</time></trkpt><trkpt lat="39.8618686" lon="8.8537728"><ele>280.6666666666667</ele><time>2026-04-23T08:54:19.66Z</time></trkpt><trkpt lat="39.8616529" lon="8.8537301"><ele>283.3333333333333</ele><time>2026-04-23T08:54:20.661Z</time></trkpt><trkpt lat="39.8614318" lon="8.8536863"><ele>286.0</ele><time>2026-04-23T08:54:21.662Z</time></trkpt><trkpt lat="39.8612365" lon="8.8535667"><ele>285.3333333333333</ele><time>2026-04-23T08:54:22.661Z</time></trkpt><trkpt lat="39.8610362" lon="8.8534292"><ele>284.6666666666667</ele><time>2026-04-23T08:54:23.657Z</time></trkpt><trkpt lat="39.8608405" lon="8.8532953"><ele>284.0</ele><time>2026-04-23T08:54:24.664Z</time></trkpt><trkpt lat="39.8606443" lon="8.8531759"><ele>284.0</ele><time>2026-04-23T08:54:25.661Z</time></trkpt><trkpt lat="39.8604746" lon="8.8530698"><ele>284.0</ele><time>2026-04-23T08:54:26.661Z</time></trkpt><trkpt lat="39.8602904" lon="8.852967"><ele>284.0</ele><time>2026-04-23T08:54:27.66Z</time></trkpt><trkpt lat="39.8601237" lon="8.8528479"><ele>284.33333333333337</ele><time>2026-04-23T08:54:28.656Z</time></trkpt><trkpt lat="39.8599864" lon="8.8527282"><ele>284.6666666666667</ele><time>2026-04-23T08:54:29.656Z</time></trkpt><trkpt lat="39.8598407" lon="8.8526347"><ele>285.0</ele><time>2026-04-23T08:54:30.663Z</time></trkpt><trkpt lat="39.8596674" lon="8.8525735"><ele>285.0</ele><time>2026-04-23T08:54:31.657Z</time></trkpt><trkpt lat="39.8594876" lon="8.8525495"><ele>285.0</ele><time>2026-04-23T08:54:32.653Z</time></trkpt><trkpt lat="39.8592976" lon="8.8525345"><ele>285.0</ele><time>2026-04-23T08:54:33.653Z</time></trkpt><trkpt lat="39.8591149" lon="8.8525312"><ele>284.0</ele><time>2026-04-23T08:54:34.666Z</time></trkpt><trkpt lat="39.8589378" lon="8.8525173"><ele>283.0</ele><time>2026-04-23T08:54:35.662Z</time></trkpt><trkpt lat="39.8587348" lon="8.8525412"><ele>282.0</ele><time>2026-04-23T08:54:36.657Z</time></trkpt><trkpt lat="39.8585672" lon="8.852538"><ele>280.6666666666667</ele><time>2026-04-23T08:54:37.657Z</time></trkpt><trkpt lat="39.8584038" lon="8.852518"><ele>279.33333333333337</ele><time>2026-04-23T08:54:38.663Z</time></trkpt><trkpt lat="39.8582235" lon="8.8525097"><ele>278.0</ele><time>2026-04-23T08:54:39.659Z</time></trkpt><trkpt lat="39.8580694" lon="8.8524862"><ele>278.0</ele><time>2026-04-23T08:54:40.661Z</time></trkpt><trkpt lat="39.8579099" lon="8.8524495"><ele>278.0</ele><time>2026-04-23T08:54:41.661Z</time></trkpt><trkpt lat="39.8577515" lon="8.8523969"><ele>278.0</ele><time>2026-04-23T08:54:42.661Z</time></trkpt><trkpt lat="39.8576251" lon="8.8523125"><ele>279.0</ele><time>2026-04-23T08:54:43.661Z</time></trkpt><trkpt lat="39.8574933" lon="8.8522201"><ele>280.0</ele><time>2026-04-23T08:54:44.659Z</time></trkpt><trkpt lat="39.8573756" lon="8.8520873"><ele>281.0</ele><time>2026-04-23T08:54:45.66Z</time></trkpt><trkpt lat="39.8573321" lon="8.8519407"><ele>282.0</ele><time>2026-04-23T08:54:46.658Z</time></trkpt><trkpt lat="39.8573343" lon="8.8517548"><ele>277.6666666666667</ele><time>2026-04-23T08:54:47.656Z</time></trkpt><trkpt lat="39.8573873" lon="8.8515531"><ele>273.33333333333337</ele><time>2026-04-23T08:54:48.645Z</time></trkpt><trkpt lat="39.8574123" lon="8.8513242"><ele>269.0</ele><time>2026-04-23T08:54:49.649Z</time></trkpt><trkpt lat="39.857427" lon="8.8510854"><ele>267.0</ele><time>2026-04-23T08:54:50.64Z</time></trkpt><trkpt lat="39.857438" lon="8.8508365"><ele>265.0</ele><time>2026-04-23T08:54:51.646Z</time></trkpt><trkpt lat="39.8573637" lon="8.8506022"><ele>263.0</ele><time>2026-04-23T08:54:52.638Z</time></trkpt><trkpt lat="39.8573095" lon="8.8503927"><ele>263.0</ele><time>2026-04-23T08:54:53.647Z</time></trkpt><trkpt lat="39.8572363" lon="8.8501534"><ele>263.0</ele><time>2026-04-23T08:54:54.649Z</time></trkpt><trkpt lat="39.8571786" lon="8.8499242"><ele>263.0</ele><time>2026-04-23T08:54:55.657Z</time></trkpt><trkpt lat="39.8571435" lon="8.8497093"><ele>261.0</ele><time>2026-04-23T08:54:56.648Z</time></trkpt><trkpt lat="39.8571184" lon="8.8495182"><ele>259.0</ele><time>2026-04-23T08:54:57.646Z</time></trkpt><trkpt lat="39.8570995" lon="8.8493744"><ele>257.0</ele><time>2026-04-23T08:54:58.654Z</time></trkpt><trkpt lat="39.8570987" lon="8.8492097"><ele>255.0</ele><time>2026-04-23T08:54:59.653Z</time></trkpt><trkpt lat="39.8570414" lon="8.8490365"><ele>256.0</ele><time>2026-04-23T08:55:00.646Z</time></trkpt><trkpt lat="39.856894" lon="8.8489021"><ele>257.0</ele><time>2026-04-23T08:55:01.653Z</time></trkpt><trkpt lat="39.8567823" lon="8.848765"><ele>258.0</ele><time>2026-04-23T08:55:02.649Z</time></trkpt><trkpt lat="39.8566505" lon="8.8486879"><ele>258.0</ele><time>2026-04-23T08:55:03.648Z</time></trkpt><trkpt lat="39.8565131" lon="8.8486099"><ele>258.0</ele><time>2026-04-23T08:55:04.649Z</time></trkpt><trkpt lat="39.8563709" lon="8.8485734"><ele>258.0</ele><time>2026-04-23T08:55:05.65Z</time></trkpt><trkpt lat="39.8561612" lon="8.8486269"><ele>260.0</ele><time>2026-04-23T08:55:06.646Z</time></trkpt><trkpt lat="39.8559414" lon="8.8486682"><ele>262.0</ele><time>2026-04-23T08:55:07.663Z</time></trkpt><trkpt lat="39.8557535" lon="8.848741"><ele>264.0</ele><time>2026-04-23T08:55:08.663Z</time></trkpt><trkpt lat="39.8555782" lon="8.8487749"><ele>264.0</ele><time>2026-04-23T08:55:09.666Z</time></trkpt><trkpt lat="39.855386" lon="8.8487898"><ele>264.0</ele><time>2026-04-23T08:55:10.662Z</time></trkpt><trkpt lat="39.8552082" lon="8.8488247"><ele>264.0</ele><time>2026-04-23T08:55:11.664Z</time></trkpt><trkpt lat="39.8550009" lon="8.8488514"><ele>262.6666666666667</ele><time>2026-04-23T08:55:12.662Z</time></trkpt><trkpt lat="39.8548417" lon="8.8488613"><ele>261.33333333333337</ele><time>2026-04-23T08:55:13.663Z</time></trkpt><trkpt lat="39.8546797" lon="8.8489352"><ele>260.0</ele><time>2026-04-23T08:55:14.654Z</time></trkpt><trkpt lat="39.8545179" lon="8.8490257"><ele>260.0</ele><time>2026-04-23T08:55:15.661Z</time></trkpt><trkpt lat="39.8543763" lon="8.8491427"><ele>260.0</ele><time>2026-04-23T08:55:16.664Z</time></trkpt><trkpt lat="39.8542582" lon="8.8492681"><ele>260.0</ele><time>2026-04-23T08:55:17.661Z</time></trkpt><trkpt lat="39.8541626" lon="8.849332"><ele>260.0</ele><time>2026-04-23T08:55:18.661Z</time></trkpt><trkpt lat="39.8540496" lon="8.84934"><ele>261.2</ele><time>2026-04-23T08:55:19.657Z</time></trkpt><trkpt lat="39.8539616" lon="8.8493315"><ele>262.4</ele><time>2026-04-23T08:55:20.655Z</time></trkpt><trkpt lat="39.8538929" lon="8.8492488"><ele>263.6</ele><time>2026-04-23T08:55:21.648Z</time></trkpt><trkpt lat="39.8538287" lon="8.849159"><ele>264.8</ele><time>2026-04-23T08:55:22.654Z</time></trkpt><trkpt lat="39.8537956" lon="8.8490159"><ele>266.0</ele><time>2026-04-23T08:55:23.649Z</time></trkpt><trkpt lat="39.853771" lon="8.848867"><ele>263.83333333333337</ele><time>2026-04-23T08:55:24.652Z</time></trkpt><trkpt lat="39.8537551" lon="8.8486976"><ele>261.6666666666667</ele><time>2026-04-23T08:55:25.656Z</time></trkpt><trkpt lat="39.8537465" lon="8.8485798"><ele>259.5</ele><time>2026-04-23T08:55:26.659Z</time></trkpt><trkpt lat="39.8537527" lon="8.8484906"><ele>257.3333333333333</ele><time>2026-04-23T08:55:27.659Z</time></trkpt><trkpt lat="39.8537704" lon="8.848404"><ele>255.16666666666666</ele><time>2026-04-23T08:55:28.66Z</time></trkpt><trkpt lat="39.853803" lon="8.8483224"><ele>253.0</ele><time>2026-04-23T08:55:31.646Z</time></trkpt><trkpt lat="39.8537076" lon="8.8482544"><ele>251.75</ele><time>2026-04-23T08:55:34.65Z</time></trkpt><trkpt lat="39.8535783" lon="8.8481886"><ele>250.5</ele><time>2026-04-23T08:55:36.657Z</time></trkpt><trkpt lat="39.8535016" lon="8.8481609"><ele>249.25</ele><time>2026-04-23T08:55:37.651Z</time></trkpt><trkpt lat="39.8533795" lon="8.8481345"><ele>248.0</ele><time>2026-04-23T08:55:38.657Z</time></trkpt><trkpt lat="39.8532378" lon="8.8481084"><ele>248.0</ele><time>2026-04-23T08:55:39.643Z</time></trkpt><trkpt lat="39.8530495" lon="8.8481015"><ele>248.0</ele><time>2026-04-23T08:55:40.653Z</time></trkpt><trkpt lat="39.8527261" lon="8.848152"><ele>250.0</ele><time>2026-04-23T08:55:41.638Z</time></trkpt><trkpt lat="39.8523703" lon="8.848245"><ele>252.0</ele><time>2026-04-23T08:55:42.651Z</time></trkpt><trkpt lat="39.8520048" lon="8.8483368"><ele>254.5</ele><time>2026-04-23T08:55:43.657Z</time></trkpt><trkpt lat="39.8517079" lon="8.8483943"><ele>257.0</ele><time>2026-04-23T08:55:44.653Z</time></trkpt><trkpt lat="39.8514555" lon="8.8484075"><ele>257.0</ele><time>2026-04-23T08:55:45.654Z</time></trkpt><trkpt lat="39.8512078" lon="8.8484416"><ele>257.0</ele><time>2026-04-23T08:55:46.654Z</time></trkpt><trkpt lat="39.8509862" lon="8.8484548"><ele>257.6666666666667</ele><time>2026-04-23T08:55:47.659Z</time></trkpt><trkpt lat="39.8507779" lon="8.8484655"><ele>258.3333333333333</ele><time>2026-04-23T08:55:48.662Z</time></trkpt><trkpt lat="39.8505936" lon="8.8484357"><ele>259.0</ele><time>2026-04-23T08:55:49.661Z</time></trkpt><trkpt lat="39.8504193" lon="8.8483778"><ele>259.0</ele><time>2026-04-23T08:55:50.658Z</time></trkpt><trkpt lat="39.8502347" lon="8.8483055"><ele>259.0</ele><time>2026-04-23T08:55:51.657Z</time></trkpt><trkpt lat="39.8500776" lon="8.8482061"><ele>259.0</ele><time>2026-04-23T08:55:52.67Z</time></trkpt><trkpt lat="39.8499199" lon="8.848083"><ele>260.66666666666663</ele><time>2026-04-23T08:55:53.674Z</time></trkpt><trkpt lat="39.8497648" lon="8.8479485"><ele>262.3333333333333</ele><time>2026-04-23T08:55:54.674Z</time></trkpt><trkpt lat="39.8495968" lon="8.8478066"><ele>264.0</ele><time>2026-04-23T08:55:55.678Z</time></trkpt><trkpt lat="39.8494425" lon="8.847669"><ele>263.6666666666667</ele><time>2026-04-23T08:55:56.668Z</time></trkpt><trkpt lat="39.8492638" lon="8.8475545"><ele>263.33333333333337</ele><time>2026-04-23T08:55:57.658Z</time></trkpt><trkpt lat="39.8490797" lon="8.8474716"><ele>263.0</ele><time>2026-04-23T08:55:58.654Z</time></trkpt><trkpt lat="39.8488402" lon="8.8474427"><ele>263.0</ele><time>2026-04-23T08:55:59.657Z</time></trkpt><trkpt lat="39.8486029" lon="8.8474378"><ele>263.0</ele><time>2026-04-23T08:56:00.658Z</time></trkpt><trkpt lat="39.8483582" lon="8.8473788"><ele>266.5</ele><time>2026-04-23T08:56:01.671Z</time></trkpt><trkpt lat="39.848085" lon="8.8473574"><ele>270.0</ele><time>2026-04-23T08:56:02.667Z</time></trkpt><trkpt lat="39.8478457" lon="8.8473038"><ele>272.0</ele><time>2026-04-23T08:56:03.671Z</time></trkpt><trkpt lat="39.8476126" lon="8.8472482"><ele>274.0</ele><time>2026-04-23T08:56:04.669Z</time></trkpt><trkpt lat="39.8473821" lon="8.8472174"><ele>274.0</ele><time>2026-04-23T08:56:05.665Z</time></trkpt><trkpt lat="39.8471588" lon="8.8471707"><ele>274.0</ele><time>2026-04-23T08:56:06.674Z</time></trkpt><trkpt lat="39.846937" lon="8.8471186"><ele>275.0</ele><time>2026-04-23T08:56:07.669Z</time></trkpt><trkpt lat="39.8467353" lon="8.8470757"><ele>276.0</ele><time>2026-04-23T08:56:08.673Z</time></trkpt><trkpt lat="39.8465247" lon="8.8469975"><ele>277.0</ele><time>2026-04-23T08:56:09.669Z</time></trkpt><trkpt lat="39.8463317" lon="8.8469051"><ele>278.0</ele><time>2026-04-23T08:56:10.665Z</time></trkpt><trkpt lat="39.8461173" lon="8.846764"><ele>279.0</ele><time>2026-04-23T08:56:11.666Z</time></trkpt><trkpt lat="39.8459548" lon="8.8466303"><ele>280.0</ele><time>2026-04-23T08:56:12.664Z</time></trkpt><trkpt lat="39.8457986" lon="8.8464242"><ele>280.0</ele><time>2026-04-23T08:56:13.672Z</time></trkpt><trkpt lat="39.8456463" lon="8.8462349"><ele>280.0</ele><time>2026-04-23T08:56:14.673Z</time></trkpt><trkpt lat="39.8454843" lon="8.8460617"><ele>280.0</ele><time>2026-04-23T08:56:15.667Z</time></trkpt><trkpt lat="39.845296" lon="8.8458917"><ele>282.5</ele><time>2026-04-23T08:56:16.67Z</time></trkpt><trkpt lat="39.8450965" lon="8.8457251"><ele>285.0</ele><time>2026-04-23T08:56:17.665Z</time></trkpt><trkpt lat="39.8448829" lon="8.8456165"><ele>285.0</ele><time>2026-04-23T08:56:18.66Z</time></trkpt><trkpt lat="39.8446451" lon="8.8455561"><ele>285.0</ele><time>2026-04-23T08:56:19.656Z</time></trkpt><trkpt lat="39.8444532" lon="8.8454664"><ele>285.0</ele><time>2026-04-23T08:56:20.657Z</time></trkpt><trkpt lat="39.8441909" lon="8.8454303"><ele>288.0</ele><time>2026-04-23T08:56:21.657Z</time></trkpt><trkpt lat="39.8439452" lon="8.8454157"><ele>291.0</ele><time>2026-04-23T08:56:22.656Z</time></trkpt><trkpt lat="39.8436739" lon="8.8454102"><ele>294.0</ele><time>2026-04-23T08:56:23.665Z</time></trkpt><trkpt lat="39.8434048" lon="8.8454319"><ele>297.0</ele><time>2026-04-23T08:56:24.666Z</time></trkpt><trkpt lat="39.8431295" lon="8.8454624"><ele>297.0</ele><time>2026-04-23T08:56:25.673Z</time></trkpt><trkpt lat="39.8428891" lon="8.8454878"><ele>297.0</ele><time>2026-04-23T08:56:26.669Z</time></trkpt><trkpt lat="39.8426444" lon="8.8455211"><ele>297.6666666666667</ele><time>2026-04-23T08:56:27.665Z</time></trkpt><trkpt lat="39.8424335" lon="8.8455113"><ele>298.33333333333337</ele><time>2026-04-23T08:56:28.672Z</time></trkpt><trkpt lat="39.8422156" lon="8.8454986"><ele>299.0</ele><time>2026-04-23T08:56:29.671Z</time></trkpt><trkpt lat="39.8420086" lon="8.8455015"><ele>299.6666666666667</ele><time>2026-04-23T08:56:30.667Z</time></trkpt><trkpt lat="39.841777" lon="8.8455306"><ele>300.3333333333333</ele><time>2026-04-23T08:56:31.662Z</time></trkpt><trkpt lat="39.8415711" lon="8.8455701"><ele>301.0</ele><time>2026-04-23T08:56:32.666Z</time></trkpt><trkpt lat="39.8413824" lon="8.8456414"><ele>301.0</ele><time>2026-04-23T08:56:33.652Z</time></trkpt><trkpt lat="39.8410845" lon="8.8457869"><ele>301.0</ele><time>2026-04-23T08:56:34.662Z</time></trkpt><trkpt lat="39.8408218" lon="8.8458903"><ele>305.5</ele><time>2026-04-23T08:56:35.656Z</time></trkpt><trkpt lat="39.8405831" lon="8.845972"><ele>310.0</ele><time>2026-04-23T08:56:36.661Z</time></trkpt><trkpt lat="39.840313" lon="8.8460917"><ele>309.5</ele><time>2026-04-23T08:56:37.66Z</time></trkpt><trkpt lat="39.8401079" lon="8.8461828"><ele>309.0</ele><time>2026-04-23T08:56:38.659Z</time></trkpt><trkpt lat="39.8398827" lon="8.8463012"><ele>309.0</ele><time>2026-04-23T08:56:39.657Z</time></trkpt><trkpt lat="39.8397147" lon="8.8463765"><ele>309.0</ele><time>2026-04-23T08:56:40.653Z</time></trkpt><trkpt lat="39.8395531" lon="8.8464459"><ele>309.0</ele><time>2026-04-23T08:56:41.663Z</time></trkpt><trkpt lat="39.8393923" lon="8.8465063"><ele>309.0</ele><time>2026-04-23T08:56:42.661Z</time></trkpt><trkpt lat="39.8392557" lon="8.8465651"><ele>309.0</ele><time>2026-04-23T08:56:43.666Z</time></trkpt><trkpt lat="39.8391322" lon="8.8465948"><ele>309.0</ele><time>2026-04-23T08:56:44.655Z</time></trkpt><trkpt lat="39.8390525" lon="8.8465855"><ele>309.0</ele><time>2026-04-23T08:56:45.658Z</time></trkpt><trkpt lat="39.8389707" lon="8.8465656"><ele>309.0</ele><time>2026-04-23T08:56:46.672Z</time></trkpt><trkpt lat="39.8388618" lon="8.8465549"><ele>309.0</ele><time>2026-04-23T08:56:47.67Z</time></trkpt><trkpt lat="39.838741" lon="8.8465473"><ele>309.0</ele><time>2026-04-23T08:56:48.669Z</time></trkpt><trkpt lat="39.8386048" lon="8.8465138"><ele>309.0</ele><time>2026-04-23T08:56:49.664Z</time></trkpt><trkpt lat="39.8384389" lon="8.8464478"><ele>309.0</ele><time>2026-04-23T08:56:50.671Z</time></trkpt><trkpt lat="39.8383144" lon="8.8463681"><ele>311.0</ele><time>2026-04-23T08:56:51.667Z</time></trkpt><trkpt lat="39.8381943" lon="8.8462861"><ele>313.0</ele><time>2026-04-23T08:56:52.668Z</time></trkpt><trkpt lat="39.8380735" lon="8.8461978"><ele>315.0</ele><time>2026-04-23T08:56:53.673Z</time></trkpt><trkpt lat="39.8379614" lon="8.8461149"><ele>317.0</ele><time>2026-04-23T08:56:54.672Z</time></trkpt><trkpt lat="39.837844" lon="8.8460447"><ele>317.5</ele><time>2026-04-23T08:56:55.675Z</time></trkpt><trkpt lat="39.8377195" lon="8.8459459"><ele>318.0</ele><time>2026-04-23T08:56:56.673Z</time></trkpt><trkpt lat="39.8376052" lon="8.8458437"><ele>318.5</ele><time>2026-04-23T08:56:57.683Z</time></trkpt><trkpt lat="39.8374793" lon="8.8457441"><ele>319.0</ele><time>2026-04-23T08:56:58.67Z</time></trkpt><trkpt lat="39.8373526" lon="8.8456538"><ele>319.0</ele><time>2026-04-23T08:56:59.673Z</time></trkpt><trkpt lat="39.8372534" lon="8.8455761"><ele>319.0</ele><time>2026-04-23T08:57:00.671Z</time></trkpt><trkpt lat="39.8371474" lon="8.8454681"><ele>319.0</ele><time>2026-04-23T08:57:01.671Z</time></trkpt><trkpt lat="39.8370354" lon="8.8453603"><ele>319.0</ele><time>2026-04-23T08:57:02.673Z</time></trkpt><trkpt lat="39.8369209" lon="8.8452745"><ele>319.0</ele><time>2026-04-23T08:57:03.668Z</time></trkpt><trkpt lat="39.836853" lon="8.845166"><ele>319.0</ele><time>2026-04-23T08:57:04.671Z</time></trkpt><trkpt lat="39.8367532" lon="8.8450601"><ele>319.0</ele><time>2026-04-23T08:57:05.667Z</time></trkpt><trkpt lat="39.8366236" lon="8.8449461"><ele>319.0</ele><time>2026-04-23T08:57:06.669Z</time></trkpt><trkpt lat="39.8364733" lon="8.84482"><ele>319.0</ele><time>2026-04-23T08:57:07.667Z</time></trkpt><trkpt lat="39.8362661" lon="8.8447376"><ele>319.0</ele><time>2026-04-23T08:57:08.671Z</time></trkpt><trkpt lat="39.8360927" lon="8.8445589"><ele>319.0</ele><time>2026-04-23T08:57:09.658Z</time></trkpt><trkpt lat="39.8358767" lon="8.8443181"><ele>320.0</ele><time>2026-04-23T08:57:10.652Z</time></trkpt><trkpt lat="39.835625" lon="8.8440968"><ele>321.0</ele><time>2026-04-23T08:57:11.656Z</time></trkpt><trkpt lat="39.8353472" lon="8.8438611"><ele>320.0</ele><time>2026-04-23T08:57:12.645Z</time></trkpt><trkpt lat="39.8350507" lon="8.8436491"><ele>319.0</ele><time>2026-04-23T08:57:13.663Z</time></trkpt><trkpt lat="39.8347064" lon="8.8434323"><ele>319.0</ele><time>2026-04-23T08:57:14.657Z</time></trkpt><trkpt lat="39.8344143" lon="8.8432143"><ele>319.0</ele><time>2026-04-23T08:57:15.66Z</time></trkpt><trkpt lat="39.8341179" lon="8.8429979"><ele>319.0</ele><time>2026-04-23T08:57:16.663Z</time></trkpt><trkpt lat="39.8339208" lon="8.842848"><ele>319.0</ele><time>2026-04-23T08:57:17.66Z</time></trkpt><trkpt lat="39.8337207" lon="8.8427073"><ele>320.66666666666663</ele><time>2026-04-23T08:57:18.667Z</time></trkpt><trkpt lat="39.8335202" lon="8.8425688"><ele>322.3333333333333</ele><time>2026-04-23T08:57:19.673Z</time></trkpt><trkpt lat="39.833341" lon="8.8424502"><ele>324.0</ele><time>2026-04-23T08:57:20.666Z</time></trkpt><trkpt lat="39.833148" lon="8.8422822"><ele>324.3333333333333</ele><time>2026-04-23T08:57:21.673Z</time></trkpt><trkpt lat="39.8329909" lon="8.8421638"><ele>324.66666666666663</ele><time>2026-04-23T08:57:22.676Z</time></trkpt><trkpt lat="39.8328028" lon="8.8420332"><ele>325.0</ele><time>2026-04-23T08:57:23.674Z</time></trkpt><trkpt lat="39.8326071" lon="8.8419042"><ele>326.66666666666663</ele><time>2026-04-23T08:57:24.676Z</time></trkpt><trkpt lat="39.8324052" lon="8.841754"><ele>328.3333333333333</ele><time>2026-04-23T08:57:25.677Z</time></trkpt><trkpt lat="39.8322201" lon="8.841613"><ele>330.0</ele><time>2026-04-23T08:57:26.678Z</time></trkpt><trkpt lat="39.8320349" lon="8.8414491"><ele>330.0</ele><time>2026-04-23T08:57:27.672Z</time></trkpt><trkpt lat="39.8318427" lon="8.8413061"><ele>330.0</ele><time>2026-04-23T08:57:28.681Z</time></trkpt><trkpt lat="39.8316401" lon="8.8411641"><ele>330.0</ele><time>2026-04-23T08:57:29.676Z</time></trkpt><trkpt lat="39.8314743" lon="8.8410306"><ele>330.0</ele><time>2026-04-23T08:57:30.677Z</time></trkpt><trkpt lat="39.8312874" lon="8.8408769"><ele>330.0</ele><time>2026-04-23T08:57:31.667Z</time></trkpt><trkpt lat="39.8310996" lon="8.840785"><ele>329.3333333333333</ele><time>2026-04-23T08:57:32.661Z</time></trkpt><trkpt lat="39.8309437" lon="8.8407323"><ele>328.66666666666663</ele><time>2026-04-23T08:57:33.665Z</time></trkpt><trkpt lat="39.8307645" lon="8.8407096"><ele>328.0</ele><time>2026-04-23T08:57:34.663Z</time></trkpt><trkpt lat="39.8305487" lon="8.8407511"><ele>328.0</ele><time>2026-04-23T08:57:35.66Z</time></trkpt><trkpt lat="39.8303955" lon="8.8407593"><ele>328.0</ele><time>2026-04-23T08:57:36.661Z</time></trkpt><trkpt lat="39.830221" lon="8.8408183"><ele>328.0</ele><time>2026-04-23T08:57:37.663Z</time></trkpt><trkpt lat="39.8300488" lon="8.8408349"><ele>327.3333333333333</ele><time>2026-04-23T08:57:38.661Z</time></trkpt><trkpt lat="39.8298633" lon="8.8407841"><ele>326.6666666666667</ele><time>2026-04-23T08:57:39.659Z</time></trkpt><trkpt lat="39.8296475" lon="8.8407243"><ele>326.0</ele><time>2026-04-23T08:57:40.665Z</time></trkpt><trkpt lat="39.8294281" lon="8.840674"><ele>325.0</ele><time>2026-04-23T08:57:41.67Z</time></trkpt><trkpt lat="39.8291845" lon="8.8406475"><ele>324.0</ele><time>2026-04-23T08:57:42.664Z</time></trkpt><trkpt lat="39.8289514" lon="8.8406026"><ele>324.0</ele><time>2026-04-23T08:57:43.665Z</time></trkpt><trkpt lat="39.8287196" lon="8.8405208"><ele>324.0</ele><time>2026-04-23T08:57:44.675Z</time></trkpt><trkpt lat="39.8285285" lon="8.8404549"><ele>324.0</ele><time>2026-04-23T08:57:45.671Z</time></trkpt><trkpt lat="39.8283537" lon="8.8403996"><ele>322.3333333333333</ele><time>2026-04-23T08:57:46.675Z</time></trkpt><trkpt lat="39.8281737" lon="8.8403484"><ele>320.66666666666663</ele><time>2026-04-23T08:57:47.673Z</time></trkpt><trkpt lat="39.8279963" lon="8.8402963"><ele>319.0</ele><time>2026-04-23T08:57:48.671Z</time></trkpt><trkpt lat="39.827818" lon="8.8402291"><ele>319.0</ele><time>2026-04-23T08:57:49.673Z</time></trkpt><trkpt lat="39.8276588" lon="8.8401751"><ele>319.0</ele><time>2026-04-23T08:57:50.665Z</time></trkpt><trkpt lat="39.8274962" lon="8.8401485"><ele>319.0</ele><time>2026-04-23T08:57:51.67Z</time></trkpt><trkpt lat="39.8273308" lon="8.8401533"><ele>317.3333333333333</ele><time>2026-04-23T08:57:52.666Z</time></trkpt><trkpt lat="39.8271638" lon="8.840227"><ele>315.6666666666667</ele><time>2026-04-23T08:57:53.657Z</time></trkpt><trkpt lat="39.8270037" lon="8.8403424"><ele>314.0</ele><time>2026-04-23T08:57:54.665Z</time></trkpt><trkpt lat="39.8268455" lon="8.840506"><ele>314.0</ele><time>2026-04-23T08:57:55.666Z</time></trkpt><trkpt lat="39.8267002" lon="8.8406946"><ele>314.0</ele><time>2026-04-23T08:57:56.66Z</time></trkpt><trkpt lat="39.8264712" lon="8.8409473"><ele>310.5</ele><time>2026-04-23T08:57:57.661Z</time></trkpt><trkpt lat="39.8262662" lon="8.8411644"><ele>307.0</ele><time>2026-04-23T08:57:58.655Z</time></trkpt><trkpt lat="39.8260921" lon="8.8414304"><ele>308.3333333333333</ele><time>2026-04-23T08:57:59.663Z</time></trkpt><trkpt lat="39.8259573" lon="8.8416382"><ele>309.6666666666667</ele><time>2026-04-23T08:58:00.662Z</time></trkpt><trkpt lat="39.8258022" lon="8.8418606"><ele>311.0</ele><time>2026-04-23T08:58:01.664Z</time></trkpt><trkpt lat="39.825665" lon="8.8420691"><ele>308.0</ele><time>2026-04-23T08:58:02.659Z</time></trkpt><trkpt lat="39.8255457" lon="8.842291"><ele>305.0</ele><time>2026-04-23T08:58:03.659Z</time></trkpt><trkpt lat="39.8254014" lon="8.8425277"><ele>302.0</ele><time>2026-04-23T08:58:04.662Z</time></trkpt><trkpt lat="39.8252896" lon="8.8427265"><ele>300.6666666666667</ele><time>2026-04-23T08:58:05.654Z</time></trkpt><trkpt lat="39.8251651" lon="8.8429543"><ele>299.3333333333333</ele><time>2026-04-23T08:58:06.659Z</time></trkpt><trkpt lat="39.8250195" lon="8.8431877"><ele>298.0</ele><time>2026-04-23T08:58:07.658Z</time></trkpt><trkpt lat="39.8248969" lon="8.843415"><ele>295.0</ele><time>2026-04-23T08:58:08.656Z</time></trkpt><trkpt lat="39.8247585" lon="8.8437267"><ele>292.0</ele><time>2026-04-23T08:58:09.653Z</time></trkpt><trkpt lat="39.8246632" lon="8.8440245"><ele>291.0</ele><time>2026-04-23T08:58:10.655Z</time></trkpt><trkpt lat="39.8245947" lon="8.8443025"><ele>290.0</ele><time>2026-04-23T08:58:11.659Z</time></trkpt><trkpt lat="39.8245432" lon="8.8445522"><ele>289.0</ele><time>2026-04-23T08:58:12.657Z</time></trkpt><trkpt lat="39.8244735" lon="8.8447736"><ele>289.0</ele><time>2026-04-23T08:58:13.657Z</time></trkpt><trkpt lat="39.8243727" lon="8.8450064"><ele>289.0</ele><time>2026-04-23T08:58:14.656Z</time></trkpt><trkpt lat="39.8242649" lon="8.8452783"><ele>289.0</ele><time>2026-04-23T08:58:15.659Z</time></trkpt><trkpt lat="39.8241415" lon="8.845492"><ele>288.0</ele><time>2026-04-23T08:58:16.662Z</time></trkpt><trkpt lat="39.8239875" lon="8.8457338"><ele>287.0</ele><time>2026-04-23T08:58:17.671Z</time></trkpt><trkpt lat="39.823845" lon="8.8459677"><ele>284.5</ele><time>2026-04-23T08:58:18.656Z</time></trkpt><trkpt lat="39.8236644" lon="8.8461529"><ele>282.0</ele><time>2026-04-23T08:58:19.666Z</time></trkpt><trkpt lat="39.8234783" lon="8.846331"><ele>282.0</ele><time>2026-04-23T08:58:20.666Z</time></trkpt><trkpt lat="39.8232604" lon="8.8465518"><ele>282.0</ele><time>2026-04-23T08:58:21.669Z</time></trkpt><trkpt lat="39.8230776" lon="8.8467611"><ele>279.0</ele><time>2026-04-23T08:58:22.668Z</time></trkpt><trkpt lat="39.8229006" lon="8.8469689"><ele>276.0</ele><time>2026-04-23T08:58:23.667Z</time></trkpt><trkpt lat="39.8227296" lon="8.8471811"><ele>276.6666666666667</ele><time>2026-04-23T08:58:24.668Z</time></trkpt><trkpt lat="39.8225725" lon="8.8473623"><ele>277.33333333333337</ele><time>2026-04-23T08:58:25.67Z</time></trkpt><trkpt lat="39.8224058" lon="8.8475184"><ele>278.0</ele><time>2026-04-23T08:58:26.666Z</time></trkpt><trkpt lat="39.8222103" lon="8.8476358"><ele>276.0</ele><time>2026-04-23T08:58:27.668Z</time></trkpt><trkpt lat="39.8220256" lon="8.8477016"><ele>274.0</ele><time>2026-04-23T08:58:28.666Z</time></trkpt><trkpt lat="39.8218216" lon="8.847771"><ele>272.0</ele><time>2026-04-23T08:58:29.67Z</time></trkpt><trkpt lat="39.8215633" lon="8.8478726"><ele>271.5</ele><time>2026-04-23T08:58:30.665Z</time></trkpt><trkpt lat="39.8212954" lon="8.8479275"><ele>271.0</ele><time>2026-04-23T08:58:31.67Z</time></trkpt><trkpt lat="39.8210201" lon="8.8480006"><ele>269.5</ele><time>2026-04-23T08:58:32.668Z</time></trkpt><trkpt lat="39.8207805" lon="8.8480819"><ele>268.0</ele><time>2026-04-23T08:58:33.666Z</time></trkpt><trkpt lat="39.8205373" lon="8.848143"><ele>268.0</ele><time>2026-04-23T08:58:34.66Z</time></trkpt><trkpt lat="39.8203148" lon="8.8482095"><ele>268.0</ele><time>2026-04-23T08:58:35.657Z</time></trkpt><trkpt lat="39.820078" lon="8.8482778"><ele>267.0</ele><time>2026-04-23T08:58:36.667Z</time></trkpt><trkpt lat="39.8198121" lon="8.8483918"><ele>266.0</ele><time>2026-04-23T08:58:37.665Z</time></trkpt><trkpt lat="39.8195447" lon="8.8484853"><ele>263.0</ele><time>2026-04-23T08:58:38.656Z</time></trkpt><trkpt lat="39.8193131" lon="8.8485517"><ele>260.0</ele><time>2026-04-23T08:58:39.664Z</time></trkpt><trkpt lat="39.8190809" lon="8.8486425"><ele>260.0</ele><time>2026-04-23T08:58:40.66Z</time></trkpt><trkpt lat="39.8188464" lon="8.8487134"><ele>260.0</ele><time>2026-04-23T08:58:41.66Z</time></trkpt><trkpt lat="39.8186064" lon="8.8488207"><ele>259.6666666666667</ele><time>2026-04-23T08:58:42.662Z</time></trkpt><trkpt lat="39.8183759" lon="8.8488942"><ele>259.3333333333333</ele><time>2026-04-23T08:58:43.661Z</time></trkpt><trkpt lat="39.8181739" lon="8.8489662"><ele>259.0</ele><time>2026-04-23T08:58:44.663Z</time></trkpt><trkpt lat="39.8179473" lon="8.8490411"><ele>259.0</ele><time>2026-04-23T08:58:45.66Z</time></trkpt><trkpt lat="39.8177391" lon="8.8491249"><ele>259.0</ele><time>2026-04-23T08:58:46.667Z</time></trkpt><trkpt lat="39.8175427" lon="8.849177"><ele>259.0</ele><time>2026-04-23T08:58:47.66Z</time></trkpt><trkpt lat="39.8173613" lon="8.8492294"><ele>259.0</ele><time>2026-04-23T08:58:48.659Z</time></trkpt><trkpt lat="39.817178" lon="8.849301"><ele>259.0</ele><time>2026-04-23T08:58:49.667Z</time></trkpt><trkpt lat="39.8170252" lon="8.8493527"><ele>259.0</ele><time>2026-04-23T08:58:50.655Z</time></trkpt><trkpt lat="39.8168704" lon="8.849375"><ele>258.66666666666663</ele><time>2026-04-23T08:58:51.664Z</time></trkpt><trkpt lat="39.816715" lon="8.8494505"><ele>258.3333333333333</ele><time>2026-04-23T08:58:52.661Z</time></trkpt><trkpt lat="39.8166043" lon="8.8494843"><ele>258.0</ele><time>2026-04-23T08:58:53.664Z</time></trkpt><trkpt lat="39.8164254" lon="8.8495399"><ele>258.0</ele><time>2026-04-23T08:58:54.661Z</time></trkpt><trkpt lat="39.8163115" lon="8.8495768"><ele>258.0</ele><time>2026-04-23T08:58:55.662Z</time></trkpt><trkpt lat="39.8162074" lon="8.8495893"><ele>258.0</ele><time>2026-04-23T08:58:56.674Z</time></trkpt><trkpt lat="39.8161067" lon="8.8495833"><ele>258.0</ele><time>2026-04-23T08:58:57.663Z</time></trkpt><trkpt lat="39.8160377" lon="8.8495852"><ele>258.0</ele><time>2026-04-23T08:58:58.659Z</time></trkpt><trkpt lat="39.8159747" lon="8.84953"><ele>257.75</ele><time>2026-04-23T08:58:59.668Z</time></trkpt><trkpt lat="39.8158792" lon="8.849444"><ele>257.5</ele><time>2026-04-23T08:59:00.67Z</time></trkpt><trkpt lat="39.8158044" lon="8.8493597"><ele>257.25</ele><time>2026-04-23T08:59:01.675Z</time></trkpt><trkpt lat="39.8157343" lon="8.8492563"><ele>257.0</ele><time>2026-04-23T08:59:02.671Z</time></trkpt><trkpt lat="39.8156402" lon="8.8491386"><ele>257.5</ele><time>2026-04-23T08:59:03.67Z</time></trkpt><trkpt lat="39.8155525" lon="8.8490082"><ele>258.0</ele><time>2026-04-23T08:59:04.67Z</time></trkpt><trkpt lat="39.8154739" lon="8.8488899"><ele>258.5</ele><time>2026-04-23T08:59:05.669Z</time></trkpt><trkpt lat="39.8153812" lon="8.8487657"><ele>259.0</ele><time>2026-04-23T08:59:06.663Z</time></trkpt><trkpt lat="39.8152896" lon="8.8486703"><ele>259.0</ele><time>2026-04-23T08:59:07.663Z</time></trkpt><trkpt lat="39.8152033" lon="8.8485976"><ele>259.0</ele><time>2026-04-23T08:59:08.669Z</time></trkpt><trkpt lat="39.8151027" lon="8.848549"><ele>259.0</ele><time>2026-04-23T08:59:09.673Z</time></trkpt><trkpt lat="39.8150046" lon="8.8485396"><ele>259.0</ele><time>2026-04-23T08:59:10.659Z</time></trkpt><trkpt lat="39.8149133" lon="8.8485302"><ele>259.0</ele><time>2026-04-23T08:59:11.667Z</time></trkpt><trkpt lat="39.8148339" lon="8.8485195"><ele>259.0</ele><time>2026-04-23T08:59:12.664Z</time></trkpt><trkpt lat="39.8147616" lon="8.848492"><ele>259.0</ele><time>2026-04-23T08:59:13.671Z</time></trkpt><trkpt lat="39.8146872" lon="8.8483959"><ele>259.0</ele><time>2026-04-23T08:59:15.666Z</time></trkpt><trkpt lat="39.8147151" lon="8.8482427"><ele>259.0</ele><time>2026-04-23T08:59:17.664Z</time></trkpt><trkpt lat="39.814775" lon="8.8481314"><ele>259.0</ele><time>2026-04-23T08:59:18.658Z</time></trkpt><trkpt lat="39.814865" lon="8.8479704"><ele>258.66666666666663</ele><time>2026-04-23T08:59:19.666Z</time></trkpt><trkpt lat="39.8149582" lon="8.8477846"><ele>258.3333333333333</ele><time>2026-04-23T08:59:20.665Z</time></trkpt><trkpt lat="39.8150235" lon="8.8476065"><ele>258.0</ele><time>2026-04-23T08:59:21.666Z</time></trkpt><trkpt lat="39.8150883" lon="8.8474451"><ele>258.0</ele><time>2026-04-23T08:59:22.664Z</time></trkpt><trkpt lat="39.8151472" lon="8.8473095"><ele>258.0</ele><time>2026-04-23T08:59:23.674Z</time></trkpt><trkpt lat="39.8152062" lon="8.8471899"><ele>258.0</ele><time>2026-04-23T08:59:24.661Z</time></trkpt><trkpt lat="39.8152855" lon="8.8470875"><ele>258.0</ele><time>2026-04-23T08:59:25.664Z</time></trkpt><trkpt lat="39.8153764" lon="8.8469898"><ele>259.25</ele><time>2026-04-23T08:59:26.667Z</time></trkpt><trkpt lat="39.8154659" lon="8.8468893"><ele>260.5</ele><time>2026-04-23T08:59:27.66Z</time></trkpt><trkpt lat="39.8155489" lon="8.8467837"><ele>261.75</ele><time>2026-04-23T08:59:28.664Z</time></trkpt><trkpt lat="39.8156308" lon="8.8466735"><ele>263.0</ele><time>2026-04-23T08:59:29.663Z</time></trkpt><trkpt lat="39.8157073" lon="8.8465395"><ele>263.0</ele><time>2026-04-23T08:59:30.664Z</time></trkpt><trkpt lat="39.8157802" lon="8.8463872"><ele>263.0</ele><time>2026-04-23T08:59:31.662Z</time></trkpt><trkpt lat="39.815856" lon="8.8462344"><ele>263.0</ele><time>2026-04-23T08:59:32.665Z</time></trkpt><trkpt lat="39.8159365" lon="8.8460999"><ele>263.0</ele><time>2026-04-23T08:59:33.661Z</time></trkpt><trkpt lat="39.8159953" lon="8.8459616"><ele>263.25</ele><time>2026-04-23T08:59:34.666Z</time></trkpt><trkpt lat="39.8160725" lon="8.8458124"><ele>263.5</ele><time>2026-04-23T08:59:35.664Z</time></trkpt><trkpt lat="39.8161335" lon="8.8456834"><ele>263.75</ele><time>2026-04-23T08:59:36.661Z</time></trkpt><trkpt lat="39.8162105" lon="8.8455476"><ele>264.0</ele><time>2026-04-23T08:59:37.658Z</time></trkpt><trkpt lat="39.8162634" lon="8.8454321"><ele>264.0</ele><time>2026-04-23T08:59:38.664Z</time></trkpt><trkpt lat="39.8163161" lon="8.8452945"><ele>264.0</ele><time>2026-04-23T08:59:39.67Z</time></trkpt><trkpt lat="39.8163879" lon="8.8451585"><ele>264.0</ele><time>2026-04-23T08:59:40.668Z</time></trkpt><trkpt lat="39.8164486" lon="8.8450246"><ele>264.0</ele><time>2026-04-23T08:59:41.659Z</time></trkpt><trkpt lat="39.816504" lon="8.8448781"><ele>264.0</ele><time>2026-04-23T08:59:42.656Z</time></trkpt><trkpt lat="39.8165443" lon="8.8447313"><ele>264.0</ele><time>2026-04-23T08:59:43.658Z</time></trkpt><trkpt lat="39.8165784" lon="8.8445849"><ele>264.0</ele><time>2026-04-23T08:59:44.649Z</time></trkpt><trkpt lat="39.8166031" lon="8.8444444"><ele>264.0</ele><time>2026-04-23T08:59:45.651Z</time></trkpt><trkpt lat="39.8165847" lon="8.8442874"><ele>264.0</ele><time>2026-04-23T08:59:46.655Z</time></trkpt><trkpt lat="39.8165504" lon="8.8441272"><ele>264.0</ele><time>2026-04-23T08:59:47.656Z</time></trkpt><trkpt lat="39.816505" lon="8.8439533"><ele>264.0</ele><time>2026-04-23T08:59:48.642Z</time></trkpt><trkpt lat="39.8164507" lon="8.8437628"><ele>264.0</ele><time>2026-04-23T08:59:49.649Z</time></trkpt><trkpt lat="39.8163756" lon="8.8435607"><ele>263.5</ele><time>2026-04-23T08:59:50.653Z</time></trkpt><trkpt lat="39.8163148" lon="8.8433746"><ele>263.0</ele><time>2026-04-23T08:59:51.658Z</time></trkpt><trkpt lat="39.8162568" lon="8.8431886"><ele>262.5</ele><time>2026-04-23T08:59:52.655Z</time></trkpt><trkpt lat="39.8161978" lon="8.843026"><ele>262.0</ele><time>2026-04-23T08:59:53.663Z</time></trkpt><trkpt lat="39.8161451" lon="8.8428767"><ele>262.0</ele><time>2026-04-23T08:59:54.665Z</time></trkpt><trkpt lat="39.8161009" lon="8.8426808"><ele>262.0</ele><time>2026-04-23T08:59:55.657Z</time></trkpt><trkpt lat="39.8160549" lon="8.8425206"><ele>262.0</ele><time>2026-04-23T08:59:56.656Z</time></trkpt><trkpt lat="39.8160181" lon="8.8424096"><ele>262.0</ele><time>2026-04-23T08:59:57.644Z</time></trkpt><trkpt lat="39.8159353" lon="8.8422558"><ele>263.0</ele><time>2026-04-23T08:59:58.652Z</time></trkpt><trkpt lat="39.815842" lon="8.8421219"><ele>264.0</ele><time>2026-04-23T08:59:59.642Z</time></trkpt><trkpt lat="39.8157853" lon="8.8420283"><ele>265.0</ele><time>2026-04-23T09:00:00.652Z</time></trkpt><trkpt lat="39.815703" lon="8.8419308"><ele>266.0</ele><time>2026-04-23T09:00:01.644Z</time></trkpt><trkpt lat="39.8156557" lon="8.8418714"><ele>267.0</ele><time>2026-04-23T09:00:02.651Z</time></trkpt><trkpt lat="39.8155712" lon="8.8418586"><ele>267.0</ele><time>2026-04-23T09:00:04.645Z</time></trkpt><trkpt lat="39.8154932" lon="8.8418945"><ele>267.0</ele><time>2026-04-23T09:00:06.635Z</time></trkpt><trkpt lat="39.8154148" lon="8.842027"><ele>267.0</ele><time>2026-04-23T09:00:08.636Z</time></trkpt><trkpt lat="39.8153697" lon="8.8421581"><ele>267.0</ele><time>2026-04-23T09:00:09.636Z</time></trkpt><trkpt lat="39.8153078" lon="8.8423385"><ele>267.0</ele><time>2026-04-23T09:00:10.634Z</time></trkpt><trkpt lat="39.8152414" lon="8.8424953"><ele>267.0</ele><time>2026-04-23T09:00:11.641Z</time></trkpt><trkpt lat="39.8151728" lon="8.8426372"><ele>267.0</ele><time>2026-04-23T09:00:12.641Z</time></trkpt><trkpt lat="39.8150992" lon="8.8427286"><ele>267.0</ele><time>2026-04-23T09:00:13.644Z</time></trkpt><trkpt lat="39.8150097" lon="8.8427677"><ele>267.2</ele><time>2026-04-23T09:00:14.642Z</time></trkpt><trkpt lat="39.8149186" lon="8.8427839"><ele>267.4</ele><time>2026-04-23T09:00:15.643Z</time></trkpt><trkpt lat="39.8148256" lon="8.8427854"><ele>267.6</ele><time>2026-04-23T09:00:16.649Z</time></trkpt><trkpt lat="39.8147095" lon="8.8427633"><ele>267.8</ele><time>2026-04-23T09:00:17.638Z</time></trkpt><trkpt lat="39.8145873" lon="8.8427364"><ele>268.0</ele><time>2026-04-23T09:00:18.645Z</time></trkpt><trkpt lat="39.814477" lon="8.8427133"><ele>268.0</ele><time>2026-04-23T09:00:19.655Z</time></trkpt><trkpt lat="39.8143907" lon="8.842681"><ele>268.0</ele><time>2026-04-23T09:00:20.653Z</time></trkpt><trkpt lat="39.8143196" lon="8.8426463"><ele>268.0</ele><time>2026-04-23T09:00:21.662Z</time></trkpt><trkpt lat="39.8142537" lon="8.8425721"><ele>268.0</ele><time>2026-04-23T09:00:23.655Z</time></trkpt><trkpt lat="39.8142758" lon="8.8424692"><ele>268.0</ele><time>2026-04-23T09:00:25.671Z</time></trkpt><trkpt lat="39.8143141" lon="8.8423937"><ele>268.0</ele><time>2026-04-23T09:00:26.662Z</time></trkpt><trkpt lat="39.8143933" lon="8.8422878"><ele>270.0</ele><time>2026-04-23T09:00:27.661Z</time></trkpt><trkpt lat="39.8144728" lon="8.8421518"><ele>272.0</ele><time>2026-04-23T09:00:28.65Z</time></trkpt><trkpt lat="39.8145696" lon="8.8420002"><ele>274.0</ele><time>2026-04-23T09:00:29.65Z</time></trkpt><trkpt lat="39.8146781" lon="8.8418386"><ele>276.0</ele><time>2026-04-23T09:00:30.649Z</time></trkpt><trkpt lat="39.8148019" lon="8.8416482"><ele>277.6666666666667</ele><time>2026-04-23T09:00:31.654Z</time></trkpt><trkpt lat="39.8149047" lon="8.8414735"><ele>279.33333333333337</ele><time>2026-04-23T09:00:32.647Z</time></trkpt><trkpt lat="39.8149844" lon="8.841299"><ele>281.0</ele><time>2026-04-23T09:00:33.651Z</time></trkpt><trkpt lat="39.8150545" lon="8.8411343"><ele>282.25</ele><time>2026-04-23T09:00:34.655Z</time></trkpt><trkpt lat="39.8151173" lon="8.8409572"><ele>283.5</ele><time>2026-04-23T09:00:35.648Z</time></trkpt><trkpt lat="39.8151835" lon="8.8408164"><ele>284.75</ele><time>2026-04-23T09:00:36.644Z</time></trkpt><trkpt lat="39.8152741" lon="8.8406409"><ele>286.0</ele><time>2026-04-23T09:00:37.647Z</time></trkpt><trkpt lat="39.8153858" lon="8.8404824"><ele>286.3333333333333</ele><time>2026-04-23T09:00:38.648Z</time></trkpt><trkpt lat="39.8154848" lon="8.8403349"><ele>286.6666666666667</ele><time>2026-04-23T09:00:39.652Z</time></trkpt><trkpt lat="39.8155808" lon="8.8401962"><ele>287.0</ele><time>2026-04-23T09:00:40.65Z</time></trkpt><trkpt lat="39.8156846" lon="8.840023"><ele>287.0</ele><time>2026-04-23T09:00:41.657Z</time></trkpt><trkpt lat="39.8157747" lon="8.8398499"><ele>287.0</ele><time>2026-04-23T09:00:42.654Z</time></trkpt><trkpt lat="39.8158442" lon="8.8396952"><ele>287.0</ele><time>2026-04-23T09:00:43.645Z</time></trkpt><trkpt lat="39.8159336" lon="8.8395278"><ele>286.25</ele><time>2026-04-23T09:00:44.651Z</time></trkpt><trkpt lat="39.8160424" lon="8.8394008"><ele>285.5</ele><time>2026-04-23T09:00:45.656Z</time></trkpt><trkpt lat="39.8161492" lon="8.8392757"><ele>284.75</ele><time>2026-04-23T09:00:46.653Z</time></trkpt><trkpt lat="39.8162132" lon="8.8391516"><ele>284.0</ele><time>2026-04-23T09:00:47.643Z</time></trkpt><trkpt lat="39.8162559" lon="8.8389912"><ele>284.0</ele><time>2026-04-23T09:00:48.64Z</time></trkpt><trkpt lat="39.8162855" lon="8.8388381"><ele>284.0</ele><time>2026-04-23T09:00:49.65Z</time></trkpt><trkpt lat="39.816315" lon="8.8386803"><ele>284.0</ele><time>2026-04-23T09:00:50.655Z</time></trkpt><trkpt lat="39.8163608" lon="8.8385332"><ele>284.0</ele><time>2026-04-23T09:00:51.651Z</time></trkpt><trkpt lat="39.816414" lon="8.838378"><ele>284.75</ele><time>2026-04-23T09:00:52.652Z</time></trkpt><trkpt lat="39.8164731" lon="8.8382243"><ele>285.5</ele><time>2026-04-23T09:00:53.654Z</time></trkpt><trkpt lat="39.8165283" lon="8.8380764"><ele>286.25</ele><time>2026-04-23T09:00:54.656Z</time></trkpt><trkpt lat="39.8166399" lon="8.8378977"><ele>287.0</ele><time>2026-04-23T09:00:55.654Z</time></trkpt><trkpt lat="39.8167185" lon="8.837747"><ele>286.6</ele><time>2026-04-23T09:00:56.66Z</time></trkpt><trkpt lat="39.816787" lon="8.8376078"><ele>286.2</ele><time>2026-04-23T09:00:57.664Z</time></trkpt><trkpt lat="39.8168491" lon="8.8374952"><ele>285.8</ele><time>2026-04-23T09:00:58.648Z</time></trkpt><trkpt lat="39.8169081" lon="8.837376"><ele>285.4</ele><time>2026-04-23T09:00:59.653Z</time></trkpt><trkpt lat="39.8169738" lon="8.8372985"><ele>285.0</ele><time>2026-04-23T09:01:00.648Z</time></trkpt><trkpt lat="39.81707" lon="8.8372368"><ele>285.0</ele><time>2026-04-23T09:01:01.643Z</time></trkpt><trkpt lat="39.8171497" lon="8.83719"><ele>285.0</ele><time>2026-04-23T09:01:02.646Z</time></trkpt><trkpt lat="39.8172487" lon="8.8371472"><ele>285.0</ele><time>2026-04-23T09:01:03.646Z</time></trkpt><trkpt lat="39.8173311" lon="8.8370392"><ele>285.0</ele><time>2026-04-23T09:01:04.641Z</time></trkpt><trkpt lat="39.8174291" lon="8.8369067"><ele>285.6666666666667</ele><time>2026-04-23T09:01:05.649Z</time></trkpt><trkpt lat="39.8175413" lon="8.8367575"><ele>286.33333333333337</ele><time>2026-04-23T09:01:06.649Z</time></trkpt><trkpt lat="39.81765" lon="8.8366178"><ele>287.0</ele><time>2026-04-23T09:01:07.65Z</time></trkpt><trkpt lat="39.8177895" lon="8.8364599"><ele>287.0</ele><time>2026-04-23T09:01:08.653Z</time></trkpt><trkpt lat="39.8179081" lon="8.8363082"><ele>287.0</ele><time>2026-04-23T09:01:09.649Z</time></trkpt><trkpt lat="39.8180243" lon="8.836173"><ele>287.0</ele><time>2026-04-23T09:01:10.653Z</time></trkpt><trkpt lat="39.8181251" lon="8.8360143"><ele>288.0</ele><time>2026-04-23T09:01:11.656Z</time></trkpt><trkpt lat="39.8182075" lon="8.835886"><ele>289.0</ele><time>2026-04-23T09:01:12.652Z</time></trkpt><trkpt lat="39.8182903" lon="8.8357332"><ele>290.0</ele><time>2026-04-23T09:01:13.652Z</time></trkpt><trkpt lat="39.8183743" lon="8.8355759"><ele>291.0</ele><time>2026-04-23T09:01:14.649Z</time></trkpt><trkpt lat="39.818435" lon="8.835406"><ele>291.0</ele><time>2026-04-23T09:01:15.654Z</time></trkpt><trkpt lat="39.8185029" lon="8.8352709"><ele>291.0</ele><time>2026-04-23T09:01:16.655Z</time></trkpt><trkpt lat="39.8185651" lon="8.8351162"><ele>291.0</ele><time>2026-04-23T09:01:17.649Z</time></trkpt><trkpt lat="39.8186556" lon="8.8349959"><ele>291.0</ele><time>2026-04-23T09:01:18.649Z</time></trkpt><trkpt lat="39.8187536" lon="8.8349081"><ele>292.0</ele><time>2026-04-23T09:01:19.651Z</time></trkpt><trkpt lat="39.8188739" lon="8.8348116"><ele>293.0</ele><time>2026-04-23T09:01:20.66Z</time></trkpt><trkpt lat="39.8190011" lon="8.8347072"><ele>294.0</ele><time>2026-04-23T09:01:21.658Z</time></trkpt><trkpt lat="39.8191419" lon="8.8345999"><ele>294.0</ele><time>2026-04-23T09:01:22.655Z</time></trkpt><trkpt lat="39.8192801" lon="8.8344975"><ele>294.0</ele><time>2026-04-23T09:01:23.661Z</time></trkpt><trkpt lat="39.8194072" lon="8.8343913"><ele>294.0</ele><time>2026-04-23T09:01:24.651Z</time></trkpt><trkpt lat="39.8195313" lon="8.8342961"><ele>296.0</ele><time>2026-04-23T09:01:25.654Z</time></trkpt><trkpt lat="39.8196723" lon="8.834213"><ele>298.0</ele><time>2026-04-23T09:01:26.654Z</time></trkpt><trkpt lat="39.8198028" lon="8.8341244"><ele>300.0</ele><time>2026-04-23T09:01:27.652Z</time></trkpt><trkpt lat="39.8199388" lon="8.8340369"><ele>300.0</ele><time>2026-04-23T09:01:28.648Z</time></trkpt><trkpt lat="39.820096" lon="8.8340247"><ele>300.0</ele><time>2026-04-23T09:01:29.651Z</time></trkpt><trkpt lat="39.8202303" lon="8.8340094"><ele>300.0</ele><time>2026-04-23T09:01:30.643Z</time></trkpt><trkpt lat="39.8203409" lon="8.8339601"><ele>300.0</ele><time>2026-04-23T09:01:31.641Z</time></trkpt><trkpt lat="39.8204432" lon="8.8338999"><ele>300.0</ele><time>2026-04-23T09:01:32.643Z</time></trkpt><trkpt lat="39.820537" lon="8.8337919"><ele>300.0</ele><time>2026-04-23T09:01:33.648Z</time></trkpt><trkpt lat="39.8206286" lon="8.8336891"><ele>300.0</ele><time>2026-04-23T09:01:34.658Z</time></trkpt><trkpt lat="39.8207272" lon="8.8335369"><ele>300.0</ele><time>2026-04-23T09:01:35.654Z</time></trkpt><trkpt lat="39.8208393" lon="8.8334193"><ele>301.0</ele><time>2026-04-23T09:01:36.664Z</time></trkpt><trkpt lat="39.8209327" lon="8.8332815"><ele>302.0</ele><time>2026-04-23T09:01:37.659Z</time></trkpt><trkpt lat="39.8210294" lon="8.8331151"><ele>303.0</ele><time>2026-04-23T09:01:38.66Z</time></trkpt><trkpt lat="39.8211493" lon="8.8329179"><ele>303.3333333333333</ele><time>2026-04-23T09:01:39.661Z</time></trkpt><trkpt lat="39.8212546" lon="8.83269"><ele>303.66666666666663</ele><time>2026-04-23T09:01:40.655Z</time></trkpt><trkpt lat="39.8213456" lon="8.832497"><ele>304.0</ele><time>2026-04-23T09:01:41.657Z</time></trkpt><trkpt lat="39.8214539" lon="8.832291"><ele>305.3333333333333</ele><time>2026-04-23T09:01:42.657Z</time></trkpt><trkpt lat="39.8215659" lon="8.832088"><ele>306.6666666666667</ele><time>2026-04-23T09:01:43.659Z</time></trkpt><trkpt lat="39.8216502" lon="8.8319241"><ele>308.0</ele><time>2026-04-23T09:01:44.657Z</time></trkpt><trkpt lat="39.8217496" lon="8.8317885"><ele>309.33333333333337</ele><time>2026-04-23T09:01:45.665Z</time></trkpt><trkpt lat="39.8218278" lon="8.831614"><ele>310.6666666666667</ele><time>2026-04-23T09:01:46.666Z</time></trkpt><trkpt lat="39.82194" lon="8.8314286"><ele>312.0</ele><time>2026-04-23T09:01:47.656Z</time></trkpt><trkpt lat="39.8220589" lon="8.8312341"><ele>312.0</ele><time>2026-04-23T09:01:48.655Z</time></trkpt><trkpt lat="39.8221678" lon="8.8310266"><ele>312.0</ele><time>2026-04-23T09:01:49.652Z</time></trkpt><trkpt lat="39.8222542" lon="8.8308636"><ele>312.0</ele><time>2026-04-23T09:01:50.654Z</time></trkpt><trkpt lat="39.8223268" lon="8.8307027"><ele>312.5</ele><time>2026-04-23T09:01:51.65Z</time></trkpt><trkpt lat="39.8224019" lon="8.830576"><ele>313.0</ele><time>2026-04-23T09:01:52.653Z</time></trkpt><trkpt lat="39.8224874" lon="8.8304743"><ele>313.5</ele><time>2026-04-23T09:01:53.648Z</time></trkpt><trkpt lat="39.822612" lon="8.8304111"><ele>314.0</ele><time>2026-04-23T09:01:54.651Z</time></trkpt><trkpt lat="39.8227483" lon="8.830342"><ele>314.0</ele><time>2026-04-23T09:01:55.649Z</time></trkpt><trkpt lat="39.8228727" lon="8.830311"><ele>314.0</ele><time>2026-04-23T09:01:56.647Z</time></trkpt><trkpt lat="39.8229959" lon="8.8303004"><ele>314.0</ele><time>2026-04-23T09:01:57.653Z</time></trkpt><trkpt lat="39.8231169" lon="8.8303201"><ele>314.0</ele><time>2026-04-23T09:01:58.644Z</time></trkpt><trkpt lat="39.823242" lon="8.8303823"><ele>314.0</ele><time>2026-04-23T09:01:59.648Z</time></trkpt><trkpt lat="39.823362" lon="8.8304404"><ele>314.0</ele><time>2026-04-23T09:02:00.645Z</time></trkpt><trkpt lat="39.8234603" lon="8.8304974"><ele>314.0</ele><time>2026-04-23T09:02:01.651Z</time></trkpt><trkpt lat="39.8235401" lon="8.8305905"><ele>314.0</ele><time>2026-04-23T09:02:02.639Z</time></trkpt><trkpt lat="39.8236253" lon="8.8306043"><ele>314.0</ele><time>2026-04-23T09:02:03.64Z</time></trkpt><trkpt lat="39.8237486" lon="8.8305783"><ele>314.0</ele><time>2026-04-23T09:02:04.641Z</time></trkpt><trkpt lat="39.8238181" lon="8.8306149"><ele>314.0</ele><time>2026-04-23T09:02:05.641Z</time></trkpt><trkpt lat="39.8239183" lon="8.8305626"><ele>314.0</ele><time>2026-04-23T09:02:06.646Z</time></trkpt><trkpt lat="39.8240243" lon="8.8305192"><ele>314.0</ele><time>2026-04-23T09:02:07.647Z</time></trkpt><trkpt lat="39.824153" lon="8.8304502"><ele>314.0</ele><time>2026-04-23T09:02:08.648Z</time></trkpt><trkpt lat="39.824273" lon="8.8303738"><ele>313.59999999999997</ele><time>2026-04-23T09:02:09.654Z</time></trkpt><trkpt lat="39.8243703" lon="8.8303005"><ele>313.2</ele><time>2026-04-23T09:02:10.642Z</time></trkpt><trkpt lat="39.8244486" lon="8.8302086"><ele>312.79999999999995</ele><time>2026-04-23T09:02:11.64Z</time></trkpt><trkpt lat="39.8245142" lon="8.8301212"><ele>312.4</ele><time>2026-04-23T09:02:12.647Z</time></trkpt><trkpt lat="39.8245649" lon="8.8299912"><ele>312.0</ele><time>2026-04-23T09:02:13.644Z</time></trkpt><trkpt lat="39.8246181" lon="8.8298452"><ele>312.0</ele><time>2026-04-23T09:02:14.65Z</time></trkpt><trkpt lat="39.8246695" lon="8.8296463"><ele>312.0</ele><time>2026-04-23T09:02:15.647Z</time></trkpt><trkpt lat="39.8247168" lon="8.8294441"><ele>312.0</ele><time>2026-04-23T09:02:16.652Z</time></trkpt><trkpt lat="39.8247543" lon="8.8292358"><ele>313.5</ele><time>2026-04-23T09:02:17.654Z</time></trkpt><trkpt lat="39.8248047" lon="8.8290583"><ele>315.0</ele><time>2026-04-23T09:02:18.648Z</time></trkpt><trkpt lat="39.8248428" lon="8.8289185"><ele>316.5</ele><time>2026-04-23T09:02:19.65Z</time></trkpt><trkpt lat="39.8249266" lon="8.8288439"><ele>318.0</ele><time>2026-04-23T09:02:20.645Z</time></trkpt><trkpt lat="39.8250218" lon="8.8288062"><ele>318.6666666666667</ele><time>2026-04-23T09:02:21.646Z</time></trkpt><trkpt lat="39.8251624" lon="8.8287971"><ele>319.33333333333337</ele><time>2026-04-23T09:02:22.653Z</time></trkpt><trkpt lat="39.8253336" lon="8.8287286"><ele>320.0</ele><time>2026-04-23T09:02:23.648Z</time></trkpt><trkpt lat="39.8254861" lon="8.8286849"><ele>320.0</ele><time>2026-04-23T09:02:24.643Z</time></trkpt><trkpt lat="39.8256216" lon="8.8286232"><ele>320.0</ele><time>2026-04-23T09:02:25.648Z</time></trkpt><trkpt lat="39.8257502" lon="8.828579"><ele>320.0</ele><time>2026-04-23T09:02:26.647Z</time></trkpt><trkpt lat="39.8258387" lon="8.8285167"><ele>320.0</ele><time>2026-04-23T09:02:27.644Z</time></trkpt><trkpt lat="39.8259063" lon="8.828404"><ele>320.4</ele><time>2026-04-23T09:02:28.642Z</time></trkpt><trkpt lat="39.8259752" lon="8.8283011"><ele>320.8</ele><time>2026-04-23T09:02:29.642Z</time></trkpt><trkpt lat="39.8260063" lon="8.8281767"><ele>321.20000000000005</ele><time>2026-04-23T09:02:30.635Z</time></trkpt><trkpt lat="39.8259807" lon="8.8280349"><ele>321.6</ele><time>2026-04-23T09:02:31.648Z</time></trkpt><trkpt lat="39.8259589" lon="8.8279078"><ele>322.0</ele><time>2026-04-23T09:02:32.644Z</time></trkpt><trkpt lat="39.8258909" lon="8.8277876"><ele>323.75</ele><time>2026-04-23T09:02:33.645Z</time></trkpt><trkpt lat="39.8257892" lon="8.8276746"><ele>325.5</ele><time>2026-04-23T09:02:34.646Z</time></trkpt><trkpt lat="39.825675" lon="8.8275537"><ele>327.25</ele><time>2026-04-23T09:02:35.652Z</time></trkpt><trkpt lat="39.8255813" lon="8.8274118"><ele>329.0</ele><time>2026-04-23T09:02:36.638Z</time></trkpt><trkpt lat="39.8254402" lon="8.8272811"><ele>329.6666666666667</ele><time>2026-04-23T09:02:37.644Z</time></trkpt><trkpt lat="39.8252603" lon="8.8271376"><ele>330.3333333333333</ele><time>2026-04-23T09:02:38.645Z</time></trkpt><trkpt lat="39.8251069" lon="8.8269713"><ele>331.0</ele><time>2026-04-23T09:02:39.652Z</time></trkpt><trkpt lat="39.824961" lon="8.8268354"><ele>334.5</ele><time>2026-04-23T09:02:40.65Z</time></trkpt><trkpt lat="39.824838" lon="8.8266992"><ele>338.0</ele><time>2026-04-23T09:02:41.651Z</time></trkpt><trkpt lat="39.8247385" lon="8.8265792"><ele>341.5</ele><time>2026-04-23T09:02:42.65Z</time></trkpt><trkpt lat="39.8246495" lon="8.826451"><ele>345.0</ele><time>2026-04-23T09:02:43.652Z</time></trkpt><trkpt lat="39.8245636" lon="8.8263339"><ele>345.0</ele><time>2026-04-23T09:02:44.649Z</time></trkpt><trkpt lat="39.8244796" lon="8.8262121"><ele>345.0</ele><time>2026-04-23T09:02:45.652Z</time></trkpt><trkpt lat="39.8244382" lon="8.8260512"><ele>345.0</ele><time>2026-04-23T09:02:46.655Z</time></trkpt><trkpt lat="39.8244259" lon="8.8259671"><ele>345.0</ele><time>2026-04-23T09:02:47.653Z</time></trkpt><trkpt lat="39.8244662" lon="8.8258305"><ele>345.0</ele><time>2026-04-23T09:02:48.649Z</time></trkpt><trkpt lat="39.8245424" lon="8.825694"><ele>347.0</ele><time>2026-04-23T09:02:49.652Z</time></trkpt><trkpt lat="39.8246332" lon="8.8255409"><ele>349.0</ele><time>2026-04-23T09:02:50.651Z</time></trkpt><trkpt lat="39.8247339" lon="8.8253864"><ele>351.0</ele><time>2026-04-23T09:02:51.65Z</time></trkpt><trkpt lat="39.8248243" lon="8.8252163"><ele>353.3333333333333</ele><time>2026-04-23T09:02:52.654Z</time></trkpt><trkpt lat="39.8249244" lon="8.8250066"><ele>355.66666666666663</ele><time>2026-04-23T09:02:53.656Z</time></trkpt><trkpt lat="39.8250005" lon="8.8248373"><ele>358.0</ele><time>2026-04-23T09:02:54.659Z</time></trkpt><trkpt lat="39.8250568" lon="8.8246649"><ele>358.0</ele><time>2026-04-23T09:02:55.656Z</time></trkpt><trkpt lat="39.8251423" lon="8.8245232"><ele>358.0</ele><time>2026-04-23T09:02:56.65Z</time></trkpt><trkpt lat="39.8252315" lon="8.8243956"><ele>358.0</ele><time>2026-04-23T09:02:57.655Z</time></trkpt><trkpt lat="39.8253622" lon="8.8242735"><ele>358.0</ele><time>2026-04-23T09:02:58.652Z</time></trkpt><trkpt lat="39.8254815" lon="8.8241777"><ele>361.66666666666663</ele><time>2026-04-23T09:02:59.646Z</time></trkpt><trkpt lat="39.8256009" lon="8.8240408"><ele>365.3333333333333</ele><time>2026-04-23T09:03:00.649Z</time></trkpt><trkpt lat="39.8257424" lon="8.8239172"><ele>369.0</ele><time>2026-04-23T09:03:01.643Z</time></trkpt><trkpt lat="39.8258581" lon="8.8238015"><ele>369.0</ele><time>2026-04-23T09:03:02.643Z</time></trkpt><trkpt lat="39.8259463" lon="8.823681"><ele>369.0</ele><time>2026-04-23T09:03:03.637Z</time></trkpt><trkpt lat="39.8260321" lon="8.8235826"><ele>369.0</ele><time>2026-04-23T09:03:04.643Z</time></trkpt><trkpt lat="39.8261104" lon="8.823491"><ele>369.0</ele><time>2026-04-23T09:03:05.646Z</time></trkpt><trkpt lat="39.8261419" lon="8.8234113"><ele>369.0</ele><time>2026-04-23T09:03:06.64Z</time></trkpt><trkpt lat="39.8262164" lon="8.8232766"><ele>369.5</ele><time>2026-04-23T09:03:07.647Z</time></trkpt><trkpt lat="39.8262675" lon="8.8231059"><ele>370.0</ele><time>2026-04-23T09:03:08.648Z</time></trkpt><trkpt lat="39.8263309" lon="8.8229607"><ele>370.5</ele><time>2026-04-23T09:03:09.649Z</time></trkpt><trkpt lat="39.8264083" lon="8.8227787"><ele>371.0</ele><time>2026-04-23T09:03:10.65Z</time></trkpt><trkpt lat="39.8265078" lon="8.8225642"><ele>376.33333333333337</ele><time>2026-04-23T09:03:11.651Z</time></trkpt><trkpt lat="39.8266205" lon="8.8223868"><ele>381.6666666666667</ele><time>2026-04-23T09:03:12.645Z</time></trkpt><trkpt lat="39.826696" lon="8.8221838"><ele>387.0</ele><time>2026-04-23T09:03:13.643Z</time></trkpt><trkpt lat="39.8267572" lon="8.8220359"><ele>387.0</ele><time>2026-04-23T09:03:14.631Z</time></trkpt><trkpt lat="39.8268327" lon="8.8219789"><ele>387.0</ele><time>2026-04-23T09:03:15.652Z</time></trkpt><trkpt lat="39.826923" lon="8.8219007"><ele>387.0</ele><time>2026-04-23T09:03:16.653Z</time></trkpt><trkpt lat="39.8270236" lon="8.8218316"><ele>387.0</ele><time>2026-04-23T09:03:17.648Z</time></trkpt><trkpt lat="39.8271377" lon="8.8217608"><ele>387.0</ele><time>2026-04-23T09:03:18.653Z</time></trkpt><trkpt lat="39.8272744" lon="8.8216432"><ele>387.0</ele><time>2026-04-23T09:03:19.652Z</time></trkpt><trkpt lat="39.8273824" lon="8.8215391"><ele>387.0</ele><time>2026-04-23T09:03:20.649Z</time></trkpt><trkpt lat="39.8274814" lon="8.8213868"><ele>387.0</ele><time>2026-04-23T09:03:21.651Z</time></trkpt><trkpt lat="39.8275693" lon="8.8212579"><ele>387.0</ele><time>2026-04-23T09:03:22.648Z</time></trkpt><trkpt lat="39.8276312" lon="8.8211173"><ele>387.25</ele><time>2026-04-23T09:03:23.644Z</time></trkpt><trkpt lat="39.8276837" lon="8.8209648"><ele>387.5</ele><time>2026-04-23T09:03:24.647Z</time></trkpt><trkpt lat="39.8277496" lon="8.8207871"><ele>387.75</ele><time>2026-04-23T09:03:25.658Z</time></trkpt><trkpt lat="39.8278131" lon="8.8206125"><ele>388.0</ele><time>2026-04-23T09:03:26.651Z</time></trkpt><trkpt lat="39.8278825" lon="8.8204612"><ele>388.0</ele><time>2026-04-23T09:03:27.653Z</time></trkpt><trkpt lat="39.8279224" lon="8.8202903"><ele>388.0</ele><time>2026-04-23T09:03:28.656Z</time></trkpt><trkpt lat="39.8279601" lon="8.8201508"><ele>388.0</ele><time>2026-04-23T09:03:29.649Z</time></trkpt><trkpt lat="39.8280023" lon="8.8200352"><ele>388.0</ele><time>2026-04-23T09:03:30.644Z</time></trkpt><trkpt lat="39.8280703" lon="8.8199647"><ele>388.0</ele><time>2026-04-23T09:03:31.646Z</time></trkpt><trkpt lat="39.8281743" lon="8.8199157"><ele>390.0</ele><time>2026-04-23T09:03:32.648Z</time></trkpt><trkpt lat="39.8282778" lon="8.8198499"><ele>392.0</ele><time>2026-04-23T09:03:33.656Z</time></trkpt><trkpt lat="39.8283898" lon="8.8197626"><ele>394.0</ele><time>2026-04-23T09:03:34.648Z</time></trkpt><trkpt lat="39.8285042" lon="8.8196804"><ele>396.0</ele><time>2026-04-23T09:03:35.664Z</time></trkpt><trkpt lat="39.8285984" lon="8.8196053"><ele>396.4</ele><time>2026-04-23T09:03:36.653Z</time></trkpt><trkpt lat="39.8286814" lon="8.8195239"><ele>396.8</ele><time>2026-04-23T09:03:37.649Z</time></trkpt><trkpt lat="39.8287582" lon="8.8194475"><ele>397.2</ele><time>2026-04-23T09:03:38.644Z</time></trkpt><trkpt lat="39.8288164" lon="8.8193397"><ele>397.59999999999997</ele><time>2026-04-23T09:03:39.649Z</time></trkpt><trkpt lat="39.8288299" lon="8.8191906"><ele>398.0</ele><time>2026-04-23T09:03:40.648Z</time></trkpt><trkpt lat="39.8288278" lon="8.8190419"><ele>400.25</ele><time>2026-04-23T09:03:41.64Z</time></trkpt><trkpt lat="39.828768" lon="8.818936"><ele>402.5</ele><time>2026-04-23T09:03:42.646Z</time></trkpt><trkpt lat="39.8286516" lon="8.81886"><ele>404.75</ele><time>2026-04-23T09:03:43.644Z</time></trkpt><trkpt lat="39.8284654" lon="8.8187952"><ele>407.0</ele><time>2026-04-23T09:03:44.638Z</time></trkpt><trkpt lat="39.8282967" lon="8.8187358"><ele>407.0</ele><time>2026-04-23T09:03:45.657Z</time></trkpt><trkpt lat="39.8281143" lon="8.8186545"><ele>407.0</ele><time>2026-04-23T09:03:46.65Z</time></trkpt><trkpt lat="39.8279045" lon="8.8185963"><ele>407.0</ele><time>2026-04-23T09:03:47.653Z</time></trkpt><trkpt lat="39.8277379" lon="8.8185382"><ele>411.66666666666663</ele><time>2026-04-23T09:03:48.654Z</time></trkpt><trkpt lat="39.8275757" lon="8.8184545"><ele>416.33333333333337</ele><time>2026-04-23T09:03:49.655Z</time></trkpt><trkpt lat="39.8274506" lon="8.8183806"><ele>421.0</ele><time>2026-04-23T09:03:50.656Z</time></trkpt><trkpt lat="39.8273096" lon="8.8183021"><ele>421.00000000000006</ele><time>2026-04-23T09:03:51.651Z</time></trkpt><trkpt lat="39.8272033" lon="8.8182344"><ele>421.0</ele><time>2026-04-23T09:03:52.654Z</time></trkpt><trkpt lat="39.8271351" lon="8.8181748"><ele>421.0</ele><time>2026-04-23T09:03:53.655Z</time></trkpt><trkpt lat="39.8270812" lon="8.8181134"><ele>421.0</ele><time>2026-04-23T09:03:54.664Z</time></trkpt><trkpt lat="39.8270155" lon="8.8180642"><ele>421.00000000000006</ele><time>2026-04-23T09:03:58.649Z</time></trkpt><trkpt lat="39.8269329" lon="8.8181113"><ele>421.0</ele><time>2026-04-23T09:04:00.657Z</time></trkpt><trkpt lat="39.8268532" lon="8.8182166"><ele>422.5</ele><time>2026-04-23T09:04:02.651Z</time></trkpt><trkpt lat="39.8267807" lon="8.8183263"><ele>424.0</ele><time>2026-04-23T09:04:04.655Z</time></trkpt><trkpt lat="39.8266726" lon="8.8184156"><ele>425.5</ele><time>2026-04-23T09:04:06.649Z</time></trkpt><trkpt lat="39.8266281" lon="8.8185391"><ele>427.0</ele><time>2026-04-23T09:04:08.641Z</time></trkpt><trkpt lat="39.8266808" lon="8.8186627"><ele>427.33333333333337</ele><time>2026-04-23T09:04:10.646Z</time></trkpt><trkpt lat="39.8267429" lon="8.8187207"><ele>427.6666666666667</ele><time>2026-04-23T09:04:11.652Z</time></trkpt><trkpt lat="39.8268094" lon="8.8187981"><ele>428.0</ele><time>2026-04-23T09:04:12.65Z</time></trkpt><trkpt lat="39.8268678" lon="8.8188728"><ele>428.33333333333337</ele><time>2026-04-23T09:04:13.653Z</time></trkpt><trkpt lat="39.8269162" lon="8.8189509"><ele>428.6666666666667</ele><time>2026-04-23T09:04:14.647Z</time></trkpt><trkpt lat="39.8269617" lon="8.8190226"><ele>429.0</ele><time>2026-04-23T09:04:15.665Z</time></trkpt><trkpt lat="39.8270094" lon="8.8190959"><ele>427.3333333333333</ele><time>2026-04-23T09:04:16.655Z</time></trkpt><trkpt lat="39.8270519" lon="8.8191693"><ele>425.66666666666663</ele><time>2026-04-23T09:04:17.653Z</time></trkpt><trkpt lat="39.8270906" lon="8.8192397"><ele>424.0</ele><time>2026-04-23T09:04:18.657Z</time></trkpt><trkpt lat="39.8271373" lon="8.8193767"><ele>422.3333333333333</ele><time>2026-04-23T09:04:20.654Z</time></trkpt><trkpt lat="39.8271542" lon="8.8194883"><ele>420.66666666666663</ele><time>2026-04-23T09:04:22.642Z</time></trkpt><trkpt lat="39.8270951" lon="8.8195656"><ele>419.0</ele><time>2026-04-23T09:04:24.646Z</time></trkpt><trkpt lat="39.8269722" lon="8.8196436"><ele>420.16666666666663</ele><time>2026-04-23T09:04:26.658Z</time></trkpt><trkpt lat="39.8268989" lon="8.8196975"><ele>421.3333333333333</ele><time>2026-04-23T09:04:27.666Z</time></trkpt><trkpt lat="39.8268316" lon="8.8197688"><ele>422.5</ele><time>2026-04-23T09:04:28.651Z</time></trkpt><trkpt lat="39.8267695" lon="8.8198355"><ele>423.66666666666663</ele><time>2026-04-23T09:04:29.641Z</time></trkpt><trkpt lat="39.8267019" lon="8.8199044"><ele>424.8333333333333</ele><time>2026-04-23T09:04:30.649Z</time></trkpt><trkpt lat="39.8266342" lon="8.8199832"><ele>426.0</ele><time>2026-04-23T09:04:31.644Z</time></trkpt><trkpt lat="39.8265628" lon="8.8200642"><ele>426.0</ele><time>2026-04-23T09:04:32.645Z</time></trkpt><trkpt lat="39.8264932" lon="8.8201427"><ele>426.0</ele><time>2026-04-23T09:04:33.651Z</time></trkpt><trkpt lat="39.8264278" lon="8.8202242"><ele>426.0</ele><time>2026-04-23T09:04:34.644Z</time></trkpt><trkpt lat="39.8263624" lon="8.8203009"><ele>426.0</ele><time>2026-04-23T09:04:35.65Z</time></trkpt><trkpt lat="39.8263068" lon="8.8203776"><ele>426.0</ele><time>2026-04-23T09:04:36.641Z</time></trkpt><trkpt lat="39.8262498" lon="8.8204547"><ele>426.0</ele><time>2026-04-23T09:04:37.644Z</time></trkpt><trkpt lat="39.8261874" lon="8.8205305"><ele>425.6666666666667</ele><time>2026-04-23T09:04:38.644Z</time></trkpt><trkpt lat="39.8261186" lon="8.8206038"><ele>425.33333333333337</ele><time>2026-04-23T09:04:39.651Z</time></trkpt><trkpt lat="39.8260494" lon="8.8206741"><ele>425.0</ele><time>2026-04-23T09:04:40.643Z</time></trkpt><trkpt lat="39.8259786" lon="8.8207493"><ele>424.6666666666667</ele><time>2026-04-23T09:04:41.641Z</time></trkpt><trkpt lat="39.8259169" lon="8.8208338"><ele>424.33333333333337</ele><time>2026-04-23T09:04:42.646Z</time></trkpt><trkpt lat="39.8258742" lon="8.8209237"><ele>424.0</ele><time>2026-04-23T09:04:43.643Z</time></trkpt><trkpt lat="39.8258464" lon="8.8210229"><ele>424.00000000000006</ele><time>2026-04-23T09:04:44.645Z</time></trkpt><trkpt lat="39.8258201" lon="8.8211275"><ele>424.0</ele><time>2026-04-23T09:04:45.643Z</time></trkpt><trkpt lat="39.8257889" lon="8.8212463"><ele>424.0</ele><time>2026-04-23T09:04:46.646Z</time></trkpt><trkpt lat="39.8257564" lon="8.8213574"><ele>424.0</ele><time>2026-04-23T09:04:47.645Z</time></trkpt><trkpt lat="39.8257216" lon="8.8214592"><ele>424.00000000000006</ele><time>2026-04-23T09:04:48.639Z</time></trkpt><trkpt lat="39.8256807" lon="8.8215386"><ele>424.0</ele><time>2026-04-23T09:04:49.641Z</time></trkpt><trkpt lat="39.825626" lon="8.8216298"><ele>424.0</ele><time>2026-04-23T09:04:50.646Z</time></trkpt><trkpt lat="39.8255562" lon="8.8217171"><ele>424.0</ele><time>2026-04-23T09:04:51.642Z</time></trkpt><trkpt lat="39.8254844" lon="8.821803"><ele>424.0</ele><time>2026-04-23T09:04:52.646Z</time></trkpt><trkpt lat="39.8254081" lon="8.8218824"><ele>424.0</ele><time>2026-04-23T09:04:53.645Z</time></trkpt><trkpt lat="39.8253432" lon="8.8219471"><ele>424.0</ele><time>2026-04-23T09:04:54.641Z</time></trkpt><trkpt lat="39.8252778" lon="8.8220077"><ele>423.00000000000006</ele><time>2026-04-23T09:04:55.647Z</time></trkpt><trkpt lat="39.8252081" lon="8.8220622"><ele>422.0</ele><time>2026-04-23T09:04:56.644Z</time></trkpt><trkpt lat="39.8251406" lon="8.8221002"><ele>421.0</ele><time>2026-04-23T09:04:57.641Z</time></trkpt><trkpt lat="39.825069" lon="8.8221278"><ele>420.0</ele><time>2026-04-23T09:04:58.634Z</time></trkpt><trkpt lat="39.825006" lon="8.8221498"><ele>419.00000000000006</ele><time>2026-04-23T09:04:59.635Z</time></trkpt><trkpt lat="39.8249174" lon="8.8221535"><ele>418.0</ele><time>2026-04-23T09:05:00.639Z</time></trkpt><trkpt lat="39.8248369" lon="8.8221388"><ele>418.00000000000006</ele><time>2026-04-23T09:05:01.645Z</time></trkpt><trkpt lat="39.8247557" lon="8.8221089"><ele>418.0</ele><time>2026-04-23T09:05:02.647Z</time></trkpt><trkpt lat="39.8246802" lon="8.8220703"><ele>418.0</ele><time>2026-04-23T09:05:03.644Z</time></trkpt><trkpt lat="39.8246086" lon="8.8220162"><ele>418.0</ele><time>2026-04-23T09:05:04.645Z</time></trkpt><trkpt lat="39.8245418" lon="8.8219446"><ele>418.00000000000006</ele><time>2026-04-23T09:05:05.644Z</time></trkpt><trkpt lat="39.8244752" lon="8.8218439"><ele>418.0</ele><time>2026-04-23T09:05:06.647Z</time></trkpt><trkpt lat="39.824393" lon="8.8217585"><ele>420.00000000000006</ele><time>2026-04-23T09:05:07.643Z</time></trkpt><trkpt lat="39.8243081" lon="8.8216906"><ele>422.0</ele><time>2026-04-23T09:05:08.647Z</time></trkpt><trkpt lat="39.8242223" lon="8.8216384"><ele>424.0</ele><time>2026-04-23T09:05:09.649Z</time></trkpt><trkpt lat="39.8241376" lon="8.8216064"><ele>426.0</ele><time>2026-04-23T09:05:10.649Z</time></trkpt><trkpt lat="39.824054" lon="8.8215771"><ele>428.00000000000006</ele><time>2026-04-23T09:05:11.651Z</time></trkpt><trkpt lat="39.8239808" lon="8.8215522"><ele>430.0</ele><time>2026-04-23T09:05:12.647Z</time></trkpt><trkpt lat="39.8238945" lon="8.8215214"><ele>430.00000000000006</ele><time>2026-04-23T09:05:13.653Z</time></trkpt><trkpt lat="39.8237963" lon="8.8214928"><ele>430.0</ele><time>2026-04-23T09:05:14.649Z</time></trkpt><trkpt lat="39.823709" lon="8.8214775"><ele>430.0</ele><time>2026-04-23T09:05:15.648Z</time></trkpt><trkpt lat="39.8236201" lon="8.8214999"><ele>430.0</ele><time>2026-04-23T09:05:16.642Z</time></trkpt><trkpt lat="39.8235471" lon="8.8215324"><ele>430.00000000000006</ele><time>2026-04-23T09:05:17.643Z</time></trkpt><trkpt lat="39.823463" lon="8.8215738"><ele>430.0</ele><time>2026-04-23T09:05:18.65Z</time></trkpt><trkpt lat="39.8233793" lon="8.8216324"><ele>430.1666666666667</ele><time>2026-04-23T09:05:19.645Z</time></trkpt><trkpt lat="39.8232886" lon="8.821691"><ele>430.33333333333337</ele><time>2026-04-23T09:05:20.643Z</time></trkpt><trkpt lat="39.8232007" lon="8.8217425"><ele>430.5</ele><time>2026-04-23T09:05:21.65Z</time></trkpt><trkpt lat="39.8231205" lon="8.8217874"><ele>430.66666666666663</ele><time>2026-04-23T09:05:22.643Z</time></trkpt><trkpt lat="39.8230542" lon="8.8217937"><ele>430.8333333333333</ele><time>2026-04-23T09:05:23.647Z</time></trkpt><trkpt lat="39.8229841" lon="8.8217914"><ele>431.0</ele><time>2026-04-23T09:05:24.64Z</time></trkpt><trkpt lat="39.8229157" lon="8.8217695"><ele>430.99999999999994</ele><time>2026-04-23T09:05:25.649Z</time></trkpt><trkpt lat="39.8228482" lon="8.8217446"><ele>431.0</ele><time>2026-04-23T09:05:26.646Z</time></trkpt><trkpt lat="39.8227739" lon="8.821718"><ele>431.0</ele><time>2026-04-23T09:05:27.644Z</time></trkpt><trkpt lat="39.8226904" lon="8.8216974"><ele>431.0</ele><time>2026-04-23T09:05:28.64Z</time></trkpt><trkpt lat="39.8226013" lon="8.8216681"><ele>430.99999999999994</ele><time>2026-04-23T09:05:29.643Z</time></trkpt><trkpt lat="39.8225038" lon="8.8216299"><ele>431.0</ele><time>2026-04-23T09:05:30.639Z</time></trkpt><trkpt lat="39.8224074" lon="8.821586"><ele>430.8</ele><time>2026-04-23T09:05:31.641Z</time></trkpt><trkpt lat="39.8223139" lon="8.8215442"><ele>430.6</ele><time>2026-04-23T09:05:32.633Z</time></trkpt><trkpt lat="39.8222053" lon="8.8215426"><ele>430.4</ele><time>2026-04-23T09:05:33.633Z</time></trkpt><trkpt lat="39.8221061" lon="8.821542"><ele>430.2</ele><time>2026-04-23T09:05:34.638Z</time></trkpt><trkpt lat="39.8220103" lon="8.8215511"><ele>430.0</ele><time>2026-04-23T09:05:35.633Z</time></trkpt><trkpt lat="39.8219132" lon="8.8215798"><ele>430.6</ele><time>2026-04-23T09:05:36.64Z</time></trkpt><trkpt lat="39.8218086" lon="8.8216183"><ele>431.2</ele><time>2026-04-23T09:05:37.646Z</time></trkpt><trkpt lat="39.8217069" lon="8.8216753"><ele>431.79999999999995</ele><time>2026-04-23T09:05:38.638Z</time></trkpt><trkpt lat="39.8216256" lon="8.8217226"><ele>432.4</ele><time>2026-04-23T09:05:39.639Z</time></trkpt><trkpt lat="39.82155" lon="8.8217802"><ele>433.0</ele><time>2026-04-23T09:05:40.639Z</time></trkpt><trkpt lat="39.8214595" lon="8.8218437"><ele>429.5</ele><time>2026-04-23T09:05:41.639Z</time></trkpt><trkpt lat="39.8213626" lon="8.8219168"><ele>426.0</ele><time>2026-04-23T09:05:42.635Z</time></trkpt><trkpt lat="39.821265" lon="8.8219856"><ele>422.5</ele><time>2026-04-23T09:05:43.642Z</time></trkpt><trkpt lat="39.8211556" lon="8.8220448"><ele>419.0</ele><time>2026-04-23T09:05:44.652Z</time></trkpt><trkpt lat="39.8210398" lon="8.82209"><ele>421.0</ele><time>2026-04-23T09:05:45.644Z</time></trkpt><trkpt lat="39.8209271" lon="8.8221292"><ele>423.0</ele><time>2026-04-23T09:05:46.646Z</time></trkpt><trkpt lat="39.8208199" lon="8.8221682"><ele>425.0</ele><time>2026-04-23T09:05:47.656Z</time></trkpt><trkpt lat="39.8207174" lon="8.8222032"><ele>427.0</ele><time>2026-04-23T09:05:48.649Z</time></trkpt><trkpt lat="39.820622" lon="8.8222211"><ele>429.0</ele><time>2026-04-23T09:05:49.649Z</time></trkpt><trkpt lat="39.8205329" lon="8.8222569"><ele>429.0</ele><time>2026-04-23T09:05:50.64Z</time></trkpt><trkpt lat="39.8204633" lon="8.8223137"><ele>429.0</ele><time>2026-04-23T09:05:51.64Z</time></trkpt><trkpt lat="39.8204042" lon="8.8223819"><ele>429.0</ele><time>2026-04-23T09:05:52.637Z</time></trkpt><trkpt lat="39.820344" lon="8.8224648"><ele>429.0</ele><time>2026-04-23T09:05:53.64Z</time></trkpt><trkpt lat="39.8202843" lon="8.822558"><ele>429.0</ele><time>2026-04-23T09:05:54.642Z</time></trkpt><trkpt lat="39.8202282" lon="8.8226527"><ele>429.0</ele><time>2026-04-23T09:05:55.646Z</time></trkpt><trkpt lat="39.8201797" lon="8.8227564"><ele>429.1666666666667</ele><time>2026-04-23T09:05:56.644Z</time></trkpt><trkpt lat="39.8201321" lon="8.8228563"><ele>429.33333333333337</ele><time>2026-04-23T09:05:57.65Z</time></trkpt><trkpt lat="39.8200865" lon="8.8229522"><ele>429.5</ele><time>2026-04-23T09:05:58.649Z</time></trkpt><trkpt lat="39.8200362" lon="8.8230485"><ele>429.6666666666667</ele><time>2026-04-23T09:05:59.643Z</time></trkpt><trkpt lat="39.8199836" lon="8.823128"><ele>429.83333333333337</ele><time>2026-04-23T09:06:00.639Z</time></trkpt><trkpt lat="39.8199316" lon="8.823192"><ele>430.0</ele><time>2026-04-23T09:06:01.645Z</time></trkpt><trkpt lat="39.8198727" lon="8.8232555"><ele>430.00000000000006</ele><time>2026-04-23T09:06:02.642Z</time></trkpt><trkpt lat="39.8197932" lon="8.8232911"><ele>430.0</ele><time>2026-04-23T09:06:03.645Z</time></trkpt><trkpt lat="39.819703" lon="8.8233256"><ele>430.0</ele><time>2026-04-23T09:06:04.639Z</time></trkpt><trkpt lat="39.8196168" lon="8.8233314"><ele>430.0</ele><time>2026-04-23T09:06:05.648Z</time></trkpt><trkpt lat="39.81953" lon="8.8233497"><ele>430.00000000000006</ele><time>2026-04-23T09:06:06.649Z</time></trkpt><trkpt lat="39.8194452" lon="8.8233505"><ele>430.0</ele><time>2026-04-23T09:06:07.656Z</time></trkpt><trkpt lat="39.8193621" lon="8.8233318"><ele>430.0</ele><time>2026-04-23T09:06:08.645Z</time></trkpt><trkpt lat="39.8192898" lon="8.8233044"><ele>430.0</ele><time>2026-04-23T09:06:09.646Z</time></trkpt><trkpt lat="39.8192251" lon="8.8232647"><ele>430.0</ele><time>2026-04-23T09:06:11.648Z</time></trkpt><trkpt lat="39.819275" lon="8.8231866"><ele>430.0</ele><time>2026-04-23T09:07:12.648Z</time></trkpt><trkpt lat="39.8193253" lon="8.823245"><ele>430.0</ele><time>2026-04-23T09:07:16.652Z</time></trkpt><trkpt lat="39.8193159" lon="8.8233289"><ele>430.0</ele><time>2026-04-23T09:07:18.652Z</time></trkpt><trkpt lat="39.8192426" lon="8.8233734"><ele>430.0</ele><time>2026-04-23T09:07:21.646Z</time></trkpt><trkpt lat="39.8191463" lon="8.8233712"><ele>430.2</ele><time>2026-04-23T09:07:23.652Z</time></trkpt><trkpt lat="39.8190422" lon="8.8234166"><ele>430.4</ele><time>2026-04-23T09:07:25.643Z</time></trkpt><trkpt lat="39.8189257" lon="8.8234889"><ele>430.6</ele><time>2026-04-23T09:07:27.656Z</time></trkpt><trkpt lat="39.8188642" lon="8.8235355"><ele>430.8</ele><time>2026-04-23T09:07:28.645Z</time></trkpt><trkpt lat="39.8187987" lon="8.8235905"><ele>431.0</ele><time>2026-04-23T09:07:29.643Z</time></trkpt><trkpt lat="39.8187356" lon="8.8236526"><ele>429.16666666666663</ele><time>2026-04-23T09:07:30.642Z</time></trkpt><trkpt lat="39.818676" lon="8.8237254"><ele>427.3333333333333</ele><time>2026-04-23T09:07:31.638Z</time></trkpt><trkpt lat="39.8186315" lon="8.823805"><ele>425.5</ele><time>2026-04-23T09:07:32.639Z</time></trkpt><trkpt lat="39.8185937" lon="8.823885"><ele>423.66666666666663</ele><time>2026-04-23T09:07:33.641Z</time></trkpt><trkpt lat="39.8185346" lon="8.8239934"><ele>421.8333333333333</ele><time>2026-04-23T09:07:35.639Z</time></trkpt><trkpt lat="39.8184692" lon="8.8240757"><ele>420.0</ele><time>2026-04-23T09:07:37.645Z</time></trkpt><trkpt lat="39.8184186" lon="8.8241448"><ele>420.0</ele><time>2026-04-23T09:07:38.643Z</time></trkpt><trkpt lat="39.8183715" lon="8.8242012"><ele>420.0</ele><time>2026-04-23T09:07:39.639Z</time></trkpt><trkpt lat="39.8182875" lon="8.8242481"><ele>420.0</ele><time>2026-04-23T09:07:41.637Z</time></trkpt><trkpt lat="39.8182239" lon="8.8242837"><ele>420.0</ele><time>2026-04-23T09:07:54.645Z</time></trkpt><trkpt lat="39.8182984" lon="8.8242255"><ele>420.0</ele><time>2026-04-23T09:08:08.666Z</time></trkpt><trkpt lat="39.8184029" lon="8.824113"><ele>420.0</ele><time>2026-04-23T09:08:10.659Z</time></trkpt><trkpt lat="39.8184572" lon="8.82405"><ele>419.8</ele><time>2026-04-23T09:08:11.654Z</time></trkpt><trkpt lat="39.8185075" lon="8.8239807"><ele>419.6</ele><time>2026-04-23T09:08:12.659Z</time></trkpt><trkpt lat="39.8185915" lon="8.8238441"><ele>419.4</ele><time>2026-04-23T09:08:14.651Z</time></trkpt><trkpt lat="39.8186426" lon="8.8237566"><ele>419.2</ele><time>2026-04-23T09:08:15.664Z</time></trkpt><trkpt lat="39.8186981" lon="8.82367"><ele>419.0</ele><time>2026-04-23T09:08:16.662Z</time></trkpt><trkpt lat="39.8187438" lon="8.8235991"><ele>419.0</ele><time>2026-04-23T09:08:17.659Z</time></trkpt><trkpt lat="39.8188257" lon="8.8235164"><ele>419.0</ele><time>2026-04-23T09:08:19.659Z</time></trkpt><trkpt lat="39.8189269" lon="8.823487"><ele>419.0</ele><time>2026-04-23T09:08:21.658Z</time></trkpt><trkpt lat="39.819035" lon="8.8234485"><ele>419.0</ele><time>2026-04-23T09:08:23.65Z</time></trkpt><trkpt lat="39.8191344" lon="8.8233847"><ele>419.0</ele><time>2026-04-23T09:08:25.651Z</time></trkpt><trkpt lat="39.8191701" lon="8.823298"><ele>421.4</ele><time>2026-04-23T09:08:27.641Z</time></trkpt><trkpt lat="39.8191584" lon="8.8232166"><ele>423.79999999999995</ele><time>2026-04-23T09:08:28.637Z</time></trkpt><trkpt lat="39.8190312" lon="8.8231177"><ele>426.20000000000005</ele><time>2026-04-23T09:08:30.635Z</time></trkpt><trkpt lat="39.8189353" lon="8.8231026"><ele>428.6</ele><time>2026-04-23T09:08:31.634Z</time></trkpt><trkpt lat="39.8188517" lon="8.8230756"><ele>431.0</ele><time>2026-04-23T09:08:32.636Z</time></trkpt><trkpt lat="39.8187394" lon="8.8230495"><ele>431.0</ele><time>2026-04-23T09:08:33.638Z</time></trkpt><trkpt lat="39.8186183" lon="8.8230192"><ele>431.0</ele><time>2026-04-23T09:08:34.641Z</time></trkpt><trkpt lat="39.8185136" lon="8.8229883"><ele>431.0</ele><time>2026-04-23T09:08:35.647Z</time></trkpt><trkpt lat="39.8184218" lon="8.8229595"><ele>431.0</ele><time>2026-04-23T09:08:36.644Z</time></trkpt><trkpt lat="39.8183263" lon="8.8229215"><ele>431.0</ele><time>2026-04-23T09:08:37.649Z</time></trkpt><trkpt lat="39.8182341" lon="8.8228745"><ele>431.6</ele><time>2026-04-23T09:08:38.651Z</time></trkpt><trkpt lat="39.8181376" lon="8.8228297"><ele>432.20000000000005</ele><time>2026-04-23T09:08:39.652Z</time></trkpt><trkpt lat="39.818034" lon="8.822786"><ele>432.79999999999995</ele><time>2026-04-23T09:08:40.653Z</time></trkpt><trkpt lat="39.8179352" lon="8.8227407"><ele>433.4</ele><time>2026-04-23T09:08:41.651Z</time></trkpt><trkpt lat="39.81785" lon="8.8226931"><ele>434.0</ele><time>2026-04-23T09:08:42.652Z</time></trkpt><trkpt lat="39.8177729" lon="8.8226365"><ele>434.0</ele><time>2026-04-23T09:08:43.646Z</time></trkpt><trkpt lat="39.8177134" lon="8.8225677"><ele>434.0</ele><time>2026-04-23T09:08:44.64Z</time></trkpt><trkpt lat="39.8176604" lon="8.8224763"><ele>434.0</ele><time>2026-04-23T09:08:45.653Z</time></trkpt><trkpt lat="39.8176019" lon="8.8223967"><ele>434.0</ele><time>2026-04-23T09:08:46.648Z</time></trkpt><trkpt lat="39.8175344" lon="8.8223122"><ele>434.0</ele><time>2026-04-23T09:08:47.647Z</time></trkpt><trkpt lat="39.8174515" lon="8.8222192"><ele>433.79999999999995</ele><time>2026-04-23T09:08:48.653Z</time></trkpt><trkpt lat="39.8173711" lon="8.8221311"><ele>433.59999999999997</ele><time>2026-04-23T09:08:49.655Z</time></trkpt><trkpt lat="39.8172961" lon="8.8220355"><ele>433.4</ele><time>2026-04-23T09:08:50.648Z</time></trkpt><trkpt lat="39.8172553" lon="8.8219268"><ele>433.2</ele><time>2026-04-23T09:08:51.649Z</time></trkpt><trkpt lat="39.8172349" lon="8.8217968"><ele>433.0</ele><time>2026-04-23T09:08:52.651Z</time></trkpt><trkpt lat="39.8172165" lon="8.821667"><ele>433.0</ele><time>2026-04-23T09:08:53.649Z</time></trkpt><trkpt lat="39.8171998" lon="8.8215367"><ele>432.99999999999994</ele><time>2026-04-23T09:08:54.647Z</time></trkpt><trkpt lat="39.8171802" lon="8.8214106"><ele>432.99999999999994</ele><time>2026-04-23T09:08:55.653Z</time></trkpt><trkpt lat="39.8171597" lon="8.821277"><ele>433.0</ele><time>2026-04-23T09:08:56.655Z</time></trkpt><trkpt lat="39.8171297" lon="8.82114"><ele>433.0</ele><time>2026-04-23T09:08:57.655Z</time></trkpt><trkpt lat="39.8170989" lon="8.8210121"><ele>433.00000000000006</ele><time>2026-04-23T09:08:58.651Z</time></trkpt><trkpt lat="39.8170685" lon="8.8208954"><ele>433.0</ele><time>2026-04-23T09:08:59.649Z</time></trkpt><trkpt lat="39.8170381" lon="8.8207836"><ele>433.0</ele><time>2026-04-23T09:09:00.65Z</time></trkpt><trkpt lat="39.8170152" lon="8.8206782"><ele>433.0</ele><time>2026-04-23T09:09:01.651Z</time></trkpt><trkpt lat="39.8169962" lon="8.8205887"><ele>433.00000000000006</ele><time>2026-04-23T09:09:02.646Z</time></trkpt><trkpt lat="39.8169853" lon="8.820503"><ele>433.0</ele><time>2026-04-23T09:09:03.649Z</time></trkpt><trkpt lat="39.8169744" lon="8.8204156"><ele>433.00000000000006</ele><time>2026-04-23T09:09:04.644Z</time></trkpt><trkpt lat="39.8169654" lon="8.8203183"><ele>433.0</ele><time>2026-04-23T09:09:05.644Z</time></trkpt><trkpt lat="39.8169427" lon="8.8202276"><ele>433.0</ele><time>2026-04-23T09:09:06.65Z</time></trkpt><trkpt lat="39.8169318" lon="8.8201429"><ele>433.0</ele><time>2026-04-23T09:09:07.643Z</time></trkpt><trkpt lat="39.8168911" lon="8.8199936"><ele>433.00000000000006</ele><time>2026-04-23T09:09:09.644Z</time></trkpt><trkpt lat="39.8168632" lon="8.8199054"><ele>433.0</ele><time>2026-04-23T09:09:10.652Z</time></trkpt><trkpt lat="39.8168363" lon="8.819809"><ele>432.6666666666667</ele><time>2026-04-23T09:09:11.65Z</time></trkpt><trkpt lat="39.8168065" lon="8.8197184"><ele>432.33333333333337</ele><time>2026-04-23T09:09:12.658Z</time></trkpt><trkpt lat="39.8167793" lon="8.81962"><ele>432.0</ele><time>2026-04-23T09:09:13.656Z</time></trkpt><trkpt lat="39.8167509" lon="8.8195211"><ele>431.66666666666663</ele><time>2026-04-23T09:09:14.653Z</time></trkpt><trkpt lat="39.8167265" lon="8.8194097"><ele>431.3333333333333</ele><time>2026-04-23T09:09:15.648Z</time></trkpt><trkpt lat="39.8167065" lon="8.819305"><ele>431.0</ele><time>2026-04-23T09:09:16.659Z</time></trkpt><trkpt lat="39.8166932" lon="8.8192046"><ele>430.7142857142857</ele><time>2026-04-23T09:09:17.659Z</time></trkpt><trkpt lat="39.8166884" lon="8.8191087"><ele>430.4285714285714</ele><time>2026-04-23T09:09:18.657Z</time></trkpt><trkpt lat="39.8166761" lon="8.8190245"><ele>430.1428571428571</ele><time>2026-04-23T09:09:19.651Z</time></trkpt><trkpt lat="39.816653" lon="8.8189462"><ele>429.8571428571429</ele><time>2026-04-23T09:09:20.653Z</time></trkpt><trkpt lat="39.81663" lon="8.818861"><ele>429.57142857142856</ele><time>2026-04-23T09:09:21.657Z</time></trkpt><trkpt lat="39.8166293" lon="8.8187701"><ele>429.2857142857143</ele><time>2026-04-23T09:09:22.647Z</time></trkpt><trkpt lat="39.816638" lon="8.8186622"><ele>429.0</ele><time>2026-04-23T09:09:23.651Z</time></trkpt><trkpt lat="39.8166479" lon="8.8185786"><ele>429.0</ele><time>2026-04-23T09:09:24.644Z</time></trkpt><trkpt lat="39.8166785" lon="8.8185044"><ele>429.0</ele><time>2026-04-23T09:09:25.645Z</time></trkpt><trkpt lat="39.8167653" lon="8.8183642"><ele>429.0</ele><time>2026-04-23T09:09:27.65Z</time></trkpt><trkpt lat="39.8168243" lon="8.8182759"><ele>429.0</ele><time>2026-04-23T09:09:28.641Z</time></trkpt><trkpt lat="39.8168862" lon="8.8181757"><ele>429.0</ele><time>2026-04-23T09:09:29.638Z</time></trkpt><trkpt lat="39.8169253" lon="8.818068"><ele>429.79999999999995</ele><time>2026-04-23T09:09:30.639Z</time></trkpt><trkpt lat="39.8169529" lon="8.8179443"><ele>430.59999999999997</ele><time>2026-04-23T09:09:31.645Z</time></trkpt><trkpt lat="39.8169704" lon="8.8178078"><ele>431.4</ele><time>2026-04-23T09:09:32.647Z</time></trkpt><trkpt lat="39.8169883" lon="8.8176763"><ele>432.2</ele><time>2026-04-23T09:09:33.642Z</time></trkpt><trkpt lat="39.8169948" lon="8.8175377"><ele>433.0</ele><time>2026-04-23T09:09:34.654Z</time></trkpt><trkpt lat="39.8169889" lon="8.8174161"><ele>433.0</ele><time>2026-04-23T09:09:35.646Z</time></trkpt><trkpt lat="39.8169859" lon="8.8173092"><ele>432.99999999999994</ele><time>2026-04-23T09:09:36.653Z</time></trkpt><trkpt lat="39.8169994" lon="8.8171969"><ele>432.99999999999994</ele><time>2026-04-23T09:09:37.644Z</time></trkpt><trkpt lat="39.8170275" lon="8.8170742"><ele>433.0</ele><time>2026-04-23T09:09:38.644Z</time></trkpt><trkpt lat="39.8170612" lon="8.816935"><ele>433.0</ele><time>2026-04-23T09:09:39.644Z</time></trkpt><trkpt lat="39.8170963" lon="8.816791"><ele>432.59999999999997</ele><time>2026-04-23T09:09:40.649Z</time></trkpt><trkpt lat="39.8171232" lon="8.8166446"><ele>432.19999999999993</ele><time>2026-04-23T09:09:41.641Z</time></trkpt><trkpt lat="39.8171392" lon="8.8165065"><ele>431.8</ele><time>2026-04-23T09:09:42.649Z</time></trkpt><trkpt lat="39.8171466" lon="8.8163852"><ele>431.4</ele><time>2026-04-23T09:09:43.647Z</time></trkpt><trkpt lat="39.8171475" lon="8.8162619"><ele>431.0</ele><time>2026-04-23T09:09:44.654Z</time></trkpt><trkpt lat="39.8171607" lon="8.8161516"><ele>430.99999999999994</ele><time>2026-04-23T09:09:45.649Z</time></trkpt><trkpt lat="39.8171631" lon="8.8160427"><ele>431.0</ele><time>2026-04-23T09:09:46.657Z</time></trkpt><trkpt lat="39.8171619" lon="8.8159267"><ele>431.0</ele><time>2026-04-23T09:09:47.645Z</time></trkpt><trkpt lat="39.8171579" lon="8.8158111"><ele>431.0</ele><time>2026-04-23T09:09:48.652Z</time></trkpt><trkpt lat="39.8171428" lon="8.8156918"><ele>430.99999999999994</ele><time>2026-04-23T09:09:49.649Z</time></trkpt><trkpt lat="39.8171307" lon="8.8155739"><ele>431.0</ele><time>2026-04-23T09:09:50.651Z</time></trkpt><trkpt lat="39.817125" lon="8.8154591"><ele>431.16666666666663</ele><time>2026-04-23T09:09:51.648Z</time></trkpt><trkpt lat="39.8171139" lon="8.815357"><ele>431.3333333333333</ele><time>2026-04-23T09:09:52.653Z</time></trkpt><trkpt lat="39.8171137" lon="8.8152566"><ele>431.5</ele><time>2026-04-23T09:09:53.646Z</time></trkpt><trkpt lat="39.8171142" lon="8.8151482"><ele>431.66666666666663</ele><time>2026-04-23T09:09:54.646Z</time></trkpt><trkpt lat="39.8171159" lon="8.815036"><ele>431.8333333333333</ele><time>2026-04-23T09:09:55.655Z</time></trkpt><trkpt lat="39.8171282" lon="8.814908"><ele>432.0</ele><time>2026-04-23T09:09:56.651Z</time></trkpt><trkpt lat="39.8171373" lon="8.8147663"><ele>432.0</ele><time>2026-04-23T09:09:57.657Z</time></trkpt><trkpt lat="39.8171393" lon="8.8146087"><ele>432.00000000000006</ele><time>2026-04-23T09:09:58.649Z</time></trkpt><trkpt lat="39.8171593" lon="8.8144603"><ele>432.00000000000006</ele><time>2026-04-23T09:09:59.655Z</time></trkpt><trkpt lat="39.8171683" lon="8.8143196"><ele>432.0</ele><time>2026-04-23T09:10:00.657Z</time></trkpt><trkpt lat="39.8171727" lon="8.8141923"><ele>432.0</ele><time>2026-04-23T09:10:01.656Z</time></trkpt><trkpt lat="39.8171871" lon="8.8140627"><ele>431.6666666666667</ele><time>2026-04-23T09:10:02.659Z</time></trkpt><trkpt lat="39.8172012" lon="8.8139328"><ele>431.33333333333337</ele><time>2026-04-23T09:10:03.654Z</time></trkpt><trkpt lat="39.8172235" lon="8.8138166"><ele>431.0</ele><time>2026-04-23T09:10:04.651Z</time></trkpt><trkpt lat="39.8172456" lon="8.8137124"><ele>430.6666666666667</ele><time>2026-04-23T09:10:05.657Z</time></trkpt><trkpt lat="39.817248" lon="8.813613"><ele>430.33333333333337</ele><time>2026-04-23T09:10:06.649Z</time></trkpt><trkpt lat="39.8172529" lon="8.813521"><ele>430.0</ele><time>2026-04-23T09:10:07.651Z</time></trkpt><trkpt lat="39.8172514" lon="8.8134197"><ele>430.0</ele><time>2026-04-23T09:10:08.648Z</time></trkpt><trkpt lat="39.8172645" lon="8.8133046"><ele>430.0</ele><time>2026-04-23T09:10:09.651Z</time></trkpt><trkpt lat="39.8172632" lon="8.8131852"><ele>430.0</ele><time>2026-04-23T09:10:10.653Z</time></trkpt><trkpt lat="39.8172649" lon="8.8130661"><ele>430.0</ele><time>2026-04-23T09:10:11.649Z</time></trkpt><trkpt lat="39.8172657" lon="8.8129362"><ele>430.0</ele><time>2026-04-23T09:10:12.648Z</time></trkpt><trkpt lat="39.8172639" lon="8.8127933"><ele>430.25</ele><time>2026-04-23T09:10:13.657Z</time></trkpt><trkpt lat="39.8172558" lon="8.8126406"><ele>430.5</ele><time>2026-04-23T09:10:14.654Z</time></trkpt><trkpt lat="39.8172581" lon="8.8124863"><ele>430.75</ele><time>2026-04-23T09:10:15.659Z</time></trkpt><trkpt lat="39.8172476" lon="8.8123264"><ele>431.0</ele><time>2026-04-23T09:10:16.658Z</time></trkpt><trkpt lat="39.8172472" lon="8.8121604"><ele>431.0</ele><time>2026-04-23T09:10:17.653Z</time></trkpt><trkpt lat="39.8172486" lon="8.8120005"><ele>431.0</ele><time>2026-04-23T09:10:18.659Z</time></trkpt><trkpt lat="39.8172497" lon="8.8118617"><ele>431.0</ele><time>2026-04-23T09:10:19.653Z</time></trkpt><trkpt lat="39.8172471" lon="8.8117333"><ele>431.0</ele><time>2026-04-23T09:10:20.658Z</time></trkpt><trkpt lat="39.8172501" lon="8.8116243"><ele>431.0</ele><time>2026-04-23T09:10:21.654Z</time></trkpt><trkpt lat="39.8172593" lon="8.8115217"><ele>430.8</ele><time>2026-04-23T09:10:22.655Z</time></trkpt><trkpt lat="39.8172704" lon="8.811406"><ele>430.6</ele><time>2026-04-23T09:10:23.651Z</time></trkpt><trkpt lat="39.8172787" lon="8.8112909"><ele>430.4</ele><time>2026-04-23T09:10:24.645Z</time></trkpt><trkpt lat="39.8172903" lon="8.8111746"><ele>430.2</ele><time>2026-04-23T09:10:25.648Z</time></trkpt><trkpt lat="39.8173009" lon="8.8110518"><ele>430.0</ele><time>2026-04-23T09:10:26.654Z</time></trkpt><trkpt lat="39.8173134" lon="8.8109261"><ele>430.33333333333337</ele><time>2026-04-23T09:10:27.645Z</time></trkpt><trkpt lat="39.8173212" lon="8.8108124"><ele>430.6666666666667</ele><time>2026-04-23T09:10:28.649Z</time></trkpt><trkpt lat="39.8173337" lon="8.8106978"><ele>431.0</ele><time>2026-04-23T09:10:29.65Z</time></trkpt><trkpt lat="39.8173487" lon="8.8105856"><ele>431.33333333333337</ele><time>2026-04-23T09:10:30.652Z</time></trkpt><trkpt lat="39.8173675" lon="8.8104829"><ele>431.6666666666667</ele><time>2026-04-23T09:10:31.646Z</time></trkpt><trkpt lat="39.8173913" lon="8.8103918"><ele>432.0</ele><time>2026-04-23T09:10:32.651Z</time></trkpt><trkpt lat="39.817425" lon="8.8103024"><ele>432.0</ele><time>2026-04-23T09:10:33.643Z</time></trkpt><trkpt lat="39.8174547" lon="8.8102005"><ele>432.0</ele><time>2026-04-23T09:10:34.643Z</time></trkpt><trkpt lat="39.8174908" lon="8.8101051"><ele>432.0</ele><time>2026-04-23T09:10:35.635Z</time></trkpt><trkpt lat="39.8175036" lon="8.8100057"><ele>432.0</ele><time>2026-04-23T09:10:36.639Z</time></trkpt><trkpt lat="39.8175101" lon="8.8099122"><ele>432.0</ele><time>2026-04-23T09:10:37.641Z</time></trkpt><trkpt lat="39.8175164" lon="8.8097459"><ele>432.0</ele><time>2026-04-23T09:10:39.647Z</time></trkpt><trkpt lat="39.8175156" lon="8.8096083"><ele>432.0</ele><time>2026-04-23T09:10:41.645Z</time></trkpt><trkpt lat="39.81749" lon="8.8094789"><ele>432.0</ele><time>2026-04-23T09:10:43.64Z</time></trkpt><trkpt lat="39.8174454" lon="8.8093735"><ele>432.0</ele><time>2026-04-23T09:10:45.637Z</time></trkpt><trkpt lat="39.8173794" lon="8.8093052"><ele>432.0</ele><time>2026-04-23T09:10:46.653Z</time></trkpt><trkpt lat="39.8173173" lon="8.8092429"><ele>432.0</ele><time>2026-04-23T09:10:47.645Z</time></trkpt><trkpt lat="39.8172614" lon="8.8091816"><ele>432.0</ele><time>2026-04-23T09:10:48.647Z</time></trkpt><trkpt lat="39.817219" lon="8.8091047"><ele>432.0</ele><time>2026-04-23T09:10:49.646Z</time></trkpt><trkpt lat="39.8171937" lon="8.8090163"><ele>432.0</ele><time>2026-04-23T09:10:50.651Z</time></trkpt><trkpt lat="39.8171804" lon="8.808926"><ele>432.0</ele><time>2026-04-23T09:10:51.654Z</time></trkpt><trkpt lat="39.8171804" lon="8.8088241"><ele>432.0</ele><time>2026-04-23T09:10:52.648Z</time></trkpt><trkpt lat="39.8171934" lon="8.8087033"><ele>432.0</ele><time>2026-04-23T09:10:53.647Z</time></trkpt><trkpt lat="39.8172079" lon="8.8085766"><ele>432.0</ele><time>2026-04-23T09:10:54.652Z</time></trkpt><trkpt lat="39.8172289" lon="8.8084423"><ele>432.20000000000005</ele><time>2026-04-23T09:10:55.649Z</time></trkpt><trkpt lat="39.8172436" lon="8.80831"><ele>432.40000000000003</ele><time>2026-04-23T09:10:56.658Z</time></trkpt><trkpt lat="39.8172534" lon="8.8081843"><ele>432.59999999999997</ele><time>2026-04-23T09:10:57.656Z</time></trkpt><trkpt lat="39.8172653" lon="8.8080656"><ele>432.79999999999995</ele><time>2026-04-23T09:10:58.66Z</time></trkpt><trkpt lat="39.8172763" lon="8.8079382"><ele>433.0</ele><time>2026-04-23T09:10:59.648Z</time></trkpt><trkpt lat="39.8172878" lon="8.80781"><ele>433.0</ele><time>2026-04-23T09:11:00.653Z</time></trkpt><trkpt lat="39.8173023" lon="8.807679"><ele>432.99999999999994</ele><time>2026-04-23T09:11:01.655Z</time></trkpt><trkpt lat="39.8173058" lon="8.8075494"><ele>432.99999999999994</ele><time>2026-04-23T09:11:02.647Z</time></trkpt><trkpt lat="39.8173109" lon="8.8074273"><ele>433.0</ele><time>2026-04-23T09:11:03.649Z</time></trkpt><trkpt lat="39.8173285" lon="8.8073068"><ele>433.0</ele><time>2026-04-23T09:11:04.649Z</time></trkpt><trkpt lat="39.8173487" lon="8.80718"><ele>433.59999999999997</ele><time>2026-04-23T09:11:05.645Z</time></trkpt><trkpt lat="39.8173591" lon="8.8070482"><ele>434.19999999999993</ele><time>2026-04-23T09:11:06.647Z</time></trkpt><trkpt lat="39.8173608" lon="8.8069336"><ele>434.8</ele><time>2026-04-23T09:11:07.648Z</time></trkpt><trkpt lat="39.8173556" lon="8.8068263"><ele>435.4</ele><time>2026-04-23T09:11:08.64Z</time></trkpt><trkpt lat="39.8173525" lon="8.806696"><ele>436.0</ele><time>2026-04-23T09:11:09.643Z</time></trkpt><trkpt lat="39.8173383" lon="8.8065699"><ele>437.6</ele><time>2026-04-23T09:11:10.637Z</time></trkpt><trkpt lat="39.8173192" lon="8.8064526"><ele>439.20000000000005</ele><time>2026-04-23T09:11:11.641Z</time></trkpt><trkpt lat="39.8172966" lon="8.8063409"><ele>440.79999999999995</ele><time>2026-04-23T09:11:12.642Z</time></trkpt><trkpt lat="39.817274" lon="8.806225"><ele>442.4</ele><time>2026-04-23T09:11:13.649Z</time></trkpt><trkpt lat="39.817252" lon="8.8061114"><ele>444.0</ele><time>2026-04-23T09:11:14.643Z</time></trkpt><trkpt lat="39.8172188" lon="8.8059832"><ele>446.25</ele><time>2026-04-23T09:11:15.648Z</time></trkpt><trkpt lat="39.8171859" lon="8.8058472"><ele>448.5</ele><time>2026-04-23T09:11:16.645Z</time></trkpt><trkpt lat="39.8171609" lon="8.8057028"><ele>450.75</ele><time>2026-04-23T09:11:17.643Z</time></trkpt><trkpt lat="39.8171531" lon="8.80555"><ele>453.0</ele><time>2026-04-23T09:11:18.653Z</time></trkpt><trkpt lat="39.8171553" lon="8.8054077"><ele>453.0</ele><time>2026-04-23T09:11:19.645Z</time></trkpt><trkpt lat="39.8171566" lon="8.805267"><ele>452.99999999999994</ele><time>2026-04-23T09:11:20.646Z</time></trkpt><trkpt lat="39.8171623" lon="8.805135"><ele>452.99999999999994</ele><time>2026-04-23T09:11:21.649Z</time></trkpt><trkpt lat="39.8171673" lon="8.8050105"><ele>453.0</ele><time>2026-04-23T09:11:22.653Z</time></trkpt><trkpt lat="39.8171795" lon="8.8048845"><ele>453.0</ele><time>2026-04-23T09:11:23.655Z</time></trkpt><trkpt lat="39.8171953" lon="8.8047635"><ele>454.0</ele><time>2026-04-23T09:11:24.652Z</time></trkpt><trkpt lat="39.817225" lon="8.8046401"><ele>454.99999999999994</ele><time>2026-04-23T09:11:25.658Z</time></trkpt><trkpt lat="39.8172546" lon="8.804509"><ele>455.99999999999994</ele><time>2026-04-23T09:11:26.656Z</time></trkpt><trkpt lat="39.8172869" lon="8.8043868"><ele>457.0</ele><time>2026-04-23T09:11:27.658Z</time></trkpt><trkpt lat="39.8173255" lon="8.8042675"><ele>458.0</ele><time>2026-04-23T09:11:28.65Z</time></trkpt><trkpt lat="39.8173585" lon="8.8041557"><ele>458.3333333333333</ele><time>2026-04-23T09:11:29.647Z</time></trkpt><trkpt lat="39.817391" lon="8.8040446"><ele>458.66666666666663</ele><time>2026-04-23T09:11:30.649Z</time></trkpt><trkpt lat="39.8174259" lon="8.8039357"><ele>459.0</ele><time>2026-04-23T09:11:31.653Z</time></trkpt><trkpt lat="39.8174485" lon="8.8038255"><ele>459.33333333333337</ele><time>2026-04-23T09:11:32.651Z</time></trkpt><trkpt lat="39.8174747" lon="8.8037105"><ele>459.6666666666667</ele><time>2026-04-23T09:11:33.651Z</time></trkpt><trkpt lat="39.8175049" lon="8.8036115"><ele>460.0</ele><time>2026-04-23T09:11:34.644Z</time></trkpt><trkpt lat="39.8175327" lon="8.8035046"><ele>460.4</ele><time>2026-04-23T09:11:35.649Z</time></trkpt><trkpt lat="39.8175653" lon="8.803382"><ele>460.8</ele><time>2026-04-23T09:11:36.656Z</time></trkpt><trkpt lat="39.8176014" lon="8.8032531"><ele>461.20000000000005</ele><time>2026-04-23T09:11:37.651Z</time></trkpt><trkpt lat="39.8176376" lon="8.8031277"><ele>461.6</ele><time>2026-04-23T09:11:38.646Z</time></trkpt><trkpt lat="39.8176648" lon="8.8030063"><ele>462.0</ele><time>2026-04-23T09:11:39.651Z</time></trkpt><trkpt lat="39.817677" lon="8.8029022"><ele>462.0</ele><time>2026-04-23T09:11:40.648Z</time></trkpt><trkpt lat="39.8176716" lon="8.8027935"><ele>462.00000000000006</ele><time>2026-04-23T09:11:41.648Z</time></trkpt><trkpt lat="39.8176465" lon="8.8026838"><ele>462.00000000000006</ele><time>2026-04-23T09:11:42.647Z</time></trkpt><trkpt lat="39.8176294" lon="8.8025459"><ele>462.0</ele><time>2026-04-23T09:11:43.65Z</time></trkpt><trkpt lat="39.8176187" lon="8.8024085"><ele>462.0</ele><time>2026-04-23T09:11:44.653Z</time></trkpt><trkpt lat="39.8176203" lon="8.8022874"><ele>461.8</ele><time>2026-04-23T09:11:45.644Z</time></trkpt><trkpt lat="39.8176425" lon="8.802173"><ele>461.6</ele><time>2026-04-23T09:11:46.662Z</time></trkpt><trkpt lat="39.8176655" lon="8.8020524"><ele>461.40000000000003</ele><time>2026-04-23T09:11:47.65Z</time></trkpt><trkpt lat="39.8176953" lon="8.8019226"><ele>461.20000000000005</ele><time>2026-04-23T09:11:48.655Z</time></trkpt><trkpt lat="39.817722" lon="8.8017894"><ele>461.0</ele><time>2026-04-23T09:11:49.656Z</time></trkpt><trkpt lat="39.8177456" lon="8.801656"><ele>462.6</ele><time>2026-04-23T09:11:50.643Z</time></trkpt><trkpt lat="39.817756" lon="8.8015212"><ele>464.20000000000005</ele><time>2026-04-23T09:11:51.65Z</time></trkpt><trkpt lat="39.8177638" lon="8.8013902"><ele>465.79999999999995</ele><time>2026-04-23T09:11:52.659Z</time></trkpt><trkpt lat="39.817771" lon="8.8012589"><ele>467.4</ele><time>2026-04-23T09:11:53.651Z</time></trkpt><trkpt lat="39.8177735" lon="8.8011219"><ele>469.0</ele><time>2026-04-23T09:11:54.644Z</time></trkpt><trkpt lat="39.8177738" lon="8.8009795"><ele>469.1666666666667</ele><time>2026-04-23T09:11:55.641Z</time></trkpt><trkpt lat="39.8177766" lon="8.8008545"><ele>469.33333333333337</ele><time>2026-04-23T09:11:56.652Z</time></trkpt><trkpt lat="39.8177676" lon="8.8007407"><ele>469.5</ele><time>2026-04-23T09:11:57.649Z</time></trkpt><trkpt lat="39.8177398" lon="8.8006531"><ele>469.66666666666663</ele><time>2026-04-23T09:11:58.649Z</time></trkpt><trkpt lat="39.8177159" lon="8.800557"><ele>469.8333333333333</ele><time>2026-04-23T09:11:59.652Z</time></trkpt><trkpt lat="39.8176895" lon="8.8004555"><ele>470.0</ele><time>2026-04-23T09:12:00.647Z</time></trkpt><trkpt lat="39.8176662" lon="8.8003678"><ele>469.99999999999994</ele><time>2026-04-23T09:12:01.645Z</time></trkpt><trkpt lat="39.8176528" lon="8.8002762"><ele>470.0</ele><time>2026-04-23T09:12:02.648Z</time></trkpt><trkpt lat="39.8176487" lon="8.8001797"><ele>470.0</ele><time>2026-04-23T09:12:03.657Z</time></trkpt><trkpt lat="39.817654" lon="8.8000798"><ele>470.0</ele><time>2026-04-23T09:12:04.655Z</time></trkpt><trkpt lat="39.8176633" lon="8.7999678"><ele>469.99999999999994</ele><time>2026-04-23T09:12:05.654Z</time></trkpt><trkpt lat="39.8176812" lon="8.7998506"><ele>470.0</ele><time>2026-04-23T09:12:06.65Z</time></trkpt><trkpt lat="39.8176887" lon="8.7997375"><ele>470.6</ele><time>2026-04-23T09:12:07.656Z</time></trkpt><trkpt lat="39.8176882" lon="8.7996323"><ele>471.2</ele><time>2026-04-23T09:12:08.656Z</time></trkpt><trkpt lat="39.8176855" lon="8.7995222"><ele>471.79999999999995</ele><time>2026-04-23T09:12:09.646Z</time></trkpt><trkpt lat="39.8176888" lon="8.799394"><ele>472.4</ele><time>2026-04-23T09:12:10.653Z</time></trkpt><trkpt lat="39.8176831" lon="8.7992618"><ele>473.0</ele><time>2026-04-23T09:12:11.65Z</time></trkpt><trkpt lat="39.8176768" lon="8.7991517"><ele>473.57142857142856</ele><time>2026-04-23T09:12:12.654Z</time></trkpt><trkpt lat="39.8176784" lon="8.7990524"><ele>474.1428571428571</ele><time>2026-04-23T09:12:13.649Z</time></trkpt><trkpt lat="39.8176673" lon="8.7989554"><ele>474.71428571428567</ele><time>2026-04-23T09:12:14.658Z</time></trkpt><trkpt lat="39.8176556" lon="8.7988647"><ele>475.2857142857143</ele><time>2026-04-23T09:12:15.648Z</time></trkpt><trkpt lat="39.8176344" lon="8.7987752"><ele>475.8571428571428</ele><time>2026-04-23T09:12:16.648Z</time></trkpt><trkpt lat="39.8176078" lon="8.7986886"><ele>476.4285714285714</ele><time>2026-04-23T09:12:17.651Z</time></trkpt><trkpt lat="39.8175726" lon="8.7985997"><ele>477.0</ele><time>2026-04-23T09:12:18.651Z</time></trkpt><trkpt lat="39.8175261" lon="8.7985076"><ele>476.0</ele><time>2026-04-23T09:12:19.653Z</time></trkpt><trkpt lat="39.8174852" lon="8.7984145"><ele>475.0</ele><time>2026-04-23T09:12:20.641Z</time></trkpt><trkpt lat="39.8174403" lon="8.7983169"><ele>474.0</ele><time>2026-04-23T09:12:21.648Z</time></trkpt><trkpt lat="39.8174018" lon="8.7982198"><ele>473.0</ele><time>2026-04-23T09:12:22.65Z</time></trkpt><trkpt lat="39.8173632" lon="8.7981172"><ele>472.0</ele><time>2026-04-23T09:12:23.647Z</time></trkpt><trkpt lat="39.8173235" lon="8.7980148"><ele>471.0</ele><time>2026-04-23T09:12:24.644Z</time></trkpt><trkpt lat="39.8172795" lon="8.7979129"><ele>471.0</ele><time>2026-04-23T09:12:25.651Z</time></trkpt><trkpt lat="39.8172285" lon="8.7978162"><ele>471.0</ele><time>2026-04-23T09:12:26.661Z</time></trkpt><trkpt lat="39.8171844" lon="8.7977244"><ele>471.0</ele><time>2026-04-23T09:12:27.658Z</time></trkpt><trkpt lat="39.8171414" lon="8.7976256"><ele>471.0</ele><time>2026-04-23T09:12:28.657Z</time></trkpt><trkpt lat="39.8171018" lon="8.7975303"><ele>471.0</ele><time>2026-04-23T09:12:29.647Z</time></trkpt><trkpt lat="39.8170856" lon="8.7974387"><ele>471.0</ele><time>2026-04-23T09:12:30.648Z</time></trkpt><trkpt lat="39.8170721" lon="8.7973468"><ele>471.8571428571429</ele><time>2026-04-23T09:12:31.652Z</time></trkpt><trkpt lat="39.817065" lon="8.7972563"><ele>472.7142857142857</ele><time>2026-04-23T09:12:32.653Z</time></trkpt><trkpt lat="39.8170535" lon="8.7971631"><ele>473.57142857142856</ele><time>2026-04-23T09:12:33.643Z</time></trkpt><trkpt lat="39.8170392" lon="8.797061"><ele>474.42857142857144</ele><time>2026-04-23T09:12:34.65Z</time></trkpt><trkpt lat="39.8170215" lon="8.7969576"><ele>475.2857142857142</ele><time>2026-04-23T09:12:35.651Z</time></trkpt><trkpt lat="39.8169946" lon="8.796863"><ele>476.1428571428571</ele><time>2026-04-23T09:12:36.657Z</time></trkpt><trkpt lat="39.8169833" lon="8.7967758"><ele>477.0</ele><time>2026-04-23T09:12:37.654Z</time></trkpt><trkpt lat="39.8169851" lon="8.796648"><ele>477.5</ele><time>2026-04-23T09:12:39.65Z</time></trkpt><trkpt lat="39.8170103" lon="8.796541"><ele>478.0</ele><time>2026-04-23T09:12:42.663Z</time></trkpt><trkpt lat="39.8170232" lon="8.7964508"><ele>478.5</ele><time>2026-04-23T09:12:44.646Z</time></trkpt><trkpt lat="39.8170204" lon="8.7962652"><ele>479.0</ele><time>2026-04-23T09:12:46.641Z</time></trkpt><trkpt lat="39.817026" lon="8.7961674"><ele>479.5</ele><time>2026-04-23T09:12:47.655Z</time></trkpt><trkpt lat="39.8170195" lon="8.7960721"><ele>480.0</ele><time>2026-04-23T09:12:48.645Z</time></trkpt><trkpt lat="39.8169928" lon="8.795915"><ele>480.6</ele><time>2026-04-23T09:12:50.642Z</time></trkpt><trkpt lat="39.8169507" lon="8.7957613"><ele>481.2</ele><time>2026-04-23T09:12:52.653Z</time></trkpt><trkpt lat="39.8168804" lon="8.7956433"><ele>481.79999999999995</ele><time>2026-04-23T09:12:54.648Z</time></trkpt><trkpt lat="39.8168303" lon="8.7955814"><ele>482.4</ele><time>2026-04-23T09:13:50.642Z</time></trkpt><trkpt lat="39.8167457" lon="8.7954868"><ele>483.0</ele><time>2026-04-23T09:13:52.647Z</time></trkpt><trkpt lat="39.8166578" lon="8.7954254"><ele>482.1666666666667</ele><time>2026-04-23T09:13:53.645Z</time></trkpt><trkpt lat="39.816583" lon="8.7953606"><ele>481.33333333333337</ele><time>2026-04-23T09:13:54.654Z</time></trkpt><trkpt lat="39.8165054" lon="8.7952937"><ele>480.5</ele><time>2026-04-23T09:13:55.646Z</time></trkpt><trkpt lat="39.8164396" lon="8.795223"><ele>479.6666666666667</ele><time>2026-04-23T09:13:56.65Z</time></trkpt><trkpt lat="39.816379" lon="8.795152"><ele>478.83333333333337</ele><time>2026-04-23T09:13:57.648Z</time></trkpt><trkpt lat="39.8163163" lon="8.7950901"><ele>478.0</ele><time>2026-04-23T09:13:58.65Z</time></trkpt><trkpt lat="39.8162506" lon="8.7950326"><ele>478.00000000000006</ele><time>2026-04-23T09:13:59.645Z</time></trkpt><trkpt lat="39.8162027" lon="8.7949729"><ele>478.0</ele><time>2026-04-23T09:14:00.654Z</time></trkpt><trkpt lat="39.8161373" lon="8.7948347"><ele>478.0</ele><time>2026-04-23T09:14:02.649Z</time></trkpt><trkpt lat="39.8161042" lon="8.7947519"><ele>478.0</ele><time>2026-04-23T09:14:03.652Z</time></trkpt><trkpt lat="39.8160822" lon="8.7946679"><ele>478.00000000000006</ele><time>2026-04-23T09:14:04.649Z</time></trkpt><trkpt lat="39.8160553" lon="8.7945842"><ele>478.0</ele><time>2026-04-23T09:14:05.649Z</time></trkpt><trkpt lat="39.8160256" lon="8.7944975"><ele>478.00000000000006</ele><time>2026-04-23T09:14:06.647Z</time></trkpt><trkpt lat="39.8159874" lon="8.7944094"><ele>478.0</ele><time>2026-04-23T09:14:07.648Z</time></trkpt><trkpt lat="39.8159596" lon="8.7943228"><ele>478.00000000000006</ele><time>2026-04-23T09:14:08.647Z</time></trkpt><trkpt lat="39.8159211" lon="8.7942315"><ele>478.00000000000006</ele><time>2026-04-23T09:14:09.645Z</time></trkpt><trkpt lat="39.8158838" lon="8.7941434"><ele>478.0</ele><time>2026-04-23T09:14:10.649Z</time></trkpt><trkpt lat="39.8158508" lon="8.794057"><ele>478.00000000000006</ele><time>2026-04-23T09:14:11.649Z</time></trkpt><trkpt lat="39.8158298" lon="8.7939795"><ele>478.00000000000006</ele><time>2026-04-23T09:14:12.654Z</time></trkpt><trkpt lat="39.815802" lon="8.7938974"><ele>476.33333333333337</ele><time>2026-04-23T09:14:13.643Z</time></trkpt><trkpt lat="39.8157794" lon="8.7938148"><ele>474.6666666666667</ele><time>2026-04-23T09:14:14.65Z</time></trkpt><trkpt lat="39.8157576" lon="8.7937306"><ele>473.0</ele><time>2026-04-23T09:14:15.655Z</time></trkpt><trkpt lat="39.8157333" lon="8.7935771"><ele>471.33333333333337</ele><time>2026-04-23T09:14:17.652Z</time></trkpt><trkpt lat="39.8157308" lon="8.7934876"><ele>469.6666666666667</ele><time>2026-04-23T09:14:18.653Z</time></trkpt><trkpt lat="39.8157364" lon="8.7933444"><ele>468.0</ele><time>2026-04-23T09:14:20.65Z</time></trkpt><trkpt lat="39.8158144" lon="8.7932515"><ele>468.0</ele><time>2026-04-23T09:14:22.656Z</time></trkpt><trkpt lat="39.815932" lon="8.7931933"><ele>468.0</ele><time>2026-04-23T09:14:24.652Z</time></trkpt><trkpt lat="39.8159918" lon="8.7931614"><ele>468.0</ele><time>2026-04-23T09:14:25.652Z</time></trkpt><trkpt lat="39.8160668" lon="8.7931272"><ele>468.0</ele><time>2026-04-23T09:14:26.653Z</time></trkpt><trkpt lat="39.8161364" lon="8.7930888"><ele>468.0</ele><time>2026-04-23T09:14:27.655Z</time></trkpt><trkpt lat="39.8162115" lon="8.7930452"><ele>468.0</ele><time>2026-04-23T09:14:28.652Z</time></trkpt><trkpt lat="39.8162835" lon="8.7930042"><ele>471.0</ele><time>2026-04-23T09:14:29.655Z</time></trkpt><trkpt lat="39.8163565" lon="8.7929577"><ele>473.99999999999994</ele><time>2026-04-23T09:14:30.647Z</time></trkpt><trkpt lat="39.8164154" lon="8.7929238"><ele>476.99999999999994</ele><time>2026-04-23T09:14:31.658Z</time></trkpt><trkpt lat="39.8165364" lon="8.7928383"><ele>480.0</ele><time>2026-04-23T09:14:33.654Z</time></trkpt><trkpt lat="39.8166125" lon="8.7927748"><ele>483.0</ele><time>2026-04-23T09:14:34.652Z</time></trkpt><trkpt lat="39.8166672" lon="8.7926905"><ele>483.4</ele><time>2026-04-23T09:14:35.641Z</time></trkpt><trkpt lat="39.8167412" lon="8.7925873"><ele>483.79999999999995</ele><time>2026-04-23T09:14:36.651Z</time></trkpt><trkpt lat="39.8168218" lon="8.792486"><ele>484.2</ele><time>2026-04-23T09:14:37.65Z</time></trkpt><trkpt lat="39.8168921" lon="8.792384"><ele>484.6</ele><time>2026-04-23T09:14:38.649Z</time></trkpt><trkpt lat="39.8169536" lon="8.7922873"><ele>485.0</ele><time>2026-04-23T09:14:39.643Z</time></trkpt><trkpt lat="39.8170039" lon="8.7921963"><ele>485.0</ele><time>2026-04-23T09:14:40.646Z</time></trkpt><trkpt lat="39.8170357" lon="8.7920879"><ele>485.0</ele><time>2026-04-23T09:14:41.646Z</time></trkpt><trkpt lat="39.8170597" lon="8.7919641"><ele>485.0</ele><time>2026-04-23T09:14:42.648Z</time></trkpt><trkpt lat="39.8170701" lon="8.7918346"><ele>485.0</ele><time>2026-04-23T09:14:43.657Z</time></trkpt><trkpt lat="39.8170938" lon="8.7917065"><ele>485.0</ele><time>2026-04-23T09:14:44.648Z</time></trkpt><trkpt lat="39.8171299" lon="8.7915816"><ele>484.0</ele><time>2026-04-23T09:14:45.664Z</time></trkpt><trkpt lat="39.8171613" lon="8.7914764"><ele>483.0</ele><time>2026-04-23T09:14:46.661Z</time></trkpt><trkpt lat="39.8172125" lon="8.7913663"><ele>482.0</ele><time>2026-04-23T09:14:47.668Z</time></trkpt><trkpt lat="39.8172589" lon="8.7912619"><ele>481.0</ele><time>2026-04-23T09:14:48.661Z</time></trkpt><trkpt lat="39.8173171" lon="8.7911552"><ele>480.0</ele><time>2026-04-23T09:14:49.66Z</time></trkpt><trkpt lat="39.8173801" lon="8.7910524"><ele>480.5</ele><time>2026-04-23T09:14:50.661Z</time></trkpt><trkpt lat="39.8174418" lon="8.7909586"><ele>481.0</ele><time>2026-04-23T09:14:51.659Z</time></trkpt><trkpt lat="39.8175039" lon="8.7908688"><ele>481.5</ele><time>2026-04-23T09:14:52.666Z</time></trkpt><trkpt lat="39.8175664" lon="8.7907948"><ele>482.0</ele><time>2026-04-23T09:14:53.654Z</time></trkpt><trkpt lat="39.8176326" lon="8.790733"><ele>482.5</ele><time>2026-04-23T09:14:54.661Z</time></trkpt><trkpt lat="39.8177051" lon="8.7906838"><ele>483.0</ele><time>2026-04-23T09:14:55.668Z</time></trkpt><trkpt lat="39.8177726" lon="8.7906452"><ele>483.0</ele><time>2026-04-23T09:14:56.665Z</time></trkpt><trkpt lat="39.817855" lon="8.790605"><ele>482.99999999999994</ele><time>2026-04-23T09:14:57.669Z</time></trkpt><trkpt lat="39.8179435" lon="8.7905572"><ele>482.99999999999994</ele><time>2026-04-23T09:14:58.659Z</time></trkpt><trkpt lat="39.8180295" lon="8.7905133"><ele>483.0</ele><time>2026-04-23T09:14:59.65Z</time></trkpt><trkpt lat="39.8181121" lon="8.7904648"><ele>483.0</ele><time>2026-04-23T09:15:00.652Z</time></trkpt><trkpt lat="39.8181897" lon="8.7904121"><ele>483.0</ele><time>2026-04-23T09:15:01.65Z</time></trkpt><trkpt lat="39.8182678" lon="8.7903587"><ele>482.99999999999994</ele><time>2026-04-23T09:15:02.656Z</time></trkpt><trkpt lat="39.8183509" lon="8.7902801"><ele>482.99999999999994</ele><time>2026-04-23T09:15:03.647Z</time></trkpt><trkpt lat="39.8184217" lon="8.7901776"><ele>483.0</ele><time>2026-04-23T09:15:04.648Z</time></trkpt><trkpt lat="39.8184834" lon="8.7900748"><ele>483.0</ele><time>2026-04-23T09:15:05.657Z</time></trkpt><trkpt lat="39.8185625" lon="8.78997"><ele>483.79999999999995</ele><time>2026-04-23T09:15:06.655Z</time></trkpt><trkpt lat="39.8186297" lon="8.7898767"><ele>484.59999999999997</ele><time>2026-04-23T09:15:07.652Z</time></trkpt><trkpt lat="39.8187072" lon="8.7897878"><ele>485.40000000000003</ele><time>2026-04-23T09:15:08.652Z</time></trkpt><trkpt lat="39.8187677" lon="8.7897045"><ele>486.20000000000005</ele><time>2026-04-23T09:15:09.645Z</time></trkpt><trkpt lat="39.8188261" lon="8.7896258"><ele>487.0</ele><time>2026-04-23T09:15:10.648Z</time></trkpt><trkpt lat="39.8188757" lon="8.7895312"><ele>487.00000000000006</ele><time>2026-04-23T09:15:11.654Z</time></trkpt><trkpt lat="39.818925" lon="8.7894632"><ele>487.0</ele><time>2026-04-23T09:15:12.65Z</time></trkpt><trkpt lat="39.8189706" lon="8.7894012"><ele>487.0</ele><time>2026-04-23T09:15:13.65Z</time></trkpt><trkpt lat="39.8190413" lon="8.7893537"><ele>487.0</ele><time>2026-04-23T09:15:14.655Z</time></trkpt><trkpt lat="39.8191192" lon="8.7893103"><ele>487.00000000000006</ele><time>2026-04-23T09:15:15.656Z</time></trkpt><trkpt lat="39.8191978" lon="8.7892826"><ele>487.0</ele><time>2026-04-23T09:15:16.652Z</time></trkpt><trkpt lat="39.819285" lon="8.7892504"><ele>487.33333333333337</ele><time>2026-04-23T09:15:17.655Z</time></trkpt><trkpt lat="39.8193673" lon="8.7892115"><ele>487.6666666666667</ele><time>2026-04-23T09:15:18.651Z</time></trkpt><trkpt lat="39.8194304" lon="8.7891557"><ele>488.0</ele><time>2026-04-23T09:15:19.648Z</time></trkpt><trkpt lat="39.8194836" lon="8.7890968"><ele>488.33333333333337</ele><time>2026-04-23T09:15:20.647Z</time></trkpt><trkpt lat="39.8195406" lon="8.789016"><ele>488.6666666666667</ele><time>2026-04-23T09:15:21.648Z</time></trkpt><trkpt lat="39.8195959" lon="8.7889195"><ele>489.0</ele><time>2026-04-23T09:15:22.651Z</time></trkpt><trkpt lat="39.8196647" lon="8.7888256"><ele>489.0</ele><time>2026-04-23T09:15:23.652Z</time></trkpt><trkpt lat="39.8197252" lon="8.7887415"><ele>489.0</ele><time>2026-04-23T09:15:24.656Z</time></trkpt><trkpt lat="39.8197871" lon="8.7886647"><ele>489.0</ele><time>2026-04-23T09:15:25.651Z</time></trkpt><trkpt lat="39.8198459" lon="8.7885811"><ele>489.0</ele><time>2026-04-23T09:15:26.657Z</time></trkpt><trkpt lat="39.819915" lon="8.7884875"><ele>489.0</ele><time>2026-04-23T09:15:27.655Z</time></trkpt><trkpt lat="39.8199648" lon="8.7883878"><ele>489.2</ele><time>2026-04-23T09:15:28.652Z</time></trkpt><trkpt lat="39.8200105" lon="8.7882837"><ele>489.4</ele><time>2026-04-23T09:15:29.655Z</time></trkpt><trkpt lat="39.8200439" lon="8.7881706"><ele>489.6</ele><time>2026-04-23T09:15:30.649Z</time></trkpt><trkpt lat="39.8200857" lon="8.7880612"><ele>489.8</ele><time>2026-04-23T09:15:31.655Z</time></trkpt><trkpt lat="39.8201294" lon="8.7879582"><ele>490.0</ele><time>2026-04-23T09:15:32.653Z</time></trkpt><trkpt lat="39.820181" lon="8.7878681"><ele>490.00000000000006</ele><time>2026-04-23T09:15:33.654Z</time></trkpt><trkpt lat="39.8202287" lon="8.7877849"><ele>490.0</ele><time>2026-04-23T09:15:34.648Z</time></trkpt><trkpt lat="39.8203075" lon="8.7877039"><ele>490.0</ele><time>2026-04-23T09:15:35.658Z</time></trkpt><trkpt lat="39.820388" lon="8.7876431"><ele>490.0</ele><time>2026-04-23T09:15:36.656Z</time></trkpt><trkpt lat="39.820442" lon="8.7875881"><ele>490.00000000000006</ele><time>2026-04-23T09:15:37.653Z</time></trkpt><trkpt lat="39.8204898" lon="8.7875182"><ele>490.0</ele><time>2026-04-23T09:15:38.647Z</time></trkpt><trkpt lat="39.820526" lon="8.7874215"><ele>489.8571428571429</ele><time>2026-04-23T09:15:39.652Z</time></trkpt><trkpt lat="39.8205571" lon="8.7873195"><ele>489.7142857142857</ele><time>2026-04-23T09:15:40.652Z</time></trkpt><trkpt lat="39.8205889" lon="8.7872219"><ele>489.57142857142856</ele><time>2026-04-23T09:15:41.655Z</time></trkpt><trkpt lat="39.8206122" lon="8.7871339"><ele>489.42857142857144</ele><time>2026-04-23T09:15:42.659Z</time></trkpt><trkpt lat="39.8206375" lon="8.7870502"><ele>489.28571428571433</ele><time>2026-04-23T09:15:43.653Z</time></trkpt><trkpt lat="39.8206447" lon="8.786964"><ele>489.14285714285717</ele><time>2026-04-23T09:15:44.659Z</time></trkpt><trkpt lat="39.8206306" lon="8.7868688"><ele>489.0</ele><time>2026-04-23T09:15:45.646Z</time></trkpt><trkpt lat="39.8205946" lon="8.7867753"><ele>488.8333333333333</ele><time>2026-04-23T09:15:46.655Z</time></trkpt><trkpt lat="39.8205559" lon="8.7866768"><ele>488.66666666666663</ele><time>2026-04-23T09:15:47.651Z</time></trkpt><trkpt lat="39.8205036" lon="8.7865927"><ele>488.5</ele><time>2026-04-23T09:15:48.658Z</time></trkpt><trkpt lat="39.820449" lon="8.7865124"><ele>488.3333333333333</ele><time>2026-04-23T09:15:49.65Z</time></trkpt><trkpt lat="39.8204028" lon="8.7864435"><ele>488.16666666666663</ele><time>2026-04-23T09:15:50.652Z</time></trkpt><trkpt lat="39.820321" lon="8.786348"><ele>488.0</ele><time>2026-04-23T09:15:52.65Z</time></trkpt><trkpt lat="39.8202115" lon="8.7862599"><ele>488.2</ele><time>2026-04-23T09:15:54.648Z</time></trkpt><trkpt lat="39.8201225" lon="8.7861725"><ele>488.4</ele><time>2026-04-23T09:15:56.65Z</time></trkpt><trkpt lat="39.8200182" lon="8.7861332"><ele>488.59999999999997</ele><time>2026-04-23T09:15:58.643Z</time></trkpt><trkpt lat="39.8199606" lon="8.7861"><ele>488.79999999999995</ele><time>2026-04-23T09:16:00.646Z</time></trkpt><trkpt lat="39.8200137" lon="8.7859507"><ele>489.0</ele><time>2026-04-23T09:16:03.639Z</time></trkpt><trkpt lat="39.8200741" lon="8.7858676"><ele>489.0</ele><time>2026-04-23T09:16:04.654Z</time></trkpt><trkpt lat="39.8201613" lon="8.7857543"><ele>489.0</ele><time>2026-04-23T09:16:05.641Z</time></trkpt><trkpt lat="39.8202635" lon="8.7856253"><ele>489.0</ele><time>2026-04-23T09:16:06.646Z</time></trkpt><trkpt lat="39.8203849" lon="8.7854841"><ele>489.0</ele><time>2026-04-23T09:16:07.65Z</time></trkpt><trkpt lat="39.8204769" lon="8.7853638"><ele>489.0</ele><time>2026-04-23T09:16:08.651Z</time></trkpt><trkpt lat="39.8205543" lon="8.7852454"><ele>489.0</ele><time>2026-04-23T09:16:09.654Z</time></trkpt><trkpt lat="39.8206547" lon="8.785119"><ele>489.0</ele><time>2026-04-23T09:16:10.65Z</time></trkpt><trkpt lat="39.8207542" lon="8.784987"><ele>489.0</ele><time>2026-04-23T09:16:11.643Z</time></trkpt><trkpt lat="39.8208541" lon="8.7848515"><ele>489.25</ele><time>2026-04-23T09:16:12.643Z</time></trkpt><trkpt lat="39.8209449" lon="8.7847277"><ele>489.5</ele><time>2026-04-23T09:16:13.647Z</time></trkpt><trkpt lat="39.8210413" lon="8.784614"><ele>489.75</ele><time>2026-04-23T09:16:14.643Z</time></trkpt><trkpt lat="39.8211328" lon="8.7844884"><ele>490.0</ele><time>2026-04-23T09:16:15.644Z</time></trkpt><trkpt lat="39.8212191" lon="8.7843713"><ele>489.5</ele><time>2026-04-23T09:16:16.647Z</time></trkpt><trkpt lat="39.8213101" lon="8.7842402"><ele>489.0</ele><time>2026-04-23T09:16:17.648Z</time></trkpt><trkpt lat="39.8213956" lon="8.7841047"><ele>488.5</ele><time>2026-04-23T09:16:18.646Z</time></trkpt><trkpt lat="39.8214782" lon="8.783976"><ele>488.0</ele><time>2026-04-23T09:16:19.647Z</time></trkpt><trkpt lat="39.8215551" lon="8.7838569"><ele>488.0</ele><time>2026-04-23T09:16:20.651Z</time></trkpt><trkpt lat="39.8216156" lon="8.7837424"><ele>488.0</ele><time>2026-04-23T09:16:21.656Z</time></trkpt><trkpt lat="39.8216929" lon="8.7836171"><ele>488.0</ele><time>2026-04-23T09:16:22.641Z</time></trkpt><trkpt lat="39.8217729" lon="8.7834796"><ele>488.0</ele><time>2026-04-23T09:16:23.641Z</time></trkpt><trkpt lat="39.8218367" lon="8.7833483"><ele>487.0</ele><time>2026-04-23T09:16:24.646Z</time></trkpt><trkpt lat="39.8219197" lon="8.7832126"><ele>486.0</ele><time>2026-04-23T09:16:25.645Z</time></trkpt><trkpt lat="39.8219982" lon="8.7830776"><ele>485.0</ele><time>2026-04-23T09:16:26.639Z</time></trkpt><trkpt lat="39.8220788" lon="8.7829612"><ele>484.0</ele><time>2026-04-23T09:16:27.645Z</time></trkpt><trkpt lat="39.8221633" lon="8.782847"><ele>484.0</ele><time>2026-04-23T09:16:28.635Z</time></trkpt><trkpt lat="39.8222464" lon="8.7827335"><ele>484.0</ele><time>2026-04-23T09:16:29.641Z</time></trkpt><trkpt lat="39.8223257" lon="8.7826335"><ele>484.0</ele><time>2026-04-23T09:16:30.634Z</time></trkpt><trkpt lat="39.822403" lon="8.7825399"><ele>484.0</ele><time>2026-04-23T09:16:31.635Z</time></trkpt><trkpt lat="39.8224837" lon="8.7824328"><ele>484.0</ele><time>2026-04-23T09:16:32.642Z</time></trkpt><trkpt lat="39.8225502" lon="8.7823287"><ele>484.0</ele><time>2026-04-23T09:16:33.639Z</time></trkpt><trkpt lat="39.8226119" lon="8.7822176"><ele>484.0</ele><time>2026-04-23T09:16:34.64Z</time></trkpt><trkpt lat="39.8226704" lon="8.7820968"><ele>484.0</ele><time>2026-04-23T09:16:35.647Z</time></trkpt><trkpt lat="39.8227298" lon="8.7819824"><ele>484.0</ele><time>2026-04-23T09:16:36.644Z</time></trkpt><trkpt lat="39.8227921" lon="8.7818639"><ele>486.25</ele><time>2026-04-23T09:16:37.643Z</time></trkpt><trkpt lat="39.8228633" lon="8.7817371"><ele>488.5</ele><time>2026-04-23T09:16:38.646Z</time></trkpt><trkpt lat="39.8229312" lon="8.7816162"><ele>490.75</ele><time>2026-04-23T09:16:39.647Z</time></trkpt><trkpt lat="39.8229948" lon="8.7814993"><ele>493.0</ele><time>2026-04-23T09:16:40.644Z</time></trkpt><trkpt lat="39.8230551" lon="8.7813758"><ele>493.0</ele><time>2026-04-23T09:16:41.645Z</time></trkpt><trkpt lat="39.8231172" lon="8.7812552"><ele>492.99999999999994</ele><time>2026-04-23T09:16:42.643Z</time></trkpt><trkpt lat="39.8231729" lon="8.7811272"><ele>492.99999999999994</ele><time>2026-04-23T09:16:43.638Z</time></trkpt><trkpt lat="39.8232182" lon="8.7809993"><ele>493.0</ele><time>2026-04-23T09:16:44.638Z</time></trkpt><trkpt lat="39.8232909" lon="8.7808808"><ele>493.0</ele><time>2026-04-23T09:16:45.638Z</time></trkpt><trkpt lat="39.8233683" lon="8.780769"><ele>494.59999999999997</ele><time>2026-04-23T09:16:46.639Z</time></trkpt><trkpt lat="39.8234514" lon="8.7806597"><ele>496.19999999999993</ele><time>2026-04-23T09:16:47.638Z</time></trkpt><trkpt lat="39.823529" lon="8.7805602"><ele>497.8</ele><time>2026-04-23T09:16:48.631Z</time></trkpt><trkpt lat="39.8236031" lon="8.7804582"><ele>499.4</ele><time>2026-04-23T09:16:49.63Z</time></trkpt><trkpt lat="39.8236705" lon="8.7803722"><ele>501.0</ele><time>2026-04-23T09:16:50.636Z</time></trkpt><trkpt lat="39.8236976" lon="8.7802816"><ele>502.0</ele><time>2026-04-23T09:16:51.631Z</time></trkpt><trkpt lat="39.823708" lon="8.7801613"><ele>503.0</ele><time>2026-04-23T09:16:52.636Z</time></trkpt><trkpt lat="39.8237038" lon="8.7800522"><ele>504.0</ele><time>2026-04-23T09:16:53.642Z</time></trkpt><trkpt lat="39.823713" lon="8.7799431"><ele>505.0</ele><time>2026-04-23T09:16:54.63Z</time></trkpt><trkpt lat="39.8237433" lon="8.7798262"><ele>506.0</ele><time>2026-04-23T09:16:55.638Z</time></trkpt><trkpt lat="39.8237423" lon="8.7797123"><ele>507.0</ele><time>2026-04-23T09:16:56.637Z</time></trkpt><trkpt lat="39.8237637" lon="8.7795769"><ele>507.0</ele><time>2026-04-23T09:16:57.639Z</time></trkpt><trkpt lat="39.8237556" lon="8.7794435"><ele>507.00000000000006</ele><time>2026-04-23T09:16:58.646Z</time></trkpt><trkpt lat="39.8237456" lon="8.7793076"><ele>507.00000000000006</ele><time>2026-04-23T09:16:59.639Z</time></trkpt><trkpt lat="39.8237379" lon="8.7791622"><ele>507.0</ele><time>2026-04-23T09:17:00.639Z</time></trkpt><trkpt lat="39.823705" lon="8.779031"><ele>507.0</ele><time>2026-04-23T09:17:01.638Z</time></trkpt><trkpt lat="39.8236465" lon="8.7789"><ele>508.0</ele><time>2026-04-23T09:17:02.64Z</time></trkpt><trkpt lat="39.8235683" lon="8.778756"><ele>509.0</ele><time>2026-04-23T09:17:03.636Z</time></trkpt><trkpt lat="39.8234914" lon="8.7786196"><ele>510.0</ele><time>2026-04-23T09:17:04.628Z</time></trkpt><trkpt lat="39.8234141" lon="8.7784804"><ele>511.0</ele><time>2026-04-23T09:17:05.638Z</time></trkpt><trkpt lat="39.8233298" lon="8.7783502"><ele>513.0</ele><time>2026-04-23T09:17:06.636Z</time></trkpt><trkpt lat="39.82326" lon="8.7782013"><ele>515.0</ele><time>2026-04-23T09:17:07.639Z</time></trkpt><trkpt lat="39.823194" lon="8.7780434"><ele>517.0</ele><time>2026-04-23T09:17:08.632Z</time></trkpt><trkpt lat="39.8231294" lon="8.7778819"><ele>519.0</ele><time>2026-04-23T09:17:09.631Z</time></trkpt><trkpt lat="39.8230791" lon="8.7777258"><ele>519.6</ele><time>2026-04-23T09:17:10.62Z</time></trkpt><trkpt lat="39.8230284" lon="8.7776098"><ele>520.2</ele><time>2026-04-23T09:17:11.628Z</time></trkpt><trkpt lat="39.822983" lon="8.7775083"><ele>520.8000000000001</ele><time>2026-04-23T09:17:12.629Z</time></trkpt><trkpt lat="39.822895" lon="8.7773844"><ele>521.4</ele><time>2026-04-23T09:17:13.63Z</time></trkpt><trkpt lat="39.8228257" lon="8.7772831"><ele>522.0</ele><time>2026-04-23T09:17:14.628Z</time></trkpt><trkpt lat="39.8227627" lon="8.7771757"><ele>522.0</ele><time>2026-04-23T09:17:15.623Z</time></trkpt><trkpt lat="39.8227066" lon="8.7770705"><ele>522.0</ele><time>2026-04-23T09:17:16.63Z</time></trkpt><trkpt lat="39.8226611" lon="8.7769448"><ele>522.0</ele><time>2026-04-23T09:17:17.63Z</time></trkpt><trkpt lat="39.8226024" lon="8.77682"><ele>522.0</ele><time>2026-04-23T09:17:18.631Z</time></trkpt><trkpt lat="39.8225346" lon="8.7767067"><ele>522.0</ele><time>2026-04-23T09:17:19.636Z</time></trkpt><trkpt lat="39.8224713" lon="8.776598"><ele>523.4</ele><time>2026-04-23T09:17:20.629Z</time></trkpt><trkpt lat="39.8224005" lon="8.7764768"><ele>524.8000000000001</ele><time>2026-04-23T09:17:21.638Z</time></trkpt><trkpt lat="39.8223346" lon="8.7763721"><ele>526.2</ele><time>2026-04-23T09:17:22.64Z</time></trkpt><trkpt lat="39.8222637" lon="8.7762583"><ele>527.6</ele><time>2026-04-23T09:17:23.638Z</time></trkpt><trkpt lat="39.8221881" lon="8.776152"><ele>529.0</ele><time>2026-04-23T09:17:24.642Z</time></trkpt><trkpt lat="39.8221087" lon="8.7760413"><ele>529.0</ele><time>2026-04-23T09:17:25.639Z</time></trkpt><trkpt lat="39.822034" lon="8.7759365"><ele>529.0</ele><time>2026-04-23T09:17:26.633Z</time></trkpt><trkpt lat="39.821964" lon="8.7758286"><ele>529.0</ele><time>2026-04-23T09:17:27.636Z</time></trkpt><trkpt lat="39.8219066" lon="8.7756979"><ele>529.0</ele><time>2026-04-23T09:17:28.634Z</time></trkpt><trkpt lat="39.821861" lon="8.7755522"><ele>530.4</ele><time>2026-04-23T09:17:29.642Z</time></trkpt><trkpt lat="39.8218115" lon="8.775414"><ele>531.8</ele><time>2026-04-23T09:17:30.638Z</time></trkpt><trkpt lat="39.8217558" lon="8.7752868"><ele>533.2</ele><time>2026-04-23T09:17:31.635Z</time></trkpt><trkpt lat="39.8217047" lon="8.775163"><ele>534.6</ele><time>2026-04-23T09:17:32.629Z</time></trkpt><trkpt lat="39.8216561" lon="8.7750351"><ele>536.0</ele><time>2026-04-23T09:17:33.63Z</time></trkpt><trkpt lat="39.8216085" lon="8.7749093"><ele>536.0</ele><time>2026-04-23T09:17:34.629Z</time></trkpt><trkpt lat="39.8215625" lon="8.7747979"><ele>536.0</ele><time>2026-04-23T09:17:35.624Z</time></trkpt><trkpt lat="39.8215147" lon="8.7747144"><ele>536.0</ele><time>2026-04-23T09:17:36.624Z</time></trkpt><trkpt lat="39.8214685" lon="8.7746537"><ele>536.0</ele><time>2026-04-23T09:17:37.628Z</time></trkpt><trkpt lat="39.8213998" lon="8.7746387"><ele>536.0</ele><time>2026-04-23T09:17:39.629Z</time></trkpt><trkpt lat="39.8212753" lon="8.7747134"><ele>536.0</ele><time>2026-04-23T09:17:41.632Z</time></trkpt><trkpt lat="39.8211935" lon="8.7747805"><ele>536.0</ele><time>2026-04-23T09:17:42.632Z</time></trkpt><trkpt lat="39.8211098" lon="8.7748498"><ele>536.0</ele><time>2026-04-23T09:17:43.633Z</time></trkpt><trkpt lat="39.8210127" lon="8.7749151"><ele>536.0</ele><time>2026-04-23T09:17:44.634Z</time></trkpt><trkpt lat="39.8209051" lon="8.7749748"><ele>536.0</ele><time>2026-04-23T09:17:45.629Z</time></trkpt><trkpt lat="39.8207972" lon="8.7750261"><ele>536.0</ele><time>2026-04-23T09:17:46.636Z</time></trkpt><trkpt lat="39.8206989" lon="8.7750705"><ele>537.6</ele><time>2026-04-23T09:17:47.632Z</time></trkpt><trkpt lat="39.8205934" lon="8.7751076"><ele>539.2</ele><time>2026-04-23T09:17:48.63Z</time></trkpt><trkpt lat="39.8204979" lon="8.7751504"><ele>540.8</ele><time>2026-04-23T09:17:49.634Z</time></trkpt><trkpt lat="39.8204168" lon="8.7751889"><ele>542.4</ele><time>2026-04-23T09:17:50.629Z</time></trkpt><trkpt lat="39.8203239" lon="8.7752183"><ele>544.0</ele><time>2026-04-23T09:17:51.637Z</time></trkpt><trkpt lat="39.8202181" lon="8.7752607"><ele>545.5</ele><time>2026-04-23T09:17:52.641Z</time></trkpt><trkpt lat="39.8201048" lon="8.7753114"><ele>547.0</ele><time>2026-04-23T09:17:53.64Z</time></trkpt><trkpt lat="39.8199903" lon="8.7753767"><ele>548.5</ele><time>2026-04-23T09:17:54.636Z</time></trkpt><trkpt lat="39.819883" lon="8.7754452"><ele>550.0</ele><time>2026-04-23T09:17:55.632Z</time></trkpt><trkpt lat="39.8197816" lon="8.7755133"><ele>550.0</ele><time>2026-04-23T09:17:56.635Z</time></trkpt><trkpt lat="39.8196813" lon="8.775574"><ele>550.0</ele><time>2026-04-23T09:17:57.636Z</time></trkpt><trkpt lat="39.8195887" lon="8.7756202"><ele>550.0</ele><time>2026-04-23T09:17:58.638Z</time></trkpt><trkpt lat="39.8195014" lon="8.7756459"><ele>550.0</ele><time>2026-04-23T09:17:59.633Z</time></trkpt><trkpt lat="39.8194053" lon="8.7756579"><ele>550.0</ele><time>2026-04-23T09:18:00.639Z</time></trkpt><trkpt lat="39.8193044" lon="8.7756462"><ele>550.6666666666667</ele><time>2026-04-23T09:18:01.644Z</time></trkpt><trkpt lat="39.8192107" lon="8.7756325"><ele>551.3333333333334</ele><time>2026-04-23T09:18:02.637Z</time></trkpt><trkpt lat="39.8191244" lon="8.7756092"><ele>552.0</ele><time>2026-04-23T09:18:03.63Z</time></trkpt><trkpt lat="39.8190354" lon="8.775597"><ele>552.6666666666666</ele><time>2026-04-23T09:18:04.637Z</time></trkpt><trkpt lat="39.8189436" lon="8.7755786"><ele>553.3333333333333</ele><time>2026-04-23T09:18:05.65Z</time></trkpt><trkpt lat="39.8188668" lon="8.7755987"><ele>554.0</ele><time>2026-04-23T09:18:06.628Z</time></trkpt><trkpt lat="39.8188001" lon="8.7756081"><ele>554.0</ele><time>2026-04-23T09:18:07.626Z</time></trkpt><trkpt lat="39.8187101" lon="8.7756611"><ele>554.0</ele><time>2026-04-23T09:18:08.636Z</time></trkpt><trkpt lat="39.8186146" lon="8.7757228"><ele>554.0</ele><time>2026-04-23T09:18:09.634Z</time></trkpt><trkpt lat="39.8185229" lon="8.7757916"><ele>554.0</ele><time>2026-04-23T09:18:10.64Z</time></trkpt><trkpt lat="39.8184228" lon="8.7758632"><ele>554.0</ele><time>2026-04-23T09:18:11.633Z</time></trkpt><trkpt lat="39.8183261" lon="8.7759425"><ele>554.4</ele><time>2026-04-23T09:18:12.633Z</time></trkpt><trkpt lat="39.8182314" lon="8.7760158"><ele>554.8</ele><time>2026-04-23T09:18:13.636Z</time></trkpt><trkpt lat="39.8181316" lon="8.7760904"><ele>555.2</ele><time>2026-04-23T09:18:14.64Z</time></trkpt><trkpt lat="39.818033" lon="8.7761545"><ele>555.6</ele><time>2026-04-23T09:18:15.647Z</time></trkpt><trkpt lat="39.8179314" lon="8.7762177"><ele>556.0</ele><time>2026-04-23T09:18:16.645Z</time></trkpt><trkpt lat="39.8178247" lon="8.7762851"><ele>554.75</ele><time>2026-04-23T09:18:17.643Z</time></trkpt><trkpt lat="39.8177292" lon="8.776355"><ele>553.5</ele><time>2026-04-23T09:18:18.642Z</time></trkpt><trkpt lat="39.8176199" lon="8.776438"><ele>552.25</ele><time>2026-04-23T09:18:19.64Z</time></trkpt><trkpt lat="39.8175115" lon="8.7765272"><ele>551.0</ele><time>2026-04-23T09:18:20.638Z</time></trkpt><trkpt lat="39.8174142" lon="8.7765997"><ele>551.0</ele><time>2026-04-23T09:18:21.644Z</time></trkpt><trkpt lat="39.8173133" lon="8.7766683"><ele>551.0</ele><time>2026-04-23T09:18:22.644Z</time></trkpt><trkpt lat="39.8172159" lon="8.7767359"><ele>551.0</ele><time>2026-04-23T09:18:23.642Z</time></trkpt><trkpt lat="39.8171214" lon="8.7767865"><ele>551.0</ele><time>2026-04-23T09:18:24.641Z</time></trkpt><trkpt lat="39.8170234" lon="8.7768427"><ele>551.0</ele><time>2026-04-23T09:18:25.657Z</time></trkpt><trkpt lat="39.8169226" lon="8.7769133"><ele>550.2</ele><time>2026-04-23T09:18:26.644Z</time></trkpt><trkpt lat="39.8168256" lon="8.7769896"><ele>549.4000000000001</ele><time>2026-04-23T09:18:27.648Z</time></trkpt><trkpt lat="39.8167301" lon="8.7770613"><ele>548.6</ele><time>2026-04-23T09:18:28.637Z</time></trkpt><trkpt lat="39.8166442" lon="8.7771309"><ele>547.8000000000001</ele><time>2026-04-23T09:18:29.64Z</time></trkpt><trkpt lat="39.816561" lon="8.7772063"><ele>547.0</ele><time>2026-04-23T09:18:30.641Z</time></trkpt><trkpt lat="39.8164865" lon="8.7772875"><ele>547.0</ele><time>2026-04-23T09:18:31.643Z</time></trkpt><trkpt lat="39.8164226" lon="8.7773569"><ele>547.0</ele><time>2026-04-23T09:18:32.644Z</time></trkpt><trkpt lat="39.8163546" lon="8.7774142"><ele>547.0</ele><time>2026-04-23T09:18:33.642Z</time></trkpt><trkpt lat="39.8162871" lon="8.7774543"><ele>547.0</ele><time>2026-04-23T09:18:34.64Z</time></trkpt><trkpt lat="39.8161753" lon="8.7774546"><ele>547.0</ele><time>2026-04-23T09:18:36.639Z</time></trkpt><trkpt lat="39.8160918" lon="8.7774027"><ele>547.0</ele><time>2026-04-23T09:18:38.64Z</time></trkpt><trkpt lat="39.8160613" lon="8.7773188"><ele>547.0</ele><time>2026-04-23T09:18:40.644Z</time></trkpt><trkpt lat="39.8160864" lon="8.7771538"><ele>547.0</ele><time>2026-04-23T09:18:42.642Z</time></trkpt><trkpt lat="39.8161035" lon="8.7770478"><ele>547.0</ele><time>2026-04-23T09:18:43.644Z</time></trkpt><trkpt lat="39.8161218" lon="8.7769344"><ele>547.0</ele><time>2026-04-23T09:18:44.643Z</time></trkpt><trkpt lat="39.8161378" lon="8.7768122"><ele>547.0</ele><time>2026-04-23T09:18:45.654Z</time></trkpt><trkpt lat="39.8161507" lon="8.7766818"><ele>549.25</ele><time>2026-04-23T09:18:46.648Z</time></trkpt><trkpt lat="39.816164" lon="8.7765354"><ele>551.5</ele><time>2026-04-23T09:18:47.641Z</time></trkpt><trkpt lat="39.8161611" lon="8.7763864"><ele>553.75</ele><time>2026-04-23T09:18:48.644Z</time></trkpt><trkpt lat="39.8161586" lon="8.7762357"><ele>556.0</ele><time>2026-04-23T09:18:49.65Z</time></trkpt><trkpt lat="39.8161498" lon="8.7760772"><ele>558.0</ele><time>2026-04-23T09:18:50.647Z</time></trkpt><trkpt lat="39.8161387" lon="8.7759245"><ele>560.0</ele><time>2026-04-23T09:18:51.649Z</time></trkpt><trkpt lat="39.8161231" lon="8.7757801"><ele>562.0</ele><time>2026-04-23T09:18:52.647Z</time></trkpt><trkpt lat="39.8161238" lon="8.7756354"><ele>564.0</ele><time>2026-04-23T09:18:53.649Z</time></trkpt><trkpt lat="39.8161324" lon="8.7754943"><ele>564.0</ele><time>2026-04-23T09:18:54.64Z</time></trkpt><trkpt lat="39.8161381" lon="8.7753551"><ele>564.0</ele><time>2026-04-23T09:18:55.655Z</time></trkpt><trkpt lat="39.8161409" lon="8.7752256"><ele>564.0</ele><time>2026-04-23T09:18:56.646Z</time></trkpt><trkpt lat="39.8161417" lon="8.775093"><ele>564.0</ele><time>2026-04-23T09:18:57.645Z</time></trkpt><trkpt lat="39.8161446" lon="8.7749588"><ele>564.0</ele><time>2026-04-23T09:18:58.643Z</time></trkpt><trkpt lat="39.8161429" lon="8.7748366"><ele>565.2</ele><time>2026-04-23T09:18:59.638Z</time></trkpt><trkpt lat="39.8161477" lon="8.7747054"><ele>566.4</ele><time>2026-04-23T09:19:00.643Z</time></trkpt><trkpt lat="39.8161452" lon="8.7745752"><ele>567.6</ele><time>2026-04-23T09:19:01.646Z</time></trkpt><trkpt lat="39.8161493" lon="8.7744359"><ele>568.8</ele><time>2026-04-23T09:19:02.643Z</time></trkpt><trkpt lat="39.8161457" lon="8.7743005"><ele>570.0</ele><time>2026-04-23T09:19:03.645Z</time></trkpt><trkpt lat="39.8161406" lon="8.7741638"><ele>571.2</ele><time>2026-04-23T09:19:04.639Z</time></trkpt><trkpt lat="39.8161463" lon="8.7740189"><ele>572.4</ele><time>2026-04-23T09:19:05.651Z</time></trkpt><trkpt lat="39.8161459" lon="8.7738786"><ele>573.6</ele><time>2026-04-23T09:19:06.646Z</time></trkpt><trkpt lat="39.8161461" lon="8.7737606"><ele>574.8</ele><time>2026-04-23T09:19:07.647Z</time></trkpt><trkpt lat="39.8161522" lon="8.7736541"><ele>576.0</ele><time>2026-04-23T09:19:08.639Z</time></trkpt><trkpt lat="39.8161584" lon="8.7735587"><ele>576.6666666666666</ele><time>2026-04-23T09:19:09.649Z</time></trkpt><trkpt lat="39.8161625" lon="8.7734585"><ele>577.3333333333334</ele><time>2026-04-23T09:19:10.649Z</time></trkpt><trkpt lat="39.816165" lon="8.7733516"><ele>578.0</ele><time>2026-04-23T09:19:11.645Z</time></trkpt><trkpt lat="39.816161" lon="8.7732566"><ele>578.6666666666667</ele><time>2026-04-23T09:19:12.651Z</time></trkpt><trkpt lat="39.8161671" lon="8.773161"><ele>579.3333333333334</ele><time>2026-04-23T09:19:13.641Z</time></trkpt><trkpt lat="39.8161786" lon="8.7730433"><ele>580.0</ele><time>2026-04-23T09:19:14.641Z</time></trkpt><trkpt lat="39.816185" lon="8.7729106"><ele>580.0</ele><time>2026-04-23T09:19:15.659Z</time></trkpt><trkpt lat="39.8161958" lon="8.7727813"><ele>580.0</ele><time>2026-04-23T09:19:16.643Z</time></trkpt><trkpt lat="39.8162076" lon="8.7726448"><ele>580.0</ele><time>2026-04-23T09:19:17.646Z</time></trkpt><trkpt lat="39.8162183" lon="8.7724976"><ele>580.0</ele><time>2026-04-23T09:19:18.643Z</time></trkpt><trkpt lat="39.8162179" lon="8.7723535"><ele>580.0</ele><time>2026-04-23T09:19:19.644Z</time></trkpt><trkpt lat="39.8162201" lon="8.7722047"><ele>581.25</ele><time>2026-04-23T09:19:20.648Z</time></trkpt><trkpt lat="39.8162128" lon="8.7720548"><ele>582.5</ele><time>2026-04-23T09:19:21.644Z</time></trkpt><trkpt lat="39.8162144" lon="8.7719024"><ele>583.75</ele><time>2026-04-23T09:19:22.649Z</time></trkpt><trkpt lat="39.8162183" lon="8.7717564"><ele>585.0</ele><time>2026-04-23T09:19:23.649Z</time></trkpt><trkpt lat="39.8162255" lon="8.7716073"><ele>586.5</ele><time>2026-04-23T09:19:24.646Z</time></trkpt><trkpt lat="39.816231" lon="8.7714619"><ele>588.0</ele><time>2026-04-23T09:19:25.654Z</time></trkpt><trkpt lat="39.8162254" lon="8.7713043"><ele>589.5</ele><time>2026-04-23T09:19:26.645Z</time></trkpt><trkpt lat="39.816221" lon="8.7711495"><ele>591.0</ele><time>2026-04-23T09:19:27.644Z</time></trkpt><trkpt lat="39.8162107" lon="8.7710034"><ele>592.0</ele><time>2026-04-23T09:19:28.645Z</time></trkpt><trkpt lat="39.8162202" lon="8.7708484"><ele>593.0</ele><time>2026-04-23T09:19:29.648Z</time></trkpt><trkpt lat="39.8162196" lon="8.7707065"><ele>594.0</ele><time>2026-04-23T09:19:30.648Z</time></trkpt><trkpt lat="39.8162188" lon="8.7705884"><ele>595.0</ele><time>2026-04-23T09:19:31.642Z</time></trkpt><trkpt lat="39.8162234" lon="8.770448"><ele>596.0</ele><time>2026-04-23T09:19:32.646Z</time></trkpt><trkpt lat="39.8162143" lon="8.7703097"><ele>597.0</ele><time>2026-04-23T09:19:33.645Z</time></trkpt><trkpt lat="39.8162196" lon="8.7701727"><ele>598.0</ele><time>2026-04-23T09:19:34.647Z</time></trkpt><trkpt lat="39.8162211" lon="8.7700298"><ele>599.0</ele><time>2026-04-23T09:19:35.651Z</time></trkpt><trkpt lat="39.8162237" lon="8.7698877"><ele>600.0</ele><time>2026-04-23T09:19:36.645Z</time></trkpt><trkpt lat="39.8162285" lon="8.769744"><ele>601.0</ele><time>2026-04-23T09:19:37.647Z</time></trkpt><trkpt lat="39.8162191" lon="8.7696087"><ele>601.0</ele><time>2026-04-23T09:19:38.647Z</time></trkpt><trkpt lat="39.8162192" lon="8.7694782"><ele>601.0</ele><time>2026-04-23T09:19:39.647Z</time></trkpt><trkpt lat="39.8162112" lon="8.7693606"><ele>601.0</ele><time>2026-04-23T09:19:40.638Z</time></trkpt><trkpt lat="39.8162069" lon="8.7692432"><ele>601.0</ele><time>2026-04-23T09:19:41.645Z</time></trkpt><trkpt lat="39.8161903" lon="8.7691308"><ele>601.0</ele><time>2026-04-23T09:19:42.643Z</time></trkpt><trkpt lat="39.8161763" lon="8.7690182"><ele>601.8</ele><time>2026-04-23T09:19:43.636Z</time></trkpt><trkpt lat="39.8161756" lon="8.7688992"><ele>602.6</ele><time>2026-04-23T09:19:44.644Z</time></trkpt><trkpt lat="39.8161826" lon="8.7687673"><ele>603.4</ele><time>2026-04-23T09:19:45.659Z</time></trkpt><trkpt lat="39.8161842" lon="8.7686396"><ele>604.2</ele><time>2026-04-23T09:19:46.643Z</time></trkpt><trkpt lat="39.8161784" lon="8.7685122"><ele>605.0</ele><time>2026-04-23T09:19:47.647Z</time></trkpt><trkpt lat="39.8161586" lon="8.768386"><ele>605.6</ele><time>2026-04-23T09:19:48.645Z</time></trkpt><trkpt lat="39.8161325" lon="8.768276"><ele>606.2</ele><time>2026-04-23T09:19:49.641Z</time></trkpt><trkpt lat="39.8161043" lon="8.7681697"><ele>606.8</ele><time>2026-04-23T09:19:50.634Z</time></trkpt><trkpt lat="39.8160638" lon="8.768078"><ele>607.4</ele><time>2026-04-23T09:19:51.635Z</time></trkpt><trkpt lat="39.8160095" lon="8.7679753"><ele>608.0</ele><time>2026-04-23T09:19:52.639Z</time></trkpt><trkpt lat="39.815951" lon="8.7678593"><ele>609.6</ele><time>2026-04-23T09:19:53.632Z</time></trkpt><trkpt lat="39.8158767" lon="8.7677397"><ele>611.1999999999999</ele><time>2026-04-23T09:19:54.628Z</time></trkpt><trkpt lat="39.8158273" lon="8.7676333"><ele>612.8</ele><time>2026-04-23T09:19:55.621Z</time></trkpt><trkpt lat="39.8158011" lon="8.7675274"><ele>614.4</ele><time>2026-04-23T09:19:56.635Z</time></trkpt><trkpt lat="39.8157567" lon="8.7674103"><ele>616.0</ele><time>2026-04-23T09:19:57.63Z</time></trkpt><trkpt lat="39.8157173" lon="8.7672823"><ele>617.0</ele><time>2026-04-23T09:19:58.633Z</time></trkpt><trkpt lat="39.8156797" lon="8.7671541"><ele>618.0</ele><time>2026-04-23T09:19:59.629Z</time></trkpt><trkpt lat="39.8156527" lon="8.7670297"><ele>619.0</ele><time>2026-04-23T09:20:00.625Z</time></trkpt><trkpt lat="39.8156253" lon="8.7669005"><ele>620.0</ele><time>2026-04-23T09:20:01.63Z</time></trkpt><trkpt lat="39.8155946" lon="8.7667768"><ele>621.0</ele><time>2026-04-23T09:20:02.636Z</time></trkpt><trkpt lat="39.8155638" lon="8.7666623"><ele>621.3333333333334</ele><time>2026-04-23T09:20:03.629Z</time></trkpt><trkpt lat="39.815536" lon="8.7665623"><ele>621.6666666666666</ele><time>2026-04-23T09:20:04.633Z</time></trkpt><trkpt lat="39.8155026" lon="8.7664692"><ele>622.0</ele><time>2026-04-23T09:20:05.633Z</time></trkpt><trkpt lat="39.8154665" lon="8.7663886"><ele>622.3333333333333</ele><time>2026-04-23T09:20:06.631Z</time></trkpt><trkpt lat="39.8153869" lon="8.7662922"><ele>622.6666666666666</ele><time>2026-04-23T09:20:08.633Z</time></trkpt><trkpt lat="39.8153242" lon="8.7662835"><ele>623.0</ele><time>2026-04-23T09:20:09.625Z</time></trkpt><trkpt lat="39.8152461" lon="8.76629"><ele>622.5</ele><time>2026-04-23T09:20:10.635Z</time></trkpt><trkpt lat="39.8151269" lon="8.7663128"><ele>622.0</ele><time>2026-04-23T09:20:11.631Z</time></trkpt><trkpt lat="39.8150122" lon="8.7663302"><ele>621.5</ele><time>2026-04-23T09:20:12.632Z</time></trkpt><trkpt lat="39.8148919" lon="8.7663608"><ele>621.0</ele><time>2026-04-23T09:20:13.627Z</time></trkpt><trkpt lat="39.8147731" lon="8.7663927"><ele>621.0</ele><time>2026-04-23T09:20:14.636Z</time></trkpt><trkpt lat="39.8146574" lon="8.7664436"><ele>621.0</ele><time>2026-04-23T09:20:15.63Z</time></trkpt><trkpt lat="39.8145518" lon="8.7665099"><ele>621.0</ele><time>2026-04-23T09:20:16.629Z</time></trkpt><trkpt lat="39.8144637" lon="8.7665669"><ele>621.0</ele><time>2026-04-23T09:20:17.637Z</time></trkpt><trkpt lat="39.8143892" lon="8.7666121"><ele>621.0</ele><time>2026-04-23T09:20:18.637Z</time></trkpt><trkpt lat="39.8143133" lon="8.7666297"><ele>620.8333333333334</ele><time>2026-04-23T09:20:19.628Z</time></trkpt><trkpt lat="39.8142497" lon="8.7666444"><ele>620.6666666666666</ele><time>2026-04-23T09:20:20.629Z</time></trkpt><trkpt lat="39.8141708" lon="8.7666608"><ele>620.5</ele><time>2026-04-23T09:20:21.63Z</time></trkpt><trkpt lat="39.8140911" lon="8.7666134"><ele>620.3333333333333</ele><time>2026-04-23T09:20:23.638Z</time></trkpt><trkpt lat="39.8139936" lon="8.7665691"><ele>620.1666666666666</ele><time>2026-04-23T09:20:25.644Z</time></trkpt><trkpt lat="39.8139279" lon="8.7665651"><ele>620.0</ele><time>2026-04-23T09:20:26.637Z</time></trkpt><trkpt lat="39.813865" lon="8.766559"><ele>620.0</ele><time>2026-04-23T09:20:27.645Z</time></trkpt><trkpt lat="39.8137538" lon="8.7665311"><ele>620.0</ele><time>2026-04-23T09:20:29.634Z</time></trkpt><trkpt lat="39.8136521" lon="8.7664892"><ele>620.0</ele><time>2026-04-23T09:20:31.637Z</time></trkpt><trkpt lat="39.813544" lon="8.7664896"><ele>620.0</ele><time>2026-04-23T09:20:33.635Z</time></trkpt><trkpt lat="39.8134275" lon="8.766482"><ele>620.0</ele><time>2026-04-23T09:20:35.631Z</time></trkpt><trkpt lat="39.8133503" lon="8.7664516"><ele>620.1666666666666</ele><time>2026-04-23T09:20:37.636Z</time></trkpt><trkpt lat="39.8132602" lon="8.7663362"><ele>620.3333333333333</ele><time>2026-04-23T09:20:39.639Z</time></trkpt><trkpt lat="39.8132354" lon="8.7662549"><ele>620.5</ele><time>2026-04-23T09:20:40.637Z</time></trkpt><trkpt lat="39.8132102" lon="8.7661683"><ele>620.6666666666666</ele><time>2026-04-23T09:20:41.637Z</time></trkpt><trkpt lat="39.8131684" lon="8.7660881"><ele>620.8333333333334</ele><time>2026-04-23T09:20:42.636Z</time></trkpt><trkpt lat="39.8131364" lon="8.7660106"><ele>621.0</ele><time>2026-04-23T09:20:43.636Z</time></trkpt><trkpt lat="39.8130384" lon="8.765922"><ele>621.0</ele><time>2026-04-23T09:20:45.63Z</time></trkpt><trkpt lat="39.8129243" lon="8.7658914"><ele>621.0</ele><time>2026-04-23T09:20:47.629Z</time></trkpt><trkpt lat="39.8128594" lon="8.7658709"><ele>621.0</ele><time>2026-04-23T09:20:48.64Z</time></trkpt><trkpt lat="39.8127954" lon="8.7658458"><ele>621.0</ele><time>2026-04-23T09:20:49.637Z</time></trkpt><trkpt lat="39.812729" lon="8.7658238"><ele>621.0</ele><time>2026-04-23T09:20:50.633Z</time></trkpt><trkpt lat="39.8126634" lon="8.7658087"><ele>621.0</ele><time>2026-04-23T09:20:51.627Z</time></trkpt><trkpt lat="39.8125348" lon="8.7658514"><ele>620.0</ele><time>2026-04-23T09:20:53.619Z</time></trkpt><trkpt lat="39.812492" lon="8.7659686"><ele>619.0</ele><time>2026-04-23T09:20:55.606Z</time></trkpt><trkpt lat="39.8125256" lon="8.7660468"><ele>618.0</ele><time>2026-04-23T09:20:56.622Z</time></trkpt><trkpt lat="39.8125531" lon="8.7661434"><ele>617.0</ele><time>2026-04-23T09:20:57.618Z</time></trkpt><trkpt lat="39.8125994" lon="8.7662386"><ele>616.0</ele><time>2026-04-23T09:20:58.616Z</time></trkpt><trkpt lat="39.8126494" lon="8.7663362"><ele>615.0</ele><time>2026-04-23T09:20:59.616Z</time></trkpt><trkpt lat="39.8127051" lon="8.7664372"><ele>614.8333333333334</ele><time>2026-04-23T09:21:00.618Z</time></trkpt><trkpt lat="39.8127659" lon="8.7665238"><ele>614.6666666666666</ele><time>2026-04-23T09:21:01.63Z</time></trkpt><trkpt lat="39.8128204" lon="8.7666044"><ele>614.5</ele><time>2026-04-23T09:21:02.619Z</time></trkpt><trkpt lat="39.8128808" lon="8.7666737"><ele>614.3333333333333</ele><time>2026-04-23T09:21:03.617Z</time></trkpt><trkpt lat="39.8129457" lon="8.7667315"><ele>614.1666666666666</ele><time>2026-04-23T09:21:04.62Z</time></trkpt><trkpt lat="39.8129951" lon="8.7667959"><ele>614.0</ele><time>2026-04-23T09:21:05.619Z</time></trkpt><trkpt lat="39.8130386" lon="8.7668561"><ele>612.8333333333333</ele><time>2026-04-23T09:21:06.612Z</time></trkpt><trkpt lat="39.8130672" lon="8.7669363"><ele>611.6666666666666</ele><time>2026-04-23T09:21:07.608Z</time></trkpt><trkpt lat="39.8130732" lon="8.7670353"><ele>610.5</ele><time>2026-04-23T09:21:08.614Z</time></trkpt><trkpt lat="39.8130586" lon="8.7671339"><ele>609.3333333333334</ele><time>2026-04-23T09:21:09.607Z</time></trkpt><trkpt lat="39.8129967" lon="8.7672364"><ele>608.1666666666667</ele><time>2026-04-23T09:21:10.612Z</time></trkpt><trkpt lat="39.8129164" lon="8.7673401"><ele>607.0</ele><time>2026-04-23T09:21:11.627Z</time></trkpt><trkpt lat="39.8128463" lon="8.7674284"><ele>607.0</ele><time>2026-04-23T09:21:12.617Z</time></trkpt><trkpt lat="39.8127795" lon="8.7675178"><ele>607.0</ele><time>2026-04-23T09:21:13.622Z</time></trkpt><trkpt lat="39.8127225" lon="8.7675875"><ele>607.0</ele><time>2026-04-23T09:21:14.624Z</time></trkpt><trkpt lat="39.8126544" lon="8.7676322"><ele>607.0</ele><time>2026-04-23T09:21:15.628Z</time></trkpt><trkpt lat="39.8125653" lon="8.7676576"><ele>607.0</ele><time>2026-04-23T09:21:16.631Z</time></trkpt><trkpt lat="39.8124705" lon="8.7676638"><ele>607.0</ele><time>2026-04-23T09:21:17.629Z</time></trkpt><trkpt lat="39.8123608" lon="8.7676724"><ele>604.8333333333334</ele><time>2026-04-23T09:21:18.623Z</time></trkpt><trkpt lat="39.8122627" lon="8.7676756"><ele>602.6666666666667</ele><time>2026-04-23T09:21:19.63Z</time></trkpt><trkpt lat="39.8121638" lon="8.7676833"><ele>600.5</ele><time>2026-04-23T09:21:20.625Z</time></trkpt><trkpt lat="39.8120732" lon="8.767693"><ele>598.3333333333334</ele><time>2026-04-23T09:21:21.639Z</time></trkpt><trkpt lat="39.8120029" lon="8.7677323"><ele>596.1666666666666</ele><time>2026-04-23T09:21:22.635Z</time></trkpt><trkpt lat="39.8119315" lon="8.7677665"><ele>594.0</ele><time>2026-04-23T09:21:23.634Z</time></trkpt><trkpt lat="39.8118578" lon="8.7678084"><ele>592.1666666666666</ele><time>2026-04-23T09:21:24.631Z</time></trkpt><trkpt lat="39.8117905" lon="8.7678519"><ele>590.3333333333334</ele><time>2026-04-23T09:21:25.629Z</time></trkpt><trkpt lat="39.8117126" lon="8.7679036"><ele>588.5</ele><time>2026-04-23T09:21:26.632Z</time></trkpt><trkpt lat="39.8116443" lon="8.7679444"><ele>586.6666666666667</ele><time>2026-04-23T09:21:27.63Z</time></trkpt><trkpt lat="39.8115658" lon="8.767992"><ele>584.8333333333334</ele><time>2026-04-23T09:21:28.628Z</time></trkpt><trkpt lat="39.8114949" lon="8.7680275"><ele>583.0</ele><time>2026-04-23T09:21:29.632Z</time></trkpt><trkpt lat="39.8114352" lon="8.7680581"><ele>583.0</ele><time>2026-04-23T09:21:30.632Z</time></trkpt><trkpt lat="39.8113718" lon="8.7680822"><ele>583.0</ele><time>2026-04-23T09:21:31.634Z</time></trkpt><trkpt lat="39.8112654" lon="8.7680381"><ele>583.0</ele><time>2026-04-23T09:21:33.635Z</time></trkpt><trkpt lat="39.8111814" lon="8.7679674"><ele>583.0</ele><time>2026-04-23T09:21:35.635Z</time></trkpt><trkpt lat="39.8110728" lon="8.7679031"><ele>583.0</ele><time>2026-04-23T09:21:37.638Z</time></trkpt><trkpt lat="39.8110007" lon="8.7678795"><ele>583.3333333333334</ele><time>2026-04-23T09:21:38.636Z</time></trkpt><trkpt lat="39.8109183" lon="8.7678604"><ele>583.6666666666667</ele><time>2026-04-23T09:21:39.64Z</time></trkpt><trkpt lat="39.8108275" lon="8.7678492"><ele>584.0</ele><time>2026-04-23T09:21:40.64Z</time></trkpt><trkpt lat="39.8107513" lon="8.7678143"><ele>584.3333333333334</ele><time>2026-04-23T09:21:41.645Z</time></trkpt><trkpt lat="39.8106732" lon="8.7677745"><ele>584.6666666666666</ele><time>2026-04-23T09:21:42.64Z</time></trkpt><trkpt lat="39.8105995" lon="8.7677253"><ele>585.0</ele><time>2026-04-23T09:21:43.637Z</time></trkpt><trkpt lat="39.8105338" lon="8.7676719"><ele>586.2</ele><time>2026-04-23T09:21:44.638Z</time></trkpt><trkpt lat="39.8104832" lon="8.7675998"><ele>587.4</ele><time>2026-04-23T09:21:45.644Z</time></trkpt><trkpt lat="39.8104262" lon="8.767514"><ele>588.6</ele><time>2026-04-23T09:21:46.644Z</time></trkpt><trkpt lat="39.8103727" lon="8.7674191"><ele>589.8</ele><time>2026-04-23T09:21:47.64Z</time></trkpt><trkpt lat="39.8103199" lon="8.7673119"><ele>591.0</ele><time>2026-04-23T09:21:48.637Z</time></trkpt><trkpt lat="39.8102731" lon="8.7671967"><ele>591.0</ele><time>2026-04-23T09:21:49.641Z</time></trkpt><trkpt lat="39.8102377" lon="8.7670791"><ele>591.0</ele><time>2026-04-23T09:21:50.643Z</time></trkpt><trkpt lat="39.8101918" lon="8.7669622"><ele>591.0</ele><time>2026-04-23T09:21:51.647Z</time></trkpt><trkpt lat="39.810159" lon="8.7668261"><ele>591.0</ele><time>2026-04-23T09:21:52.647Z</time></trkpt><trkpt lat="39.8101393" lon="8.7666919"><ele>591.0</ele><time>2026-04-23T09:21:53.641Z</time></trkpt><trkpt lat="39.8101193" lon="8.7665618"><ele>592.0</ele><time>2026-04-23T09:21:54.636Z</time></trkpt><trkpt lat="39.810092" lon="8.7664395"><ele>593.0</ele><time>2026-04-23T09:21:55.646Z</time></trkpt><trkpt lat="39.8100712" lon="8.7663184"><ele>594.0</ele><time>2026-04-23T09:21:56.642Z</time></trkpt><trkpt lat="39.8100588" lon="8.7661932"><ele>595.0</ele><time>2026-04-23T09:21:57.646Z</time></trkpt><trkpt lat="39.810048" lon="8.7660685"><ele>596.0</ele><time>2026-04-23T09:21:58.639Z</time></trkpt><trkpt lat="39.8100398" lon="8.7659548"><ele>597.1666666666666</ele><time>2026-04-23T09:21:59.635Z</time></trkpt><trkpt lat="39.8100442" lon="8.765841"><ele>598.3333333333333</ele><time>2026-04-23T09:22:00.641Z</time></trkpt><trkpt lat="39.8100659" lon="8.7657304"><ele>599.5</ele><time>2026-04-23T09:22:01.648Z</time></trkpt><trkpt lat="39.8100717" lon="8.765615"><ele>600.6666666666666</ele><time>2026-04-23T09:22:02.633Z</time></trkpt><trkpt lat="39.8100712" lon="8.765521"><ele>601.8333333333334</ele><time>2026-04-23T09:22:03.631Z</time></trkpt><trkpt lat="39.8100548" lon="8.7654091"><ele>603.0</ele><time>2026-04-23T09:22:04.638Z</time></trkpt><trkpt lat="39.8100456" lon="8.7653178"><ele>603.0</ele><time>2026-04-23T09:22:05.634Z</time></trkpt><trkpt lat="39.8100341" lon="8.7652191"><ele>603.0</ele><time>2026-04-23T09:22:06.635Z</time></trkpt><trkpt lat="39.8100324" lon="8.7651121"><ele>603.0</ele><time>2026-04-23T09:22:07.631Z</time></trkpt><trkpt lat="39.8100099" lon="8.7649976"><ele>603.0</ele><time>2026-04-23T09:22:08.623Z</time></trkpt><trkpt lat="39.8099937" lon="8.7648907"><ele>603.0</ele><time>2026-04-23T09:22:09.625Z</time></trkpt><trkpt lat="39.8099766" lon="8.7647922"><ele>603.0</ele><time>2026-04-23T09:22:10.617Z</time></trkpt><trkpt lat="39.8099696" lon="8.7646882"><ele>604.5</ele><time>2026-04-23T09:22:11.61Z</time></trkpt><trkpt lat="39.80995" lon="8.7645863"><ele>606.0</ele><time>2026-04-23T09:22:12.617Z</time></trkpt><trkpt lat="39.8099277" lon="8.7644895"><ele>607.5</ele><time>2026-04-23T09:22:13.619Z</time></trkpt><trkpt lat="39.8098934" lon="8.7643898"><ele>609.0</ele><time>2026-04-23T09:22:14.616Z</time></trkpt><trkpt lat="39.8098485" lon="8.7642857"><ele>610.5</ele><time>2026-04-23T09:22:15.609Z</time></trkpt><trkpt lat="39.8097841" lon="8.7641929"><ele>612.0</ele><time>2026-04-23T09:22:16.612Z</time></trkpt><trkpt lat="39.8097156" lon="8.7640951"><ele>614.1666666666666</ele><time>2026-04-23T09:22:17.621Z</time></trkpt><trkpt lat="39.8096666" lon="8.7640027"><ele>616.3333333333334</ele><time>2026-04-23T09:22:18.62Z</time></trkpt><trkpt lat="39.8096482" lon="8.7638738"><ele>618.5</ele><time>2026-04-23T09:22:19.612Z</time></trkpt><trkpt lat="39.8096642" lon="8.7637307"><ele>620.6666666666667</ele><time>2026-04-23T09:22:20.63Z</time></trkpt><trkpt lat="39.8096433" lon="8.7636364"><ele>622.8333333333334</ele><time>2026-04-23T09:22:21.628Z</time></trkpt><trkpt lat="39.8096189" lon="8.7635581"><ele>625.0</ele><time>2026-04-23T09:22:22.633Z</time></trkpt><trkpt lat="39.8095615" lon="8.7634248"><ele>624.6666666666667</ele><time>2026-04-23T09:22:24.617Z</time></trkpt><trkpt lat="39.8095388" lon="8.763346"><ele>624.3333333333334</ele><time>2026-04-23T09:22:25.617Z</time></trkpt><trkpt lat="39.809486" lon="8.7632735"><ele>624.0</ele><time>2026-04-23T09:22:26.613Z</time></trkpt><trkpt lat="39.8094466" lon="8.7631913"><ele>623.6666666666666</ele><time>2026-04-23T09:22:27.613Z</time></trkpt><trkpt lat="39.8094075" lon="8.7631065"><ele>623.3333333333333</ele><time>2026-04-23T09:22:28.591Z</time></trkpt><trkpt lat="39.8093466" lon="8.7630193"><ele>623.0</ele><time>2026-04-23T09:22:29.595Z</time></trkpt><trkpt lat="39.8092453" lon="8.7629198"><ele>623.0</ele><time>2026-04-23T09:22:30.616Z</time></trkpt><trkpt lat="39.8091134" lon="8.7628519"><ele>623.0</ele><time>2026-04-23T09:22:31.617Z</time></trkpt><trkpt lat="39.8089671" lon="8.7627843"><ele>623.0</ele><time>2026-04-23T09:22:32.619Z</time></trkpt><trkpt lat="39.808921" lon="8.7626608"><ele>623.0</ele><time>2026-04-23T09:22:33.618Z</time></trkpt><trkpt lat="39.8089032" lon="8.7625132"><ele>628.0</ele><time>2026-04-23T09:22:34.62Z</time></trkpt><trkpt lat="39.8088781" lon="8.7623799"><ele>633.0</ele><time>2026-04-23T09:22:35.613Z</time></trkpt><trkpt lat="39.8088517" lon="8.7622177"><ele>638.0</ele><time>2026-04-23T09:22:36.617Z</time></trkpt><trkpt lat="39.8088208" lon="8.7620402"><ele>643.0</ele><time>2026-04-23T09:22:37.624Z</time></trkpt><trkpt lat="39.8087854" lon="8.761888"><ele>646.75</ele><time>2026-04-23T09:22:38.624Z</time></trkpt><trkpt lat="39.8087152" lon="8.7617531"><ele>650.5</ele><time>2026-04-23T09:22:39.618Z</time></trkpt><trkpt lat="39.8086536" lon="8.7615938"><ele>654.25</ele><time>2026-04-23T09:22:40.622Z</time></trkpt><trkpt lat="39.8085978" lon="8.7614517"><ele>658.0</ele><time>2026-04-23T09:22:41.619Z</time></trkpt><trkpt lat="39.8085285" lon="8.7613474"><ele>657.1666666666667</ele><time>2026-04-23T09:22:42.631Z</time></trkpt><trkpt lat="39.8084536" lon="8.7612851"><ele>656.3333333333334</ele><time>2026-04-23T09:22:43.647Z</time></trkpt><trkpt lat="39.8083824" lon="8.7612231"><ele>655.5</ele><time>2026-04-23T09:22:44.635Z</time></trkpt><trkpt lat="39.8083431" lon="8.7611446"><ele>654.6666666666666</ele><time>2026-04-23T09:22:45.638Z</time></trkpt><trkpt lat="39.8082991" lon="8.7610616"><ele>653.8333333333333</ele><time>2026-04-23T09:22:46.64Z</time></trkpt><trkpt lat="39.8082511" lon="8.7609685"><ele>653.0</ele><time>2026-04-23T09:22:47.639Z</time></trkpt><trkpt lat="39.8082" lon="8.7608678"><ele>653.0</ele><time>2026-04-23T09:22:48.646Z</time></trkpt><trkpt lat="39.8081505" lon="8.7607544"><ele>653.0</ele><time>2026-04-23T09:22:49.638Z</time></trkpt><trkpt lat="39.8080923" lon="8.7606463"><ele>653.0</ele><time>2026-04-23T09:22:50.639Z</time></trkpt><trkpt lat="39.8080212" lon="8.7605645"><ele>653.0</ele><time>2026-04-23T09:22:51.634Z</time></trkpt><trkpt lat="39.807954" lon="8.7604958"><ele>653.0</ele><time>2026-04-23T09:22:52.632Z</time></trkpt><trkpt lat="39.8078671" lon="8.7604458"><ele>653.0</ele><time>2026-04-23T09:22:53.633Z</time></trkpt><trkpt lat="39.8078259" lon="8.7603399"><ele>653.0</ele><time>2026-04-23T09:22:54.626Z</time></trkpt><trkpt lat="39.8077854" lon="8.7602401"><ele>653.0</ele><time>2026-04-23T09:22:55.621Z</time></trkpt><trkpt lat="39.8077555" lon="8.7601228"><ele>653.0</ele><time>2026-04-23T09:22:56.631Z</time></trkpt><trkpt lat="39.8077133" lon="8.760004"><ele>653.0</ele><time>2026-04-23T09:22:57.639Z</time></trkpt><trkpt lat="39.8076945" lon="8.7598869"><ele>652.5</ele><time>2026-04-23T09:22:58.626Z</time></trkpt><trkpt lat="39.8076723" lon="8.7597734"><ele>652.0</ele><time>2026-04-23T09:22:59.63Z</time></trkpt><trkpt lat="39.8076431" lon="8.7596618"><ele>651.5</ele><time>2026-04-23T09:23:00.626Z</time></trkpt><trkpt lat="39.8076165" lon="8.7595594"><ele>651.0</ele><time>2026-04-23T09:23:01.631Z</time></trkpt><trkpt lat="39.80759" lon="8.7594563"><ele>650.5</ele><time>2026-04-23T09:23:02.632Z</time></trkpt><trkpt lat="39.8075709" lon="8.7593539"><ele>650.0</ele><time>2026-04-23T09:23:03.631Z</time></trkpt><trkpt lat="39.8075474" lon="8.7592387"><ele>651.6</ele><time>2026-04-23T09:23:04.633Z</time></trkpt><trkpt lat="39.8075268" lon="8.7591243"><ele>653.2</ele><time>2026-04-23T09:23:05.629Z</time></trkpt><trkpt lat="39.8075051" lon="8.7589925"><ele>654.8</ele><time>2026-04-23T09:23:06.62Z</time></trkpt><trkpt lat="39.8074848" lon="8.7588591"><ele>656.4</ele><time>2026-04-23T09:23:07.618Z</time></trkpt><trkpt lat="39.8074578" lon="8.7587051"><ele>658.0</ele><time>2026-04-23T09:23:08.619Z</time></trkpt><trkpt lat="39.807406" lon="8.7585519"><ele>660.0</ele><time>2026-04-23T09:23:09.622Z</time></trkpt><trkpt lat="39.8073588" lon="8.7584037"><ele>662.0</ele><time>2026-04-23T09:23:10.622Z</time></trkpt><trkpt lat="39.8073137" lon="8.7582523"><ele>664.0</ele><time>2026-04-23T09:23:11.619Z</time></trkpt><trkpt lat="39.8072743" lon="8.7580973"><ele>666.0</ele><time>2026-04-23T09:23:12.617Z</time></trkpt><trkpt lat="39.8072385" lon="8.7579362"><ele>666.0</ele><time>2026-04-23T09:23:13.617Z</time></trkpt><trkpt lat="39.8071928" lon="8.7577756"><ele>666.0</ele><time>2026-04-23T09:23:14.622Z</time></trkpt><trkpt lat="39.8071566" lon="8.7576021"><ele>666.0</ele><time>2026-04-23T09:23:15.624Z</time></trkpt><trkpt lat="39.8071369" lon="8.7574301"><ele>666.0</ele><time>2026-04-23T09:23:16.628Z</time></trkpt><trkpt lat="39.8071081" lon="8.7572744"><ele>668.75</ele><time>2026-04-23T09:23:17.633Z</time></trkpt><trkpt lat="39.8070726" lon="8.7571214"><ele>671.5</ele><time>2026-04-23T09:23:18.629Z</time></trkpt><trkpt lat="39.8070378" lon="8.7569576"><ele>674.25</ele><time>2026-04-23T09:23:19.63Z</time></trkpt><trkpt lat="39.8069985" lon="8.7568089"><ele>677.0</ele><time>2026-04-23T09:23:20.629Z</time></trkpt><trkpt lat="39.8069658" lon="8.756659"><ele>678.75</ele><time>2026-04-23T09:23:21.629Z</time></trkpt><trkpt lat="39.8069308" lon="8.7565077"><ele>680.5</ele><time>2026-04-23T09:23:22.63Z</time></trkpt><trkpt lat="39.806899" lon="8.7563599"><ele>682.25</ele><time>2026-04-23T09:23:23.624Z</time></trkpt><trkpt lat="39.8068441" lon="8.7562327"><ele>684.0</ele><time>2026-04-23T09:23:24.622Z</time></trkpt><trkpt lat="39.8067977" lon="8.7560955"><ele>685.5</ele><time>2026-04-23T09:23:25.624Z</time></trkpt><trkpt lat="39.8067324" lon="8.7559587"><ele>687.0</ele><time>2026-04-23T09:23:26.62Z</time></trkpt><trkpt lat="39.8066696" lon="8.7558157"><ele>688.5</ele><time>2026-04-23T09:23:27.625Z</time></trkpt><trkpt lat="39.8066065" lon="8.7556816"><ele>690.0</ele><time>2026-04-23T09:23:28.622Z</time></trkpt><trkpt lat="39.8065508" lon="8.7555438"><ele>690.0</ele><time>2026-04-23T09:23:29.631Z</time></trkpt><trkpt lat="39.8065065" lon="8.7553923"><ele>690.0</ele><time>2026-04-23T09:23:30.629Z</time></trkpt><trkpt lat="39.8064596" lon="8.7552377"><ele>690.0</ele><time>2026-04-23T09:23:31.631Z</time></trkpt><trkpt lat="39.8064067" lon="8.7550903"><ele>690.0</ele><time>2026-04-23T09:23:32.63Z</time></trkpt><trkpt lat="39.8063566" lon="8.7549278"><ele>694.0</ele><time>2026-04-23T09:23:33.626Z</time></trkpt><trkpt lat="39.8062474" lon="8.7546125"><ele>698.0</ele><time>2026-04-23T09:23:35.628Z</time></trkpt><trkpt lat="39.80502" lon="8.7514088"><ele>730.0</ele><time>2026-04-23T09:23:57.632Z</time></trkpt><trkpt lat="39.8042544" lon="8.7489463"><ele>740.0</ele><time>2026-04-23T09:24:21.62Z</time></trkpt><trkpt lat="39.80298" lon="8.7495489"><ele>743.0</ele><time>2026-04-23T09:25:02.623Z</time></trkpt><trkpt lat="39.8014828" lon="8.7513289"><ele>747.0</ele><time>2026-04-23T09:25:32.618Z</time></trkpt><trkpt lat="39.7989848" lon="8.7527768"><ele>743.0</ele><time>2026-04-23T09:25:51.646Z</time></trkpt><trkpt lat="39.7963642" lon="8.7537772"><ele>746.0</ele><time>2026-04-23T09:26:13.629Z</time></trkpt><trkpt lat="39.7962322" lon="8.75105"><ele>755.0</ele><time>2026-04-23T09:26:39.646Z</time></trkpt><trkpt lat="39.795988" lon="8.7484006"><ele>756.0</ele><time>2026-04-23T09:26:57.636Z</time></trkpt><trkpt lat="39.7941495" lon="8.747038"><ele>754.0</ele><time>2026-04-23T09:27:18.644Z</time></trkpt><trkpt lat="39.7922416" lon="8.7460951"><ele>759.0</ele><time>2026-04-23T09:27:35.633Z</time></trkpt><trkpt lat="39.7901586" lon="8.7455669"><ele>765.0</ele><time>2026-04-23T09:27:55.638Z</time></trkpt><trkpt lat="39.7881589" lon="8.7448753"><ele>775.0</ele><time>2026-04-23T09:28:14.637Z</time></trkpt><trkpt lat="39.7865337" lon="8.7432902"><ele>782.0</ele><time>2026-04-23T09:28:33.639Z</time></trkpt><trkpt lat="39.7846219" lon="8.7422766"><ele>780.0</ele><time>2026-04-23T09:28:53.644Z</time></trkpt><trkpt lat="39.7825763" lon="8.7423224"><ele>782.0</ele><time>2026-04-23T09:29:15.641Z</time></trkpt><trkpt lat="39.7815879" lon="8.7435504"><ele>799.0</ele><time>2026-04-23T09:31:38.634Z</time></trkpt><trkpt lat="39.7801675" lon="8.7454806"><ele>789.0</ele><time>2026-04-23T09:32:00.653Z</time></trkpt><trkpt lat="39.7781906" lon="8.7460961"><ele>774.0</ele><time>2026-04-23T09:32:42.653Z</time></trkpt><trkpt lat="39.7770279" lon="8.7470503"><ele>767.0</ele><time>2026-04-23T09:33:09.64Z</time></trkpt><trkpt lat="39.7757318" lon="8.7476377"><ele>752.0</ele><time>2026-04-23T09:33:39.641Z</time></trkpt><trkpt lat="39.7744106" lon="8.7480803"><ele>749.0</ele><time>2026-04-23T09:34:01.634Z</time></trkpt><trkpt lat="39.7723888" lon="8.7484239"><ele>767.0</ele><time>2026-04-23T09:34:25.634Z</time></trkpt><trkpt lat="39.7757318" lon="8.7476377"><ele>752.0</ele><time>2026-04-23T09:33:39.641Z</time></trkpt><trkpt lat="39.7744106" lon="8.7480803"><ele>749.0</ele><time>2026-04-23T09:34:01.634Z</time></trkpt><trkpt lat="39.7723888" lon="8.7484239"><ele>728.0</ele><time>2026-04-23T09:34:25.634Z</time></trkpt><trkpt lat="39.7704635" lon="8.7494368"><ele>715.0</ele><time>2026-04-23T09:34:47.648Z</time></trkpt><trkpt lat="39.769448" lon="8.7517221"><ele>683.0</ele><time>2026-04-23T09:35:08.652Z</time></trkpt><trkpt lat="39.7694044" lon="8.7553689"><ele>655.0</ele><time>2026-04-23T09:35:36.641Z</time></trkpt><trkpt lat="39.7687254" lon="8.7588791"><ele>637.0</ele><time>2026-04-23T09:36:05.649Z</time></trkpt><trkpt lat="39.7673717" lon="8.7619561"><ele>622.0</ele><time>2026-04-23T09:36:35.644Z</time></trkpt><trkpt lat="39.7654115" lon="8.7627836"><ele>604.0</ele><time>2026-04-23T09:36:59.661Z</time></trkpt><trkpt lat="39.7627614" lon="8.7620092"><ele>585.0</ele><time>2026-04-23T09:37:20.661Z</time></trkpt><trkpt lat="39.7602848" lon="8.7603189"><ele>564.0</ele><time>2026-04-23T09:37:52.649Z</time></trkpt><trkpt lat="39.75823" lon="8.7579885"><ele>568.0</ele><time>2026-04-23T09:38:55.665Z</time></trkpt><trkpt lat="39.7575795" lon="8.7564031"><ele>563.0</ele><time>2026-04-23T09:39:32.657Z</time></trkpt><trkpt lat="39.7561209" lon="8.7545661"><ele>583.0</ele><time>2026-04-23T09:39:57.657Z</time></trkpt><trkpt lat="39.753515" lon="8.7535536"><ele>596.0</ele><time>2026-04-23T09:40:23.647Z</time></trkpt><trkpt lat="39.7539033" lon="8.7518519"><ele>606.0</ele><time>2026-04-23T09:40:35.642Z</time></trkpt><trkpt lat="39.7553153" lon="8.7488318"><ele>594.0</ele><time>2026-04-23T09:41:02.651Z</time></trkpt><trkpt lat="39.7539657" lon="8.7491151"><ele>574.0</ele><time>2026-04-23T09:41:22.658Z</time></trkpt><trkpt lat="39.7519368" lon="8.7498787"><ele>557.0</ele><time>2026-04-23T09:41:46.648Z</time></trkpt><trkpt lat="39.7500405" lon="8.7509135"><ele>539.0</ele><time>2026-04-23T09:42:05.638Z</time></trkpt><trkpt lat="39.7473334" lon="8.7514361"><ele>521.0</ele><time>2026-04-23T09:42:41.647Z</time></trkpt><trkpt lat="39.7452325" lon="8.7512423"><ele>507.0</ele><time>2026-04-23T09:43:06.638Z</time></trkpt><trkpt lat="39.7433904" lon="8.7524292"><ele>516.0</ele><time>2026-04-23T09:43:35.627Z</time></trkpt><trkpt lat="39.7430026" lon="8.7506712"><ele>497.0</ele><time>2026-04-23T09:44:17.642Z</time></trkpt><trkpt lat="39.7420987" lon="8.7483164"><ele>491.0</ele><time>2026-04-23T09:45:00.637Z</time></trkpt><trkpt lat="39.741048" lon="8.747176"><ele>497.0</ele><time>2026-04-23T09:45:27.641Z</time></trkpt><trkpt lat="39.7420987" lon="8.7483164"><ele>491.0</ele><time>2026-04-23T09:45:00.637Z</time></trkpt><trkpt lat="39.741048" lon="8.747176"><ele>480.0</ele><time>2026-04-23T09:45:27.641Z</time></trkpt><trkpt lat="39.7398045" lon="8.7463072"><ele>474.0</ele><time>2026-04-23T09:45:51.631Z</time></trkpt><trkpt lat="39.7377525" lon="8.7458532"><ele>483.0</ele><time>2026-04-23T09:46:22.627Z</time></trkpt><trkpt lat="39.7372348" lon="8.7441362"><ele>469.0</ele><time>2026-04-23T09:46:43.637Z</time></trkpt><trkpt lat="39.7353198" lon="8.7431711"><ele>453.0</ele><time>2026-04-23T09:47:20.638Z</time></trkpt><trkpt lat="39.7342509" lon="8.74204"><ele>437.0</ele><time>2026-04-23T09:47:44.639Z</time></trkpt><trkpt lat="39.733033" lon="8.7412212"><ele>428.0</ele><time>2026-04-23T09:48:11.646Z</time></trkpt><trkpt lat="39.7337371" lon="8.7396443"><ele>409.0</ele><time>2026-04-23T09:48:37.634Z</time></trkpt><trkpt lat="39.7340022" lon="8.7370138"><ele>398.0</ele><time>2026-04-23T09:49:04.654Z</time></trkpt><trkpt lat="39.7342614" lon="8.7352264"><ele>379.0</ele><time>2026-04-23T09:49:23.646Z</time></trkpt><trkpt lat="39.7338718" lon="8.7326192"><ele>363.0</ele><time>2026-04-23T09:49:45.647Z</time></trkpt><trkpt lat="39.7335403" lon="8.7299681"><ele>355.0</ele><time>2026-04-23T09:50:18.658Z</time></trkpt><trkpt lat="39.7323924" lon="8.7277501"><ele>324.0</ele><time>2026-04-23T09:50:45.653Z</time></trkpt><trkpt lat="39.7337815" lon="8.7257616"><ele>310.0</ele><time>2026-04-23T10:04:02.665Z</time></trkpt><trkpt lat="39.7351538" lon="8.7258987"><ele>298.0</ele><time>2026-04-23T10:04:34.654Z</time></trkpt><trkpt lat="39.7365317" lon="8.7260529"><ele>294.0</ele><time>2026-04-23T10:05:53.652Z</time></trkpt><trkpt lat="39.7374194" lon="8.7247205"><ele>269.0</ele><time>2026-04-23T10:06:25.646Z</time></trkpt><trkpt lat="39.7368809" lon="8.7230765"><ele>272.0</ele><time>2026-04-23T10:06:53.649Z</time></trkpt><trkpt lat="39.7362476" lon="8.7214839"><ele>266.0</ele><time>2026-04-23T10:07:18.656Z</time></trkpt><trkpt lat="39.7357012" lon="8.719849"><ele>273.0</ele><time>2026-04-23T10:07:42.647Z</time></trkpt><trkpt lat="39.7362161" lon="8.7181333"><ele>281.0</ele><time>2026-04-23T10:08:05.651Z</time></trkpt><trkpt lat="39.7366104" lon="8.7164501"><ele>255.0</ele><time>2026-04-23T10:08:27.659Z</time></trkpt><trkpt lat="39.7368912" lon="8.7147343"><ele>258.0</ele><time>2026-04-23T10:08:48.661Z</time></trkpt><trkpt lat="39.7364684" lon="8.7130613"><ele>234.0</ele><time>2026-04-23T10:09:16.651Z</time></trkpt><trkpt lat="39.7351262" lon="8.7127452"><ele>215.0</ele><time>2026-04-23T10:10:10.654Z</time></trkpt><trkpt lat="39.7347309" lon="8.7110702"><ele>198.0</ele><time>2026-04-23T10:10:40.659Z</time></trkpt><trkpt lat="39.7337751" lon="8.7097244"><ele>192.0</ele><time>2026-04-23T10:11:04.645Z</time></trkpt><trkpt lat="39.7342005" lon="8.7080242"><ele>193.0</ele><time>2026-04-23T10:11:31.652Z</time></trkpt><trkpt lat="39.7352357" lon="8.7067953"><ele>217.0</ele><time>2026-04-23T10:11:58.642Z</time></trkpt><trkpt lat="39.7369471" lon="8.7052492"><ele>133.0</ele><time>2026-04-23T10:12:26.641Z</time></trkpt><trkpt lat="39.7350438" lon="8.7042817"><ele>151.0</ele><time>2026-04-23T10:13:38.657Z</time></trkpt><trkpt lat="39.7361285" lon="8.7030315"><ele>114.0</ele><time>2026-04-23T10:13:54.652Z</time></trkpt><trkpt lat="39.7367639" lon="8.7004717"><ele>87.0</ele><time>2026-04-23T10:14:14.649Z</time></trkpt><trkpt lat="39.7347808" lon="8.6996468"><ele>75.0</ele><time>2026-04-23T10:14:53.642Z</time></trkpt><trkpt lat="39.7320921" lon="8.6992554"><ele>63.0</ele><time>2026-04-23T10:15:13.662Z</time></trkpt><trkpt lat="39.7293299" lon="8.699061"><ele>54.0</ele><time>2026-04-23T10:15:35.661Z</time></trkpt><trkpt lat="39.7271879" lon="8.6968692"><ele>50.0</ele><time>2026-04-23T10:15:56.652Z</time></trkpt><trkpt lat="39.7255327" lon="8.6939879"><ele>43.0</ele><time>2026-04-23T10:16:18.665Z</time></trkpt><trkpt lat="39.7232292" lon="8.6921173"><ele>43.0</ele><time>2026-04-23T10:16:48.664Z</time></trkpt><trkpt lat="39.7220826" lon="8.6953863"><ele>42.0</ele><time>2026-04-23T10:17:11.665Z</time></trkpt><trkpt lat="39.7212262" lon="8.6988001"><ele>44.0</ele><time>2026-04-23T10:17:33.677Z</time></trkpt><trkpt lat="39.7203159" lon="8.7022385"><ele>41.0</ele><time>2026-04-23T10:17:55.661Z</time></trkpt><trkpt lat="39.7189832" lon="8.7053042"><ele>38.0</ele><time>2026-04-23T10:18:17.656Z</time></trkpt><trkpt lat="39.7174924" lon="8.7072194"><ele>42.0</ele><time>2026-04-23T10:18:47.664Z</time></trkpt><trkpt lat="39.7151929" lon="8.7093388"><ele>54.0</ele><time>2026-04-23T10:19:10.655Z</time></trkpt><trkpt lat="39.7129397" lon="8.7113905"><ele>59.0</ele><time>2026-04-23T10:19:32.664Z</time></trkpt><trkpt lat="39.7107313" lon="8.7134235"><ele>51.0</ele><time>2026-04-23T10:20:04.655Z</time></trkpt><trkpt lat="39.7086577" lon="8.7110128"><ele>38.0</ele><time>2026-04-23T10:20:29.656Z</time></trkpt><trkpt lat="39.706347" lon="8.7091873"><ele>32.0</ele><time>2026-04-23T10:20:50.648Z</time></trkpt><trkpt lat="39.7041845" lon="8.7069342"><ele>28.0</ele><time>2026-04-23T10:21:13.648Z</time></trkpt><trkpt lat="39.7026741" lon="8.7050411"><ele>28.0</ele><time>2026-04-23T10:21:29.656Z</time></trkpt><trkpt lat="39.7008003" lon="8.7039928"><ele>28.0</ele><time>2026-04-23T10:22:05.633Z</time></trkpt><trkpt lat="39.6994403" lon="8.7036797"><ele>29.0</ele><time>2026-04-23T10:24:58.668Z</time></trkpt><trkpt lat="39.6982066" lon="8.7028717"><ele>28.0</ele><time>2026-04-23T10:25:29.669Z</time></trkpt><trkpt lat="39.6975023" lon="8.7043833"><ele>26.0</ele><time>2026-04-23T10:32:30.672Z</time></trkpt><trkpt lat="39.6988329" lon="8.7023469"><ele>24.0</ele><time>2026-04-23T10:33:50.679Z</time></trkpt><trkpt lat="39.698905" lon="8.7005742"><ele>23.0</ele><time>2026-04-23T10:34:23.676Z</time></trkpt><trkpt lat="39.700036" lon="8.6995519"><ele>22.0</ele><time>2026-04-23T10:34:44.673Z</time></trkpt><trkpt lat="39.7010166" lon="8.6993858"><ele>22.0</ele><time>2026-04-23T11:01:03.578Z</time></trkpt><trkpt lat="39.7010326" lon="8.6992367"><ele>22.0</ele><time>2026-04-23T11:02:29.559Z</time></trkpt><trkpt lat="39.7029766" lon="8.6982753"><ele>21.0</ele><time>2026-04-23T11:32:37.639Z</time></trkpt><trkpt lat="39.7049253" lon="8.6972246"><ele>21.0</ele><time>2026-04-23T11:32:58.634Z</time></trkpt><trkpt lat="39.7075364" lon="8.6958488"><ele>23.0</ele><time>2026-04-23T11:33:15.63Z</time></trkpt><trkpt lat="39.7071866" lon="8.6993282"><ele>27.0</ele><time>2026-04-23T11:33:51.647Z</time></trkpt><trkpt lat="39.7052929" lon="8.7029532"><ele>32.0</ele><time>2026-04-23T11:34:09.647Z</time></trkpt><trkpt lat="39.7027438" lon="8.7061031"><ele>32.0</ele><time>2026-04-23T11:34:28.649Z</time></trkpt><trkpt lat="39.6995787" lon="8.7080546"><ele>35.0</ele><time>2026-04-23T11:34:46.657Z</time></trkpt><trkpt lat="39.6963107" lon="8.709477"><ele>28.0</ele><time>2026-04-23T11:35:04.643Z</time></trkpt><trkpt lat="39.6943009" lon="8.7059302"><ele>24.0</ele><time>2026-04-23T11:35:35.651Z</time></trkpt><trkpt lat="39.6930811" lon="8.7027012"><ele>23.0</ele><time>2026-04-23T11:35:59.654Z</time></trkpt><trkpt lat="39.6916244" lon="8.6985854"><ele>22.0</ele><time>2026-04-23T11:36:17.649Z</time></trkpt><trkpt lat="39.6901177" lon="8.6944347"><ele>23.0</ele><time>2026-04-23T11:36:35.653Z</time></trkpt><trkpt lat="39.6883249" lon="8.6906609"><ele>23.0</ele><time>2026-04-23T11:36:52.652Z</time></trkpt><trkpt lat="39.6871228" lon="8.6853786"><ele>20.0</ele><time>2026-04-23T11:37:14.658Z</time></trkpt><trkpt lat="39.6869889" lon="8.6801137"><ele>23.0</ele><time>2026-04-23T11:37:32.662Z</time></trkpt><trkpt lat="39.6868887" lon="8.6746405"><ele>19.0</ele><time>2026-04-23T11:37:51.664Z</time></trkpt><trkpt lat="39.6867762" lon="8.6693528"><ele>19.0</ele><time>2026-04-23T11:38:09.661Z</time></trkpt><trkpt lat="39.6866588" lon="8.6640817"><ele>15.0</ele><time>2026-04-23T11:38:27.664Z</time></trkpt><trkpt lat="39.6865711" lon="8.6587679"><ele>18.0</ele><time>2026-04-23T11:38:46.664Z</time></trkpt><trkpt lat="39.6864489" lon="8.6533836"><ele>18.0</ele><time>2026-04-23T11:39:06.659Z</time></trkpt><trkpt lat="39.6864408" lon="8.648975"><ele>15.0</ele><time>2026-04-23T11:39:41.642Z</time></trkpt><trkpt lat="39.6854671" lon="8.6476001"><ele>17.0</ele><time>2026-04-23T11:39:56.658Z</time></trkpt><trkpt lat="39.6834065" lon="8.6470036"><ele>16.0</ele><time>2026-04-23T11:40:47.655Z</time></trkpt><trkpt lat="39.6812088" lon="8.6491912"><ele>14.0</ele><time>2026-04-23T11:41:06.656Z</time></trkpt><trkpt lat="39.6787945" lon="8.6510276"><ele>12.0</ele><time>2026-04-23T11:41:26.65Z</time></trkpt><trkpt lat="39.6759788" lon="8.6513774"><ele>11.0</ele><time>2026-04-23T11:41:40.655Z</time></trkpt><trkpt lat="39.6725402" lon="8.6517407"><ele>14.0</ele><time>2026-04-23T11:41:56.656Z</time></trkpt><trkpt lat="39.6684271" lon="8.6521471"><ele>16.0</ele><time>2026-04-23T11:42:14.654Z</time></trkpt><trkpt lat="39.6643635" lon="8.6525819"><ele>19.0</ele><time>2026-04-23T11:42:32.655Z</time></trkpt><trkpt lat="39.6602034" lon="8.6530076"><ele>20.0</ele><time>2026-04-23T11:42:50.66Z</time></trkpt><trkpt lat="39.6560528" lon="8.653449"><ele>21.0</ele><time>2026-04-23T11:43:08.661Z</time></trkpt><trkpt lat="39.6518056" lon="8.653887"><ele>23.0</ele><time>2026-04-23T11:43:27.673Z</time></trkpt><trkpt lat="39.6475824" lon="8.6543341"><ele>27.0</ele><time>2026-04-23T11:43:46.673Z</time></trkpt><trkpt lat="39.6433537" lon="8.6547694"><ele>29.0</ele><time>2026-04-23T11:44:05.675Z</time></trkpt><trkpt lat="39.6391534" lon="8.6552208"><ele>30.0</ele><time>2026-04-23T11:44:23.768Z</time></trkpt><trkpt lat="39.6349896" lon="8.6556474"><ele>33.0</ele><time>2026-04-23T11:44:41.763Z</time></trkpt><trkpt lat="39.6309372" lon="8.656043"><ele>40.0</ele><time>2026-04-23T11:44:58.765Z</time></trkpt><trkpt lat="39.6267277" lon="8.656475"><ele>38.0</ele><time>2026-04-23T11:45:16.765Z</time></trkpt><trkpt lat="39.6225617" lon="8.6573215"><ele>37.0</ele><time>2026-04-23T11:45:34.76Z</time></trkpt><trkpt lat="39.6183444" lon="8.6582067"><ele>43.0</ele><time>2026-04-23T11:45:53.763Z</time></trkpt><trkpt lat="39.6141625" lon="8.6590454"><ele>45.0</ele><time>2026-04-23T11:46:11.764Z</time></trkpt><trkpt lat="39.6099237" lon="8.6599071"><ele>47.0</ele><time>2026-04-23T11:46:29.766Z</time></trkpt><trkpt lat="39.6057589" lon="8.6607753"><ele>49.0</ele><time>2026-04-23T11:46:47.774Z</time></trkpt><trkpt lat="39.6015034" lon="8.6616541"><ele>50.0</ele><time>2026-04-23T11:47:05.766Z</time></trkpt><trkpt lat="39.5967956" lon="8.6626268"><ele>55.0</ele><time>2026-04-23T11:47:24.774Z</time></trkpt><trkpt lat="39.5919325" lon="8.6636215"><ele>57.0</ele><time>2026-04-23T11:47:44.764Z</time></trkpt><trkpt lat="39.5878814" lon="8.6644744"><ele>62.0</ele><time>2026-04-23T11:48:01.769Z</time></trkpt><trkpt lat="39.5838233" lon="8.6653207"><ele>64.0</ele><time>2026-04-23T11:48:18.775Z</time></trkpt><trkpt lat="39.579803" lon="8.6640164"><ele>68.0</ele><time>2026-04-23T11:48:36.768Z</time></trkpt><trkpt lat="39.575718" lon="8.6605913"><ele>72.0</ele><time>2026-04-23T11:48:56.769Z</time></trkpt><trkpt lat="39.5716436" lon="8.657162"><ele>73.0</ele><time>2026-04-23T11:49:16.768Z</time></trkpt><trkpt lat="39.5681707" lon="8.6542812"><ele>80.0</ele><time>2026-04-23T11:49:33.767Z</time></trkpt><trkpt lat="39.5640868" lon="8.6508877"><ele>81.0</ele><time>2026-04-23T11:49:55.766Z</time></trkpt><trkpt lat="39.5606344" lon="8.6480169"><ele>85.0</ele><time>2026-04-23T11:50:13.763Z</time></trkpt><trkpt lat="39.5571952" lon="8.6451414"><ele>87.0</ele><time>2026-04-23T11:50:31.765Z</time></trkpt><trkpt lat="39.5536078" lon="8.6421568"><ele>98.0</ele><time>2026-04-23T11:50:50.763Z</time></trkpt><trkpt lat="39.5501474" lon="8.6392612"><ele>105.0</ele><time>2026-04-23T11:51:12.765Z</time></trkpt><trkpt lat="39.547855" lon="8.6374006"><ele>106.0</ele><time>2026-04-23T11:51:35.753Z</time></trkpt><trkpt lat="39.5461676" lon="8.6359095"><ele>106.0</ele><time>2026-04-23T11:51:58.747Z</time></trkpt><trkpt lat="39.5461103" lon="8.6358659"><ele>106.0</ele><time>2026-04-23T11:52:09.746Z</time></trkpt><trkpt lat="39.5449442" lon="8.6349195"><ele>115.0</ele><time>2026-04-23T11:52:42.762Z</time></trkpt><trkpt lat="39.5429669" lon="8.6325231"><ele>116.0</ele><time>2026-04-23T11:53:07.742Z</time></trkpt><trkpt lat="39.5432349" lon="8.6289198"><ele>119.0</ele><time>2026-04-23T11:53:28.723Z</time></trkpt><trkpt lat="39.5443997" lon="8.6257147"><ele>119.0</ele><time>2026-04-23T11:53:47.713Z</time></trkpt><trkpt lat="39.5470787" lon="8.6261948"><ele>118.0</ele><time>2026-04-23T11:54:07.651Z</time></trkpt><trkpt lat="39.5504073" lon="8.6250644"><ele>118.0</ele><time>2026-04-23T11:54:26.65Z</time></trkpt><trkpt lat="39.5539111" lon="8.6224197"><ele>131.0</ele><time>2026-04-23T11:54:50.648Z</time></trkpt><trkpt lat="39.5562035" lon="8.6191327"><ele>137.0</ele><time>2026-04-23T11:55:08.638Z</time></trkpt><trkpt lat="39.5576463" lon="8.6159908"><ele>138.0</ele><time>2026-04-23T11:55:26.651Z</time></trkpt><trkpt lat="39.5581035" lon="8.6116314"><ele>139.0</ele><time>2026-04-23T11:55:41.667Z</time></trkpt><trkpt lat="39.5591757" lon="8.6074851"><ele>145.0</ele><time>2026-04-23T11:55:59.656Z</time></trkpt><trkpt lat="39.5598256" lon="8.6031117"><ele>159.0</ele><time>2026-04-23T11:56:15.658Z</time></trkpt><trkpt lat="39.5604571" lon="8.5969844"><ele>182.0</ele><time>2026-04-23T11:56:41.645Z</time></trkpt><trkpt lat="39.5584537" lon="8.5922545"><ele>205.0</ele><time>2026-04-23T11:57:02.632Z</time></trkpt><trkpt lat="39.5568373" lon="8.5882429"><ele>221.0</ele><time>2026-04-23T11:57:24.652Z</time></trkpt><trkpt lat="39.5569165" lon="8.5846833"><ele>245.0</ele><time>2026-04-23T11:57:42.638Z</time></trkpt><trkpt lat="39.5554553" lon="8.5816042"><ele>305.0</ele><time>2026-04-23T11:58:37.662Z</time></trkpt><trkpt lat="39.5545118" lon="8.5782596"><ele>298.0</ele><time>2026-04-23T11:59:06.655Z</time></trkpt><trkpt lat="39.5560249" lon="8.5764593"><ele>354.0</ele><time>2026-04-23T11:59:24.634Z</time></trkpt><trkpt lat="39.5561553" lon="8.5737693"><ele>369.0</ele><time>2026-04-23T12:00:49.62Z</time></trkpt><trkpt lat="39.557515" lon="8.5706651"><ele>364.0</ele><time>2026-04-23T12:01:15.615Z</time></trkpt><trkpt lat="39.5562709" lon="8.5685722"><ele>354.0</ele><time>2026-04-23T12:12:01.618Z</time></trkpt><trkpt lat="39.5561463" lon="8.5659584"><ele>328.0</ele><time>2026-04-23T12:12:24.629Z</time></trkpt><trkpt lat="39.5561445" lon="8.5632962"><ele>327.0</ele><time>2026-04-23T12:13:11.63Z</time></trkpt><trkpt lat="39.5555476" lon="8.5607896"><ele>330.0</ele><time>2026-04-23T12:13:38.639Z</time></trkpt><trkpt lat="39.5561788" lon="8.5582657"><ele>319.0</ele><time>2026-04-23T12:14:06.632Z</time></trkpt><trkpt lat="39.5569947" lon="8.5567943"><ele>309.0</ele><time>2026-04-23T12:14:29.649Z</time></trkpt><trkpt lat="39.5573873" lon="8.5542021"><ele>312.0</ele><time>2026-04-23T12:14:52.65Z</time></trkpt><trkpt lat="39.558292" lon="8.5517694"><ele>314.0</ele><time>2026-04-23T12:15:14.64Z</time></trkpt><trkpt lat="39.5595222" lon="8.5495842"><ele>301.0</ele><time>2026-04-23T12:15:39.618Z</time></trkpt><trkpt lat="39.5600065" lon="8.5470268"><ele>284.0</ele><time>2026-04-23T12:16:00.636Z</time></trkpt><trkpt lat="39.5595523" lon="8.5443311"><ele>286.0</ele><time>2026-04-23T12:16:22.63Z</time></trkpt><trkpt lat="39.5594205" lon="8.540825"><ele>289.0</ele><time>2026-04-23T12:16:54.627Z</time></trkpt><trkpt lat="39.5594098" lon="8.5381575"><ele>283.0</ele><time>2026-04-23T12:17:17.631Z</time></trkpt><trkpt lat="39.5587336" lon="8.5356801"><ele>263.0</ele><time>2026-04-23T12:17:45.633Z</time></trkpt><trkpt lat="39.5579166" lon="8.5332158"><ele>230.0</ele><time>2026-04-23T12:18:17.64Z</time></trkpt><trkpt lat="39.5585247" lon="8.5307063"><ele>240.0</ele><time>2026-04-23T12:19:00.636Z</time></trkpt><trkpt lat="39.5580303" lon="8.5290409"><ele>214.0</ele><time>2026-04-23T12:19:26.642Z</time></trkpt><trkpt lat="39.557821" lon="8.5273157"><ele>206.0</ele><time>2026-04-23T12:19:47.645Z</time></trkpt><trkpt lat="39.5583758" lon="8.5257226"><ele>180.0</ele><time>2026-04-23T12:20:12.638Z</time></trkpt><trkpt lat="39.5587771" lon="8.5240099"><ele>161.0</ele><time>2026-04-23T12:20:45.624Z</time></trkpt><trkpt lat="39.558291" lon="8.5223792"><ele>130.0</ele><time>2026-04-23T12:21:28.636Z</time></trkpt><trkpt lat="39.5569272" lon="8.5224434"><ele>117.0</ele><time>2026-04-23T12:22:02.635Z</time></trkpt><trkpt lat="39.5577537" lon="8.5210216"><ele>92.0</ele><time>2026-04-23T12:22:36.636Z</time></trkpt><trkpt lat="39.5587509" lon="8.5198079"><ele>86.0</ele><time>2026-04-23T12:23:08.635Z</time></trkpt><trkpt lat="39.558736" lon="8.5180373"><ele>85.0</ele><time>2026-04-23T12:32:50.635Z</time></trkpt><trkpt lat="39.5579258" lon="8.5166061"><ele>82.0</ele><time>2026-04-23T12:33:14.625Z</time></trkpt><trkpt lat="39.5574856" lon="8.5149335"><ele>78.0</ele><time>2026-04-23T12:33:38.627Z</time></trkpt><trkpt lat="39.5567832" lon="8.5134169"><ele>85.0</ele><time>2026-04-23T12:34:08.624Z</time></trkpt><trkpt lat="39.5563292" lon="8.5117456"><ele>78.0</ele><time>2026-04-23T12:43:09.641Z</time></trkpt><trkpt lat="39.5554997" lon="8.5103274"><ele>70.0</ele><time>2026-04-23T12:43:39.631Z</time></trkpt><trkpt lat="39.5548619" lon="8.5087884"><ele>76.0</ele><time>2026-04-23T12:44:12.639Z</time></trkpt><trkpt lat="39.5546124" lon="8.5070725"><ele>72.0</ele><time>2026-04-23T12:44:45.631Z</time></trkpt><trkpt lat="39.5545326" lon="8.5052928"><ele>68.0</ele><time>2026-04-23T12:45:14.625Z</time></trkpt><trkpt lat="39.5542904" lon="8.5035149"><ele>75.0</ele><time>2026-04-23T12:45:45.633Z</time></trkpt><trkpt lat="39.553917" lon="8.501813"><ele>59.0</ele><time>2026-04-23T12:46:13.634Z</time></trkpt><trkpt lat="39.5530045" lon="8.5005017"><ele>56.0</ele><time>2026-04-23T12:46:55.635Z</time></trkpt><trkpt lat="39.5524927" lon="8.4988769"><ele>52.0</ele><time>2026-04-23T12:47:30.628Z</time></trkpt><trkpt lat="39.5530031" lon="8.4972608"><ele>51.0</ele><time>2026-04-23T12:48:34.63Z</time></trkpt><trkpt lat="39.5528587" lon="8.4955206"><ele>53.0</ele><time>2026-04-23T12:49:04.629Z</time></trkpt><trkpt lat="39.5530737" lon="8.4937881"><ele>65.0</ele><time>2026-04-23T12:49:40.621Z</time></trkpt><trkpt lat="39.5534263" lon="8.4920822"><ele>47.0</ele><time>2026-04-23T12:52:44.629Z</time></trkpt><trkpt lat="39.5531478" lon="8.4903481"><ele>34.0</ele><time>2026-04-23T12:53:16.622Z</time></trkpt><trkpt lat="39.5530363" lon="8.488588"><ele>33.0</ele><time>2026-04-23T12:53:45.626Z</time></trkpt><trkpt lat="39.5526556" lon="8.4869109"><ele>36.0</ele><time>2026-04-23T12:54:14.616Z</time></trkpt><trkpt lat="39.5518053" lon="8.4854598"><ele>28.0</ele><time>2026-04-23T12:54:40.609Z</time></trkpt><trkpt lat="39.5512834" lon="8.4838346"><ele>28.0</ele><time>2026-04-23T12:55:07.619Z</time></trkpt><trkpt lat="39.5513848" lon="8.4820796"><ele>26.0</ele><time>2026-04-23T12:55:34.614Z</time></trkpt><trkpt lat="39.5514873" lon="8.4802535"><ele>20.0</ele><time>2026-04-23T12:55:55.619Z</time></trkpt><trkpt lat="39.5507277" lon="8.4778017"><ele>34.0</ele><time>2026-04-23T12:56:39.624Z</time></trkpt><trkpt lat="39.5503218" lon="8.4761083"><ele>17.0</ele><time>2026-04-23T12:57:02.612Z</time></trkpt><trkpt lat="39.5493547" lon="8.4737702"><ele>15.0</ele><time>2026-04-23T12:57:40.623Z</time></trkpt><trkpt lat="39.5484934" lon="8.4724097"><ele>16.0</ele><time>2026-04-23T12:58:03.629Z</time></trkpt><trkpt lat="39.5476502" lon="8.4710238"><ele>15.0</ele><time>2026-04-23T12:58:23.63Z</time></trkpt><trkpt lat="39.5474798" lon="8.469214"><ele>12.0</ele><time>2026-04-23T12:58:45.637Z</time></trkpt><trkpt lat="39.5464008" lon="8.4669211"><ele>19.0</ele><time>2026-04-23T12:59:14.63Z</time></trkpt><trkpt lat="39.545336" lon="8.4657634"><ele>10.0</ele><time>2026-04-23T12:59:34.63Z</time></trkpt><trkpt lat="39.5439425" lon="8.4638059"><ele>22.0</ele><time>2026-04-23T13:00:07.64Z</time></trkpt><trkpt lat="39.5427773" lon="8.4627589"><ele>45.0</ele><time>2026-04-23T13:00:26.649Z</time></trkpt><trkpt lat="39.5407985" lon="8.4619295"><ele>35.0</ele><time>2026-04-23T13:00:53.649Z</time></trkpt><trkpt lat="39.5388289" lon="8.462623"><ele>23.0</ele><time>2026-04-23T13:01:34.624Z</time></trkpt><trkpt lat="39.5377745" lon="8.4637895"><ele>21.0</ele><time>2026-04-23T13:01:58.627Z</time></trkpt><trkpt lat="39.5366546" lon="8.4648419"><ele>28.0</ele><time>2026-04-23T13:02:21.616Z</time></trkpt><trkpt lat="39.5354556" lon="8.465726"><ele>18.0</ele><time>2026-04-23T13:02:41.627Z</time></trkpt><trkpt lat="39.5341082" lon="8.4655565"><ele>25.0</ele><time>2026-04-23T13:03:08.62Z</time></trkpt><trkpt lat="39.5328705" lon="8.4648411"><ele>22.0</ele><time>2026-04-23T13:03:52.625Z</time></trkpt><trkpt lat="39.5340319" lon="8.463901"><ele>19.0</ele><time>2026-04-23T13:04:26.625Z</time></trkpt><trkpt lat="39.5355409" lon="8.4620475"><ele>17.0</ele><time>2026-04-23T13:04:51.632Z</time></trkpt><trkpt lat="39.5362647" lon="8.4595413"><ele>14.0</ele><time>2026-04-23T13:05:20.641Z</time></trkpt><trkpt lat="39.5376872" lon="8.4576364"><ele>13.0</ele><time>2026-04-23T13:05:55.625Z</time></trkpt><trkpt lat="39.5389602" lon="8.4555908"><ele>14.0</ele><time>2026-04-23T13:06:24.649Z</time></trkpt><trkpt lat="39.5394492" lon="8.4538811"><ele>14.0</ele><time>2026-04-23T13:06:47.633Z</time></trkpt></trkseg><trkseg><trkpt lat="39.5389863" lon="8.4549988"><ele>10.0</ele><time>2026-04-23T13:19:08.625Z</time></trkpt><trkpt lat="39.5383068" lon="8.4565536"><ele>15.0</ele><time>2026-04-23T13:19:36.609Z</time></trkpt><trkpt lat="39.5375396" lon="8.4580339"><ele>17.0</ele><time>2026-04-23T13:20:00.619Z</time></trkpt><trkpt lat="39.5364202" lon="8.4590326"><ele>19.0</ele><time>2026-04-23T13:20:24.618Z</time></trkpt><trkpt lat="39.5357476" lon="8.4615398"><ele>32.0</ele><time>2026-04-23T13:20:50.615Z</time></trkpt><trkpt lat="39.5345144" lon="8.4636481"><ele>25.0</ele><time>2026-04-23T13:21:16.619Z</time></trkpt><trkpt lat="39.5327009" lon="8.4648726"><ele>28.0</ele><time>2026-04-23T13:21:40.61Z</time></trkpt><trkpt lat="39.5307269" lon="8.4656176"><ele>31.0</ele><time>2026-04-23T13:22:03.612Z</time></trkpt><trkpt lat="39.5299869" lon="8.4671531"><ele>34.0</ele><time>2026-04-23T13:22:22.618Z</time></trkpt><trkpt lat="39.5284635" lon="8.4690007"><ele>35.0</ele><time>2026-04-23T13:22:49.62Z</time></trkpt><trkpt lat="39.5275164" lon="8.471316"><ele>48.0</ele><time>2026-04-23T13:23:16.619Z</time></trkpt><trkpt lat="39.5258327" lon="8.4728681"><ele>48.0</ele><time>2026-04-23T13:23:41.614Z</time></trkpt><trkpt lat="39.5245438" lon="8.4750275"><ele>51.0</ele><time>2026-04-23T13:24:06.607Z</time></trkpt><trkpt lat="39.5224544" lon="8.475547"><ele>68.0</ele><time>2026-04-23T13:24:28.619Z</time></trkpt><trkpt lat="39.5210348" lon="8.4774703"><ele>69.0</ele><time>2026-04-23T13:24:53.617Z</time></trkpt><trkpt lat="39.5209034" lon="8.4801279"><ele>70.0</ele><time>2026-04-23T13:25:20.612Z</time></trkpt><trkpt lat="39.5200579" lon="8.4825395"><ele>72.0</ele><time>2026-04-23T13:25:52.597Z</time></trkpt><trkpt lat="39.5189134" lon="8.4834849"><ele>97.0</ele><time>2026-04-23T13:26:10.602Z</time></trkpt><trkpt lat="39.5186702" lon="8.4861333"><ele>112.0</ele><time>2026-04-23T13:26:38.601Z</time></trkpt><trkpt lat="39.5176644" lon="8.4884877"><ele>116.0</ele><time>2026-04-23T13:27:10.579Z</time></trkpt><trkpt lat="39.5160745" lon="8.4901582"><ele>105.0</ele><time>2026-04-23T13:27:30.603Z</time></trkpt><trkpt lat="39.5147602" lon="8.4922323"><ele>110.0</ele><time>2026-04-23T13:27:53.616Z</time></trkpt><trkpt lat="39.5151579" lon="8.49494"><ele>123.0</ele><time>2026-04-23T13:28:25.62Z</time></trkpt><trkpt lat="39.5160724" lon="8.4982348"><ele>143.0</ele><time>2026-04-23T13:28:49.602Z</time></trkpt><trkpt lat="39.5178137" lon="8.4998029"><ele>144.0</ele><time>2026-04-23T13:29:11.609Z</time></trkpt><trkpt lat="39.5195444" lon="8.5013758"><ele>166.0</ele><time>2026-04-23T13:29:34.608Z</time></trkpt><trkpt lat="39.5200607" lon="8.5039548"><ele>179.0</ele><time>2026-04-23T13:29:58.601Z</time></trkpt><trkpt lat="39.5213807" lon="8.5059738"><ele>210.0</ele><time>2026-04-23T13:30:24.599Z</time></trkpt><trkpt lat="39.5221117" lon="8.5084863"><ele>250.0</ele><time>2026-04-23T13:30:43.594Z</time></trkpt><trkpt lat="39.5198658" lon="8.5104461"><ele>237.0</ele><time>2026-04-23T13:31:51.608Z</time></trkpt><trkpt lat="39.5211825" lon="8.5098936"><ele>262.0</ele><time>2026-04-23T13:32:14.602Z</time></trkpt><trkpt lat="39.5223527" lon="8.5121098"><ele>272.0</ele><time>2026-04-23T13:33:20.602Z</time></trkpt><trkpt lat="39.5224291" lon="8.513917"><ele>285.0</ele><time>2026-04-23T13:33:36.603Z</time></trkpt><trkpt lat="39.5243509" lon="8.5129832"><ele>286.0</ele><time>2026-04-23T13:34:24.605Z</time></trkpt><trkpt lat="39.5254461" lon="8.5140285"><ele>280.0</ele><time>2026-04-23T13:34:50.607Z</time></trkpt><trkpt lat="39.5257318" lon="8.5158067"><ele>270.0</ele><time>2026-04-23T13:35:10.603Z</time></trkpt><trkpt lat="39.5261811" lon="8.5174718"><ele>266.0</ele><time>2026-04-23T13:35:47.606Z</time></trkpt><trkpt lat="39.5259813" lon="8.5192647"><ele>239.0</ele><time>2026-04-23T13:36:06.615Z</time></trkpt><trkpt lat="39.527178" lon="8.5183316"><ele>224.0</ele><time>2026-04-23T13:36:29.604Z</time></trkpt><trkpt lat="39.5292414" lon="8.518212"><ele>205.0</ele><time>2026-04-23T13:37:05.612Z</time></trkpt><trkpt lat="39.5312917" lon="8.5179189"><ele>208.0</ele><time>2026-04-23T13:37:34.61Z</time></trkpt><trkpt lat="39.530064" lon="8.5200121"><ele>193.0</ele><time>2026-04-23T13:38:08.601Z</time></trkpt><trkpt lat="39.5309845" lon="8.5223934"><ele>163.0</ele><time>2026-04-23T13:38:50.611Z</time></trkpt><trkpt lat="39.5328023" lon="8.5236104"><ele>169.0</ele><time>2026-04-23T13:39:43.623Z</time></trkpt><trkpt lat="39.5335659" lon="8.5260609"><ele>174.0</ele><time>2026-04-23T13:42:14.594Z</time></trkpt><trkpt lat="39.5342534" lon="8.5285875"><ele>191.0</ele><time>2026-04-23T13:42:34.6Z</time></trkpt><trkpt lat="39.5350119" lon="8.531028"><ele>226.0</ele><time>2026-04-23T13:43:07.595Z</time></trkpt><trkpt lat="39.5362215" lon="8.5331589"><ele>213.0</ele><time>2026-04-23T13:43:33.6Z</time></trkpt><trkpt lat="39.5360148" lon="8.5349309"><ele>258.0</ele><time>2026-04-23T13:43:58.621Z</time></trkpt><trkpt lat="39.53794" lon="8.5357687"><ele>257.0</ele><time>2026-04-23T13:44:36.596Z</time></trkpt><trkpt lat="39.5380643" lon="8.5375144"><ele>264.0</ele><time>2026-04-23T13:44:54.608Z</time></trkpt><trkpt lat="39.5392894" lon="8.538307"><ele>249.0</ele><time>2026-04-23T13:45:23.587Z</time></trkpt><trkpt lat="39.5402142" lon="8.5396037"><ele>289.0</ele><time>2026-04-23T13:45:44.582Z</time></trkpt><trkpt lat="39.5407961" lon="8.5422227"><ele>306.0</ele><time>2026-04-23T13:46:30.584Z</time></trkpt><trkpt lat="39.542798" lon="8.5429597"><ele>341.0</ele><time>2026-04-23T13:46:58.585Z</time></trkpt><trkpt lat="39.5437229" lon="8.5453259"><ele>340.0</ele><time>2026-04-23T13:47:23.581Z</time></trkpt><trkpt lat="39.5453022" lon="8.5470199"><ele>325.0</ele><time>2026-04-23T13:48:03.596Z</time></trkpt><trkpt lat="39.5463663" lon="8.548213"><ele>317.0</ele><time>2026-04-23T13:48:22.603Z</time></trkpt><trkpt lat="39.5473438" lon="8.5505779"><ele>293.0</ele><time>2026-04-23T13:48:51.602Z</time></trkpt><trkpt lat="39.5487484" lon="8.5525072"><ele>310.0</ele><time>2026-04-23T13:49:23.608Z</time></trkpt><trkpt lat="39.5492576" lon="8.5542152"><ele>301.0</ele><time>2026-04-23T13:49:41.595Z</time></trkpt><trkpt lat="39.5498939" lon="8.5567662"><ele>300.0</ele><time>2026-04-23T13:50:08.598Z</time></trkpt><trkpt lat="39.5514767" lon="8.5584818"><ele>301.0</ele><time>2026-04-23T13:50:35.592Z</time></trkpt><trkpt lat="39.5525737" lon="8.5607465"><ele>324.0</ele><time>2026-04-23T13:51:12.59Z</time></trkpt><trkpt lat="39.5534315" lon="8.5621107"><ele>319.0</ele><time>2026-04-23T13:51:43.583Z</time></trkpt><trkpt lat="39.5539293" lon="8.5638131"><ele>368.0</ele><time>2026-04-23T13:52:00.575Z</time></trkpt><trkpt lat="39.5544812" lon="8.5664314"><ele>374.0</ele><time>2026-04-23T13:52:44.585Z</time></trkpt><trkpt lat="39.5548849" lon="8.5690979"><ele>373.0</ele><time>2026-04-23T13:53:08.575Z</time></trkpt><trkpt lat="39.5568592" lon="8.5699699"><ele>358.0</ele><time>2026-04-23T13:55:10.576Z</time></trkpt><trkpt lat="39.557692" lon="8.5675462"><ele>355.0</ele><time>2026-04-23T13:55:40.581Z</time></trkpt><trkpt lat="39.5600171" lon="8.5656862"><ele>332.0</ele><time>2026-04-23T13:56:01.579Z</time></trkpt><trkpt lat="39.56168" lon="8.5628439"><ele>315.0</ele><time>2026-04-23T13:56:24.594Z</time></trkpt><trkpt lat="39.5639757" lon="8.560976"><ele>293.0</ele><time>2026-04-23T13:56:44.593Z</time></trkpt><trkpt lat="39.5666929" lon="8.5608343"><ele>271.0</ele><time>2026-04-23T13:57:25.579Z</time></trkpt><trkpt lat="39.5686343" lon="8.5582604"><ele>267.0</ele><time>2026-04-23T13:57:50.577Z</time></trkpt><trkpt lat="39.5690749" lon="8.5555322"><ele>260.0</ele><time>2026-04-23T13:58:07.58Z</time></trkpt><trkpt lat="39.5704742" lon="8.5525343"><ele>246.0</ele><time>2026-04-23T13:58:32.575Z</time></trkpt><trkpt lat="39.5707147" lon="8.549826"><ele>238.0</ele><time>2026-04-23T13:58:49.583Z</time></trkpt><trkpt lat="39.5732211" lon="8.5482592"><ele>235.0</ele><time>2026-04-23T13:59:11.596Z</time></trkpt><trkpt lat="39.5756305" lon="8.5500401"><ele>238.0</ele><time>2026-04-23T13:59:30.596Z</time></trkpt><trkpt lat="39.5732211" lon="8.5482592"><ele>235.0</ele><time>2026-04-23T13:59:11.596Z</time></trkpt><trkpt lat="39.5756305" lon="8.5500401"><ele>226.0</ele><time>2026-04-23T13:59:30.596Z</time></trkpt><trkpt lat="39.5790515" lon="8.5501574"><ele>228.0</ele><time>2026-04-23T13:59:56.565Z</time></trkpt><trkpt lat="39.5788454" lon="8.5465659"><ele>248.0</ele><time>2026-04-23T14:00:24.561Z</time></trkpt><trkpt lat="39.5809563" lon="8.5441582"><ele>254.0</ele><time>2026-04-23T14:00:49.568Z</time></trkpt><trkpt lat="39.581058" lon="8.5405709"><ele>274.0</ele><time>2026-04-23T14:01:12.569Z</time></trkpt><trkpt lat="39.5810754" lon="8.5369899"><ele>254.0</ele><time>2026-04-23T14:01:29.563Z</time></trkpt><trkpt lat="39.581058" lon="8.5405709"><ele>274.0</ele><time>2026-04-23T14:01:12.569Z</time></trkpt><trkpt lat="39.5810754" lon="8.5369899"><ele>280.0</ele><time>2026-04-23T14:01:29.563Z</time></trkpt><trkpt lat="39.5811533" lon="8.5334292"><ele>308.0</ele><time>2026-04-23T14:01:56.582Z</time></trkpt><trkpt lat="39.5832048" lon="8.533224"><ele>296.0</ele><time>2026-04-23T14:02:28.581Z</time></trkpt><trkpt lat="39.5854306" lon="8.5311969"><ele>296.0</ele><time>2026-04-23T14:02:48.583Z</time></trkpt><trkpt lat="39.5881208" lon="8.5319522"><ele>307.0</ele><time>2026-04-23T14:03:10.581Z</time></trkpt><trkpt lat="39.5891742" lon="8.5296748"><ele>307.0</ele><time>2026-04-23T14:03:29.583Z</time></trkpt><trkpt lat="39.5911955" lon="8.52896"><ele>297.0</ele><time>2026-04-23T14:03:44.579Z</time></trkpt><trkpt lat="39.5935275" lon="8.5310698"><ele>308.0</ele><time>2026-04-23T14:04:09.579Z</time></trkpt><trkpt lat="39.5969529" lon="8.5316806"><ele>313.0</ele><time>2026-04-23T14:04:44.573Z</time></trkpt><trkpt lat="39.5996995" lon="8.5314764"><ele>299.0</ele><time>2026-04-23T14:05:10.576Z</time></trkpt><trkpt lat="39.6002765" lon="8.5289011"><ele>292.0</ele><time>2026-04-23T14:05:23.579Z</time></trkpt><trkpt lat="39.6017683" lon="8.5270249"><ele>289.0</ele><time>2026-04-23T14:05:38.577Z</time></trkpt><trkpt lat="39.6041105" lon="8.5250622"><ele>277.0</ele><time>2026-04-23T14:06:05.586Z</time></trkpt><trkpt lat="39.6061578" lon="8.5226053"><ele>273.0</ele><time>2026-04-23T14:06:27.577Z</time></trkpt><trkpt lat="39.6087766" lon="8.5214035"><ele>280.0</ele><time>2026-04-23T14:06:50.578Z</time></trkpt><trkpt lat="39.6101368" lon="8.5171617"><ele>282.0</ele><time>2026-04-23T14:07:28.59Z</time></trkpt><trkpt lat="39.607226" lon="8.5147246"><ele>289.0</ele><time>2026-04-23T14:07:53.587Z</time></trkpt><trkpt lat="39.6064257" lon="8.5112309"><ele>275.0</ele><time>2026-04-23T14:08:13.585Z</time></trkpt><trkpt lat="39.6078256" lon="8.507239"><ele>249.0</ele><time>2026-04-23T14:08:38.586Z</time></trkpt><trkpt lat="39.6100464" lon="8.5052105"><ele>230.0</ele><time>2026-04-23T14:09:02.582Z</time></trkpt><trkpt lat="39.6117752" lon="8.5023223"><ele>210.0</ele><time>2026-04-23T14:09:25.581Z</time></trkpt><trkpt lat="39.6124508" lon="8.4988143"><ele>183.0</ele><time>2026-04-23T14:10:01.578Z</time></trkpt><trkpt lat="39.6125624" lon="8.4960796"><ele>147.0</ele><time>2026-04-23T14:10:18.58Z</time></trkpt><trkpt lat="39.6146578" lon="8.4937153"><ele>130.0</ele><time>2026-04-23T14:10:49.578Z</time></trkpt><trkpt lat="39.6157328" lon="8.4902746"><ele>117.0</ele><time>2026-04-23T14:11:08.578Z</time></trkpt><trkpt lat="39.6179087" lon="8.4867337"><ele>110.0</ele><time>2026-04-23T14:11:28.59Z</time></trkpt><trkpt lat="39.6181913" lon="8.4832305"><ele>89.0</ele><time>2026-04-23T14:11:48.584Z</time></trkpt><trkpt lat="39.6207069" lon="8.4801925"><ele>86.0</ele><time>2026-04-23T14:12:24.582Z</time></trkpt><trkpt lat="39.6229087" lon="8.4781511"><ele>96.0</ele><time>2026-04-23T14:12:40.593Z</time></trkpt><trkpt lat="39.6245922" lon="8.4753735"><ele>86.0</ele><time>2026-04-23T14:13:05.58Z</time></trkpt><trkpt lat="39.6273683" lon="8.4760551"><ele>100.0</ele><time>2026-04-23T14:13:30.574Z</time></trkpt><trkpt lat="39.630121" lon="8.4771744"><ele>141.0</ele><time>2026-04-23T14:13:53.569Z</time></trkpt><trkpt lat="39.6334687" lon="8.476548"><ele>147.0</ele><time>2026-04-23T14:14:24.567Z</time></trkpt><trkpt lat="39.6349542" lon="8.4795443"><ele>151.0</ele><time>2026-04-23T14:14:44.568Z</time></trkpt><trkpt lat="39.6377586" lon="8.4770883"><ele>138.0</ele><time>2026-04-23T14:15:04.595Z</time></trkpt><trkpt lat="39.6405506" lon="8.4745672"><ele>118.0</ele><time>2026-04-23T14:15:26.586Z</time></trkpt><trkpt lat="39.6439989" lon="8.4742038"><ele>98.0</ele><time>2026-04-23T14:15:48.588Z</time></trkpt><trkpt lat="39.6466784" lon="8.4753588"><ele>121.0</ele><time>2026-04-23T14:16:08.59Z</time></trkpt><trkpt lat="39.6500868" lon="8.4750439"><ele>127.0</ele><time>2026-04-23T14:16:37.592Z</time></trkpt><trkpt lat="39.6531588" lon="8.4769315"><ele>127.0</ele><time>2026-04-23T14:17:21.593Z</time></trkpt><trkpt lat="39.6556406" lon="8.4754163"><ele>125.0</ele><time>2026-04-23T14:17:53.587Z</time></trkpt><trkpt lat="39.6584876" lon="8.4753203"><ele>136.0</ele><time>2026-04-23T14:18:15.593Z</time></trkpt><trkpt lat="39.6623725" lon="8.4734918"><ele>83.0</ele><time>2026-04-23T14:18:35.588Z</time></trkpt><trkpt lat="39.6645012" lon="8.4688491"><ele>77.0</ele><time>2026-04-23T14:19:08.596Z</time></trkpt><trkpt lat="39.666886" lon="8.4655186"><ele>30.0</ele><time>2026-04-23T14:19:27.595Z</time></trkpt><trkpt lat="39.6674598" lon="8.4610861"><ele>27.0</ele><time>2026-04-23T14:19:50.583Z</time></trkpt><trkpt lat="39.6683786" lon="8.4644469"><ele>41.0</ele><time>2026-04-23T14:20:16.592Z</time></trkpt><trkpt lat="39.6711169" lon="8.4640252"><ele>62.0</ele><time>2026-04-23T14:20:40.584Z</time></trkpt><trkpt lat="39.6738672" lon="8.4638946"><ele>56.0</ele><time>2026-04-23T14:21:01.584Z</time></trkpt><trkpt lat="39.6766838" lon="8.4642069"><ele>59.0</ele><time>2026-04-23T14:21:17.596Z</time></trkpt><trkpt lat="39.68005" lon="8.4648969"><ele>67.0</ele><time>2026-04-23T14:21:46.581Z</time></trkpt><trkpt lat="39.6827486" lon="8.4656561"><ele>82.0</ele><time>2026-04-23T14:22:07.587Z</time></trkpt><trkpt lat="39.6847528" lon="8.4661288"><ele>79.0</ele><time>2026-04-23T14:22:24.578Z</time></trkpt><trkpt lat="39.6869648" lon="8.469491"><ele>84.0</ele><time>2026-04-23T14:22:48.586Z</time></trkpt><trkpt lat="39.6903306" lon="8.4704489"><ele>62.0</ele><time>2026-04-23T14:23:43.584Z</time></trkpt><trkpt lat="39.6926034" lon="8.4725319"><ele>48.0</ele><time>2026-04-23T14:24:18.592Z</time></trkpt><trkpt lat="39.6953938" lon="8.4763373"><ele>54.0</ele><time>2026-04-23T14:24:38.588Z</time></trkpt><trkpt lat="39.6986739" lon="8.477628"><ele>48.0</ele><time>2026-04-23T14:25:02.586Z</time></trkpt><trkpt lat="39.701269" lon="8.4786867"><ele>37.0</ele><time>2026-04-23T14:25:23.593Z</time></trkpt><trkpt lat="39.7038974" lon="8.4815836"><ele>32.0</ele><time>2026-04-23T14:25:48.595Z</time></trkpt><trkpt lat="39.7059664" lon="8.4813796"><ele>21.0</ele><time>2026-04-23T14:26:05.593Z</time></trkpt><trkpt lat="39.7085184" lon="8.4828378"><ele>13.0</ele><time>2026-04-23T14:26:31.592Z</time></trkpt><trkpt lat="39.7112752" lon="8.482721"><ele>10.0</ele><time>2026-04-23T14:26:51.598Z</time></trkpt><trkpt lat="39.7133752" lon="8.4861842"><ele>1.0</ele><time>2026-04-23T14:27:21.58Z</time></trkpt><trkpt lat="39.7148131" lon="8.4881284"><ele>7.0</ele><time>2026-04-23T14:27:36.587Z</time></trkpt><trkpt lat="39.7141042" lon="8.4926061"><ele>4.0</ele><time>2026-04-23T14:27:56.576Z</time></trkpt><trkpt lat="39.7122861" lon="8.4964933"><ele>4.0</ele><time>2026-04-23T14:28:16.59Z</time></trkpt><trkpt lat="39.7133723" lon="8.4997093"><ele>1.0</ele><time>2026-04-23T14:29:49.587Z</time></trkpt><trkpt lat="39.7142365" lon="8.5030373"><ele>0.0</ele><time>2026-04-23T14:31:07.587Z</time></trkpt><trkpt lat="39.7166559" lon="8.5046619"><ele>1.0</ele><time>2026-04-23T14:31:24.597Z</time></trkpt><trkpt lat="39.7197439" lon="8.5066716"><ele>3.0</ele><time>2026-04-23T14:31:47.599Z</time></trkpt><trkpt lat="39.7208721" lon="8.5088811"><ele>9.0</ele><time>2026-04-23T14:32:06.594Z</time></trkpt><trkpt lat="39.7215799" lon="8.5132411"><ele>2.0</ele><time>2026-04-23T14:32:26.592Z</time></trkpt><trkpt lat="39.7216261" lon="8.5178524"><ele>3.0</ele><time>2026-04-23T14:32:44.594Z</time></trkpt><trkpt lat="39.7216719" lon="8.5232243"><ele>4.0</ele><time>2026-04-23T14:33:04.6Z</time></trkpt><trkpt lat="39.721709" lon="8.5286463"><ele>6.0</ele><time>2026-04-23T14:33:24.59Z</time></trkpt><trkpt lat="39.723927" lon="8.5332153"><ele>7.0</ele><time>2026-04-23T14:34:03.568Z</time></trkpt><trkpt lat="39.7280118" lon="8.5332372"><ele>6.0</ele><time>2026-04-23T14:34:23.579Z</time></trkpt><trkpt lat="39.7291788" lon="8.5374272"><ele>7.0</ele><time>2026-04-23T14:34:49.586Z</time></trkpt><trkpt lat="39.7291532" lon="8.5420533"><ele>5.0</ele><time>2026-04-23T14:35:06.592Z</time></trkpt><trkpt lat="39.7291964" lon="8.5474533"><ele>4.0</ele><time>2026-04-23T14:35:25.59Z</time></trkpt><trkpt lat="39.7291975" lon="8.5528528"><ele>9.0</ele><time>2026-04-23T14:35:43.591Z</time></trkpt><trkpt lat="39.7292374" lon="8.5582957"><ele>12.0</ele><time>2026-04-23T14:36:03.582Z</time></trkpt><trkpt lat="39.729217" lon="8.5628962"><ele>6.0</ele><time>2026-04-23T14:36:24.591Z</time></trkpt><trkpt lat="39.7292847" lon="8.5675464"><ele>10.0</ele><time>2026-04-23T14:36:40.592Z</time></trkpt><trkpt lat="39.7293195" lon="8.5728774"><ele>10.0</ele><time>2026-04-23T14:36:58.597Z</time></trkpt><trkpt lat="39.7293192" lon="8.5781934"><ele>12.0</ele><time>2026-04-23T14:37:16.591Z</time></trkpt><trkpt lat="39.7315693" lon="8.5827027"><ele>8.0</ele><time>2026-04-23T14:37:55.571Z</time></trkpt><trkpt lat="39.7355969" lon="8.5834961"><ele>9.0</ele><time>2026-04-23T14:38:24.566Z</time></trkpt><trkpt lat="39.7356057" lon="8.5872103"><ele>7.0</ele><time>2026-04-23T14:38:38.577Z</time></trkpt><trkpt lat="39.7357847" lon="8.5926715"><ele>8.0</ele><time>2026-04-23T14:38:58.595Z</time></trkpt><trkpt lat="39.7371429" lon="8.5976633"><ele>9.0</ele><time>2026-04-23T14:39:20.583Z</time></trkpt><trkpt lat="39.7384795" lon="8.6008358"><ele>5.0</ele><time>2026-04-23T14:39:39.6Z</time></trkpt><trkpt lat="39.7397313" lon="8.6041216"><ele>4.0</ele><time>2026-04-23T14:39:56.6Z</time></trkpt><trkpt lat="39.7413252" lon="8.6081126"><ele>6.0</ele><time>2026-04-23T14:40:21.596Z</time></trkpt><trkpt lat="39.7425865" lon="8.6113584"><ele>4.0</ele><time>2026-04-23T14:40:37.586Z</time></trkpt><trkpt lat="39.7445264" lon="8.6162188"><ele>1.0</ele><time>2026-04-23T14:40:58.597Z</time></trkpt><trkpt lat="39.7464357" lon="8.6210599"><ele>1.0</ele><time>2026-04-23T14:41:18.598Z</time></trkpt><trkpt lat="39.7483093" lon="8.6257184"><ele>6.0</ele><time>2026-04-23T14:41:40.592Z</time></trkpt><trkpt lat="39.7495298" lon="8.6288718"><ele>7.0</ele><time>2026-04-23T14:42:02.646Z</time></trkpt><trkpt lat="39.7508241" lon="8.6319949"><ele>10.0</ele><time>2026-04-23T14:42:23.674Z</time></trkpt><trkpt lat="39.7520137" lon="8.6352705"><ele>12.0</ele><time>2026-04-23T14:42:44.675Z</time></trkpt><trkpt lat="39.7529554" lon="8.6386305"><ele>14.0</ele><time>2026-04-23T14:43:07.664Z</time></trkpt><trkpt lat="39.7533899" lon="8.6422322"><ele>16.0</ele><time>2026-04-23T14:44:02.573Z</time></trkpt><trkpt lat="39.7554866" lon="8.6446959"><ele>17.0</ele><time>2026-04-23T14:44:21.592Z</time></trkpt><trkpt lat="39.7576274" lon="8.6470981"><ele>21.0</ele><time>2026-04-23T14:50:03.683Z</time></trkpt><trkpt lat="39.759659" lon="8.6494177"><ele>23.0</ele><time>2026-04-23T14:50:20.69Z</time></trkpt><trkpt lat="39.7622573" lon="8.6524099"><ele>27.0</ele><time>2026-04-23T14:50:41.676Z</time></trkpt><trkpt lat="39.7649258" lon="8.6554588"><ele>29.0</ele><time>2026-04-23T14:50:59.689Z</time></trkpt><trkpt lat="39.7682626" lon="8.6587074"><ele>34.0</ele><time>2026-04-23T14:51:22.676Z</time></trkpt><trkpt lat="39.7706541" lon="8.6618962"><ele>34.0</ele><time>2026-04-23T14:51:41.691Z</time></trkpt><trkpt lat="39.7743087" lon="8.6601949"><ele>32.0</ele><time>2026-04-23T14:52:30.59Z</time></trkpt><trkpt lat="39.7788302" lon="8.6576124"><ele>31.0</ele><time>2026-04-23T14:52:48.59Z</time></trkpt><trkpt lat="39.7832838" lon="8.6549192"><ele>28.0</ele><time>2026-04-23T14:53:06.595Z</time></trkpt><trkpt lat="39.7872344" lon="8.6527633"><ele>24.0</ele><time>2026-04-23T14:53:23.593Z</time></trkpt><trkpt lat="39.7916501" lon="8.6505047"><ele>23.0</ele><time>2026-04-23T14:53:41.59Z</time></trkpt><trkpt lat="39.7960758" lon="8.6480964"><ele>20.0</ele><time>2026-04-23T14:53:59.583Z</time></trkpt><trkpt lat="39.8006409" lon="8.6456433"><ele>17.0</ele><time>2026-04-23T14:54:17.7Z</time></trkpt><trkpt lat="39.8050445" lon="8.6432904"><ele>15.0</ele><time>2026-04-23T14:54:35.693Z</time></trkpt><trkpt lat="39.8094371" lon="8.640953"><ele>16.0</ele><time>2026-04-23T14:54:53.692Z</time></trkpt><trkpt lat="39.8138565" lon="8.6385839"><ele>16.0</ele><time>2026-04-23T14:55:12.691Z</time></trkpt><trkpt lat="39.8182591" lon="8.6361468"><ele>5.0</ele><time>2026-04-23T14:55:31.688Z</time></trkpt><trkpt lat="39.8227915" lon="8.6336478"><ele>5.0</ele><time>2026-04-23T14:55:51.692Z</time></trkpt><trkpt lat="39.8266212" lon="8.6315081"><ele>1.0</ele><time>2026-04-23T14:56:08.686Z</time></trkpt><trkpt lat="39.8304252" lon="8.6295647"><ele>10.0</ele><time>2026-04-23T14:56:25.696Z</time></trkpt><trkpt lat="39.8342683" lon="8.6276255"><ele>8.0</ele><time>2026-04-23T14:56:40.688Z</time></trkpt><trkpt lat="39.8388169" lon="8.6252382"><ele>8.0</ele><time>2026-04-23T14:56:59.688Z</time></trkpt><trkpt lat="39.8433214" lon="8.6228161"><ele>6.0</ele><time>2026-04-23T14:57:17.707Z</time></trkpt><trkpt lat="39.8479462" lon="8.6203367"><ele>2.0</ele><time>2026-04-23T14:57:35.68Z</time></trkpt><trkpt lat="39.8524548" lon="8.6179662"><ele>2.0</ele><time>2026-04-23T14:57:52.684Z</time></trkpt><trkpt lat="39.8569187" lon="8.6155318"><ele>5.0</ele><time>2026-04-23T14:58:09.682Z</time></trkpt><trkpt lat="39.8613609" lon="8.6131536"><ele>2.0</ele><time>2026-04-23T14:58:26.689Z</time></trkpt><trkpt lat="39.8660169" lon="8.6114819"><ele>5.0</ele><time>2026-04-23T14:58:44.686Z</time></trkpt><trkpt lat="39.8707703" lon="8.6130398"><ele>7.0</ele><time>2026-04-23T14:59:03.691Z</time></trkpt><trkpt lat="39.8752988" lon="8.6157255"><ele>10.0</ele><time>2026-04-23T14:59:22.692Z</time></trkpt><trkpt lat="39.8799464" lon="8.6178887"><ele>9.0</ele><time>2026-04-23T14:59:42.69Z</time></trkpt><trkpt lat="39.884399" lon="8.6200207"><ele>9.0</ele><time>2026-04-23T15:00:01.694Z</time></trkpt><trkpt lat="39.8887944" lon="8.6223618"><ele>9.0</ele><time>2026-04-23T15:00:20.703Z</time></trkpt><trkpt lat="39.8926365" lon="8.6243321"><ele>9.0</ele><time>2026-04-23T15:00:36.695Z</time></trkpt><trkpt lat="39.8972228" lon="8.6265213"><ele>14.0</ele><time>2026-04-23T15:00:55.698Z</time></trkpt><trkpt lat="39.9010556" lon="8.6282614"><ele>12.0</ele><time>2026-04-23T15:01:12.687Z</time></trkpt><trkpt lat="39.9043233" lon="8.6314037"><ele>15.0</ele><time>2026-04-23T15:01:42.673Z</time></trkpt><trkpt lat="39.9044073" lon="8.6296297"><ele>12.0</ele><time>2026-04-23T15:01:59.672Z</time></trkpt><trkpt lat="39.9037664" lon="8.6260407"><ele>13.0</ele><time>2026-04-23T15:02:15.682Z</time></trkpt><trkpt lat="39.9044159" lon="8.62171"><ele>16.0</ele><time>2026-04-23T15:02:37.609Z</time></trkpt><trkpt lat="39.9048584" lon="8.6173559"><ele>16.0</ele><time>2026-04-23T15:02:59.605Z</time></trkpt><trkpt lat="39.9047644" lon="8.6137654"><ele>12.0</ele><time>2026-04-23T15:03:17.603Z</time></trkpt><trkpt lat="39.9042504" lon="8.6093691"><ele>13.0</ele><time>2026-04-23T15:03:41.693Z</time></trkpt><trkpt lat="39.9044609" lon="8.6058441"><ele>11.0</ele><time>2026-04-23T15:04:09.688Z</time></trkpt><trkpt lat="39.9052058" lon="8.6033006"><ele>9.0</ele><time>2026-04-23T15:04:31.671Z</time></trkpt><trkpt lat="39.9061715" lon="8.6009636"><ele>6.0</ele><time>2026-04-23T15:05:06.693Z</time></trkpt><trkpt lat="39.9071125" lon="8.599681"><ele>9.0</ele><time>2026-04-23T15:28:23.61Z</time></trkpt><trkpt lat="39.9066376" lon="8.5980141"><ele>9.0</ele><time>2026-04-23T15:28:46.6Z</time></trkpt><trkpt lat="39.9067754" lon="8.5961744"><ele>10.0</ele><time>2026-04-23T15:29:07.601Z</time></trkpt><trkpt lat="39.9066422" lon="8.5934429"><ele>9.0</ele><time>2026-04-23T15:29:36.6Z</time></trkpt><trkpt lat="39.9059445" lon="8.5909486"><ele>9.0</ele><time>2026-04-23T15:30:12.602Z</time></trkpt><trkpt lat="39.9052111" lon="8.58935"><ele>9.0</ele><time>2026-04-23T15:31:03.606Z</time></trkpt><trkpt lat="39.9059512" lon="8.5908312"><ele>7.0</ele><time>2026-04-23T15:31:37.61Z</time></trkpt><trkpt lat="39.9061023" lon="8.589016"><ele>8.0</ele><time>2026-04-23T15:39:16.609Z</time></trkpt><trkpt lat="39.904824" lon="8.5883082"><ele>10.0</ele><time>2026-04-23T15:40:34.614Z</time></trkpt><trkpt lat="39.9034539" lon="8.5883233"><ele>7.0</ele><time>2026-04-23T15:41:13.69Z</time></trkpt><trkpt lat="39.9014225" lon="8.5883146"><ele>7.0</ele><time>2026-04-23T15:41:42.696Z</time></trkpt></trkseg></trk></gpx>